<?xml version="1.0" encoding="UTF-8" standalone="no" ?>
<gpx xmlns="http://www.topografix.com/GPX/1/1" xmlns:xsi="http://www.w3.org/2001/XMLSchema-instance" xsi:schemaLocation="http://www.topografix.com/GPX/1/1 http://www.topografix.com/GPX/1/1/gpx.xsd" version="1.1" creator="VisuGPX - https://www.visugpx.com">
  <metadata>
    <name>E-NE-Le Breuil Vertou La Haie Fouassière Vallet Le Puiset Doré Liré Ancenis Oudon Nantes</name>
    <desc><![CDATA[E-NE-Le Breuil Vertou La Haie Fouassière Vallet Le Puiset Doré Liré Ancenis Oudon Nantes]]></desc>
  </metadata>
  <trk>
    <name><![CDATA[2021-05-29 11:15 +02:00]]></name>
    <trkseg>
      <trkpt lat="47.16782" lon="-1.62656">
        <ele>45</ele>
        <time>2021-05-29T09:15:04.007Z</time>
      </trkpt>
      <trkpt lat="47.1677" lon="-1.62658">
        <ele>64</ele>
        <time>2021-05-29T09:15:06.005Z</time>
      </trkpt>
      <trkpt lat="47.16779" lon="-1.62651">
        <ele>56</ele>
        <time>2021-05-29T09:15:07.005Z</time>
      </trkpt>
      <trkpt lat="47.16773" lon="-1.62641">
        <ele>58</ele>
        <time>2021-05-29T09:16:19.000Z</time>
      </trkpt>
      <trkpt lat="47.16774" lon="-1.62655">
        <ele>64</ele>
        <time>2021-05-29T09:17:29.000Z</time>
      </trkpt>
      <trkpt lat="47.16783" lon="-1.6266">
        <ele>65</ele>
        <time>2021-05-29T09:17:33.000Z</time>
      </trkpt>
      <trkpt lat="47.1679" lon="-1.62651">
        <ele>67</ele>
        <time>2021-05-29T09:17:36.000Z</time>
      </trkpt>
      <trkpt lat="47.16795" lon="-1.6264">
        <ele>69</ele>
        <time>2021-05-29T09:17:37.000Z</time>
      </trkpt>
      <trkpt lat="47.16802" lon="-1.62626">
        <ele>71</ele>
        <time>2021-05-29T09:17:39.000Z</time>
      </trkpt>
      <trkpt lat="47.16812" lon="-1.62605">
        <ele>72</ele>
        <time>2021-05-29T09:17:42.000Z</time>
      </trkpt>
      <trkpt lat="47.16819" lon="-1.62592">
        <ele>72</ele>
        <time>2021-05-29T09:17:44.000Z</time>
      </trkpt>
      <trkpt lat="47.16825" lon="-1.62579">
        <ele>72</ele>
        <time>2021-05-29T09:17:46.000Z</time>
      </trkpt>
      <trkpt lat="47.16822" lon="-1.62564">
        <ele>71</ele>
        <time>2021-05-29T09:17:48.000Z</time>
      </trkpt>
      <trkpt lat="47.1681" lon="-1.62548">
        <ele>70</ele>
        <time>2021-05-29T09:17:51.000Z</time>
      </trkpt>
      <trkpt lat="47.168" lon="-1.62543">
        <ele>69</ele>
        <time>2021-05-29T09:17:53.000Z</time>
      </trkpt>
      <trkpt lat="47.1679" lon="-1.62537">
        <ele>69</ele>
        <time>2021-05-29T09:17:55.000Z</time>
      </trkpt>
      <trkpt lat="47.16778" lon="-1.6253">
        <ele>70</ele>
        <time>2021-05-29T09:17:57.000Z</time>
      </trkpt>
      <trkpt lat="47.16762" lon="-1.62521">
        <ele>70</ele>
        <time>2021-05-29T09:18:00.000Z</time>
      </trkpt>
      <trkpt lat="47.16751" lon="-1.62516">
        <ele>70</ele>
        <time>2021-05-29T09:18:02.000Z</time>
      </trkpt>
      <trkpt lat="47.16741" lon="-1.62511">
        <ele>70</ele>
        <time>2021-05-29T09:18:04.000Z</time>
      </trkpt>
      <trkpt lat="47.16731" lon="-1.62508">
        <ele>70</ele>
        <time>2021-05-29T09:18:06.000Z</time>
      </trkpt>
      <trkpt lat="47.16716" lon="-1.62497">
        <ele>71</ele>
        <time>2021-05-29T09:18:09.000Z</time>
      </trkpt>
      <trkpt lat="47.16711" lon="-1.62481">
        <ele>70</ele>
        <time>2021-05-29T09:18:11.000Z</time>
      </trkpt>
      <trkpt lat="47.16713" lon="-1.62464">
        <ele>68</ele>
        <time>2021-05-29T09:18:13.000Z</time>
      </trkpt>
      <trkpt lat="47.16715" lon="-1.62448">
        <ele>67</ele>
        <time>2021-05-29T09:18:15.000Z</time>
      </trkpt>
      <trkpt lat="47.16717" lon="-1.6243">
        <ele>68</ele>
        <time>2021-05-29T09:18:17.000Z</time>
      </trkpt>
      <trkpt lat="47.16722" lon="-1.62413">
        <ele>69</ele>
        <time>2021-05-29T09:18:19.000Z</time>
      </trkpt>
      <trkpt lat="47.16728" lon="-1.62396">
        <ele>66</ele>
        <time>2021-05-29T09:18:21.000Z</time>
      </trkpt>
      <trkpt lat="47.16732" lon="-1.62379">
        <ele>65</ele>
        <time>2021-05-29T09:18:23.000Z</time>
      </trkpt>
      <trkpt lat="47.16739" lon="-1.62364">
        <ele>67</ele>
        <time>2021-05-29T09:18:25.000Z</time>
      </trkpt>
      <trkpt lat="47.1675" lon="-1.62352">
        <ele>68</ele>
        <time>2021-05-29T09:18:27.000Z</time>
      </trkpt>
      <trkpt lat="47.16762" lon="-1.62342">
        <ele>69</ele>
        <time>2021-05-29T09:18:29.000Z</time>
      </trkpt>
      <trkpt lat="47.16773" lon="-1.62335">
        <ele>68</ele>
        <time>2021-05-29T09:18:31.000Z</time>
      </trkpt>
      <trkpt lat="47.16784" lon="-1.62329">
        <ele>70</ele>
        <time>2021-05-29T09:18:33.000Z</time>
      </trkpt>
      <trkpt lat="47.16796" lon="-1.62323">
        <ele>71</ele>
        <time>2021-05-29T09:18:35.000Z</time>
      </trkpt>
      <trkpt lat="47.16808" lon="-1.62316">
        <ele>71</ele>
        <time>2021-05-29T09:18:37.000Z</time>
      </trkpt>
      <trkpt lat="47.16818" lon="-1.62309">
        <ele>70</ele>
        <time>2021-05-29T09:18:39.000Z</time>
      </trkpt>
      <trkpt lat="47.16834" lon="-1.62292">
        <ele>71</ele>
        <time>2021-05-29T09:18:42.000Z</time>
      </trkpt>
      <trkpt lat="47.16844" lon="-1.6228">
        <ele>71</ele>
        <time>2021-05-29T09:18:44.000Z</time>
      </trkpt>
      <trkpt lat="47.16853" lon="-1.62268">
        <ele>71</ele>
        <time>2021-05-29T09:18:46.000Z</time>
      </trkpt>
      <trkpt lat="47.16868" lon="-1.62248">
        <ele>71</ele>
        <time>2021-05-29T09:18:49.000Z</time>
      </trkpt>
      <trkpt lat="47.16878" lon="-1.62237">
        <ele>71</ele>
        <time>2021-05-29T09:18:51.000Z</time>
      </trkpt>
      <trkpt lat="47.16889" lon="-1.62225">
        <ele>71</ele>
        <time>2021-05-29T09:18:53.000Z</time>
      </trkpt>
      <trkpt lat="47.16902" lon="-1.62206">
        <ele>71</ele>
        <time>2021-05-29T09:18:56.000Z</time>
      </trkpt>
      <trkpt lat="47.16911" lon="-1.62191">
        <ele>71</ele>
        <time>2021-05-29T09:18:58.000Z</time>
      </trkpt>
      <trkpt lat="47.1692" lon="-1.62177">
        <ele>71</ele>
        <time>2021-05-29T09:19:00.000Z</time>
      </trkpt>
      <trkpt lat="47.16928" lon="-1.6216">
        <ele>71</ele>
        <time>2021-05-29T09:19:02.000Z</time>
      </trkpt>
      <trkpt lat="47.16936" lon="-1.62145">
        <ele>71</ele>
        <time>2021-05-29T09:19:04.000Z</time>
      </trkpt>
      <trkpt lat="47.16948" lon="-1.62122">
        <ele>71</ele>
        <time>2021-05-29T09:19:07.000Z</time>
      </trkpt>
      <trkpt lat="47.16955" lon="-1.6211">
        <ele>70</ele>
        <time>2021-05-29T09:19:09.000Z</time>
      </trkpt>
      <trkpt lat="47.16963" lon="-1.62095">
        <ele>70</ele>
        <time>2021-05-29T09:19:11.000Z</time>
      </trkpt>
      <trkpt lat="47.16972" lon="-1.6208">
        <ele>70</ele>
        <time>2021-05-29T09:19:13.000Z</time>
      </trkpt>
      <trkpt lat="47.16988" lon="-1.6205">
        <ele>70</ele>
        <time>2021-05-29T09:19:17.000Z</time>
      </trkpt>
      <trkpt lat="47.16993" lon="-1.62035">
        <ele>69</ele>
        <time>2021-05-29T09:19:19.000Z</time>
      </trkpt>
      <trkpt lat="47.17" lon="-1.62019">
        <ele>68</ele>
        <time>2021-05-29T09:19:21.000Z</time>
      </trkpt>
      <trkpt lat="47.17015" lon="-1.61997">
        <ele>69</ele>
        <time>2021-05-29T09:19:24.000Z</time>
      </trkpt>
      <trkpt lat="47.17025" lon="-1.61982">
        <ele>69</ele>
        <time>2021-05-29T09:19:26.000Z</time>
      </trkpt>
      <trkpt lat="47.17034" lon="-1.6197">
        <ele>69</ele>
        <time>2021-05-29T09:19:28.000Z</time>
      </trkpt>
      <trkpt lat="47.17043" lon="-1.61959">
        <ele>69</ele>
        <time>2021-05-29T09:19:30.000Z</time>
      </trkpt>
      <trkpt lat="47.17056" lon="-1.61943">
        <ele>70</ele>
        <time>2021-05-29T09:19:33.000Z</time>
      </trkpt>
      <trkpt lat="47.17066" lon="-1.61932">
        <ele>69</ele>
        <time>2021-05-29T09:19:35.000Z</time>
      </trkpt>
      <trkpt lat="47.17076" lon="-1.61921">
        <ele>68</ele>
        <time>2021-05-29T09:19:37.000Z</time>
      </trkpt>
      <trkpt lat="47.17086" lon="-1.61911">
        <ele>68</ele>
        <time>2021-05-29T09:19:39.000Z</time>
      </trkpt>
      <trkpt lat="47.17096" lon="-1.61902">
        <ele>68</ele>
        <time>2021-05-29T09:19:41.000Z</time>
      </trkpt>
      <trkpt lat="47.17112" lon="-1.61888">
        <ele>68</ele>
        <time>2021-05-29T09:19:44.000Z</time>
      </trkpt>
      <trkpt lat="47.17122" lon="-1.61877">
        <ele>69</ele>
        <time>2021-05-29T09:19:46.000Z</time>
      </trkpt>
      <trkpt lat="47.17132" lon="-1.61868">
        <ele>70</ele>
        <time>2021-05-29T09:19:48.000Z</time>
      </trkpt>
      <trkpt lat="47.17142" lon="-1.61858">
        <ele>70</ele>
        <time>2021-05-29T09:19:50.000Z</time>
      </trkpt>
      <trkpt lat="47.17152" lon="-1.61849">
        <ele>70</ele>
        <time>2021-05-29T09:19:52.000Z</time>
      </trkpt>
      <trkpt lat="47.17162" lon="-1.61837">
        <ele>70</ele>
        <time>2021-05-29T09:19:54.000Z</time>
      </trkpt>
      <trkpt lat="47.17178" lon="-1.61823">
        <ele>70</ele>
        <time>2021-05-29T09:19:57.000Z</time>
      </trkpt>
      <trkpt lat="47.17188" lon="-1.61816">
        <ele>70</ele>
        <time>2021-05-29T09:19:59.000Z</time>
      </trkpt>
      <trkpt lat="47.17198" lon="-1.61805">
        <ele>70</ele>
        <time>2021-05-29T09:20:01.000Z</time>
      </trkpt>
      <trkpt lat="47.17208" lon="-1.61794">
        <ele>69</ele>
        <time>2021-05-29T09:20:03.000Z</time>
      </trkpt>
      <trkpt lat="47.17218" lon="-1.61784">
        <ele>69</ele>
        <time>2021-05-29T09:20:05.000Z</time>
      </trkpt>
      <trkpt lat="47.17221" lon="-1.61767">
        <ele>70</ele>
        <time>2021-05-29T09:20:07.000Z</time>
      </trkpt>
      <trkpt lat="47.17215" lon="-1.6175">
        <ele>70</ele>
        <time>2021-05-29T09:20:09.000Z</time>
      </trkpt>
      <trkpt lat="47.17205" lon="-1.61738">
        <ele>69</ele>
        <time>2021-05-29T09:20:11.000Z</time>
      </trkpt>
      <trkpt lat="47.17192" lon="-1.61722">
        <ele>70</ele>
        <time>2021-05-29T09:20:14.000Z</time>
      </trkpt>
      <trkpt lat="47.17181" lon="-1.61712">
        <ele>71</ele>
        <time>2021-05-29T09:20:16.000Z</time>
      </trkpt>
      <trkpt lat="47.17168" lon="-1.61697">
        <ele>70</ele>
        <time>2021-05-29T09:20:18.000Z</time>
      </trkpt>
      <trkpt lat="47.17161" lon="-1.61689">
        <ele>69</ele>
        <time>2021-05-29T09:20:19.000Z</time>
      </trkpt>
      <trkpt lat="47.17147" lon="-1.61676">
        <ele>67</ele>
        <time>2021-05-29T09:20:21.000Z</time>
      </trkpt>
      <trkpt lat="47.17133" lon="-1.61666">
        <ele>66</ele>
        <time>2021-05-29T09:20:23.000Z</time>
      </trkpt>
      <trkpt lat="47.17116" lon="-1.61659">
        <ele>66</ele>
        <time>2021-05-29T09:20:25.000Z</time>
      </trkpt>
      <trkpt lat="47.17108" lon="-1.61654">
        <ele>66</ele>
        <time>2021-05-29T09:20:26.000Z</time>
      </trkpt>
      <trkpt lat="47.17099" lon="-1.61648">
        <ele>66</ele>
        <time>2021-05-29T09:20:27.000Z</time>
      </trkpt>
      <trkpt lat="47.17069" lon="-1.61636">
        <ele>67</ele>
        <time>2021-05-29T09:20:31.000Z</time>
      </trkpt>
      <trkpt lat="47.17053" lon="-1.61634">
        <ele>66</ele>
        <time>2021-05-29T09:20:33.000Z</time>
      </trkpt>
      <trkpt lat="47.17041" lon="-1.61627">
        <ele>66</ele>
        <time>2021-05-29T09:20:35.000Z</time>
      </trkpt>
      <trkpt lat="47.17023" lon="-1.6161">
        <ele>64</ele>
        <time>2021-05-29T09:20:38.000Z</time>
      </trkpt>
      <trkpt lat="47.17016" lon="-1.61598">
        <ele>65</ele>
        <time>2021-05-29T09:20:40.000Z</time>
      </trkpt>
      <trkpt lat="47.17013" lon="-1.61579">
        <ele>66</ele>
        <time>2021-05-29T09:20:42.000Z</time>
      </trkpt>
      <trkpt lat="47.17012" lon="-1.61556">
        <ele>65</ele>
        <time>2021-05-29T09:20:44.000Z</time>
      </trkpt>
      <trkpt lat="47.17007" lon="-1.61537">
        <ele>67</ele>
        <time>2021-05-29T09:20:46.000Z</time>
      </trkpt>
      <trkpt lat="47.17002" lon="-1.61519">
        <ele>68</ele>
        <time>2021-05-29T09:20:48.000Z</time>
      </trkpt>
      <trkpt lat="47.16997" lon="-1.61502">
        <ele>70</ele>
        <time>2021-05-29T09:20:50.000Z</time>
      </trkpt>
      <trkpt lat="47.16991" lon="-1.61481">
        <ele>69</ele>
        <time>2021-05-29T09:20:52.000Z</time>
      </trkpt>
      <trkpt lat="47.16985" lon="-1.61461">
        <ele>69</ele>
        <time>2021-05-29T09:20:54.000Z</time>
      </trkpt>
      <trkpt lat="47.16978" lon="-1.61445">
        <ele>68</ele>
        <time>2021-05-29T09:20:56.000Z</time>
      </trkpt>
      <trkpt lat="47.16972" lon="-1.61432">
        <ele>69</ele>
        <time>2021-05-29T09:20:58.000Z</time>
      </trkpt>
      <trkpt lat="47.16966" lon="-1.61417">
        <ele>69</ele>
        <time>2021-05-29T09:21:00.000Z</time>
      </trkpt>
      <trkpt lat="47.1696" lon="-1.61403">
        <ele>69</ele>
        <time>2021-05-29T09:21:02.000Z</time>
      </trkpt>
      <trkpt lat="47.16953" lon="-1.61389">
        <ele>68</ele>
        <time>2021-05-29T09:21:04.000Z</time>
      </trkpt>
      <trkpt lat="47.16946" lon="-1.61375">
        <ele>68</ele>
        <time>2021-05-29T09:21:06.000Z</time>
      </trkpt>
      <trkpt lat="47.16937" lon="-1.61353">
        <ele>67</ele>
        <time>2021-05-29T09:21:09.000Z</time>
      </trkpt>
      <trkpt lat="47.16929" lon="-1.61337">
        <ele>68</ele>
        <time>2021-05-29T09:21:11.000Z</time>
      </trkpt>
      <trkpt lat="47.1692" lon="-1.61318">
        <ele>66</ele>
        <time>2021-05-29T09:21:13.000Z</time>
      </trkpt>
      <trkpt lat="47.16911" lon="-1.61301">
        <ele>64</ele>
        <time>2021-05-29T09:21:15.000Z</time>
      </trkpt>
      <trkpt lat="47.16902" lon="-1.61281">
        <ele>64</ele>
        <time>2021-05-29T09:21:17.000Z</time>
      </trkpt>
      <trkpt lat="47.16889" lon="-1.61265">
        <ele>62</ele>
        <time>2021-05-29T09:21:19.000Z</time>
      </trkpt>
      <trkpt lat="47.16873" lon="-1.61257">
        <ele>61</ele>
        <time>2021-05-29T09:21:21.000Z</time>
      </trkpt>
      <trkpt lat="47.16856" lon="-1.61254">
        <ele>60</ele>
        <time>2021-05-29T09:21:23.000Z</time>
      </trkpt>
      <trkpt lat="47.16838" lon="-1.61256">
        <ele>59</ele>
        <time>2021-05-29T09:21:25.000Z</time>
      </trkpt>
      <trkpt lat="47.16828" lon="-1.61258">
        <ele>57</ele>
        <time>2021-05-29T09:21:26.000Z</time>
      </trkpt>
      <trkpt lat="47.16819" lon="-1.61259">
        <ele>55</ele>
        <time>2021-05-29T09:21:27.000Z</time>
      </trkpt>
      <trkpt lat="47.16809" lon="-1.61255">
        <ele>54</ele>
        <time>2021-05-29T09:21:28.000Z</time>
      </trkpt>
      <trkpt lat="47.168" lon="-1.61251">
        <ele>55</ele>
        <time>2021-05-29T09:21:29.000Z</time>
      </trkpt>
      <trkpt lat="47.16791" lon="-1.61248">
        <ele>56</ele>
        <time>2021-05-29T09:21:30.000Z</time>
      </trkpt>
      <trkpt lat="47.16783" lon="-1.61242">
        <ele>56</ele>
        <time>2021-05-29T09:21:31.000Z</time>
      </trkpt>
      <trkpt lat="47.16767" lon="-1.61232">
        <ele>57</ele>
        <time>2021-05-29T09:21:33.000Z</time>
      </trkpt>
      <trkpt lat="47.16747" lon="-1.61216">
        <ele>58</ele>
        <time>2021-05-29T09:21:36.000Z</time>
      </trkpt>
      <trkpt lat="47.16736" lon="-1.61208">
        <ele>56</ele>
        <time>2021-05-29T09:21:38.000Z</time>
      </trkpt>
      <trkpt lat="47.16727" lon="-1.61202">
        <ele>56</ele>
        <time>2021-05-29T09:21:40.000Z</time>
      </trkpt>
      <trkpt lat="47.16716" lon="-1.61193">
        <ele>59</ele>
        <time>2021-05-29T09:21:42.000Z</time>
      </trkpt>
      <trkpt lat="47.16707" lon="-1.61186">
        <ele>58</ele>
        <time>2021-05-29T09:21:44.000Z</time>
      </trkpt>
      <trkpt lat="47.16692" lon="-1.6118">
        <ele>59</ele>
        <time>2021-05-29T09:21:48.000Z</time>
      </trkpt>
      <trkpt lat="47.1668" lon="-1.61174">
        <ele>60</ele>
        <time>2021-05-29T09:21:51.000Z</time>
      </trkpt>
      <trkpt lat="47.16664" lon="-1.61153">
        <ele>63</ele>
        <time>2021-05-29T09:21:54.000Z</time>
      </trkpt>
      <trkpt lat="47.16657" lon="-1.61141">
        <ele>63</ele>
        <time>2021-05-29T09:21:56.000Z</time>
      </trkpt>
      <trkpt lat="47.16652" lon="-1.6113">
        <ele>62</ele>
        <time>2021-05-29T09:21:59.000Z</time>
      </trkpt>
      <trkpt lat="47.16648" lon="-1.61117">
        <ele>61</ele>
        <time>2021-05-29T09:22:01.000Z</time>
      </trkpt>
      <trkpt lat="47.16646" lon="-1.61088">
        <ele>64</ele>
        <time>2021-05-29T09:22:04.000Z</time>
      </trkpt>
      <trkpt lat="47.16643" lon="-1.61072">
        <ele>65</ele>
        <time>2021-05-29T09:22:06.000Z</time>
      </trkpt>
      <trkpt lat="47.16642" lon="-1.61055">
        <ele>67</ele>
        <time>2021-05-29T09:22:08.000Z</time>
      </trkpt>
      <trkpt lat="47.1664" lon="-1.61041">
        <ele>69</ele>
        <time>2021-05-29T09:22:10.000Z</time>
      </trkpt>
      <trkpt lat="47.16638" lon="-1.61026">
        <ele>70</ele>
        <time>2021-05-29T09:22:12.000Z</time>
      </trkpt>
      <trkpt lat="47.16637" lon="-1.61013">
        <ele>70</ele>
        <time>2021-05-29T09:22:14.000Z</time>
      </trkpt>
      <trkpt lat="47.16634" lon="-1.61">
        <ele>72</ele>
        <time>2021-05-29T09:22:16.000Z</time>
      </trkpt>
      <trkpt lat="47.16627" lon="-1.60986">
        <ele>72</ele>
        <time>2021-05-29T09:22:18.000Z</time>
      </trkpt>
      <trkpt lat="47.16621" lon="-1.60973">
        <ele>72</ele>
        <time>2021-05-29T09:22:20.000Z</time>
      </trkpt>
      <trkpt lat="47.16609" lon="-1.60952">
        <ele>70</ele>
        <time>2021-05-29T09:22:23.000Z</time>
      </trkpt>
      <trkpt lat="47.16603" lon="-1.60941">
        <ele>71</ele>
        <time>2021-05-29T09:22:25.000Z</time>
      </trkpt>
      <trkpt lat="47.16598" lon="-1.60928">
        <ele>71</ele>
        <time>2021-05-29T09:22:27.000Z</time>
      </trkpt>
      <trkpt lat="47.16592" lon="-1.60915">
        <ele>71</ele>
        <time>2021-05-29T09:22:29.000Z</time>
      </trkpt>
      <trkpt lat="47.16586" lon="-1.60901">
        <ele>71</ele>
        <time>2021-05-29T09:22:31.000Z</time>
      </trkpt>
      <trkpt lat="47.16577" lon="-1.60883">
        <ele>72</ele>
        <time>2021-05-29T09:22:34.000Z</time>
      </trkpt>
      <trkpt lat="47.16572" lon="-1.60869">
        <ele>73</ele>
        <time>2021-05-29T09:22:36.000Z</time>
      </trkpt>
      <trkpt lat="47.16565" lon="-1.60854">
        <ele>73</ele>
        <time>2021-05-29T09:22:38.000Z</time>
      </trkpt>
      <trkpt lat="47.16555" lon="-1.60835">
        <ele>74</ele>
        <time>2021-05-29T09:22:41.000Z</time>
      </trkpt>
      <trkpt lat="47.16548" lon="-1.60824">
        <ele>74</ele>
        <time>2021-05-29T09:22:43.000Z</time>
      </trkpt>
      <trkpt lat="47.16541" lon="-1.60812">
        <ele>73</ele>
        <time>2021-05-29T09:22:45.000Z</time>
      </trkpt>
      <trkpt lat="47.16533" lon="-1.60799">
        <ele>74</ele>
        <time>2021-05-29T09:22:47.000Z</time>
      </trkpt>
      <trkpt lat="47.16525" lon="-1.60788">
        <ele>74</ele>
        <time>2021-05-29T09:22:49.000Z</time>
      </trkpt>
      <trkpt lat="47.16516" lon="-1.60775">
        <ele>75</ele>
        <time>2021-05-29T09:22:51.000Z</time>
      </trkpt>
      <trkpt lat="47.16515" lon="-1.60759">
        <ele>76</ele>
        <time>2021-05-29T09:22:53.000Z</time>
      </trkpt>
      <trkpt lat="47.16518" lon="-1.60743">
        <ele>76</ele>
        <time>2021-05-29T09:22:55.000Z</time>
      </trkpt>
      <trkpt lat="47.16521" lon="-1.60727">
        <ele>76</ele>
        <time>2021-05-29T09:22:57.000Z</time>
      </trkpt>
      <trkpt lat="47.16524" lon="-1.60711">
        <ele>76</ele>
        <time>2021-05-29T09:22:59.000Z</time>
      </trkpt>
      <trkpt lat="47.16527" lon="-1.60694">
        <ele>77</ele>
        <time>2021-05-29T09:23:01.000Z</time>
      </trkpt>
      <trkpt lat="47.16531" lon="-1.60679">
        <ele>77</ele>
        <time>2021-05-29T09:23:03.000Z</time>
      </trkpt>
      <trkpt lat="47.16535" lon="-1.60664">
        <ele>76</ele>
        <time>2021-05-29T09:23:05.000Z</time>
      </trkpt>
      <trkpt lat="47.16538" lon="-1.60648">
        <ele>77</ele>
        <time>2021-05-29T09:23:07.000Z</time>
      </trkpt>
      <trkpt lat="47.16541" lon="-1.60632">
        <ele>77</ele>
        <time>2021-05-29T09:23:09.000Z</time>
      </trkpt>
      <trkpt lat="47.16545" lon="-1.60616">
        <ele>77</ele>
        <time>2021-05-29T09:23:11.000Z</time>
      </trkpt>
      <trkpt lat="47.16549" lon="-1.60601">
        <ele>76</ele>
        <time>2021-05-29T09:23:13.000Z</time>
      </trkpt>
      <trkpt lat="47.16552" lon="-1.60585">
        <ele>76</ele>
        <time>2021-05-29T09:23:15.000Z</time>
      </trkpt>
      <trkpt lat="47.16556" lon="-1.60569">
        <ele>76</ele>
        <time>2021-05-29T09:23:17.000Z</time>
      </trkpt>
      <trkpt lat="47.16559" lon="-1.60553">
        <ele>77</ele>
        <time>2021-05-29T09:23:19.000Z</time>
      </trkpt>
      <trkpt lat="47.16564" lon="-1.60541">
        <ele>77</ele>
        <time>2021-05-29T09:23:21.000Z</time>
      </trkpt>
      <trkpt lat="47.16573" lon="-1.60533">
        <ele>77</ele>
        <time>2021-05-29T09:23:23.000Z</time>
      </trkpt>
      <trkpt lat="47.1659" lon="-1.60525">
        <ele>76</ele>
        <time>2021-05-29T09:23:26.000Z</time>
      </trkpt>
      <trkpt lat="47.16602" lon="-1.60519">
        <ele>77</ele>
        <time>2021-05-29T09:23:28.000Z</time>
      </trkpt>
      <trkpt lat="47.16615" lon="-1.60515">
        <ele>77</ele>
        <time>2021-05-29T09:23:30.000Z</time>
      </trkpt>
      <trkpt lat="47.16625" lon="-1.60508">
        <ele>77</ele>
        <time>2021-05-29T09:23:32.000Z</time>
      </trkpt>
      <trkpt lat="47.16636" lon="-1.60503">
        <ele>78</ele>
        <time>2021-05-29T09:23:34.000Z</time>
      </trkpt>
      <trkpt lat="47.16647" lon="-1.60497">
        <ele>77</ele>
        <time>2021-05-29T09:23:36.000Z</time>
      </trkpt>
      <trkpt lat="47.16658" lon="-1.60489">
        <ele>77</ele>
        <time>2021-05-29T09:23:38.000Z</time>
      </trkpt>
      <trkpt lat="47.16669" lon="-1.60481">
        <ele>77</ele>
        <time>2021-05-29T09:23:40.000Z</time>
      </trkpt>
      <trkpt lat="47.16681" lon="-1.60473">
        <ele>77</ele>
        <time>2021-05-29T09:23:42.000Z</time>
      </trkpt>
      <trkpt lat="47.16692" lon="-1.60462">
        <ele>77</ele>
        <time>2021-05-29T09:23:44.000Z</time>
      </trkpt>
      <trkpt lat="47.16702" lon="-1.60454">
        <ele>77</ele>
        <time>2021-05-29T09:23:46.000Z</time>
      </trkpt>
      <trkpt lat="47.16714" lon="-1.60445">
        <ele>76</ele>
        <time>2021-05-29T09:23:48.000Z</time>
      </trkpt>
      <trkpt lat="47.16727" lon="-1.60436">
        <ele>75</ele>
        <time>2021-05-29T09:23:50.000Z</time>
      </trkpt>
      <trkpt lat="47.16738" lon="-1.60427">
        <ele>75</ele>
        <time>2021-05-29T09:23:52.000Z</time>
      </trkpt>
      <trkpt lat="47.1675" lon="-1.6042">
        <ele>75</ele>
        <time>2021-05-29T09:23:54.000Z</time>
      </trkpt>
      <trkpt lat="47.16761" lon="-1.60412">
        <ele>76</ele>
        <time>2021-05-29T09:23:56.000Z</time>
      </trkpt>
      <trkpt lat="47.16773" lon="-1.60406">
        <ele>75</ele>
        <time>2021-05-29T09:23:58.000Z</time>
      </trkpt>
      <trkpt lat="47.16785" lon="-1.60399">
        <ele>75</ele>
        <time>2021-05-29T09:24:00.000Z</time>
      </trkpt>
      <trkpt lat="47.16798" lon="-1.60394">
        <ele>74</ele>
        <time>2021-05-29T09:24:02.000Z</time>
      </trkpt>
      <trkpt lat="47.1681" lon="-1.60388">
        <ele>75</ele>
        <time>2021-05-29T09:24:04.000Z</time>
      </trkpt>
      <trkpt lat="47.16822" lon="-1.60383">
        <ele>74</ele>
        <time>2021-05-29T09:24:06.000Z</time>
      </trkpt>
      <trkpt lat="47.16837" lon="-1.60373">
        <ele>75</ele>
        <time>2021-05-29T09:24:09.000Z</time>
      </trkpt>
      <trkpt lat="47.16849" lon="-1.60367">
        <ele>74</ele>
        <time>2021-05-29T09:24:11.000Z</time>
      </trkpt>
      <trkpt lat="47.16863" lon="-1.60364">
        <ele>74</ele>
        <time>2021-05-29T09:24:13.000Z</time>
      </trkpt>
      <trkpt lat="47.1688" lon="-1.60358">
        <ele>74</ele>
        <time>2021-05-29T09:24:16.000Z</time>
      </trkpt>
      <trkpt lat="47.16892" lon="-1.60353">
        <ele>74</ele>
        <time>2021-05-29T09:24:18.000Z</time>
      </trkpt>
      <trkpt lat="47.16904" lon="-1.60347">
        <ele>74</ele>
        <time>2021-05-29T09:24:20.000Z</time>
      </trkpt>
      <trkpt lat="47.16915" lon="-1.60343">
        <ele>74</ele>
        <time>2021-05-29T09:24:22.000Z</time>
      </trkpt>
      <trkpt lat="47.16924" lon="-1.60337">
        <ele>74</ele>
        <time>2021-05-29T09:24:24.000Z</time>
      </trkpt>
      <trkpt lat="47.16933" lon="-1.60329">
        <ele>73</ele>
        <time>2021-05-29T09:24:26.000Z</time>
      </trkpt>
      <trkpt lat="47.16932" lon="-1.60315">
        <ele>75</ele>
        <time>2021-05-29T09:24:28.000Z</time>
      </trkpt>
      <trkpt lat="47.16923" lon="-1.60306">
        <ele>76</ele>
        <time>2021-05-29T09:24:30.000Z</time>
      </trkpt>
      <trkpt lat="47.16911" lon="-1.60302">
        <ele>77</ele>
        <time>2021-05-29T09:24:32.000Z</time>
      </trkpt>
      <trkpt lat="47.16899" lon="-1.60301">
        <ele>77</ele>
        <time>2021-05-29T09:24:34.000Z</time>
      </trkpt>
      <trkpt lat="47.16878" lon="-1.60298">
        <ele>78</ele>
        <time>2021-05-29T09:24:37.000Z</time>
      </trkpt>
      <trkpt lat="47.16865" lon="-1.60296">
        <ele>78</ele>
        <time>2021-05-29T09:24:39.000Z</time>
      </trkpt>
      <trkpt lat="47.16845" lon="-1.60289">
        <ele>77</ele>
        <time>2021-05-29T09:24:42.000Z</time>
      </trkpt>
      <trkpt lat="47.16833" lon="-1.60286">
        <ele>77</ele>
        <time>2021-05-29T09:24:44.000Z</time>
      </trkpt>
      <trkpt lat="47.1682" lon="-1.60281">
        <ele>76</ele>
        <time>2021-05-29T09:24:46.000Z</time>
      </trkpt>
      <trkpt lat="47.16809" lon="-1.60275">
        <ele>76</ele>
        <time>2021-05-29T09:24:48.000Z</time>
      </trkpt>
      <trkpt lat="47.16793" lon="-1.60255">
        <ele>75</ele>
        <time>2021-05-29T09:24:51.000Z</time>
      </trkpt>
      <trkpt lat="47.16784" lon="-1.60238">
        <ele>75</ele>
        <time>2021-05-29T09:24:53.000Z</time>
      </trkpt>
      <trkpt lat="47.16775" lon="-1.60223">
        <ele>74</ele>
        <time>2021-05-29T09:24:55.000Z</time>
      </trkpt>
      <trkpt lat="47.16766" lon="-1.60208">
        <ele>73</ele>
        <time>2021-05-29T09:24:57.000Z</time>
      </trkpt>
      <trkpt lat="47.16758" lon="-1.60194">
        <ele>73</ele>
        <time>2021-05-29T09:24:59.000Z</time>
      </trkpt>
      <trkpt lat="47.16742" lon="-1.60174">
        <ele>74</ele>
        <time>2021-05-29T09:25:02.000Z</time>
      </trkpt>
      <trkpt lat="47.16734" lon="-1.60158">
        <ele>74</ele>
        <time>2021-05-29T09:25:04.000Z</time>
      </trkpt>
      <trkpt lat="47.16725" lon="-1.60143">
        <ele>73</ele>
        <time>2021-05-29T09:25:06.000Z</time>
      </trkpt>
      <trkpt lat="47.16717" lon="-1.60129">
        <ele>74</ele>
        <time>2021-05-29T09:25:08.000Z</time>
      </trkpt>
      <trkpt lat="47.16708" lon="-1.60114">
        <ele>74</ele>
        <time>2021-05-29T09:25:10.000Z</time>
      </trkpt>
      <trkpt lat="47.167" lon="-1.60101">
        <ele>74</ele>
        <time>2021-05-29T09:25:12.000Z</time>
      </trkpt>
      <trkpt lat="47.16688" lon="-1.60079">
        <ele>74</ele>
        <time>2021-05-29T09:25:15.000Z</time>
      </trkpt>
      <trkpt lat="47.1668" lon="-1.60065">
        <ele>75</ele>
        <time>2021-05-29T09:25:17.000Z</time>
      </trkpt>
      <trkpt lat="47.16672" lon="-1.60051">
        <ele>75</ele>
        <time>2021-05-29T09:25:19.000Z</time>
      </trkpt>
      <trkpt lat="47.16664" lon="-1.60039">
        <ele>76</ele>
        <time>2021-05-29T09:25:21.000Z</time>
      </trkpt>
      <trkpt lat="47.16654" lon="-1.60019">
        <ele>77</ele>
        <time>2021-05-29T09:25:24.000Z</time>
      </trkpt>
      <trkpt lat="47.16645" lon="-1.60006">
        <ele>77</ele>
        <time>2021-05-29T09:25:26.000Z</time>
      </trkpt>
      <trkpt lat="47.16636" lon="-1.59992">
        <ele>76</ele>
        <time>2021-05-29T09:25:28.000Z</time>
      </trkpt>
      <trkpt lat="47.16629" lon="-1.59977">
        <ele>76</ele>
        <time>2021-05-29T09:25:30.000Z</time>
      </trkpt>
      <trkpt lat="47.16622" lon="-1.59961">
        <ele>76</ele>
        <time>2021-05-29T09:25:32.000Z</time>
      </trkpt>
      <trkpt lat="47.16612" lon="-1.59948">
        <ele>75</ele>
        <time>2021-05-29T09:25:34.000Z</time>
      </trkpt>
      <trkpt lat="47.16604" lon="-1.59937">
        <ele>75</ele>
        <time>2021-05-29T09:25:36.000Z</time>
      </trkpt>
      <trkpt lat="47.16589" lon="-1.59919">
        <ele>75</ele>
        <time>2021-05-29T09:25:39.000Z</time>
      </trkpt>
      <trkpt lat="47.16579" lon="-1.59907">
        <ele>74</ele>
        <time>2021-05-29T09:25:41.000Z</time>
      </trkpt>
      <trkpt lat="47.16568" lon="-1.59896">
        <ele>73</ele>
        <time>2021-05-29T09:25:43.000Z</time>
      </trkpt>
      <trkpt lat="47.16556" lon="-1.59885">
        <ele>73</ele>
        <time>2021-05-29T09:25:45.000Z</time>
      </trkpt>
      <trkpt lat="47.16545" lon="-1.59874">
        <ele>72</ele>
        <time>2021-05-29T09:25:47.000Z</time>
      </trkpt>
      <trkpt lat="47.16534" lon="-1.59864">
        <ele>73</ele>
        <time>2021-05-29T09:25:49.000Z</time>
      </trkpt>
      <trkpt lat="47.16515" lon="-1.59849">
        <ele>72</ele>
        <time>2021-05-29T09:25:52.000Z</time>
      </trkpt>
      <trkpt lat="47.16504" lon="-1.5984">
        <ele>72</ele>
        <time>2021-05-29T09:25:54.000Z</time>
      </trkpt>
      <trkpt lat="47.16492" lon="-1.59831">
        <ele>72</ele>
        <time>2021-05-29T09:25:56.000Z</time>
      </trkpt>
      <trkpt lat="47.16479" lon="-1.5982">
        <ele>72</ele>
        <time>2021-05-29T09:25:58.000Z</time>
      </trkpt>
      <trkpt lat="47.16468" lon="-1.5981">
        <ele>73</ele>
        <time>2021-05-29T09:26:00.000Z</time>
      </trkpt>
      <trkpt lat="47.16451" lon="-1.59795">
        <ele>72</ele>
        <time>2021-05-29T09:26:03.000Z</time>
      </trkpt>
      <trkpt lat="47.16439" lon="-1.59789">
        <ele>73</ele>
        <time>2021-05-29T09:26:05.000Z</time>
      </trkpt>
      <trkpt lat="47.16427" lon="-1.59781">
        <ele>74</ele>
        <time>2021-05-29T09:26:07.000Z</time>
      </trkpt>
      <trkpt lat="47.16415" lon="-1.59771">
        <ele>74</ele>
        <time>2021-05-29T09:26:09.000Z</time>
      </trkpt>
      <trkpt lat="47.16404" lon="-1.59759">
        <ele>74</ele>
        <time>2021-05-29T09:26:11.000Z</time>
      </trkpt>
      <trkpt lat="47.16393" lon="-1.59748">
        <ele>74</ele>
        <time>2021-05-29T09:26:13.000Z</time>
      </trkpt>
      <trkpt lat="47.16377" lon="-1.59733">
        <ele>73</ele>
        <time>2021-05-29T09:26:16.000Z</time>
      </trkpt>
      <trkpt lat="47.16367" lon="-1.59722">
        <ele>73</ele>
        <time>2021-05-29T09:26:18.000Z</time>
      </trkpt>
      <trkpt lat="47.16357" lon="-1.59708">
        <ele>72</ele>
        <time>2021-05-29T09:26:20.000Z</time>
      </trkpt>
      <trkpt lat="47.16348" lon="-1.59694">
        <ele>72</ele>
        <time>2021-05-29T09:26:22.000Z</time>
      </trkpt>
      <trkpt lat="47.16339" lon="-1.5968">
        <ele>72</ele>
        <time>2021-05-29T09:26:24.000Z</time>
      </trkpt>
      <trkpt lat="47.16332" lon="-1.59667">
        <ele>72</ele>
        <time>2021-05-29T09:26:26.000Z</time>
      </trkpt>
      <trkpt lat="47.16324" lon="-1.59655">
        <ele>73</ele>
        <time>2021-05-29T09:26:28.000Z</time>
      </trkpt>
      <trkpt lat="47.16316" lon="-1.59642">
        <ele>72</ele>
        <time>2021-05-29T09:26:30.000Z</time>
      </trkpt>
      <trkpt lat="47.16308" lon="-1.59631">
        <ele>72</ele>
        <time>2021-05-29T09:26:32.000Z</time>
      </trkpt>
      <trkpt lat="47.16298" lon="-1.59626">
        <ele>72</ele>
        <time>2021-05-29T09:26:35.000Z</time>
      </trkpt>
      <trkpt lat="47.16282" lon="-1.5963">
        <ele>72</ele>
        <time>2021-05-29T09:26:38.000Z</time>
      </trkpt>
      <trkpt lat="47.1627" lon="-1.59636">
        <ele>73</ele>
        <time>2021-05-29T09:26:40.000Z</time>
      </trkpt>
      <trkpt lat="47.16256" lon="-1.59643">
        <ele>73</ele>
        <time>2021-05-29T09:26:42.000Z</time>
      </trkpt>
      <trkpt lat="47.16243" lon="-1.59649">
        <ele>72</ele>
        <time>2021-05-29T09:26:44.000Z</time>
      </trkpt>
      <trkpt lat="47.16231" lon="-1.59655">
        <ele>72</ele>
        <time>2021-05-29T09:26:46.000Z</time>
      </trkpt>
      <trkpt lat="47.16218" lon="-1.59662">
        <ele>73</ele>
        <time>2021-05-29T09:26:48.000Z</time>
      </trkpt>
      <trkpt lat="47.16204" lon="-1.59669">
        <ele>72</ele>
        <time>2021-05-29T09:26:50.000Z</time>
      </trkpt>
      <trkpt lat="47.16192" lon="-1.59676">
        <ele>72</ele>
        <time>2021-05-29T09:26:52.000Z</time>
      </trkpt>
      <trkpt lat="47.1618" lon="-1.59683">
        <ele>73</ele>
        <time>2021-05-29T09:26:54.000Z</time>
      </trkpt>
      <trkpt lat="47.16167" lon="-1.59689">
        <ele>73</ele>
        <time>2021-05-29T09:26:56.000Z</time>
      </trkpt>
      <trkpt lat="47.16154" lon="-1.59695">
        <ele>72</ele>
        <time>2021-05-29T09:26:58.000Z</time>
      </trkpt>
      <trkpt lat="47.16142" lon="-1.59703">
        <ele>72</ele>
        <time>2021-05-29T09:27:00.000Z</time>
      </trkpt>
      <trkpt lat="47.16129" lon="-1.5971">
        <ele>72</ele>
        <time>2021-05-29T09:27:02.000Z</time>
      </trkpt>
      <trkpt lat="47.16117" lon="-1.59716">
        <ele>73</ele>
        <time>2021-05-29T09:27:04.000Z</time>
      </trkpt>
      <trkpt lat="47.16105" lon="-1.59725">
        <ele>74</ele>
        <time>2021-05-29T09:27:06.000Z</time>
      </trkpt>
      <trkpt lat="47.16091" lon="-1.59733">
        <ele>72</ele>
        <time>2021-05-29T09:27:08.000Z</time>
      </trkpt>
      <trkpt lat="47.1608" lon="-1.59739">
        <ele>71</ele>
        <time>2021-05-29T09:27:10.000Z</time>
      </trkpt>
      <trkpt lat="47.16069" lon="-1.59747">
        <ele>72</ele>
        <time>2021-05-29T09:27:12.000Z</time>
      </trkpt>
      <trkpt lat="47.16057" lon="-1.59755">
        <ele>72</ele>
        <time>2021-05-29T09:27:14.000Z</time>
      </trkpt>
      <trkpt lat="47.16039" lon="-1.59766">
        <ele>73</ele>
        <time>2021-05-29T09:27:17.000Z</time>
      </trkpt>
      <trkpt lat="47.16028" lon="-1.59772">
        <ele>72</ele>
        <time>2021-05-29T09:27:19.000Z</time>
      </trkpt>
      <trkpt lat="47.16016" lon="-1.59779">
        <ele>72</ele>
        <time>2021-05-29T09:27:21.000Z</time>
      </trkpt>
      <trkpt lat="47.16004" lon="-1.59789">
        <ele>71</ele>
        <time>2021-05-29T09:27:23.000Z</time>
      </trkpt>
      <trkpt lat="47.15993" lon="-1.59798">
        <ele>73</ele>
        <time>2021-05-29T09:27:25.000Z</time>
      </trkpt>
      <trkpt lat="47.1598" lon="-1.59802">
        <ele>73</ele>
        <time>2021-05-29T09:27:27.000Z</time>
      </trkpt>
      <trkpt lat="47.15962" lon="-1.59811">
        <ele>72</ele>
        <time>2021-05-29T09:27:30.000Z</time>
      </trkpt>
      <trkpt lat="47.15951" lon="-1.59819">
        <ele>74</ele>
        <time>2021-05-29T09:27:32.000Z</time>
      </trkpt>
      <trkpt lat="47.15941" lon="-1.59825">
        <ele>76</ele>
        <time>2021-05-29T09:27:34.000Z</time>
      </trkpt>
      <trkpt lat="47.15928" lon="-1.5983">
        <ele>75</ele>
        <time>2021-05-29T09:27:36.000Z</time>
      </trkpt>
      <trkpt lat="47.15918" lon="-1.5984">
        <ele>76</ele>
        <time>2021-05-29T09:27:38.000Z</time>
      </trkpt>
      <trkpt lat="47.15912" lon="-1.59856">
        <ele>75</ele>
        <time>2021-05-29T09:27:40.000Z</time>
      </trkpt>
      <trkpt lat="47.159" lon="-1.59866">
        <ele>76</ele>
        <time>2021-05-29T09:27:42.000Z</time>
      </trkpt>
      <trkpt lat="47.15887" lon="-1.59856">
        <ele>76</ele>
        <time>2021-05-29T09:27:44.000Z</time>
      </trkpt>
      <trkpt lat="47.15879" lon="-1.59833">
        <ele>76</ele>
        <time>2021-05-29T09:27:47.000Z</time>
      </trkpt>
      <trkpt lat="47.15873" lon="-1.59816">
        <ele>76</ele>
        <time>2021-05-29T09:27:49.000Z</time>
      </trkpt>
      <trkpt lat="47.15865" lon="-1.59801">
        <ele>75</ele>
        <time>2021-05-29T09:27:51.000Z</time>
      </trkpt>
      <trkpt lat="47.15856" lon="-1.59789">
        <ele>75</ele>
        <time>2021-05-29T09:27:53.000Z</time>
      </trkpt>
      <trkpt lat="47.15848" lon="-1.59776">
        <ele>75</ele>
        <time>2021-05-29T09:27:55.000Z</time>
      </trkpt>
      <trkpt lat="47.15838" lon="-1.59765">
        <ele>74</ele>
        <time>2021-05-29T09:27:57.000Z</time>
      </trkpt>
      <trkpt lat="47.15825" lon="-1.59756">
        <ele>74</ele>
        <time>2021-05-29T09:27:59.000Z</time>
      </trkpt>
      <trkpt lat="47.15813" lon="-1.59748">
        <ele>75</ele>
        <time>2021-05-29T09:28:01.000Z</time>
      </trkpt>
      <trkpt lat="47.15803" lon="-1.59739">
        <ele>75</ele>
        <time>2021-05-29T09:28:03.000Z</time>
      </trkpt>
      <trkpt lat="47.15792" lon="-1.59732">
        <ele>76</ele>
        <time>2021-05-29T09:28:05.000Z</time>
      </trkpt>
      <trkpt lat="47.15781" lon="-1.59733">
        <ele>75</ele>
        <time>2021-05-29T09:28:08.000Z</time>
      </trkpt>
      <trkpt lat="47.15768" lon="-1.59731">
        <ele>77</ele>
        <time>2021-05-29T09:28:11.000Z</time>
      </trkpt>
      <trkpt lat="47.15761" lon="-1.59714">
        <ele>77</ele>
        <time>2021-05-29T09:28:13.000Z</time>
      </trkpt>
      <trkpt lat="47.1576" lon="-1.59694">
        <ele>76</ele>
        <time>2021-05-29T09:28:15.000Z</time>
      </trkpt>
      <trkpt lat="47.15765" lon="-1.59667">
        <ele>75</ele>
        <time>2021-05-29T09:28:18.000Z</time>
      </trkpt>
      <trkpt lat="47.15766" lon="-1.59648">
        <ele>75</ele>
        <time>2021-05-29T09:28:20.000Z</time>
      </trkpt>
      <trkpt lat="47.15763" lon="-1.59628">
        <ele>75</ele>
        <time>2021-05-29T09:28:22.000Z</time>
      </trkpt>
      <trkpt lat="47.15761" lon="-1.5961">
        <ele>76</ele>
        <time>2021-05-29T09:28:24.000Z</time>
      </trkpt>
      <trkpt lat="47.15759" lon="-1.59593">
        <ele>76</ele>
        <time>2021-05-29T09:28:26.000Z</time>
      </trkpt>
      <trkpt lat="47.15754" lon="-1.59567">
        <ele>75</ele>
        <time>2021-05-29T09:28:29.000Z</time>
      </trkpt>
      <trkpt lat="47.15755" lon="-1.59548">
        <ele>76</ele>
        <time>2021-05-29T09:28:31.000Z</time>
      </trkpt>
      <trkpt lat="47.15756" lon="-1.59529">
        <ele>77</ele>
        <time>2021-05-29T09:28:33.000Z</time>
      </trkpt>
      <trkpt lat="47.15758" lon="-1.59511">
        <ele>72</ele>
        <time>2021-05-29T09:28:35.000Z</time>
      </trkpt>
      <trkpt lat="47.15759" lon="-1.59493">
        <ele>74</ele>
        <time>2021-05-29T09:28:37.000Z</time>
      </trkpt>
      <trkpt lat="47.15761" lon="-1.59473">
        <ele>75</ele>
        <time>2021-05-29T09:28:39.000Z</time>
      </trkpt>
      <trkpt lat="47.15763" lon="-1.59455">
        <ele>75</ele>
        <time>2021-05-29T09:28:41.000Z</time>
      </trkpt>
      <trkpt lat="47.15766" lon="-1.59437">
        <ele>75</ele>
        <time>2021-05-29T09:28:43.000Z</time>
      </trkpt>
      <trkpt lat="47.15769" lon="-1.59419">
        <ele>75</ele>
        <time>2021-05-29T09:28:45.000Z</time>
      </trkpt>
      <trkpt lat="47.15772" lon="-1.594">
        <ele>75</ele>
        <time>2021-05-29T09:28:47.000Z</time>
      </trkpt>
      <trkpt lat="47.15775" lon="-1.59382">
        <ele>76</ele>
        <time>2021-05-29T09:28:49.000Z</time>
      </trkpt>
      <trkpt lat="47.15778" lon="-1.59363">
        <ele>76</ele>
        <time>2021-05-29T09:28:51.000Z</time>
      </trkpt>
      <trkpt lat="47.15781" lon="-1.59345">
        <ele>77</ele>
        <time>2021-05-29T09:28:53.000Z</time>
      </trkpt>
      <trkpt lat="47.15786" lon="-1.59317">
        <ele>77</ele>
        <time>2021-05-29T09:28:56.000Z</time>
      </trkpt>
      <trkpt lat="47.15789" lon="-1.59303">
        <ele>77</ele>
        <time>2021-05-29T09:28:58.000Z</time>
      </trkpt>
      <trkpt lat="47.15791" lon="-1.59284">
        <ele>76</ele>
        <time>2021-05-29T09:29:00.000Z</time>
      </trkpt>
      <trkpt lat="47.15795" lon="-1.59263">
        <ele>77</ele>
        <time>2021-05-29T09:29:02.000Z</time>
      </trkpt>
      <trkpt lat="47.15797" lon="-1.59244">
        <ele>78</ele>
        <time>2021-05-29T09:29:04.000Z</time>
      </trkpt>
      <trkpt lat="47.15805" lon="-1.59218">
        <ele>78</ele>
        <time>2021-05-29T09:29:07.000Z</time>
      </trkpt>
      <trkpt lat="47.15809" lon="-1.59201">
        <ele>77</ele>
        <time>2021-05-29T09:29:09.000Z</time>
      </trkpt>
      <trkpt lat="47.15811" lon="-1.59185">
        <ele>77</ele>
        <time>2021-05-29T09:29:11.000Z</time>
      </trkpt>
      <trkpt lat="47.15811" lon="-1.5916">
        <ele>78</ele>
        <time>2021-05-29T09:29:14.000Z</time>
      </trkpt>
      <trkpt lat="47.15816" lon="-1.59143">
        <ele>77</ele>
        <time>2021-05-29T09:29:16.000Z</time>
      </trkpt>
      <trkpt lat="47.15827" lon="-1.59135">
        <ele>78</ele>
        <time>2021-05-29T09:29:18.000Z</time>
      </trkpt>
      <trkpt lat="47.15841" lon="-1.59135">
        <ele>78</ele>
        <time>2021-05-29T09:29:20.000Z</time>
      </trkpt>
      <trkpt lat="47.15854" lon="-1.59125">
        <ele>78</ele>
        <time>2021-05-29T09:29:22.000Z</time>
      </trkpt>
      <trkpt lat="47.15867" lon="-1.59107">
        <ele>78</ele>
        <time>2021-05-29T09:29:25.000Z</time>
      </trkpt>
      <trkpt lat="47.15875" lon="-1.59092">
        <ele>79</ele>
        <time>2021-05-29T09:29:27.000Z</time>
      </trkpt>
      <trkpt lat="47.15884" lon="-1.59078">
        <ele>80</ele>
        <time>2021-05-29T09:29:29.000Z</time>
      </trkpt>
      <trkpt lat="47.15892" lon="-1.59064">
        <ele>79</ele>
        <time>2021-05-29T09:29:31.000Z</time>
      </trkpt>
      <trkpt lat="47.15902" lon="-1.59049">
        <ele>81</ele>
        <time>2021-05-29T09:29:33.000Z</time>
      </trkpt>
      <trkpt lat="47.1591" lon="-1.59035">
        <ele>81</ele>
        <time>2021-05-29T09:29:35.000Z</time>
      </trkpt>
      <trkpt lat="47.15918" lon="-1.59023">
        <ele>82</ele>
        <time>2021-05-29T09:29:37.000Z</time>
      </trkpt>
      <trkpt lat="47.15925" lon="-1.59012">
        <ele>83</ele>
        <time>2021-05-29T09:29:39.000Z</time>
      </trkpt>
      <trkpt lat="47.15933" lon="-1.58995">
        <ele>82</ele>
        <time>2021-05-29T09:29:41.000Z</time>
      </trkpt>
      <trkpt lat="47.15941" lon="-1.5898">
        <ele>81</ele>
        <time>2021-05-29T09:29:43.000Z</time>
      </trkpt>
      <trkpt lat="47.15949" lon="-1.58966">
        <ele>80</ele>
        <time>2021-05-29T09:29:45.000Z</time>
      </trkpt>
      <trkpt lat="47.15956" lon="-1.58953">
        <ele>80</ele>
        <time>2021-05-29T09:29:47.000Z</time>
      </trkpt>
      <trkpt lat="47.15966" lon="-1.58939">
        <ele>80</ele>
        <time>2021-05-29T09:29:49.000Z</time>
      </trkpt>
      <trkpt lat="47.15977" lon="-1.58916">
        <ele>80</ele>
        <time>2021-05-29T09:29:52.000Z</time>
      </trkpt>
      <trkpt lat="47.15986" lon="-1.58903">
        <ele>79</ele>
        <time>2021-05-29T09:29:54.000Z</time>
      </trkpt>
      <trkpt lat="47.15993" lon="-1.58889">
        <ele>79</ele>
        <time>2021-05-29T09:29:56.000Z</time>
      </trkpt>
      <trkpt lat="47.16004" lon="-1.58876">
        <ele>79</ele>
        <time>2021-05-29T09:29:58.000Z</time>
      </trkpt>
      <trkpt lat="47.16018" lon="-1.58858">
        <ele>79</ele>
        <time>2021-05-29T09:30:01.000Z</time>
      </trkpt>
      <trkpt lat="47.16026" lon="-1.58844">
        <ele>80</ele>
        <time>2021-05-29T09:30:03.000Z</time>
      </trkpt>
      <trkpt lat="47.16036" lon="-1.5883">
        <ele>80</ele>
        <time>2021-05-29T09:30:05.000Z</time>
      </trkpt>
      <trkpt lat="47.16045" lon="-1.58821">
        <ele>79</ele>
        <time>2021-05-29T09:30:07.000Z</time>
      </trkpt>
      <trkpt lat="47.16054" lon="-1.58811">
        <ele>79</ele>
        <time>2021-05-29T09:30:09.000Z</time>
      </trkpt>
      <trkpt lat="47.16062" lon="-1.58799">
        <ele>80</ele>
        <time>2021-05-29T09:30:11.000Z</time>
      </trkpt>
      <trkpt lat="47.1607" lon="-1.5879">
        <ele>79</ele>
        <time>2021-05-29T09:30:13.000Z</time>
      </trkpt>
      <trkpt lat="47.16082" lon="-1.58775">
        <ele>79</ele>
        <time>2021-05-29T09:30:16.000Z</time>
      </trkpt>
      <trkpt lat="47.16089" lon="-1.58765">
        <ele>80</ele>
        <time>2021-05-29T09:30:18.000Z</time>
      </trkpt>
      <trkpt lat="47.16099" lon="-1.58752">
        <ele>79</ele>
        <time>2021-05-29T09:30:20.000Z</time>
      </trkpt>
      <trkpt lat="47.16109" lon="-1.58739">
        <ele>79</ele>
        <time>2021-05-29T09:30:22.000Z</time>
      </trkpt>
      <trkpt lat="47.16129" lon="-1.58712">
        <ele>79</ele>
        <time>2021-05-29T09:30:26.000Z</time>
      </trkpt>
      <trkpt lat="47.16138" lon="-1.58699">
        <ele>79</ele>
        <time>2021-05-29T09:30:28.000Z</time>
      </trkpt>
      <trkpt lat="47.16149" lon="-1.58686">
        <ele>79</ele>
        <time>2021-05-29T09:30:30.000Z</time>
      </trkpt>
      <trkpt lat="47.16159" lon="-1.58673">
        <ele>79</ele>
        <time>2021-05-29T09:30:32.000Z</time>
      </trkpt>
      <trkpt lat="47.16169" lon="-1.58661">
        <ele>78</ele>
        <time>2021-05-29T09:30:34.000Z</time>
      </trkpt>
      <trkpt lat="47.1618" lon="-1.58647">
        <ele>77</ele>
        <time>2021-05-29T09:30:36.000Z</time>
      </trkpt>
      <trkpt lat="47.1619" lon="-1.58634">
        <ele>76</ele>
        <time>2021-05-29T09:30:38.000Z</time>
      </trkpt>
      <trkpt lat="47.162" lon="-1.58621">
        <ele>76</ele>
        <time>2021-05-29T09:30:40.000Z</time>
      </trkpt>
      <trkpt lat="47.16211" lon="-1.58607">
        <ele>76</ele>
        <time>2021-05-29T09:30:42.000Z</time>
      </trkpt>
      <trkpt lat="47.16222" lon="-1.58594">
        <ele>75</ele>
        <time>2021-05-29T09:30:44.000Z</time>
      </trkpt>
      <trkpt lat="47.16232" lon="-1.58579">
        <ele>75</ele>
        <time>2021-05-29T09:30:46.000Z</time>
      </trkpt>
      <trkpt lat="47.16242" lon="-1.58567">
        <ele>75</ele>
        <time>2021-05-29T09:30:48.000Z</time>
      </trkpt>
      <trkpt lat="47.16252" lon="-1.58553">
        <ele>72</ele>
        <time>2021-05-29T09:30:50.000Z</time>
      </trkpt>
      <trkpt lat="47.16262" lon="-1.58541">
        <ele>73</ele>
        <time>2021-05-29T09:30:52.000Z</time>
      </trkpt>
      <trkpt lat="47.16277" lon="-1.58522">
        <ele>72</ele>
        <time>2021-05-29T09:30:55.000Z</time>
      </trkpt>
      <trkpt lat="47.16287" lon="-1.58509">
        <ele>73</ele>
        <time>2021-05-29T09:30:57.000Z</time>
      </trkpt>
      <trkpt lat="47.16297" lon="-1.58497">
        <ele>71</ele>
        <time>2021-05-29T09:30:59.000Z</time>
      </trkpt>
      <trkpt lat="47.16307" lon="-1.58483">
        <ele>71</ele>
        <time>2021-05-29T09:31:01.000Z</time>
      </trkpt>
      <trkpt lat="47.16317" lon="-1.58469">
        <ele>72</ele>
        <time>2021-05-29T09:31:03.000Z</time>
      </trkpt>
      <trkpt lat="47.16327" lon="-1.58456">
        <ele>72</ele>
        <time>2021-05-29T09:31:05.000Z</time>
      </trkpt>
      <trkpt lat="47.16335" lon="-1.58443">
        <ele>73</ele>
        <time>2021-05-29T09:31:07.000Z</time>
      </trkpt>
      <trkpt lat="47.16347" lon="-1.58431">
        <ele>73</ele>
        <time>2021-05-29T09:31:09.000Z</time>
      </trkpt>
      <trkpt lat="47.16356" lon="-1.58418">
        <ele>73</ele>
        <time>2021-05-29T09:31:11.000Z</time>
      </trkpt>
      <trkpt lat="47.16366" lon="-1.58405">
        <ele>73</ele>
        <time>2021-05-29T09:31:13.000Z</time>
      </trkpt>
      <trkpt lat="47.16381" lon="-1.58386">
        <ele>73</ele>
        <time>2021-05-29T09:31:16.000Z</time>
      </trkpt>
      <trkpt lat="47.16391" lon="-1.58371">
        <ele>74</ele>
        <time>2021-05-29T09:31:18.000Z</time>
      </trkpt>
      <trkpt lat="47.16401" lon="-1.58358">
        <ele>75</ele>
        <time>2021-05-29T09:31:20.000Z</time>
      </trkpt>
      <trkpt lat="47.1641" lon="-1.58346">
        <ele>75</ele>
        <time>2021-05-29T09:31:22.000Z</time>
      </trkpt>
      <trkpt lat="47.1642" lon="-1.58333">
        <ele>75</ele>
        <time>2021-05-29T09:31:24.000Z</time>
      </trkpt>
      <trkpt lat="47.1643" lon="-1.58319">
        <ele>75</ele>
        <time>2021-05-29T09:31:26.000Z</time>
      </trkpt>
      <trkpt lat="47.1644" lon="-1.58307">
        <ele>75</ele>
        <time>2021-05-29T09:31:28.000Z</time>
      </trkpt>
      <trkpt lat="47.1645" lon="-1.58294">
        <ele>76</ele>
        <time>2021-05-29T09:31:30.000Z</time>
      </trkpt>
      <trkpt lat="47.1646" lon="-1.58281">
        <ele>75</ele>
        <time>2021-05-29T09:31:32.000Z</time>
      </trkpt>
      <trkpt lat="47.16469" lon="-1.58267">
        <ele>75</ele>
        <time>2021-05-29T09:31:34.000Z</time>
      </trkpt>
      <trkpt lat="47.16478" lon="-1.58255">
        <ele>75</ele>
        <time>2021-05-29T09:31:36.000Z</time>
      </trkpt>
      <trkpt lat="47.16487" lon="-1.58242">
        <ele>71</ele>
        <time>2021-05-29T09:31:38.000Z</time>
      </trkpt>
      <trkpt lat="47.16498" lon="-1.5823">
        <ele>73</ele>
        <time>2021-05-29T09:31:40.000Z</time>
      </trkpt>
      <trkpt lat="47.16509" lon="-1.58219">
        <ele>73</ele>
        <time>2021-05-29T09:31:42.000Z</time>
      </trkpt>
      <trkpt lat="47.16518" lon="-1.58207">
        <ele>74</ele>
        <time>2021-05-29T09:31:44.000Z</time>
      </trkpt>
      <trkpt lat="47.16527" lon="-1.58194">
        <ele>74</ele>
        <time>2021-05-29T09:31:46.000Z</time>
      </trkpt>
      <trkpt lat="47.16537" lon="-1.58182">
        <ele>75</ele>
        <time>2021-05-29T09:31:48.000Z</time>
      </trkpt>
      <trkpt lat="47.16546" lon="-1.58169">
        <ele>75</ele>
        <time>2021-05-29T09:31:50.000Z</time>
      </trkpt>
      <trkpt lat="47.16555" lon="-1.58158">
        <ele>75</ele>
        <time>2021-05-29T09:31:52.000Z</time>
      </trkpt>
      <trkpt lat="47.16564" lon="-1.58146">
        <ele>75</ele>
        <time>2021-05-29T09:31:54.000Z</time>
      </trkpt>
      <trkpt lat="47.16573" lon="-1.58133">
        <ele>76</ele>
        <time>2021-05-29T09:31:56.000Z</time>
      </trkpt>
      <trkpt lat="47.16583" lon="-1.58121">
        <ele>76</ele>
        <time>2021-05-29T09:31:58.000Z</time>
      </trkpt>
      <trkpt lat="47.16593" lon="-1.58108">
        <ele>77</ele>
        <time>2021-05-29T09:32:00.000Z</time>
      </trkpt>
      <trkpt lat="47.16602" lon="-1.58096">
        <ele>76</ele>
        <time>2021-05-29T09:32:02.000Z</time>
      </trkpt>
      <trkpt lat="47.16614" lon="-1.5808">
        <ele>76</ele>
        <time>2021-05-29T09:32:05.000Z</time>
      </trkpt>
      <trkpt lat="47.1662" lon="-1.58066">
        <ele>75</ele>
        <time>2021-05-29T09:32:07.000Z</time>
      </trkpt>
      <trkpt lat="47.16615" lon="-1.58051">
        <ele>76</ele>
        <time>2021-05-29T09:32:09.000Z</time>
      </trkpt>
      <trkpt lat="47.16604" lon="-1.58038">
        <ele>77</ele>
        <time>2021-05-29T09:32:11.000Z</time>
      </trkpt>
      <trkpt lat="47.16593" lon="-1.58028">
        <ele>77</ele>
        <time>2021-05-29T09:32:13.000Z</time>
      </trkpt>
      <trkpt lat="47.1658" lon="-1.58019">
        <ele>77</ele>
        <time>2021-05-29T09:32:15.000Z</time>
      </trkpt>
      <trkpt lat="47.1657" lon="-1.58011">
        <ele>78</ele>
        <time>2021-05-29T09:32:17.000Z</time>
      </trkpt>
      <trkpt lat="47.16559" lon="-1.58003">
        <ele>78</ele>
        <time>2021-05-29T09:32:19.000Z</time>
      </trkpt>
      <trkpt lat="47.16548" lon="-1.57993">
        <ele>79</ele>
        <time>2021-05-29T09:32:21.000Z</time>
      </trkpt>
      <trkpt lat="47.16537" lon="-1.57979">
        <ele>79</ele>
        <time>2021-05-29T09:32:23.000Z</time>
      </trkpt>
      <trkpt lat="47.16526" lon="-1.57968">
        <ele>79</ele>
        <time>2021-05-29T09:32:25.000Z</time>
      </trkpt>
      <trkpt lat="47.16515" lon="-1.57959">
        <ele>79</ele>
        <time>2021-05-29T09:32:27.000Z</time>
      </trkpt>
      <trkpt lat="47.16505" lon="-1.57947">
        <ele>79</ele>
        <time>2021-05-29T09:32:29.000Z</time>
      </trkpt>
      <trkpt lat="47.16494" lon="-1.57935">
        <ele>80</ele>
        <time>2021-05-29T09:32:31.000Z</time>
      </trkpt>
      <trkpt lat="47.16484" lon="-1.57924">
        <ele>80</ele>
        <time>2021-05-29T09:32:33.000Z</time>
      </trkpt>
      <trkpt lat="47.16475" lon="-1.57914">
        <ele>80</ele>
        <time>2021-05-29T09:32:35.000Z</time>
      </trkpt>
      <trkpt lat="47.16464" lon="-1.57905">
        <ele>81</ele>
        <time>2021-05-29T09:32:37.000Z</time>
      </trkpt>
      <trkpt lat="47.16453" lon="-1.57895">
        <ele>81</ele>
        <time>2021-05-29T09:32:39.000Z</time>
      </trkpt>
      <trkpt lat="47.16442" lon="-1.57886">
        <ele>81</ele>
        <time>2021-05-29T09:32:41.000Z</time>
      </trkpt>
      <trkpt lat="47.16432" lon="-1.57877">
        <ele>81</ele>
        <time>2021-05-29T09:32:43.000Z</time>
      </trkpt>
      <trkpt lat="47.16422" lon="-1.5787">
        <ele>81</ele>
        <time>2021-05-29T09:32:45.000Z</time>
      </trkpt>
      <trkpt lat="47.16411" lon="-1.57862">
        <ele>82</ele>
        <time>2021-05-29T09:32:47.000Z</time>
      </trkpt>
      <trkpt lat="47.16393" lon="-1.57851">
        <ele>81</ele>
        <time>2021-05-29T09:32:50.000Z</time>
      </trkpt>
      <trkpt lat="47.16381" lon="-1.57842">
        <ele>82</ele>
        <time>2021-05-29T09:32:52.000Z</time>
      </trkpt>
      <trkpt lat="47.16369" lon="-1.57833">
        <ele>82</ele>
        <time>2021-05-29T09:32:54.000Z</time>
      </trkpt>
      <trkpt lat="47.16359" lon="-1.57824">
        <ele>81</ele>
        <time>2021-05-29T09:32:56.000Z</time>
      </trkpt>
      <trkpt lat="47.16349" lon="-1.57813">
        <ele>81</ele>
        <time>2021-05-29T09:32:58.000Z</time>
      </trkpt>
      <trkpt lat="47.1634" lon="-1.57802">
        <ele>80</ele>
        <time>2021-05-29T09:33:00.000Z</time>
      </trkpt>
      <trkpt lat="47.16331" lon="-1.5779">
        <ele>80</ele>
        <time>2021-05-29T09:33:02.000Z</time>
      </trkpt>
      <trkpt lat="47.1632" lon="-1.57766">
        <ele>81</ele>
        <time>2021-05-29T09:33:05.000Z</time>
      </trkpt>
      <trkpt lat="47.16312" lon="-1.57753">
        <ele>82</ele>
        <time>2021-05-29T09:33:07.000Z</time>
      </trkpt>
      <trkpt lat="47.16295" lon="-1.57726">
        <ele>82</ele>
        <time>2021-05-29T09:33:11.000Z</time>
      </trkpt>
      <trkpt lat="47.16287" lon="-1.57712">
        <ele>80</ele>
        <time>2021-05-29T09:33:13.000Z</time>
      </trkpt>
      <trkpt lat="47.16279" lon="-1.57699">
        <ele>81</ele>
        <time>2021-05-29T09:33:15.000Z</time>
      </trkpt>
      <trkpt lat="47.1627" lon="-1.57688">
        <ele>81</ele>
        <time>2021-05-29T09:33:17.000Z</time>
      </trkpt>
      <trkpt lat="47.16254" lon="-1.57673">
        <ele>81</ele>
        <time>2021-05-29T09:33:20.000Z</time>
      </trkpt>
      <trkpt lat="47.16244" lon="-1.57662">
        <ele>79</ele>
        <time>2021-05-29T09:33:22.000Z</time>
      </trkpt>
      <trkpt lat="47.16232" lon="-1.57651">
        <ele>78</ele>
        <time>2021-05-29T09:33:24.000Z</time>
      </trkpt>
      <trkpt lat="47.16219" lon="-1.57634">
        <ele>79</ele>
        <time>2021-05-29T09:33:27.000Z</time>
      </trkpt>
      <trkpt lat="47.16209" lon="-1.57623">
        <ele>79</ele>
        <time>2021-05-29T09:33:29.000Z</time>
      </trkpt>
      <trkpt lat="47.162" lon="-1.5761">
        <ele>78</ele>
        <time>2021-05-29T09:33:31.000Z</time>
      </trkpt>
      <trkpt lat="47.16186" lon="-1.57591">
        <ele>78</ele>
        <time>2021-05-29T09:33:34.000Z</time>
      </trkpt>
      <trkpt lat="47.1618" lon="-1.57574">
        <ele>79</ele>
        <time>2021-05-29T09:33:36.000Z</time>
      </trkpt>
      <trkpt lat="47.16175" lon="-1.57557">
        <ele>76</ele>
        <time>2021-05-29T09:33:38.000Z</time>
      </trkpt>
      <trkpt lat="47.16169" lon="-1.5753">
        <ele>78</ele>
        <time>2021-05-29T09:33:41.000Z</time>
      </trkpt>
      <trkpt lat="47.16169" lon="-1.57513">
        <ele>79</ele>
        <time>2021-05-29T09:33:43.000Z</time>
      </trkpt>
      <trkpt lat="47.1617" lon="-1.57495">
        <ele>78</ele>
        <time>2021-05-29T09:33:45.000Z</time>
      </trkpt>
      <trkpt lat="47.16171" lon="-1.57477">
        <ele>78</ele>
        <time>2021-05-29T09:33:47.000Z</time>
      </trkpt>
      <trkpt lat="47.16171" lon="-1.57461">
        <ele>79</ele>
        <time>2021-05-29T09:33:49.000Z</time>
      </trkpt>
      <trkpt lat="47.1617" lon="-1.57441">
        <ele>79</ele>
        <time>2021-05-29T09:33:51.000Z</time>
      </trkpt>
      <trkpt lat="47.16168" lon="-1.57421">
        <ele>79</ele>
        <time>2021-05-29T09:33:53.000Z</time>
      </trkpt>
      <trkpt lat="47.16168" lon="-1.57404">
        <ele>78</ele>
        <time>2021-05-29T09:33:55.000Z</time>
      </trkpt>
      <trkpt lat="47.16167" lon="-1.57387">
        <ele>78</ele>
        <time>2021-05-29T09:33:57.000Z</time>
      </trkpt>
      <trkpt lat="47.16166" lon="-1.57372">
        <ele>78</ele>
        <time>2021-05-29T09:33:59.000Z</time>
      </trkpt>
      <trkpt lat="47.16164" lon="-1.57356">
        <ele>78</ele>
        <time>2021-05-29T09:34:02.000Z</time>
      </trkpt>
      <trkpt lat="47.16163" lon="-1.57343">
        <ele>78</ele>
        <time>2021-05-29T09:34:04.000Z</time>
      </trkpt>
      <trkpt lat="47.16162" lon="-1.57327">
        <ele>78</ele>
        <time>2021-05-29T09:34:06.000Z</time>
      </trkpt>
      <trkpt lat="47.16162" lon="-1.57312">
        <ele>78</ele>
        <time>2021-05-29T09:34:08.000Z</time>
      </trkpt>
      <trkpt lat="47.16159" lon="-1.57296">
        <ele>79</ele>
        <time>2021-05-29T09:34:10.000Z</time>
      </trkpt>
      <trkpt lat="47.16161" lon="-1.57269">
        <ele>78</ele>
        <time>2021-05-29T09:34:13.000Z</time>
      </trkpt>
      <trkpt lat="47.16162" lon="-1.57255">
        <ele>79</ele>
        <time>2021-05-29T09:34:15.000Z</time>
      </trkpt>
      <trkpt lat="47.16161" lon="-1.57242">
        <ele>78</ele>
        <time>2021-05-29T09:34:17.000Z</time>
      </trkpt>
      <trkpt lat="47.16163" lon="-1.57224">
        <ele>78</ele>
        <time>2021-05-29T09:34:19.000Z</time>
      </trkpt>
      <trkpt lat="47.16163" lon="-1.57204">
        <ele>78</ele>
        <time>2021-05-29T09:34:21.000Z</time>
      </trkpt>
      <trkpt lat="47.16165" lon="-1.57185">
        <ele>77</ele>
        <time>2021-05-29T09:34:23.000Z</time>
      </trkpt>
      <trkpt lat="47.16166" lon="-1.57165">
        <ele>75</ele>
        <time>2021-05-29T09:34:25.000Z</time>
      </trkpt>
      <trkpt lat="47.16167" lon="-1.57146">
        <ele>75</ele>
        <time>2021-05-29T09:34:27.000Z</time>
      </trkpt>
      <trkpt lat="47.1617" lon="-1.57127">
        <ele>77</ele>
        <time>2021-05-29T09:34:29.000Z</time>
      </trkpt>
      <trkpt lat="47.16173" lon="-1.57113">
        <ele>77</ele>
        <time>2021-05-29T09:34:31.000Z</time>
      </trkpt>
      <trkpt lat="47.16176" lon="-1.57096">
        <ele>77</ele>
        <time>2021-05-29T09:34:33.000Z</time>
      </trkpt>
      <trkpt lat="47.16179" lon="-1.57079">
        <ele>77</ele>
        <time>2021-05-29T09:34:35.000Z</time>
      </trkpt>
      <trkpt lat="47.16182" lon="-1.57061">
        <ele>77</ele>
        <time>2021-05-29T09:34:37.000Z</time>
      </trkpt>
      <trkpt lat="47.16186" lon="-1.57043">
        <ele>77</ele>
        <time>2021-05-29T09:34:39.000Z</time>
      </trkpt>
      <trkpt lat="47.16188" lon="-1.57025">
        <ele>77</ele>
        <time>2021-05-29T09:34:41.000Z</time>
      </trkpt>
      <trkpt lat="47.16191" lon="-1.57008">
        <ele>77</ele>
        <time>2021-05-29T09:34:43.000Z</time>
      </trkpt>
      <trkpt lat="47.16193" lon="-1.5699">
        <ele>78</ele>
        <time>2021-05-29T09:34:45.000Z</time>
      </trkpt>
      <trkpt lat="47.16196" lon="-1.56972">
        <ele>78</ele>
        <time>2021-05-29T09:34:47.000Z</time>
      </trkpt>
      <trkpt lat="47.162" lon="-1.56955">
        <ele>78</ele>
        <time>2021-05-29T09:34:49.000Z</time>
      </trkpt>
      <trkpt lat="47.16205" lon="-1.56929">
        <ele>77</ele>
        <time>2021-05-29T09:34:52.000Z</time>
      </trkpt>
      <trkpt lat="47.16206" lon="-1.56912">
        <ele>78</ele>
        <time>2021-05-29T09:34:54.000Z</time>
      </trkpt>
      <trkpt lat="47.16209" lon="-1.56895">
        <ele>78</ele>
        <time>2021-05-29T09:34:56.000Z</time>
      </trkpt>
      <trkpt lat="47.16213" lon="-1.56873">
        <ele>78</ele>
        <time>2021-05-29T09:34:59.000Z</time>
      </trkpt>
      <trkpt lat="47.16217" lon="-1.56856">
        <ele>77</ele>
        <time>2021-05-29T09:35:01.000Z</time>
      </trkpt>
      <trkpt lat="47.16221" lon="-1.56836">
        <ele>73</ele>
        <time>2021-05-29T09:35:03.000Z</time>
      </trkpt>
      <trkpt lat="47.16224" lon="-1.56818">
        <ele>73</ele>
        <time>2021-05-29T09:35:05.000Z</time>
      </trkpt>
      <trkpt lat="47.16229" lon="-1.56802">
        <ele>75</ele>
        <time>2021-05-29T09:35:07.000Z</time>
      </trkpt>
      <trkpt lat="47.16232" lon="-1.56785">
        <ele>76</ele>
        <time>2021-05-29T09:35:09.000Z</time>
      </trkpt>
      <trkpt lat="47.16235" lon="-1.56769">
        <ele>76</ele>
        <time>2021-05-29T09:35:11.000Z</time>
      </trkpt>
      <trkpt lat="47.16237" lon="-1.56753">
        <ele>76</ele>
        <time>2021-05-29T09:35:13.000Z</time>
      </trkpt>
      <trkpt lat="47.16239" lon="-1.56736">
        <ele>76</ele>
        <time>2021-05-29T09:35:15.000Z</time>
      </trkpt>
      <trkpt lat="47.16232" lon="-1.56722">
        <ele>76</ele>
        <time>2021-05-29T09:35:17.000Z</time>
      </trkpt>
      <trkpt lat="47.16219" lon="-1.5672">
        <ele>76</ele>
        <time>2021-05-29T09:35:19.000Z</time>
      </trkpt>
      <trkpt lat="47.16201" lon="-1.56723">
        <ele>76</ele>
        <time>2021-05-29T09:35:22.000Z</time>
      </trkpt>
      <trkpt lat="47.16189" lon="-1.56722">
        <ele>75</ele>
        <time>2021-05-29T09:35:24.000Z</time>
      </trkpt>
      <trkpt lat="47.16177" lon="-1.5672">
        <ele>76</ele>
        <time>2021-05-29T09:35:26.000Z</time>
      </trkpt>
      <trkpt lat="47.16164" lon="-1.56718">
        <ele>75</ele>
        <time>2021-05-29T09:35:28.000Z</time>
      </trkpt>
      <trkpt lat="47.16152" lon="-1.56718">
        <ele>73</ele>
        <time>2021-05-29T09:35:30.000Z</time>
      </trkpt>
      <trkpt lat="47.16141" lon="-1.5672">
        <ele>74</ele>
        <time>2021-05-29T09:35:32.000Z</time>
      </trkpt>
      <trkpt lat="47.16128" lon="-1.56713">
        <ele>74</ele>
        <time>2021-05-29T09:35:34.000Z</time>
      </trkpt>
      <trkpt lat="47.16114" lon="-1.56711">
        <ele>74</ele>
        <time>2021-05-29T09:35:36.000Z</time>
      </trkpt>
      <trkpt lat="47.16096" lon="-1.56712">
        <ele>75</ele>
        <time>2021-05-29T09:35:39.000Z</time>
      </trkpt>
      <trkpt lat="47.16083" lon="-1.56713">
        <ele>73</ele>
        <time>2021-05-29T09:35:41.000Z</time>
      </trkpt>
      <trkpt lat="47.16064" lon="-1.56716">
        <ele>73</ele>
        <time>2021-05-29T09:35:44.000Z</time>
      </trkpt>
      <trkpt lat="47.1605" lon="-1.56713">
        <ele>74</ele>
        <time>2021-05-29T09:35:46.000Z</time>
      </trkpt>
      <trkpt lat="47.16036" lon="-1.56709">
        <ele>75</ele>
        <time>2021-05-29T09:35:48.000Z</time>
      </trkpt>
      <trkpt lat="47.16022" lon="-1.56707">
        <ele>75</ele>
        <time>2021-05-29T09:35:50.000Z</time>
      </trkpt>
      <trkpt lat="47.16007" lon="-1.56704">
        <ele>75</ele>
        <time>2021-05-29T09:35:52.000Z</time>
      </trkpt>
      <trkpt lat="47.15995" lon="-1.56697">
        <ele>73</ele>
        <time>2021-05-29T09:35:54.000Z</time>
      </trkpt>
      <trkpt lat="47.15985" lon="-1.56688">
        <ele>74</ele>
        <time>2021-05-29T09:35:56.000Z</time>
      </trkpt>
      <trkpt lat="47.15978" lon="-1.56675">
        <ele>72</ele>
        <time>2021-05-29T09:35:58.000Z</time>
      </trkpt>
      <trkpt lat="47.15974" lon="-1.56656">
        <ele>75</ele>
        <time>2021-05-29T09:36:00.000Z</time>
      </trkpt>
      <trkpt lat="47.15972" lon="-1.56633">
        <ele>75</ele>
        <time>2021-05-29T09:36:02.000Z</time>
      </trkpt>
      <trkpt lat="47.15971" lon="-1.56612">
        <ele>75</ele>
        <time>2021-05-29T09:36:04.000Z</time>
      </trkpt>
      <trkpt lat="47.15967" lon="-1.56584">
        <ele>75</ele>
        <time>2021-05-29T09:36:07.000Z</time>
      </trkpt>
      <trkpt lat="47.15966" lon="-1.56555">
        <ele>76</ele>
        <time>2021-05-29T09:36:10.000Z</time>
      </trkpt>
      <trkpt lat="47.15966" lon="-1.56537">
        <ele>76</ele>
        <time>2021-05-29T09:36:12.000Z</time>
      </trkpt>
      <trkpt lat="47.15966" lon="-1.56518">
        <ele>77</ele>
        <time>2021-05-29T09:36:14.000Z</time>
      </trkpt>
      <trkpt lat="47.15967" lon="-1.565">
        <ele>76</ele>
        <time>2021-05-29T09:36:16.000Z</time>
      </trkpt>
      <trkpt lat="47.15967" lon="-1.56472">
        <ele>76</ele>
        <time>2021-05-29T09:36:19.000Z</time>
      </trkpt>
      <trkpt lat="47.15968" lon="-1.56453">
        <ele>75</ele>
        <time>2021-05-29T09:36:21.000Z</time>
      </trkpt>
      <trkpt lat="47.15968" lon="-1.56435">
        <ele>76</ele>
        <time>2021-05-29T09:36:23.000Z</time>
      </trkpt>
      <trkpt lat="47.1597" lon="-1.56416">
        <ele>75</ele>
        <time>2021-05-29T09:36:25.000Z</time>
      </trkpt>
      <trkpt lat="47.15972" lon="-1.56398">
        <ele>76</ele>
        <time>2021-05-29T09:36:27.000Z</time>
      </trkpt>
      <trkpt lat="47.15979" lon="-1.56371">
        <ele>76</ele>
        <time>2021-05-29T09:36:30.000Z</time>
      </trkpt>
      <trkpt lat="47.15989" lon="-1.56345">
        <ele>76</ele>
        <time>2021-05-29T09:36:33.000Z</time>
      </trkpt>
      <trkpt lat="47.15995" lon="-1.5633">
        <ele>77</ele>
        <time>2021-05-29T09:36:35.000Z</time>
      </trkpt>
      <trkpt lat="47.16" lon="-1.56314">
        <ele>77</ele>
        <time>2021-05-29T09:36:37.000Z</time>
      </trkpt>
      <trkpt lat="47.16005" lon="-1.56296">
        <ele>77</ele>
        <time>2021-05-29T09:36:39.000Z</time>
      </trkpt>
      <trkpt lat="47.1601" lon="-1.5628">
        <ele>76</ele>
        <time>2021-05-29T09:36:41.000Z</time>
      </trkpt>
      <trkpt lat="47.16014" lon="-1.56264">
        <ele>76</ele>
        <time>2021-05-29T09:36:43.000Z</time>
      </trkpt>
      <trkpt lat="47.16016" lon="-1.56241">
        <ele>76</ele>
        <time>2021-05-29T09:36:46.000Z</time>
      </trkpt>
      <trkpt lat="47.16007" lon="-1.5623">
        <ele>77</ele>
        <time>2021-05-29T09:36:48.000Z</time>
      </trkpt>
      <trkpt lat="47.15994" lon="-1.56227">
        <ele>77</ele>
        <time>2021-05-29T09:36:50.000Z</time>
      </trkpt>
      <trkpt lat="47.15982" lon="-1.56222">
        <ele>77</ele>
        <time>2021-05-29T09:36:52.000Z</time>
      </trkpt>
      <trkpt lat="47.1597" lon="-1.56217">
        <ele>77</ele>
        <time>2021-05-29T09:36:54.000Z</time>
      </trkpt>
      <trkpt lat="47.15954" lon="-1.56212">
        <ele>76</ele>
        <time>2021-05-29T09:36:57.000Z</time>
      </trkpt>
      <trkpt lat="47.15932" lon="-1.562">
        <ele>81</ele>
        <time>2021-05-29T09:37:01.000Z</time>
      </trkpt>
      <trkpt lat="47.15912" lon="-1.56193">
        <ele>78</ele>
        <time>2021-05-29T09:37:04.000Z</time>
      </trkpt>
      <trkpt lat="47.159" lon="-1.56188">
        <ele>76</ele>
        <time>2021-05-29T09:37:06.000Z</time>
      </trkpt>
      <trkpt lat="47.15889" lon="-1.56182">
        <ele>77</ele>
        <time>2021-05-29T09:37:08.000Z</time>
      </trkpt>
      <trkpt lat="47.15875" lon="-1.56177">
        <ele>76</ele>
        <time>2021-05-29T09:37:10.000Z</time>
      </trkpt>
      <trkpt lat="47.15861" lon="-1.56173">
        <ele>77</ele>
        <time>2021-05-29T09:37:12.000Z</time>
      </trkpt>
      <trkpt lat="47.15847" lon="-1.56167">
        <ele>77</ele>
        <time>2021-05-29T09:37:14.000Z</time>
      </trkpt>
      <trkpt lat="47.15835" lon="-1.56161">
        <ele>77</ele>
        <time>2021-05-29T09:37:16.000Z</time>
      </trkpt>
      <trkpt lat="47.15823" lon="-1.56155">
        <ele>76</ele>
        <time>2021-05-29T09:37:18.000Z</time>
      </trkpt>
      <trkpt lat="47.1581" lon="-1.56149">
        <ele>77</ele>
        <time>2021-05-29T09:37:20.000Z</time>
      </trkpt>
      <trkpt lat="47.15797" lon="-1.56144">
        <ele>76</ele>
        <time>2021-05-29T09:37:22.000Z</time>
      </trkpt>
      <trkpt lat="47.15784" lon="-1.56138">
        <ele>76</ele>
        <time>2021-05-29T09:37:24.000Z</time>
      </trkpt>
      <trkpt lat="47.15771" lon="-1.56133">
        <ele>77</ele>
        <time>2021-05-29T09:37:26.000Z</time>
      </trkpt>
      <trkpt lat="47.1576" lon="-1.56127">
        <ele>77</ele>
        <time>2021-05-29T09:37:28.000Z</time>
      </trkpt>
      <trkpt lat="47.15748" lon="-1.56122">
        <ele>77</ele>
        <time>2021-05-29T09:37:30.000Z</time>
      </trkpt>
      <trkpt lat="47.15732" lon="-1.56114">
        <ele>77</ele>
        <time>2021-05-29T09:37:33.000Z</time>
      </trkpt>
      <trkpt lat="47.15724" lon="-1.56107">
        <ele>76</ele>
        <time>2021-05-29T09:37:35.000Z</time>
      </trkpt>
      <trkpt lat="47.15707" lon="-1.561">
        <ele>78</ele>
        <time>2021-05-29T09:37:38.000Z</time>
      </trkpt>
      <trkpt lat="47.15687" lon="-1.56092">
        <ele>77</ele>
        <time>2021-05-29T09:37:41.000Z</time>
      </trkpt>
      <trkpt lat="47.15676" lon="-1.56089">
        <ele>77</ele>
        <time>2021-05-29T09:37:43.000Z</time>
      </trkpt>
      <trkpt lat="47.15666" lon="-1.56086">
        <ele>79</ele>
        <time>2021-05-29T09:37:45.000Z</time>
      </trkpt>
      <trkpt lat="47.15646" lon="-1.56082">
        <ele>85</ele>
        <time>2021-05-29T09:37:48.000Z</time>
      </trkpt>
      <trkpt lat="47.15634" lon="-1.56077">
        <ele>85</ele>
        <time>2021-05-29T09:37:50.000Z</time>
      </trkpt>
      <trkpt lat="47.15622" lon="-1.5607">
        <ele>85</ele>
        <time>2021-05-29T09:37:52.000Z</time>
      </trkpt>
      <trkpt lat="47.15608" lon="-1.56062">
        <ele>88</ele>
        <time>2021-05-29T09:37:54.000Z</time>
      </trkpt>
      <trkpt lat="47.15593" lon="-1.56051">
        <ele>86</ele>
        <time>2021-05-29T09:37:56.000Z</time>
      </trkpt>
      <trkpt lat="47.15579" lon="-1.56041">
        <ele>84</ele>
        <time>2021-05-29T09:37:58.000Z</time>
      </trkpt>
      <trkpt lat="47.15569" lon="-1.56029">
        <ele>81</ele>
        <time>2021-05-29T09:38:00.000Z</time>
      </trkpt>
      <trkpt lat="47.15556" lon="-1.5602">
        <ele>80</ele>
        <time>2021-05-29T09:38:02.000Z</time>
      </trkpt>
      <trkpt lat="47.15544" lon="-1.56009">
        <ele>79</ele>
        <time>2021-05-29T09:38:04.000Z</time>
      </trkpt>
      <trkpt lat="47.15533" lon="-1.55999">
        <ele>78</ele>
        <time>2021-05-29T09:38:06.000Z</time>
      </trkpt>
      <trkpt lat="47.15521" lon="-1.5599">
        <ele>78</ele>
        <time>2021-05-29T09:38:08.000Z</time>
      </trkpt>
      <trkpt lat="47.1551" lon="-1.55981">
        <ele>78</ele>
        <time>2021-05-29T09:38:10.000Z</time>
      </trkpt>
      <trkpt lat="47.15499" lon="-1.55972">
        <ele>77</ele>
        <time>2021-05-29T09:38:12.000Z</time>
      </trkpt>
      <trkpt lat="47.15487" lon="-1.55964">
        <ele>79</ele>
        <time>2021-05-29T09:38:14.000Z</time>
      </trkpt>
      <trkpt lat="47.15476" lon="-1.55955">
        <ele>79</ele>
        <time>2021-05-29T09:38:16.000Z</time>
      </trkpt>
      <trkpt lat="47.15452" lon="-1.55937">
        <ele>78</ele>
        <time>2021-05-29T09:38:20.000Z</time>
      </trkpt>
      <trkpt lat="47.15441" lon="-1.55929">
        <ele>78</ele>
        <time>2021-05-29T09:38:22.000Z</time>
      </trkpt>
      <trkpt lat="47.15432" lon="-1.55919">
        <ele>78</ele>
        <time>2021-05-29T09:38:24.000Z</time>
      </trkpt>
      <trkpt lat="47.15419" lon="-1.55911">
        <ele>78</ele>
        <time>2021-05-29T09:38:26.000Z</time>
      </trkpt>
      <trkpt lat="47.15409" lon="-1.55904">
        <ele>76</ele>
        <time>2021-05-29T09:38:28.000Z</time>
      </trkpt>
      <trkpt lat="47.154" lon="-1.55897">
        <ele>76</ele>
        <time>2021-05-29T09:38:30.000Z</time>
      </trkpt>
      <trkpt lat="47.15392" lon="-1.55889">
        <ele>75</ele>
        <time>2021-05-29T09:38:34.000Z</time>
      </trkpt>
      <trkpt lat="47.15383" lon="-1.55872">
        <ele>75</ele>
        <time>2021-05-29T09:38:37.000Z</time>
      </trkpt>
      <trkpt lat="47.15378" lon="-1.55857">
        <ele>75</ele>
        <time>2021-05-29T09:38:39.000Z</time>
      </trkpt>
      <trkpt lat="47.15372" lon="-1.55842">
        <ele>76</ele>
        <time>2021-05-29T09:38:41.000Z</time>
      </trkpt>
      <trkpt lat="47.15365" lon="-1.55827">
        <ele>75</ele>
        <time>2021-05-29T09:38:43.000Z</time>
      </trkpt>
      <trkpt lat="47.15356" lon="-1.55812">
        <ele>75</ele>
        <time>2021-05-29T09:38:45.000Z</time>
      </trkpt>
      <trkpt lat="47.15349" lon="-1.55797">
        <ele>75</ele>
        <time>2021-05-29T09:38:47.000Z</time>
      </trkpt>
      <trkpt lat="47.15341" lon="-1.55783">
        <ele>76</ele>
        <time>2021-05-29T09:38:49.000Z</time>
      </trkpt>
      <trkpt lat="47.15334" lon="-1.55768">
        <ele>76</ele>
        <time>2021-05-29T09:38:51.000Z</time>
      </trkpt>
      <trkpt lat="47.15327" lon="-1.55753">
        <ele>77</ele>
        <time>2021-05-29T09:38:53.000Z</time>
      </trkpt>
      <trkpt lat="47.15319" lon="-1.55739">
        <ele>76</ele>
        <time>2021-05-29T09:38:55.000Z</time>
      </trkpt>
      <trkpt lat="47.15312" lon="-1.55724">
        <ele>76</ele>
        <time>2021-05-29T09:38:57.000Z</time>
      </trkpt>
      <trkpt lat="47.15305" lon="-1.55709">
        <ele>76</ele>
        <time>2021-05-29T09:38:59.000Z</time>
      </trkpt>
      <trkpt lat="47.15297" lon="-1.55694">
        <ele>75</ele>
        <time>2021-05-29T09:39:01.000Z</time>
      </trkpt>
      <trkpt lat="47.15286" lon="-1.5567">
        <ele>74</ele>
        <time>2021-05-29T09:39:04.000Z</time>
      </trkpt>
      <trkpt lat="47.15277" lon="-1.55654">
        <ele>73</ele>
        <time>2021-05-29T09:39:06.000Z</time>
      </trkpt>
      <trkpt lat="47.1527" lon="-1.55639">
        <ele>73</ele>
        <time>2021-05-29T09:39:08.000Z</time>
      </trkpt>
      <trkpt lat="47.15263" lon="-1.55623">
        <ele>74</ele>
        <time>2021-05-29T09:39:10.000Z</time>
      </trkpt>
      <trkpt lat="47.15257" lon="-1.55607">
        <ele>74</ele>
        <time>2021-05-29T09:39:12.000Z</time>
      </trkpt>
      <trkpt lat="47.15251" lon="-1.55588">
        <ele>72</ele>
        <time>2021-05-29T09:39:14.000Z</time>
      </trkpt>
      <trkpt lat="47.15244" lon="-1.5557">
        <ele>73</ele>
        <time>2021-05-29T09:39:16.000Z</time>
      </trkpt>
      <trkpt lat="47.15239" lon="-1.55554">
        <ele>73</ele>
        <time>2021-05-29T09:39:18.000Z</time>
      </trkpt>
      <trkpt lat="47.15233" lon="-1.55536">
        <ele>72</ele>
        <time>2021-05-29T09:39:20.000Z</time>
      </trkpt>
      <trkpt lat="47.15226" lon="-1.5552">
        <ele>72</ele>
        <time>2021-05-29T09:39:22.000Z</time>
      </trkpt>
      <trkpt lat="47.1522" lon="-1.55502">
        <ele>71</ele>
        <time>2021-05-29T09:39:24.000Z</time>
      </trkpt>
      <trkpt lat="47.15211" lon="-1.55486">
        <ele>71</ele>
        <time>2021-05-29T09:39:26.000Z</time>
      </trkpt>
      <trkpt lat="47.15202" lon="-1.55473">
        <ele>71</ele>
        <time>2021-05-29T09:39:28.000Z</time>
      </trkpt>
      <trkpt lat="47.15191" lon="-1.55465">
        <ele>71</ele>
        <time>2021-05-29T09:39:30.000Z</time>
      </trkpt>
      <trkpt lat="47.15177" lon="-1.55463">
        <ele>71</ele>
        <time>2021-05-29T09:39:32.000Z</time>
      </trkpt>
      <trkpt lat="47.15165" lon="-1.55464">
        <ele>71</ele>
        <time>2021-05-29T09:39:34.000Z</time>
      </trkpt>
      <trkpt lat="47.15146" lon="-1.55468">
        <ele>69</ele>
        <time>2021-05-29T09:39:37.000Z</time>
      </trkpt>
      <trkpt lat="47.15133" lon="-1.55473">
        <ele>70</ele>
        <time>2021-05-29T09:39:39.000Z</time>
      </trkpt>
      <trkpt lat="47.15114" lon="-1.55478">
        <ele>67</ele>
        <time>2021-05-29T09:39:42.000Z</time>
      </trkpt>
      <trkpt lat="47.15099" lon="-1.5548">
        <ele>68</ele>
        <time>2021-05-29T09:39:44.000Z</time>
      </trkpt>
      <trkpt lat="47.15086" lon="-1.55485">
        <ele>69</ele>
        <time>2021-05-29T09:39:46.000Z</time>
      </trkpt>
      <trkpt lat="47.15073" lon="-1.55488">
        <ele>70</ele>
        <time>2021-05-29T09:39:48.000Z</time>
      </trkpt>
      <trkpt lat="47.1506" lon="-1.55492">
        <ele>70</ele>
        <time>2021-05-29T09:39:50.000Z</time>
      </trkpt>
      <trkpt lat="47.15047" lon="-1.55495">
        <ele>69</ele>
        <time>2021-05-29T09:39:52.000Z</time>
      </trkpt>
      <trkpt lat="47.15033" lon="-1.55499">
        <ele>69</ele>
        <time>2021-05-29T09:39:54.000Z</time>
      </trkpt>
      <trkpt lat="47.15019" lon="-1.55503">
        <ele>69</ele>
        <time>2021-05-29T09:39:56.000Z</time>
      </trkpt>
      <trkpt lat="47.15006" lon="-1.55507">
        <ele>69</ele>
        <time>2021-05-29T09:39:58.000Z</time>
      </trkpt>
      <trkpt lat="47.14993" lon="-1.55512">
        <ele>68</ele>
        <time>2021-05-29T09:40:00.000Z</time>
      </trkpt>
      <trkpt lat="47.1498" lon="-1.55518">
        <ele>68</ele>
        <time>2021-05-29T09:40:02.000Z</time>
      </trkpt>
      <trkpt lat="47.14965" lon="-1.55521">
        <ele>68</ele>
        <time>2021-05-29T09:40:04.000Z</time>
      </trkpt>
      <trkpt lat="47.14952" lon="-1.55525">
        <ele>69</ele>
        <time>2021-05-29T09:40:06.000Z</time>
      </trkpt>
      <trkpt lat="47.14939" lon="-1.55528">
        <ele>69</ele>
        <time>2021-05-29T09:40:08.000Z</time>
      </trkpt>
      <trkpt lat="47.14927" lon="-1.5553">
        <ele>70</ele>
        <time>2021-05-29T09:40:10.000Z</time>
      </trkpt>
      <trkpt lat="47.14914" lon="-1.55533">
        <ele>71</ele>
        <time>2021-05-29T09:40:12.000Z</time>
      </trkpt>
      <trkpt lat="47.14901" lon="-1.55537">
        <ele>71</ele>
        <time>2021-05-29T09:40:14.000Z</time>
      </trkpt>
      <trkpt lat="47.14888" lon="-1.55538">
        <ele>72</ele>
        <time>2021-05-29T09:40:16.000Z</time>
      </trkpt>
      <trkpt lat="47.14875" lon="-1.55536">
        <ele>72</ele>
        <time>2021-05-29T09:40:18.000Z</time>
      </trkpt>
      <trkpt lat="47.14862" lon="-1.5553">
        <ele>72</ele>
        <time>2021-05-29T09:40:20.000Z</time>
      </trkpt>
      <trkpt lat="47.14851" lon="-1.55518">
        <ele>70</ele>
        <time>2021-05-29T09:40:22.000Z</time>
      </trkpt>
      <trkpt lat="47.14839" lon="-1.55508">
        <ele>68</ele>
        <time>2021-05-29T09:40:24.000Z</time>
      </trkpt>
      <trkpt lat="47.14829" lon="-1.55494">
        <ele>69</ele>
        <time>2021-05-29T09:40:26.000Z</time>
      </trkpt>
      <trkpt lat="47.14819" lon="-1.5548">
        <ele>69</ele>
        <time>2021-05-29T09:40:28.000Z</time>
      </trkpt>
      <trkpt lat="47.14808" lon="-1.55468">
        <ele>70</ele>
        <time>2021-05-29T09:40:30.000Z</time>
      </trkpt>
      <trkpt lat="47.14797" lon="-1.55457">
        <ele>68</ele>
        <time>2021-05-29T09:40:32.000Z</time>
      </trkpt>
      <trkpt lat="47.14786" lon="-1.55448">
        <ele>68</ele>
        <time>2021-05-29T09:40:34.000Z</time>
      </trkpt>
      <trkpt lat="47.14776" lon="-1.55436">
        <ele>68</ele>
        <time>2021-05-29T09:40:36.000Z</time>
      </trkpt>
      <trkpt lat="47.14764" lon="-1.55425">
        <ele>68</ele>
        <time>2021-05-29T09:40:38.000Z</time>
      </trkpt>
      <trkpt lat="47.14751" lon="-1.55415">
        <ele>67</ele>
        <time>2021-05-29T09:40:40.000Z</time>
      </trkpt>
      <trkpt lat="47.1474" lon="-1.55405">
        <ele>68</ele>
        <time>2021-05-29T09:40:42.000Z</time>
      </trkpt>
      <trkpt lat="47.14729" lon="-1.55393">
        <ele>69</ele>
        <time>2021-05-29T09:40:44.000Z</time>
      </trkpt>
      <trkpt lat="47.14712" lon="-1.55377">
        <ele>69</ele>
        <time>2021-05-29T09:40:47.000Z</time>
      </trkpt>
      <trkpt lat="47.14702" lon="-1.55366">
        <ele>71</ele>
        <time>2021-05-29T09:40:49.000Z</time>
      </trkpt>
      <trkpt lat="47.14691" lon="-1.55355">
        <ele>70</ele>
        <time>2021-05-29T09:40:51.000Z</time>
      </trkpt>
      <trkpt lat="47.14681" lon="-1.55342">
        <ele>71</ele>
        <time>2021-05-29T09:40:53.000Z</time>
      </trkpt>
      <trkpt lat="47.14667" lon="-1.55319">
        <ele>66</ele>
        <time>2021-05-29T09:40:56.000Z</time>
      </trkpt>
      <trkpt lat="47.14656" lon="-1.55306">
        <ele>66</ele>
        <time>2021-05-29T09:40:58.000Z</time>
      </trkpt>
      <trkpt lat="47.14646" lon="-1.55294">
        <ele>68</ele>
        <time>2021-05-29T09:41:00.000Z</time>
      </trkpt>
      <trkpt lat="47.14637" lon="-1.5528">
        <ele>68</ele>
        <time>2021-05-29T09:41:02.000Z</time>
      </trkpt>
      <trkpt lat="47.14627" lon="-1.55266">
        <ele>69</ele>
        <time>2021-05-29T09:41:04.000Z</time>
      </trkpt>
      <trkpt lat="47.14618" lon="-1.5525">
        <ele>69</ele>
        <time>2021-05-29T09:41:06.000Z</time>
      </trkpt>
      <trkpt lat="47.14604" lon="-1.55227">
        <ele>69</ele>
        <time>2021-05-29T09:41:09.000Z</time>
      </trkpt>
      <trkpt lat="47.14595" lon="-1.55211">
        <ele>69</ele>
        <time>2021-05-29T09:41:11.000Z</time>
      </trkpt>
      <trkpt lat="47.14586" lon="-1.55195">
        <ele>68</ele>
        <time>2021-05-29T09:41:13.000Z</time>
      </trkpt>
      <trkpt lat="47.14573" lon="-1.55169">
        <ele>68</ele>
        <time>2021-05-29T09:41:16.000Z</time>
      </trkpt>
      <trkpt lat="47.14553" lon="-1.55136">
        <ele>66</ele>
        <time>2021-05-29T09:41:20.000Z</time>
      </trkpt>
      <trkpt lat="47.14545" lon="-1.5512">
        <ele>66</ele>
        <time>2021-05-29T09:41:22.000Z</time>
      </trkpt>
      <trkpt lat="47.14532" lon="-1.55094">
        <ele>66</ele>
        <time>2021-05-29T09:41:25.000Z</time>
      </trkpt>
      <trkpt lat="47.14525" lon="-1.55075">
        <ele>65</ele>
        <time>2021-05-29T09:41:27.000Z</time>
      </trkpt>
      <trkpt lat="47.14517" lon="-1.55056">
        <ele>65</ele>
        <time>2021-05-29T09:41:29.000Z</time>
      </trkpt>
      <trkpt lat="47.14509" lon="-1.55038">
        <ele>65</ele>
        <time>2021-05-29T09:41:31.000Z</time>
      </trkpt>
      <trkpt lat="47.14496" lon="-1.55003">
        <ele>64</ele>
        <time>2021-05-29T09:41:35.000Z</time>
      </trkpt>
      <trkpt lat="47.14485" lon="-1.54989">
        <ele>64</ele>
        <time>2021-05-29T09:41:37.000Z</time>
      </trkpt>
      <trkpt lat="47.14474" lon="-1.54978">
        <ele>65</ele>
        <time>2021-05-29T09:41:39.000Z</time>
      </trkpt>
      <trkpt lat="47.14462" lon="-1.54965">
        <ele>66</ele>
        <time>2021-05-29T09:41:41.000Z</time>
      </trkpt>
      <trkpt lat="47.14451" lon="-1.54955">
        <ele>67</ele>
        <time>2021-05-29T09:41:43.000Z</time>
      </trkpt>
      <trkpt lat="47.14439" lon="-1.54945">
        <ele>68</ele>
        <time>2021-05-29T09:41:45.000Z</time>
      </trkpt>
      <trkpt lat="47.14423" lon="-1.54928">
        <ele>68</ele>
        <time>2021-05-29T09:41:48.000Z</time>
      </trkpt>
      <trkpt lat="47.14412" lon="-1.54918">
        <ele>68</ele>
        <time>2021-05-29T09:41:50.000Z</time>
      </trkpt>
      <trkpt lat="47.144" lon="-1.54908">
        <ele>67</ele>
        <time>2021-05-29T09:41:52.000Z</time>
      </trkpt>
      <trkpt lat="47.14389" lon="-1.54898">
        <ele>68</ele>
        <time>2021-05-29T09:41:54.000Z</time>
      </trkpt>
      <trkpt lat="47.14378" lon="-1.54886">
        <ele>68</ele>
        <time>2021-05-29T09:41:56.000Z</time>
      </trkpt>
      <trkpt lat="47.14367" lon="-1.54874">
        <ele>68</ele>
        <time>2021-05-29T09:41:58.000Z</time>
      </trkpt>
      <trkpt lat="47.14356" lon="-1.54863">
        <ele>69</ele>
        <time>2021-05-29T09:42:00.000Z</time>
      </trkpt>
      <trkpt lat="47.14345" lon="-1.54852">
        <ele>66</ele>
        <time>2021-05-29T09:42:02.000Z</time>
      </trkpt>
      <trkpt lat="47.14333" lon="-1.54843">
        <ele>66</ele>
        <time>2021-05-29T09:42:04.000Z</time>
      </trkpt>
      <trkpt lat="47.1432" lon="-1.5483">
        <ele>67</ele>
        <time>2021-05-29T09:42:06.000Z</time>
      </trkpt>
      <trkpt lat="47.14308" lon="-1.5482">
        <ele>69</ele>
        <time>2021-05-29T09:42:08.000Z</time>
      </trkpt>
      <trkpt lat="47.14296" lon="-1.54811">
        <ele>69</ele>
        <time>2021-05-29T09:42:10.000Z</time>
      </trkpt>
      <trkpt lat="47.14285" lon="-1.54801">
        <ele>68</ele>
        <time>2021-05-29T09:42:12.000Z</time>
      </trkpt>
      <trkpt lat="47.14273" lon="-1.54793">
        <ele>69</ele>
        <time>2021-05-29T09:42:14.000Z</time>
      </trkpt>
      <trkpt lat="47.14262" lon="-1.54785">
        <ele>69</ele>
        <time>2021-05-29T09:42:16.000Z</time>
      </trkpt>
      <trkpt lat="47.1425" lon="-1.54775">
        <ele>68</ele>
        <time>2021-05-29T09:42:18.000Z</time>
      </trkpt>
      <trkpt lat="47.14239" lon="-1.54767">
        <ele>68</ele>
        <time>2021-05-29T09:42:20.000Z</time>
      </trkpt>
      <trkpt lat="47.14228" lon="-1.5476">
        <ele>69</ele>
        <time>2021-05-29T09:42:22.000Z</time>
      </trkpt>
      <trkpt lat="47.14219" lon="-1.54752">
        <ele>69</ele>
        <time>2021-05-29T09:42:24.000Z</time>
      </trkpt>
      <trkpt lat="47.14211" lon="-1.54745">
        <ele>69</ele>
        <time>2021-05-29T09:42:26.000Z</time>
      </trkpt>
      <trkpt lat="47.142" lon="-1.5474">
        <ele>69</ele>
        <time>2021-05-29T09:42:29.000Z</time>
      </trkpt>
      <trkpt lat="47.14191" lon="-1.5473">
        <ele>68</ele>
        <time>2021-05-29T09:42:34.000Z</time>
      </trkpt>
      <trkpt lat="47.14191" lon="-1.5471">
        <ele>68</ele>
        <time>2021-05-29T09:42:36.000Z</time>
      </trkpt>
      <trkpt lat="47.14194" lon="-1.54693">
        <ele>68</ele>
        <time>2021-05-29T09:42:38.000Z</time>
      </trkpt>
      <trkpt lat="47.14199" lon="-1.54677">
        <ele>67</ele>
        <time>2021-05-29T09:42:40.000Z</time>
      </trkpt>
      <trkpt lat="47.14203" lon="-1.54657">
        <ele>64</ele>
        <time>2021-05-29T09:42:42.000Z</time>
      </trkpt>
      <trkpt lat="47.14196" lon="-1.54641">
        <ele>63</ele>
        <time>2021-05-29T09:42:44.000Z</time>
      </trkpt>
      <trkpt lat="47.14187" lon="-1.54636">
        <ele>64</ele>
        <time>2021-05-29T09:42:45.000Z</time>
      </trkpt>
      <trkpt lat="47.14176" lon="-1.54625">
        <ele>63</ele>
        <time>2021-05-29T09:42:47.000Z</time>
      </trkpt>
      <trkpt lat="47.14163" lon="-1.54615">
        <ele>64</ele>
        <time>2021-05-29T09:42:49.000Z</time>
      </trkpt>
      <trkpt lat="47.14153" lon="-1.54606">
        <ele>66</ele>
        <time>2021-05-29T09:42:51.000Z</time>
      </trkpt>
      <trkpt lat="47.14143" lon="-1.54595">
        <ele>67</ele>
        <time>2021-05-29T09:42:53.000Z</time>
      </trkpt>
      <trkpt lat="47.14133" lon="-1.54583">
        <ele>68</ele>
        <time>2021-05-29T09:42:55.000Z</time>
      </trkpt>
      <trkpt lat="47.14123" lon="-1.54572">
        <ele>68</ele>
        <time>2021-05-29T09:42:57.000Z</time>
      </trkpt>
      <trkpt lat="47.14113" lon="-1.5456">
        <ele>69</ele>
        <time>2021-05-29T09:42:59.000Z</time>
      </trkpt>
      <trkpt lat="47.14103" lon="-1.54549">
        <ele>70</ele>
        <time>2021-05-29T09:43:01.000Z</time>
      </trkpt>
      <trkpt lat="47.14093" lon="-1.54537">
        <ele>70</ele>
        <time>2021-05-29T09:43:03.000Z</time>
      </trkpt>
      <trkpt lat="47.14083" lon="-1.54525">
        <ele>70</ele>
        <time>2021-05-29T09:43:05.000Z</time>
      </trkpt>
      <trkpt lat="47.14073" lon="-1.54514">
        <ele>70</ele>
        <time>2021-05-29T09:43:07.000Z</time>
      </trkpt>
      <trkpt lat="47.14064" lon="-1.54504">
        <ele>71</ele>
        <time>2021-05-29T09:43:09.000Z</time>
      </trkpt>
      <trkpt lat="47.14054" lon="-1.54495">
        <ele>71</ele>
        <time>2021-05-29T09:43:11.000Z</time>
      </trkpt>
      <trkpt lat="47.14044" lon="-1.54485">
        <ele>70</ele>
        <time>2021-05-29T09:43:13.000Z</time>
      </trkpt>
      <trkpt lat="47.14036" lon="-1.54479">
        <ele>70</ele>
        <time>2021-05-29T09:43:15.000Z</time>
      </trkpt>
      <trkpt lat="47.14026" lon="-1.54471">
        <ele>74</ele>
        <time>2021-05-29T09:43:17.000Z</time>
      </trkpt>
      <trkpt lat="47.14015" lon="-1.54459">
        <ele>76</ele>
        <time>2021-05-29T09:43:19.000Z</time>
      </trkpt>
      <trkpt lat="47.14004" lon="-1.54451">
        <ele>76</ele>
        <time>2021-05-29T09:43:21.000Z</time>
      </trkpt>
      <trkpt lat="47.13986" lon="-1.54439">
        <ele>75</ele>
        <time>2021-05-29T09:43:24.000Z</time>
      </trkpt>
      <trkpt lat="47.13971" lon="-1.54426">
        <ele>74</ele>
        <time>2021-05-29T09:43:27.000Z</time>
      </trkpt>
      <trkpt lat="47.13959" lon="-1.54415">
        <ele>72</ele>
        <time>2021-05-29T09:43:29.000Z</time>
      </trkpt>
      <trkpt lat="47.13947" lon="-1.54405">
        <ele>73</ele>
        <time>2021-05-29T09:43:31.000Z</time>
      </trkpt>
      <trkpt lat="47.13931" lon="-1.54393">
        <ele>73</ele>
        <time>2021-05-29T09:43:34.000Z</time>
      </trkpt>
      <trkpt lat="47.13919" lon="-1.54384">
        <ele>73</ele>
        <time>2021-05-29T09:43:36.000Z</time>
      </trkpt>
      <trkpt lat="47.13908" lon="-1.54374">
        <ele>73</ele>
        <time>2021-05-29T09:43:38.000Z</time>
      </trkpt>
      <trkpt lat="47.13897" lon="-1.54365">
        <ele>73</ele>
        <time>2021-05-29T09:43:40.000Z</time>
      </trkpt>
      <trkpt lat="47.13886" lon="-1.54356">
        <ele>72</ele>
        <time>2021-05-29T09:43:42.000Z</time>
      </trkpt>
      <trkpt lat="47.13875" lon="-1.54348">
        <ele>73</ele>
        <time>2021-05-29T09:43:44.000Z</time>
      </trkpt>
      <trkpt lat="47.13864" lon="-1.54339">
        <ele>73</ele>
        <time>2021-05-29T09:43:46.000Z</time>
      </trkpt>
      <trkpt lat="47.13854" lon="-1.5433">
        <ele>73</ele>
        <time>2021-05-29T09:43:48.000Z</time>
      </trkpt>
      <trkpt lat="47.13843" lon="-1.54323">
        <ele>74</ele>
        <time>2021-05-29T09:43:50.000Z</time>
      </trkpt>
      <trkpt lat="47.13832" lon="-1.54315">
        <ele>75</ele>
        <time>2021-05-29T09:43:52.000Z</time>
      </trkpt>
      <trkpt lat="47.1382" lon="-1.54309">
        <ele>75</ele>
        <time>2021-05-29T09:43:54.000Z</time>
      </trkpt>
      <trkpt lat="47.13808" lon="-1.54303">
        <ele>75</ele>
        <time>2021-05-29T09:43:56.000Z</time>
      </trkpt>
      <trkpt lat="47.13796" lon="-1.54298">
        <ele>76</ele>
        <time>2021-05-29T09:43:58.000Z</time>
      </trkpt>
      <trkpt lat="47.13771" lon="-1.54288">
        <ele>74</ele>
        <time>2021-05-29T09:44:02.000Z</time>
      </trkpt>
      <trkpt lat="47.13759" lon="-1.54283">
        <ele>75</ele>
        <time>2021-05-29T09:44:04.000Z</time>
      </trkpt>
      <trkpt lat="47.13748" lon="-1.54277">
        <ele>74</ele>
        <time>2021-05-29T09:44:06.000Z</time>
      </trkpt>
      <trkpt lat="47.13738" lon="-1.54272">
        <ele>73</ele>
        <time>2021-05-29T09:44:08.000Z</time>
      </trkpt>
      <trkpt lat="47.13725" lon="-1.54263">
        <ele>71</ele>
        <time>2021-05-29T09:44:11.000Z</time>
      </trkpt>
      <trkpt lat="47.13711" lon="-1.54256">
        <ele>71</ele>
        <time>2021-05-29T09:44:13.000Z</time>
      </trkpt>
      <trkpt lat="47.13696" lon="-1.54249">
        <ele>69</ele>
        <time>2021-05-29T09:44:15.000Z</time>
      </trkpt>
      <trkpt lat="47.13682" lon="-1.54241">
        <ele>70</ele>
        <time>2021-05-29T09:44:17.000Z</time>
      </trkpt>
      <trkpt lat="47.13668" lon="-1.54235">
        <ele>71</ele>
        <time>2021-05-29T09:44:19.000Z</time>
      </trkpt>
      <trkpt lat="47.13654" lon="-1.54228">
        <ele>72</ele>
        <time>2021-05-29T09:44:21.000Z</time>
      </trkpt>
      <trkpt lat="47.13641" lon="-1.5422">
        <ele>71</ele>
        <time>2021-05-29T09:44:23.000Z</time>
      </trkpt>
      <trkpt lat="47.13628" lon="-1.54213">
        <ele>71</ele>
        <time>2021-05-29T09:44:25.000Z</time>
      </trkpt>
      <trkpt lat="47.13616" lon="-1.54205">
        <ele>71</ele>
        <time>2021-05-29T09:44:27.000Z</time>
      </trkpt>
      <trkpt lat="47.13603" lon="-1.54196">
        <ele>72</ele>
        <time>2021-05-29T09:44:29.000Z</time>
      </trkpt>
      <trkpt lat="47.13592" lon="-1.54186">
        <ele>73</ele>
        <time>2021-05-29T09:44:31.000Z</time>
      </trkpt>
      <trkpt lat="47.13579" lon="-1.54174">
        <ele>73</ele>
        <time>2021-05-29T09:44:33.000Z</time>
      </trkpt>
      <trkpt lat="47.13569" lon="-1.54161">
        <ele>73</ele>
        <time>2021-05-29T09:44:35.000Z</time>
      </trkpt>
      <trkpt lat="47.13559" lon="-1.54147">
        <ele>73</ele>
        <time>2021-05-29T09:44:37.000Z</time>
      </trkpt>
      <trkpt lat="47.13548" lon="-1.54133">
        <ele>74</ele>
        <time>2021-05-29T09:44:39.000Z</time>
      </trkpt>
      <trkpt lat="47.13534" lon="-1.54111">
        <ele>74</ele>
        <time>2021-05-29T09:44:42.000Z</time>
      </trkpt>
      <trkpt lat="47.13525" lon="-1.54098">
        <ele>74</ele>
        <time>2021-05-29T09:44:44.000Z</time>
      </trkpt>
      <trkpt lat="47.13516" lon="-1.54085">
        <ele>73</ele>
        <time>2021-05-29T09:44:46.000Z</time>
      </trkpt>
      <trkpt lat="47.13503" lon="-1.54066">
        <ele>74</ele>
        <time>2021-05-29T09:44:49.000Z</time>
      </trkpt>
      <trkpt lat="47.13494" lon="-1.54055">
        <ele>73</ele>
        <time>2021-05-29T09:44:51.000Z</time>
      </trkpt>
      <trkpt lat="47.13484" lon="-1.54039">
        <ele>74</ele>
        <time>2021-05-29T09:44:53.000Z</time>
      </trkpt>
      <trkpt lat="47.13476" lon="-1.54023">
        <ele>72</ele>
        <time>2021-05-29T09:44:55.000Z</time>
      </trkpt>
      <trkpt lat="47.13468" lon="-1.54007">
        <ele>71</ele>
        <time>2021-05-29T09:44:57.000Z</time>
      </trkpt>
      <trkpt lat="47.1346" lon="-1.53991">
        <ele>71</ele>
        <time>2021-05-29T09:44:59.000Z</time>
      </trkpt>
      <trkpt lat="47.1345" lon="-1.53976">
        <ele>73</ele>
        <time>2021-05-29T09:45:01.000Z</time>
      </trkpt>
      <trkpt lat="47.13439" lon="-1.53955">
        <ele>73</ele>
        <time>2021-05-29T09:45:04.000Z</time>
      </trkpt>
      <trkpt lat="47.13432" lon="-1.53939">
        <ele>72</ele>
        <time>2021-05-29T09:45:06.000Z</time>
      </trkpt>
      <trkpt lat="47.13419" lon="-1.53915">
        <ele>73</ele>
        <time>2021-05-29T09:45:09.000Z</time>
      </trkpt>
      <trkpt lat="47.1341" lon="-1.539">
        <ele>73</ele>
        <time>2021-05-29T09:45:11.000Z</time>
      </trkpt>
      <trkpt lat="47.13402" lon="-1.53885">
        <ele>72</ele>
        <time>2021-05-29T09:45:13.000Z</time>
      </trkpt>
      <trkpt lat="47.1339" lon="-1.53861">
        <ele>71</ele>
        <time>2021-05-29T09:45:16.000Z</time>
      </trkpt>
      <trkpt lat="47.13382" lon="-1.53846">
        <ele>72</ele>
        <time>2021-05-29T09:45:18.000Z</time>
      </trkpt>
      <trkpt lat="47.13374" lon="-1.53831">
        <ele>71</ele>
        <time>2021-05-29T09:45:20.000Z</time>
      </trkpt>
      <trkpt lat="47.13365" lon="-1.53819">
        <ele>70</ele>
        <time>2021-05-29T09:45:22.000Z</time>
      </trkpt>
      <trkpt lat="47.13356" lon="-1.53804">
        <ele>71</ele>
        <time>2021-05-29T09:45:24.000Z</time>
      </trkpt>
      <trkpt lat="47.1335" lon="-1.53788">
        <ele>72</ele>
        <time>2021-05-29T09:45:26.000Z</time>
      </trkpt>
      <trkpt lat="47.13343" lon="-1.53773">
        <ele>72</ele>
        <time>2021-05-29T09:45:28.000Z</time>
      </trkpt>
      <trkpt lat="47.13336" lon="-1.53757">
        <ele>72</ele>
        <time>2021-05-29T09:45:30.000Z</time>
      </trkpt>
      <trkpt lat="47.13329" lon="-1.53741">
        <ele>72</ele>
        <time>2021-05-29T09:45:32.000Z</time>
      </trkpt>
      <trkpt lat="47.13322" lon="-1.53726">
        <ele>73</ele>
        <time>2021-05-29T09:45:34.000Z</time>
      </trkpt>
      <trkpt lat="47.13315" lon="-1.5371">
        <ele>73</ele>
        <time>2021-05-29T09:45:36.000Z</time>
      </trkpt>
      <trkpt lat="47.13309" lon="-1.53695">
        <ele>71</ele>
        <time>2021-05-29T09:45:38.000Z</time>
      </trkpt>
      <trkpt lat="47.13303" lon="-1.53679">
        <ele>72</ele>
        <time>2021-05-29T09:45:40.000Z</time>
      </trkpt>
      <trkpt lat="47.13297" lon="-1.53662">
        <ele>72</ele>
        <time>2021-05-29T09:45:42.000Z</time>
      </trkpt>
      <trkpt lat="47.13291" lon="-1.53644">
        <ele>72</ele>
        <time>2021-05-29T09:45:44.000Z</time>
      </trkpt>
      <trkpt lat="47.13285" lon="-1.53626">
        <ele>73</ele>
        <time>2021-05-29T09:45:46.000Z</time>
      </trkpt>
      <trkpt lat="47.13279" lon="-1.53609">
        <ele>73</ele>
        <time>2021-05-29T09:45:48.000Z</time>
      </trkpt>
      <trkpt lat="47.13273" lon="-1.53591">
        <ele>73</ele>
        <time>2021-05-29T09:45:50.000Z</time>
      </trkpt>
      <trkpt lat="47.13267" lon="-1.53574">
        <ele>72</ele>
        <time>2021-05-29T09:45:52.000Z</time>
      </trkpt>
      <trkpt lat="47.13262" lon="-1.53557">
        <ele>72</ele>
        <time>2021-05-29T09:45:54.000Z</time>
      </trkpt>
      <trkpt lat="47.13256" lon="-1.5354">
        <ele>74</ele>
        <time>2021-05-29T09:45:56.000Z</time>
      </trkpt>
      <trkpt lat="47.1325" lon="-1.53523">
        <ele>75</ele>
        <time>2021-05-29T09:45:58.000Z</time>
      </trkpt>
      <trkpt lat="47.13244" lon="-1.53505">
        <ele>74</ele>
        <time>2021-05-29T09:46:00.000Z</time>
      </trkpt>
      <trkpt lat="47.13239" lon="-1.53489">
        <ele>74</ele>
        <time>2021-05-29T09:46:02.000Z</time>
      </trkpt>
      <trkpt lat="47.13233" lon="-1.53471">
        <ele>74</ele>
        <time>2021-05-29T09:46:04.000Z</time>
      </trkpt>
      <trkpt lat="47.13228" lon="-1.53454">
        <ele>74</ele>
        <time>2021-05-29T09:46:06.000Z</time>
      </trkpt>
      <trkpt lat="47.13221" lon="-1.53437">
        <ele>73</ele>
        <time>2021-05-29T09:46:08.000Z</time>
      </trkpt>
      <trkpt lat="47.13215" lon="-1.53419">
        <ele>72</ele>
        <time>2021-05-29T09:46:10.000Z</time>
      </trkpt>
      <trkpt lat="47.13209" lon="-1.53401">
        <ele>73</ele>
        <time>2021-05-29T09:46:12.000Z</time>
      </trkpt>
      <trkpt lat="47.13204" lon="-1.53384">
        <ele>74</ele>
        <time>2021-05-29T09:46:14.000Z</time>
      </trkpt>
      <trkpt lat="47.13199" lon="-1.53368">
        <ele>74</ele>
        <time>2021-05-29T09:46:16.000Z</time>
      </trkpt>
      <trkpt lat="47.13194" lon="-1.53352">
        <ele>74</ele>
        <time>2021-05-29T09:46:18.000Z</time>
      </trkpt>
      <trkpt lat="47.13189" lon="-1.53335">
        <ele>74</ele>
        <time>2021-05-29T09:46:20.000Z</time>
      </trkpt>
      <trkpt lat="47.13182" lon="-1.53311">
        <ele>74</ele>
        <time>2021-05-29T09:46:23.000Z</time>
      </trkpt>
      <trkpt lat="47.13177" lon="-1.53294">
        <ele>74</ele>
        <time>2021-05-29T09:46:25.000Z</time>
      </trkpt>
      <trkpt lat="47.13172" lon="-1.53278">
        <ele>74</ele>
        <time>2021-05-29T09:46:27.000Z</time>
      </trkpt>
      <trkpt lat="47.13168" lon="-1.53263">
        <ele>74</ele>
        <time>2021-05-29T09:46:29.000Z</time>
      </trkpt>
      <trkpt lat="47.13165" lon="-1.53249">
        <ele>73</ele>
        <time>2021-05-29T09:46:31.000Z</time>
      </trkpt>
      <trkpt lat="47.13161" lon="-1.53232">
        <ele>73</ele>
        <time>2021-05-29T09:46:34.000Z</time>
      </trkpt>
      <trkpt lat="47.13158" lon="-1.53218">
        <ele>74</ele>
        <time>2021-05-29T09:46:37.000Z</time>
      </trkpt>
      <trkpt lat="47.13171" lon="-1.53208">
        <ele>74</ele>
        <time>2021-05-29T09:46:40.000Z</time>
      </trkpt>
      <trkpt lat="47.1319" lon="-1.53201">
        <ele>73</ele>
        <time>2021-05-29T09:46:43.000Z</time>
      </trkpt>
      <trkpt lat="47.13202" lon="-1.53197">
        <ele>72</ele>
        <time>2021-05-29T09:46:45.000Z</time>
      </trkpt>
      <trkpt lat="47.13215" lon="-1.53193">
        <ele>73</ele>
        <time>2021-05-29T09:46:47.000Z</time>
      </trkpt>
      <trkpt lat="47.13227" lon="-1.53188">
        <ele>72</ele>
        <time>2021-05-29T09:46:49.000Z</time>
      </trkpt>
      <trkpt lat="47.1324" lon="-1.53185">
        <ele>71</ele>
        <time>2021-05-29T09:46:51.000Z</time>
      </trkpt>
      <trkpt lat="47.13251" lon="-1.53183">
        <ele>72</ele>
        <time>2021-05-29T09:46:53.000Z</time>
      </trkpt>
      <trkpt lat="47.13262" lon="-1.53177">
        <ele>71</ele>
        <time>2021-05-29T09:46:55.000Z</time>
      </trkpt>
      <trkpt lat="47.13279" lon="-1.53169">
        <ele>71</ele>
        <time>2021-05-29T09:46:58.000Z</time>
      </trkpt>
      <trkpt lat="47.1329" lon="-1.53164">
        <ele>71</ele>
        <time>2021-05-29T09:47:00.000Z</time>
      </trkpt>
      <trkpt lat="47.13301" lon="-1.5316">
        <ele>71</ele>
        <time>2021-05-29T09:47:02.000Z</time>
      </trkpt>
      <trkpt lat="47.13312" lon="-1.53154">
        <ele>72</ele>
        <time>2021-05-29T09:47:04.000Z</time>
      </trkpt>
      <trkpt lat="47.13328" lon="-1.53149">
        <ele>73</ele>
        <time>2021-05-29T09:47:07.000Z</time>
      </trkpt>
      <trkpt lat="47.13339" lon="-1.53144">
        <ele>74</ele>
        <time>2021-05-29T09:47:09.000Z</time>
      </trkpt>
      <trkpt lat="47.13357" lon="-1.53141">
        <ele>75</ele>
        <time>2021-05-29T09:47:12.000Z</time>
      </trkpt>
      <trkpt lat="47.1337" lon="-1.53139">
        <ele>74</ele>
        <time>2021-05-29T09:47:14.000Z</time>
      </trkpt>
      <trkpt lat="47.13381" lon="-1.53136">
        <ele>74</ele>
        <time>2021-05-29T09:47:16.000Z</time>
      </trkpt>
      <trkpt lat="47.1339" lon="-1.53135">
        <ele>76</ele>
        <time>2021-05-29T09:47:18.000Z</time>
      </trkpt>
      <trkpt lat="47.13401" lon="-1.53136">
        <ele>77</ele>
        <time>2021-05-29T09:47:20.000Z</time>
      </trkpt>
      <trkpt lat="47.13412" lon="-1.53137">
        <ele>76</ele>
        <time>2021-05-29T09:47:22.000Z</time>
      </trkpt>
      <trkpt lat="47.13422" lon="-1.53137">
        <ele>76</ele>
        <time>2021-05-29T09:47:24.000Z</time>
      </trkpt>
      <trkpt lat="47.13431" lon="-1.53131">
        <ele>76</ele>
        <time>2021-05-29T09:47:26.000Z</time>
      </trkpt>
      <trkpt lat="47.13438" lon="-1.53117">
        <ele>76</ele>
        <time>2021-05-29T09:47:28.000Z</time>
      </trkpt>
      <trkpt lat="47.13443" lon="-1.53105">
        <ele>76</ele>
        <time>2021-05-29T09:47:30.000Z</time>
      </trkpt>
      <trkpt lat="47.1345" lon="-1.5309">
        <ele>76</ele>
        <time>2021-05-29T09:47:32.000Z</time>
      </trkpt>
      <trkpt lat="47.13456" lon="-1.53074">
        <ele>76</ele>
        <time>2021-05-29T09:47:34.000Z</time>
      </trkpt>
      <trkpt lat="47.13462" lon="-1.53059">
        <ele>77</ele>
        <time>2021-05-29T09:47:36.000Z</time>
      </trkpt>
      <trkpt lat="47.13471" lon="-1.53038">
        <ele>77</ele>
        <time>2021-05-29T09:47:39.000Z</time>
      </trkpt>
      <trkpt lat="47.13478" lon="-1.53026">
        <ele>77</ele>
        <time>2021-05-29T09:47:41.000Z</time>
      </trkpt>
      <trkpt lat="47.13484" lon="-1.53012">
        <ele>77</ele>
        <time>2021-05-29T09:47:43.000Z</time>
      </trkpt>
      <trkpt lat="47.1349" lon="-1.53">
        <ele>76</ele>
        <time>2021-05-29T09:47:45.000Z</time>
      </trkpt>
      <trkpt lat="47.13498" lon="-1.52989">
        <ele>75</ele>
        <time>2021-05-29T09:47:47.000Z</time>
      </trkpt>
      <trkpt lat="47.13504" lon="-1.52974">
        <ele>76</ele>
        <time>2021-05-29T09:47:49.000Z</time>
      </trkpt>
      <trkpt lat="47.1351" lon="-1.52961">
        <ele>75</ele>
        <time>2021-05-29T09:47:51.000Z</time>
      </trkpt>
      <trkpt lat="47.13517" lon="-1.52947">
        <ele>75</ele>
        <time>2021-05-29T09:47:53.000Z</time>
      </trkpt>
      <trkpt lat="47.13529" lon="-1.52918">
        <ele>74</ele>
        <time>2021-05-29T09:47:57.000Z</time>
      </trkpt>
      <trkpt lat="47.13537" lon="-1.52895">
        <ele>77</ele>
        <time>2021-05-29T09:48:00.000Z</time>
      </trkpt>
      <trkpt lat="47.13547" lon="-1.52876">
        <ele>78</ele>
        <time>2021-05-29T09:48:03.000Z</time>
      </trkpt>
      <trkpt lat="47.13554" lon="-1.52862">
        <ele>77</ele>
        <time>2021-05-29T09:48:05.000Z</time>
      </trkpt>
      <trkpt lat="47.13563" lon="-1.52839">
        <ele>78</ele>
        <time>2021-05-29T09:48:08.000Z</time>
      </trkpt>
      <trkpt lat="47.1357" lon="-1.52824">
        <ele>77</ele>
        <time>2021-05-29T09:48:10.000Z</time>
      </trkpt>
      <trkpt lat="47.13577" lon="-1.5281">
        <ele>78</ele>
        <time>2021-05-29T09:48:12.000Z</time>
      </trkpt>
      <trkpt lat="47.13587" lon="-1.52788">
        <ele>77</ele>
        <time>2021-05-29T09:48:15.000Z</time>
      </trkpt>
      <trkpt lat="47.13593" lon="-1.52775">
        <ele>78</ele>
        <time>2021-05-29T09:48:17.000Z</time>
      </trkpt>
      <trkpt lat="47.136" lon="-1.52761">
        <ele>78</ele>
        <time>2021-05-29T09:48:19.000Z</time>
      </trkpt>
      <trkpt lat="47.13607" lon="-1.52748">
        <ele>78</ele>
        <time>2021-05-29T09:48:21.000Z</time>
      </trkpt>
      <trkpt lat="47.13615" lon="-1.52735">
        <ele>79</ele>
        <time>2021-05-29T09:48:23.000Z</time>
      </trkpt>
      <trkpt lat="47.13622" lon="-1.52723">
        <ele>79</ele>
        <time>2021-05-29T09:48:25.000Z</time>
      </trkpt>
      <trkpt lat="47.1363" lon="-1.5271">
        <ele>79</ele>
        <time>2021-05-29T09:48:27.000Z</time>
      </trkpt>
      <trkpt lat="47.13637" lon="-1.52698">
        <ele>80</ele>
        <time>2021-05-29T09:48:29.000Z</time>
      </trkpt>
      <trkpt lat="47.13648" lon="-1.5268">
        <ele>79</ele>
        <time>2021-05-29T09:48:32.000Z</time>
      </trkpt>
      <trkpt lat="47.13655" lon="-1.52666">
        <ele>80</ele>
        <time>2021-05-29T09:48:34.000Z</time>
      </trkpt>
      <trkpt lat="47.13667" lon="-1.52645">
        <ele>80</ele>
        <time>2021-05-29T09:48:37.000Z</time>
      </trkpt>
      <trkpt lat="47.13675" lon="-1.52633">
        <ele>80</ele>
        <time>2021-05-29T09:48:39.000Z</time>
      </trkpt>
      <trkpt lat="47.13683" lon="-1.52622">
        <ele>81</ele>
        <time>2021-05-29T09:48:41.000Z</time>
      </trkpt>
      <trkpt lat="47.13691" lon="-1.52609">
        <ele>79</ele>
        <time>2021-05-29T09:48:43.000Z</time>
      </trkpt>
      <trkpt lat="47.13697" lon="-1.52596">
        <ele>79</ele>
        <time>2021-05-29T09:48:45.000Z</time>
      </trkpt>
      <trkpt lat="47.13705" lon="-1.52585">
        <ele>81</ele>
        <time>2021-05-29T09:48:47.000Z</time>
      </trkpt>
      <trkpt lat="47.13714" lon="-1.52571">
        <ele>82</ele>
        <time>2021-05-29T09:48:49.000Z</time>
      </trkpt>
      <trkpt lat="47.13721" lon="-1.52556">
        <ele>83</ele>
        <time>2021-05-29T09:48:51.000Z</time>
      </trkpt>
      <trkpt lat="47.13729" lon="-1.52544">
        <ele>82</ele>
        <time>2021-05-29T09:48:53.000Z</time>
      </trkpt>
      <trkpt lat="47.13737" lon="-1.52531">
        <ele>83</ele>
        <time>2021-05-29T09:48:55.000Z</time>
      </trkpt>
      <trkpt lat="47.13745" lon="-1.52519">
        <ele>83</ele>
        <time>2021-05-29T09:48:57.000Z</time>
      </trkpt>
      <trkpt lat="47.13752" lon="-1.52507">
        <ele>84</ele>
        <time>2021-05-29T09:48:59.000Z</time>
      </trkpt>
      <trkpt lat="47.1376" lon="-1.52494">
        <ele>85</ele>
        <time>2021-05-29T09:49:01.000Z</time>
      </trkpt>
      <trkpt lat="47.13769" lon="-1.52482">
        <ele>84</ele>
        <time>2021-05-29T09:49:03.000Z</time>
      </trkpt>
      <trkpt lat="47.13778" lon="-1.52469">
        <ele>84</ele>
        <time>2021-05-29T09:49:05.000Z</time>
      </trkpt>
      <trkpt lat="47.13791" lon="-1.52451">
        <ele>83</ele>
        <time>2021-05-29T09:49:08.000Z</time>
      </trkpt>
      <trkpt lat="47.13799" lon="-1.52437">
        <ele>82</ele>
        <time>2021-05-29T09:49:10.000Z</time>
      </trkpt>
      <trkpt lat="47.13812" lon="-1.52417">
        <ele>80</ele>
        <time>2021-05-29T09:49:13.000Z</time>
      </trkpt>
      <trkpt lat="47.13826" lon="-1.52396">
        <ele>81</ele>
        <time>2021-05-29T09:49:16.000Z</time>
      </trkpt>
      <trkpt lat="47.13833" lon="-1.52384">
        <ele>84</ele>
        <time>2021-05-29T09:49:18.000Z</time>
      </trkpt>
      <trkpt lat="47.13841" lon="-1.52371">
        <ele>83</ele>
        <time>2021-05-29T09:49:20.000Z</time>
      </trkpt>
      <trkpt lat="47.13847" lon="-1.52357">
        <ele>83</ele>
        <time>2021-05-29T09:49:22.000Z</time>
      </trkpt>
      <trkpt lat="47.13854" lon="-1.52343">
        <ele>84</ele>
        <time>2021-05-29T09:49:24.000Z</time>
      </trkpt>
      <trkpt lat="47.13863" lon="-1.52321">
        <ele>83</ele>
        <time>2021-05-29T09:49:27.000Z</time>
      </trkpt>
      <trkpt lat="47.1387" lon="-1.52308">
        <ele>82</ele>
        <time>2021-05-29T09:49:29.000Z</time>
      </trkpt>
      <trkpt lat="47.13882" lon="-1.52301">
        <ele>82</ele>
        <time>2021-05-29T09:49:31.000Z</time>
      </trkpt>
      <trkpt lat="47.13893" lon="-1.52292">
        <ele>83</ele>
        <time>2021-05-29T09:49:33.000Z</time>
      </trkpt>
      <trkpt lat="47.13903" lon="-1.52281">
        <ele>83</ele>
        <time>2021-05-29T09:49:35.000Z</time>
      </trkpt>
      <trkpt lat="47.13915" lon="-1.52262">
        <ele>83</ele>
        <time>2021-05-29T09:49:38.000Z</time>
      </trkpt>
      <trkpt lat="47.13924" lon="-1.5225">
        <ele>83</ele>
        <time>2021-05-29T09:49:40.000Z</time>
      </trkpt>
      <trkpt lat="47.13932" lon="-1.52238">
        <ele>84</ele>
        <time>2021-05-29T09:49:42.000Z</time>
      </trkpt>
      <trkpt lat="47.13941" lon="-1.52227">
        <ele>84</ele>
        <time>2021-05-29T09:49:44.000Z</time>
      </trkpt>
      <trkpt lat="47.13949" lon="-1.52216">
        <ele>82</ele>
        <time>2021-05-29T09:49:46.000Z</time>
      </trkpt>
      <trkpt lat="47.13956" lon="-1.52207">
        <ele>82</ele>
        <time>2021-05-29T09:49:48.000Z</time>
      </trkpt>
      <trkpt lat="47.13966" lon="-1.52193">
        <ele>82</ele>
        <time>2021-05-29T09:49:50.000Z</time>
      </trkpt>
      <trkpt lat="47.13974" lon="-1.52181">
        <ele>82</ele>
        <time>2021-05-29T09:49:52.000Z</time>
      </trkpt>
      <trkpt lat="47.13984" lon="-1.5217">
        <ele>80</ele>
        <time>2021-05-29T09:49:54.000Z</time>
      </trkpt>
      <trkpt lat="47.13998" lon="-1.52154">
        <ele>81</ele>
        <time>2021-05-29T09:49:57.000Z</time>
      </trkpt>
      <trkpt lat="47.14008" lon="-1.52145">
        <ele>81</ele>
        <time>2021-05-29T09:49:59.000Z</time>
      </trkpt>
      <trkpt lat="47.14016" lon="-1.52136">
        <ele>80</ele>
        <time>2021-05-29T09:50:01.000Z</time>
      </trkpt>
      <trkpt lat="47.14024" lon="-1.52126">
        <ele>81</ele>
        <time>2021-05-29T09:50:03.000Z</time>
      </trkpt>
      <trkpt lat="47.14029" lon="-1.52111">
        <ele>82</ele>
        <time>2021-05-29T09:50:06.000Z</time>
      </trkpt>
      <trkpt lat="47.14033" lon="-1.521">
        <ele>82</ele>
        <time>2021-05-29T09:50:13.000Z</time>
      </trkpt>
      <trkpt lat="47.14045" lon="-1.52093">
        <ele>82</ele>
        <time>2021-05-29T09:50:16.000Z</time>
      </trkpt>
      <trkpt lat="47.14056" lon="-1.52085">
        <ele>82</ele>
        <time>2021-05-29T09:50:18.000Z</time>
      </trkpt>
      <trkpt lat="47.14066" lon="-1.52073">
        <ele>83</ele>
        <time>2021-05-29T09:50:20.000Z</time>
      </trkpt>
      <trkpt lat="47.14077" lon="-1.52062">
        <ele>82</ele>
        <time>2021-05-29T09:50:22.000Z</time>
      </trkpt>
      <trkpt lat="47.14087" lon="-1.52052">
        <ele>82</ele>
        <time>2021-05-29T09:50:24.000Z</time>
      </trkpt>
      <trkpt lat="47.14098" lon="-1.52042">
        <ele>81</ele>
        <time>2021-05-29T09:50:26.000Z</time>
      </trkpt>
      <trkpt lat="47.14108" lon="-1.52033">
        <ele>81</ele>
        <time>2021-05-29T09:50:28.000Z</time>
      </trkpt>
      <trkpt lat="47.14119" lon="-1.52025">
        <ele>80</ele>
        <time>2021-05-29T09:50:30.000Z</time>
      </trkpt>
      <trkpt lat="47.14129" lon="-1.52015">
        <ele>80</ele>
        <time>2021-05-29T09:50:32.000Z</time>
      </trkpt>
      <trkpt lat="47.1414" lon="-1.52005">
        <ele>80</ele>
        <time>2021-05-29T09:50:34.000Z</time>
      </trkpt>
      <trkpt lat="47.14151" lon="-1.51995">
        <ele>80</ele>
        <time>2021-05-29T09:50:36.000Z</time>
      </trkpt>
      <trkpt lat="47.14166" lon="-1.51978">
        <ele>82</ele>
        <time>2021-05-29T09:50:39.000Z</time>
      </trkpt>
      <trkpt lat="47.14177" lon="-1.51968">
        <ele>82</ele>
        <time>2021-05-29T09:50:41.000Z</time>
      </trkpt>
      <trkpt lat="47.14187" lon="-1.51957">
        <ele>82</ele>
        <time>2021-05-29T09:50:43.000Z</time>
      </trkpt>
      <trkpt lat="47.14199" lon="-1.51948">
        <ele>82</ele>
        <time>2021-05-29T09:50:45.000Z</time>
      </trkpt>
      <trkpt lat="47.1421" lon="-1.51936">
        <ele>81</ele>
        <time>2021-05-29T09:50:47.000Z</time>
      </trkpt>
      <trkpt lat="47.14222" lon="-1.51925">
        <ele>82</ele>
        <time>2021-05-29T09:50:49.000Z</time>
      </trkpt>
      <trkpt lat="47.14232" lon="-1.51914">
        <ele>82</ele>
        <time>2021-05-29T09:50:51.000Z</time>
      </trkpt>
      <trkpt lat="47.14243" lon="-1.51902">
        <ele>82</ele>
        <time>2021-05-29T09:50:53.000Z</time>
      </trkpt>
      <trkpt lat="47.14255" lon="-1.51891">
        <ele>82</ele>
        <time>2021-05-29T09:50:55.000Z</time>
      </trkpt>
      <trkpt lat="47.14266" lon="-1.51879">
        <ele>80</ele>
        <time>2021-05-29T09:50:57.000Z</time>
      </trkpt>
      <trkpt lat="47.14279" lon="-1.5187">
        <ele>80</ele>
        <time>2021-05-29T09:50:59.000Z</time>
      </trkpt>
      <trkpt lat="47.1429" lon="-1.51857">
        <ele>81</ele>
        <time>2021-05-29T09:51:01.000Z</time>
      </trkpt>
      <trkpt lat="47.14301" lon="-1.51847">
        <ele>81</ele>
        <time>2021-05-29T09:51:03.000Z</time>
      </trkpt>
      <trkpt lat="47.14311" lon="-1.51835">
        <ele>81</ele>
        <time>2021-05-29T09:51:05.000Z</time>
      </trkpt>
      <trkpt lat="47.14321" lon="-1.51824">
        <ele>81</ele>
        <time>2021-05-29T09:51:07.000Z</time>
      </trkpt>
      <trkpt lat="47.14331" lon="-1.51812">
        <ele>81</ele>
        <time>2021-05-29T09:51:09.000Z</time>
      </trkpt>
      <trkpt lat="47.14342" lon="-1.51801">
        <ele>82</ele>
        <time>2021-05-29T09:51:11.000Z</time>
      </trkpt>
      <trkpt lat="47.14353" lon="-1.5179">
        <ele>81</ele>
        <time>2021-05-29T09:51:13.000Z</time>
      </trkpt>
      <trkpt lat="47.14363" lon="-1.51779">
        <ele>82</ele>
        <time>2021-05-29T09:51:15.000Z</time>
      </trkpt>
      <trkpt lat="47.14374" lon="-1.51768">
        <ele>82</ele>
        <time>2021-05-29T09:51:17.000Z</time>
      </trkpt>
      <trkpt lat="47.14386" lon="-1.51756">
        <ele>82</ele>
        <time>2021-05-29T09:51:19.000Z</time>
      </trkpt>
      <trkpt lat="47.14397" lon="-1.51747">
        <ele>82</ele>
        <time>2021-05-29T09:51:21.000Z</time>
      </trkpt>
      <trkpt lat="47.1441" lon="-1.51737">
        <ele>82</ele>
        <time>2021-05-29T09:51:23.000Z</time>
      </trkpt>
      <trkpt lat="47.1442" lon="-1.51726">
        <ele>82</ele>
        <time>2021-05-29T09:51:25.000Z</time>
      </trkpt>
      <trkpt lat="47.14436" lon="-1.51707">
        <ele>81</ele>
        <time>2021-05-29T09:51:28.000Z</time>
      </trkpt>
      <trkpt lat="47.14446" lon="-1.51696">
        <ele>82</ele>
        <time>2021-05-29T09:51:30.000Z</time>
      </trkpt>
      <trkpt lat="47.14462" lon="-1.51679">
        <ele>81</ele>
        <time>2021-05-29T09:51:33.000Z</time>
      </trkpt>
      <trkpt lat="47.14472" lon="-1.51667">
        <ele>81</ele>
        <time>2021-05-29T09:51:35.000Z</time>
      </trkpt>
      <trkpt lat="47.14483" lon="-1.51656">
        <ele>81</ele>
        <time>2021-05-29T09:51:37.000Z</time>
      </trkpt>
      <trkpt lat="47.14494" lon="-1.51645">
        <ele>81</ele>
        <time>2021-05-29T09:51:39.000Z</time>
      </trkpt>
      <trkpt lat="47.14511" lon="-1.51628">
        <ele>80</ele>
        <time>2021-05-29T09:51:42.000Z</time>
      </trkpt>
      <trkpt lat="47.14522" lon="-1.51615">
        <ele>81</ele>
        <time>2021-05-29T09:51:44.000Z</time>
      </trkpt>
      <trkpt lat="47.14529" lon="-1.51601">
        <ele>79</ele>
        <time>2021-05-29T09:51:46.000Z</time>
      </trkpt>
      <trkpt lat="47.1454" lon="-1.51587">
        <ele>79</ele>
        <time>2021-05-29T09:51:48.000Z</time>
      </trkpt>
      <trkpt lat="47.14557" lon="-1.51571">
        <ele>79</ele>
        <time>2021-05-29T09:51:51.000Z</time>
      </trkpt>
      <trkpt lat="47.14566" lon="-1.51558">
        <ele>79</ele>
        <time>2021-05-29T09:51:53.000Z</time>
      </trkpt>
      <trkpt lat="47.14575" lon="-1.51546">
        <ele>78</ele>
        <time>2021-05-29T09:51:55.000Z</time>
      </trkpt>
      <trkpt lat="47.14584" lon="-1.51534">
        <ele>78</ele>
        <time>2021-05-29T09:51:57.000Z</time>
      </trkpt>
      <trkpt lat="47.14596" lon="-1.51509">
        <ele>77</ele>
        <time>2021-05-29T09:52:00.000Z</time>
      </trkpt>
      <trkpt lat="47.14602" lon="-1.51495">
        <ele>78</ele>
        <time>2021-05-29T09:52:02.000Z</time>
      </trkpt>
      <trkpt lat="47.14609" lon="-1.51479">
        <ele>78</ele>
        <time>2021-05-29T09:52:04.000Z</time>
      </trkpt>
      <trkpt lat="47.14617" lon="-1.51464">
        <ele>79</ele>
        <time>2021-05-29T09:52:06.000Z</time>
      </trkpt>
      <trkpt lat="47.14624" lon="-1.51448">
        <ele>79</ele>
        <time>2021-05-29T09:52:08.000Z</time>
      </trkpt>
      <trkpt lat="47.14632" lon="-1.51433">
        <ele>80</ele>
        <time>2021-05-29T09:52:10.000Z</time>
      </trkpt>
      <trkpt lat="47.14639" lon="-1.51417">
        <ele>79</ele>
        <time>2021-05-29T09:52:12.000Z</time>
      </trkpt>
      <trkpt lat="47.14647" lon="-1.51403">
        <ele>80</ele>
        <time>2021-05-29T09:52:14.000Z</time>
      </trkpt>
      <trkpt lat="47.14655" lon="-1.51386">
        <ele>79</ele>
        <time>2021-05-29T09:52:16.000Z</time>
      </trkpt>
      <trkpt lat="47.14663" lon="-1.51369">
        <ele>79</ele>
        <time>2021-05-29T09:52:18.000Z</time>
      </trkpt>
      <trkpt lat="47.14672" lon="-1.51352">
        <ele>78</ele>
        <time>2021-05-29T09:52:20.000Z</time>
      </trkpt>
      <trkpt lat="47.14681" lon="-1.51335">
        <ele>77</ele>
        <time>2021-05-29T09:52:22.000Z</time>
      </trkpt>
      <trkpt lat="47.14689" lon="-1.51318">
        <ele>77</ele>
        <time>2021-05-29T09:52:24.000Z</time>
      </trkpt>
      <trkpt lat="47.14697" lon="-1.51301">
        <ele>77</ele>
        <time>2021-05-29T09:52:26.000Z</time>
      </trkpt>
      <trkpt lat="47.14706" lon="-1.51284">
        <ele>77</ele>
        <time>2021-05-29T09:52:28.000Z</time>
      </trkpt>
      <trkpt lat="47.14715" lon="-1.51268">
        <ele>77</ele>
        <time>2021-05-29T09:52:30.000Z</time>
      </trkpt>
      <trkpt lat="47.14724" lon="-1.51251">
        <ele>77</ele>
        <time>2021-05-29T09:52:32.000Z</time>
      </trkpt>
      <trkpt lat="47.14732" lon="-1.51233">
        <ele>76</ele>
        <time>2021-05-29T09:52:34.000Z</time>
      </trkpt>
      <trkpt lat="47.14746" lon="-1.51206">
        <ele>76</ele>
        <time>2021-05-29T09:52:37.000Z</time>
      </trkpt>
      <trkpt lat="47.14755" lon="-1.51188">
        <ele>76</ele>
        <time>2021-05-29T09:52:39.000Z</time>
      </trkpt>
      <trkpt lat="47.14761" lon="-1.51177">
        <ele>75</ele>
        <time>2021-05-29T09:52:40.000Z</time>
      </trkpt>
      <trkpt lat="47.14766" lon="-1.51166">
        <ele>74</ele>
        <time>2021-05-29T09:52:41.000Z</time>
      </trkpt>
      <trkpt lat="47.14773" lon="-1.51152">
        <ele>71</ele>
        <time>2021-05-29T09:52:43.000Z</time>
      </trkpt>
      <trkpt lat="47.14784" lon="-1.51132">
        <ele>72</ele>
        <time>2021-05-29T09:52:45.000Z</time>
      </trkpt>
      <trkpt lat="47.14794" lon="-1.51114">
        <ele>72</ele>
        <time>2021-05-29T09:52:47.000Z</time>
      </trkpt>
      <trkpt lat="47.14804" lon="-1.51097">
        <ele>72</ele>
        <time>2021-05-29T09:52:49.000Z</time>
      </trkpt>
      <trkpt lat="47.14814" lon="-1.51081">
        <ele>73</ele>
        <time>2021-05-29T09:52:51.000Z</time>
      </trkpt>
      <trkpt lat="47.14825" lon="-1.51062">
        <ele>72</ele>
        <time>2021-05-29T09:52:53.000Z</time>
      </trkpt>
      <trkpt lat="47.14835" lon="-1.51044">
        <ele>72</ele>
        <time>2021-05-29T09:52:55.000Z</time>
      </trkpt>
      <trkpt lat="47.14846" lon="-1.51026">
        <ele>72</ele>
        <time>2021-05-29T09:52:57.000Z</time>
      </trkpt>
      <trkpt lat="47.14856" lon="-1.51009">
        <ele>72</ele>
        <time>2021-05-29T09:52:59.000Z</time>
      </trkpt>
      <trkpt lat="47.14866" lon="-1.50991">
        <ele>72</ele>
        <time>2021-05-29T09:53:01.000Z</time>
      </trkpt>
      <trkpt lat="47.14876" lon="-1.50975">
        <ele>72</ele>
        <time>2021-05-29T09:53:03.000Z</time>
      </trkpt>
      <trkpt lat="47.14894" lon="-1.5095">
        <ele>71</ele>
        <time>2021-05-29T09:53:06.000Z</time>
      </trkpt>
      <trkpt lat="47.14904" lon="-1.50933">
        <ele>72</ele>
        <time>2021-05-29T09:53:08.000Z</time>
      </trkpt>
      <trkpt lat="47.14915" lon="-1.50918">
        <ele>72</ele>
        <time>2021-05-29T09:53:10.000Z</time>
      </trkpt>
      <trkpt lat="47.14925" lon="-1.50901">
        <ele>72</ele>
        <time>2021-05-29T09:53:12.000Z</time>
      </trkpt>
      <trkpt lat="47.14937" lon="-1.50886">
        <ele>71</ele>
        <time>2021-05-29T09:53:14.000Z</time>
      </trkpt>
      <trkpt lat="47.14946" lon="-1.50869">
        <ele>71</ele>
        <time>2021-05-29T09:53:16.000Z</time>
      </trkpt>
      <trkpt lat="47.14958" lon="-1.50854">
        <ele>71</ele>
        <time>2021-05-29T09:53:18.000Z</time>
      </trkpt>
      <trkpt lat="47.14969" lon="-1.50839">
        <ele>71</ele>
        <time>2021-05-29T09:53:20.000Z</time>
      </trkpt>
      <trkpt lat="47.1498" lon="-1.50823">
        <ele>71</ele>
        <time>2021-05-29T09:53:22.000Z</time>
      </trkpt>
      <trkpt lat="47.14994" lon="-1.50808">
        <ele>70</ele>
        <time>2021-05-29T09:53:24.000Z</time>
      </trkpt>
      <trkpt lat="47.15005" lon="-1.50792">
        <ele>69</ele>
        <time>2021-05-29T09:53:26.000Z</time>
      </trkpt>
      <trkpt lat="47.15015" lon="-1.50779">
        <ele>69</ele>
        <time>2021-05-29T09:53:28.000Z</time>
      </trkpt>
      <trkpt lat="47.15026" lon="-1.50765">
        <ele>68</ele>
        <time>2021-05-29T09:53:30.000Z</time>
      </trkpt>
      <trkpt lat="47.15037" lon="-1.50751">
        <ele>68</ele>
        <time>2021-05-29T09:53:32.000Z</time>
      </trkpt>
      <trkpt lat="47.15047" lon="-1.50737">
        <ele>68</ele>
        <time>2021-05-29T09:53:34.000Z</time>
      </trkpt>
      <trkpt lat="47.15059" lon="-1.50723">
        <ele>68</ele>
        <time>2021-05-29T09:53:36.000Z</time>
      </trkpt>
      <trkpt lat="47.15068" lon="-1.50712">
        <ele>68</ele>
        <time>2021-05-29T09:53:38.000Z</time>
      </trkpt>
      <trkpt lat="47.15081" lon="-1.50695">
        <ele>68</ele>
        <time>2021-05-29T09:53:40.000Z</time>
      </trkpt>
      <trkpt lat="47.15093" lon="-1.50681">
        <ele>68</ele>
        <time>2021-05-29T09:53:42.000Z</time>
      </trkpt>
      <trkpt lat="47.15106" lon="-1.50667">
        <ele>68</ele>
        <time>2021-05-29T09:53:44.000Z</time>
      </trkpt>
      <trkpt lat="47.15118" lon="-1.50653">
        <ele>68</ele>
        <time>2021-05-29T09:53:46.000Z</time>
      </trkpt>
      <trkpt lat="47.15129" lon="-1.5064">
        <ele>68</ele>
        <time>2021-05-29T09:53:48.000Z</time>
      </trkpt>
      <trkpt lat="47.1514" lon="-1.50627">
        <ele>68</ele>
        <time>2021-05-29T09:53:50.000Z</time>
      </trkpt>
      <trkpt lat="47.15156" lon="-1.50609">
        <ele>67</ele>
        <time>2021-05-29T09:53:53.000Z</time>
      </trkpt>
      <trkpt lat="47.15165" lon="-1.50596">
        <ele>68</ele>
        <time>2021-05-29T09:53:55.000Z</time>
      </trkpt>
      <trkpt lat="47.15175" lon="-1.50583">
        <ele>69</ele>
        <time>2021-05-29T09:53:57.000Z</time>
      </trkpt>
      <trkpt lat="47.15186" lon="-1.50572">
        <ele>70</ele>
        <time>2021-05-29T09:53:59.000Z</time>
      </trkpt>
      <trkpt lat="47.152" lon="-1.50556">
        <ele>71</ele>
        <time>2021-05-29T09:54:02.000Z</time>
      </trkpt>
      <trkpt lat="47.1521" lon="-1.50545">
        <ele>72</ele>
        <time>2021-05-29T09:54:04.000Z</time>
      </trkpt>
      <trkpt lat="47.1522" lon="-1.50534">
        <ele>72</ele>
        <time>2021-05-29T09:54:06.000Z</time>
      </trkpt>
      <trkpt lat="47.1523" lon="-1.50522">
        <ele>72</ele>
        <time>2021-05-29T09:54:08.000Z</time>
      </trkpt>
      <trkpt lat="47.1524" lon="-1.50511">
        <ele>72</ele>
        <time>2021-05-29T09:54:10.000Z</time>
      </trkpt>
      <trkpt lat="47.1525" lon="-1.505">
        <ele>72</ele>
        <time>2021-05-29T09:54:12.000Z</time>
      </trkpt>
      <trkpt lat="47.1526" lon="-1.50489">
        <ele>71</ele>
        <time>2021-05-29T09:54:14.000Z</time>
      </trkpt>
      <trkpt lat="47.1527" lon="-1.50477">
        <ele>71</ele>
        <time>2021-05-29T09:54:16.000Z</time>
      </trkpt>
      <trkpt lat="47.1528" lon="-1.50466">
        <ele>71</ele>
        <time>2021-05-29T09:54:18.000Z</time>
      </trkpt>
      <trkpt lat="47.1529" lon="-1.50454">
        <ele>72</ele>
        <time>2021-05-29T09:54:20.000Z</time>
      </trkpt>
      <trkpt lat="47.15299" lon="-1.50443">
        <ele>72</ele>
        <time>2021-05-29T09:54:22.000Z</time>
      </trkpt>
      <trkpt lat="47.15309" lon="-1.50431">
        <ele>72</ele>
        <time>2021-05-29T09:54:24.000Z</time>
      </trkpt>
      <trkpt lat="47.15319" lon="-1.50419">
        <ele>72</ele>
        <time>2021-05-29T09:54:26.000Z</time>
      </trkpt>
      <trkpt lat="47.15329" lon="-1.50408">
        <ele>72</ele>
        <time>2021-05-29T09:54:28.000Z</time>
      </trkpt>
      <trkpt lat="47.15339" lon="-1.50396">
        <ele>72</ele>
        <time>2021-05-29T09:54:30.000Z</time>
      </trkpt>
      <trkpt lat="47.15349" lon="-1.50384">
        <ele>72</ele>
        <time>2021-05-29T09:54:32.000Z</time>
      </trkpt>
      <trkpt lat="47.15364" lon="-1.50364">
        <ele>73</ele>
        <time>2021-05-29T09:54:35.000Z</time>
      </trkpt>
      <trkpt lat="47.15373" lon="-1.50352">
        <ele>73</ele>
        <time>2021-05-29T09:54:37.000Z</time>
      </trkpt>
      <trkpt lat="47.15384" lon="-1.50343">
        <ele>74</ele>
        <time>2021-05-29T09:54:39.000Z</time>
      </trkpt>
      <trkpt lat="47.15394" lon="-1.5033">
        <ele>73</ele>
        <time>2021-05-29T09:54:41.000Z</time>
      </trkpt>
      <trkpt lat="47.15404" lon="-1.50317">
        <ele>73</ele>
        <time>2021-05-29T09:54:43.000Z</time>
      </trkpt>
      <trkpt lat="47.15416" lon="-1.50307">
        <ele>74</ele>
        <time>2021-05-29T09:54:45.000Z</time>
      </trkpt>
      <trkpt lat="47.15438" lon="-1.50295">
        <ele>75</ele>
        <time>2021-05-29T09:54:48.000Z</time>
      </trkpt>
      <trkpt lat="47.15451" lon="-1.50289">
        <ele>74</ele>
        <time>2021-05-29T09:54:50.000Z</time>
      </trkpt>
      <trkpt lat="47.15464" lon="-1.5028">
        <ele>73</ele>
        <time>2021-05-29T09:54:52.000Z</time>
      </trkpt>
      <trkpt lat="47.15478" lon="-1.50274">
        <ele>73</ele>
        <time>2021-05-29T09:54:54.000Z</time>
      </trkpt>
      <trkpt lat="47.15492" lon="-1.50269">
        <ele>73</ele>
        <time>2021-05-29T09:54:56.000Z</time>
      </trkpt>
      <trkpt lat="47.15506" lon="-1.50264">
        <ele>73</ele>
        <time>2021-05-29T09:54:58.000Z</time>
      </trkpt>
      <trkpt lat="47.1552" lon="-1.5026">
        <ele>74</ele>
        <time>2021-05-29T09:55:00.000Z</time>
      </trkpt>
      <trkpt lat="47.15533" lon="-1.50254">
        <ele>75</ele>
        <time>2021-05-29T09:55:02.000Z</time>
      </trkpt>
      <trkpt lat="47.15546" lon="-1.50245">
        <ele>73</ele>
        <time>2021-05-29T09:55:04.000Z</time>
      </trkpt>
      <trkpt lat="47.15564" lon="-1.5023">
        <ele>72</ele>
        <time>2021-05-29T09:55:07.000Z</time>
      </trkpt>
      <trkpt lat="47.15576" lon="-1.50219">
        <ele>73</ele>
        <time>2021-05-29T09:55:09.000Z</time>
      </trkpt>
      <trkpt lat="47.15587" lon="-1.50207">
        <ele>72</ele>
        <time>2021-05-29T09:55:11.000Z</time>
      </trkpt>
      <trkpt lat="47.15598" lon="-1.50195">
        <ele>73</ele>
        <time>2021-05-29T09:55:13.000Z</time>
      </trkpt>
      <trkpt lat="47.1561" lon="-1.50184">
        <ele>73</ele>
        <time>2021-05-29T09:55:15.000Z</time>
      </trkpt>
      <trkpt lat="47.15622" lon="-1.50173">
        <ele>74</ele>
        <time>2021-05-29T09:55:17.000Z</time>
      </trkpt>
      <trkpt lat="47.15639" lon="-1.50157">
        <ele>74</ele>
        <time>2021-05-29T09:55:20.000Z</time>
      </trkpt>
      <trkpt lat="47.15649" lon="-1.50149">
        <ele>73</ele>
        <time>2021-05-29T09:55:22.000Z</time>
      </trkpt>
      <trkpt lat="47.15659" lon="-1.50137">
        <ele>72</ele>
        <time>2021-05-29T09:55:24.000Z</time>
      </trkpt>
      <trkpt lat="47.15671" lon="-1.50123">
        <ele>73</ele>
        <time>2021-05-29T09:55:26.000Z</time>
      </trkpt>
      <trkpt lat="47.15681" lon="-1.50111">
        <ele>72</ele>
        <time>2021-05-29T09:55:28.000Z</time>
      </trkpt>
      <trkpt lat="47.15692" lon="-1.50097">
        <ele>71</ele>
        <time>2021-05-29T09:55:30.000Z</time>
      </trkpt>
      <trkpt lat="47.15701" lon="-1.50082">
        <ele>72</ele>
        <time>2021-05-29T09:55:32.000Z</time>
      </trkpt>
      <trkpt lat="47.1571" lon="-1.50069">
        <ele>71</ele>
        <time>2021-05-29T09:55:34.000Z</time>
      </trkpt>
      <trkpt lat="47.15718" lon="-1.50054">
        <ele>70</ele>
        <time>2021-05-29T09:55:36.000Z</time>
      </trkpt>
      <trkpt lat="47.15727" lon="-1.50038">
        <ele>70</ele>
        <time>2021-05-29T09:55:38.000Z</time>
      </trkpt>
      <trkpt lat="47.15735" lon="-1.50022">
        <ele>70</ele>
        <time>2021-05-29T09:55:40.000Z</time>
      </trkpt>
      <trkpt lat="47.15742" lon="-1.50006">
        <ele>70</ele>
        <time>2021-05-29T09:55:42.000Z</time>
      </trkpt>
      <trkpt lat="47.15754" lon="-1.49983">
        <ele>69</ele>
        <time>2021-05-29T09:55:45.000Z</time>
      </trkpt>
      <trkpt lat="47.1576" lon="-1.49969">
        <ele>67</ele>
        <time>2021-05-29T09:55:47.000Z</time>
      </trkpt>
      <trkpt lat="47.15767" lon="-1.49951">
        <ele>68</ele>
        <time>2021-05-29T09:55:49.000Z</time>
      </trkpt>
      <trkpt lat="47.15776" lon="-1.49935">
        <ele>68</ele>
        <time>2021-05-29T09:55:51.000Z</time>
      </trkpt>
      <trkpt lat="47.15784" lon="-1.49919">
        <ele>68</ele>
        <time>2021-05-29T09:55:53.000Z</time>
      </trkpt>
      <trkpt lat="47.15792" lon="-1.49905">
        <ele>68</ele>
        <time>2021-05-29T09:55:55.000Z</time>
      </trkpt>
      <trkpt lat="47.15801" lon="-1.4989">
        <ele>68</ele>
        <time>2021-05-29T09:55:57.000Z</time>
      </trkpt>
      <trkpt lat="47.1581" lon="-1.49874">
        <ele>68</ele>
        <time>2021-05-29T09:55:59.000Z</time>
      </trkpt>
      <trkpt lat="47.15817" lon="-1.49856">
        <ele>68</ele>
        <time>2021-05-29T09:56:01.000Z</time>
      </trkpt>
      <trkpt lat="47.15823" lon="-1.49837">
        <ele>68</ele>
        <time>2021-05-29T09:56:03.000Z</time>
      </trkpt>
      <trkpt lat="47.1583" lon="-1.49818">
        <ele>68</ele>
        <time>2021-05-29T09:56:05.000Z</time>
      </trkpt>
      <trkpt lat="47.15841" lon="-1.49804">
        <ele>68</ele>
        <time>2021-05-29T09:56:07.000Z</time>
      </trkpt>
      <trkpt lat="47.15851" lon="-1.4979">
        <ele>66</ele>
        <time>2021-05-29T09:56:09.000Z</time>
      </trkpt>
      <trkpt lat="47.1586" lon="-1.49776">
        <ele>65</ele>
        <time>2021-05-29T09:56:11.000Z</time>
      </trkpt>
      <trkpt lat="47.15874" lon="-1.49748">
        <ele>65</ele>
        <time>2021-05-29T09:56:14.000Z</time>
      </trkpt>
      <trkpt lat="47.15884" lon="-1.4973">
        <ele>65</ele>
        <time>2021-05-29T09:56:16.000Z</time>
      </trkpt>
      <trkpt lat="47.15894" lon="-1.49712">
        <ele>62</ele>
        <time>2021-05-29T09:56:18.000Z</time>
      </trkpt>
      <trkpt lat="47.15909" lon="-1.49683">
        <ele>54</ele>
        <time>2021-05-29T09:56:21.000Z</time>
      </trkpt>
      <trkpt lat="47.15919" lon="-1.49666">
        <ele>55</ele>
        <time>2021-05-29T09:56:23.000Z</time>
      </trkpt>
      <trkpt lat="47.15927" lon="-1.49649">
        <ele>57</ele>
        <time>2021-05-29T09:56:25.000Z</time>
      </trkpt>
      <trkpt lat="47.15936" lon="-1.4963">
        <ele>59</ele>
        <time>2021-05-29T09:56:27.000Z</time>
      </trkpt>
      <trkpt lat="47.15945" lon="-1.49612">
        <ele>60</ele>
        <time>2021-05-29T09:56:29.000Z</time>
      </trkpt>
      <trkpt lat="47.15954" lon="-1.49594">
        <ele>60</ele>
        <time>2021-05-29T09:56:31.000Z</time>
      </trkpt>
      <trkpt lat="47.15963" lon="-1.49577">
        <ele>61</ele>
        <time>2021-05-29T09:56:33.000Z</time>
      </trkpt>
      <trkpt lat="47.15972" lon="-1.4956">
        <ele>61</ele>
        <time>2021-05-29T09:56:35.000Z</time>
      </trkpt>
      <trkpt lat="47.1598" lon="-1.49543">
        <ele>61</ele>
        <time>2021-05-29T09:56:37.000Z</time>
      </trkpt>
      <trkpt lat="47.15989" lon="-1.49526">
        <ele>62</ele>
        <time>2021-05-29T09:56:39.000Z</time>
      </trkpt>
      <trkpt lat="47.15996" lon="-1.49509">
        <ele>62</ele>
        <time>2021-05-29T09:56:41.000Z</time>
      </trkpt>
      <trkpt lat="47.16004" lon="-1.49491">
        <ele>62</ele>
        <time>2021-05-29T09:56:43.000Z</time>
      </trkpt>
      <trkpt lat="47.16013" lon="-1.49476">
        <ele>63</ele>
        <time>2021-05-29T09:56:45.000Z</time>
      </trkpt>
      <trkpt lat="47.16022" lon="-1.49459">
        <ele>64</ele>
        <time>2021-05-29T09:56:47.000Z</time>
      </trkpt>
      <trkpt lat="47.16032" lon="-1.49443">
        <ele>62</ele>
        <time>2021-05-29T09:56:49.000Z</time>
      </trkpt>
      <trkpt lat="47.16039" lon="-1.49426">
        <ele>61</ele>
        <time>2021-05-29T09:56:51.000Z</time>
      </trkpt>
      <trkpt lat="47.1605" lon="-1.494">
        <ele>62</ele>
        <time>2021-05-29T09:56:54.000Z</time>
      </trkpt>
      <trkpt lat="47.1606" lon="-1.49387">
        <ele>63</ele>
        <time>2021-05-29T09:56:56.000Z</time>
      </trkpt>
      <trkpt lat="47.1607" lon="-1.49374">
        <ele>62</ele>
        <time>2021-05-29T09:56:58.000Z</time>
      </trkpt>
      <trkpt lat="47.1608" lon="-1.49364">
        <ele>62</ele>
        <time>2021-05-29T09:57:00.000Z</time>
      </trkpt>
      <trkpt lat="47.16091" lon="-1.49351">
        <ele>64</ele>
        <time>2021-05-29T09:57:02.000Z</time>
      </trkpt>
      <trkpt lat="47.16107" lon="-1.49333">
        <ele>63</ele>
        <time>2021-05-29T09:57:05.000Z</time>
      </trkpt>
      <trkpt lat="47.16116" lon="-1.49321">
        <ele>66</ele>
        <time>2021-05-29T09:57:07.000Z</time>
      </trkpt>
      <trkpt lat="47.16126" lon="-1.49308">
        <ele>68</ele>
        <time>2021-05-29T09:57:09.000Z</time>
      </trkpt>
      <trkpt lat="47.16136" lon="-1.49292">
        <ele>67</ele>
        <time>2021-05-29T09:57:11.000Z</time>
      </trkpt>
      <trkpt lat="47.16145" lon="-1.49277">
        <ele>66</ele>
        <time>2021-05-29T09:57:13.000Z</time>
      </trkpt>
      <trkpt lat="47.16154" lon="-1.49262">
        <ele>66</ele>
        <time>2021-05-29T09:57:15.000Z</time>
      </trkpt>
      <trkpt lat="47.16162" lon="-1.49246">
        <ele>65</ele>
        <time>2021-05-29T09:57:17.000Z</time>
      </trkpt>
      <trkpt lat="47.16173" lon="-1.49231">
        <ele>62</ele>
        <time>2021-05-29T09:57:19.000Z</time>
      </trkpt>
      <trkpt lat="47.1618" lon="-1.49216">
        <ele>63</ele>
        <time>2021-05-29T09:57:21.000Z</time>
      </trkpt>
      <trkpt lat="47.1619" lon="-1.49203">
        <ele>64</ele>
        <time>2021-05-29T09:57:23.000Z</time>
      </trkpt>
      <trkpt lat="47.16206" lon="-1.49185">
        <ele>65</ele>
        <time>2021-05-29T09:57:26.000Z</time>
      </trkpt>
      <trkpt lat="47.16217" lon="-1.49173">
        <ele>65</ele>
        <time>2021-05-29T09:57:28.000Z</time>
      </trkpt>
      <trkpt lat="47.16228" lon="-1.49165">
        <ele>64</ele>
        <time>2021-05-29T09:57:30.000Z</time>
      </trkpt>
      <trkpt lat="47.16239" lon="-1.49155">
        <ele>65</ele>
        <time>2021-05-29T09:57:32.000Z</time>
      </trkpt>
      <trkpt lat="47.1625" lon="-1.49141">
        <ele>65</ele>
        <time>2021-05-29T09:57:34.000Z</time>
      </trkpt>
      <trkpt lat="47.16261" lon="-1.49129">
        <ele>66</ele>
        <time>2021-05-29T09:57:36.000Z</time>
      </trkpt>
      <trkpt lat="47.16271" lon="-1.49117">
        <ele>65</ele>
        <time>2021-05-29T09:57:38.000Z</time>
      </trkpt>
      <trkpt lat="47.16282" lon="-1.49105">
        <ele>66</ele>
        <time>2021-05-29T09:57:40.000Z</time>
      </trkpt>
      <trkpt lat="47.16294" lon="-1.49092">
        <ele>66</ele>
        <time>2021-05-29T09:57:42.000Z</time>
      </trkpt>
      <trkpt lat="47.16307" lon="-1.49079">
        <ele>65</ele>
        <time>2021-05-29T09:57:44.000Z</time>
      </trkpt>
      <trkpt lat="47.1632" lon="-1.49067">
        <ele>65</ele>
        <time>2021-05-29T09:57:46.000Z</time>
      </trkpt>
      <trkpt lat="47.16333" lon="-1.49054">
        <ele>65</ele>
        <time>2021-05-29T09:57:48.000Z</time>
      </trkpt>
      <trkpt lat="47.16345" lon="-1.49042">
        <ele>65</ele>
        <time>2021-05-29T09:57:50.000Z</time>
      </trkpt>
      <trkpt lat="47.16357" lon="-1.4903">
        <ele>65</ele>
        <time>2021-05-29T09:57:52.000Z</time>
      </trkpt>
      <trkpt lat="47.16368" lon="-1.49015">
        <ele>64</ele>
        <time>2021-05-29T09:57:54.000Z</time>
      </trkpt>
      <trkpt lat="47.16377" lon="-1.48998">
        <ele>63</ele>
        <time>2021-05-29T09:57:56.000Z</time>
      </trkpt>
      <trkpt lat="47.16387" lon="-1.48981">
        <ele>64</ele>
        <time>2021-05-29T09:57:58.000Z</time>
      </trkpt>
      <trkpt lat="47.16396" lon="-1.48967">
        <ele>63</ele>
        <time>2021-05-29T09:58:00.000Z</time>
      </trkpt>
      <trkpt lat="47.1641" lon="-1.48946">
        <ele>63</ele>
        <time>2021-05-29T09:58:03.000Z</time>
      </trkpt>
      <trkpt lat="47.16419" lon="-1.48931">
        <ele>64</ele>
        <time>2021-05-29T09:58:05.000Z</time>
      </trkpt>
      <trkpt lat="47.16431" lon="-1.48919">
        <ele>64</ele>
        <time>2021-05-29T09:58:07.000Z</time>
      </trkpt>
      <trkpt lat="47.16442" lon="-1.48907">
        <ele>64</ele>
        <time>2021-05-29T09:58:09.000Z</time>
      </trkpt>
      <trkpt lat="47.16452" lon="-1.48894">
        <ele>65</ele>
        <time>2021-05-29T09:58:11.000Z</time>
      </trkpt>
      <trkpt lat="47.16463" lon="-1.48881">
        <ele>65</ele>
        <time>2021-05-29T09:58:13.000Z</time>
      </trkpt>
      <trkpt lat="47.16472" lon="-1.48864">
        <ele>64</ele>
        <time>2021-05-29T09:58:15.000Z</time>
      </trkpt>
      <trkpt lat="47.16477" lon="-1.48846">
        <ele>63</ele>
        <time>2021-05-29T09:58:17.000Z</time>
      </trkpt>
      <trkpt lat="47.16489" lon="-1.4882">
        <ele>62</ele>
        <time>2021-05-29T09:58:20.000Z</time>
      </trkpt>
      <trkpt lat="47.16497" lon="-1.48803">
        <ele>61</ele>
        <time>2021-05-29T09:58:22.000Z</time>
      </trkpt>
      <trkpt lat="47.16505" lon="-1.48787">
        <ele>61</ele>
        <time>2021-05-29T09:58:24.000Z</time>
      </trkpt>
      <trkpt lat="47.16509" lon="-1.4877">
        <ele>60</ele>
        <time>2021-05-29T09:58:26.000Z</time>
      </trkpt>
      <trkpt lat="47.16514" lon="-1.48752">
        <ele>60</ele>
        <time>2021-05-29T09:58:28.000Z</time>
      </trkpt>
      <trkpt lat="47.16519" lon="-1.48731">
        <ele>60</ele>
        <time>2021-05-29T09:58:30.000Z</time>
      </trkpt>
      <trkpt lat="47.16524" lon="-1.4871">
        <ele>61</ele>
        <time>2021-05-29T09:58:32.000Z</time>
      </trkpt>
      <trkpt lat="47.16527" lon="-1.48689">
        <ele>62</ele>
        <time>2021-05-29T09:58:34.000Z</time>
      </trkpt>
      <trkpt lat="47.16531" lon="-1.48669">
        <ele>62</ele>
        <time>2021-05-29T09:58:36.000Z</time>
      </trkpt>
      <trkpt lat="47.16534" lon="-1.48649">
        <ele>62</ele>
        <time>2021-05-29T09:58:38.000Z</time>
      </trkpt>
      <trkpt lat="47.16536" lon="-1.48628">
        <ele>62</ele>
        <time>2021-05-29T09:58:40.000Z</time>
      </trkpt>
      <trkpt lat="47.16537" lon="-1.48605">
        <ele>61</ele>
        <time>2021-05-29T09:58:42.000Z</time>
      </trkpt>
      <trkpt lat="47.16542" lon="-1.48586">
        <ele>59</ele>
        <time>2021-05-29T09:58:44.000Z</time>
      </trkpt>
      <trkpt lat="47.16543" lon="-1.48568">
        <ele>59</ele>
        <time>2021-05-29T09:58:46.000Z</time>
      </trkpt>
      <trkpt lat="47.16543" lon="-1.48547">
        <ele>59</ele>
        <time>2021-05-29T09:58:48.000Z</time>
      </trkpt>
      <trkpt lat="47.1654" lon="-1.48525">
        <ele>58</ele>
        <time>2021-05-29T09:58:50.000Z</time>
      </trkpt>
      <trkpt lat="47.16535" lon="-1.48497">
        <ele>57</ele>
        <time>2021-05-29T09:58:53.000Z</time>
      </trkpt>
      <trkpt lat="47.16534" lon="-1.48477">
        <ele>55</ele>
        <time>2021-05-29T09:58:55.000Z</time>
      </trkpt>
      <trkpt lat="47.16529" lon="-1.48458">
        <ele>55</ele>
        <time>2021-05-29T09:58:57.000Z</time>
      </trkpt>
      <trkpt lat="47.16526" lon="-1.48436">
        <ele>55</ele>
        <time>2021-05-29T09:58:59.000Z</time>
      </trkpt>
      <trkpt lat="47.16524" lon="-1.48418">
        <ele>56</ele>
        <time>2021-05-29T09:59:01.000Z</time>
      </trkpt>
      <trkpt lat="47.16518" lon="-1.48393">
        <ele>52</ele>
        <time>2021-05-29T09:59:04.000Z</time>
      </trkpt>
      <trkpt lat="47.16513" lon="-1.4838">
        <ele>52</ele>
        <time>2021-05-29T09:59:06.000Z</time>
      </trkpt>
      <trkpt lat="47.16509" lon="-1.48352">
        <ele>52</ele>
        <time>2021-05-29T09:59:09.000Z</time>
      </trkpt>
      <trkpt lat="47.16511" lon="-1.48318">
        <ele>52</ele>
        <time>2021-05-29T09:59:12.000Z</time>
      </trkpt>
      <trkpt lat="47.16517" lon="-1.48294">
        <ele>51</ele>
        <time>2021-05-29T09:59:14.000Z</time>
      </trkpt>
      <trkpt lat="47.16521" lon="-1.48274">
        <ele>53</ele>
        <time>2021-05-29T09:59:16.000Z</time>
      </trkpt>
      <trkpt lat="47.16523" lon="-1.48257">
        <ele>52</ele>
        <time>2021-05-29T09:59:18.000Z</time>
      </trkpt>
      <trkpt lat="47.16522" lon="-1.48238">
        <ele>53</ele>
        <time>2021-05-29T09:59:20.000Z</time>
      </trkpt>
      <trkpt lat="47.16515" lon="-1.48211">
        <ele>53</ele>
        <time>2021-05-29T09:59:23.000Z</time>
      </trkpt>
      <trkpt lat="47.1651" lon="-1.48193">
        <ele>53</ele>
        <time>2021-05-29T09:59:25.000Z</time>
      </trkpt>
      <trkpt lat="47.16505" lon="-1.48174">
        <ele>53</ele>
        <time>2021-05-29T09:59:27.000Z</time>
      </trkpt>
      <trkpt lat="47.16501" lon="-1.48152">
        <ele>51</ele>
        <time>2021-05-29T09:59:29.000Z</time>
      </trkpt>
      <trkpt lat="47.16497" lon="-1.48133">
        <ele>52</ele>
        <time>2021-05-29T09:59:31.000Z</time>
      </trkpt>
      <trkpt lat="47.16491" lon="-1.48114">
        <ele>53</ele>
        <time>2021-05-29T09:59:33.000Z</time>
      </trkpt>
      <trkpt lat="47.16485" lon="-1.48094">
        <ele>53</ele>
        <time>2021-05-29T09:59:35.000Z</time>
      </trkpt>
      <trkpt lat="47.16479" lon="-1.48074">
        <ele>52</ele>
        <time>2021-05-29T09:59:37.000Z</time>
      </trkpt>
      <trkpt lat="47.16472" lon="-1.48056">
        <ele>50</ele>
        <time>2021-05-29T09:59:39.000Z</time>
      </trkpt>
      <trkpt lat="47.16466" lon="-1.48037">
        <ele>50</ele>
        <time>2021-05-29T09:59:41.000Z</time>
      </trkpt>
      <trkpt lat="47.16462" lon="-1.48015">
        <ele>51</ele>
        <time>2021-05-29T09:59:43.000Z</time>
      </trkpt>
      <trkpt lat="47.16458" lon="-1.47994">
        <ele>51</ele>
        <time>2021-05-29T09:59:45.000Z</time>
      </trkpt>
      <trkpt lat="47.16453" lon="-1.47976">
        <ele>48</ele>
        <time>2021-05-29T09:59:47.000Z</time>
      </trkpt>
      <trkpt lat="47.1645" lon="-1.47957">
        <ele>50</ele>
        <time>2021-05-29T09:59:49.000Z</time>
      </trkpt>
      <trkpt lat="47.16447" lon="-1.47938">
        <ele>50</ele>
        <time>2021-05-29T09:59:51.000Z</time>
      </trkpt>
      <trkpt lat="47.16443" lon="-1.4792">
        <ele>50</ele>
        <time>2021-05-29T09:59:53.000Z</time>
      </trkpt>
      <trkpt lat="47.16438" lon="-1.479">
        <ele>51</ele>
        <time>2021-05-29T09:59:55.000Z</time>
      </trkpt>
      <trkpt lat="47.16434" lon="-1.47882">
        <ele>52</ele>
        <time>2021-05-29T09:59:57.000Z</time>
      </trkpt>
      <trkpt lat="47.1643" lon="-1.47863">
        <ele>53</ele>
        <time>2021-05-29T09:59:59.000Z</time>
      </trkpt>
      <trkpt lat="47.16426" lon="-1.47844">
        <ele>52</ele>
        <time>2021-05-29T10:00:01.000Z</time>
      </trkpt>
      <trkpt lat="47.16422" lon="-1.47826">
        <ele>52</ele>
        <time>2021-05-29T10:00:03.000Z</time>
      </trkpt>
      <trkpt lat="47.16419" lon="-1.47807">
        <ele>53</ele>
        <time>2021-05-29T10:00:05.000Z</time>
      </trkpt>
      <trkpt lat="47.16414" lon="-1.4779">
        <ele>52</ele>
        <time>2021-05-29T10:00:07.000Z</time>
      </trkpt>
      <trkpt lat="47.1641" lon="-1.47773">
        <ele>53</ele>
        <time>2021-05-29T10:00:09.000Z</time>
      </trkpt>
      <trkpt lat="47.16407" lon="-1.47754">
        <ele>53</ele>
        <time>2021-05-29T10:00:11.000Z</time>
      </trkpt>
      <trkpt lat="47.16404" lon="-1.47737">
        <ele>53</ele>
        <time>2021-05-29T10:00:13.000Z</time>
      </trkpt>
      <trkpt lat="47.16398" lon="-1.47711">
        <ele>53</ele>
        <time>2021-05-29T10:00:16.000Z</time>
      </trkpt>
      <trkpt lat="47.16393" lon="-1.47695">
        <ele>54</ele>
        <time>2021-05-29T10:00:18.000Z</time>
      </trkpt>
      <trkpt lat="47.16388" lon="-1.4768">
        <ele>55</ele>
        <time>2021-05-29T10:00:20.000Z</time>
      </trkpt>
      <trkpt lat="47.16385" lon="-1.47662">
        <ele>55</ele>
        <time>2021-05-29T10:00:22.000Z</time>
      </trkpt>
      <trkpt lat="47.1638" lon="-1.47646">
        <ele>55</ele>
        <time>2021-05-29T10:00:24.000Z</time>
      </trkpt>
      <trkpt lat="47.16377" lon="-1.47631">
        <ele>55</ele>
        <time>2021-05-29T10:00:26.000Z</time>
      </trkpt>
      <trkpt lat="47.16373" lon="-1.47614">
        <ele>55</ele>
        <time>2021-05-29T10:00:28.000Z</time>
      </trkpt>
      <trkpt lat="47.16372" lon="-1.47595">
        <ele>54</ele>
        <time>2021-05-29T10:00:30.000Z</time>
      </trkpt>
      <trkpt lat="47.16368" lon="-1.47579">
        <ele>55</ele>
        <time>2021-05-29T10:00:32.000Z</time>
      </trkpt>
      <trkpt lat="47.16364" lon="-1.47553">
        <ele>55</ele>
        <time>2021-05-29T10:00:35.000Z</time>
      </trkpt>
      <trkpt lat="47.16361" lon="-1.47537">
        <ele>56</ele>
        <time>2021-05-29T10:00:37.000Z</time>
      </trkpt>
      <trkpt lat="47.16358" lon="-1.4752">
        <ele>56</ele>
        <time>2021-05-29T10:00:39.000Z</time>
      </trkpt>
      <trkpt lat="47.16354" lon="-1.47504">
        <ele>57</ele>
        <time>2021-05-29T10:00:41.000Z</time>
      </trkpt>
      <trkpt lat="47.16348" lon="-1.47478">
        <ele>57</ele>
        <time>2021-05-29T10:00:44.000Z</time>
      </trkpt>
      <trkpt lat="47.16343" lon="-1.47461">
        <ele>57</ele>
        <time>2021-05-29T10:00:46.000Z</time>
      </trkpt>
      <trkpt lat="47.16339" lon="-1.47445">
        <ele>57</ele>
        <time>2021-05-29T10:00:48.000Z</time>
      </trkpt>
      <trkpt lat="47.16334" lon="-1.47429">
        <ele>57</ele>
        <time>2021-05-29T10:00:50.000Z</time>
      </trkpt>
      <trkpt lat="47.16331" lon="-1.47413">
        <ele>57</ele>
        <time>2021-05-29T10:00:52.000Z</time>
      </trkpt>
      <trkpt lat="47.16326" lon="-1.4739">
        <ele>57</ele>
        <time>2021-05-29T10:00:55.000Z</time>
      </trkpt>
      <trkpt lat="47.16323" lon="-1.47374">
        <ele>56</ele>
        <time>2021-05-29T10:00:57.000Z</time>
      </trkpt>
      <trkpt lat="47.1632" lon="-1.47359">
        <ele>58</ele>
        <time>2021-05-29T10:00:59.000Z</time>
      </trkpt>
      <trkpt lat="47.16317" lon="-1.47341">
        <ele>57</ele>
        <time>2021-05-29T10:01:01.000Z</time>
      </trkpt>
      <trkpt lat="47.1632" lon="-1.47324">
        <ele>58</ele>
        <time>2021-05-29T10:01:03.000Z</time>
      </trkpt>
      <trkpt lat="47.16321" lon="-1.47305">
        <ele>57</ele>
        <time>2021-05-29T10:01:05.000Z</time>
      </trkpt>
      <trkpt lat="47.16317" lon="-1.47289">
        <ele>58</ele>
        <time>2021-05-29T10:01:07.000Z</time>
      </trkpt>
      <trkpt lat="47.16312" lon="-1.47273">
        <ele>58</ele>
        <time>2021-05-29T10:01:09.000Z</time>
      </trkpt>
      <trkpt lat="47.16304" lon="-1.47252">
        <ele>57</ele>
        <time>2021-05-29T10:01:12.000Z</time>
      </trkpt>
      <trkpt lat="47.16298" lon="-1.47236">
        <ele>56</ele>
        <time>2021-05-29T10:01:14.000Z</time>
      </trkpt>
      <trkpt lat="47.16294" lon="-1.47221">
        <ele>57</ele>
        <time>2021-05-29T10:01:16.000Z</time>
      </trkpt>
      <trkpt lat="47.1629" lon="-1.47208">
        <ele>59</ele>
        <time>2021-05-29T10:01:18.000Z</time>
      </trkpt>
      <trkpt lat="47.16286" lon="-1.47186">
        <ele>60</ele>
        <time>2021-05-29T10:01:21.000Z</time>
      </trkpt>
      <trkpt lat="47.16283" lon="-1.47172">
        <ele>61</ele>
        <time>2021-05-29T10:01:23.000Z</time>
      </trkpt>
      <trkpt lat="47.16278" lon="-1.47159">
        <ele>62</ele>
        <time>2021-05-29T10:01:25.000Z</time>
      </trkpt>
      <trkpt lat="47.16275" lon="-1.47145">
        <ele>63</ele>
        <time>2021-05-29T10:01:27.000Z</time>
      </trkpt>
      <trkpt lat="47.1627" lon="-1.47124">
        <ele>65</ele>
        <time>2021-05-29T10:01:30.000Z</time>
      </trkpt>
      <trkpt lat="47.16267" lon="-1.4711">
        <ele>65</ele>
        <time>2021-05-29T10:01:32.000Z</time>
      </trkpt>
      <trkpt lat="47.16264" lon="-1.47096">
        <ele>65</ele>
        <time>2021-05-29T10:01:34.000Z</time>
      </trkpt>
      <trkpt lat="47.16262" lon="-1.47081">
        <ele>65</ele>
        <time>2021-05-29T10:01:36.000Z</time>
      </trkpt>
      <trkpt lat="47.1626" lon="-1.47066">
        <ele>66</ele>
        <time>2021-05-29T10:01:38.000Z</time>
      </trkpt>
      <trkpt lat="47.16259" lon="-1.4705">
        <ele>66</ele>
        <time>2021-05-29T10:01:40.000Z</time>
      </trkpt>
      <trkpt lat="47.16257" lon="-1.47027">
        <ele>67</ele>
        <time>2021-05-29T10:01:43.000Z</time>
      </trkpt>
      <trkpt lat="47.16255" lon="-1.47013">
        <ele>66</ele>
        <time>2021-05-29T10:01:45.000Z</time>
      </trkpt>
      <trkpt lat="47.16254" lon="-1.46998">
        <ele>65</ele>
        <time>2021-05-29T10:01:47.000Z</time>
      </trkpt>
      <trkpt lat="47.16254" lon="-1.46981">
        <ele>66</ele>
        <time>2021-05-29T10:01:49.000Z</time>
      </trkpt>
      <trkpt lat="47.16255" lon="-1.46959">
        <ele>67</ele>
        <time>2021-05-29T10:01:52.000Z</time>
      </trkpt>
      <trkpt lat="47.16255" lon="-1.46944">
        <ele>68</ele>
        <time>2021-05-29T10:01:54.000Z</time>
      </trkpt>
      <trkpt lat="47.16256" lon="-1.46929">
        <ele>69</ele>
        <time>2021-05-29T10:01:56.000Z</time>
      </trkpt>
      <trkpt lat="47.16258" lon="-1.46906">
        <ele>69</ele>
        <time>2021-05-29T10:01:59.000Z</time>
      </trkpt>
      <trkpt lat="47.16258" lon="-1.46891">
        <ele>68</ele>
        <time>2021-05-29T10:02:01.000Z</time>
      </trkpt>
      <trkpt lat="47.16258" lon="-1.46876">
        <ele>68</ele>
        <time>2021-05-29T10:02:03.000Z</time>
      </trkpt>
      <trkpt lat="47.1626" lon="-1.46862">
        <ele>69</ele>
        <time>2021-05-29T10:02:05.000Z</time>
      </trkpt>
      <trkpt lat="47.16262" lon="-1.46842">
        <ele>69</ele>
        <time>2021-05-29T10:02:08.000Z</time>
      </trkpt>
      <trkpt lat="47.16262" lon="-1.46827">
        <ele>69</ele>
        <time>2021-05-29T10:02:10.000Z</time>
      </trkpt>
      <trkpt lat="47.16257" lon="-1.46815">
        <ele>69</ele>
        <time>2021-05-29T10:02:12.000Z</time>
      </trkpt>
      <trkpt lat="47.16257" lon="-1.46802">
        <ele>69</ele>
        <time>2021-05-29T10:02:14.000Z</time>
      </trkpt>
      <trkpt lat="47.16262" lon="-1.46788">
        <ele>69</ele>
        <time>2021-05-29T10:02:16.000Z</time>
      </trkpt>
      <trkpt lat="47.16267" lon="-1.46776">
        <ele>69</ele>
        <time>2021-05-29T10:02:18.000Z</time>
      </trkpt>
      <trkpt lat="47.16269" lon="-1.46762">
        <ele>69</ele>
        <time>2021-05-29T10:02:20.000Z</time>
      </trkpt>
      <trkpt lat="47.1627" lon="-1.46746">
        <ele>69</ele>
        <time>2021-05-29T10:02:22.000Z</time>
      </trkpt>
      <trkpt lat="47.1627" lon="-1.4673">
        <ele>70</ele>
        <time>2021-05-29T10:02:24.000Z</time>
      </trkpt>
      <trkpt lat="47.16272" lon="-1.46715">
        <ele>70</ele>
        <time>2021-05-29T10:02:26.000Z</time>
      </trkpt>
      <trkpt lat="47.16275" lon="-1.46701">
        <ele>71</ele>
        <time>2021-05-29T10:02:28.000Z</time>
      </trkpt>
      <trkpt lat="47.16278" lon="-1.4668">
        <ele>73</ele>
        <time>2021-05-29T10:02:31.000Z</time>
      </trkpt>
      <trkpt lat="47.16279" lon="-1.46665">
        <ele>74</ele>
        <time>2021-05-29T10:02:33.000Z</time>
      </trkpt>
      <trkpt lat="47.16279" lon="-1.4665">
        <ele>74</ele>
        <time>2021-05-29T10:02:35.000Z</time>
      </trkpt>
      <trkpt lat="47.16281" lon="-1.46636">
        <ele>73</ele>
        <time>2021-05-29T10:02:37.000Z</time>
      </trkpt>
      <trkpt lat="47.16283" lon="-1.46622">
        <ele>74</ele>
        <time>2021-05-29T10:02:39.000Z</time>
      </trkpt>
      <trkpt lat="47.16285" lon="-1.46607">
        <ele>76</ele>
        <time>2021-05-29T10:02:41.000Z</time>
      </trkpt>
      <trkpt lat="47.16286" lon="-1.46591">
        <ele>76</ele>
        <time>2021-05-29T10:02:43.000Z</time>
      </trkpt>
      <trkpt lat="47.16288" lon="-1.46577">
        <ele>77</ele>
        <time>2021-05-29T10:02:45.000Z</time>
      </trkpt>
      <trkpt lat="47.16289" lon="-1.46562">
        <ele>78</ele>
        <time>2021-05-29T10:02:47.000Z</time>
      </trkpt>
      <trkpt lat="47.16291" lon="-1.46548">
        <ele>79</ele>
        <time>2021-05-29T10:02:49.000Z</time>
      </trkpt>
      <trkpt lat="47.16293" lon="-1.46534">
        <ele>79</ele>
        <time>2021-05-29T10:02:51.000Z</time>
      </trkpt>
      <trkpt lat="47.16295" lon="-1.46511">
        <ele>80</ele>
        <time>2021-05-29T10:02:54.000Z</time>
      </trkpt>
      <trkpt lat="47.16297" lon="-1.46496">
        <ele>80</ele>
        <time>2021-05-29T10:02:56.000Z</time>
      </trkpt>
      <trkpt lat="47.16298" lon="-1.46481">
        <ele>80</ele>
        <time>2021-05-29T10:02:58.000Z</time>
      </trkpt>
      <trkpt lat="47.163" lon="-1.46466">
        <ele>80</ele>
        <time>2021-05-29T10:03:00.000Z</time>
      </trkpt>
      <trkpt lat="47.16302" lon="-1.46452">
        <ele>80</ele>
        <time>2021-05-29T10:03:02.000Z</time>
      </trkpt>
      <trkpt lat="47.16303" lon="-1.46428">
        <ele>79</ele>
        <time>2021-05-29T10:03:05.000Z</time>
      </trkpt>
      <trkpt lat="47.16306" lon="-1.46412">
        <ele>79</ele>
        <time>2021-05-29T10:03:07.000Z</time>
      </trkpt>
      <trkpt lat="47.1631" lon="-1.46397">
        <ele>79</ele>
        <time>2021-05-29T10:03:10.000Z</time>
      </trkpt>
      <trkpt lat="47.16316" lon="-1.46382">
        <ele>79</ele>
        <time>2021-05-29T10:03:12.000Z</time>
      </trkpt>
      <trkpt lat="47.1632" lon="-1.4637">
        <ele>78</ele>
        <time>2021-05-29T10:03:14.000Z</time>
      </trkpt>
      <trkpt lat="47.16323" lon="-1.46354">
        <ele>78</ele>
        <time>2021-05-29T10:03:16.000Z</time>
      </trkpt>
      <trkpt lat="47.16326" lon="-1.4634">
        <ele>79</ele>
        <time>2021-05-29T10:03:18.000Z</time>
      </trkpt>
      <trkpt lat="47.16332" lon="-1.46318">
        <ele>80</ele>
        <time>2021-05-29T10:03:21.000Z</time>
      </trkpt>
      <trkpt lat="47.1634" lon="-1.46303">
        <ele>79</ele>
        <time>2021-05-29T10:03:23.000Z</time>
      </trkpt>
      <trkpt lat="47.16347" lon="-1.46291">
        <ele>80</ele>
        <time>2021-05-29T10:03:25.000Z</time>
      </trkpt>
      <trkpt lat="47.16353" lon="-1.46281">
        <ele>81</ele>
        <time>2021-05-29T10:03:27.000Z</time>
      </trkpt>
      <trkpt lat="47.1636" lon="-1.46269">
        <ele>81</ele>
        <time>2021-05-29T10:03:29.000Z</time>
      </trkpt>
      <trkpt lat="47.16366" lon="-1.46256">
        <ele>79</ele>
        <time>2021-05-29T10:03:31.000Z</time>
      </trkpt>
      <trkpt lat="47.16371" lon="-1.46243">
        <ele>76</ele>
        <time>2021-05-29T10:03:33.000Z</time>
      </trkpt>
      <trkpt lat="47.16378" lon="-1.46232">
        <ele>77</ele>
        <time>2021-05-29T10:03:35.000Z</time>
      </trkpt>
      <trkpt lat="47.16388" lon="-1.46222">
        <ele>78</ele>
        <time>2021-05-29T10:03:37.000Z</time>
      </trkpt>
      <trkpt lat="47.16397" lon="-1.46213">
        <ele>78</ele>
        <time>2021-05-29T10:03:39.000Z</time>
      </trkpt>
      <trkpt lat="47.16407" lon="-1.46207">
        <ele>77</ele>
        <time>2021-05-29T10:03:41.000Z</time>
      </trkpt>
      <trkpt lat="47.16416" lon="-1.46196">
        <ele>78</ele>
        <time>2021-05-29T10:03:43.000Z</time>
      </trkpt>
      <trkpt lat="47.16423" lon="-1.46184">
        <ele>79</ele>
        <time>2021-05-29T10:03:45.000Z</time>
      </trkpt>
      <trkpt lat="47.16436" lon="-1.4617">
        <ele>79</ele>
        <time>2021-05-29T10:03:48.000Z</time>
      </trkpt>
      <trkpt lat="47.16443" lon="-1.46159">
        <ele>79</ele>
        <time>2021-05-29T10:03:50.000Z</time>
      </trkpt>
      <trkpt lat="47.16452" lon="-1.46148">
        <ele>79</ele>
        <time>2021-05-29T10:03:52.000Z</time>
      </trkpt>
      <trkpt lat="47.16461" lon="-1.4614">
        <ele>79</ele>
        <time>2021-05-29T10:03:54.000Z</time>
      </trkpt>
      <trkpt lat="47.16478" lon="-1.46121">
        <ele>80</ele>
        <time>2021-05-29T10:03:57.000Z</time>
      </trkpt>
      <trkpt lat="47.16485" lon="-1.4611">
        <ele>81</ele>
        <time>2021-05-29T10:03:59.000Z</time>
      </trkpt>
      <trkpt lat="47.16492" lon="-1.46098">
        <ele>81</ele>
        <time>2021-05-29T10:04:01.000Z</time>
      </trkpt>
      <trkpt lat="47.165" lon="-1.46088">
        <ele>81</ele>
        <time>2021-05-29T10:04:03.000Z</time>
      </trkpt>
      <trkpt lat="47.16505" lon="-1.46077">
        <ele>79</ele>
        <time>2021-05-29T10:04:05.000Z</time>
      </trkpt>
      <trkpt lat="47.16507" lon="-1.46059">
        <ele>79</ele>
        <time>2021-05-29T10:04:08.000Z</time>
      </trkpt>
      <trkpt lat="47.16509" lon="-1.46043">
        <ele>79</ele>
        <time>2021-05-29T10:04:10.000Z</time>
      </trkpt>
      <trkpt lat="47.1651" lon="-1.46024">
        <ele>77</ele>
        <time>2021-05-29T10:04:12.000Z</time>
      </trkpt>
      <trkpt lat="47.16505" lon="-1.46004">
        <ele>78</ele>
        <time>2021-05-29T10:04:14.000Z</time>
      </trkpt>
      <trkpt lat="47.16499" lon="-1.45986">
        <ele>78</ele>
        <time>2021-05-29T10:04:16.000Z</time>
      </trkpt>
      <trkpt lat="47.16494" lon="-1.45968">
        <ele>78</ele>
        <time>2021-05-29T10:04:18.000Z</time>
      </trkpt>
      <trkpt lat="47.16488" lon="-1.45949">
        <ele>79</ele>
        <time>2021-05-29T10:04:20.000Z</time>
      </trkpt>
      <trkpt lat="47.16483" lon="-1.45929">
        <ele>79</ele>
        <time>2021-05-29T10:04:22.000Z</time>
      </trkpt>
      <trkpt lat="47.16474" lon="-1.45898">
        <ele>79</ele>
        <time>2021-05-29T10:04:25.000Z</time>
      </trkpt>
      <trkpt lat="47.16468" lon="-1.45875">
        <ele>76</ele>
        <time>2021-05-29T10:04:27.000Z</time>
      </trkpt>
      <trkpt lat="47.16461" lon="-1.45854">
        <ele>75</ele>
        <time>2021-05-29T10:04:29.000Z</time>
      </trkpt>
      <trkpt lat="47.16457" lon="-1.45833">
        <ele>74</ele>
        <time>2021-05-29T10:04:31.000Z</time>
      </trkpt>
      <trkpt lat="47.16449" lon="-1.45802">
        <ele>73</ele>
        <time>2021-05-29T10:04:34.000Z</time>
      </trkpt>
      <trkpt lat="47.16441" lon="-1.45771">
        <ele>72</ele>
        <time>2021-05-29T10:04:37.000Z</time>
      </trkpt>
      <trkpt lat="47.16435" lon="-1.4575">
        <ele>73</ele>
        <time>2021-05-29T10:04:39.000Z</time>
      </trkpt>
      <trkpt lat="47.16429" lon="-1.45729">
        <ele>73</ele>
        <time>2021-05-29T10:04:41.000Z</time>
      </trkpt>
      <trkpt lat="47.16425" lon="-1.45709">
        <ele>72</ele>
        <time>2021-05-29T10:04:43.000Z</time>
      </trkpt>
      <trkpt lat="47.1642" lon="-1.45687">
        <ele>72</ele>
        <time>2021-05-29T10:04:45.000Z</time>
      </trkpt>
      <trkpt lat="47.16412" lon="-1.45657">
        <ele>73</ele>
        <time>2021-05-29T10:04:48.000Z</time>
      </trkpt>
      <trkpt lat="47.16406" lon="-1.45636">
        <ele>74</ele>
        <time>2021-05-29T10:04:50.000Z</time>
      </trkpt>
      <trkpt lat="47.16398" lon="-1.45618">
        <ele>74</ele>
        <time>2021-05-29T10:04:52.000Z</time>
      </trkpt>
      <trkpt lat="47.16392" lon="-1.45599">
        <ele>74</ele>
        <time>2021-05-29T10:04:54.000Z</time>
      </trkpt>
      <trkpt lat="47.16384" lon="-1.45582">
        <ele>73</ele>
        <time>2021-05-29T10:04:56.000Z</time>
      </trkpt>
      <trkpt lat="47.16371" lon="-1.45556">
        <ele>74</ele>
        <time>2021-05-29T10:04:59.000Z</time>
      </trkpt>
      <trkpt lat="47.16362" lon="-1.45538">
        <ele>73</ele>
        <time>2021-05-29T10:05:01.000Z</time>
      </trkpt>
      <trkpt lat="47.16353" lon="-1.45524">
        <ele>74</ele>
        <time>2021-05-29T10:05:03.000Z</time>
      </trkpt>
      <trkpt lat="47.16344" lon="-1.45508">
        <ele>75</ele>
        <time>2021-05-29T10:05:05.000Z</time>
      </trkpt>
      <trkpt lat="47.16334" lon="-1.45493">
        <ele>75</ele>
        <time>2021-05-29T10:05:07.000Z</time>
      </trkpt>
      <trkpt lat="47.16326" lon="-1.45478">
        <ele>76</ele>
        <time>2021-05-29T10:05:09.000Z</time>
      </trkpt>
      <trkpt lat="47.16318" lon="-1.45462">
        <ele>77</ele>
        <time>2021-05-29T10:05:11.000Z</time>
      </trkpt>
      <trkpt lat="47.16311" lon="-1.45447">
        <ele>77</ele>
        <time>2021-05-29T10:05:13.000Z</time>
      </trkpt>
      <trkpt lat="47.16304" lon="-1.45434">
        <ele>76</ele>
        <time>2021-05-29T10:05:15.000Z</time>
      </trkpt>
      <trkpt lat="47.16298" lon="-1.45419">
        <ele>77</ele>
        <time>2021-05-29T10:05:17.000Z</time>
      </trkpt>
      <trkpt lat="47.16294" lon="-1.45402">
        <ele>78</ele>
        <time>2021-05-29T10:05:19.000Z</time>
      </trkpt>
      <trkpt lat="47.16291" lon="-1.45384">
        <ele>79</ele>
        <time>2021-05-29T10:05:21.000Z</time>
      </trkpt>
      <trkpt lat="47.16287" lon="-1.45366">
        <ele>78</ele>
        <time>2021-05-29T10:05:23.000Z</time>
      </trkpt>
      <trkpt lat="47.16285" lon="-1.45341">
        <ele>79</ele>
        <time>2021-05-29T10:05:26.000Z</time>
      </trkpt>
      <trkpt lat="47.16282" lon="-1.45325">
        <ele>80</ele>
        <time>2021-05-29T10:05:28.000Z</time>
      </trkpt>
      <trkpt lat="47.16277" lon="-1.45308">
        <ele>80</ele>
        <time>2021-05-29T10:05:30.000Z</time>
      </trkpt>
      <trkpt lat="47.16274" lon="-1.45292">
        <ele>80</ele>
        <time>2021-05-29T10:05:32.000Z</time>
      </trkpt>
      <trkpt lat="47.16268" lon="-1.45276">
        <ele>79</ele>
        <time>2021-05-29T10:05:34.000Z</time>
      </trkpt>
      <trkpt lat="47.16263" lon="-1.4526">
        <ele>80</ele>
        <time>2021-05-29T10:05:36.000Z</time>
      </trkpt>
      <trkpt lat="47.16257" lon="-1.45244">
        <ele>80</ele>
        <time>2021-05-29T10:05:38.000Z</time>
      </trkpt>
      <trkpt lat="47.16251" lon="-1.4523">
        <ele>81</ele>
        <time>2021-05-29T10:05:40.000Z</time>
      </trkpt>
      <trkpt lat="47.16248" lon="-1.45214">
        <ele>82</ele>
        <time>2021-05-29T10:05:42.000Z</time>
      </trkpt>
      <trkpt lat="47.16251" lon="-1.45197">
        <ele>82</ele>
        <time>2021-05-29T10:05:44.000Z</time>
      </trkpt>
      <trkpt lat="47.16253" lon="-1.4518">
        <ele>82</ele>
        <time>2021-05-29T10:05:46.000Z</time>
      </trkpt>
      <trkpt lat="47.16252" lon="-1.45161">
        <ele>82</ele>
        <time>2021-05-29T10:05:48.000Z</time>
      </trkpt>
      <trkpt lat="47.16251" lon="-1.45124">
        <ele>83</ele>
        <time>2021-05-29T10:05:52.000Z</time>
      </trkpt>
      <trkpt lat="47.16249" lon="-1.45096">
        <ele>82</ele>
        <time>2021-05-29T10:05:55.000Z</time>
      </trkpt>
      <trkpt lat="47.16248" lon="-1.45077">
        <ele>82</ele>
        <time>2021-05-29T10:05:57.000Z</time>
      </trkpt>
      <trkpt lat="47.16248" lon="-1.45051">
        <ele>82</ele>
        <time>2021-05-29T10:06:00.000Z</time>
      </trkpt>
      <trkpt lat="47.16247" lon="-1.45033">
        <ele>81</ele>
        <time>2021-05-29T10:06:02.000Z</time>
      </trkpt>
      <trkpt lat="47.16245" lon="-1.45013">
        <ele>81</ele>
        <time>2021-05-29T10:06:04.000Z</time>
      </trkpt>
      <trkpt lat="47.16245" lon="-1.44993">
        <ele>80</ele>
        <time>2021-05-29T10:06:06.000Z</time>
      </trkpt>
      <trkpt lat="47.16245" lon="-1.44974">
        <ele>80</ele>
        <time>2021-05-29T10:06:08.000Z</time>
      </trkpt>
      <trkpt lat="47.16245" lon="-1.44954">
        <ele>80</ele>
        <time>2021-05-29T10:06:10.000Z</time>
      </trkpt>
      <trkpt lat="47.16244" lon="-1.44934">
        <ele>79</ele>
        <time>2021-05-29T10:06:12.000Z</time>
      </trkpt>
      <trkpt lat="47.16245" lon="-1.44915">
        <ele>78</ele>
        <time>2021-05-29T10:06:14.000Z</time>
      </trkpt>
      <trkpt lat="47.16245" lon="-1.44896">
        <ele>79</ele>
        <time>2021-05-29T10:06:16.000Z</time>
      </trkpt>
      <trkpt lat="47.16244" lon="-1.44879">
        <ele>79</ele>
        <time>2021-05-29T10:06:18.000Z</time>
      </trkpt>
      <trkpt lat="47.16243" lon="-1.44851">
        <ele>79</ele>
        <time>2021-05-29T10:06:21.000Z</time>
      </trkpt>
      <trkpt lat="47.16243" lon="-1.44832">
        <ele>79</ele>
        <time>2021-05-29T10:06:23.000Z</time>
      </trkpt>
      <trkpt lat="47.16241" lon="-1.44814">
        <ele>80</ele>
        <time>2021-05-29T10:06:25.000Z</time>
      </trkpt>
      <trkpt lat="47.16241" lon="-1.44796">
        <ele>79</ele>
        <time>2021-05-29T10:06:27.000Z</time>
      </trkpt>
      <trkpt lat="47.16241" lon="-1.44767">
        <ele>80</ele>
        <time>2021-05-29T10:06:30.000Z</time>
      </trkpt>
      <trkpt lat="47.1624" lon="-1.4475">
        <ele>80</ele>
        <time>2021-05-29T10:06:32.000Z</time>
      </trkpt>
      <trkpt lat="47.16239" lon="-1.44732">
        <ele>80</ele>
        <time>2021-05-29T10:06:34.000Z</time>
      </trkpt>
      <trkpt lat="47.16238" lon="-1.44704">
        <ele>80</ele>
        <time>2021-05-29T10:06:37.000Z</time>
      </trkpt>
      <trkpt lat="47.16237" lon="-1.44689">
        <ele>80</ele>
        <time>2021-05-29T10:06:39.000Z</time>
      </trkpt>
      <trkpt lat="47.16236" lon="-1.4467">
        <ele>80</ele>
        <time>2021-05-29T10:06:41.000Z</time>
      </trkpt>
      <trkpt lat="47.16236" lon="-1.44653">
        <ele>80</ele>
        <time>2021-05-29T10:06:43.000Z</time>
      </trkpt>
      <trkpt lat="47.16235" lon="-1.44632">
        <ele>79</ele>
        <time>2021-05-29T10:06:45.000Z</time>
      </trkpt>
      <trkpt lat="47.16235" lon="-1.44613">
        <ele>79</ele>
        <time>2021-05-29T10:06:47.000Z</time>
      </trkpt>
      <trkpt lat="47.16235" lon="-1.44595">
        <ele>79</ele>
        <time>2021-05-29T10:06:49.000Z</time>
      </trkpt>
      <trkpt lat="47.16234" lon="-1.44576">
        <ele>78</ele>
        <time>2021-05-29T10:06:51.000Z</time>
      </trkpt>
      <trkpt lat="47.16232" lon="-1.44557">
        <ele>79</ele>
        <time>2021-05-29T10:06:53.000Z</time>
      </trkpt>
      <trkpt lat="47.16232" lon="-1.44541">
        <ele>79</ele>
        <time>2021-05-29T10:06:55.000Z</time>
      </trkpt>
      <trkpt lat="47.16232" lon="-1.44522">
        <ele>80</ele>
        <time>2021-05-29T10:06:57.000Z</time>
      </trkpt>
      <trkpt lat="47.16231" lon="-1.44506">
        <ele>80</ele>
        <time>2021-05-29T10:06:59.000Z</time>
      </trkpt>
      <trkpt lat="47.16231" lon="-1.44485">
        <ele>81</ele>
        <time>2021-05-29T10:07:01.000Z</time>
      </trkpt>
      <trkpt lat="47.16231" lon="-1.44457">
        <ele>81</ele>
        <time>2021-05-29T10:07:04.000Z</time>
      </trkpt>
      <trkpt lat="47.1623" lon="-1.44438">
        <ele>80</ele>
        <time>2021-05-29T10:07:06.000Z</time>
      </trkpt>
      <trkpt lat="47.16228" lon="-1.44421">
        <ele>80</ele>
        <time>2021-05-29T10:07:08.000Z</time>
      </trkpt>
      <trkpt lat="47.16229" lon="-1.44403">
        <ele>80</ele>
        <time>2021-05-29T10:07:10.000Z</time>
      </trkpt>
      <trkpt lat="47.16228" lon="-1.44384">
        <ele>80</ele>
        <time>2021-05-29T10:07:12.000Z</time>
      </trkpt>
      <trkpt lat="47.16228" lon="-1.44355">
        <ele>79</ele>
        <time>2021-05-29T10:07:15.000Z</time>
      </trkpt>
      <trkpt lat="47.16229" lon="-1.44336">
        <ele>80</ele>
        <time>2021-05-29T10:07:17.000Z</time>
      </trkpt>
      <trkpt lat="47.16227" lon="-1.44317">
        <ele>79</ele>
        <time>2021-05-29T10:07:19.000Z</time>
      </trkpt>
      <trkpt lat="47.16225" lon="-1.44299">
        <ele>78</ele>
        <time>2021-05-29T10:07:21.000Z</time>
      </trkpt>
      <trkpt lat="47.16224" lon="-1.44281">
        <ele>79</ele>
        <time>2021-05-29T10:07:23.000Z</time>
      </trkpt>
      <trkpt lat="47.16224" lon="-1.44262">
        <ele>79</ele>
        <time>2021-05-29T10:07:25.000Z</time>
      </trkpt>
      <trkpt lat="47.16222" lon="-1.44232">
        <ele>79</ele>
        <time>2021-05-29T10:07:28.000Z</time>
      </trkpt>
      <trkpt lat="47.16223" lon="-1.44214">
        <ele>78</ele>
        <time>2021-05-29T10:07:30.000Z</time>
      </trkpt>
      <trkpt lat="47.16223" lon="-1.44195">
        <ele>77</ele>
        <time>2021-05-29T10:07:32.000Z</time>
      </trkpt>
      <trkpt lat="47.16222" lon="-1.44176">
        <ele>77</ele>
        <time>2021-05-29T10:07:34.000Z</time>
      </trkpt>
      <trkpt lat="47.16222" lon="-1.44157">
        <ele>77</ele>
        <time>2021-05-29T10:07:36.000Z</time>
      </trkpt>
      <trkpt lat="47.1622" lon="-1.44137">
        <ele>76</ele>
        <time>2021-05-29T10:07:38.000Z</time>
      </trkpt>
      <trkpt lat="47.1622" lon="-1.44119">
        <ele>76</ele>
        <time>2021-05-29T10:07:40.000Z</time>
      </trkpt>
      <trkpt lat="47.16219" lon="-1.44101">
        <ele>77</ele>
        <time>2021-05-29T10:07:42.000Z</time>
      </trkpt>
      <trkpt lat="47.16219" lon="-1.44083">
        <ele>77</ele>
        <time>2021-05-29T10:07:44.000Z</time>
      </trkpt>
      <trkpt lat="47.16218" lon="-1.44064">
        <ele>77</ele>
        <time>2021-05-29T10:07:46.000Z</time>
      </trkpt>
      <trkpt lat="47.16217" lon="-1.44047">
        <ele>77</ele>
        <time>2021-05-29T10:07:48.000Z</time>
      </trkpt>
      <trkpt lat="47.16216" lon="-1.44028">
        <ele>78</ele>
        <time>2021-05-29T10:07:50.000Z</time>
      </trkpt>
      <trkpt lat="47.16216" lon="-1.4401">
        <ele>78</ele>
        <time>2021-05-29T10:07:52.000Z</time>
      </trkpt>
      <trkpt lat="47.16215" lon="-1.43982">
        <ele>78</ele>
        <time>2021-05-29T10:07:55.000Z</time>
      </trkpt>
      <trkpt lat="47.16214" lon="-1.43966">
        <ele>78</ele>
        <time>2021-05-29T10:07:57.000Z</time>
      </trkpt>
      <trkpt lat="47.16214" lon="-1.43948">
        <ele>79</ele>
        <time>2021-05-29T10:07:59.000Z</time>
      </trkpt>
      <trkpt lat="47.16214" lon="-1.43929">
        <ele>78</ele>
        <time>2021-05-29T10:08:01.000Z</time>
      </trkpt>
      <trkpt lat="47.16212" lon="-1.4391">
        <ele>77</ele>
        <time>2021-05-29T10:08:03.000Z</time>
      </trkpt>
      <trkpt lat="47.1621" lon="-1.43893">
        <ele>78</ele>
        <time>2021-05-29T10:08:05.000Z</time>
      </trkpt>
      <trkpt lat="47.16212" lon="-1.43873">
        <ele>78</ele>
        <time>2021-05-29T10:08:07.000Z</time>
      </trkpt>
      <trkpt lat="47.16212" lon="-1.43854">
        <ele>78</ele>
        <time>2021-05-29T10:08:09.000Z</time>
      </trkpt>
      <trkpt lat="47.16211" lon="-1.43838">
        <ele>79</ele>
        <time>2021-05-29T10:08:11.000Z</time>
      </trkpt>
      <trkpt lat="47.16209" lon="-1.4382">
        <ele>78</ele>
        <time>2021-05-29T10:08:13.000Z</time>
      </trkpt>
      <trkpt lat="47.1621" lon="-1.43803">
        <ele>78</ele>
        <time>2021-05-29T10:08:15.000Z</time>
      </trkpt>
      <trkpt lat="47.16209" lon="-1.43776">
        <ele>78</ele>
        <time>2021-05-29T10:08:18.000Z</time>
      </trkpt>
      <trkpt lat="47.16209" lon="-1.4375">
        <ele>79</ele>
        <time>2021-05-29T10:08:21.000Z</time>
      </trkpt>
      <trkpt lat="47.16208" lon="-1.43732">
        <ele>79</ele>
        <time>2021-05-29T10:08:23.000Z</time>
      </trkpt>
      <trkpt lat="47.16207" lon="-1.43715">
        <ele>79</ele>
        <time>2021-05-29T10:08:25.000Z</time>
      </trkpt>
      <trkpt lat="47.16207" lon="-1.43698">
        <ele>79</ele>
        <time>2021-05-29T10:08:27.000Z</time>
      </trkpt>
      <trkpt lat="47.16206" lon="-1.43681">
        <ele>80</ele>
        <time>2021-05-29T10:08:29.000Z</time>
      </trkpt>
      <trkpt lat="47.16205" lon="-1.43663">
        <ele>80</ele>
        <time>2021-05-29T10:08:31.000Z</time>
      </trkpt>
      <trkpt lat="47.16205" lon="-1.43645">
        <ele>79</ele>
        <time>2021-05-29T10:08:33.000Z</time>
      </trkpt>
      <trkpt lat="47.16205" lon="-1.43627">
        <ele>78</ele>
        <time>2021-05-29T10:08:35.000Z</time>
      </trkpt>
      <trkpt lat="47.16204" lon="-1.43608">
        <ele>78</ele>
        <time>2021-05-29T10:08:37.000Z</time>
      </trkpt>
      <trkpt lat="47.16204" lon="-1.43589">
        <ele>77</ele>
        <time>2021-05-29T10:08:39.000Z</time>
      </trkpt>
      <trkpt lat="47.16204" lon="-1.43569">
        <ele>76</ele>
        <time>2021-05-29T10:08:41.000Z</time>
      </trkpt>
      <trkpt lat="47.16203" lon="-1.43549">
        <ele>76</ele>
        <time>2021-05-29T10:08:43.000Z</time>
      </trkpt>
      <trkpt lat="47.16201" lon="-1.43529">
        <ele>76</ele>
        <time>2021-05-29T10:08:45.000Z</time>
      </trkpt>
      <trkpt lat="47.16199" lon="-1.43507">
        <ele>75</ele>
        <time>2021-05-29T10:08:47.000Z</time>
      </trkpt>
      <trkpt lat="47.16196" lon="-1.43486">
        <ele>75</ele>
        <time>2021-05-29T10:08:49.000Z</time>
      </trkpt>
      <trkpt lat="47.16191" lon="-1.43466">
        <ele>74</ele>
        <time>2021-05-29T10:08:51.000Z</time>
      </trkpt>
      <trkpt lat="47.16188" lon="-1.43444">
        <ele>73</ele>
        <time>2021-05-29T10:08:53.000Z</time>
      </trkpt>
      <trkpt lat="47.16183" lon="-1.43423">
        <ele>72</ele>
        <time>2021-05-29T10:08:55.000Z</time>
      </trkpt>
      <trkpt lat="47.16173" lon="-1.43391">
        <ele>71</ele>
        <time>2021-05-29T10:08:58.000Z</time>
      </trkpt>
      <trkpt lat="47.16166" lon="-1.43368">
        <ele>70</ele>
        <time>2021-05-29T10:09:00.000Z</time>
      </trkpt>
      <trkpt lat="47.16158" lon="-1.43346">
        <ele>69</ele>
        <time>2021-05-29T10:09:02.000Z</time>
      </trkpt>
      <trkpt lat="47.16149" lon="-1.43326">
        <ele>68</ele>
        <time>2021-05-29T10:09:04.000Z</time>
      </trkpt>
      <trkpt lat="47.1614" lon="-1.43305">
        <ele>68</ele>
        <time>2021-05-29T10:09:06.000Z</time>
      </trkpt>
      <trkpt lat="47.16126" lon="-1.43275">
        <ele>66</ele>
        <time>2021-05-29T10:09:09.000Z</time>
      </trkpt>
      <trkpt lat="47.16116" lon="-1.43253">
        <ele>66</ele>
        <time>2021-05-29T10:09:11.000Z</time>
      </trkpt>
      <trkpt lat="47.16106" lon="-1.43232">
        <ele>65</ele>
        <time>2021-05-29T10:09:13.000Z</time>
      </trkpt>
      <trkpt lat="47.16097" lon="-1.4321">
        <ele>64</ele>
        <time>2021-05-29T10:09:15.000Z</time>
      </trkpt>
      <trkpt lat="47.16092" lon="-1.43198">
        <ele>63</ele>
        <time>2021-05-29T10:09:16.000Z</time>
      </trkpt>
      <trkpt lat="47.16087" lon="-1.43187">
        <ele>63</ele>
        <time>2021-05-29T10:09:17.000Z</time>
      </trkpt>
      <trkpt lat="47.16081" lon="-1.43177">
        <ele>63</ele>
        <time>2021-05-29T10:09:18.000Z</time>
      </trkpt>
      <trkpt lat="47.16076" lon="-1.43166">
        <ele>63</ele>
        <time>2021-05-29T10:09:19.000Z</time>
      </trkpt>
      <trkpt lat="47.16066" lon="-1.43142">
        <ele>62</ele>
        <time>2021-05-29T10:09:21.000Z</time>
      </trkpt>
      <trkpt lat="47.16062" lon="-1.4313">
        <ele>59</ele>
        <time>2021-05-29T10:09:22.000Z</time>
      </trkpt>
      <trkpt lat="47.16056" lon="-1.43117">
        <ele>58</ele>
        <time>2021-05-29T10:09:23.000Z</time>
      </trkpt>
      <trkpt lat="47.16049" lon="-1.43105">
        <ele>57</ele>
        <time>2021-05-29T10:09:24.000Z</time>
      </trkpt>
      <trkpt lat="47.16043" lon="-1.43094">
        <ele>57</ele>
        <time>2021-05-29T10:09:25.000Z</time>
      </trkpt>
      <trkpt lat="47.16038" lon="-1.43083">
        <ele>57</ele>
        <time>2021-05-29T10:09:26.000Z</time>
      </trkpt>
      <trkpt lat="47.16033" lon="-1.43072">
        <ele>56</ele>
        <time>2021-05-29T10:09:27.000Z</time>
      </trkpt>
      <trkpt lat="47.16027" lon="-1.4306">
        <ele>56</ele>
        <time>2021-05-29T10:09:28.000Z</time>
      </trkpt>
      <trkpt lat="47.16021" lon="-1.43048">
        <ele>56</ele>
        <time>2021-05-29T10:09:29.000Z</time>
      </trkpt>
      <trkpt lat="47.16017" lon="-1.43037">
        <ele>56</ele>
        <time>2021-05-29T10:09:30.000Z</time>
      </trkpt>
      <trkpt lat="47.16009" lon="-1.43016">
        <ele>54</ele>
        <time>2021-05-29T10:09:32.000Z</time>
      </trkpt>
      <trkpt lat="47.16003" lon="-1.43003">
        <ele>53</ele>
        <time>2021-05-29T10:09:33.000Z</time>
      </trkpt>
      <trkpt lat="47.15997" lon="-1.42991">
        <ele>53</ele>
        <time>2021-05-29T10:09:34.000Z</time>
      </trkpt>
      <trkpt lat="47.15991" lon="-1.42978">
        <ele>52</ele>
        <time>2021-05-29T10:09:35.000Z</time>
      </trkpt>
      <trkpt lat="47.15986" lon="-1.42966">
        <ele>52</ele>
        <time>2021-05-29T10:09:36.000Z</time>
      </trkpt>
      <trkpt lat="47.1598" lon="-1.42953">
        <ele>51</ele>
        <time>2021-05-29T10:09:37.000Z</time>
      </trkpt>
      <trkpt lat="47.15974" lon="-1.42943">
        <ele>50</ele>
        <time>2021-05-29T10:09:38.000Z</time>
      </trkpt>
      <trkpt lat="47.15964" lon="-1.42921">
        <ele>50</ele>
        <time>2021-05-29T10:09:40.000Z</time>
      </trkpt>
      <trkpt lat="47.15955" lon="-1.429">
        <ele>51</ele>
        <time>2021-05-29T10:09:42.000Z</time>
      </trkpt>
      <trkpt lat="47.15947" lon="-1.42881">
        <ele>51</ele>
        <time>2021-05-29T10:09:44.000Z</time>
      </trkpt>
      <trkpt lat="47.15935" lon="-1.42855">
        <ele>53</ele>
        <time>2021-05-29T10:09:47.000Z</time>
      </trkpt>
      <trkpt lat="47.15928" lon="-1.42841">
        <ele>55</ele>
        <time>2021-05-29T10:09:49.000Z</time>
      </trkpt>
      <trkpt lat="47.15918" lon="-1.42818">
        <ele>57</ele>
        <time>2021-05-29T10:09:52.000Z</time>
      </trkpt>
      <trkpt lat="47.15911" lon="-1.42803">
        <ele>58</ele>
        <time>2021-05-29T10:09:54.000Z</time>
      </trkpt>
      <trkpt lat="47.15905" lon="-1.42788">
        <ele>58</ele>
        <time>2021-05-29T10:09:56.000Z</time>
      </trkpt>
      <trkpt lat="47.15898" lon="-1.42775">
        <ele>59</ele>
        <time>2021-05-29T10:09:58.000Z</time>
      </trkpt>
      <trkpt lat="47.15889" lon="-1.42754">
        <ele>59</ele>
        <time>2021-05-29T10:10:01.000Z</time>
      </trkpt>
      <trkpt lat="47.15883" lon="-1.4274">
        <ele>59</ele>
        <time>2021-05-29T10:10:03.000Z</time>
      </trkpt>
      <trkpt lat="47.15875" lon="-1.42727">
        <ele>59</ele>
        <time>2021-05-29T10:10:05.000Z</time>
      </trkpt>
      <trkpt lat="47.15867" lon="-1.42704">
        <ele>59</ele>
        <time>2021-05-29T10:10:08.000Z</time>
      </trkpt>
      <trkpt lat="47.15861" lon="-1.4269">
        <ele>59</ele>
        <time>2021-05-29T10:10:10.000Z</time>
      </trkpt>
      <trkpt lat="47.15855" lon="-1.42676">
        <ele>60</ele>
        <time>2021-05-29T10:10:12.000Z</time>
      </trkpt>
      <trkpt lat="47.15852" lon="-1.42661">
        <ele>62</ele>
        <time>2021-05-29T10:10:14.000Z</time>
      </trkpt>
      <trkpt lat="47.15848" lon="-1.42646">
        <ele>63</ele>
        <time>2021-05-29T10:10:16.000Z</time>
      </trkpt>
      <trkpt lat="47.15844" lon="-1.42632">
        <ele>64</ele>
        <time>2021-05-29T10:10:18.000Z</time>
      </trkpt>
      <trkpt lat="47.15841" lon="-1.42616">
        <ele>65</ele>
        <time>2021-05-29T10:10:20.000Z</time>
      </trkpt>
      <trkpt lat="47.15838" lon="-1.42601">
        <ele>65</ele>
        <time>2021-05-29T10:10:22.000Z</time>
      </trkpt>
      <trkpt lat="47.15835" lon="-1.42586">
        <ele>66</ele>
        <time>2021-05-29T10:10:24.000Z</time>
      </trkpt>
      <trkpt lat="47.15833" lon="-1.42571">
        <ele>67</ele>
        <time>2021-05-29T10:10:26.000Z</time>
      </trkpt>
      <trkpt lat="47.15831" lon="-1.42555">
        <ele>68</ele>
        <time>2021-05-29T10:10:28.000Z</time>
      </trkpt>
      <trkpt lat="47.15828" lon="-1.42531">
        <ele>69</ele>
        <time>2021-05-29T10:10:31.000Z</time>
      </trkpt>
      <trkpt lat="47.15828" lon="-1.42515">
        <ele>69</ele>
        <time>2021-05-29T10:10:33.000Z</time>
      </trkpt>
      <trkpt lat="47.15827" lon="-1.42499">
        <ele>69</ele>
        <time>2021-05-29T10:10:35.000Z</time>
      </trkpt>
      <trkpt lat="47.15827" lon="-1.42483">
        <ele>70</ele>
        <time>2021-05-29T10:10:37.000Z</time>
      </trkpt>
      <trkpt lat="47.15827" lon="-1.42467">
        <ele>70</ele>
        <time>2021-05-29T10:10:39.000Z</time>
      </trkpt>
      <trkpt lat="47.15827" lon="-1.42452">
        <ele>71</ele>
        <time>2021-05-29T10:10:41.000Z</time>
      </trkpt>
      <trkpt lat="47.15827" lon="-1.42437">
        <ele>71</ele>
        <time>2021-05-29T10:10:43.000Z</time>
      </trkpt>
      <trkpt lat="47.15826" lon="-1.4242">
        <ele>71</ele>
        <time>2021-05-29T10:10:45.000Z</time>
      </trkpt>
      <trkpt lat="47.15827" lon="-1.42405">
        <ele>71</ele>
        <time>2021-05-29T10:10:47.000Z</time>
      </trkpt>
      <trkpt lat="47.15828" lon="-1.42387">
        <ele>72</ele>
        <time>2021-05-29T10:10:50.000Z</time>
      </trkpt>
      <trkpt lat="47.1583" lon="-1.42373">
        <ele>73</ele>
        <time>2021-05-29T10:10:52.000Z</time>
      </trkpt>
      <trkpt lat="47.15828" lon="-1.42352">
        <ele>72</ele>
        <time>2021-05-29T10:10:55.000Z</time>
      </trkpt>
      <trkpt lat="47.1583" lon="-1.42333">
        <ele>73</ele>
        <time>2021-05-29T10:10:58.000Z</time>
      </trkpt>
      <trkpt lat="47.15829" lon="-1.42318">
        <ele>73</ele>
        <time>2021-05-29T10:11:00.000Z</time>
      </trkpt>
      <trkpt lat="47.1583" lon="-1.42301">
        <ele>74</ele>
        <time>2021-05-29T10:11:03.000Z</time>
      </trkpt>
      <trkpt lat="47.15831" lon="-1.42282">
        <ele>76</ele>
        <time>2021-05-29T10:11:06.000Z</time>
      </trkpt>
      <trkpt lat="47.15833" lon="-1.4226">
        <ele>77</ele>
        <time>2021-05-29T10:11:10.000Z</time>
      </trkpt>
      <trkpt lat="47.15832" lon="-1.42241">
        <ele>78</ele>
        <time>2021-05-29T10:11:13.000Z</time>
      </trkpt>
      <trkpt lat="47.15833" lon="-1.42227">
        <ele>79</ele>
        <time>2021-05-29T10:11:15.000Z</time>
      </trkpt>
      <trkpt lat="47.15834" lon="-1.42209">
        <ele>80</ele>
        <time>2021-05-29T10:11:18.000Z</time>
      </trkpt>
      <trkpt lat="47.15835" lon="-1.42189">
        <ele>80</ele>
        <time>2021-05-29T10:11:21.000Z</time>
      </trkpt>
      <trkpt lat="47.15834" lon="-1.42165">
        <ele>80</ele>
        <time>2021-05-29T10:11:25.000Z</time>
      </trkpt>
      <trkpt lat="47.15835" lon="-1.42147">
        <ele>82</ele>
        <time>2021-05-29T10:11:28.000Z</time>
      </trkpt>
      <trkpt lat="47.15836" lon="-1.42128">
        <ele>82</ele>
        <time>2021-05-29T10:11:31.000Z</time>
      </trkpt>
      <trkpt lat="47.15837" lon="-1.4211">
        <ele>83</ele>
        <time>2021-05-29T10:11:34.000Z</time>
      </trkpt>
      <trkpt lat="47.15837" lon="-1.42093">
        <ele>84</ele>
        <time>2021-05-29T10:11:37.000Z</time>
      </trkpt>
      <trkpt lat="47.15838" lon="-1.42077">
        <ele>83</ele>
        <time>2021-05-29T10:11:40.000Z</time>
      </trkpt>
      <trkpt lat="47.15837" lon="-1.42059">
        <ele>84</ele>
        <time>2021-05-29T10:11:43.000Z</time>
      </trkpt>
      <trkpt lat="47.15837" lon="-1.4204">
        <ele>85</ele>
        <time>2021-05-29T10:11:46.000Z</time>
      </trkpt>
      <trkpt lat="47.15836" lon="-1.42022">
        <ele>86</ele>
        <time>2021-05-29T10:11:49.000Z</time>
      </trkpt>
      <trkpt lat="47.15837" lon="-1.42004">
        <ele>87</ele>
        <time>2021-05-29T10:11:52.000Z</time>
      </trkpt>
      <trkpt lat="47.15838" lon="-1.41991">
        <ele>86</ele>
        <time>2021-05-29T10:11:54.000Z</time>
      </trkpt>
      <trkpt lat="47.15838" lon="-1.41972">
        <ele>87</ele>
        <time>2021-05-29T10:11:57.000Z</time>
      </trkpt>
      <trkpt lat="47.15839" lon="-1.41954">
        <ele>88</ele>
        <time>2021-05-29T10:12:00.000Z</time>
      </trkpt>
      <trkpt lat="47.15839" lon="-1.41935">
        <ele>88</ele>
        <time>2021-05-29T10:12:03.000Z</time>
      </trkpt>
      <trkpt lat="47.15838" lon="-1.41917">
        <ele>90</ele>
        <time>2021-05-29T10:12:06.000Z</time>
      </trkpt>
      <trkpt lat="47.15838" lon="-1.41899">
        <ele>89</ele>
        <time>2021-05-29T10:12:09.000Z</time>
      </trkpt>
      <trkpt lat="47.15837" lon="-1.41886">
        <ele>88</ele>
        <time>2021-05-29T10:12:11.000Z</time>
      </trkpt>
      <trkpt lat="47.15836" lon="-1.41866">
        <ele>89</ele>
        <time>2021-05-29T10:12:14.000Z</time>
      </trkpt>
      <trkpt lat="47.15836" lon="-1.41853">
        <ele>90</ele>
        <time>2021-05-29T10:12:16.000Z</time>
      </trkpt>
      <trkpt lat="47.15834" lon="-1.41839">
        <ele>89</ele>
        <time>2021-05-29T10:12:18.000Z</time>
      </trkpt>
      <trkpt lat="47.15833" lon="-1.41826">
        <ele>90</ele>
        <time>2021-05-29T10:12:20.000Z</time>
      </trkpt>
      <trkpt lat="47.15833" lon="-1.41812">
        <ele>91</ele>
        <time>2021-05-29T10:12:22.000Z</time>
      </trkpt>
      <trkpt lat="47.15832" lon="-1.41793">
        <ele>91</ele>
        <time>2021-05-29T10:12:25.000Z</time>
      </trkpt>
      <trkpt lat="47.1583" lon="-1.41779">
        <ele>92</ele>
        <time>2021-05-29T10:12:27.000Z</time>
      </trkpt>
      <trkpt lat="47.15829" lon="-1.41766">
        <ele>92</ele>
        <time>2021-05-29T10:12:29.000Z</time>
      </trkpt>
      <trkpt lat="47.15828" lon="-1.41747">
        <ele>93</ele>
        <time>2021-05-29T10:12:32.000Z</time>
      </trkpt>
      <trkpt lat="47.15825" lon="-1.41728">
        <ele>93</ele>
        <time>2021-05-29T10:12:35.000Z</time>
      </trkpt>
      <trkpt lat="47.15824" lon="-1.41714">
        <ele>93</ele>
        <time>2021-05-29T10:12:37.000Z</time>
      </trkpt>
      <trkpt lat="47.15823" lon="-1.41701">
        <ele>93</ele>
        <time>2021-05-29T10:12:39.000Z</time>
      </trkpt>
      <trkpt lat="47.1582" lon="-1.41688">
        <ele>93</ele>
        <time>2021-05-29T10:12:41.000Z</time>
      </trkpt>
      <trkpt lat="47.15818" lon="-1.41674">
        <ele>92</ele>
        <time>2021-05-29T10:12:43.000Z</time>
      </trkpt>
      <trkpt lat="47.15814" lon="-1.41659">
        <ele>92</ele>
        <time>2021-05-29T10:12:45.000Z</time>
      </trkpt>
      <trkpt lat="47.15812" lon="-1.41645">
        <ele>92</ele>
        <time>2021-05-29T10:12:47.000Z</time>
      </trkpt>
      <trkpt lat="47.15809" lon="-1.41622">
        <ele>92</ele>
        <time>2021-05-29T10:12:50.000Z</time>
      </trkpt>
      <trkpt lat="47.15806" lon="-1.41606">
        <ele>93</ele>
        <time>2021-05-29T10:12:52.000Z</time>
      </trkpt>
      <trkpt lat="47.15802" lon="-1.4159">
        <ele>93</ele>
        <time>2021-05-29T10:12:54.000Z</time>
      </trkpt>
      <trkpt lat="47.15799" lon="-1.41574">
        <ele>93</ele>
        <time>2021-05-29T10:12:56.000Z</time>
      </trkpt>
      <trkpt lat="47.15796" lon="-1.41558">
        <ele>93</ele>
        <time>2021-05-29T10:12:58.000Z</time>
      </trkpt>
      <trkpt lat="47.15792" lon="-1.41543">
        <ele>93</ele>
        <time>2021-05-29T10:13:00.000Z</time>
      </trkpt>
      <trkpt lat="47.15787" lon="-1.41521">
        <ele>94</ele>
        <time>2021-05-29T10:13:03.000Z</time>
      </trkpt>
      <trkpt lat="47.15782" lon="-1.41505">
        <ele>94</ele>
        <time>2021-05-29T10:13:05.000Z</time>
      </trkpt>
      <trkpt lat="47.15778" lon="-1.4149">
        <ele>95</ele>
        <time>2021-05-29T10:13:07.000Z</time>
      </trkpt>
      <trkpt lat="47.15774" lon="-1.41475">
        <ele>94</ele>
        <time>2021-05-29T10:13:09.000Z</time>
      </trkpt>
      <trkpt lat="47.1577" lon="-1.41459">
        <ele>94</ele>
        <time>2021-05-29T10:13:11.000Z</time>
      </trkpt>
      <trkpt lat="47.15765" lon="-1.41444">
        <ele>94</ele>
        <time>2021-05-29T10:13:13.000Z</time>
      </trkpt>
      <trkpt lat="47.1576" lon="-1.41428">
        <ele>94</ele>
        <time>2021-05-29T10:13:15.000Z</time>
      </trkpt>
      <trkpt lat="47.15755" lon="-1.41412">
        <ele>93</ele>
        <time>2021-05-29T10:13:17.000Z</time>
      </trkpt>
      <trkpt lat="47.1575" lon="-1.41398">
        <ele>92</ele>
        <time>2021-05-29T10:13:19.000Z</time>
      </trkpt>
      <trkpt lat="47.15744" lon="-1.41383">
        <ele>92</ele>
        <time>2021-05-29T10:13:21.000Z</time>
      </trkpt>
      <trkpt lat="47.15739" lon="-1.41367">
        <ele>91</ele>
        <time>2021-05-29T10:13:23.000Z</time>
      </trkpt>
      <trkpt lat="47.15734" lon="-1.41351">
        <ele>91</ele>
        <time>2021-05-29T10:13:25.000Z</time>
      </trkpt>
      <trkpt lat="47.15728" lon="-1.41334">
        <ele>90</ele>
        <time>2021-05-29T10:13:27.000Z</time>
      </trkpt>
      <trkpt lat="47.15722" lon="-1.41318">
        <ele>91</ele>
        <time>2021-05-29T10:13:29.000Z</time>
      </trkpt>
      <trkpt lat="47.15716" lon="-1.41298">
        <ele>91</ele>
        <time>2021-05-29T10:13:31.000Z</time>
      </trkpt>
      <trkpt lat="47.15708" lon="-1.41272">
        <ele>91</ele>
        <time>2021-05-29T10:13:34.000Z</time>
      </trkpt>
      <trkpt lat="47.15702" lon="-1.41254">
        <ele>91</ele>
        <time>2021-05-29T10:13:36.000Z</time>
      </trkpt>
      <trkpt lat="47.15696" lon="-1.41236">
        <ele>90</ele>
        <time>2021-05-29T10:13:38.000Z</time>
      </trkpt>
      <trkpt lat="47.15691" lon="-1.41219">
        <ele>90</ele>
        <time>2021-05-29T10:13:40.000Z</time>
      </trkpt>
      <trkpt lat="47.15685" lon="-1.41204">
        <ele>90</ele>
        <time>2021-05-29T10:13:42.000Z</time>
      </trkpt>
      <trkpt lat="47.15679" lon="-1.41188">
        <ele>90</ele>
        <time>2021-05-29T10:13:44.000Z</time>
      </trkpt>
      <trkpt lat="47.15675" lon="-1.41171">
        <ele>90</ele>
        <time>2021-05-29T10:13:46.000Z</time>
      </trkpt>
      <trkpt lat="47.1567" lon="-1.41155">
        <ele>90</ele>
        <time>2021-05-29T10:13:48.000Z</time>
      </trkpt>
      <trkpt lat="47.15666" lon="-1.41138">
        <ele>90</ele>
        <time>2021-05-29T10:13:50.000Z</time>
      </trkpt>
      <trkpt lat="47.15662" lon="-1.41121">
        <ele>90</ele>
        <time>2021-05-29T10:13:52.000Z</time>
      </trkpt>
      <trkpt lat="47.15657" lon="-1.41103">
        <ele>90</ele>
        <time>2021-05-29T10:13:54.000Z</time>
      </trkpt>
      <trkpt lat="47.15653" lon="-1.41086">
        <ele>89</ele>
        <time>2021-05-29T10:13:56.000Z</time>
      </trkpt>
      <trkpt lat="47.15649" lon="-1.41068">
        <ele>89</ele>
        <time>2021-05-29T10:13:58.000Z</time>
      </trkpt>
      <trkpt lat="47.15645" lon="-1.41051">
        <ele>89</ele>
        <time>2021-05-29T10:14:00.000Z</time>
      </trkpt>
      <trkpt lat="47.15641" lon="-1.41033">
        <ele>89</ele>
        <time>2021-05-29T10:14:02.000Z</time>
      </trkpt>
      <trkpt lat="47.15637" lon="-1.41015">
        <ele>88</ele>
        <time>2021-05-29T10:14:04.000Z</time>
      </trkpt>
      <trkpt lat="47.15632" lon="-1.40997">
        <ele>89</ele>
        <time>2021-05-29T10:14:06.000Z</time>
      </trkpt>
      <trkpt lat="47.15627" lon="-1.4098">
        <ele>89</ele>
        <time>2021-05-29T10:14:08.000Z</time>
      </trkpt>
      <trkpt lat="47.15624" lon="-1.40961">
        <ele>89</ele>
        <time>2021-05-29T10:14:10.000Z</time>
      </trkpt>
      <trkpt lat="47.1562" lon="-1.40944">
        <ele>89</ele>
        <time>2021-05-29T10:14:12.000Z</time>
      </trkpt>
      <trkpt lat="47.15612" lon="-1.4092">
        <ele>90</ele>
        <time>2021-05-29T10:14:15.000Z</time>
      </trkpt>
      <trkpt lat="47.15606" lon="-1.40906">
        <ele>88</ele>
        <time>2021-05-29T10:14:17.000Z</time>
      </trkpt>
      <trkpt lat="47.15601" lon="-1.40889">
        <ele>88</ele>
        <time>2021-05-29T10:14:19.000Z</time>
      </trkpt>
      <trkpt lat="47.15597" lon="-1.40869">
        <ele>89</ele>
        <time>2021-05-29T10:14:21.000Z</time>
      </trkpt>
      <trkpt lat="47.15594" lon="-1.40852">
        <ele>88</ele>
        <time>2021-05-29T10:14:23.000Z</time>
      </trkpt>
      <trkpt lat="47.15588" lon="-1.40839">
        <ele>88</ele>
        <time>2021-05-29T10:14:25.000Z</time>
      </trkpt>
      <trkpt lat="47.15585" lon="-1.40819">
        <ele>88</ele>
        <time>2021-05-29T10:14:27.000Z</time>
      </trkpt>
      <trkpt lat="47.15582" lon="-1.40797">
        <ele>88</ele>
        <time>2021-05-29T10:14:29.000Z</time>
      </trkpt>
      <trkpt lat="47.15578" lon="-1.40778">
        <ele>89</ele>
        <time>2021-05-29T10:14:31.000Z</time>
      </trkpt>
      <trkpt lat="47.15574" lon="-1.40759">
        <ele>88</ele>
        <time>2021-05-29T10:14:33.000Z</time>
      </trkpt>
      <trkpt lat="47.15571" lon="-1.40742">
        <ele>88</ele>
        <time>2021-05-29T10:14:35.000Z</time>
      </trkpt>
      <trkpt lat="47.15568" lon="-1.40723">
        <ele>88</ele>
        <time>2021-05-29T10:14:37.000Z</time>
      </trkpt>
      <trkpt lat="47.15566" lon="-1.40705">
        <ele>88</ele>
        <time>2021-05-29T10:14:39.000Z</time>
      </trkpt>
      <trkpt lat="47.15563" lon="-1.40678">
        <ele>88</ele>
        <time>2021-05-29T10:14:42.000Z</time>
      </trkpt>
      <trkpt lat="47.15563" lon="-1.40652">
        <ele>87</ele>
        <time>2021-05-29T10:14:45.000Z</time>
      </trkpt>
      <trkpt lat="47.15562" lon="-1.40635">
        <ele>87</ele>
        <time>2021-05-29T10:14:47.000Z</time>
      </trkpt>
      <trkpt lat="47.1556" lon="-1.40619">
        <ele>86</ele>
        <time>2021-05-29T10:14:49.000Z</time>
      </trkpt>
      <trkpt lat="47.1556" lon="-1.40602">
        <ele>86</ele>
        <time>2021-05-29T10:14:51.000Z</time>
      </trkpt>
      <trkpt lat="47.15562" lon="-1.40584">
        <ele>86</ele>
        <time>2021-05-29T10:14:53.000Z</time>
      </trkpt>
      <trkpt lat="47.15562" lon="-1.40566">
        <ele>86</ele>
        <time>2021-05-29T10:14:55.000Z</time>
      </trkpt>
      <trkpt lat="47.1556" lon="-1.40547">
        <ele>85</ele>
        <time>2021-05-29T10:14:57.000Z</time>
      </trkpt>
      <trkpt lat="47.15564" lon="-1.40518">
        <ele>86</ele>
        <time>2021-05-29T10:15:00.000Z</time>
      </trkpt>
      <trkpt lat="47.15565" lon="-1.40499">
        <ele>86</ele>
        <time>2021-05-29T10:15:02.000Z</time>
      </trkpt>
      <trkpt lat="47.15565" lon="-1.40482">
        <ele>85</ele>
        <time>2021-05-29T10:15:04.000Z</time>
      </trkpt>
      <trkpt lat="47.15567" lon="-1.40463">
        <ele>84</ele>
        <time>2021-05-29T10:15:06.000Z</time>
      </trkpt>
      <trkpt lat="47.15568" lon="-1.40444">
        <ele>84</ele>
        <time>2021-05-29T10:15:08.000Z</time>
      </trkpt>
      <trkpt lat="47.1557" lon="-1.4041">
        <ele>82</ele>
        <time>2021-05-29T10:15:11.000Z</time>
      </trkpt>
      <trkpt lat="47.15572" lon="-1.40384">
        <ele>81</ele>
        <time>2021-05-29T10:15:13.000Z</time>
      </trkpt>
      <trkpt lat="47.15573" lon="-1.40369">
        <ele>80</ele>
        <time>2021-05-29T10:15:15.000Z</time>
      </trkpt>
      <trkpt lat="47.15574" lon="-1.40353">
        <ele>79</ele>
        <time>2021-05-29T10:15:17.000Z</time>
      </trkpt>
      <trkpt lat="47.15576" lon="-1.40335">
        <ele>79</ele>
        <time>2021-05-29T10:15:19.000Z</time>
      </trkpt>
      <trkpt lat="47.15574" lon="-1.40316">
        <ele>81</ele>
        <time>2021-05-29T10:15:21.000Z</time>
      </trkpt>
      <trkpt lat="47.15575" lon="-1.40293">
        <ele>81</ele>
        <time>2021-05-29T10:15:23.000Z</time>
      </trkpt>
      <trkpt lat="47.15576" lon="-1.40271">
        <ele>81</ele>
        <time>2021-05-29T10:15:25.000Z</time>
      </trkpt>
      <trkpt lat="47.15576" lon="-1.40248">
        <ele>80</ele>
        <time>2021-05-29T10:15:27.000Z</time>
      </trkpt>
      <trkpt lat="47.15577" lon="-1.40226">
        <ele>79</ele>
        <time>2021-05-29T10:15:29.000Z</time>
      </trkpt>
      <trkpt lat="47.15576" lon="-1.40203">
        <ele>79</ele>
        <time>2021-05-29T10:15:31.000Z</time>
      </trkpt>
      <trkpt lat="47.15573" lon="-1.4018">
        <ele>77</ele>
        <time>2021-05-29T10:15:33.000Z</time>
      </trkpt>
      <trkpt lat="47.15568" lon="-1.4016">
        <ele>76</ele>
        <time>2021-05-29T10:15:35.000Z</time>
      </trkpt>
      <trkpt lat="47.15558" lon="-1.40135">
        <ele>75</ele>
        <time>2021-05-29T10:15:38.000Z</time>
      </trkpt>
      <trkpt lat="47.15551" lon="-1.40117">
        <ele>73</ele>
        <time>2021-05-29T10:15:40.000Z</time>
      </trkpt>
      <trkpt lat="47.15544" lon="-1.40101">
        <ele>71</ele>
        <time>2021-05-29T10:15:42.000Z</time>
      </trkpt>
      <trkpt lat="47.15534" lon="-1.40086">
        <ele>72</ele>
        <time>2021-05-29T10:15:44.000Z</time>
      </trkpt>
      <trkpt lat="47.15525" lon="-1.4007">
        <ele>73</ele>
        <time>2021-05-29T10:15:46.000Z</time>
      </trkpt>
      <trkpt lat="47.15511" lon="-1.40055">
        <ele>73</ele>
        <time>2021-05-29T10:15:49.000Z</time>
      </trkpt>
      <trkpt lat="47.15499" lon="-1.40059">
        <ele>72</ele>
        <time>2021-05-29T10:15:51.000Z</time>
      </trkpt>
      <trkpt lat="47.15489" lon="-1.40072">
        <ele>73</ele>
        <time>2021-05-29T10:15:53.000Z</time>
      </trkpt>
      <trkpt lat="47.15478" lon="-1.40075">
        <ele>73</ele>
        <time>2021-05-29T10:15:55.000Z</time>
      </trkpt>
      <trkpt lat="47.15465" lon="-1.40058">
        <ele>74</ele>
        <time>2021-05-29T10:15:58.000Z</time>
      </trkpt>
      <trkpt lat="47.15461" lon="-1.40043">
        <ele>75</ele>
        <time>2021-05-29T10:16:00.000Z</time>
      </trkpt>
      <trkpt lat="47.15456" lon="-1.4002">
        <ele>75</ele>
        <time>2021-05-29T10:16:03.000Z</time>
      </trkpt>
      <trkpt lat="47.15454" lon="-1.40003">
        <ele>74</ele>
        <time>2021-05-29T10:16:06.000Z</time>
      </trkpt>
      <trkpt lat="47.1545" lon="-1.39988">
        <ele>74</ele>
        <time>2021-05-29T10:16:09.000Z</time>
      </trkpt>
      <trkpt lat="47.15451" lon="-1.39971">
        <ele>75</ele>
        <time>2021-05-29T10:16:12.000Z</time>
      </trkpt>
      <trkpt lat="47.15451" lon="-1.39954">
        <ele>75</ele>
        <time>2021-05-29T10:16:14.000Z</time>
      </trkpt>
      <trkpt lat="47.15448" lon="-1.39932">
        <ele>75</ele>
        <time>2021-05-29T10:16:17.000Z</time>
      </trkpt>
      <trkpt lat="47.15444" lon="-1.39919">
        <ele>76</ele>
        <time>2021-05-29T10:16:19.000Z</time>
      </trkpt>
      <trkpt lat="47.1544" lon="-1.39906">
        <ele>75</ele>
        <time>2021-05-29T10:16:21.000Z</time>
      </trkpt>
      <trkpt lat="47.15436" lon="-1.39893">
        <ele>76</ele>
        <time>2021-05-29T10:16:23.000Z</time>
      </trkpt>
      <trkpt lat="47.15429" lon="-1.39874">
        <ele>76</ele>
        <time>2021-05-29T10:16:26.000Z</time>
      </trkpt>
      <trkpt lat="47.15425" lon="-1.39861">
        <ele>77</ele>
        <time>2021-05-29T10:16:28.000Z</time>
      </trkpt>
      <trkpt lat="47.1542" lon="-1.39848">
        <ele>78</ele>
        <time>2021-05-29T10:16:30.000Z</time>
      </trkpt>
      <trkpt lat="47.15416" lon="-1.39835">
        <ele>79</ele>
        <time>2021-05-29T10:16:32.000Z</time>
      </trkpt>
      <trkpt lat="47.15412" lon="-1.39823">
        <ele>80</ele>
        <time>2021-05-29T10:16:34.000Z</time>
      </trkpt>
      <trkpt lat="47.15409" lon="-1.3981">
        <ele>80</ele>
        <time>2021-05-29T10:16:36.000Z</time>
      </trkpt>
      <trkpt lat="47.15405" lon="-1.39791">
        <ele>81</ele>
        <time>2021-05-29T10:16:39.000Z</time>
      </trkpt>
      <trkpt lat="47.15402" lon="-1.39779">
        <ele>82</ele>
        <time>2021-05-29T10:16:41.000Z</time>
      </trkpt>
      <trkpt lat="47.15404" lon="-1.39766">
        <ele>82</ele>
        <time>2021-05-29T10:16:43.000Z</time>
      </trkpt>
      <trkpt lat="47.15409" lon="-1.39753">
        <ele>83</ele>
        <time>2021-05-29T10:16:45.000Z</time>
      </trkpt>
      <trkpt lat="47.15413" lon="-1.39741">
        <ele>83</ele>
        <time>2021-05-29T10:16:47.000Z</time>
      </trkpt>
      <trkpt lat="47.15414" lon="-1.39725">
        <ele>82</ele>
        <time>2021-05-29T10:16:49.000Z</time>
      </trkpt>
      <trkpt lat="47.15414" lon="-1.3971">
        <ele>83</ele>
        <time>2021-05-29T10:16:51.000Z</time>
      </trkpt>
      <trkpt lat="47.15416" lon="-1.39696">
        <ele>84</ele>
        <time>2021-05-29T10:16:53.000Z</time>
      </trkpt>
      <trkpt lat="47.15416" lon="-1.39678">
        <ele>83</ele>
        <time>2021-05-29T10:16:56.000Z</time>
      </trkpt>
      <trkpt lat="47.15418" lon="-1.3966">
        <ele>82</ele>
        <time>2021-05-29T10:16:58.000Z</time>
      </trkpt>
      <trkpt lat="47.1542" lon="-1.39647">
        <ele>83</ele>
        <time>2021-05-29T10:17:00.000Z</time>
      </trkpt>
      <trkpt lat="47.15423" lon="-1.39626">
        <ele>84</ele>
        <time>2021-05-29T10:17:03.000Z</time>
      </trkpt>
      <trkpt lat="47.15423" lon="-1.3961">
        <ele>83</ele>
        <time>2021-05-29T10:17:05.000Z</time>
      </trkpt>
      <trkpt lat="47.15425" lon="-1.39597">
        <ele>83</ele>
        <time>2021-05-29T10:17:07.000Z</time>
      </trkpt>
      <trkpt lat="47.15421" lon="-1.39579">
        <ele>85</ele>
        <time>2021-05-29T10:17:10.000Z</time>
      </trkpt>
      <trkpt lat="47.15421" lon="-1.3956">
        <ele>86</ele>
        <time>2021-05-29T10:17:13.000Z</time>
      </trkpt>
      <trkpt lat="47.15427" lon="-1.39548">
        <ele>86</ele>
        <time>2021-05-29T10:17:15.000Z</time>
      </trkpt>
      <trkpt lat="47.15432" lon="-1.39535">
        <ele>87</ele>
        <time>2021-05-29T10:17:17.000Z</time>
      </trkpt>
      <trkpt lat="47.15432" lon="-1.39521">
        <ele>87</ele>
        <time>2021-05-29T10:17:19.000Z</time>
      </trkpt>
      <trkpt lat="47.15433" lon="-1.39506">
        <ele>88</ele>
        <time>2021-05-29T10:17:21.000Z</time>
      </trkpt>
      <trkpt lat="47.15436" lon="-1.39486">
        <ele>87</ele>
        <time>2021-05-29T10:17:24.000Z</time>
      </trkpt>
      <trkpt lat="47.15437" lon="-1.39471">
        <ele>88</ele>
        <time>2021-05-29T10:17:26.000Z</time>
      </trkpt>
      <trkpt lat="47.1544" lon="-1.39452">
        <ele>89</ele>
        <time>2021-05-29T10:17:29.000Z</time>
      </trkpt>
      <trkpt lat="47.15441" lon="-1.39439">
        <ele>90</ele>
        <time>2021-05-29T10:17:31.000Z</time>
      </trkpt>
      <trkpt lat="47.15442" lon="-1.39425">
        <ele>90</ele>
        <time>2021-05-29T10:17:33.000Z</time>
      </trkpt>
      <trkpt lat="47.15444" lon="-1.39411">
        <ele>91</ele>
        <time>2021-05-29T10:17:35.000Z</time>
      </trkpt>
      <trkpt lat="47.15444" lon="-1.39397">
        <ele>91</ele>
        <time>2021-05-29T10:17:37.000Z</time>
      </trkpt>
      <trkpt lat="47.15447" lon="-1.39376">
        <ele>92</ele>
        <time>2021-05-29T10:17:40.000Z</time>
      </trkpt>
      <trkpt lat="47.15447" lon="-1.39362">
        <ele>92</ele>
        <time>2021-05-29T10:17:42.000Z</time>
      </trkpt>
      <trkpt lat="47.15448" lon="-1.39349">
        <ele>93</ele>
        <time>2021-05-29T10:17:44.000Z</time>
      </trkpt>
      <trkpt lat="47.15452" lon="-1.39329">
        <ele>93</ele>
        <time>2021-05-29T10:17:47.000Z</time>
      </trkpt>
      <trkpt lat="47.15455" lon="-1.39316">
        <ele>94</ele>
        <time>2021-05-29T10:17:49.000Z</time>
      </trkpt>
      <trkpt lat="47.15456" lon="-1.39303">
        <ele>95</ele>
        <time>2021-05-29T10:17:51.000Z</time>
      </trkpt>
      <trkpt lat="47.15459" lon="-1.39283">
        <ele>96</ele>
        <time>2021-05-29T10:17:54.000Z</time>
      </trkpt>
      <trkpt lat="47.15461" lon="-1.39269">
        <ele>96</ele>
        <time>2021-05-29T10:17:56.000Z</time>
      </trkpt>
      <trkpt lat="47.15464" lon="-1.3925">
        <ele>97</ele>
        <time>2021-05-29T10:17:59.000Z</time>
      </trkpt>
      <trkpt lat="47.15466" lon="-1.3923">
        <ele>97</ele>
        <time>2021-05-29T10:18:02.000Z</time>
      </trkpt>
      <trkpt lat="47.15468" lon="-1.39217">
        <ele>97</ele>
        <time>2021-05-29T10:18:04.000Z</time>
      </trkpt>
      <trkpt lat="47.15471" lon="-1.39198">
        <ele>98</ele>
        <time>2021-05-29T10:18:07.000Z</time>
      </trkpt>
      <trkpt lat="47.1547" lon="-1.39177">
        <ele>99</ele>
        <time>2021-05-29T10:18:10.000Z</time>
      </trkpt>
      <trkpt lat="47.15475" lon="-1.39164">
        <ele>100</ele>
        <time>2021-05-29T10:18:12.000Z</time>
      </trkpt>
      <trkpt lat="47.15478" lon="-1.39151">
        <ele>99</ele>
        <time>2021-05-29T10:18:14.000Z</time>
      </trkpt>
      <trkpt lat="47.15481" lon="-1.39138">
        <ele>98</ele>
        <time>2021-05-29T10:18:16.000Z</time>
      </trkpt>
      <trkpt lat="47.15484" lon="-1.39124">
        <ele>99</ele>
        <time>2021-05-29T10:18:18.000Z</time>
      </trkpt>
      <trkpt lat="47.15486" lon="-1.39103">
        <ele>100</ele>
        <time>2021-05-29T10:18:21.000Z</time>
      </trkpt>
      <trkpt lat="47.15485" lon="-1.39089">
        <ele>99</ele>
        <time>2021-05-29T10:18:23.000Z</time>
      </trkpt>
      <trkpt lat="47.15489" lon="-1.39071">
        <ele>101</ele>
        <time>2021-05-29T10:18:26.000Z</time>
      </trkpt>
      <trkpt lat="47.15491" lon="-1.39051">
        <ele>101</ele>
        <time>2021-05-29T10:18:29.000Z</time>
      </trkpt>
      <trkpt lat="47.15492" lon="-1.39034">
        <ele>98</ele>
        <time>2021-05-29T10:18:31.000Z</time>
      </trkpt>
      <trkpt lat="47.15497" lon="-1.39012">
        <ele>100</ele>
        <time>2021-05-29T10:18:35.000Z</time>
      </trkpt>
      <trkpt lat="47.15501" lon="-1.38994">
        <ele>100</ele>
        <time>2021-05-29T10:18:38.000Z</time>
      </trkpt>
      <trkpt lat="47.15504" lon="-1.38981">
        <ele>100</ele>
        <time>2021-05-29T10:18:40.000Z</time>
      </trkpt>
      <trkpt lat="47.15507" lon="-1.38967">
        <ele>99</ele>
        <time>2021-05-29T10:18:42.000Z</time>
      </trkpt>
      <trkpt lat="47.15513" lon="-1.38948">
        <ele>100</ele>
        <time>2021-05-29T10:18:45.000Z</time>
      </trkpt>
      <trkpt lat="47.15516" lon="-1.38933">
        <ele>99</ele>
        <time>2021-05-29T10:18:47.000Z</time>
      </trkpt>
      <trkpt lat="47.15521" lon="-1.3892">
        <ele>99</ele>
        <time>2021-05-29T10:18:49.000Z</time>
      </trkpt>
      <trkpt lat="47.15531" lon="-1.38901">
        <ele>99</ele>
        <time>2021-05-29T10:18:52.000Z</time>
      </trkpt>
      <trkpt lat="47.15535" lon="-1.38886">
        <ele>99</ele>
        <time>2021-05-29T10:18:54.000Z</time>
      </trkpt>
      <trkpt lat="47.15541" lon="-1.38871">
        <ele>99</ele>
        <time>2021-05-29T10:18:56.000Z</time>
      </trkpt>
      <trkpt lat="47.15547" lon="-1.38858">
        <ele>98</ele>
        <time>2021-05-29T10:18:58.000Z</time>
      </trkpt>
      <trkpt lat="47.15554" lon="-1.38844">
        <ele>98</ele>
        <time>2021-05-29T10:19:00.000Z</time>
      </trkpt>
      <trkpt lat="47.1556" lon="-1.38828">
        <ele>98</ele>
        <time>2021-05-29T10:19:02.000Z</time>
      </trkpt>
      <trkpt lat="47.15565" lon="-1.38812">
        <ele>99</ele>
        <time>2021-05-29T10:19:04.000Z</time>
      </trkpt>
      <trkpt lat="47.15571" lon="-1.38797">
        <ele>99</ele>
        <time>2021-05-29T10:19:06.000Z</time>
      </trkpt>
      <trkpt lat="47.15579" lon="-1.38785">
        <ele>99</ele>
        <time>2021-05-29T10:19:08.000Z</time>
      </trkpt>
      <trkpt lat="47.15585" lon="-1.38771">
        <ele>98</ele>
        <time>2021-05-29T10:19:10.000Z</time>
      </trkpt>
      <trkpt lat="47.15591" lon="-1.38755">
        <ele>98</ele>
        <time>2021-05-29T10:19:12.000Z</time>
      </trkpt>
      <trkpt lat="47.15603" lon="-1.3873">
        <ele>96</ele>
        <time>2021-05-29T10:19:15.000Z</time>
      </trkpt>
      <trkpt lat="47.15613" lon="-1.38706">
        <ele>95</ele>
        <time>2021-05-29T10:19:18.000Z</time>
      </trkpt>
      <trkpt lat="47.1562" lon="-1.38689">
        <ele>94</ele>
        <time>2021-05-29T10:19:20.000Z</time>
      </trkpt>
      <trkpt lat="47.15627" lon="-1.3867">
        <ele>94</ele>
        <time>2021-05-29T10:19:22.000Z</time>
      </trkpt>
      <trkpt lat="47.15635" lon="-1.38652">
        <ele>94</ele>
        <time>2021-05-29T10:19:24.000Z</time>
      </trkpt>
      <trkpt lat="47.15643" lon="-1.38633">
        <ele>93</ele>
        <time>2021-05-29T10:19:26.000Z</time>
      </trkpt>
      <trkpt lat="47.15651" lon="-1.38614">
        <ele>93</ele>
        <time>2021-05-29T10:19:28.000Z</time>
      </trkpt>
      <trkpt lat="47.15659" lon="-1.38595">
        <ele>93</ele>
        <time>2021-05-29T10:19:30.000Z</time>
      </trkpt>
      <trkpt lat="47.15667" lon="-1.38575">
        <ele>92</ele>
        <time>2021-05-29T10:19:32.000Z</time>
      </trkpt>
      <trkpt lat="47.15675" lon="-1.38553">
        <ele>91</ele>
        <time>2021-05-29T10:19:34.000Z</time>
      </trkpt>
      <trkpt lat="47.15682" lon="-1.38532">
        <ele>91</ele>
        <time>2021-05-29T10:19:36.000Z</time>
      </trkpt>
      <trkpt lat="47.15693" lon="-1.385">
        <ele>89</ele>
        <time>2021-05-29T10:19:39.000Z</time>
      </trkpt>
      <trkpt lat="47.15698" lon="-1.38478">
        <ele>88</ele>
        <time>2021-05-29T10:19:41.000Z</time>
      </trkpt>
      <trkpt lat="47.157" lon="-1.38456">
        <ele>88</ele>
        <time>2021-05-29T10:19:43.000Z</time>
      </trkpt>
      <trkpt lat="47.15696" lon="-1.38431">
        <ele>88</ele>
        <time>2021-05-29T10:19:45.000Z</time>
      </trkpt>
      <trkpt lat="47.15693" lon="-1.38407">
        <ele>87</ele>
        <time>2021-05-29T10:19:47.000Z</time>
      </trkpt>
      <trkpt lat="47.15689" lon="-1.38381">
        <ele>87</ele>
        <time>2021-05-29T10:19:49.000Z</time>
      </trkpt>
      <trkpt lat="47.15681" lon="-1.38349">
        <ele>84</ele>
        <time>2021-05-29T10:19:52.000Z</time>
      </trkpt>
      <trkpt lat="47.15674" lon="-1.38317">
        <ele>84</ele>
        <time>2021-05-29T10:19:55.000Z</time>
      </trkpt>
      <trkpt lat="47.15668" lon="-1.38284">
        <ele>83</ele>
        <time>2021-05-29T10:19:58.000Z</time>
      </trkpt>
      <trkpt lat="47.15667" lon="-1.38265">
        <ele>83</ele>
        <time>2021-05-29T10:20:00.000Z</time>
      </trkpt>
      <trkpt lat="47.15675" lon="-1.38247">
        <ele>82</ele>
        <time>2021-05-29T10:20:02.000Z</time>
      </trkpt>
      <trkpt lat="47.15684" lon="-1.38231">
        <ele>82</ele>
        <time>2021-05-29T10:20:04.000Z</time>
      </trkpt>
      <trkpt lat="47.15693" lon="-1.38211">
        <ele>83</ele>
        <time>2021-05-29T10:20:07.000Z</time>
      </trkpt>
      <trkpt lat="47.15695" lon="-1.38196">
        <ele>83</ele>
        <time>2021-05-29T10:20:10.000Z</time>
      </trkpt>
      <trkpt lat="47.15699" lon="-1.38181">
        <ele>83</ele>
        <time>2021-05-29T10:20:15.000Z</time>
      </trkpt>
      <trkpt lat="47.15711" lon="-1.38189">
        <ele>83</ele>
        <time>2021-05-29T10:20:17.000Z</time>
      </trkpt>
      <trkpt lat="47.15724" lon="-1.38197">
        <ele>83</ele>
        <time>2021-05-29T10:20:19.000Z</time>
      </trkpt>
      <trkpt lat="47.15743" lon="-1.38209">
        <ele>83</ele>
        <time>2021-05-29T10:20:22.000Z</time>
      </trkpt>
      <trkpt lat="47.15752" lon="-1.38192">
        <ele>82</ele>
        <time>2021-05-29T10:20:24.000Z</time>
      </trkpt>
      <trkpt lat="47.15759" lon="-1.38171">
        <ele>81</ele>
        <time>2021-05-29T10:20:26.000Z</time>
      </trkpt>
      <trkpt lat="47.15766" lon="-1.38143">
        <ele>81</ele>
        <time>2021-05-29T10:20:29.000Z</time>
      </trkpt>
      <trkpt lat="47.15771" lon="-1.38124">
        <ele>81</ele>
        <time>2021-05-29T10:20:31.000Z</time>
      </trkpt>
      <trkpt lat="47.15776" lon="-1.38104">
        <ele>80</ele>
        <time>2021-05-29T10:20:33.000Z</time>
      </trkpt>
      <trkpt lat="47.1578" lon="-1.38083">
        <ele>78</ele>
        <time>2021-05-29T10:20:35.000Z</time>
      </trkpt>
      <trkpt lat="47.15781" lon="-1.38061">
        <ele>76</ele>
        <time>2021-05-29T10:20:37.000Z</time>
      </trkpt>
      <trkpt lat="47.15784" lon="-1.38042">
        <ele>76</ele>
        <time>2021-05-29T10:20:39.000Z</time>
      </trkpt>
      <trkpt lat="47.15787" lon="-1.38022">
        <ele>75</ele>
        <time>2021-05-29T10:20:41.000Z</time>
      </trkpt>
      <trkpt lat="47.15789" lon="-1.38002">
        <ele>75</ele>
        <time>2021-05-29T10:20:43.000Z</time>
      </trkpt>
      <trkpt lat="47.1579" lon="-1.37973">
        <ele>74</ele>
        <time>2021-05-29T10:20:46.000Z</time>
      </trkpt>
      <trkpt lat="47.1579" lon="-1.37953">
        <ele>73</ele>
        <time>2021-05-29T10:20:48.000Z</time>
      </trkpt>
      <trkpt lat="47.1579" lon="-1.37933">
        <ele>72</ele>
        <time>2021-05-29T10:20:50.000Z</time>
      </trkpt>
      <trkpt lat="47.15789" lon="-1.37913">
        <ele>72</ele>
        <time>2021-05-29T10:20:52.000Z</time>
      </trkpt>
      <trkpt lat="47.15788" lon="-1.37893">
        <ele>71</ele>
        <time>2021-05-29T10:20:54.000Z</time>
      </trkpt>
      <trkpt lat="47.15785" lon="-1.37871">
        <ele>71</ele>
        <time>2021-05-29T10:20:56.000Z</time>
      </trkpt>
      <trkpt lat="47.15783" lon="-1.37852">
        <ele>70</ele>
        <time>2021-05-29T10:20:58.000Z</time>
      </trkpt>
      <trkpt lat="47.15779" lon="-1.37832">
        <ele>68</ele>
        <time>2021-05-29T10:21:00.000Z</time>
      </trkpt>
      <trkpt lat="47.15778" lon="-1.37812">
        <ele>67</ele>
        <time>2021-05-29T10:21:02.000Z</time>
      </trkpt>
      <trkpt lat="47.15779" lon="-1.3779">
        <ele>66</ele>
        <time>2021-05-29T10:21:04.000Z</time>
      </trkpt>
      <trkpt lat="47.15777" lon="-1.37761">
        <ele>63</ele>
        <time>2021-05-29T10:21:07.000Z</time>
      </trkpt>
      <trkpt lat="47.15777" lon="-1.37739">
        <ele>62</ele>
        <time>2021-05-29T10:21:09.000Z</time>
      </trkpt>
      <trkpt lat="47.15782" lon="-1.37722">
        <ele>62</ele>
        <time>2021-05-29T10:21:11.000Z</time>
      </trkpt>
      <trkpt lat="47.15793" lon="-1.37707">
        <ele>61</ele>
        <time>2021-05-29T10:21:13.000Z</time>
      </trkpt>
      <trkpt lat="47.15805" lon="-1.37695">
        <ele>60</ele>
        <time>2021-05-29T10:21:15.000Z</time>
      </trkpt>
      <trkpt lat="47.15813" lon="-1.3768">
        <ele>61</ele>
        <time>2021-05-29T10:21:17.000Z</time>
      </trkpt>
      <trkpt lat="47.15821" lon="-1.37663">
        <ele>61</ele>
        <time>2021-05-29T10:21:19.000Z</time>
      </trkpt>
      <trkpt lat="47.15831" lon="-1.37647">
        <ele>62</ele>
        <time>2021-05-29T10:21:21.000Z</time>
      </trkpt>
      <trkpt lat="47.15847" lon="-1.37626">
        <ele>62</ele>
        <time>2021-05-29T10:21:24.000Z</time>
      </trkpt>
      <trkpt lat="47.15855" lon="-1.37609">
        <ele>62</ele>
        <time>2021-05-29T10:21:26.000Z</time>
      </trkpt>
      <trkpt lat="47.15861" lon="-1.3759">
        <ele>62</ele>
        <time>2021-05-29T10:21:28.000Z</time>
      </trkpt>
      <trkpt lat="47.15865" lon="-1.3757">
        <ele>62</ele>
        <time>2021-05-29T10:21:30.000Z</time>
      </trkpt>
      <trkpt lat="47.15869" lon="-1.37551">
        <ele>60</ele>
        <time>2021-05-29T10:21:32.000Z</time>
      </trkpt>
      <trkpt lat="47.15873" lon="-1.37532">
        <ele>61</ele>
        <time>2021-05-29T10:21:34.000Z</time>
      </trkpt>
      <trkpt lat="47.15879" lon="-1.37513">
        <ele>61</ele>
        <time>2021-05-29T10:21:36.000Z</time>
      </trkpt>
      <trkpt lat="47.15888" lon="-1.37496">
        <ele>62</ele>
        <time>2021-05-29T10:21:38.000Z</time>
      </trkpt>
      <trkpt lat="47.15897" lon="-1.37482">
        <ele>62</ele>
        <time>2021-05-29T10:21:40.000Z</time>
      </trkpt>
      <trkpt lat="47.15905" lon="-1.37468">
        <ele>63</ele>
        <time>2021-05-29T10:21:42.000Z</time>
      </trkpt>
      <trkpt lat="47.15905" lon="-1.37441">
        <ele>62</ele>
        <time>2021-05-29T10:21:45.000Z</time>
      </trkpt>
      <trkpt lat="47.159" lon="-1.37424">
        <ele>63</ele>
        <time>2021-05-29T10:21:47.000Z</time>
      </trkpt>
      <trkpt lat="47.15896" lon="-1.37407">
        <ele>63</ele>
        <time>2021-05-29T10:21:49.000Z</time>
      </trkpt>
      <trkpt lat="47.15892" lon="-1.37388">
        <ele>64</ele>
        <time>2021-05-29T10:21:51.000Z</time>
      </trkpt>
      <trkpt lat="47.15888" lon="-1.37371">
        <ele>63</ele>
        <time>2021-05-29T10:21:53.000Z</time>
      </trkpt>
      <trkpt lat="47.15883" lon="-1.37355">
        <ele>64</ele>
        <time>2021-05-29T10:21:55.000Z</time>
      </trkpt>
      <trkpt lat="47.15879" lon="-1.37337">
        <ele>64</ele>
        <time>2021-05-29T10:21:57.000Z</time>
      </trkpt>
      <trkpt lat="47.15874" lon="-1.3732">
        <ele>65</ele>
        <time>2021-05-29T10:21:59.000Z</time>
      </trkpt>
      <trkpt lat="47.1587" lon="-1.37301">
        <ele>66</ele>
        <time>2021-05-29T10:22:01.000Z</time>
      </trkpt>
      <trkpt lat="47.15867" lon="-1.37283">
        <ele>66</ele>
        <time>2021-05-29T10:22:03.000Z</time>
      </trkpt>
      <trkpt lat="47.15864" lon="-1.37265">
        <ele>67</ele>
        <time>2021-05-29T10:22:05.000Z</time>
      </trkpt>
      <trkpt lat="47.1586" lon="-1.37247">
        <ele>66</ele>
        <time>2021-05-29T10:22:07.000Z</time>
      </trkpt>
      <trkpt lat="47.15856" lon="-1.37231">
        <ele>65</ele>
        <time>2021-05-29T10:22:09.000Z</time>
      </trkpt>
      <trkpt lat="47.15851" lon="-1.37215">
        <ele>65</ele>
        <time>2021-05-29T10:22:11.000Z</time>
      </trkpt>
      <trkpt lat="47.15847" lon="-1.37195">
        <ele>65</ele>
        <time>2021-05-29T10:22:13.000Z</time>
      </trkpt>
      <trkpt lat="47.15843" lon="-1.37177">
        <ele>65</ele>
        <time>2021-05-29T10:22:15.000Z</time>
      </trkpt>
      <trkpt lat="47.15836" lon="-1.37161">
        <ele>66</ele>
        <time>2021-05-29T10:22:17.000Z</time>
      </trkpt>
      <trkpt lat="47.15823" lon="-1.37141">
        <ele>65</ele>
        <time>2021-05-29T10:22:20.000Z</time>
      </trkpt>
      <trkpt lat="47.15814" lon="-1.37127">
        <ele>65</ele>
        <time>2021-05-29T10:22:22.000Z</time>
      </trkpt>
      <trkpt lat="47.15807" lon="-1.37113">
        <ele>65</ele>
        <time>2021-05-29T10:22:24.000Z</time>
      </trkpt>
      <trkpt lat="47.15801" lon="-1.371">
        <ele>66</ele>
        <time>2021-05-29T10:22:26.000Z</time>
      </trkpt>
      <trkpt lat="47.15792" lon="-1.3708">
        <ele>66</ele>
        <time>2021-05-29T10:22:29.000Z</time>
      </trkpt>
      <trkpt lat="47.15786" lon="-1.37066">
        <ele>67</ele>
        <time>2021-05-29T10:22:31.000Z</time>
      </trkpt>
      <trkpt lat="47.1578" lon="-1.37052">
        <ele>67</ele>
        <time>2021-05-29T10:22:33.000Z</time>
      </trkpt>
      <trkpt lat="47.15774" lon="-1.37038">
        <ele>67</ele>
        <time>2021-05-29T10:22:35.000Z</time>
      </trkpt>
      <trkpt lat="47.15767" lon="-1.37025">
        <ele>67</ele>
        <time>2021-05-29T10:22:37.000Z</time>
      </trkpt>
      <trkpt lat="47.15761" lon="-1.37012">
        <ele>68</ele>
        <time>2021-05-29T10:22:39.000Z</time>
      </trkpt>
      <trkpt lat="47.15752" lon="-1.37">
        <ele>68</ele>
        <time>2021-05-29T10:22:41.000Z</time>
      </trkpt>
      <trkpt lat="47.15743" lon="-1.36991">
        <ele>68</ele>
        <time>2021-05-29T10:22:43.000Z</time>
      </trkpt>
      <trkpt lat="47.15729" lon="-1.36978">
        <ele>69</ele>
        <time>2021-05-29T10:22:46.000Z</time>
      </trkpt>
      <trkpt lat="47.15719" lon="-1.3697">
        <ele>70</ele>
        <time>2021-05-29T10:22:48.000Z</time>
      </trkpt>
      <trkpt lat="47.15711" lon="-1.36961">
        <ele>70</ele>
        <time>2021-05-29T10:22:50.000Z</time>
      </trkpt>
      <trkpt lat="47.15701" lon="-1.36952">
        <ele>71</ele>
        <time>2021-05-29T10:22:52.000Z</time>
      </trkpt>
      <trkpt lat="47.15692" lon="-1.36942">
        <ele>73</ele>
        <time>2021-05-29T10:22:54.000Z</time>
      </trkpt>
      <trkpt lat="47.15684" lon="-1.36933">
        <ele>73</ele>
        <time>2021-05-29T10:22:56.000Z</time>
      </trkpt>
      <trkpt lat="47.15675" lon="-1.36923">
        <ele>74</ele>
        <time>2021-05-29T10:22:58.000Z</time>
      </trkpt>
      <trkpt lat="47.15668" lon="-1.3691">
        <ele>74</ele>
        <time>2021-05-29T10:23:00.000Z</time>
      </trkpt>
      <trkpt lat="47.15661" lon="-1.36898">
        <ele>75</ele>
        <time>2021-05-29T10:23:02.000Z</time>
      </trkpt>
      <trkpt lat="47.15654" lon="-1.36885">
        <ele>75</ele>
        <time>2021-05-29T10:23:04.000Z</time>
      </trkpt>
      <trkpt lat="47.15646" lon="-1.36872">
        <ele>75</ele>
        <time>2021-05-29T10:23:06.000Z</time>
      </trkpt>
      <trkpt lat="47.15639" lon="-1.36861">
        <ele>74</ele>
        <time>2021-05-29T10:23:08.000Z</time>
      </trkpt>
      <trkpt lat="47.15632" lon="-1.36849">
        <ele>76</ele>
        <time>2021-05-29T10:23:10.000Z</time>
      </trkpt>
      <trkpt lat="47.15625" lon="-1.36835">
        <ele>76</ele>
        <time>2021-05-29T10:23:12.000Z</time>
      </trkpt>
      <trkpt lat="47.15617" lon="-1.36823">
        <ele>76</ele>
        <time>2021-05-29T10:23:14.000Z</time>
      </trkpt>
      <trkpt lat="47.1561" lon="-1.3681">
        <ele>76</ele>
        <time>2021-05-29T10:23:16.000Z</time>
      </trkpt>
      <trkpt lat="47.15599" lon="-1.36792">
        <ele>77</ele>
        <time>2021-05-29T10:23:19.000Z</time>
      </trkpt>
      <trkpt lat="47.15592" lon="-1.36777">
        <ele>77</ele>
        <time>2021-05-29T10:23:21.000Z</time>
      </trkpt>
      <trkpt lat="47.15588" lon="-1.36762">
        <ele>76</ele>
        <time>2021-05-29T10:23:23.000Z</time>
      </trkpt>
      <trkpt lat="47.15584" lon="-1.36746">
        <ele>76</ele>
        <time>2021-05-29T10:23:25.000Z</time>
      </trkpt>
      <trkpt lat="47.1558" lon="-1.36729">
        <ele>76</ele>
        <time>2021-05-29T10:23:27.000Z</time>
      </trkpt>
      <trkpt lat="47.15576" lon="-1.36712">
        <ele>75</ele>
        <time>2021-05-29T10:23:29.000Z</time>
      </trkpt>
      <trkpt lat="47.15572" lon="-1.36696">
        <ele>74</ele>
        <time>2021-05-29T10:23:31.000Z</time>
      </trkpt>
      <trkpt lat="47.15567" lon="-1.36671">
        <ele>74</ele>
        <time>2021-05-29T10:23:34.000Z</time>
      </trkpt>
      <trkpt lat="47.15565" lon="-1.36654">
        <ele>74</ele>
        <time>2021-05-29T10:23:36.000Z</time>
      </trkpt>
      <trkpt lat="47.15563" lon="-1.36637">
        <ele>74</ele>
        <time>2021-05-29T10:23:38.000Z</time>
      </trkpt>
      <trkpt lat="47.1556" lon="-1.3662">
        <ele>74</ele>
        <time>2021-05-29T10:23:40.000Z</time>
      </trkpt>
      <trkpt lat="47.15558" lon="-1.36603">
        <ele>73</ele>
        <time>2021-05-29T10:23:42.000Z</time>
      </trkpt>
      <trkpt lat="47.15554" lon="-1.36578">
        <ele>74</ele>
        <time>2021-05-29T10:23:45.000Z</time>
      </trkpt>
      <trkpt lat="47.15551" lon="-1.36562">
        <ele>74</ele>
        <time>2021-05-29T10:23:47.000Z</time>
      </trkpt>
      <trkpt lat="47.15545" lon="-1.36539">
        <ele>74</ele>
        <time>2021-05-29T10:23:50.000Z</time>
      </trkpt>
      <trkpt lat="47.15538" lon="-1.36526">
        <ele>75</ele>
        <time>2021-05-29T10:23:52.000Z</time>
      </trkpt>
      <trkpt lat="47.1553" lon="-1.36514">
        <ele>76</ele>
        <time>2021-05-29T10:23:54.000Z</time>
      </trkpt>
      <trkpt lat="47.15516" lon="-1.36498">
        <ele>76</ele>
        <time>2021-05-29T10:23:57.000Z</time>
      </trkpt>
      <trkpt lat="47.15508" lon="-1.36485">
        <ele>77</ele>
        <time>2021-05-29T10:23:59.000Z</time>
      </trkpt>
      <trkpt lat="47.15499" lon="-1.36462">
        <ele>77</ele>
        <time>2021-05-29T10:24:02.000Z</time>
      </trkpt>
      <trkpt lat="47.15495" lon="-1.36448">
        <ele>78</ele>
        <time>2021-05-29T10:24:04.000Z</time>
      </trkpt>
      <trkpt lat="47.15494" lon="-1.3643">
        <ele>78</ele>
        <time>2021-05-29T10:24:06.000Z</time>
      </trkpt>
      <trkpt lat="47.15493" lon="-1.36411">
        <ele>77</ele>
        <time>2021-05-29T10:24:08.000Z</time>
      </trkpt>
      <trkpt lat="47.15492" lon="-1.36393">
        <ele>77</ele>
        <time>2021-05-29T10:24:10.000Z</time>
      </trkpt>
      <trkpt lat="47.15492" lon="-1.36376">
        <ele>76</ele>
        <time>2021-05-29T10:24:12.000Z</time>
      </trkpt>
      <trkpt lat="47.15491" lon="-1.36358">
        <ele>77</ele>
        <time>2021-05-29T10:24:14.000Z</time>
      </trkpt>
      <trkpt lat="47.15491" lon="-1.36332">
        <ele>77</ele>
        <time>2021-05-29T10:24:17.000Z</time>
      </trkpt>
      <trkpt lat="47.1549" lon="-1.36317">
        <ele>77</ele>
        <time>2021-05-29T10:24:19.000Z</time>
      </trkpt>
      <trkpt lat="47.1549" lon="-1.363">
        <ele>76</ele>
        <time>2021-05-29T10:24:21.000Z</time>
      </trkpt>
      <trkpt lat="47.15487" lon="-1.36283">
        <ele>77</ele>
        <time>2021-05-29T10:24:23.000Z</time>
      </trkpt>
      <trkpt lat="47.15483" lon="-1.36266">
        <ele>77</ele>
        <time>2021-05-29T10:24:25.000Z</time>
      </trkpt>
      <trkpt lat="47.1548" lon="-1.36249">
        <ele>76</ele>
        <time>2021-05-29T10:24:27.000Z</time>
      </trkpt>
      <trkpt lat="47.15477" lon="-1.36231">
        <ele>76</ele>
        <time>2021-05-29T10:24:29.000Z</time>
      </trkpt>
      <trkpt lat="47.15472" lon="-1.36204">
        <ele>75</ele>
        <time>2021-05-29T10:24:32.000Z</time>
      </trkpt>
      <trkpt lat="47.15469" lon="-1.36185">
        <ele>75</ele>
        <time>2021-05-29T10:24:34.000Z</time>
      </trkpt>
      <trkpt lat="47.15466" lon="-1.36167">
        <ele>75</ele>
        <time>2021-05-29T10:24:36.000Z</time>
      </trkpt>
      <trkpt lat="47.1546" lon="-1.36129">
        <ele>75</ele>
        <time>2021-05-29T10:24:40.000Z</time>
      </trkpt>
      <trkpt lat="47.15455" lon="-1.36108">
        <ele>74</ele>
        <time>2021-05-29T10:24:42.000Z</time>
      </trkpt>
      <trkpt lat="47.15452" lon="-1.36091">
        <ele>75</ele>
        <time>2021-05-29T10:24:44.000Z</time>
      </trkpt>
      <trkpt lat="47.15448" lon="-1.36073">
        <ele>75</ele>
        <time>2021-05-29T10:24:46.000Z</time>
      </trkpt>
      <trkpt lat="47.15444" lon="-1.36054">
        <ele>75</ele>
        <time>2021-05-29T10:24:48.000Z</time>
      </trkpt>
      <trkpt lat="47.15439" lon="-1.36037">
        <ele>76</ele>
        <time>2021-05-29T10:24:50.000Z</time>
      </trkpt>
      <trkpt lat="47.15436" lon="-1.36019">
        <ele>77</ele>
        <time>2021-05-29T10:24:52.000Z</time>
      </trkpt>
      <trkpt lat="47.15433" lon="-1.36001">
        <ele>77</ele>
        <time>2021-05-29T10:24:54.000Z</time>
      </trkpt>
      <trkpt lat="47.15429" lon="-1.35984">
        <ele>77</ele>
        <time>2021-05-29T10:24:56.000Z</time>
      </trkpt>
      <trkpt lat="47.15426" lon="-1.35968">
        <ele>77</ele>
        <time>2021-05-29T10:24:58.000Z</time>
      </trkpt>
      <trkpt lat="47.15422" lon="-1.3595">
        <ele>77</ele>
        <time>2021-05-29T10:25:00.000Z</time>
      </trkpt>
      <trkpt lat="47.15419" lon="-1.35934">
        <ele>77</ele>
        <time>2021-05-29T10:25:02.000Z</time>
      </trkpt>
      <trkpt lat="47.15412" lon="-1.35909">
        <ele>77</ele>
        <time>2021-05-29T10:25:05.000Z</time>
      </trkpt>
      <trkpt lat="47.15404" lon="-1.35882">
        <ele>78</ele>
        <time>2021-05-29T10:25:08.000Z</time>
      </trkpt>
      <trkpt lat="47.15398" lon="-1.35867">
        <ele>78</ele>
        <time>2021-05-29T10:25:10.000Z</time>
      </trkpt>
      <trkpt lat="47.15392" lon="-1.35852">
        <ele>78</ele>
        <time>2021-05-29T10:25:12.000Z</time>
      </trkpt>
      <trkpt lat="47.15385" lon="-1.35837">
        <ele>78</ele>
        <time>2021-05-29T10:25:14.000Z</time>
      </trkpt>
      <trkpt lat="47.15377" lon="-1.35823">
        <ele>78</ele>
        <time>2021-05-29T10:25:16.000Z</time>
      </trkpt>
      <trkpt lat="47.15369" lon="-1.35809">
        <ele>78</ele>
        <time>2021-05-29T10:25:18.000Z</time>
      </trkpt>
      <trkpt lat="47.1536" lon="-1.35797">
        <ele>78</ele>
        <time>2021-05-29T10:25:20.000Z</time>
      </trkpt>
      <trkpt lat="47.15351" lon="-1.35785">
        <ele>79</ele>
        <time>2021-05-29T10:25:22.000Z</time>
      </trkpt>
      <trkpt lat="47.15342" lon="-1.35773">
        <ele>79</ele>
        <time>2021-05-29T10:25:24.000Z</time>
      </trkpt>
      <trkpt lat="47.15334" lon="-1.35759">
        <ele>79</ele>
        <time>2021-05-29T10:25:26.000Z</time>
      </trkpt>
      <trkpt lat="47.15329" lon="-1.35744">
        <ele>79</ele>
        <time>2021-05-29T10:25:28.000Z</time>
      </trkpt>
      <trkpt lat="47.15326" lon="-1.35727">
        <ele>80</ele>
        <time>2021-05-29T10:25:30.000Z</time>
      </trkpt>
      <trkpt lat="47.15325" lon="-1.35709">
        <ele>80</ele>
        <time>2021-05-29T10:25:32.000Z</time>
      </trkpt>
      <trkpt lat="47.15327" lon="-1.35692">
        <ele>80</ele>
        <time>2021-05-29T10:25:34.000Z</time>
      </trkpt>
      <trkpt lat="47.15333" lon="-1.35677">
        <ele>80</ele>
        <time>2021-05-29T10:25:36.000Z</time>
      </trkpt>
      <trkpt lat="47.15339" lon="-1.35662">
        <ele>80</ele>
        <time>2021-05-29T10:25:38.000Z</time>
      </trkpt>
      <trkpt lat="47.15347" lon="-1.35648">
        <ele>80</ele>
        <time>2021-05-29T10:25:40.000Z</time>
      </trkpt>
      <trkpt lat="47.15354" lon="-1.35635">
        <ele>80</ele>
        <time>2021-05-29T10:25:42.000Z</time>
      </trkpt>
      <trkpt lat="47.15361" lon="-1.35623">
        <ele>80</ele>
        <time>2021-05-29T10:25:44.000Z</time>
      </trkpt>
      <trkpt lat="47.15373" lon="-1.35601">
        <ele>80</ele>
        <time>2021-05-29T10:25:47.000Z</time>
      </trkpt>
      <trkpt lat="47.1538" lon="-1.35585">
        <ele>80</ele>
        <time>2021-05-29T10:25:49.000Z</time>
      </trkpt>
      <trkpt lat="47.15387" lon="-1.35571">
        <ele>80</ele>
        <time>2021-05-29T10:25:51.000Z</time>
      </trkpt>
      <trkpt lat="47.15394" lon="-1.35555">
        <ele>80</ele>
        <time>2021-05-29T10:25:53.000Z</time>
      </trkpt>
      <trkpt lat="47.154" lon="-1.3554">
        <ele>80</ele>
        <time>2021-05-29T10:25:55.000Z</time>
      </trkpt>
      <trkpt lat="47.15406" lon="-1.35526">
        <ele>81</ele>
        <time>2021-05-29T10:25:57.000Z</time>
      </trkpt>
      <trkpt lat="47.15411" lon="-1.35509">
        <ele>81</ele>
        <time>2021-05-29T10:25:59.000Z</time>
      </trkpt>
      <trkpt lat="47.15414" lon="-1.35492">
        <ele>81</ele>
        <time>2021-05-29T10:26:01.000Z</time>
      </trkpt>
      <trkpt lat="47.15418" lon="-1.35476">
        <ele>81</ele>
        <time>2021-05-29T10:26:03.000Z</time>
      </trkpt>
      <trkpt lat="47.15422" lon="-1.3546">
        <ele>81</ele>
        <time>2021-05-29T10:26:05.000Z</time>
      </trkpt>
      <trkpt lat="47.15428" lon="-1.35444">
        <ele>81</ele>
        <time>2021-05-29T10:26:07.000Z</time>
      </trkpt>
      <trkpt lat="47.15433" lon="-1.35428">
        <ele>81</ele>
        <time>2021-05-29T10:26:09.000Z</time>
      </trkpt>
      <trkpt lat="47.1544" lon="-1.35412">
        <ele>81</ele>
        <time>2021-05-29T10:26:11.000Z</time>
      </trkpt>
      <trkpt lat="47.15446" lon="-1.35397">
        <ele>82</ele>
        <time>2021-05-29T10:26:13.000Z</time>
      </trkpt>
      <trkpt lat="47.15452" lon="-1.35381">
        <ele>82</ele>
        <time>2021-05-29T10:26:15.000Z</time>
      </trkpt>
      <trkpt lat="47.15458" lon="-1.35363">
        <ele>82</ele>
        <time>2021-05-29T10:26:17.000Z</time>
      </trkpt>
      <trkpt lat="47.15463" lon="-1.35346">
        <ele>82</ele>
        <time>2021-05-29T10:26:19.000Z</time>
      </trkpt>
      <trkpt lat="47.15472" lon="-1.35319">
        <ele>81</ele>
        <time>2021-05-29T10:26:22.000Z</time>
      </trkpt>
      <trkpt lat="47.15478" lon="-1.35302">
        <ele>81</ele>
        <time>2021-05-29T10:26:24.000Z</time>
      </trkpt>
      <trkpt lat="47.15484" lon="-1.35286">
        <ele>81</ele>
        <time>2021-05-29T10:26:26.000Z</time>
      </trkpt>
      <trkpt lat="47.15493" lon="-1.3527">
        <ele>80</ele>
        <time>2021-05-29T10:26:28.000Z</time>
      </trkpt>
      <trkpt lat="47.155" lon="-1.35254">
        <ele>81</ele>
        <time>2021-05-29T10:26:30.000Z</time>
      </trkpt>
      <trkpt lat="47.15507" lon="-1.35238">
        <ele>80</ele>
        <time>2021-05-29T10:26:32.000Z</time>
      </trkpt>
      <trkpt lat="47.15514" lon="-1.35223">
        <ele>80</ele>
        <time>2021-05-29T10:26:34.000Z</time>
      </trkpt>
      <trkpt lat="47.15522" lon="-1.35208">
        <ele>79</ele>
        <time>2021-05-29T10:26:36.000Z</time>
      </trkpt>
      <trkpt lat="47.1553" lon="-1.35193">
        <ele>79</ele>
        <time>2021-05-29T10:26:38.000Z</time>
      </trkpt>
      <trkpt lat="47.15536" lon="-1.35177">
        <ele>78</ele>
        <time>2021-05-29T10:26:40.000Z</time>
      </trkpt>
      <trkpt lat="47.15543" lon="-1.35162">
        <ele>79</ele>
        <time>2021-05-29T10:26:42.000Z</time>
      </trkpt>
      <trkpt lat="47.15552" lon="-1.35149">
        <ele>79</ele>
        <time>2021-05-29T10:26:44.000Z</time>
      </trkpt>
      <trkpt lat="47.15562" lon="-1.35139">
        <ele>78</ele>
        <time>2021-05-29T10:26:46.000Z</time>
      </trkpt>
      <trkpt lat="47.1558" lon="-1.35132">
        <ele>78</ele>
        <time>2021-05-29T10:26:49.000Z</time>
      </trkpt>
      <trkpt lat="47.15588" lon="-1.35118">
        <ele>78</ele>
        <time>2021-05-29T10:26:51.000Z</time>
      </trkpt>
      <trkpt lat="47.15592" lon="-1.35099">
        <ele>78</ele>
        <time>2021-05-29T10:26:53.000Z</time>
      </trkpt>
      <trkpt lat="47.15596" lon="-1.35079">
        <ele>78</ele>
        <time>2021-05-29T10:26:55.000Z</time>
      </trkpt>
      <trkpt lat="47.15601" lon="-1.35061">
        <ele>78</ele>
        <time>2021-05-29T10:26:57.000Z</time>
      </trkpt>
      <trkpt lat="47.15607" lon="-1.35033">
        <ele>77</ele>
        <time>2021-05-29T10:27:00.000Z</time>
      </trkpt>
      <trkpt lat="47.15611" lon="-1.35015">
        <ele>77</ele>
        <time>2021-05-29T10:27:02.000Z</time>
      </trkpt>
      <trkpt lat="47.15616" lon="-1.34999">
        <ele>76</ele>
        <time>2021-05-29T10:27:04.000Z</time>
      </trkpt>
      <trkpt lat="47.1562" lon="-1.34984">
        <ele>77</ele>
        <time>2021-05-29T10:27:06.000Z</time>
      </trkpt>
      <trkpt lat="47.15627" lon="-1.34967">
        <ele>77</ele>
        <time>2021-05-29T10:27:08.000Z</time>
      </trkpt>
      <trkpt lat="47.15633" lon="-1.3495">
        <ele>77</ele>
        <time>2021-05-29T10:27:10.000Z</time>
      </trkpt>
      <trkpt lat="47.15642" lon="-1.34927">
        <ele>79</ele>
        <time>2021-05-29T10:27:13.000Z</time>
      </trkpt>
      <trkpt lat="47.15645" lon="-1.3491">
        <ele>78</ele>
        <time>2021-05-29T10:27:15.000Z</time>
      </trkpt>
      <trkpt lat="47.15643" lon="-1.34888">
        <ele>78</ele>
        <time>2021-05-29T10:27:17.000Z</time>
      </trkpt>
      <trkpt lat="47.15642" lon="-1.34869">
        <ele>77</ele>
        <time>2021-05-29T10:27:19.000Z</time>
      </trkpt>
      <trkpt lat="47.1564" lon="-1.34851">
        <ele>77</ele>
        <time>2021-05-29T10:27:21.000Z</time>
      </trkpt>
      <trkpt lat="47.1564" lon="-1.34831">
        <ele>77</ele>
        <time>2021-05-29T10:27:23.000Z</time>
      </trkpt>
      <trkpt lat="47.15639" lon="-1.34812">
        <ele>77</ele>
        <time>2021-05-29T10:27:25.000Z</time>
      </trkpt>
      <trkpt lat="47.15635" lon="-1.34795">
        <ele>78</ele>
        <time>2021-05-29T10:27:27.000Z</time>
      </trkpt>
      <trkpt lat="47.15631" lon="-1.34779">
        <ele>78</ele>
        <time>2021-05-29T10:27:29.000Z</time>
      </trkpt>
      <trkpt lat="47.15627" lon="-1.3476">
        <ele>77</ele>
        <time>2021-05-29T10:27:31.000Z</time>
      </trkpt>
      <trkpt lat="47.15624" lon="-1.34742">
        <ele>78</ele>
        <time>2021-05-29T10:27:33.000Z</time>
      </trkpt>
      <trkpt lat="47.15622" lon="-1.34724">
        <ele>78</ele>
        <time>2021-05-29T10:27:35.000Z</time>
      </trkpt>
      <trkpt lat="47.15621" lon="-1.34705">
        <ele>77</ele>
        <time>2021-05-29T10:27:37.000Z</time>
      </trkpt>
      <trkpt lat="47.15623" lon="-1.34677">
        <ele>77</ele>
        <time>2021-05-29T10:27:40.000Z</time>
      </trkpt>
      <trkpt lat="47.15625" lon="-1.3466">
        <ele>77</ele>
        <time>2021-05-29T10:27:42.000Z</time>
      </trkpt>
      <trkpt lat="47.15626" lon="-1.34642">
        <ele>77</ele>
        <time>2021-05-29T10:27:44.000Z</time>
      </trkpt>
      <trkpt lat="47.15626" lon="-1.34624">
        <ele>77</ele>
        <time>2021-05-29T10:27:46.000Z</time>
      </trkpt>
      <trkpt lat="47.15629" lon="-1.34598">
        <ele>77</ele>
        <time>2021-05-29T10:27:49.000Z</time>
      </trkpt>
      <trkpt lat="47.1563" lon="-1.34581">
        <ele>78</ele>
        <time>2021-05-29T10:27:51.000Z</time>
      </trkpt>
      <trkpt lat="47.15632" lon="-1.34564">
        <ele>78</ele>
        <time>2021-05-29T10:27:53.000Z</time>
      </trkpt>
      <trkpt lat="47.15634" lon="-1.34548">
        <ele>78</ele>
        <time>2021-05-29T10:27:55.000Z</time>
      </trkpt>
      <trkpt lat="47.15635" lon="-1.3453">
        <ele>79</ele>
        <time>2021-05-29T10:27:57.000Z</time>
      </trkpt>
      <trkpt lat="47.15636" lon="-1.34513">
        <ele>79</ele>
        <time>2021-05-29T10:27:59.000Z</time>
      </trkpt>
      <trkpt lat="47.15638" lon="-1.34497">
        <ele>79</ele>
        <time>2021-05-29T10:28:01.000Z</time>
      </trkpt>
      <trkpt lat="47.15638" lon="-1.34475">
        <ele>79</ele>
        <time>2021-05-29T10:28:04.000Z</time>
      </trkpt>
      <trkpt lat="47.1564" lon="-1.34458">
        <ele>79</ele>
        <time>2021-05-29T10:28:07.000Z</time>
      </trkpt>
      <trkpt lat="47.15646" lon="-1.34446">
        <ele>79</ele>
        <time>2021-05-29T10:28:09.000Z</time>
      </trkpt>
      <trkpt lat="47.15646" lon="-1.3443">
        <ele>79</ele>
        <time>2021-05-29T10:28:11.000Z</time>
      </trkpt>
      <trkpt lat="47.15638" lon="-1.34416">
        <ele>77</ele>
        <time>2021-05-29T10:28:13.000Z</time>
      </trkpt>
      <trkpt lat="47.1563" lon="-1.34402">
        <ele>77</ele>
        <time>2021-05-29T10:28:15.000Z</time>
      </trkpt>
      <trkpt lat="47.15621" lon="-1.34387">
        <ele>76</ele>
        <time>2021-05-29T10:28:17.000Z</time>
      </trkpt>
      <trkpt lat="47.15609" lon="-1.34365">
        <ele>76</ele>
        <time>2021-05-29T10:28:20.000Z</time>
      </trkpt>
      <trkpt lat="47.156" lon="-1.34339">
        <ele>76</ele>
        <time>2021-05-29T10:28:23.000Z</time>
      </trkpt>
      <trkpt lat="47.15596" lon="-1.34322">
        <ele>76</ele>
        <time>2021-05-29T10:28:25.000Z</time>
      </trkpt>
      <trkpt lat="47.15592" lon="-1.34304">
        <ele>76</ele>
        <time>2021-05-29T10:28:27.000Z</time>
      </trkpt>
      <trkpt lat="47.15588" lon="-1.34287">
        <ele>76</ele>
        <time>2021-05-29T10:28:29.000Z</time>
      </trkpt>
      <trkpt lat="47.15577" lon="-1.34264">
        <ele>76</ele>
        <time>2021-05-29T10:28:32.000Z</time>
      </trkpt>
      <trkpt lat="47.15565" lon="-1.3424">
        <ele>75</ele>
        <time>2021-05-29T10:28:35.000Z</time>
      </trkpt>
      <trkpt lat="47.15559" lon="-1.34223">
        <ele>74</ele>
        <time>2021-05-29T10:28:37.000Z</time>
      </trkpt>
      <trkpt lat="47.15551" lon="-1.34207">
        <ele>74</ele>
        <time>2021-05-29T10:28:39.000Z</time>
      </trkpt>
      <trkpt lat="47.1554" lon="-1.34182">
        <ele>74</ele>
        <time>2021-05-29T10:28:42.000Z</time>
      </trkpt>
      <trkpt lat="47.15532" lon="-1.34165">
        <ele>74</ele>
        <time>2021-05-29T10:28:44.000Z</time>
      </trkpt>
      <trkpt lat="47.15524" lon="-1.34149">
        <ele>74</ele>
        <time>2021-05-29T10:28:46.000Z</time>
      </trkpt>
      <trkpt lat="47.15517" lon="-1.34132">
        <ele>74</ele>
        <time>2021-05-29T10:28:48.000Z</time>
      </trkpt>
      <trkpt lat="47.1551" lon="-1.34117">
        <ele>75</ele>
        <time>2021-05-29T10:28:50.000Z</time>
      </trkpt>
      <trkpt lat="47.15502" lon="-1.34101">
        <ele>75</ele>
        <time>2021-05-29T10:28:52.000Z</time>
      </trkpt>
      <trkpt lat="47.15494" lon="-1.34087">
        <ele>75</ele>
        <time>2021-05-29T10:28:54.000Z</time>
      </trkpt>
      <trkpt lat="47.15485" lon="-1.34074">
        <ele>75</ele>
        <time>2021-05-29T10:28:56.000Z</time>
      </trkpt>
      <trkpt lat="47.15475" lon="-1.34061">
        <ele>75</ele>
        <time>2021-05-29T10:28:58.000Z</time>
      </trkpt>
      <trkpt lat="47.15466" lon="-1.34048">
        <ele>75</ele>
        <time>2021-05-29T10:29:00.000Z</time>
      </trkpt>
      <trkpt lat="47.15457" lon="-1.34034">
        <ele>75</ele>
        <time>2021-05-29T10:29:02.000Z</time>
      </trkpt>
      <trkpt lat="47.15449" lon="-1.34022">
        <ele>75</ele>
        <time>2021-05-29T10:29:04.000Z</time>
      </trkpt>
      <trkpt lat="47.15441" lon="-1.34009">
        <ele>75</ele>
        <time>2021-05-29T10:29:06.000Z</time>
      </trkpt>
      <trkpt lat="47.15433" lon="-1.33997">
        <ele>76</ele>
        <time>2021-05-29T10:29:08.000Z</time>
      </trkpt>
      <trkpt lat="47.15425" lon="-1.33984">
        <ele>76</ele>
        <time>2021-05-29T10:29:10.000Z</time>
      </trkpt>
      <trkpt lat="47.15417" lon="-1.33972">
        <ele>77</ele>
        <time>2021-05-29T10:29:12.000Z</time>
      </trkpt>
      <trkpt lat="47.15407" lon="-1.33962">
        <ele>76</ele>
        <time>2021-05-29T10:29:14.000Z</time>
      </trkpt>
      <trkpt lat="47.154" lon="-1.33949">
        <ele>76</ele>
        <time>2021-05-29T10:29:16.000Z</time>
      </trkpt>
      <trkpt lat="47.15393" lon="-1.33937">
        <ele>77</ele>
        <time>2021-05-29T10:29:18.000Z</time>
      </trkpt>
      <trkpt lat="47.15386" lon="-1.33926">
        <ele>77</ele>
        <time>2021-05-29T10:29:20.000Z</time>
      </trkpt>
      <trkpt lat="47.15377" lon="-1.33918">
        <ele>78</ele>
        <time>2021-05-29T10:29:22.000Z</time>
      </trkpt>
      <trkpt lat="47.1537" lon="-1.33902">
        <ele>80</ele>
        <time>2021-05-29T10:29:24.000Z</time>
      </trkpt>
      <trkpt lat="47.15361" lon="-1.33887">
        <ele>81</ele>
        <time>2021-05-29T10:29:26.000Z</time>
      </trkpt>
      <trkpt lat="47.15352" lon="-1.33877">
        <ele>81</ele>
        <time>2021-05-29T10:29:28.000Z</time>
      </trkpt>
      <trkpt lat="47.15342" lon="-1.33866">
        <ele>81</ele>
        <time>2021-05-29T10:29:30.000Z</time>
      </trkpt>
      <trkpt lat="47.15335" lon="-1.33857">
        <ele>81</ele>
        <time>2021-05-29T10:29:32.000Z</time>
      </trkpt>
      <trkpt lat="47.15327" lon="-1.33842">
        <ele>80</ele>
        <time>2021-05-29T10:29:35.000Z</time>
      </trkpt>
      <trkpt lat="47.15332" lon="-1.33828">
        <ele>79</ele>
        <time>2021-05-29T10:29:37.000Z</time>
      </trkpt>
      <trkpt lat="47.15339" lon="-1.33813">
        <ele>79</ele>
        <time>2021-05-29T10:29:39.000Z</time>
      </trkpt>
      <trkpt lat="47.15351" lon="-1.33792">
        <ele>78</ele>
        <time>2021-05-29T10:29:42.000Z</time>
      </trkpt>
      <trkpt lat="47.1536" lon="-1.33778">
        <ele>76</ele>
        <time>2021-05-29T10:29:44.000Z</time>
      </trkpt>
      <trkpt lat="47.15367" lon="-1.33763">
        <ele>76</ele>
        <time>2021-05-29T10:29:46.000Z</time>
      </trkpt>
      <trkpt lat="47.15375" lon="-1.33752">
        <ele>77</ele>
        <time>2021-05-29T10:29:48.000Z</time>
      </trkpt>
      <trkpt lat="47.15381" lon="-1.33739">
        <ele>77</ele>
        <time>2021-05-29T10:29:50.000Z</time>
      </trkpt>
      <trkpt lat="47.15388" lon="-1.33723">
        <ele>77</ele>
        <time>2021-05-29T10:29:52.000Z</time>
      </trkpt>
      <trkpt lat="47.15391" lon="-1.33707">
        <ele>77</ele>
        <time>2021-05-29T10:29:54.000Z</time>
      </trkpt>
      <trkpt lat="47.15396" lon="-1.33689">
        <ele>77</ele>
        <time>2021-05-29T10:29:56.000Z</time>
      </trkpt>
      <trkpt lat="47.154" lon="-1.33672">
        <ele>75</ele>
        <time>2021-05-29T10:29:58.000Z</time>
      </trkpt>
      <trkpt lat="47.15402" lon="-1.33655">
        <ele>72</ele>
        <time>2021-05-29T10:30:00.000Z</time>
      </trkpt>
      <trkpt lat="47.15404" lon="-1.33637">
        <ele>73</ele>
        <time>2021-05-29T10:30:02.000Z</time>
      </trkpt>
      <trkpt lat="47.15406" lon="-1.33619">
        <ele>74</ele>
        <time>2021-05-29T10:30:04.000Z</time>
      </trkpt>
      <trkpt lat="47.15407" lon="-1.33602">
        <ele>75</ele>
        <time>2021-05-29T10:30:06.000Z</time>
      </trkpt>
      <trkpt lat="47.15409" lon="-1.33584">
        <ele>76</ele>
        <time>2021-05-29T10:30:08.000Z</time>
      </trkpt>
      <trkpt lat="47.1541" lon="-1.33567">
        <ele>77</ele>
        <time>2021-05-29T10:30:10.000Z</time>
      </trkpt>
      <trkpt lat="47.15411" lon="-1.3355">
        <ele>78</ele>
        <time>2021-05-29T10:30:12.000Z</time>
      </trkpt>
      <trkpt lat="47.15412" lon="-1.33532">
        <ele>77</ele>
        <time>2021-05-29T10:30:14.000Z</time>
      </trkpt>
      <trkpt lat="47.15412" lon="-1.33516">
        <ele>76</ele>
        <time>2021-05-29T10:30:16.000Z</time>
      </trkpt>
      <trkpt lat="47.15412" lon="-1.33498">
        <ele>77</ele>
        <time>2021-05-29T10:30:18.000Z</time>
      </trkpt>
      <trkpt lat="47.15414" lon="-1.3348">
        <ele>77</ele>
        <time>2021-05-29T10:30:20.000Z</time>
      </trkpt>
      <trkpt lat="47.15416" lon="-1.33453">
        <ele>76</ele>
        <time>2021-05-29T10:30:23.000Z</time>
      </trkpt>
      <trkpt lat="47.15417" lon="-1.33434">
        <ele>75</ele>
        <time>2021-05-29T10:30:25.000Z</time>
      </trkpt>
      <trkpt lat="47.15418" lon="-1.33417">
        <ele>75</ele>
        <time>2021-05-29T10:30:27.000Z</time>
      </trkpt>
      <trkpt lat="47.15419" lon="-1.334">
        <ele>75</ele>
        <time>2021-05-29T10:30:29.000Z</time>
      </trkpt>
      <trkpt lat="47.15419" lon="-1.33372">
        <ele>74</ele>
        <time>2021-05-29T10:30:32.000Z</time>
      </trkpt>
      <trkpt lat="47.15419" lon="-1.33355">
        <ele>74</ele>
        <time>2021-05-29T10:30:34.000Z</time>
      </trkpt>
      <trkpt lat="47.15421" lon="-1.33338">
        <ele>75</ele>
        <time>2021-05-29T10:30:36.000Z</time>
      </trkpt>
      <trkpt lat="47.15423" lon="-1.3332">
        <ele>76</ele>
        <time>2021-05-29T10:30:38.000Z</time>
      </trkpt>
      <trkpt lat="47.15424" lon="-1.33304">
        <ele>76</ele>
        <time>2021-05-29T10:30:40.000Z</time>
      </trkpt>
      <trkpt lat="47.15424" lon="-1.33286">
        <ele>76</ele>
        <time>2021-05-29T10:30:42.000Z</time>
      </trkpt>
      <trkpt lat="47.15426" lon="-1.3327">
        <ele>76</ele>
        <time>2021-05-29T10:30:44.000Z</time>
      </trkpt>
      <trkpt lat="47.15428" lon="-1.33253">
        <ele>76</ele>
        <time>2021-05-29T10:30:46.000Z</time>
      </trkpt>
      <trkpt lat="47.1543" lon="-1.33235">
        <ele>78</ele>
        <time>2021-05-29T10:30:48.000Z</time>
      </trkpt>
      <trkpt lat="47.15432" lon="-1.33219">
        <ele>78</ele>
        <time>2021-05-29T10:30:50.000Z</time>
      </trkpt>
      <trkpt lat="47.15433" lon="-1.33204">
        <ele>78</ele>
        <time>2021-05-29T10:30:52.000Z</time>
      </trkpt>
      <trkpt lat="47.15436" lon="-1.33188">
        <ele>78</ele>
        <time>2021-05-29T10:30:54.000Z</time>
      </trkpt>
      <trkpt lat="47.15444" lon="-1.33177">
        <ele>78</ele>
        <time>2021-05-29T10:30:56.000Z</time>
      </trkpt>
      <trkpt lat="47.15455" lon="-1.33176">
        <ele>79</ele>
        <time>2021-05-29T10:30:58.000Z</time>
      </trkpt>
      <trkpt lat="47.15468" lon="-1.33179">
        <ele>79</ele>
        <time>2021-05-29T10:31:00.000Z</time>
      </trkpt>
      <trkpt lat="47.1548" lon="-1.33182">
        <ele>80</ele>
        <time>2021-05-29T10:31:02.000Z</time>
      </trkpt>
      <trkpt lat="47.15491" lon="-1.33186">
        <ele>80</ele>
        <time>2021-05-29T10:31:04.000Z</time>
      </trkpt>
      <trkpt lat="47.15503" lon="-1.3319">
        <ele>80</ele>
        <time>2021-05-29T10:31:06.000Z</time>
      </trkpt>
      <trkpt lat="47.15515" lon="-1.33194">
        <ele>81</ele>
        <time>2021-05-29T10:31:08.000Z</time>
      </trkpt>
      <trkpt lat="47.15527" lon="-1.33199">
        <ele>80</ele>
        <time>2021-05-29T10:31:10.000Z</time>
      </trkpt>
      <trkpt lat="47.15539" lon="-1.33203">
        <ele>80</ele>
        <time>2021-05-29T10:31:12.000Z</time>
      </trkpt>
      <trkpt lat="47.15551" lon="-1.33207">
        <ele>80</ele>
        <time>2021-05-29T10:31:14.000Z</time>
      </trkpt>
      <trkpt lat="47.15569" lon="-1.33213">
        <ele>80</ele>
        <time>2021-05-29T10:31:17.000Z</time>
      </trkpt>
      <trkpt lat="47.15581" lon="-1.33218">
        <ele>78</ele>
        <time>2021-05-29T10:31:19.000Z</time>
      </trkpt>
      <trkpt lat="47.15592" lon="-1.33222">
        <ele>78</ele>
        <time>2021-05-29T10:31:21.000Z</time>
      </trkpt>
      <trkpt lat="47.1561" lon="-1.33227">
        <ele>79</ele>
        <time>2021-05-29T10:31:24.000Z</time>
      </trkpt>
      <trkpt lat="47.15622" lon="-1.33231">
        <ele>79</ele>
        <time>2021-05-29T10:31:26.000Z</time>
      </trkpt>
      <trkpt lat="47.15633" lon="-1.33237">
        <ele>79</ele>
        <time>2021-05-29T10:31:28.000Z</time>
      </trkpt>
      <trkpt lat="47.15645" lon="-1.33242">
        <ele>79</ele>
        <time>2021-05-29T10:31:30.000Z</time>
      </trkpt>
      <trkpt lat="47.15656" lon="-1.33248">
        <ele>79</ele>
        <time>2021-05-29T10:31:32.000Z</time>
      </trkpt>
      <trkpt lat="47.15665" lon="-1.33255">
        <ele>79</ele>
        <time>2021-05-29T10:31:34.000Z</time>
      </trkpt>
      <trkpt lat="47.15683" lon="-1.33263">
        <ele>80</ele>
        <time>2021-05-29T10:31:38.000Z</time>
      </trkpt>
      <trkpt lat="47.15694" lon="-1.33262">
        <ele>83</ele>
        <time>2021-05-29T10:31:40.000Z</time>
      </trkpt>
      <trkpt lat="47.15705" lon="-1.33268">
        <ele>82</ele>
        <time>2021-05-29T10:31:42.000Z</time>
      </trkpt>
      <trkpt lat="47.15716" lon="-1.33272">
        <ele>82</ele>
        <time>2021-05-29T10:31:44.000Z</time>
      </trkpt>
      <trkpt lat="47.15728" lon="-1.33278">
        <ele>82</ele>
        <time>2021-05-29T10:31:46.000Z</time>
      </trkpt>
      <trkpt lat="47.1574" lon="-1.33284">
        <ele>82</ele>
        <time>2021-05-29T10:31:48.000Z</time>
      </trkpt>
      <trkpt lat="47.15752" lon="-1.3329">
        <ele>82</ele>
        <time>2021-05-29T10:31:50.000Z</time>
      </trkpt>
      <trkpt lat="47.15764" lon="-1.33299">
        <ele>82</ele>
        <time>2021-05-29T10:31:52.000Z</time>
      </trkpt>
      <trkpt lat="47.15776" lon="-1.33306">
        <ele>82</ele>
        <time>2021-05-29T10:31:54.000Z</time>
      </trkpt>
      <trkpt lat="47.15788" lon="-1.33317">
        <ele>80</ele>
        <time>2021-05-29T10:31:56.000Z</time>
      </trkpt>
      <trkpt lat="47.15799" lon="-1.33324">
        <ele>81</ele>
        <time>2021-05-29T10:31:58.000Z</time>
      </trkpt>
      <trkpt lat="47.1581" lon="-1.33333">
        <ele>80</ele>
        <time>2021-05-29T10:32:00.000Z</time>
      </trkpt>
      <trkpt lat="47.15827" lon="-1.33344">
        <ele>80</ele>
        <time>2021-05-29T10:32:03.000Z</time>
      </trkpt>
      <trkpt lat="47.15843" lon="-1.33354">
        <ele>80</ele>
        <time>2021-05-29T10:32:06.000Z</time>
      </trkpt>
      <trkpt lat="47.15855" lon="-1.33362">
        <ele>79</ele>
        <time>2021-05-29T10:32:08.000Z</time>
      </trkpt>
      <trkpt lat="47.15866" lon="-1.33373">
        <ele>80</ele>
        <time>2021-05-29T10:32:10.000Z</time>
      </trkpt>
      <trkpt lat="47.15878" lon="-1.3338">
        <ele>80</ele>
        <time>2021-05-29T10:32:12.000Z</time>
      </trkpt>
      <trkpt lat="47.15889" lon="-1.33386">
        <ele>81</ele>
        <time>2021-05-29T10:32:14.000Z</time>
      </trkpt>
      <trkpt lat="47.15908" lon="-1.33394">
        <ele>80</ele>
        <time>2021-05-29T10:32:17.000Z</time>
      </trkpt>
      <trkpt lat="47.15919" lon="-1.33391">
        <ele>81</ele>
        <time>2021-05-29T10:32:19.000Z</time>
      </trkpt>
      <trkpt lat="47.15929" lon="-1.33383">
        <ele>80</ele>
        <time>2021-05-29T10:32:21.000Z</time>
      </trkpt>
      <trkpt lat="47.15945" lon="-1.33354">
        <ele>79</ele>
        <time>2021-05-29T10:32:25.000Z</time>
      </trkpt>
      <trkpt lat="47.15953" lon="-1.3334">
        <ele>79</ele>
        <time>2021-05-29T10:32:27.000Z</time>
      </trkpt>
      <trkpt lat="47.15959" lon="-1.33323">
        <ele>79</ele>
        <time>2021-05-29T10:32:29.000Z</time>
      </trkpt>
      <trkpt lat="47.15966" lon="-1.33308">
        <ele>78</ele>
        <time>2021-05-29T10:32:31.000Z</time>
      </trkpt>
      <trkpt lat="47.15972" lon="-1.33293">
        <ele>79</ele>
        <time>2021-05-29T10:32:33.000Z</time>
      </trkpt>
      <trkpt lat="47.15979" lon="-1.33277">
        <ele>79</ele>
        <time>2021-05-29T10:32:35.000Z</time>
      </trkpt>
      <trkpt lat="47.15986" lon="-1.33262">
        <ele>79</ele>
        <time>2021-05-29T10:32:37.000Z</time>
      </trkpt>
      <trkpt lat="47.15994" lon="-1.33248">
        <ele>79</ele>
        <time>2021-05-29T10:32:39.000Z</time>
      </trkpt>
      <trkpt lat="47.16004" lon="-1.33226">
        <ele>79</ele>
        <time>2021-05-29T10:32:42.000Z</time>
      </trkpt>
      <trkpt lat="47.16012" lon="-1.33213">
        <ele>78</ele>
        <time>2021-05-29T10:32:44.000Z</time>
      </trkpt>
      <trkpt lat="47.16019" lon="-1.33198">
        <ele>78</ele>
        <time>2021-05-29T10:32:46.000Z</time>
      </trkpt>
      <trkpt lat="47.16027" lon="-1.33185">
        <ele>78</ele>
        <time>2021-05-29T10:32:48.000Z</time>
      </trkpt>
      <trkpt lat="47.16033" lon="-1.33171">
        <ele>77</ele>
        <time>2021-05-29T10:32:50.000Z</time>
      </trkpt>
      <trkpt lat="47.1604" lon="-1.33158">
        <ele>77</ele>
        <time>2021-05-29T10:32:52.000Z</time>
      </trkpt>
      <trkpt lat="47.16045" lon="-1.33145">
        <ele>77</ele>
        <time>2021-05-29T10:32:54.000Z</time>
      </trkpt>
      <trkpt lat="47.1605" lon="-1.33133">
        <ele>76</ele>
        <time>2021-05-29T10:32:56.000Z</time>
      </trkpt>
      <trkpt lat="47.16053" lon="-1.33118">
        <ele>76</ele>
        <time>2021-05-29T10:32:59.000Z</time>
      </trkpt>
      <trkpt lat="47.16048" lon="-1.33099">
        <ele>76</ele>
        <time>2021-05-29T10:33:01.000Z</time>
      </trkpt>
      <trkpt lat="47.1604" lon="-1.33082">
        <ele>77</ele>
        <time>2021-05-29T10:33:03.000Z</time>
      </trkpt>
      <trkpt lat="47.16032" lon="-1.33065">
        <ele>77</ele>
        <time>2021-05-29T10:33:05.000Z</time>
      </trkpt>
      <trkpt lat="47.16024" lon="-1.3305">
        <ele>77</ele>
        <time>2021-05-29T10:33:07.000Z</time>
      </trkpt>
      <trkpt lat="47.16018" lon="-1.33033">
        <ele>77</ele>
        <time>2021-05-29T10:33:09.000Z</time>
      </trkpt>
      <trkpt lat="47.16011" lon="-1.33018">
        <ele>77</ele>
        <time>2021-05-29T10:33:11.000Z</time>
      </trkpt>
      <trkpt lat="47.16004" lon="-1.33002">
        <ele>77</ele>
        <time>2021-05-29T10:33:13.000Z</time>
      </trkpt>
      <trkpt lat="47.15992" lon="-1.32978">
        <ele>76</ele>
        <time>2021-05-29T10:33:16.000Z</time>
      </trkpt>
      <trkpt lat="47.15986" lon="-1.32963">
        <ele>77</ele>
        <time>2021-05-29T10:33:18.000Z</time>
      </trkpt>
      <trkpt lat="47.15978" lon="-1.32949">
        <ele>76</ele>
        <time>2021-05-29T10:33:20.000Z</time>
      </trkpt>
      <trkpt lat="47.1597" lon="-1.32936">
        <ele>76</ele>
        <time>2021-05-29T10:33:22.000Z</time>
      </trkpt>
      <trkpt lat="47.15962" lon="-1.32922">
        <ele>75</ele>
        <time>2021-05-29T10:33:24.000Z</time>
      </trkpt>
      <trkpt lat="47.15954" lon="-1.32908">
        <ele>76</ele>
        <time>2021-05-29T10:33:26.000Z</time>
      </trkpt>
      <trkpt lat="47.15946" lon="-1.32893">
        <ele>76</ele>
        <time>2021-05-29T10:33:28.000Z</time>
      </trkpt>
      <trkpt lat="47.15938" lon="-1.32879">
        <ele>77</ele>
        <time>2021-05-29T10:33:30.000Z</time>
      </trkpt>
      <trkpt lat="47.15928" lon="-1.32865">
        <ele>76</ele>
        <time>2021-05-29T10:33:32.000Z</time>
      </trkpt>
      <trkpt lat="47.15919" lon="-1.3285">
        <ele>77</ele>
        <time>2021-05-29T10:33:34.000Z</time>
      </trkpt>
      <trkpt lat="47.15915" lon="-1.32835">
        <ele>78</ele>
        <time>2021-05-29T10:33:36.000Z</time>
      </trkpt>
      <trkpt lat="47.15909" lon="-1.32808">
        <ele>78</ele>
        <time>2021-05-29T10:33:39.000Z</time>
      </trkpt>
      <trkpt lat="47.15908" lon="-1.32788">
        <ele>77</ele>
        <time>2021-05-29T10:33:41.000Z</time>
      </trkpt>
      <trkpt lat="47.15908" lon="-1.32769">
        <ele>77</ele>
        <time>2021-05-29T10:33:43.000Z</time>
      </trkpt>
      <trkpt lat="47.15911" lon="-1.32751">
        <ele>77</ele>
        <time>2021-05-29T10:33:45.000Z</time>
      </trkpt>
      <trkpt lat="47.15913" lon="-1.32733">
        <ele>77</ele>
        <time>2021-05-29T10:33:47.000Z</time>
      </trkpt>
      <trkpt lat="47.15915" lon="-1.32714">
        <ele>76</ele>
        <time>2021-05-29T10:33:49.000Z</time>
      </trkpt>
      <trkpt lat="47.15917" lon="-1.32696">
        <ele>76</ele>
        <time>2021-05-29T10:33:51.000Z</time>
      </trkpt>
      <trkpt lat="47.15918" lon="-1.32678">
        <ele>77</ele>
        <time>2021-05-29T10:33:53.000Z</time>
      </trkpt>
      <trkpt lat="47.1592" lon="-1.32661">
        <ele>77</ele>
        <time>2021-05-29T10:33:55.000Z</time>
      </trkpt>
      <trkpt lat="47.15921" lon="-1.32643">
        <ele>76</ele>
        <time>2021-05-29T10:33:57.000Z</time>
      </trkpt>
      <trkpt lat="47.15919" lon="-1.32616">
        <ele>75</ele>
        <time>2021-05-29T10:34:00.000Z</time>
      </trkpt>
      <trkpt lat="47.15915" lon="-1.32598">
        <ele>75</ele>
        <time>2021-05-29T10:34:02.000Z</time>
      </trkpt>
      <trkpt lat="47.15913" lon="-1.3258">
        <ele>75</ele>
        <time>2021-05-29T10:34:04.000Z</time>
      </trkpt>
      <trkpt lat="47.1591" lon="-1.32565">
        <ele>75</ele>
        <time>2021-05-29T10:34:06.000Z</time>
      </trkpt>
      <trkpt lat="47.15903" lon="-1.32546">
        <ele>75</ele>
        <time>2021-05-29T10:34:08.000Z</time>
      </trkpt>
      <trkpt lat="47.15899" lon="-1.32529">
        <ele>75</ele>
        <time>2021-05-29T10:34:10.000Z</time>
      </trkpt>
      <trkpt lat="47.15894" lon="-1.32511">
        <ele>75</ele>
        <time>2021-05-29T10:34:12.000Z</time>
      </trkpt>
      <trkpt lat="47.15889" lon="-1.32484">
        <ele>75</ele>
        <time>2021-05-29T10:34:15.000Z</time>
      </trkpt>
      <trkpt lat="47.15883" lon="-1.32466">
        <ele>75</ele>
        <time>2021-05-29T10:34:17.000Z</time>
      </trkpt>
      <trkpt lat="47.15876" lon="-1.32448">
        <ele>74</ele>
        <time>2021-05-29T10:34:19.000Z</time>
      </trkpt>
      <trkpt lat="47.1587" lon="-1.32423">
        <ele>74</ele>
        <time>2021-05-29T10:34:22.000Z</time>
      </trkpt>
      <trkpt lat="47.15866" lon="-1.32407">
        <ele>75</ele>
        <time>2021-05-29T10:34:24.000Z</time>
      </trkpt>
      <trkpt lat="47.15862" lon="-1.3239">
        <ele>76</ele>
        <time>2021-05-29T10:34:26.000Z</time>
      </trkpt>
      <trkpt lat="47.15856" lon="-1.32365">
        <ele>77</ele>
        <time>2021-05-29T10:34:29.000Z</time>
      </trkpt>
      <trkpt lat="47.15853" lon="-1.32348">
        <ele>76</ele>
        <time>2021-05-29T10:34:31.000Z</time>
      </trkpt>
      <trkpt lat="47.15849" lon="-1.32333">
        <ele>76</ele>
        <time>2021-05-29T10:34:33.000Z</time>
      </trkpt>
      <trkpt lat="47.15843" lon="-1.32315">
        <ele>76</ele>
        <time>2021-05-29T10:34:35.000Z</time>
      </trkpt>
      <trkpt lat="47.15839" lon="-1.32298">
        <ele>77</ele>
        <time>2021-05-29T10:34:37.000Z</time>
      </trkpt>
      <trkpt lat="47.15832" lon="-1.32273">
        <ele>77</ele>
        <time>2021-05-29T10:34:40.000Z</time>
      </trkpt>
      <trkpt lat="47.15827" lon="-1.32256">
        <ele>78</ele>
        <time>2021-05-29T10:34:42.000Z</time>
      </trkpt>
      <trkpt lat="47.15823" lon="-1.3224">
        <ele>78</ele>
        <time>2021-05-29T10:34:44.000Z</time>
      </trkpt>
      <trkpt lat="47.1582" lon="-1.32224">
        <ele>78</ele>
        <time>2021-05-29T10:34:46.000Z</time>
      </trkpt>
      <trkpt lat="47.15816" lon="-1.32208">
        <ele>79</ele>
        <time>2021-05-29T10:34:48.000Z</time>
      </trkpt>
      <trkpt lat="47.15811" lon="-1.32191">
        <ele>79</ele>
        <time>2021-05-29T10:34:50.000Z</time>
      </trkpt>
      <trkpt lat="47.15807" lon="-1.32174">
        <ele>79</ele>
        <time>2021-05-29T10:34:52.000Z</time>
      </trkpt>
      <trkpt lat="47.15803" lon="-1.32156">
        <ele>79</ele>
        <time>2021-05-29T10:34:54.000Z</time>
      </trkpt>
      <trkpt lat="47.158" lon="-1.32139">
        <ele>79</ele>
        <time>2021-05-29T10:34:56.000Z</time>
      </trkpt>
      <trkpt lat="47.15795" lon="-1.32124">
        <ele>78</ele>
        <time>2021-05-29T10:34:58.000Z</time>
      </trkpt>
      <trkpt lat="47.15791" lon="-1.3211">
        <ele>78</ele>
        <time>2021-05-29T10:35:00.000Z</time>
      </trkpt>
      <trkpt lat="47.15788" lon="-1.32084">
        <ele>78</ele>
        <time>2021-05-29T10:35:03.000Z</time>
      </trkpt>
      <trkpt lat="47.15786" lon="-1.32067">
        <ele>79</ele>
        <time>2021-05-29T10:35:05.000Z</time>
      </trkpt>
      <trkpt lat="47.15784" lon="-1.3205">
        <ele>79</ele>
        <time>2021-05-29T10:35:07.000Z</time>
      </trkpt>
      <trkpt lat="47.15781" lon="-1.32024">
        <ele>78</ele>
        <time>2021-05-29T10:35:10.000Z</time>
      </trkpt>
      <trkpt lat="47.1578" lon="-1.32008">
        <ele>78</ele>
        <time>2021-05-29T10:35:12.000Z</time>
      </trkpt>
      <trkpt lat="47.15777" lon="-1.31994">
        <ele>78</ele>
        <time>2021-05-29T10:35:14.000Z</time>
      </trkpt>
      <trkpt lat="47.15776" lon="-1.31975">
        <ele>78</ele>
        <time>2021-05-29T10:35:16.000Z</time>
      </trkpt>
      <trkpt lat="47.15775" lon="-1.31958">
        <ele>77</ele>
        <time>2021-05-29T10:35:18.000Z</time>
      </trkpt>
      <trkpt lat="47.15774" lon="-1.31943">
        <ele>78</ele>
        <time>2021-05-29T10:35:20.000Z</time>
      </trkpt>
      <trkpt lat="47.15774" lon="-1.31926">
        <ele>79</ele>
        <time>2021-05-29T10:35:22.000Z</time>
      </trkpt>
      <trkpt lat="47.15773" lon="-1.31909">
        <ele>79</ele>
        <time>2021-05-29T10:35:24.000Z</time>
      </trkpt>
      <trkpt lat="47.15773" lon="-1.31892">
        <ele>78</ele>
        <time>2021-05-29T10:35:26.000Z</time>
      </trkpt>
      <trkpt lat="47.15773" lon="-1.31874">
        <ele>77</ele>
        <time>2021-05-29T10:35:28.000Z</time>
      </trkpt>
      <trkpt lat="47.15773" lon="-1.31856">
        <ele>76</ele>
        <time>2021-05-29T10:35:30.000Z</time>
      </trkpt>
      <trkpt lat="47.15773" lon="-1.31838">
        <ele>75</ele>
        <time>2021-05-29T10:35:32.000Z</time>
      </trkpt>
      <trkpt lat="47.15772" lon="-1.31823">
        <ele>75</ele>
        <time>2021-05-29T10:35:34.000Z</time>
      </trkpt>
      <trkpt lat="47.15771" lon="-1.31807">
        <ele>76</ele>
        <time>2021-05-29T10:35:36.000Z</time>
      </trkpt>
      <trkpt lat="47.1577" lon="-1.3179">
        <ele>76</ele>
        <time>2021-05-29T10:35:38.000Z</time>
      </trkpt>
      <trkpt lat="47.15769" lon="-1.31776">
        <ele>76</ele>
        <time>2021-05-29T10:35:40.000Z</time>
      </trkpt>
      <trkpt lat="47.15769" lon="-1.3175">
        <ele>78</ele>
        <time>2021-05-29T10:35:43.000Z</time>
      </trkpt>
      <trkpt lat="47.15768" lon="-1.31733">
        <ele>77</ele>
        <time>2021-05-29T10:35:45.000Z</time>
      </trkpt>
      <trkpt lat="47.15766" lon="-1.31718">
        <ele>77</ele>
        <time>2021-05-29T10:35:47.000Z</time>
      </trkpt>
      <trkpt lat="47.15766" lon="-1.317">
        <ele>77</ele>
        <time>2021-05-29T10:35:49.000Z</time>
      </trkpt>
      <trkpt lat="47.15766" lon="-1.31683">
        <ele>78</ele>
        <time>2021-05-29T10:35:51.000Z</time>
      </trkpt>
      <trkpt lat="47.15766" lon="-1.31665">
        <ele>77</ele>
        <time>2021-05-29T10:35:53.000Z</time>
      </trkpt>
      <trkpt lat="47.15765" lon="-1.31649">
        <ele>77</ele>
        <time>2021-05-29T10:35:55.000Z</time>
      </trkpt>
      <trkpt lat="47.15764" lon="-1.31624">
        <ele>77</ele>
        <time>2021-05-29T10:35:58.000Z</time>
      </trkpt>
      <trkpt lat="47.15764" lon="-1.31598">
        <ele>77</ele>
        <time>2021-05-29T10:36:01.000Z</time>
      </trkpt>
      <trkpt lat="47.15763" lon="-1.31573">
        <ele>77</ele>
        <time>2021-05-29T10:36:04.000Z</time>
      </trkpt>
      <trkpt lat="47.15762" lon="-1.31556">
        <ele>77</ele>
        <time>2021-05-29T10:36:06.000Z</time>
      </trkpt>
      <trkpt lat="47.15762" lon="-1.31539">
        <ele>77</ele>
        <time>2021-05-29T10:36:08.000Z</time>
      </trkpt>
      <trkpt lat="47.15761" lon="-1.31523">
        <ele>77</ele>
        <time>2021-05-29T10:36:10.000Z</time>
      </trkpt>
      <trkpt lat="47.15761" lon="-1.31505">
        <ele>77</ele>
        <time>2021-05-29T10:36:12.000Z</time>
      </trkpt>
      <trkpt lat="47.1576" lon="-1.31487">
        <ele>76</ele>
        <time>2021-05-29T10:36:14.000Z</time>
      </trkpt>
      <trkpt lat="47.15759" lon="-1.31471">
        <ele>77</ele>
        <time>2021-05-29T10:36:16.000Z</time>
      </trkpt>
      <trkpt lat="47.15759" lon="-1.31454">
        <ele>77</ele>
        <time>2021-05-29T10:36:18.000Z</time>
      </trkpt>
      <trkpt lat="47.15758" lon="-1.31437">
        <ele>76</ele>
        <time>2021-05-29T10:36:20.000Z</time>
      </trkpt>
      <trkpt lat="47.1576" lon="-1.31418">
        <ele>77</ele>
        <time>2021-05-29T10:36:22.000Z</time>
      </trkpt>
      <trkpt lat="47.15762" lon="-1.314">
        <ele>78</ele>
        <time>2021-05-29T10:36:24.000Z</time>
      </trkpt>
      <trkpt lat="47.15763" lon="-1.31382">
        <ele>76</ele>
        <time>2021-05-29T10:36:26.000Z</time>
      </trkpt>
      <trkpt lat="47.15766" lon="-1.31367">
        <ele>76</ele>
        <time>2021-05-29T10:36:28.000Z</time>
      </trkpt>
      <trkpt lat="47.15772" lon="-1.31352">
        <ele>76</ele>
        <time>2021-05-29T10:36:30.000Z</time>
      </trkpt>
      <trkpt lat="47.15777" lon="-1.31338">
        <ele>76</ele>
        <time>2021-05-29T10:36:32.000Z</time>
      </trkpt>
      <trkpt lat="47.15782" lon="-1.31322">
        <ele>77</ele>
        <time>2021-05-29T10:36:34.000Z</time>
      </trkpt>
      <trkpt lat="47.15786" lon="-1.31307">
        <ele>77</ele>
        <time>2021-05-29T10:36:36.000Z</time>
      </trkpt>
      <trkpt lat="47.15791" lon="-1.31291">
        <ele>77</ele>
        <time>2021-05-29T10:36:38.000Z</time>
      </trkpt>
      <trkpt lat="47.15797" lon="-1.31276">
        <ele>77</ele>
        <time>2021-05-29T10:36:40.000Z</time>
      </trkpt>
      <trkpt lat="47.15802" lon="-1.3126">
        <ele>77</ele>
        <time>2021-05-29T10:36:42.000Z</time>
      </trkpt>
      <trkpt lat="47.15807" lon="-1.31245">
        <ele>76</ele>
        <time>2021-05-29T10:36:44.000Z</time>
      </trkpt>
      <trkpt lat="47.15811" lon="-1.31232">
        <ele>76</ele>
        <time>2021-05-29T10:36:46.000Z</time>
      </trkpt>
      <trkpt lat="47.15816" lon="-1.31217">
        <ele>76</ele>
        <time>2021-05-29T10:36:48.000Z</time>
      </trkpt>
      <trkpt lat="47.15822" lon="-1.31194">
        <ele>76</ele>
        <time>2021-05-29T10:36:51.000Z</time>
      </trkpt>
      <trkpt lat="47.15827" lon="-1.31178">
        <ele>76</ele>
        <time>2021-05-29T10:36:53.000Z</time>
      </trkpt>
      <trkpt lat="47.15832" lon="-1.31164">
        <ele>76</ele>
        <time>2021-05-29T10:36:55.000Z</time>
      </trkpt>
      <trkpt lat="47.15836" lon="-1.31148">
        <ele>77</ele>
        <time>2021-05-29T10:36:57.000Z</time>
      </trkpt>
      <trkpt lat="47.15842" lon="-1.31134">
        <ele>76</ele>
        <time>2021-05-29T10:36:59.000Z</time>
      </trkpt>
      <trkpt lat="47.15849" lon="-1.31111">
        <ele>76</ele>
        <time>2021-05-29T10:37:02.000Z</time>
      </trkpt>
      <trkpt lat="47.15854" lon="-1.31095">
        <ele>75</ele>
        <time>2021-05-29T10:37:04.000Z</time>
      </trkpt>
      <trkpt lat="47.15859" lon="-1.31081">
        <ele>75</ele>
        <time>2021-05-29T10:37:06.000Z</time>
      </trkpt>
      <trkpt lat="47.15863" lon="-1.31067">
        <ele>75</ele>
        <time>2021-05-29T10:37:08.000Z</time>
      </trkpt>
      <trkpt lat="47.15869" lon="-1.31052">
        <ele>76</ele>
        <time>2021-05-29T10:37:10.000Z</time>
      </trkpt>
      <trkpt lat="47.15872" lon="-1.31038">
        <ele>76</ele>
        <time>2021-05-29T10:37:12.000Z</time>
      </trkpt>
      <trkpt lat="47.15878" lon="-1.31023">
        <ele>74</ele>
        <time>2021-05-29T10:37:14.000Z</time>
      </trkpt>
      <trkpt lat="47.15883" lon="-1.30998">
        <ele>73</ele>
        <time>2021-05-29T10:37:17.000Z</time>
      </trkpt>
      <trkpt lat="47.15888" lon="-1.30984">
        <ele>75</ele>
        <time>2021-05-29T10:37:19.000Z</time>
      </trkpt>
      <trkpt lat="47.15893" lon="-1.30968">
        <ele>73</ele>
        <time>2021-05-29T10:37:21.000Z</time>
      </trkpt>
      <trkpt lat="47.15897" lon="-1.30951">
        <ele>72</ele>
        <time>2021-05-29T10:37:23.000Z</time>
      </trkpt>
      <trkpt lat="47.15902" lon="-1.30937">
        <ele>74</ele>
        <time>2021-05-29T10:37:25.000Z</time>
      </trkpt>
      <trkpt lat="47.15906" lon="-1.30922">
        <ele>75</ele>
        <time>2021-05-29T10:37:27.000Z</time>
      </trkpt>
      <trkpt lat="47.15911" lon="-1.30907">
        <ele>74</ele>
        <time>2021-05-29T10:37:29.000Z</time>
      </trkpt>
      <trkpt lat="47.15916" lon="-1.30892">
        <ele>74</ele>
        <time>2021-05-29T10:37:31.000Z</time>
      </trkpt>
      <trkpt lat="47.15922" lon="-1.30876">
        <ele>75</ele>
        <time>2021-05-29T10:37:33.000Z</time>
      </trkpt>
      <trkpt lat="47.15929" lon="-1.30853">
        <ele>75</ele>
        <time>2021-05-29T10:37:36.000Z</time>
      </trkpt>
      <trkpt lat="47.15933" lon="-1.30838">
        <ele>75</ele>
        <time>2021-05-29T10:37:38.000Z</time>
      </trkpt>
      <trkpt lat="47.15938" lon="-1.30823">
        <ele>76</ele>
        <time>2021-05-29T10:37:40.000Z</time>
      </trkpt>
      <trkpt lat="47.15943" lon="-1.30809">
        <ele>77</ele>
        <time>2021-05-29T10:37:42.000Z</time>
      </trkpt>
      <trkpt lat="47.15947" lon="-1.30793">
        <ele>77</ele>
        <time>2021-05-29T10:37:44.000Z</time>
      </trkpt>
      <trkpt lat="47.15953" lon="-1.30778">
        <ele>76</ele>
        <time>2021-05-29T10:37:46.000Z</time>
      </trkpt>
      <trkpt lat="47.15958" lon="-1.3076">
        <ele>75</ele>
        <time>2021-05-29T10:37:48.000Z</time>
      </trkpt>
      <trkpt lat="47.15964" lon="-1.30739">
        <ele>77</ele>
        <time>2021-05-29T10:37:51.000Z</time>
      </trkpt>
      <trkpt lat="47.15969" lon="-1.30723">
        <ele>76</ele>
        <time>2021-05-29T10:37:53.000Z</time>
      </trkpt>
      <trkpt lat="47.15973" lon="-1.30708">
        <ele>75</ele>
        <time>2021-05-29T10:37:55.000Z</time>
      </trkpt>
      <trkpt lat="47.15978" lon="-1.30694">
        <ele>76</ele>
        <time>2021-05-29T10:37:57.000Z</time>
      </trkpt>
      <trkpt lat="47.15983" lon="-1.30679">
        <ele>75</ele>
        <time>2021-05-29T10:37:59.000Z</time>
      </trkpt>
      <trkpt lat="47.15986" lon="-1.30664">
        <ele>75</ele>
        <time>2021-05-29T10:38:01.000Z</time>
      </trkpt>
      <trkpt lat="47.1599" lon="-1.30649">
        <ele>75</ele>
        <time>2021-05-29T10:38:03.000Z</time>
      </trkpt>
      <trkpt lat="47.15999" lon="-1.30625">
        <ele>73</ele>
        <time>2021-05-29T10:38:06.000Z</time>
      </trkpt>
      <trkpt lat="47.16004" lon="-1.30609">
        <ele>73</ele>
        <time>2021-05-29T10:38:08.000Z</time>
      </trkpt>
      <trkpt lat="47.16008" lon="-1.30591">
        <ele>72</ele>
        <time>2021-05-29T10:38:10.000Z</time>
      </trkpt>
      <trkpt lat="47.16012" lon="-1.30573">
        <ele>72</ele>
        <time>2021-05-29T10:38:12.000Z</time>
      </trkpt>
      <trkpt lat="47.16017" lon="-1.30554">
        <ele>71</ele>
        <time>2021-05-29T10:38:14.000Z</time>
      </trkpt>
      <trkpt lat="47.16021" lon="-1.30534">
        <ele>70</ele>
        <time>2021-05-29T10:38:16.000Z</time>
      </trkpt>
      <trkpt lat="47.16024" lon="-1.30516">
        <ele>70</ele>
        <time>2021-05-29T10:38:18.000Z</time>
      </trkpt>
      <trkpt lat="47.16027" lon="-1.30499">
        <ele>70</ele>
        <time>2021-05-29T10:38:20.000Z</time>
      </trkpt>
      <trkpt lat="47.16032" lon="-1.30474">
        <ele>70</ele>
        <time>2021-05-29T10:38:23.000Z</time>
      </trkpt>
      <trkpt lat="47.16034" lon="-1.30457">
        <ele>67</ele>
        <time>2021-05-29T10:38:25.000Z</time>
      </trkpt>
      <trkpt lat="47.16035" lon="-1.3044">
        <ele>68</ele>
        <time>2021-05-29T10:38:27.000Z</time>
      </trkpt>
      <trkpt lat="47.16035" lon="-1.30424">
        <ele>69</ele>
        <time>2021-05-29T10:38:29.000Z</time>
      </trkpt>
      <trkpt lat="47.16032" lon="-1.30408">
        <ele>69</ele>
        <time>2021-05-29T10:38:31.000Z</time>
      </trkpt>
      <trkpt lat="47.16031" lon="-1.30393">
        <ele>68</ele>
        <time>2021-05-29T10:38:33.000Z</time>
      </trkpt>
      <trkpt lat="47.1603" lon="-1.30379">
        <ele>67</ele>
        <time>2021-05-29T10:38:35.000Z</time>
      </trkpt>
      <trkpt lat="47.1603" lon="-1.30363">
        <ele>68</ele>
        <time>2021-05-29T10:38:37.000Z</time>
      </trkpt>
      <trkpt lat="47.16029" lon="-1.30347">
        <ele>69</ele>
        <time>2021-05-29T10:38:39.000Z</time>
      </trkpt>
      <trkpt lat="47.16029" lon="-1.30332">
        <ele>71</ele>
        <time>2021-05-29T10:38:41.000Z</time>
      </trkpt>
      <trkpt lat="47.16027" lon="-1.3031">
        <ele>70</ele>
        <time>2021-05-29T10:38:44.000Z</time>
      </trkpt>
      <trkpt lat="47.16027" lon="-1.30294">
        <ele>72</ele>
        <time>2021-05-29T10:38:46.000Z</time>
      </trkpt>
      <trkpt lat="47.16027" lon="-1.30278">
        <ele>73</ele>
        <time>2021-05-29T10:38:48.000Z</time>
      </trkpt>
      <trkpt lat="47.16027" lon="-1.30263">
        <ele>73</ele>
        <time>2021-05-29T10:38:50.000Z</time>
      </trkpt>
      <trkpt lat="47.16027" lon="-1.30247">
        <ele>73</ele>
        <time>2021-05-29T10:38:52.000Z</time>
      </trkpt>
      <trkpt lat="47.16027" lon="-1.30232">
        <ele>73</ele>
        <time>2021-05-29T10:38:54.000Z</time>
      </trkpt>
      <trkpt lat="47.16027" lon="-1.30216">
        <ele>74</ele>
        <time>2021-05-29T10:38:56.000Z</time>
      </trkpt>
      <trkpt lat="47.16027" lon="-1.30202">
        <ele>74</ele>
        <time>2021-05-29T10:38:58.000Z</time>
      </trkpt>
      <trkpt lat="47.16026" lon="-1.30187">
        <ele>74</ele>
        <time>2021-05-29T10:39:00.000Z</time>
      </trkpt>
      <trkpt lat="47.16026" lon="-1.30172">
        <ele>74</ele>
        <time>2021-05-29T10:39:02.000Z</time>
      </trkpt>
      <trkpt lat="47.16026" lon="-1.30158">
        <ele>74</ele>
        <time>2021-05-29T10:39:04.000Z</time>
      </trkpt>
      <trkpt lat="47.16026" lon="-1.30143">
        <ele>74</ele>
        <time>2021-05-29T10:39:06.000Z</time>
      </trkpt>
      <trkpt lat="47.16025" lon="-1.30122">
        <ele>74</ele>
        <time>2021-05-29T10:39:09.000Z</time>
      </trkpt>
      <trkpt lat="47.16024" lon="-1.30098">
        <ele>72</ele>
        <time>2021-05-29T10:39:12.000Z</time>
      </trkpt>
      <trkpt lat="47.16024" lon="-1.30082">
        <ele>72</ele>
        <time>2021-05-29T10:39:14.000Z</time>
      </trkpt>
      <trkpt lat="47.16024" lon="-1.30067">
        <ele>72</ele>
        <time>2021-05-29T10:39:16.000Z</time>
      </trkpt>
      <trkpt lat="47.16025" lon="-1.30052">
        <ele>72</ele>
        <time>2021-05-29T10:39:18.000Z</time>
      </trkpt>
      <trkpt lat="47.16029" lon="-1.30037">
        <ele>73</ele>
        <time>2021-05-29T10:39:20.000Z</time>
      </trkpt>
      <trkpt lat="47.16033" lon="-1.30024">
        <ele>74</ele>
        <time>2021-05-29T10:39:22.000Z</time>
      </trkpt>
      <trkpt lat="47.16037" lon="-1.3001">
        <ele>74</ele>
        <time>2021-05-29T10:39:24.000Z</time>
      </trkpt>
      <trkpt lat="47.16042" lon="-1.29988">
        <ele>75</ele>
        <time>2021-05-29T10:39:27.000Z</time>
      </trkpt>
      <trkpt lat="47.16044" lon="-1.29975">
        <ele>74</ele>
        <time>2021-05-29T10:39:29.000Z</time>
      </trkpt>
      <trkpt lat="47.16047" lon="-1.2996">
        <ele>73</ele>
        <time>2021-05-29T10:39:31.000Z</time>
      </trkpt>
      <trkpt lat="47.16051" lon="-1.29945">
        <ele>74</ele>
        <time>2021-05-29T10:39:33.000Z</time>
      </trkpt>
      <trkpt lat="47.16055" lon="-1.29933">
        <ele>76</ele>
        <time>2021-05-29T10:39:35.000Z</time>
      </trkpt>
      <trkpt lat="47.16058" lon="-1.29911">
        <ele>75</ele>
        <time>2021-05-29T10:39:38.000Z</time>
      </trkpt>
      <trkpt lat="47.1606" lon="-1.29895">
        <ele>76</ele>
        <time>2021-05-29T10:39:40.000Z</time>
      </trkpt>
      <trkpt lat="47.16065" lon="-1.29883">
        <ele>76</ele>
        <time>2021-05-29T10:39:42.000Z</time>
      </trkpt>
      <trkpt lat="47.16069" lon="-1.29871">
        <ele>77</ele>
        <time>2021-05-29T10:39:44.000Z</time>
      </trkpt>
      <trkpt lat="47.16074" lon="-1.29857">
        <ele>76</ele>
        <time>2021-05-29T10:39:46.000Z</time>
      </trkpt>
      <trkpt lat="47.16076" lon="-1.29842">
        <ele>75</ele>
        <time>2021-05-29T10:39:48.000Z</time>
      </trkpt>
      <trkpt lat="47.1608" lon="-1.29828">
        <ele>75</ele>
        <time>2021-05-29T10:39:50.000Z</time>
      </trkpt>
      <trkpt lat="47.16085" lon="-1.29814">
        <ele>77</ele>
        <time>2021-05-29T10:39:52.000Z</time>
      </trkpt>
      <trkpt lat="47.16091" lon="-1.29786">
        <ele>78</ele>
        <time>2021-05-29T10:39:56.000Z</time>
      </trkpt>
      <trkpt lat="47.16094" lon="-1.29771">
        <ele>78</ele>
        <time>2021-05-29T10:39:58.000Z</time>
      </trkpt>
      <trkpt lat="47.16098" lon="-1.29757">
        <ele>78</ele>
        <time>2021-05-29T10:40:00.000Z</time>
      </trkpt>
      <trkpt lat="47.16103" lon="-1.2973">
        <ele>78</ele>
        <time>2021-05-29T10:40:04.000Z</time>
      </trkpt>
      <trkpt lat="47.16105" lon="-1.29716">
        <ele>79</ele>
        <time>2021-05-29T10:40:06.000Z</time>
      </trkpt>
      <trkpt lat="47.16108" lon="-1.29694">
        <ele>79</ele>
        <time>2021-05-29T10:40:09.000Z</time>
      </trkpt>
      <trkpt lat="47.16108" lon="-1.29681">
        <ele>79</ele>
        <time>2021-05-29T10:40:11.000Z</time>
      </trkpt>
      <trkpt lat="47.16108" lon="-1.29658">
        <ele>79</ele>
        <time>2021-05-29T10:40:14.000Z</time>
      </trkpt>
      <trkpt lat="47.16106" lon="-1.29644">
        <ele>80</ele>
        <time>2021-05-29T10:40:16.000Z</time>
      </trkpt>
      <trkpt lat="47.16105" lon="-1.29623">
        <ele>81</ele>
        <time>2021-05-29T10:40:19.000Z</time>
      </trkpt>
      <trkpt lat="47.16104" lon="-1.29608">
        <ele>81</ele>
        <time>2021-05-29T10:40:21.000Z</time>
      </trkpt>
      <trkpt lat="47.16103" lon="-1.29592">
        <ele>81</ele>
        <time>2021-05-29T10:40:23.000Z</time>
      </trkpt>
      <trkpt lat="47.16103" lon="-1.29576">
        <ele>81</ele>
        <time>2021-05-29T10:40:25.000Z</time>
      </trkpt>
      <trkpt lat="47.16101" lon="-1.2956">
        <ele>81</ele>
        <time>2021-05-29T10:40:27.000Z</time>
      </trkpt>
      <trkpt lat="47.161" lon="-1.29546">
        <ele>80</ele>
        <time>2021-05-29T10:40:29.000Z</time>
      </trkpt>
      <trkpt lat="47.16097" lon="-1.29524">
        <ele>81</ele>
        <time>2021-05-29T10:40:32.000Z</time>
      </trkpt>
      <trkpt lat="47.16095" lon="-1.29502">
        <ele>81</ele>
        <time>2021-05-29T10:40:35.000Z</time>
      </trkpt>
      <trkpt lat="47.16094" lon="-1.29488">
        <ele>81</ele>
        <time>2021-05-29T10:40:37.000Z</time>
      </trkpt>
      <trkpt lat="47.16093" lon="-1.29475">
        <ele>81</ele>
        <time>2021-05-29T10:40:39.000Z</time>
      </trkpt>
      <trkpt lat="47.16092" lon="-1.29458">
        <ele>81</ele>
        <time>2021-05-29T10:40:41.000Z</time>
      </trkpt>
      <trkpt lat="47.16091" lon="-1.29444">
        <ele>80</ele>
        <time>2021-05-29T10:40:43.000Z</time>
      </trkpt>
      <trkpt lat="47.1609" lon="-1.29431">
        <ele>80</ele>
        <time>2021-05-29T10:40:45.000Z</time>
      </trkpt>
      <trkpt lat="47.16092" lon="-1.29411">
        <ele>80</ele>
        <time>2021-05-29T10:40:48.000Z</time>
      </trkpt>
      <trkpt lat="47.16093" lon="-1.29395">
        <ele>80</ele>
        <time>2021-05-29T10:40:50.000Z</time>
      </trkpt>
      <trkpt lat="47.16096" lon="-1.29381">
        <ele>80</ele>
        <time>2021-05-29T10:40:52.000Z</time>
      </trkpt>
      <trkpt lat="47.16099" lon="-1.29368">
        <ele>80</ele>
        <time>2021-05-29T10:40:54.000Z</time>
      </trkpt>
      <trkpt lat="47.161" lon="-1.29354">
        <ele>80</ele>
        <time>2021-05-29T10:40:56.000Z</time>
      </trkpt>
      <trkpt lat="47.16101" lon="-1.2934">
        <ele>79</ele>
        <time>2021-05-29T10:40:58.000Z</time>
      </trkpt>
      <trkpt lat="47.16107" lon="-1.29322">
        <ele>81</ele>
        <time>2021-05-29T10:41:01.000Z</time>
      </trkpt>
      <trkpt lat="47.16109" lon="-1.29308">
        <ele>81</ele>
        <time>2021-05-29T10:41:03.000Z</time>
      </trkpt>
      <trkpt lat="47.16112" lon="-1.29295">
        <ele>82</ele>
        <time>2021-05-29T10:41:05.000Z</time>
      </trkpt>
      <trkpt lat="47.16114" lon="-1.29275">
        <ele>82</ele>
        <time>2021-05-29T10:41:08.000Z</time>
      </trkpt>
      <trkpt lat="47.16115" lon="-1.29261">
        <ele>83</ele>
        <time>2021-05-29T10:41:10.000Z</time>
      </trkpt>
      <trkpt lat="47.16116" lon="-1.29247">
        <ele>83</ele>
        <time>2021-05-29T10:41:12.000Z</time>
      </trkpt>
      <trkpt lat="47.16116" lon="-1.29232">
        <ele>83</ele>
        <time>2021-05-29T10:41:14.000Z</time>
      </trkpt>
      <trkpt lat="47.16116" lon="-1.29218">
        <ele>83</ele>
        <time>2021-05-29T10:41:16.000Z</time>
      </trkpt>
      <trkpt lat="47.16116" lon="-1.29204">
        <ele>83</ele>
        <time>2021-05-29T10:41:18.000Z</time>
      </trkpt>
      <trkpt lat="47.16117" lon="-1.29182">
        <ele>83</ele>
        <time>2021-05-29T10:41:21.000Z</time>
      </trkpt>
      <trkpt lat="47.16116" lon="-1.29156">
        <ele>83</ele>
        <time>2021-05-29T10:41:24.000Z</time>
      </trkpt>
      <trkpt lat="47.16116" lon="-1.29142">
        <ele>82</ele>
        <time>2021-05-29T10:41:26.000Z</time>
      </trkpt>
      <trkpt lat="47.16116" lon="-1.29129">
        <ele>83</ele>
        <time>2021-05-29T10:41:28.000Z</time>
      </trkpt>
      <trkpt lat="47.16116" lon="-1.29102">
        <ele>82</ele>
        <time>2021-05-29T10:41:32.000Z</time>
      </trkpt>
      <trkpt lat="47.16116" lon="-1.29085">
        <ele>83</ele>
        <time>2021-05-29T10:41:34.000Z</time>
      </trkpt>
      <trkpt lat="47.16116" lon="-1.29071">
        <ele>84</ele>
        <time>2021-05-29T10:41:36.000Z</time>
      </trkpt>
      <trkpt lat="47.16117" lon="-1.29046">
        <ele>84</ele>
        <time>2021-05-29T10:41:39.000Z</time>
      </trkpt>
      <trkpt lat="47.16117" lon="-1.29032">
        <ele>84</ele>
        <time>2021-05-29T10:41:41.000Z</time>
      </trkpt>
      <trkpt lat="47.16118" lon="-1.29019">
        <ele>85</ele>
        <time>2021-05-29T10:41:43.000Z</time>
      </trkpt>
      <trkpt lat="47.16117" lon="-1.29005">
        <ele>85</ele>
        <time>2021-05-29T10:41:45.000Z</time>
      </trkpt>
      <trkpt lat="47.16117" lon="-1.28983">
        <ele>86</ele>
        <time>2021-05-29T10:41:48.000Z</time>
      </trkpt>
      <trkpt lat="47.16117" lon="-1.28969">
        <ele>87</ele>
        <time>2021-05-29T10:41:50.000Z</time>
      </trkpt>
      <trkpt lat="47.16118" lon="-1.28954">
        <ele>87</ele>
        <time>2021-05-29T10:41:52.000Z</time>
      </trkpt>
      <trkpt lat="47.16118" lon="-1.2894">
        <ele>87</ele>
        <time>2021-05-29T10:41:54.000Z</time>
      </trkpt>
      <trkpt lat="47.1612" lon="-1.28926">
        <ele>86</ele>
        <time>2021-05-29T10:41:56.000Z</time>
      </trkpt>
      <trkpt lat="47.16121" lon="-1.28912">
        <ele>87</ele>
        <time>2021-05-29T10:41:58.000Z</time>
      </trkpt>
      <trkpt lat="47.16123" lon="-1.28892">
        <ele>87</ele>
        <time>2021-05-29T10:42:01.000Z</time>
      </trkpt>
      <trkpt lat="47.16125" lon="-1.28879">
        <ele>87</ele>
        <time>2021-05-29T10:42:03.000Z</time>
      </trkpt>
      <trkpt lat="47.16127" lon="-1.2886">
        <ele>88</ele>
        <time>2021-05-29T10:42:06.000Z</time>
      </trkpt>
      <trkpt lat="47.1613" lon="-1.28846">
        <ele>88</ele>
        <time>2021-05-29T10:42:08.000Z</time>
      </trkpt>
      <trkpt lat="47.16134" lon="-1.28825">
        <ele>88</ele>
        <time>2021-05-29T10:42:11.000Z</time>
      </trkpt>
      <trkpt lat="47.16137" lon="-1.28811">
        <ele>89</ele>
        <time>2021-05-29T10:42:13.000Z</time>
      </trkpt>
      <trkpt lat="47.16139" lon="-1.28796">
        <ele>88</ele>
        <time>2021-05-29T10:42:15.000Z</time>
      </trkpt>
      <trkpt lat="47.16142" lon="-1.2878">
        <ele>88</ele>
        <time>2021-05-29T10:42:17.000Z</time>
      </trkpt>
      <trkpt lat="47.16148" lon="-1.28762">
        <ele>87</ele>
        <time>2021-05-29T10:42:20.000Z</time>
      </trkpt>
      <trkpt lat="47.16153" lon="-1.28749">
        <ele>87</ele>
        <time>2021-05-29T10:42:22.000Z</time>
      </trkpt>
      <trkpt lat="47.16158" lon="-1.28738">
        <ele>87</ele>
        <time>2021-05-29T10:42:24.000Z</time>
      </trkpt>
      <trkpt lat="47.16166" lon="-1.28723">
        <ele>86</ele>
        <time>2021-05-29T10:42:27.000Z</time>
      </trkpt>
      <trkpt lat="47.1617" lon="-1.28706">
        <ele>86</ele>
        <time>2021-05-29T10:42:29.000Z</time>
      </trkpt>
      <trkpt lat="47.16175" lon="-1.28693">
        <ele>87</ele>
        <time>2021-05-29T10:42:31.000Z</time>
      </trkpt>
      <trkpt lat="47.1618" lon="-1.2868">
        <ele>87</ele>
        <time>2021-05-29T10:42:33.000Z</time>
      </trkpt>
      <trkpt lat="47.16186" lon="-1.28667">
        <ele>87</ele>
        <time>2021-05-29T10:42:35.000Z</time>
      </trkpt>
      <trkpt lat="47.16191" lon="-1.28655">
        <ele>88</ele>
        <time>2021-05-29T10:42:37.000Z</time>
      </trkpt>
      <trkpt lat="47.16198" lon="-1.28641">
        <ele>88</ele>
        <time>2021-05-29T10:42:39.000Z</time>
      </trkpt>
      <trkpt lat="47.16203" lon="-1.28629">
        <ele>89</ele>
        <time>2021-05-29T10:42:41.000Z</time>
      </trkpt>
      <trkpt lat="47.16206" lon="-1.28617">
        <ele>88</ele>
        <time>2021-05-29T10:42:43.000Z</time>
      </trkpt>
      <trkpt lat="47.16209" lon="-1.28601">
        <ele>87</ele>
        <time>2021-05-29T10:42:45.000Z</time>
      </trkpt>
      <trkpt lat="47.16212" lon="-1.28588">
        <ele>88</ele>
        <time>2021-05-29T10:42:47.000Z</time>
      </trkpt>
      <trkpt lat="47.16215" lon="-1.28574">
        <ele>89</ele>
        <time>2021-05-29T10:42:49.000Z</time>
      </trkpt>
      <trkpt lat="47.16217" lon="-1.2856">
        <ele>89</ele>
        <time>2021-05-29T10:42:51.000Z</time>
      </trkpt>
      <trkpt lat="47.16218" lon="-1.28545">
        <ele>89</ele>
        <time>2021-05-29T10:42:53.000Z</time>
      </trkpt>
      <trkpt lat="47.16221" lon="-1.28525">
        <ele>91</ele>
        <time>2021-05-29T10:42:56.000Z</time>
      </trkpt>
      <trkpt lat="47.16222" lon="-1.28503">
        <ele>90</ele>
        <time>2021-05-29T10:42:59.000Z</time>
      </trkpt>
      <trkpt lat="47.16224" lon="-1.28487">
        <ele>90</ele>
        <time>2021-05-29T10:43:01.000Z</time>
      </trkpt>
      <trkpt lat="47.16226" lon="-1.28473">
        <ele>91</ele>
        <time>2021-05-29T10:43:03.000Z</time>
      </trkpt>
      <trkpt lat="47.16228" lon="-1.28457">
        <ele>90</ele>
        <time>2021-05-29T10:43:05.000Z</time>
      </trkpt>
      <trkpt lat="47.1623" lon="-1.28442">
        <ele>89</ele>
        <time>2021-05-29T10:43:07.000Z</time>
      </trkpt>
      <trkpt lat="47.16231" lon="-1.28427">
        <ele>89</ele>
        <time>2021-05-29T10:43:09.000Z</time>
      </trkpt>
      <trkpt lat="47.16232" lon="-1.28412">
        <ele>90</ele>
        <time>2021-05-29T10:43:11.000Z</time>
      </trkpt>
      <trkpt lat="47.16232" lon="-1.28398">
        <ele>90</ele>
        <time>2021-05-29T10:43:13.000Z</time>
      </trkpt>
      <trkpt lat="47.16232" lon="-1.28381">
        <ele>90</ele>
        <time>2021-05-29T10:43:15.000Z</time>
      </trkpt>
      <trkpt lat="47.16233" lon="-1.28365">
        <ele>90</ele>
        <time>2021-05-29T10:43:17.000Z</time>
      </trkpt>
      <trkpt lat="47.16232" lon="-1.28349">
        <ele>90</ele>
        <time>2021-05-29T10:43:19.000Z</time>
      </trkpt>
      <trkpt lat="47.16229" lon="-1.28325">
        <ele>90</ele>
        <time>2021-05-29T10:43:22.000Z</time>
      </trkpt>
      <trkpt lat="47.16227" lon="-1.2831">
        <ele>91</ele>
        <time>2021-05-29T10:43:24.000Z</time>
      </trkpt>
      <trkpt lat="47.16224" lon="-1.28293">
        <ele>91</ele>
        <time>2021-05-29T10:43:26.000Z</time>
      </trkpt>
      <trkpt lat="47.16221" lon="-1.28277">
        <ele>91</ele>
        <time>2021-05-29T10:43:28.000Z</time>
      </trkpt>
      <trkpt lat="47.16218" lon="-1.28262">
        <ele>91</ele>
        <time>2021-05-29T10:43:30.000Z</time>
      </trkpt>
      <trkpt lat="47.16216" lon="-1.28245">
        <ele>91</ele>
        <time>2021-05-29T10:43:32.000Z</time>
      </trkpt>
      <trkpt lat="47.16213" lon="-1.2823">
        <ele>91</ele>
        <time>2021-05-29T10:43:34.000Z</time>
      </trkpt>
      <trkpt lat="47.1621" lon="-1.28215">
        <ele>91</ele>
        <time>2021-05-29T10:43:36.000Z</time>
      </trkpt>
      <trkpt lat="47.16207" lon="-1.28201">
        <ele>91</ele>
        <time>2021-05-29T10:43:38.000Z</time>
      </trkpt>
      <trkpt lat="47.16203" lon="-1.28186">
        <ele>91</ele>
        <time>2021-05-29T10:43:40.000Z</time>
      </trkpt>
      <trkpt lat="47.162" lon="-1.28164">
        <ele>92</ele>
        <time>2021-05-29T10:43:43.000Z</time>
      </trkpt>
      <trkpt lat="47.16196" lon="-1.28151">
        <ele>92</ele>
        <time>2021-05-29T10:43:45.000Z</time>
      </trkpt>
      <trkpt lat="47.16191" lon="-1.28129">
        <ele>92</ele>
        <time>2021-05-29T10:43:48.000Z</time>
      </trkpt>
      <trkpt lat="47.16188" lon="-1.28109">
        <ele>92</ele>
        <time>2021-05-29T10:43:51.000Z</time>
      </trkpt>
      <trkpt lat="47.16187" lon="-1.28093">
        <ele>92</ele>
        <time>2021-05-29T10:43:53.000Z</time>
      </trkpt>
      <trkpt lat="47.16186" lon="-1.28068">
        <ele>92</ele>
        <time>2021-05-29T10:43:56.000Z</time>
      </trkpt>
      <trkpt lat="47.16184" lon="-1.28054">
        <ele>91</ele>
        <time>2021-05-29T10:43:58.000Z</time>
      </trkpt>
      <trkpt lat="47.16184" lon="-1.28038">
        <ele>92</ele>
        <time>2021-05-29T10:44:00.000Z</time>
      </trkpt>
      <trkpt lat="47.16183" lon="-1.28023">
        <ele>92</ele>
        <time>2021-05-29T10:44:02.000Z</time>
      </trkpt>
      <trkpt lat="47.16182" lon="-1.28008">
        <ele>92</ele>
        <time>2021-05-29T10:44:04.000Z</time>
      </trkpt>
      <trkpt lat="47.16182" lon="-1.27993">
        <ele>92</ele>
        <time>2021-05-29T10:44:06.000Z</time>
      </trkpt>
      <trkpt lat="47.16181" lon="-1.27979">
        <ele>92</ele>
        <time>2021-05-29T10:44:08.000Z</time>
      </trkpt>
      <trkpt lat="47.16182" lon="-1.27963">
        <ele>93</ele>
        <time>2021-05-29T10:44:10.000Z</time>
      </trkpt>
      <trkpt lat="47.16182" lon="-1.27948">
        <ele>93</ele>
        <time>2021-05-29T10:44:12.000Z</time>
      </trkpt>
      <trkpt lat="47.16182" lon="-1.27933">
        <ele>93</ele>
        <time>2021-05-29T10:44:14.000Z</time>
      </trkpt>
      <trkpt lat="47.16182" lon="-1.27918">
        <ele>94</ele>
        <time>2021-05-29T10:44:16.000Z</time>
      </trkpt>
      <trkpt lat="47.16182" lon="-1.27904">
        <ele>94</ele>
        <time>2021-05-29T10:44:18.000Z</time>
      </trkpt>
      <trkpt lat="47.16182" lon="-1.27889">
        <ele>95</ele>
        <time>2021-05-29T10:44:20.000Z</time>
      </trkpt>
      <trkpt lat="47.16184" lon="-1.27866">
        <ele>95</ele>
        <time>2021-05-29T10:44:23.000Z</time>
      </trkpt>
      <trkpt lat="47.16184" lon="-1.2785">
        <ele>95</ele>
        <time>2021-05-29T10:44:25.000Z</time>
      </trkpt>
      <trkpt lat="47.16184" lon="-1.27836">
        <ele>95</ele>
        <time>2021-05-29T10:44:27.000Z</time>
      </trkpt>
      <trkpt lat="47.16184" lon="-1.27823">
        <ele>95</ele>
        <time>2021-05-29T10:44:29.000Z</time>
      </trkpt>
      <trkpt lat="47.16184" lon="-1.27809">
        <ele>96</ele>
        <time>2021-05-29T10:44:31.000Z</time>
      </trkpt>
      <trkpt lat="47.16183" lon="-1.27796">
        <ele>96</ele>
        <time>2021-05-29T10:44:33.000Z</time>
      </trkpt>
      <trkpt lat="47.16184" lon="-1.27775">
        <ele>97</ele>
        <time>2021-05-29T10:44:36.000Z</time>
      </trkpt>
      <trkpt lat="47.16185" lon="-1.27757">
        <ele>98</ele>
        <time>2021-05-29T10:44:39.000Z</time>
      </trkpt>
      <trkpt lat="47.16185" lon="-1.27738">
        <ele>97</ele>
        <time>2021-05-29T10:44:42.000Z</time>
      </trkpt>
      <trkpt lat="47.16187" lon="-1.27719">
        <ele>97</ele>
        <time>2021-05-29T10:44:45.000Z</time>
      </trkpt>
      <trkpt lat="47.1619" lon="-1.27701">
        <ele>99</ele>
        <time>2021-05-29T10:44:48.000Z</time>
      </trkpt>
      <trkpt lat="47.1619" lon="-1.27684">
        <ele>101</ele>
        <time>2021-05-29T10:44:51.000Z</time>
      </trkpt>
      <trkpt lat="47.16187" lon="-1.27665">
        <ele>101</ele>
        <time>2021-05-29T10:44:54.000Z</time>
      </trkpt>
      <trkpt lat="47.16183" lon="-1.27647">
        <ele>102</ele>
        <time>2021-05-29T10:44:57.000Z</time>
      </trkpt>
      <trkpt lat="47.16177" lon="-1.27628">
        <ele>102</ele>
        <time>2021-05-29T10:45:01.000Z</time>
      </trkpt>
      <trkpt lat="47.16173" lon="-1.27614">
        <ele>103</ele>
        <time>2021-05-29T10:45:05.000Z</time>
      </trkpt>
      <trkpt lat="47.16167" lon="-1.27596">
        <ele>103</ele>
        <time>2021-05-29T10:45:08.000Z</time>
      </trkpt>
      <trkpt lat="47.16163" lon="-1.27583">
        <ele>103</ele>
        <time>2021-05-29T10:45:10.000Z</time>
      </trkpt>
      <trkpt lat="47.16155" lon="-1.2756">
        <ele>101</ele>
        <time>2021-05-29T10:45:14.000Z</time>
      </trkpt>
      <trkpt lat="47.16156" lon="-1.27545">
        <ele>101</ele>
        <time>2021-05-29T10:45:16.000Z</time>
      </trkpt>
      <trkpt lat="47.1616" lon="-1.27526">
        <ele>102</ele>
        <time>2021-05-29T10:45:19.000Z</time>
      </trkpt>
      <trkpt lat="47.16165" lon="-1.27511">
        <ele>99</ele>
        <time>2021-05-29T10:45:21.000Z</time>
      </trkpt>
      <trkpt lat="47.16171" lon="-1.27494">
        <ele>100</ele>
        <time>2021-05-29T10:45:24.000Z</time>
      </trkpt>
      <trkpt lat="47.16176" lon="-1.27478">
        <ele>100</ele>
        <time>2021-05-29T10:45:27.000Z</time>
      </trkpt>
      <trkpt lat="47.1618" lon="-1.27463">
        <ele>99</ele>
        <time>2021-05-29T10:45:29.000Z</time>
      </trkpt>
      <trkpt lat="47.16183" lon="-1.27445">
        <ele>99</ele>
        <time>2021-05-29T10:45:32.000Z</time>
      </trkpt>
      <trkpt lat="47.16181" lon="-1.27432">
        <ele>100</ele>
        <time>2021-05-29T10:45:34.000Z</time>
      </trkpt>
      <trkpt lat="47.16175" lon="-1.27414">
        <ele>101</ele>
        <time>2021-05-29T10:45:37.000Z</time>
      </trkpt>
      <trkpt lat="47.16169" lon="-1.27398">
        <ele>101</ele>
        <time>2021-05-29T10:45:40.000Z</time>
      </trkpt>
      <trkpt lat="47.16165" lon="-1.27386">
        <ele>102</ele>
        <time>2021-05-29T10:45:42.000Z</time>
      </trkpt>
      <trkpt lat="47.16162" lon="-1.27371">
        <ele>103</ele>
        <time>2021-05-29T10:45:44.000Z</time>
      </trkpt>
      <trkpt lat="47.16156" lon="-1.27346">
        <ele>104</ele>
        <time>2021-05-29T10:45:48.000Z</time>
      </trkpt>
      <trkpt lat="47.16152" lon="-1.27332">
        <ele>105</ele>
        <time>2021-05-29T10:45:50.000Z</time>
      </trkpt>
      <trkpt lat="47.1615" lon="-1.27319">
        <ele>106</ele>
        <time>2021-05-29T10:45:52.000Z</time>
      </trkpt>
      <trkpt lat="47.16146" lon="-1.273">
        <ele>107</ele>
        <time>2021-05-29T10:45:55.000Z</time>
      </trkpt>
      <trkpt lat="47.16145" lon="-1.27285">
        <ele>107</ele>
        <time>2021-05-29T10:45:57.000Z</time>
      </trkpt>
      <trkpt lat="47.16142" lon="-1.2727">
        <ele>107</ele>
        <time>2021-05-29T10:45:59.000Z</time>
      </trkpt>
      <trkpt lat="47.16141" lon="-1.27255">
        <ele>107</ele>
        <time>2021-05-29T10:46:01.000Z</time>
      </trkpt>
      <trkpt lat="47.16138" lon="-1.27235">
        <ele>106</ele>
        <time>2021-05-29T10:46:04.000Z</time>
      </trkpt>
      <trkpt lat="47.16136" lon="-1.27221">
        <ele>106</ele>
        <time>2021-05-29T10:46:06.000Z</time>
      </trkpt>
      <trkpt lat="47.16134" lon="-1.27206">
        <ele>106</ele>
        <time>2021-05-29T10:46:08.000Z</time>
      </trkpt>
      <trkpt lat="47.16133" lon="-1.2719">
        <ele>106</ele>
        <time>2021-05-29T10:46:10.000Z</time>
      </trkpt>
      <trkpt lat="47.16131" lon="-1.27174">
        <ele>106</ele>
        <time>2021-05-29T10:46:12.000Z</time>
      </trkpt>
      <trkpt lat="47.16126" lon="-1.27151">
        <ele>106</ele>
        <time>2021-05-29T10:46:15.000Z</time>
      </trkpt>
      <trkpt lat="47.16121" lon="-1.27139">
        <ele>105</ele>
        <time>2021-05-29T10:46:17.000Z</time>
      </trkpt>
      <trkpt lat="47.16117" lon="-1.27125">
        <ele>105</ele>
        <time>2021-05-29T10:46:19.000Z</time>
      </trkpt>
      <trkpt lat="47.16115" lon="-1.27106">
        <ele>105</ele>
        <time>2021-05-29T10:46:21.000Z</time>
      </trkpt>
      <trkpt lat="47.16114" lon="-1.27089">
        <ele>105</ele>
        <time>2021-05-29T10:46:23.000Z</time>
      </trkpt>
      <trkpt lat="47.16112" lon="-1.27071">
        <ele>104</ele>
        <time>2021-05-29T10:46:25.000Z</time>
      </trkpt>
      <trkpt lat="47.16111" lon="-1.27055">
        <ele>104</ele>
        <time>2021-05-29T10:46:27.000Z</time>
      </trkpt>
      <trkpt lat="47.16108" lon="-1.27039">
        <ele>103</ele>
        <time>2021-05-29T10:46:29.000Z</time>
      </trkpt>
      <trkpt lat="47.16105" lon="-1.27012">
        <ele>102</ele>
        <time>2021-05-29T10:46:32.000Z</time>
      </trkpt>
      <trkpt lat="47.16102" lon="-1.26997">
        <ele>100</ele>
        <time>2021-05-29T10:46:34.000Z</time>
      </trkpt>
      <trkpt lat="47.161" lon="-1.26981">
        <ele>100</ele>
        <time>2021-05-29T10:46:36.000Z</time>
      </trkpt>
      <trkpt lat="47.16097" lon="-1.26965">
        <ele>101</ele>
        <time>2021-05-29T10:46:38.000Z</time>
      </trkpt>
      <trkpt lat="47.16095" lon="-1.26948">
        <ele>101</ele>
        <time>2021-05-29T10:46:40.000Z</time>
      </trkpt>
      <trkpt lat="47.16092" lon="-1.26931">
        <ele>101</ele>
        <time>2021-05-29T10:46:42.000Z</time>
      </trkpt>
      <trkpt lat="47.16092" lon="-1.26917">
        <ele>101</ele>
        <time>2021-05-29T10:46:44.000Z</time>
      </trkpt>
      <trkpt lat="47.16092" lon="-1.269">
        <ele>101</ele>
        <time>2021-05-29T10:46:47.000Z</time>
      </trkpt>
      <trkpt lat="47.16086" lon="-1.26883">
        <ele>101</ele>
        <time>2021-05-29T10:46:50.000Z</time>
      </trkpt>
      <trkpt lat="47.16082" lon="-1.2687">
        <ele>99</ele>
        <time>2021-05-29T10:46:52.000Z</time>
      </trkpt>
      <trkpt lat="47.16081" lon="-1.2685">
        <ele>98</ele>
        <time>2021-05-29T10:46:54.000Z</time>
      </trkpt>
      <trkpt lat="47.16081" lon="-1.26831">
        <ele>98</ele>
        <time>2021-05-29T10:46:56.000Z</time>
      </trkpt>
      <trkpt lat="47.16081" lon="-1.26813">
        <ele>98</ele>
        <time>2021-05-29T10:46:58.000Z</time>
      </trkpt>
      <trkpt lat="47.1608" lon="-1.26786">
        <ele>98</ele>
        <time>2021-05-29T10:47:01.000Z</time>
      </trkpt>
      <trkpt lat="47.1608" lon="-1.26769">
        <ele>97</ele>
        <time>2021-05-29T10:47:03.000Z</time>
      </trkpt>
      <trkpt lat="47.1608" lon="-1.26753">
        <ele>96</ele>
        <time>2021-05-29T10:47:05.000Z</time>
      </trkpt>
      <trkpt lat="47.16078" lon="-1.26734">
        <ele>96</ele>
        <time>2021-05-29T10:47:07.000Z</time>
      </trkpt>
      <trkpt lat="47.16077" lon="-1.26716">
        <ele>96</ele>
        <time>2021-05-29T10:47:09.000Z</time>
      </trkpt>
      <trkpt lat="47.16075" lon="-1.26697">
        <ele>96</ele>
        <time>2021-05-29T10:47:11.000Z</time>
      </trkpt>
      <trkpt lat="47.16074" lon="-1.2668">
        <ele>95</ele>
        <time>2021-05-29T10:47:13.000Z</time>
      </trkpt>
      <trkpt lat="47.16077" lon="-1.26662">
        <ele>95</ele>
        <time>2021-05-29T10:47:15.000Z</time>
      </trkpt>
      <trkpt lat="47.16081" lon="-1.26647">
        <ele>96</ele>
        <time>2021-05-29T10:47:17.000Z</time>
      </trkpt>
      <trkpt lat="47.16084" lon="-1.26624">
        <ele>96</ele>
        <time>2021-05-29T10:47:20.000Z</time>
      </trkpt>
      <trkpt lat="47.16084" lon="-1.26609">
        <ele>96</ele>
        <time>2021-05-29T10:47:22.000Z</time>
      </trkpt>
      <trkpt lat="47.16084" lon="-1.26593">
        <ele>97</ele>
        <time>2021-05-29T10:47:24.000Z</time>
      </trkpt>
      <trkpt lat="47.16083" lon="-1.26577">
        <ele>97</ele>
        <time>2021-05-29T10:47:26.000Z</time>
      </trkpt>
      <trkpt lat="47.16084" lon="-1.26553">
        <ele>96</ele>
        <time>2021-05-29T10:47:29.000Z</time>
      </trkpt>
      <trkpt lat="47.16091" lon="-1.26538">
        <ele>96</ele>
        <time>2021-05-29T10:47:31.000Z</time>
      </trkpt>
      <trkpt lat="47.16103" lon="-1.26526">
        <ele>98</ele>
        <time>2021-05-29T10:47:33.000Z</time>
      </trkpt>
      <trkpt lat="47.1611" lon="-1.26514">
        <ele>97</ele>
        <time>2021-05-29T10:47:35.000Z</time>
      </trkpt>
      <trkpt lat="47.16116" lon="-1.26503">
        <ele>97</ele>
        <time>2021-05-29T10:47:37.000Z</time>
      </trkpt>
      <trkpt lat="47.16122" lon="-1.2649">
        <ele>97</ele>
        <time>2021-05-29T10:47:39.000Z</time>
      </trkpt>
      <trkpt lat="47.16132" lon="-1.26477">
        <ele>96</ele>
        <time>2021-05-29T10:47:41.000Z</time>
      </trkpt>
      <trkpt lat="47.16139" lon="-1.26463">
        <ele>95</ele>
        <time>2021-05-29T10:47:43.000Z</time>
      </trkpt>
      <trkpt lat="47.16145" lon="-1.26447">
        <ele>95</ele>
        <time>2021-05-29T10:47:45.000Z</time>
      </trkpt>
      <trkpt lat="47.16153" lon="-1.26425">
        <ele>95</ele>
        <time>2021-05-29T10:47:48.000Z</time>
      </trkpt>
      <trkpt lat="47.16159" lon="-1.2641">
        <ele>96</ele>
        <time>2021-05-29T10:47:50.000Z</time>
      </trkpt>
      <trkpt lat="47.16163" lon="-1.26396">
        <ele>96</ele>
        <time>2021-05-29T10:47:52.000Z</time>
      </trkpt>
      <trkpt lat="47.16166" lon="-1.26381">
        <ele>94</ele>
        <time>2021-05-29T10:47:57.000Z</time>
      </trkpt>
      <trkpt lat="47.1617" lon="-1.26357">
        <ele>92</ele>
        <time>2021-05-29T10:48:04.000Z</time>
      </trkpt>
      <trkpt lat="47.16177" lon="-1.26337">
        <ele>92</ele>
        <time>2021-05-29T10:48:06.000Z</time>
      </trkpt>
      <trkpt lat="47.16181" lon="-1.26318">
        <ele>93</ele>
        <time>2021-05-29T10:48:08.000Z</time>
      </trkpt>
      <trkpt lat="47.16186" lon="-1.26299">
        <ele>94</ele>
        <time>2021-05-29T10:48:10.000Z</time>
      </trkpt>
      <trkpt lat="47.16191" lon="-1.26282">
        <ele>94</ele>
        <time>2021-05-29T10:48:12.000Z</time>
      </trkpt>
      <trkpt lat="47.16196" lon="-1.26264">
        <ele>91</ele>
        <time>2021-05-29T10:48:14.000Z</time>
      </trkpt>
      <trkpt lat="47.16198" lon="-1.26245">
        <ele>89</ele>
        <time>2021-05-29T10:48:16.000Z</time>
      </trkpt>
      <trkpt lat="47.16205" lon="-1.26232">
        <ele>89</ele>
        <time>2021-05-29T10:48:18.000Z</time>
      </trkpt>
      <trkpt lat="47.16212" lon="-1.26216">
        <ele>90</ele>
        <time>2021-05-29T10:48:20.000Z</time>
      </trkpt>
      <trkpt lat="47.16219" lon="-1.26202">
        <ele>90</ele>
        <time>2021-05-29T10:48:22.000Z</time>
      </trkpt>
      <trkpt lat="47.16225" lon="-1.26185">
        <ele>89</ele>
        <time>2021-05-29T10:48:24.000Z</time>
      </trkpt>
      <trkpt lat="47.16234" lon="-1.26163">
        <ele>90</ele>
        <time>2021-05-29T10:48:27.000Z</time>
      </trkpt>
      <trkpt lat="47.1624" lon="-1.26149">
        <ele>91</ele>
        <time>2021-05-29T10:48:29.000Z</time>
      </trkpt>
      <trkpt lat="47.16246" lon="-1.26135">
        <ele>92</ele>
        <time>2021-05-29T10:48:31.000Z</time>
      </trkpt>
      <trkpt lat="47.1625" lon="-1.2612">
        <ele>92</ele>
        <time>2021-05-29T10:48:33.000Z</time>
      </trkpt>
      <trkpt lat="47.16255" lon="-1.26088">
        <ele>92</ele>
        <time>2021-05-29T10:48:37.000Z</time>
      </trkpt>
      <trkpt lat="47.16254" lon="-1.26071">
        <ele>93</ele>
        <time>2021-05-29T10:48:39.000Z</time>
      </trkpt>
      <trkpt lat="47.16266" lon="-1.26053">
        <ele>92</ele>
        <time>2021-05-29T10:48:42.000Z</time>
      </trkpt>
      <trkpt lat="47.16273" lon="-1.2604">
        <ele>94</ele>
        <time>2021-05-29T10:48:44.000Z</time>
      </trkpt>
      <trkpt lat="47.16278" lon="-1.26028">
        <ele>94</ele>
        <time>2021-05-29T10:48:46.000Z</time>
      </trkpt>
      <trkpt lat="47.16284" lon="-1.26013">
        <ele>93</ele>
        <time>2021-05-29T10:48:49.000Z</time>
      </trkpt>
      <trkpt lat="47.16284" lon="-1.25996">
        <ele>95</ele>
        <time>2021-05-29T10:48:51.000Z</time>
      </trkpt>
      <trkpt lat="47.16286" lon="-1.25982">
        <ele>96</ele>
        <time>2021-05-29T10:48:53.000Z</time>
      </trkpt>
      <trkpt lat="47.16287" lon="-1.25963">
        <ele>97</ele>
        <time>2021-05-29T10:48:56.000Z</time>
      </trkpt>
      <trkpt lat="47.16291" lon="-1.25946">
        <ele>96</ele>
        <time>2021-05-29T10:48:59.000Z</time>
      </trkpt>
      <trkpt lat="47.16295" lon="-1.25933">
        <ele>97</ele>
        <time>2021-05-29T10:49:01.000Z</time>
      </trkpt>
      <trkpt lat="47.16298" lon="-1.2592">
        <ele>98</ele>
        <time>2021-05-29T10:49:03.000Z</time>
      </trkpt>
      <trkpt lat="47.16299" lon="-1.259">
        <ele>99</ele>
        <time>2021-05-29T10:49:06.000Z</time>
      </trkpt>
      <trkpt lat="47.16303" lon="-1.25887">
        <ele>99</ele>
        <time>2021-05-29T10:49:08.000Z</time>
      </trkpt>
      <trkpt lat="47.16306" lon="-1.25874">
        <ele>100</ele>
        <time>2021-05-29T10:49:10.000Z</time>
      </trkpt>
      <trkpt lat="47.16309" lon="-1.25856">
        <ele>100</ele>
        <time>2021-05-29T10:49:13.000Z</time>
      </trkpt>
      <trkpt lat="47.16312" lon="-1.25843">
        <ele>101</ele>
        <time>2021-05-29T10:49:15.000Z</time>
      </trkpt>
      <trkpt lat="47.16315" lon="-1.25824">
        <ele>101</ele>
        <time>2021-05-29T10:49:18.000Z</time>
      </trkpt>
      <trkpt lat="47.16316" lon="-1.2581">
        <ele>101</ele>
        <time>2021-05-29T10:49:20.000Z</time>
      </trkpt>
      <trkpt lat="47.16318" lon="-1.25792">
        <ele>101</ele>
        <time>2021-05-29T10:49:23.000Z</time>
      </trkpt>
      <trkpt lat="47.1632" lon="-1.25773">
        <ele>102</ele>
        <time>2021-05-29T10:49:26.000Z</time>
      </trkpt>
      <trkpt lat="47.16323" lon="-1.25756">
        <ele>102</ele>
        <time>2021-05-29T10:49:29.000Z</time>
      </trkpt>
      <trkpt lat="47.16326" lon="-1.25741">
        <ele>104</ele>
        <time>2021-05-29T10:49:31.000Z</time>
      </trkpt>
      <trkpt lat="47.16329" lon="-1.25729">
        <ele>104</ele>
        <time>2021-05-29T10:49:33.000Z</time>
      </trkpt>
      <trkpt lat="47.16329" lon="-1.25713">
        <ele>103</ele>
        <time>2021-05-29T10:49:36.000Z</time>
      </trkpt>
      <trkpt lat="47.16334" lon="-1.25686">
        <ele>104</ele>
        <time>2021-05-29T10:49:40.000Z</time>
      </trkpt>
      <trkpt lat="47.16338" lon="-1.25671">
        <ele>104</ele>
        <time>2021-05-29T10:49:42.000Z</time>
      </trkpt>
      <trkpt lat="47.16341" lon="-1.25654">
        <ele>103</ele>
        <time>2021-05-29T10:49:44.000Z</time>
      </trkpt>
      <trkpt lat="47.16347" lon="-1.25639">
        <ele>102</ele>
        <time>2021-05-29T10:49:46.000Z</time>
      </trkpt>
      <trkpt lat="47.16354" lon="-1.25625">
        <ele>102</ele>
        <time>2021-05-29T10:49:48.000Z</time>
      </trkpt>
      <trkpt lat="47.1636" lon="-1.25608">
        <ele>101</ele>
        <time>2021-05-29T10:49:50.000Z</time>
      </trkpt>
      <trkpt lat="47.16366" lon="-1.2559">
        <ele>99</ele>
        <time>2021-05-29T10:49:52.000Z</time>
      </trkpt>
      <trkpt lat="47.16372" lon="-1.25572">
        <ele>99</ele>
        <time>2021-05-29T10:49:54.000Z</time>
      </trkpt>
      <trkpt lat="47.16379" lon="-1.25552">
        <ele>98</ele>
        <time>2021-05-29T10:49:56.000Z</time>
      </trkpt>
      <trkpt lat="47.1639" lon="-1.25521">
        <ele>95</ele>
        <time>2021-05-29T10:49:59.000Z</time>
      </trkpt>
      <trkpt lat="47.16394" lon="-1.25509">
        <ele>93</ele>
        <time>2021-05-29T10:50:00.000Z</time>
      </trkpt>
      <trkpt lat="47.16402" lon="-1.2549">
        <ele>93</ele>
        <time>2021-05-29T10:50:02.000Z</time>
      </trkpt>
      <trkpt lat="47.16408" lon="-1.25469">
        <ele>93</ele>
        <time>2021-05-29T10:50:04.000Z</time>
      </trkpt>
      <trkpt lat="47.16412" lon="-1.25449">
        <ele>93</ele>
        <time>2021-05-29T10:50:06.000Z</time>
      </trkpt>
      <trkpt lat="47.16416" lon="-1.25431">
        <ele>93</ele>
        <time>2021-05-29T10:50:08.000Z</time>
      </trkpt>
      <trkpt lat="47.16425" lon="-1.2542">
        <ele>94</ele>
        <time>2021-05-29T10:50:10.000Z</time>
      </trkpt>
      <trkpt lat="47.16436" lon="-1.25412">
        <ele>94</ele>
        <time>2021-05-29T10:50:12.000Z</time>
      </trkpt>
      <trkpt lat="47.16447" lon="-1.25401">
        <ele>94</ele>
        <time>2021-05-29T10:50:14.000Z</time>
      </trkpt>
      <trkpt lat="47.16456" lon="-1.25388">
        <ele>92</ele>
        <time>2021-05-29T10:50:16.000Z</time>
      </trkpt>
      <trkpt lat="47.16464" lon="-1.25373">
        <ele>91</ele>
        <time>2021-05-29T10:50:18.000Z</time>
      </trkpt>
      <trkpt lat="47.16481" lon="-1.25363">
        <ele>93</ele>
        <time>2021-05-29T10:50:21.000Z</time>
      </trkpt>
      <trkpt lat="47.16491" lon="-1.25353">
        <ele>93</ele>
        <time>2021-05-29T10:50:23.000Z</time>
      </trkpt>
      <trkpt lat="47.165" lon="-1.25345">
        <ele>95</ele>
        <time>2021-05-29T10:50:25.000Z</time>
      </trkpt>
      <trkpt lat="47.16512" lon="-1.25332">
        <ele>96</ele>
        <time>2021-05-29T10:50:28.000Z</time>
      </trkpt>
      <trkpt lat="47.16523" lon="-1.25321">
        <ele>97</ele>
        <time>2021-05-29T10:50:31.000Z</time>
      </trkpt>
      <trkpt lat="47.16532" lon="-1.25311">
        <ele>97</ele>
        <time>2021-05-29T10:50:33.000Z</time>
      </trkpt>
      <trkpt lat="47.1654" lon="-1.25301">
        <ele>98</ele>
        <time>2021-05-29T10:50:35.000Z</time>
      </trkpt>
      <trkpt lat="47.1655" lon="-1.25292">
        <ele>98</ele>
        <time>2021-05-29T10:50:37.000Z</time>
      </trkpt>
      <trkpt lat="47.16559" lon="-1.25279">
        <ele>99</ele>
        <time>2021-05-29T10:50:40.000Z</time>
      </trkpt>
      <trkpt lat="47.16568" lon="-1.25271">
        <ele>99</ele>
        <time>2021-05-29T10:50:42.000Z</time>
      </trkpt>
      <trkpt lat="47.16575" lon="-1.25263">
        <ele>100</ele>
        <time>2021-05-29T10:50:44.000Z</time>
      </trkpt>
      <trkpt lat="47.16581" lon="-1.25253">
        <ele>102</ele>
        <time>2021-05-29T10:50:46.000Z</time>
      </trkpt>
      <trkpt lat="47.16588" lon="-1.25243">
        <ele>102</ele>
        <time>2021-05-29T10:50:48.000Z</time>
      </trkpt>
      <trkpt lat="47.16593" lon="-1.25231">
        <ele>101</ele>
        <time>2021-05-29T10:50:50.000Z</time>
      </trkpt>
      <trkpt lat="47.16601" lon="-1.25221">
        <ele>101</ele>
        <time>2021-05-29T10:50:52.000Z</time>
      </trkpt>
      <trkpt lat="47.16612" lon="-1.25203">
        <ele>102</ele>
        <time>2021-05-29T10:50:56.000Z</time>
      </trkpt>
      <trkpt lat="47.16619" lon="-1.25193">
        <ele>102</ele>
        <time>2021-05-29T10:50:58.000Z</time>
      </trkpt>
      <trkpt lat="47.16625" lon="-1.25183">
        <ele>104</ele>
        <time>2021-05-29T10:51:00.000Z</time>
      </trkpt>
      <trkpt lat="47.16633" lon="-1.25167">
        <ele>104</ele>
        <time>2021-05-29T10:51:03.000Z</time>
      </trkpt>
      <trkpt lat="47.16642" lon="-1.25152">
        <ele>105</ele>
        <time>2021-05-29T10:51:06.000Z</time>
      </trkpt>
      <trkpt lat="47.16651" lon="-1.25137">
        <ele>105</ele>
        <time>2021-05-29T10:51:09.000Z</time>
      </trkpt>
      <trkpt lat="47.16659" lon="-1.25122">
        <ele>106</ele>
        <time>2021-05-29T10:51:12.000Z</time>
      </trkpt>
      <trkpt lat="47.16667" lon="-1.25107">
        <ele>107</ele>
        <time>2021-05-29T10:51:15.000Z</time>
      </trkpt>
      <trkpt lat="47.16679" lon="-1.25091">
        <ele>104</ele>
        <time>2021-05-29T10:51:18.000Z</time>
      </trkpt>
      <trkpt lat="47.16688" lon="-1.25071">
        <ele>106</ele>
        <time>2021-05-29T10:51:22.000Z</time>
      </trkpt>
      <trkpt lat="47.16696" lon="-1.25057">
        <ele>108</ele>
        <time>2021-05-29T10:51:25.000Z</time>
      </trkpt>
      <trkpt lat="47.16704" lon="-1.25043">
        <ele>108</ele>
        <time>2021-05-29T10:51:28.000Z</time>
      </trkpt>
      <trkpt lat="47.16715" lon="-1.25024">
        <ele>109</ele>
        <time>2021-05-29T10:51:32.000Z</time>
      </trkpt>
      <trkpt lat="47.16724" lon="-1.2501">
        <ele>110</ele>
        <time>2021-05-29T10:51:35.000Z</time>
      </trkpt>
      <trkpt lat="47.16731" lon="-1.24994">
        <ele>110</ele>
        <time>2021-05-29T10:51:38.000Z</time>
      </trkpt>
      <trkpt lat="47.16737" lon="-1.24982">
        <ele>111</ele>
        <time>2021-05-29T10:51:40.000Z</time>
      </trkpt>
      <trkpt lat="47.16741" lon="-1.24966">
        <ele>111</ele>
        <time>2021-05-29T10:51:43.000Z</time>
      </trkpt>
      <trkpt lat="47.16749" lon="-1.24958">
        <ele>112</ele>
        <time>2021-05-29T10:51:45.000Z</time>
      </trkpt>
      <trkpt lat="47.16756" lon="-1.24949">
        <ele>112</ele>
        <time>2021-05-29T10:51:47.000Z</time>
      </trkpt>
      <trkpt lat="47.16766" lon="-1.24935">
        <ele>113</ele>
        <time>2021-05-29T10:51:50.000Z</time>
      </trkpt>
      <trkpt lat="47.16775" lon="-1.24926">
        <ele>113</ele>
        <time>2021-05-29T10:51:53.000Z</time>
      </trkpt>
      <trkpt lat="47.16783" lon="-1.24917">
        <ele>114</ele>
        <time>2021-05-29T10:51:55.000Z</time>
      </trkpt>
      <trkpt lat="47.16792" lon="-1.2491">
        <ele>114</ele>
        <time>2021-05-29T10:51:57.000Z</time>
      </trkpt>
      <trkpt lat="47.168" lon="-1.24903">
        <ele>114</ele>
        <time>2021-05-29T10:51:59.000Z</time>
      </trkpt>
      <trkpt lat="47.16811" lon="-1.24893">
        <ele>115</ele>
        <time>2021-05-29T10:52:02.000Z</time>
      </trkpt>
      <trkpt lat="47.16823" lon="-1.24884">
        <ele>115</ele>
        <time>2021-05-29T10:52:05.000Z</time>
      </trkpt>
      <trkpt lat="47.16831" lon="-1.24878">
        <ele>116</ele>
        <time>2021-05-29T10:52:07.000Z</time>
      </trkpt>
      <trkpt lat="47.16839" lon="-1.24871">
        <ele>117</ele>
        <time>2021-05-29T10:52:09.000Z</time>
      </trkpt>
      <trkpt lat="47.16851" lon="-1.24862">
        <ele>118</ele>
        <time>2021-05-29T10:52:12.000Z</time>
      </trkpt>
      <trkpt lat="47.16859" lon="-1.24855">
        <ele>117</ele>
        <time>2021-05-29T10:52:14.000Z</time>
      </trkpt>
      <trkpt lat="47.1687" lon="-1.24844">
        <ele>117</ele>
        <time>2021-05-29T10:52:17.000Z</time>
      </trkpt>
      <trkpt lat="47.16882" lon="-1.24834">
        <ele>119</ele>
        <time>2021-05-29T10:52:20.000Z</time>
      </trkpt>
      <trkpt lat="47.16892" lon="-1.24823">
        <ele>119</ele>
        <time>2021-05-29T10:52:23.000Z</time>
      </trkpt>
      <trkpt lat="47.16902" lon="-1.24813">
        <ele>118</ele>
        <time>2021-05-29T10:52:26.000Z</time>
      </trkpt>
      <trkpt lat="47.16912" lon="-1.24807">
        <ele>118</ele>
        <time>2021-05-29T10:52:28.000Z</time>
      </trkpt>
      <trkpt lat="47.1692" lon="-1.24801">
        <ele>119</ele>
        <time>2021-05-29T10:52:30.000Z</time>
      </trkpt>
      <trkpt lat="47.16932" lon="-1.24793">
        <ele>120</ele>
        <time>2021-05-29T10:52:33.000Z</time>
      </trkpt>
      <trkpt lat="47.16942" lon="-1.24783">
        <ele>121</ele>
        <time>2021-05-29T10:52:36.000Z</time>
      </trkpt>
      <trkpt lat="47.16953" lon="-1.24774">
        <ele>121</ele>
        <time>2021-05-29T10:52:39.000Z</time>
      </trkpt>
      <trkpt lat="47.16962" lon="-1.24769">
        <ele>122</ele>
        <time>2021-05-29T10:52:41.000Z</time>
      </trkpt>
      <trkpt lat="47.1697" lon="-1.24763">
        <ele>122</ele>
        <time>2021-05-29T10:52:43.000Z</time>
      </trkpt>
      <trkpt lat="47.16981" lon="-1.24753">
        <ele>122</ele>
        <time>2021-05-29T10:52:46.000Z</time>
      </trkpt>
      <trkpt lat="47.16989" lon="-1.24746">
        <ele>122</ele>
        <time>2021-05-29T10:52:48.000Z</time>
      </trkpt>
      <trkpt lat="47.17" lon="-1.24736">
        <ele>122</ele>
        <time>2021-05-29T10:52:51.000Z</time>
      </trkpt>
      <trkpt lat="47.17008" lon="-1.24729">
        <ele>123</ele>
        <time>2021-05-29T10:52:53.000Z</time>
      </trkpt>
      <trkpt lat="47.17016" lon="-1.24722">
        <ele>123</ele>
        <time>2021-05-29T10:52:55.000Z</time>
      </trkpt>
      <trkpt lat="47.17024" lon="-1.24715">
        <ele>123</ele>
        <time>2021-05-29T10:52:57.000Z</time>
      </trkpt>
      <trkpt lat="47.17032" lon="-1.24709">
        <ele>123</ele>
        <time>2021-05-29T10:52:59.000Z</time>
      </trkpt>
      <trkpt lat="47.1704" lon="-1.24702">
        <ele>123</ele>
        <time>2021-05-29T10:53:01.000Z</time>
      </trkpt>
      <trkpt lat="47.17051" lon="-1.24693">
        <ele>122</ele>
        <time>2021-05-29T10:53:04.000Z</time>
      </trkpt>
      <trkpt lat="47.17059" lon="-1.24687">
        <ele>122</ele>
        <time>2021-05-29T10:53:06.000Z</time>
      </trkpt>
      <trkpt lat="47.17067" lon="-1.2468">
        <ele>122</ele>
        <time>2021-05-29T10:53:08.000Z</time>
      </trkpt>
      <trkpt lat="47.17079" lon="-1.24671">
        <ele>122</ele>
        <time>2021-05-29T10:53:11.000Z</time>
      </trkpt>
      <trkpt lat="47.17087" lon="-1.24663">
        <ele>122</ele>
        <time>2021-05-29T10:53:13.000Z</time>
      </trkpt>
      <trkpt lat="47.17096" lon="-1.24656">
        <ele>122</ele>
        <time>2021-05-29T10:53:15.000Z</time>
      </trkpt>
      <trkpt lat="47.17104" lon="-1.24649">
        <ele>122</ele>
        <time>2021-05-29T10:53:17.000Z</time>
      </trkpt>
      <trkpt lat="47.17113" lon="-1.24644">
        <ele>122</ele>
        <time>2021-05-29T10:53:19.000Z</time>
      </trkpt>
      <trkpt lat="47.17122" lon="-1.24639">
        <ele>120</ele>
        <time>2021-05-29T10:53:21.000Z</time>
      </trkpt>
      <trkpt lat="47.17131" lon="-1.2463">
        <ele>121</ele>
        <time>2021-05-29T10:53:23.000Z</time>
      </trkpt>
      <trkpt lat="47.17139" lon="-1.24622">
        <ele>122</ele>
        <time>2021-05-29T10:53:25.000Z</time>
      </trkpt>
      <trkpt lat="47.17147" lon="-1.24615">
        <ele>122</ele>
        <time>2021-05-29T10:53:27.000Z</time>
      </trkpt>
      <trkpt lat="47.17156" lon="-1.24606">
        <ele>122</ele>
        <time>2021-05-29T10:53:29.000Z</time>
      </trkpt>
      <trkpt lat="47.17169" lon="-1.24594">
        <ele>122</ele>
        <time>2021-05-29T10:53:32.000Z</time>
      </trkpt>
      <trkpt lat="47.17178" lon="-1.24587">
        <ele>122</ele>
        <time>2021-05-29T10:53:34.000Z</time>
      </trkpt>
      <trkpt lat="47.17187" lon="-1.24581">
        <ele>122</ele>
        <time>2021-05-29T10:53:36.000Z</time>
      </trkpt>
      <trkpt lat="47.17195" lon="-1.24574">
        <ele>122</ele>
        <time>2021-05-29T10:53:38.000Z</time>
      </trkpt>
      <trkpt lat="47.17203" lon="-1.24567">
        <ele>122</ele>
        <time>2021-05-29T10:53:40.000Z</time>
      </trkpt>
      <trkpt lat="47.17212" lon="-1.24558">
        <ele>122</ele>
        <time>2021-05-29T10:53:42.000Z</time>
      </trkpt>
      <trkpt lat="47.17221" lon="-1.24552">
        <ele>121</ele>
        <time>2021-05-29T10:53:44.000Z</time>
      </trkpt>
      <trkpt lat="47.1723" lon="-1.24544">
        <ele>121</ele>
        <time>2021-05-29T10:53:46.000Z</time>
      </trkpt>
      <trkpt lat="47.17239" lon="-1.24537">
        <ele>121</ele>
        <time>2021-05-29T10:53:48.000Z</time>
      </trkpt>
      <trkpt lat="47.17248" lon="-1.24529">
        <ele>121</ele>
        <time>2021-05-29T10:53:50.000Z</time>
      </trkpt>
      <trkpt lat="47.17259" lon="-1.24519">
        <ele>121</ele>
        <time>2021-05-29T10:53:52.000Z</time>
      </trkpt>
      <trkpt lat="47.17268" lon="-1.24513">
        <ele>122</ele>
        <time>2021-05-29T10:53:54.000Z</time>
      </trkpt>
      <trkpt lat="47.17278" lon="-1.24504">
        <ele>122</ele>
        <time>2021-05-29T10:53:56.000Z</time>
      </trkpt>
      <trkpt lat="47.17288" lon="-1.24496">
        <ele>122</ele>
        <time>2021-05-29T10:53:58.000Z</time>
      </trkpt>
      <trkpt lat="47.17297" lon="-1.24488">
        <ele>122</ele>
        <time>2021-05-29T10:54:00.000Z</time>
      </trkpt>
      <trkpt lat="47.17308" lon="-1.2448">
        <ele>122</ele>
        <time>2021-05-29T10:54:02.000Z</time>
      </trkpt>
      <trkpt lat="47.17319" lon="-1.2447">
        <ele>122</ele>
        <time>2021-05-29T10:54:04.000Z</time>
      </trkpt>
      <trkpt lat="47.17327" lon="-1.24459">
        <ele>122</ele>
        <time>2021-05-29T10:54:06.000Z</time>
      </trkpt>
      <trkpt lat="47.17337" lon="-1.24449">
        <ele>121</ele>
        <time>2021-05-29T10:54:08.000Z</time>
      </trkpt>
      <trkpt lat="47.17347" lon="-1.24437">
        <ele>120</ele>
        <time>2021-05-29T10:54:10.000Z</time>
      </trkpt>
      <trkpt lat="47.17355" lon="-1.24422">
        <ele>119</ele>
        <time>2021-05-29T10:54:12.000Z</time>
      </trkpt>
      <trkpt lat="47.17362" lon="-1.24406">
        <ele>119</ele>
        <time>2021-05-29T10:54:14.000Z</time>
      </trkpt>
      <trkpt lat="47.17368" lon="-1.2439">
        <ele>118</ele>
        <time>2021-05-29T10:54:16.000Z</time>
      </trkpt>
      <trkpt lat="47.17372" lon="-1.24374">
        <ele>117</ele>
        <time>2021-05-29T10:54:18.000Z</time>
      </trkpt>
      <trkpt lat="47.17376" lon="-1.24356">
        <ele>117</ele>
        <time>2021-05-29T10:54:20.000Z</time>
      </trkpt>
      <trkpt lat="47.17381" lon="-1.24337">
        <ele>117</ele>
        <time>2021-05-29T10:54:22.000Z</time>
      </trkpt>
      <trkpt lat="47.17383" lon="-1.24315">
        <ele>117</ele>
        <time>2021-05-29T10:54:24.000Z</time>
      </trkpt>
      <trkpt lat="47.17388" lon="-1.24294">
        <ele>117</ele>
        <time>2021-05-29T10:54:26.000Z</time>
      </trkpt>
      <trkpt lat="47.17396" lon="-1.24274">
        <ele>116</ele>
        <time>2021-05-29T10:54:28.000Z</time>
      </trkpt>
      <trkpt lat="47.17403" lon="-1.24252">
        <ele>114</ele>
        <time>2021-05-29T10:54:30.000Z</time>
      </trkpt>
      <trkpt lat="47.17411" lon="-1.24231">
        <ele>113</ele>
        <time>2021-05-29T10:54:32.000Z</time>
      </trkpt>
      <trkpt lat="47.17422" lon="-1.24209">
        <ele>112</ele>
        <time>2021-05-29T10:54:34.000Z</time>
      </trkpt>
      <trkpt lat="47.17428" lon="-1.24198">
        <ele>111</ele>
        <time>2021-05-29T10:54:35.000Z</time>
      </trkpt>
      <trkpt lat="47.17434" lon="-1.24186">
        <ele>110</ele>
        <time>2021-05-29T10:54:36.000Z</time>
      </trkpt>
      <trkpt lat="47.1744" lon="-1.24175">
        <ele>109</ele>
        <time>2021-05-29T10:54:37.000Z</time>
      </trkpt>
      <trkpt lat="47.17445" lon="-1.24164">
        <ele>108</ele>
        <time>2021-05-29T10:54:38.000Z</time>
      </trkpt>
      <trkpt lat="47.17452" lon="-1.24153">
        <ele>108</ele>
        <time>2021-05-29T10:54:39.000Z</time>
      </trkpt>
      <trkpt lat="47.17458" lon="-1.24141">
        <ele>107</ele>
        <time>2021-05-29T10:54:40.000Z</time>
      </trkpt>
      <trkpt lat="47.17464" lon="-1.2413">
        <ele>106</ele>
        <time>2021-05-29T10:54:41.000Z</time>
      </trkpt>
      <trkpt lat="47.17471" lon="-1.24119">
        <ele>105</ele>
        <time>2021-05-29T10:54:42.000Z</time>
      </trkpt>
      <trkpt lat="47.17477" lon="-1.24107">
        <ele>104</ele>
        <time>2021-05-29T10:54:43.000Z</time>
      </trkpt>
      <trkpt lat="47.17483" lon="-1.24097">
        <ele>104</ele>
        <time>2021-05-29T10:54:44.000Z</time>
      </trkpt>
      <trkpt lat="47.17496" lon="-1.24073">
        <ele>104</ele>
        <time>2021-05-29T10:54:46.000Z</time>
      </trkpt>
      <trkpt lat="47.17503" lon="-1.24062">
        <ele>103</ele>
        <time>2021-05-29T10:54:47.000Z</time>
      </trkpt>
      <trkpt lat="47.17509" lon="-1.2405">
        <ele>102</ele>
        <time>2021-05-29T10:54:48.000Z</time>
      </trkpt>
      <trkpt lat="47.17516" lon="-1.24038">
        <ele>102</ele>
        <time>2021-05-29T10:54:49.000Z</time>
      </trkpt>
      <trkpt lat="47.17521" lon="-1.24027">
        <ele>102</ele>
        <time>2021-05-29T10:54:50.000Z</time>
      </trkpt>
      <trkpt lat="47.17532" lon="-1.24007">
        <ele>103</ele>
        <time>2021-05-29T10:54:52.000Z</time>
      </trkpt>
      <trkpt lat="47.17541" lon="-1.23989">
        <ele>103</ele>
        <time>2021-05-29T10:54:54.000Z</time>
      </trkpt>
      <trkpt lat="47.17547" lon="-1.23972">
        <ele>102</ele>
        <time>2021-05-29T10:54:56.000Z</time>
      </trkpt>
      <trkpt lat="47.17553" lon="-1.23954">
        <ele>103</ele>
        <time>2021-05-29T10:54:58.000Z</time>
      </trkpt>
      <trkpt lat="47.17557" lon="-1.23931">
        <ele>103</ele>
        <time>2021-05-29T10:55:01.000Z</time>
      </trkpt>
      <trkpt lat="47.17559" lon="-1.23917">
        <ele>103</ele>
        <time>2021-05-29T10:55:03.000Z</time>
      </trkpt>
      <trkpt lat="47.1756" lon="-1.23903">
        <ele>104</ele>
        <time>2021-05-29T10:55:05.000Z</time>
      </trkpt>
      <trkpt lat="47.17565" lon="-1.23881">
        <ele>106</ele>
        <time>2021-05-29T10:55:08.000Z</time>
      </trkpt>
      <trkpt lat="47.17565" lon="-1.23866">
        <ele>107</ele>
        <time>2021-05-29T10:55:10.000Z</time>
      </trkpt>
      <trkpt lat="47.17568" lon="-1.23852">
        <ele>107</ele>
        <time>2021-05-29T10:55:12.000Z</time>
      </trkpt>
      <trkpt lat="47.17571" lon="-1.23838">
        <ele>106</ele>
        <time>2021-05-29T10:55:14.000Z</time>
      </trkpt>
      <trkpt lat="47.17574" lon="-1.23825">
        <ele>107</ele>
        <time>2021-05-29T10:55:16.000Z</time>
      </trkpt>
      <trkpt lat="47.17577" lon="-1.23811">
        <ele>107</ele>
        <time>2021-05-29T10:55:18.000Z</time>
      </trkpt>
      <trkpt lat="47.1758" lon="-1.23798">
        <ele>108</ele>
        <time>2021-05-29T10:55:20.000Z</time>
      </trkpt>
      <trkpt lat="47.17584" lon="-1.23784">
        <ele>109</ele>
        <time>2021-05-29T10:55:22.000Z</time>
      </trkpt>
      <trkpt lat="47.17588" lon="-1.2377">
        <ele>109</ele>
        <time>2021-05-29T10:55:24.000Z</time>
      </trkpt>
      <trkpt lat="47.17593" lon="-1.23757">
        <ele>109</ele>
        <time>2021-05-29T10:55:26.000Z</time>
      </trkpt>
      <trkpt lat="47.17598" lon="-1.23744">
        <ele>109</ele>
        <time>2021-05-29T10:55:28.000Z</time>
      </trkpt>
      <trkpt lat="47.17604" lon="-1.23732">
        <ele>110</ele>
        <time>2021-05-29T10:55:30.000Z</time>
      </trkpt>
      <trkpt lat="47.17609" lon="-1.2372">
        <ele>110</ele>
        <time>2021-05-29T10:55:32.000Z</time>
      </trkpt>
      <trkpt lat="47.17614" lon="-1.23709">
        <ele>110</ele>
        <time>2021-05-29T10:55:34.000Z</time>
      </trkpt>
      <trkpt lat="47.17621" lon="-1.23697">
        <ele>110</ele>
        <time>2021-05-29T10:55:36.000Z</time>
      </trkpt>
      <trkpt lat="47.17628" lon="-1.23686">
        <ele>111</ele>
        <time>2021-05-29T10:55:38.000Z</time>
      </trkpt>
      <trkpt lat="47.17635" lon="-1.23674">
        <ele>111</ele>
        <time>2021-05-29T10:55:40.000Z</time>
      </trkpt>
      <trkpt lat="47.17642" lon="-1.23659">
        <ele>110</ele>
        <time>2021-05-29T10:55:43.000Z</time>
      </trkpt>
      <trkpt lat="47.17649" lon="-1.23647">
        <ele>110</ele>
        <time>2021-05-29T10:55:45.000Z</time>
      </trkpt>
      <trkpt lat="47.17657" lon="-1.23634">
        <ele>111</ele>
        <time>2021-05-29T10:55:47.000Z</time>
      </trkpt>
      <trkpt lat="47.17669" lon="-1.23611">
        <ele>110</ele>
        <time>2021-05-29T10:55:51.000Z</time>
      </trkpt>
      <trkpt lat="47.17677" lon="-1.236">
        <ele>110</ele>
        <time>2021-05-29T10:55:53.000Z</time>
      </trkpt>
      <trkpt lat="47.17684" lon="-1.23589">
        <ele>110</ele>
        <time>2021-05-29T10:55:55.000Z</time>
      </trkpt>
      <trkpt lat="47.17691" lon="-1.23578">
        <ele>111</ele>
        <time>2021-05-29T10:55:57.000Z</time>
      </trkpt>
      <trkpt lat="47.17699" lon="-1.23564">
        <ele>109</ele>
        <time>2021-05-29T10:56:00.000Z</time>
      </trkpt>
      <trkpt lat="47.17707" lon="-1.23554">
        <ele>110</ele>
        <time>2021-05-29T10:56:02.000Z</time>
      </trkpt>
      <trkpt lat="47.17713" lon="-1.23545">
        <ele>111</ele>
        <time>2021-05-29T10:56:04.000Z</time>
      </trkpt>
      <trkpt lat="47.1772" lon="-1.23535">
        <ele>112</ele>
        <time>2021-05-29T10:56:06.000Z</time>
      </trkpt>
      <trkpt lat="47.17726" lon="-1.23526">
        <ele>112</ele>
        <time>2021-05-29T10:56:08.000Z</time>
      </trkpt>
      <trkpt lat="47.17738" lon="-1.23511">
        <ele>114</ele>
        <time>2021-05-29T10:56:11.000Z</time>
      </trkpt>
      <trkpt lat="47.17749" lon="-1.23499">
        <ele>115</ele>
        <time>2021-05-29T10:56:14.000Z</time>
      </trkpt>
      <trkpt lat="47.17757" lon="-1.2349">
        <ele>115</ele>
        <time>2021-05-29T10:56:16.000Z</time>
      </trkpt>
      <trkpt lat="47.1777" lon="-1.23478">
        <ele>116</ele>
        <time>2021-05-29T10:56:19.000Z</time>
      </trkpt>
      <trkpt lat="47.17778" lon="-1.2347">
        <ele>116</ele>
        <time>2021-05-29T10:56:21.000Z</time>
      </trkpt>
      <trkpt lat="47.17786" lon="-1.23462">
        <ele>116</ele>
        <time>2021-05-29T10:56:23.000Z</time>
      </trkpt>
      <trkpt lat="47.178" lon="-1.2345">
        <ele>115</ele>
        <time>2021-05-29T10:56:26.000Z</time>
      </trkpt>
      <trkpt lat="47.17808" lon="-1.23442">
        <ele>114</ele>
        <time>2021-05-29T10:56:28.000Z</time>
      </trkpt>
      <trkpt lat="47.17816" lon="-1.23434">
        <ele>113</ele>
        <time>2021-05-29T10:56:30.000Z</time>
      </trkpt>
      <trkpt lat="47.17827" lon="-1.23423">
        <ele>113</ele>
        <time>2021-05-29T10:56:33.000Z</time>
      </trkpt>
      <trkpt lat="47.17833" lon="-1.23412">
        <ele>113</ele>
        <time>2021-05-29T10:56:35.000Z</time>
      </trkpt>
      <trkpt lat="47.17841" lon="-1.234">
        <ele>115</ele>
        <time>2021-05-29T10:56:37.000Z</time>
      </trkpt>
      <trkpt lat="47.17852" lon="-1.23382">
        <ele>115</ele>
        <time>2021-05-29T10:56:40.000Z</time>
      </trkpt>
      <trkpt lat="47.17858" lon="-1.23371">
        <ele>116</ele>
        <time>2021-05-29T10:56:42.000Z</time>
      </trkpt>
      <trkpt lat="47.17866" lon="-1.2336">
        <ele>116</ele>
        <time>2021-05-29T10:56:44.000Z</time>
      </trkpt>
      <trkpt lat="47.17875" lon="-1.23344">
        <ele>116</ele>
        <time>2021-05-29T10:56:47.000Z</time>
      </trkpt>
      <trkpt lat="47.17882" lon="-1.23333">
        <ele>116</ele>
        <time>2021-05-29T10:56:49.000Z</time>
      </trkpt>
      <trkpt lat="47.17888" lon="-1.23321">
        <ele>117</ele>
        <time>2021-05-29T10:56:51.000Z</time>
      </trkpt>
      <trkpt lat="47.17895" lon="-1.23309">
        <ele>117</ele>
        <time>2021-05-29T10:56:53.000Z</time>
      </trkpt>
      <trkpt lat="47.17902" lon="-1.23299">
        <ele>116</ele>
        <time>2021-05-29T10:56:55.000Z</time>
      </trkpt>
      <trkpt lat="47.17908" lon="-1.23286">
        <ele>117</ele>
        <time>2021-05-29T10:56:57.000Z</time>
      </trkpt>
      <trkpt lat="47.17915" lon="-1.23277">
        <ele>117</ele>
        <time>2021-05-29T10:56:59.000Z</time>
      </trkpt>
      <trkpt lat="47.17921" lon="-1.23266">
        <ele>118</ele>
        <time>2021-05-29T10:57:01.000Z</time>
      </trkpt>
      <trkpt lat="47.1793" lon="-1.23253">
        <ele>118</ele>
        <time>2021-05-29T10:57:04.000Z</time>
      </trkpt>
      <trkpt lat="47.17936" lon="-1.23242">
        <ele>118</ele>
        <time>2021-05-29T10:57:06.000Z</time>
      </trkpt>
      <trkpt lat="47.17943" lon="-1.23231">
        <ele>120</ele>
        <time>2021-05-29T10:57:08.000Z</time>
      </trkpt>
      <trkpt lat="47.17949" lon="-1.23221">
        <ele>121</ele>
        <time>2021-05-29T10:57:10.000Z</time>
      </trkpt>
      <trkpt lat="47.17955" lon="-1.23211">
        <ele>120</ele>
        <time>2021-05-29T10:57:12.000Z</time>
      </trkpt>
      <trkpt lat="47.17963" lon="-1.23201">
        <ele>120</ele>
        <time>2021-05-29T10:57:14.000Z</time>
      </trkpt>
      <trkpt lat="47.17969" lon="-1.2319">
        <ele>119</ele>
        <time>2021-05-29T10:57:16.000Z</time>
      </trkpt>
      <trkpt lat="47.17975" lon="-1.23176">
        <ele>120</ele>
        <time>2021-05-29T10:57:18.000Z</time>
      </trkpt>
      <trkpt lat="47.17982" lon="-1.23165">
        <ele>120</ele>
        <time>2021-05-29T10:57:20.000Z</time>
      </trkpt>
      <trkpt lat="47.17992" lon="-1.2315">
        <ele>120</ele>
        <time>2021-05-29T10:57:23.000Z</time>
      </trkpt>
      <trkpt lat="47.18" lon="-1.23137">
        <ele>121</ele>
        <time>2021-05-29T10:57:26.000Z</time>
      </trkpt>
      <trkpt lat="47.18009" lon="-1.23124">
        <ele>120</ele>
        <time>2021-05-29T10:57:29.000Z</time>
      </trkpt>
      <trkpt lat="47.18015" lon="-1.23113">
        <ele>119</ele>
        <time>2021-05-29T10:57:31.000Z</time>
      </trkpt>
      <trkpt lat="47.18025" lon="-1.23097">
        <ele>121</ele>
        <time>2021-05-29T10:57:34.000Z</time>
      </trkpt>
      <trkpt lat="47.18032" lon="-1.23086">
        <ele>122</ele>
        <time>2021-05-29T10:57:36.000Z</time>
      </trkpt>
      <trkpt lat="47.18038" lon="-1.23075">
        <ele>122</ele>
        <time>2021-05-29T10:57:38.000Z</time>
      </trkpt>
      <trkpt lat="47.18044" lon="-1.23065">
        <ele>121</ele>
        <time>2021-05-29T10:57:40.000Z</time>
      </trkpt>
      <trkpt lat="47.18053" lon="-1.2305">
        <ele>122</ele>
        <time>2021-05-29T10:57:43.000Z</time>
      </trkpt>
      <trkpt lat="47.1806" lon="-1.2304">
        <ele>123</ele>
        <time>2021-05-29T10:57:45.000Z</time>
      </trkpt>
      <trkpt lat="47.18066" lon="-1.23028">
        <ele>123</ele>
        <time>2021-05-29T10:57:47.000Z</time>
      </trkpt>
      <trkpt lat="47.18072" lon="-1.23018">
        <ele>123</ele>
        <time>2021-05-29T10:57:49.000Z</time>
      </trkpt>
      <trkpt lat="47.18081" lon="-1.23003">
        <ele>123</ele>
        <time>2021-05-29T10:57:52.000Z</time>
      </trkpt>
      <trkpt lat="47.18088" lon="-1.22992">
        <ele>123</ele>
        <time>2021-05-29T10:57:54.000Z</time>
      </trkpt>
      <trkpt lat="47.18094" lon="-1.22982">
        <ele>124</ele>
        <time>2021-05-29T10:57:56.000Z</time>
      </trkpt>
      <trkpt lat="47.181" lon="-1.22972">
        <ele>124</ele>
        <time>2021-05-29T10:57:58.000Z</time>
      </trkpt>
      <trkpt lat="47.18107" lon="-1.22961">
        <ele>124</ele>
        <time>2021-05-29T10:58:00.000Z</time>
      </trkpt>
      <trkpt lat="47.18113" lon="-1.22951">
        <ele>123</ele>
        <time>2021-05-29T10:58:02.000Z</time>
      </trkpt>
      <trkpt lat="47.18118" lon="-1.22939">
        <ele>124</ele>
        <time>2021-05-29T10:58:04.000Z</time>
      </trkpt>
      <trkpt lat="47.18127" lon="-1.22926">
        <ele>125</ele>
        <time>2021-05-29T10:58:07.000Z</time>
      </trkpt>
      <trkpt lat="47.18136" lon="-1.22913">
        <ele>124</ele>
        <time>2021-05-29T10:58:10.000Z</time>
      </trkpt>
      <trkpt lat="47.18144" lon="-1.22899">
        <ele>125</ele>
        <time>2021-05-29T10:58:12.000Z</time>
      </trkpt>
      <trkpt lat="47.1815" lon="-1.22887">
        <ele>125</ele>
        <time>2021-05-29T10:58:14.000Z</time>
      </trkpt>
      <trkpt lat="47.18157" lon="-1.22876">
        <ele>126</ele>
        <time>2021-05-29T10:58:16.000Z</time>
      </trkpt>
      <trkpt lat="47.18164" lon="-1.22867">
        <ele>126</ele>
        <time>2021-05-29T10:58:18.000Z</time>
      </trkpt>
      <trkpt lat="47.1817" lon="-1.22856">
        <ele>126</ele>
        <time>2021-05-29T10:58:20.000Z</time>
      </trkpt>
      <trkpt lat="47.18177" lon="-1.22845">
        <ele>126</ele>
        <time>2021-05-29T10:58:22.000Z</time>
      </trkpt>
      <trkpt lat="47.18185" lon="-1.2283">
        <ele>127</ele>
        <time>2021-05-29T10:58:25.000Z</time>
      </trkpt>
      <trkpt lat="47.18191" lon="-1.2282">
        <ele>127</ele>
        <time>2021-05-29T10:58:27.000Z</time>
      </trkpt>
      <trkpt lat="47.18198" lon="-1.22809">
        <ele>127</ele>
        <time>2021-05-29T10:58:29.000Z</time>
      </trkpt>
      <trkpt lat="47.18204" lon="-1.22798">
        <ele>128</ele>
        <time>2021-05-29T10:58:31.000Z</time>
      </trkpt>
      <trkpt lat="47.1821" lon="-1.22788">
        <ele>128</ele>
        <time>2021-05-29T10:58:33.000Z</time>
      </trkpt>
      <trkpt lat="47.18216" lon="-1.22778">
        <ele>129</ele>
        <time>2021-05-29T10:58:35.000Z</time>
      </trkpt>
      <trkpt lat="47.18222" lon="-1.22768">
        <ele>129</ele>
        <time>2021-05-29T10:58:37.000Z</time>
      </trkpt>
      <trkpt lat="47.18228" lon="-1.22758">
        <ele>129</ele>
        <time>2021-05-29T10:58:39.000Z</time>
      </trkpt>
      <trkpt lat="47.18235" lon="-1.22747">
        <ele>130</ele>
        <time>2021-05-29T10:58:41.000Z</time>
      </trkpt>
      <trkpt lat="47.18242" lon="-1.22736">
        <ele>130</ele>
        <time>2021-05-29T10:58:43.000Z</time>
      </trkpt>
      <trkpt lat="47.18248" lon="-1.22726">
        <ele>129</ele>
        <time>2021-05-29T10:58:45.000Z</time>
      </trkpt>
      <trkpt lat="47.18257" lon="-1.2271">
        <ele>129</ele>
        <time>2021-05-29T10:58:48.000Z</time>
      </trkpt>
      <trkpt lat="47.18264" lon="-1.22701">
        <ele>129</ele>
        <time>2021-05-29T10:58:50.000Z</time>
      </trkpt>
      <trkpt lat="47.18269" lon="-1.2269">
        <ele>128</ele>
        <time>2021-05-29T10:58:52.000Z</time>
      </trkpt>
      <trkpt lat="47.18279" lon="-1.22674">
        <ele>129</ele>
        <time>2021-05-29T10:58:55.000Z</time>
      </trkpt>
      <trkpt lat="47.18286" lon="-1.22665">
        <ele>129</ele>
        <time>2021-05-29T10:58:57.000Z</time>
      </trkpt>
      <trkpt lat="47.18292" lon="-1.22654">
        <ele>131</ele>
        <time>2021-05-29T10:58:59.000Z</time>
      </trkpt>
      <trkpt lat="47.183" lon="-1.2264">
        <ele>130</ele>
        <time>2021-05-29T10:59:02.000Z</time>
      </trkpt>
      <trkpt lat="47.18307" lon="-1.22628">
        <ele>129</ele>
        <time>2021-05-29T10:59:04.000Z</time>
      </trkpt>
      <trkpt lat="47.18314" lon="-1.22617">
        <ele>130</ele>
        <time>2021-05-29T10:59:06.000Z</time>
      </trkpt>
      <trkpt lat="47.1832" lon="-1.22605">
        <ele>131</ele>
        <time>2021-05-29T10:59:08.000Z</time>
      </trkpt>
      <trkpt lat="47.18327" lon="-1.22594">
        <ele>131</ele>
        <time>2021-05-29T10:59:10.000Z</time>
      </trkpt>
      <trkpt lat="47.18333" lon="-1.22583">
        <ele>132</ele>
        <time>2021-05-29T10:59:12.000Z</time>
      </trkpt>
      <trkpt lat="47.18339" lon="-1.22572">
        <ele>132</ele>
        <time>2021-05-29T10:59:14.000Z</time>
      </trkpt>
      <trkpt lat="47.18345" lon="-1.22561">
        <ele>132</ele>
        <time>2021-05-29T10:59:16.000Z</time>
      </trkpt>
      <trkpt lat="47.18352" lon="-1.2255">
        <ele>133</ele>
        <time>2021-05-29T10:59:18.000Z</time>
      </trkpt>
      <trkpt lat="47.18362" lon="-1.22535">
        <ele>132</ele>
        <time>2021-05-29T10:59:21.000Z</time>
      </trkpt>
      <trkpt lat="47.18371" lon="-1.22519">
        <ele>133</ele>
        <time>2021-05-29T10:59:24.000Z</time>
      </trkpt>
      <trkpt lat="47.18378" lon="-1.22509">
        <ele>133</ele>
        <time>2021-05-29T10:59:26.000Z</time>
      </trkpt>
      <trkpt lat="47.18386" lon="-1.22493">
        <ele>132</ele>
        <time>2021-05-29T10:59:29.000Z</time>
      </trkpt>
      <trkpt lat="47.18392" lon="-1.22481">
        <ele>133</ele>
        <time>2021-05-29T10:59:31.000Z</time>
      </trkpt>
      <trkpt lat="47.18398" lon="-1.22471">
        <ele>133</ele>
        <time>2021-05-29T10:59:33.000Z</time>
      </trkpt>
      <trkpt lat="47.18407" lon="-1.22458">
        <ele>133</ele>
        <time>2021-05-29T10:59:36.000Z</time>
      </trkpt>
      <trkpt lat="47.18413" lon="-1.22448">
        <ele>133</ele>
        <time>2021-05-29T10:59:38.000Z</time>
      </trkpt>
      <trkpt lat="47.18421" lon="-1.22436">
        <ele>133</ele>
        <time>2021-05-29T10:59:40.000Z</time>
      </trkpt>
      <trkpt lat="47.18427" lon="-1.22426">
        <ele>133</ele>
        <time>2021-05-29T10:59:42.000Z</time>
      </trkpt>
      <trkpt lat="47.18434" lon="-1.22416">
        <ele>133</ele>
        <time>2021-05-29T10:59:44.000Z</time>
      </trkpt>
      <trkpt lat="47.18441" lon="-1.22404">
        <ele>133</ele>
        <time>2021-05-29T10:59:46.000Z</time>
      </trkpt>
      <trkpt lat="47.18447" lon="-1.22393">
        <ele>133</ele>
        <time>2021-05-29T10:59:48.000Z</time>
      </trkpt>
      <trkpt lat="47.18456" lon="-1.22376">
        <ele>134</ele>
        <time>2021-05-29T10:59:51.000Z</time>
      </trkpt>
      <trkpt lat="47.18463" lon="-1.22365">
        <ele>134</ele>
        <time>2021-05-29T10:59:53.000Z</time>
      </trkpt>
      <trkpt lat="47.1847" lon="-1.22356">
        <ele>133</ele>
        <time>2021-05-29T10:59:55.000Z</time>
      </trkpt>
      <trkpt lat="47.18476" lon="-1.22345">
        <ele>133</ele>
        <time>2021-05-29T10:59:57.000Z</time>
      </trkpt>
      <trkpt lat="47.18483" lon="-1.22333">
        <ele>133</ele>
        <time>2021-05-29T10:59:59.000Z</time>
      </trkpt>
      <trkpt lat="47.1849" lon="-1.22323">
        <ele>132</ele>
        <time>2021-05-29T11:00:01.000Z</time>
      </trkpt>
      <trkpt lat="47.18496" lon="-1.22313">
        <ele>132</ele>
        <time>2021-05-29T11:00:03.000Z</time>
      </trkpt>
      <trkpt lat="47.18503" lon="-1.22303">
        <ele>132</ele>
        <time>2021-05-29T11:00:05.000Z</time>
      </trkpt>
      <trkpt lat="47.18513" lon="-1.22286">
        <ele>132</ele>
        <time>2021-05-29T11:00:08.000Z</time>
      </trkpt>
      <trkpt lat="47.18522" lon="-1.22269">
        <ele>131</ele>
        <time>2021-05-29T11:00:11.000Z</time>
      </trkpt>
      <trkpt lat="47.18529" lon="-1.22259">
        <ele>132</ele>
        <time>2021-05-29T11:00:13.000Z</time>
      </trkpt>
      <trkpt lat="47.18535" lon="-1.22248">
        <ele>132</ele>
        <time>2021-05-29T11:00:15.000Z</time>
      </trkpt>
      <trkpt lat="47.18542" lon="-1.22238">
        <ele>132</ele>
        <time>2021-05-29T11:00:17.000Z</time>
      </trkpt>
      <trkpt lat="47.18549" lon="-1.22229">
        <ele>132</ele>
        <time>2021-05-29T11:00:19.000Z</time>
      </trkpt>
      <trkpt lat="47.18556" lon="-1.22218">
        <ele>131</ele>
        <time>2021-05-29T11:00:21.000Z</time>
      </trkpt>
      <trkpt lat="47.18562" lon="-1.22206">
        <ele>131</ele>
        <time>2021-05-29T11:00:23.000Z</time>
      </trkpt>
      <trkpt lat="47.18572" lon="-1.22191">
        <ele>131</ele>
        <time>2021-05-29T11:00:26.000Z</time>
      </trkpt>
      <trkpt lat="47.18578" lon="-1.22179">
        <ele>132</ele>
        <time>2021-05-29T11:00:28.000Z</time>
      </trkpt>
      <trkpt lat="47.18585" lon="-1.22165">
        <ele>133</ele>
        <time>2021-05-29T11:00:30.000Z</time>
      </trkpt>
      <trkpt lat="47.18591" lon="-1.22154">
        <ele>133</ele>
        <time>2021-05-29T11:00:32.000Z</time>
      </trkpt>
      <trkpt lat="47.18598" lon="-1.22143">
        <ele>134</ele>
        <time>2021-05-29T11:00:34.000Z</time>
      </trkpt>
      <trkpt lat="47.18605" lon="-1.22132">
        <ele>134</ele>
        <time>2021-05-29T11:00:36.000Z</time>
      </trkpt>
      <trkpt lat="47.18612" lon="-1.22121">
        <ele>134</ele>
        <time>2021-05-29T11:00:38.000Z</time>
      </trkpt>
      <trkpt lat="47.18619" lon="-1.22111">
        <ele>134</ele>
        <time>2021-05-29T11:00:40.000Z</time>
      </trkpt>
      <trkpt lat="47.18627" lon="-1.22101">
        <ele>134</ele>
        <time>2021-05-29T11:00:42.000Z</time>
      </trkpt>
      <trkpt lat="47.18635" lon="-1.22092">
        <ele>135</ele>
        <time>2021-05-29T11:00:44.000Z</time>
      </trkpt>
      <trkpt lat="47.18646" lon="-1.22084">
        <ele>135</ele>
        <time>2021-05-29T11:00:46.000Z</time>
      </trkpt>
      <trkpt lat="47.18655" lon="-1.22075">
        <ele>134</ele>
        <time>2021-05-29T11:00:48.000Z</time>
      </trkpt>
      <trkpt lat="47.18663" lon="-1.22067">
        <ele>134</ele>
        <time>2021-05-29T11:00:50.000Z</time>
      </trkpt>
      <trkpt lat="47.18674" lon="-1.22054">
        <ele>134</ele>
        <time>2021-05-29T11:00:53.000Z</time>
      </trkpt>
      <trkpt lat="47.18683" lon="-1.22046">
        <ele>134</ele>
        <time>2021-05-29T11:00:55.000Z</time>
      </trkpt>
      <trkpt lat="47.18691" lon="-1.22039">
        <ele>134</ele>
        <time>2021-05-29T11:00:57.000Z</time>
      </trkpt>
      <trkpt lat="47.18703" lon="-1.22026">
        <ele>134</ele>
        <time>2021-05-29T11:01:00.000Z</time>
      </trkpt>
      <trkpt lat="47.18711" lon="-1.22018">
        <ele>134</ele>
        <time>2021-05-29T11:01:02.000Z</time>
      </trkpt>
      <trkpt lat="47.18722" lon="-1.22007">
        <ele>133</ele>
        <time>2021-05-29T11:01:05.000Z</time>
      </trkpt>
      <trkpt lat="47.1873" lon="-1.21997">
        <ele>133</ele>
        <time>2021-05-29T11:01:07.000Z</time>
      </trkpt>
      <trkpt lat="47.18739" lon="-1.21987">
        <ele>133</ele>
        <time>2021-05-29T11:01:09.000Z</time>
      </trkpt>
      <trkpt lat="47.18749" lon="-1.21979">
        <ele>131</ele>
        <time>2021-05-29T11:01:11.000Z</time>
      </trkpt>
      <trkpt lat="47.18757" lon="-1.21969">
        <ele>130</ele>
        <time>2021-05-29T11:01:13.000Z</time>
      </trkpt>
      <trkpt lat="47.18767" lon="-1.21957">
        <ele>131</ele>
        <time>2021-05-29T11:01:16.000Z</time>
      </trkpt>
      <trkpt lat="47.18776" lon="-1.21949">
        <ele>131</ele>
        <time>2021-05-29T11:01:18.000Z</time>
      </trkpt>
      <trkpt lat="47.18784" lon="-1.2194">
        <ele>132</ele>
        <time>2021-05-29T11:01:20.000Z</time>
      </trkpt>
      <trkpt lat="47.18792" lon="-1.21931">
        <ele>132</ele>
        <time>2021-05-29T11:01:22.000Z</time>
      </trkpt>
      <trkpt lat="47.188" lon="-1.21922">
        <ele>133</ele>
        <time>2021-05-29T11:01:24.000Z</time>
      </trkpt>
      <trkpt lat="47.18808" lon="-1.21913">
        <ele>133</ele>
        <time>2021-05-29T11:01:26.000Z</time>
      </trkpt>
      <trkpt lat="47.18816" lon="-1.21903">
        <ele>133</ele>
        <time>2021-05-29T11:01:28.000Z</time>
      </trkpt>
      <trkpt lat="47.18829" lon="-1.2189">
        <ele>133</ele>
        <time>2021-05-29T11:01:31.000Z</time>
      </trkpt>
      <trkpt lat="47.18837" lon="-1.21881">
        <ele>133</ele>
        <time>2021-05-29T11:01:33.000Z</time>
      </trkpt>
      <trkpt lat="47.18845" lon="-1.21872">
        <ele>133</ele>
        <time>2021-05-29T11:01:35.000Z</time>
      </trkpt>
      <trkpt lat="47.18853" lon="-1.21863">
        <ele>134</ele>
        <time>2021-05-29T11:01:37.000Z</time>
      </trkpt>
      <trkpt lat="47.18861" lon="-1.21855">
        <ele>134</ele>
        <time>2021-05-29T11:01:39.000Z</time>
      </trkpt>
      <trkpt lat="47.18869" lon="-1.21845">
        <ele>134</ele>
        <time>2021-05-29T11:01:41.000Z</time>
      </trkpt>
      <trkpt lat="47.18877" lon="-1.21836">
        <ele>134</ele>
        <time>2021-05-29T11:01:43.000Z</time>
      </trkpt>
      <trkpt lat="47.18886" lon="-1.21826">
        <ele>134</ele>
        <time>2021-05-29T11:01:45.000Z</time>
      </trkpt>
      <trkpt lat="47.18894" lon="-1.21817">
        <ele>135</ele>
        <time>2021-05-29T11:01:47.000Z</time>
      </trkpt>
      <trkpt lat="47.18901" lon="-1.21806">
        <ele>135</ele>
        <time>2021-05-29T11:01:49.000Z</time>
      </trkpt>
      <trkpt lat="47.18909" lon="-1.21796">
        <ele>133</ele>
        <time>2021-05-29T11:01:51.000Z</time>
      </trkpt>
      <trkpt lat="47.18917" lon="-1.21786">
        <ele>134</ele>
        <time>2021-05-29T11:01:53.000Z</time>
      </trkpt>
      <trkpt lat="47.18926" lon="-1.21776">
        <ele>135</ele>
        <time>2021-05-29T11:01:55.000Z</time>
      </trkpt>
      <trkpt lat="47.18933" lon="-1.21767">
        <ele>133</ele>
        <time>2021-05-29T11:01:57.000Z</time>
      </trkpt>
      <trkpt lat="47.18941" lon="-1.21757">
        <ele>133</ele>
        <time>2021-05-29T11:01:59.000Z</time>
      </trkpt>
      <trkpt lat="47.1895" lon="-1.21746">
        <ele>133</ele>
        <time>2021-05-29T11:02:01.000Z</time>
      </trkpt>
      <trkpt lat="47.18961" lon="-1.21733">
        <ele>133</ele>
        <time>2021-05-29T11:02:03.000Z</time>
      </trkpt>
      <trkpt lat="47.1897" lon="-1.21721">
        <ele>132</ele>
        <time>2021-05-29T11:02:05.000Z</time>
      </trkpt>
      <trkpt lat="47.18979" lon="-1.21711">
        <ele>133</ele>
        <time>2021-05-29T11:02:07.000Z</time>
      </trkpt>
      <trkpt lat="47.18985" lon="-1.217">
        <ele>133</ele>
        <time>2021-05-29T11:02:09.000Z</time>
      </trkpt>
      <trkpt lat="47.18995" lon="-1.2169">
        <ele>134</ele>
        <time>2021-05-29T11:02:11.000Z</time>
      </trkpt>
      <trkpt lat="47.19004" lon="-1.21679">
        <ele>134</ele>
        <time>2021-05-29T11:02:13.000Z</time>
      </trkpt>
      <trkpt lat="47.19014" lon="-1.21669">
        <ele>133</ele>
        <time>2021-05-29T11:02:15.000Z</time>
      </trkpt>
      <trkpt lat="47.19023" lon="-1.21657">
        <ele>133</ele>
        <time>2021-05-29T11:02:17.000Z</time>
      </trkpt>
      <trkpt lat="47.19034" lon="-1.21641">
        <ele>134</ele>
        <time>2021-05-29T11:02:20.000Z</time>
      </trkpt>
      <trkpt lat="47.19043" lon="-1.21631">
        <ele>135</ele>
        <time>2021-05-29T11:02:22.000Z</time>
      </trkpt>
      <trkpt lat="47.19052" lon="-1.21622">
        <ele>135</ele>
        <time>2021-05-29T11:02:24.000Z</time>
      </trkpt>
      <trkpt lat="47.1906" lon="-1.21611">
        <ele>134</ele>
        <time>2021-05-29T11:02:26.000Z</time>
      </trkpt>
      <trkpt lat="47.19073" lon="-1.21593">
        <ele>134</ele>
        <time>2021-05-29T11:02:29.000Z</time>
      </trkpt>
      <trkpt lat="47.19083" lon="-1.2158">
        <ele>134</ele>
        <time>2021-05-29T11:02:31.000Z</time>
      </trkpt>
      <trkpt lat="47.19091" lon="-1.21566">
        <ele>135</ele>
        <time>2021-05-29T11:02:33.000Z</time>
      </trkpt>
      <trkpt lat="47.191" lon="-1.21554">
        <ele>134</ele>
        <time>2021-05-29T11:02:35.000Z</time>
      </trkpt>
      <trkpt lat="47.19107" lon="-1.21542">
        <ele>135</ele>
        <time>2021-05-29T11:02:37.000Z</time>
      </trkpt>
      <trkpt lat="47.19114" lon="-1.2153">
        <ele>136</ele>
        <time>2021-05-29T11:02:39.000Z</time>
      </trkpt>
      <trkpt lat="47.19122" lon="-1.21518">
        <ele>136</ele>
        <time>2021-05-29T11:02:41.000Z</time>
      </trkpt>
      <trkpt lat="47.1913" lon="-1.21507">
        <ele>135</ele>
        <time>2021-05-29T11:02:43.000Z</time>
      </trkpt>
      <trkpt lat="47.19137" lon="-1.21494">
        <ele>136</ele>
        <time>2021-05-29T11:02:45.000Z</time>
      </trkpt>
      <trkpt lat="47.19149" lon="-1.21476">
        <ele>137</ele>
        <time>2021-05-29T11:02:48.000Z</time>
      </trkpt>
      <trkpt lat="47.19157" lon="-1.21464">
        <ele>137</ele>
        <time>2021-05-29T11:02:50.000Z</time>
      </trkpt>
      <trkpt lat="47.19164" lon="-1.21452">
        <ele>137</ele>
        <time>2021-05-29T11:02:52.000Z</time>
      </trkpt>
      <trkpt lat="47.19172" lon="-1.21439">
        <ele>137</ele>
        <time>2021-05-29T11:02:54.000Z</time>
      </trkpt>
      <trkpt lat="47.1918" lon="-1.21427">
        <ele>136</ele>
        <time>2021-05-29T11:02:56.000Z</time>
      </trkpt>
      <trkpt lat="47.19188" lon="-1.21415">
        <ele>136</ele>
        <time>2021-05-29T11:02:58.000Z</time>
      </trkpt>
      <trkpt lat="47.19195" lon="-1.21402">
        <ele>136</ele>
        <time>2021-05-29T11:03:00.000Z</time>
      </trkpt>
      <trkpt lat="47.19202" lon="-1.21391">
        <ele>136</ele>
        <time>2021-05-29T11:03:02.000Z</time>
      </trkpt>
      <trkpt lat="47.1921" lon="-1.21378">
        <ele>137</ele>
        <time>2021-05-29T11:03:04.000Z</time>
      </trkpt>
      <trkpt lat="47.19222" lon="-1.2136">
        <ele>137</ele>
        <time>2021-05-29T11:03:07.000Z</time>
      </trkpt>
      <trkpt lat="47.1923" lon="-1.21345">
        <ele>137</ele>
        <time>2021-05-29T11:03:09.000Z</time>
      </trkpt>
      <trkpt lat="47.19237" lon="-1.21329">
        <ele>138</ele>
        <time>2021-05-29T11:03:11.000Z</time>
      </trkpt>
      <trkpt lat="47.19251" lon="-1.21308">
        <ele>138</ele>
        <time>2021-05-29T11:03:14.000Z</time>
      </trkpt>
      <trkpt lat="47.19259" lon="-1.21295">
        <ele>139</ele>
        <time>2021-05-29T11:03:16.000Z</time>
      </trkpt>
      <trkpt lat="47.19267" lon="-1.21287">
        <ele>138</ele>
        <time>2021-05-29T11:03:18.000Z</time>
      </trkpt>
      <trkpt lat="47.19276" lon="-1.21275">
        <ele>138</ele>
        <time>2021-05-29T11:03:20.000Z</time>
      </trkpt>
      <trkpt lat="47.19283" lon="-1.21263">
        <ele>138</ele>
        <time>2021-05-29T11:03:22.000Z</time>
      </trkpt>
      <trkpt lat="47.19292" lon="-1.21253">
        <ele>138</ele>
        <time>2021-05-29T11:03:24.000Z</time>
      </trkpt>
      <trkpt lat="47.193" lon="-1.21242">
        <ele>138</ele>
        <time>2021-05-29T11:03:26.000Z</time>
      </trkpt>
      <trkpt lat="47.19309" lon="-1.21231">
        <ele>138</ele>
        <time>2021-05-29T11:03:28.000Z</time>
      </trkpt>
      <trkpt lat="47.19318" lon="-1.2122">
        <ele>138</ele>
        <time>2021-05-29T11:03:30.000Z</time>
      </trkpt>
      <trkpt lat="47.19326" lon="-1.21209">
        <ele>138</ele>
        <time>2021-05-29T11:03:32.000Z</time>
      </trkpt>
      <trkpt lat="47.19333" lon="-1.21198">
        <ele>138</ele>
        <time>2021-05-29T11:03:34.000Z</time>
      </trkpt>
      <trkpt lat="47.19341" lon="-1.21187">
        <ele>138</ele>
        <time>2021-05-29T11:03:36.000Z</time>
      </trkpt>
      <trkpt lat="47.19348" lon="-1.21175">
        <ele>138</ele>
        <time>2021-05-29T11:03:38.000Z</time>
      </trkpt>
      <trkpt lat="47.19356" lon="-1.21163">
        <ele>138</ele>
        <time>2021-05-29T11:03:40.000Z</time>
      </trkpt>
      <trkpt lat="47.19364" lon="-1.2115">
        <ele>139</ele>
        <time>2021-05-29T11:03:42.000Z</time>
      </trkpt>
      <trkpt lat="47.19372" lon="-1.21138">
        <ele>139</ele>
        <time>2021-05-29T11:03:44.000Z</time>
      </trkpt>
      <trkpt lat="47.19379" lon="-1.21126">
        <ele>139</ele>
        <time>2021-05-29T11:03:46.000Z</time>
      </trkpt>
      <trkpt lat="47.19387" lon="-1.21114">
        <ele>139</ele>
        <time>2021-05-29T11:03:48.000Z</time>
      </trkpt>
      <trkpt lat="47.19394" lon="-1.21101">
        <ele>139</ele>
        <time>2021-05-29T11:03:50.000Z</time>
      </trkpt>
      <trkpt lat="47.19402" lon="-1.21089">
        <ele>139</ele>
        <time>2021-05-29T11:03:52.000Z</time>
      </trkpt>
      <trkpt lat="47.19411" lon="-1.21074">
        <ele>140</ele>
        <time>2021-05-29T11:03:54.000Z</time>
      </trkpt>
      <trkpt lat="47.19417" lon="-1.21061">
        <ele>141</ele>
        <time>2021-05-29T11:03:56.000Z</time>
      </trkpt>
      <trkpt lat="47.19428" lon="-1.21046">
        <ele>140</ele>
        <time>2021-05-29T11:03:59.000Z</time>
      </trkpt>
      <trkpt lat="47.19435" lon="-1.21034">
        <ele>141</ele>
        <time>2021-05-29T11:04:01.000Z</time>
      </trkpt>
      <trkpt lat="47.19443" lon="-1.21022">
        <ele>140</ele>
        <time>2021-05-29T11:04:03.000Z</time>
      </trkpt>
      <trkpt lat="47.19455" lon="-1.21004">
        <ele>140</ele>
        <time>2021-05-29T11:04:06.000Z</time>
      </trkpt>
      <trkpt lat="47.19462" lon="-1.20993">
        <ele>140</ele>
        <time>2021-05-29T11:04:08.000Z</time>
      </trkpt>
      <trkpt lat="47.1947" lon="-1.20981">
        <ele>140</ele>
        <time>2021-05-29T11:04:10.000Z</time>
      </trkpt>
      <trkpt lat="47.19478" lon="-1.20968">
        <ele>140</ele>
        <time>2021-05-29T11:04:12.000Z</time>
      </trkpt>
      <trkpt lat="47.19488" lon="-1.20958">
        <ele>139</ele>
        <time>2021-05-29T11:04:14.000Z</time>
      </trkpt>
      <trkpt lat="47.19496" lon="-1.20947">
        <ele>139</ele>
        <time>2021-05-29T11:04:16.000Z</time>
      </trkpt>
      <trkpt lat="47.19509" lon="-1.20929">
        <ele>140</ele>
        <time>2021-05-29T11:04:19.000Z</time>
      </trkpt>
      <trkpt lat="47.19516" lon="-1.20919">
        <ele>139</ele>
        <time>2021-05-29T11:04:21.000Z</time>
      </trkpt>
      <trkpt lat="47.19525" lon="-1.20909">
        <ele>139</ele>
        <time>2021-05-29T11:04:23.000Z</time>
      </trkpt>
      <trkpt lat="47.19533" lon="-1.20898">
        <ele>139</ele>
        <time>2021-05-29T11:04:25.000Z</time>
      </trkpt>
      <trkpt lat="47.19543" lon="-1.20885">
        <ele>139</ele>
        <time>2021-05-29T11:04:27.000Z</time>
      </trkpt>
      <trkpt lat="47.19552" lon="-1.20874">
        <ele>140</ele>
        <time>2021-05-29T11:04:29.000Z</time>
      </trkpt>
      <trkpt lat="47.1956" lon="-1.20864">
        <ele>140</ele>
        <time>2021-05-29T11:04:31.000Z</time>
      </trkpt>
      <trkpt lat="47.19567" lon="-1.20853">
        <ele>140</ele>
        <time>2021-05-29T11:04:33.000Z</time>
      </trkpt>
      <trkpt lat="47.19576" lon="-1.20842">
        <ele>139</ele>
        <time>2021-05-29T11:04:35.000Z</time>
      </trkpt>
      <trkpt lat="47.19585" lon="-1.20831">
        <ele>140</ele>
        <time>2021-05-29T11:04:37.000Z</time>
      </trkpt>
      <trkpt lat="47.19593" lon="-1.20821">
        <ele>140</ele>
        <time>2021-05-29T11:04:39.000Z</time>
      </trkpt>
      <trkpt lat="47.19601" lon="-1.20811">
        <ele>140</ele>
        <time>2021-05-29T11:04:41.000Z</time>
      </trkpt>
      <trkpt lat="47.19615" lon="-1.208">
        <ele>140</ele>
        <time>2021-05-29T11:04:44.000Z</time>
      </trkpt>
      <trkpt lat="47.19623" lon="-1.20791">
        <ele>141</ele>
        <time>2021-05-29T11:04:46.000Z</time>
      </trkpt>
      <trkpt lat="47.19634" lon="-1.20784">
        <ele>141</ele>
        <time>2021-05-29T11:04:48.000Z</time>
      </trkpt>
      <trkpt lat="47.19645" lon="-1.20778">
        <ele>141</ele>
        <time>2021-05-29T11:04:50.000Z</time>
      </trkpt>
      <trkpt lat="47.19656" lon="-1.20773">
        <ele>141</ele>
        <time>2021-05-29T11:04:52.000Z</time>
      </trkpt>
      <trkpt lat="47.19667" lon="-1.20768">
        <ele>141</ele>
        <time>2021-05-29T11:04:54.000Z</time>
      </trkpt>
      <trkpt lat="47.19682" lon="-1.20759">
        <ele>141</ele>
        <time>2021-05-29T11:04:57.000Z</time>
      </trkpt>
      <trkpt lat="47.19693" lon="-1.20754">
        <ele>141</ele>
        <time>2021-05-29T11:04:59.000Z</time>
      </trkpt>
      <trkpt lat="47.19703" lon="-1.20748">
        <ele>141</ele>
        <time>2021-05-29T11:05:01.000Z</time>
      </trkpt>
      <trkpt lat="47.19714" lon="-1.20742">
        <ele>141</ele>
        <time>2021-05-29T11:05:03.000Z</time>
      </trkpt>
      <trkpt lat="47.19729" lon="-1.20733">
        <ele>141</ele>
        <time>2021-05-29T11:05:06.000Z</time>
      </trkpt>
      <trkpt lat="47.1974" lon="-1.20726">
        <ele>141</ele>
        <time>2021-05-29T11:05:08.000Z</time>
      </trkpt>
      <trkpt lat="47.19749" lon="-1.20719">
        <ele>142</ele>
        <time>2021-05-29T11:05:10.000Z</time>
      </trkpt>
      <trkpt lat="47.19759" lon="-1.20715">
        <ele>142</ele>
        <time>2021-05-29T11:05:12.000Z</time>
      </trkpt>
      <trkpt lat="47.19769" lon="-1.20709">
        <ele>141</ele>
        <time>2021-05-29T11:05:14.000Z</time>
      </trkpt>
      <trkpt lat="47.19785" lon="-1.20701">
        <ele>140</ele>
        <time>2021-05-29T11:05:17.000Z</time>
      </trkpt>
      <trkpt lat="47.19795" lon="-1.20695">
        <ele>143</ele>
        <time>2021-05-29T11:05:19.000Z</time>
      </trkpt>
      <trkpt lat="47.19806" lon="-1.20689">
        <ele>143</ele>
        <time>2021-05-29T11:05:21.000Z</time>
      </trkpt>
      <trkpt lat="47.19817" lon="-1.20682">
        <ele>143</ele>
        <time>2021-05-29T11:05:23.000Z</time>
      </trkpt>
      <trkpt lat="47.19825" lon="-1.20675">
        <ele>144</ele>
        <time>2021-05-29T11:05:25.000Z</time>
      </trkpt>
      <trkpt lat="47.19837" lon="-1.2067">
        <ele>143</ele>
        <time>2021-05-29T11:05:27.000Z</time>
      </trkpt>
      <trkpt lat="47.19849" lon="-1.20665">
        <ele>143</ele>
        <time>2021-05-29T11:05:29.000Z</time>
      </trkpt>
      <trkpt lat="47.1986" lon="-1.20659">
        <ele>143</ele>
        <time>2021-05-29T11:05:31.000Z</time>
      </trkpt>
      <trkpt lat="47.19882" lon="-1.20643">
        <ele>142</ele>
        <time>2021-05-29T11:05:35.000Z</time>
      </trkpt>
      <trkpt lat="47.19893" lon="-1.20636">
        <ele>142</ele>
        <time>2021-05-29T11:05:37.000Z</time>
      </trkpt>
      <trkpt lat="47.19904" lon="-1.20628">
        <ele>141</ele>
        <time>2021-05-29T11:05:39.000Z</time>
      </trkpt>
      <trkpt lat="47.19914" lon="-1.2062">
        <ele>141</ele>
        <time>2021-05-29T11:05:41.000Z</time>
      </trkpt>
      <trkpt lat="47.19924" lon="-1.20611">
        <ele>142</ele>
        <time>2021-05-29T11:05:43.000Z</time>
      </trkpt>
      <trkpt lat="47.19933" lon="-1.20602">
        <ele>139</ele>
        <time>2021-05-29T11:05:45.000Z</time>
      </trkpt>
      <trkpt lat="47.19942" lon="-1.20592">
        <ele>139</ele>
        <time>2021-05-29T11:05:47.000Z</time>
      </trkpt>
      <trkpt lat="47.19955" lon="-1.20573">
        <ele>138</ele>
        <time>2021-05-29T11:05:50.000Z</time>
      </trkpt>
      <trkpt lat="47.19964" lon="-1.20566">
        <ele>140</ele>
        <time>2021-05-29T11:05:52.000Z</time>
      </trkpt>
      <trkpt lat="47.1998" lon="-1.2055">
        <ele>139</ele>
        <time>2021-05-29T11:05:55.000Z</time>
      </trkpt>
      <trkpt lat="47.19989" lon="-1.2054">
        <ele>140</ele>
        <time>2021-05-29T11:05:57.000Z</time>
      </trkpt>
      <trkpt lat="47.19999" lon="-1.20531">
        <ele>139</ele>
        <time>2021-05-29T11:05:59.000Z</time>
      </trkpt>
      <trkpt lat="47.20013" lon="-1.20517">
        <ele>140</ele>
        <time>2021-05-29T11:06:02.000Z</time>
      </trkpt>
      <trkpt lat="47.20021" lon="-1.20507">
        <ele>140</ele>
        <time>2021-05-29T11:06:04.000Z</time>
      </trkpt>
      <trkpt lat="47.2003" lon="-1.20497">
        <ele>140</ele>
        <time>2021-05-29T11:06:06.000Z</time>
      </trkpt>
      <trkpt lat="47.2004" lon="-1.20487">
        <ele>141</ele>
        <time>2021-05-29T11:06:08.000Z</time>
      </trkpt>
      <trkpt lat="47.20049" lon="-1.20477">
        <ele>141</ele>
        <time>2021-05-29T11:06:10.000Z</time>
      </trkpt>
      <trkpt lat="47.20058" lon="-1.20468">
        <ele>141</ele>
        <time>2021-05-29T11:06:12.000Z</time>
      </trkpt>
      <trkpt lat="47.20067" lon="-1.20459">
        <ele>141</ele>
        <time>2021-05-29T11:06:14.000Z</time>
      </trkpt>
      <trkpt lat="47.20076" lon="-1.20449">
        <ele>140</ele>
        <time>2021-05-29T11:06:16.000Z</time>
      </trkpt>
      <trkpt lat="47.20085" lon="-1.20439">
        <ele>140</ele>
        <time>2021-05-29T11:06:18.000Z</time>
      </trkpt>
      <trkpt lat="47.201" lon="-1.20423">
        <ele>140</ele>
        <time>2021-05-29T11:06:21.000Z</time>
      </trkpt>
      <trkpt lat="47.20109" lon="-1.20412">
        <ele>140</ele>
        <time>2021-05-29T11:06:23.000Z</time>
      </trkpt>
      <trkpt lat="47.20118" lon="-1.20402">
        <ele>140</ele>
        <time>2021-05-29T11:06:25.000Z</time>
      </trkpt>
      <trkpt lat="47.20127" lon="-1.20392">
        <ele>140</ele>
        <time>2021-05-29T11:06:27.000Z</time>
      </trkpt>
      <trkpt lat="47.20136" lon="-1.20383">
        <ele>140</ele>
        <time>2021-05-29T11:06:29.000Z</time>
      </trkpt>
      <trkpt lat="47.20146" lon="-1.20374">
        <ele>139</ele>
        <time>2021-05-29T11:06:31.000Z</time>
      </trkpt>
      <trkpt lat="47.20155" lon="-1.20362">
        <ele>138</ele>
        <time>2021-05-29T11:06:33.000Z</time>
      </trkpt>
      <trkpt lat="47.20169" lon="-1.20346">
        <ele>139</ele>
        <time>2021-05-29T11:06:36.000Z</time>
      </trkpt>
      <trkpt lat="47.20184" lon="-1.20329">
        <ele>139</ele>
        <time>2021-05-29T11:06:39.000Z</time>
      </trkpt>
      <trkpt lat="47.20193" lon="-1.20318">
        <ele>139</ele>
        <time>2021-05-29T11:06:41.000Z</time>
      </trkpt>
      <trkpt lat="47.20202" lon="-1.20308">
        <ele>140</ele>
        <time>2021-05-29T11:06:43.000Z</time>
      </trkpt>
      <trkpt lat="47.20211" lon="-1.20298">
        <ele>140</ele>
        <time>2021-05-29T11:06:45.000Z</time>
      </trkpt>
      <trkpt lat="47.2022" lon="-1.20292">
        <ele>140</ele>
        <time>2021-05-29T11:06:47.000Z</time>
      </trkpt>
      <trkpt lat="47.2023" lon="-1.20281">
        <ele>139</ele>
        <time>2021-05-29T11:06:49.000Z</time>
      </trkpt>
      <trkpt lat="47.20239" lon="-1.20271">
        <ele>139</ele>
        <time>2021-05-29T11:06:51.000Z</time>
      </trkpt>
      <trkpt lat="47.20249" lon="-1.20259">
        <ele>141</ele>
        <time>2021-05-29T11:06:53.000Z</time>
      </trkpt>
      <trkpt lat="47.20265" lon="-1.20238">
        <ele>140</ele>
        <time>2021-05-29T11:06:56.000Z</time>
      </trkpt>
      <trkpt lat="47.20276" lon="-1.20227">
        <ele>140</ele>
        <time>2021-05-29T11:06:58.000Z</time>
      </trkpt>
      <trkpt lat="47.20287" lon="-1.20215">
        <ele>140</ele>
        <time>2021-05-29T11:07:00.000Z</time>
      </trkpt>
      <trkpt lat="47.20297" lon="-1.20204">
        <ele>140</ele>
        <time>2021-05-29T11:07:02.000Z</time>
      </trkpt>
      <trkpt lat="47.20307" lon="-1.20194">
        <ele>139</ele>
        <time>2021-05-29T11:07:04.000Z</time>
      </trkpt>
      <trkpt lat="47.20317" lon="-1.20182">
        <ele>139</ele>
        <time>2021-05-29T11:07:06.000Z</time>
      </trkpt>
      <trkpt lat="47.20327" lon="-1.20172">
        <ele>138</ele>
        <time>2021-05-29T11:07:08.000Z</time>
      </trkpt>
      <trkpt lat="47.20337" lon="-1.20161">
        <ele>139</ele>
        <time>2021-05-29T11:07:10.000Z</time>
      </trkpt>
      <trkpt lat="47.20346" lon="-1.20151">
        <ele>138</ele>
        <time>2021-05-29T11:07:12.000Z</time>
      </trkpt>
      <trkpt lat="47.20356" lon="-1.20141">
        <ele>138</ele>
        <time>2021-05-29T11:07:14.000Z</time>
      </trkpt>
      <trkpt lat="47.20371" lon="-1.20126">
        <ele>137</ele>
        <time>2021-05-29T11:07:17.000Z</time>
      </trkpt>
      <trkpt lat="47.20378" lon="-1.20117">
        <ele>139</ele>
        <time>2021-05-29T11:07:19.000Z</time>
      </trkpt>
      <trkpt lat="47.2039" lon="-1.20102">
        <ele>139</ele>
        <time>2021-05-29T11:07:22.000Z</time>
      </trkpt>
      <trkpt lat="47.20398" lon="-1.20091">
        <ele>139</ele>
        <time>2021-05-29T11:07:24.000Z</time>
      </trkpt>
      <trkpt lat="47.20406" lon="-1.20081">
        <ele>139</ele>
        <time>2021-05-29T11:07:26.000Z</time>
      </trkpt>
      <trkpt lat="47.20416" lon="-1.20074">
        <ele>139</ele>
        <time>2021-05-29T11:07:28.000Z</time>
      </trkpt>
      <trkpt lat="47.20426" lon="-1.20064">
        <ele>138</ele>
        <time>2021-05-29T11:07:30.000Z</time>
      </trkpt>
      <trkpt lat="47.20436" lon="-1.20055">
        <ele>136</ele>
        <time>2021-05-29T11:07:32.000Z</time>
      </trkpt>
      <trkpt lat="47.20448" lon="-1.20042">
        <ele>139</ele>
        <time>2021-05-29T11:07:35.000Z</time>
      </trkpt>
      <trkpt lat="47.20456" lon="-1.20033">
        <ele>140</ele>
        <time>2021-05-29T11:07:37.000Z</time>
      </trkpt>
      <trkpt lat="47.20464" lon="-1.20023">
        <ele>140</ele>
        <time>2021-05-29T11:07:39.000Z</time>
      </trkpt>
      <trkpt lat="47.20472" lon="-1.20014">
        <ele>140</ele>
        <time>2021-05-29T11:07:41.000Z</time>
      </trkpt>
      <trkpt lat="47.20485" lon="-1.20001">
        <ele>140</ele>
        <time>2021-05-29T11:07:44.000Z</time>
      </trkpt>
      <trkpt lat="47.20493" lon="-1.19991">
        <ele>140</ele>
        <time>2021-05-29T11:07:46.000Z</time>
      </trkpt>
      <trkpt lat="47.20501" lon="-1.19983">
        <ele>140</ele>
        <time>2021-05-29T11:07:48.000Z</time>
      </trkpt>
      <trkpt lat="47.2051" lon="-1.19973">
        <ele>139</ele>
        <time>2021-05-29T11:07:50.000Z</time>
      </trkpt>
      <trkpt lat="47.20522" lon="-1.1996">
        <ele>136</ele>
        <time>2021-05-29T11:07:53.000Z</time>
      </trkpt>
      <trkpt lat="47.2053" lon="-1.19951">
        <ele>139</ele>
        <time>2021-05-29T11:07:55.000Z</time>
      </trkpt>
      <trkpt lat="47.20538" lon="-1.19942">
        <ele>140</ele>
        <time>2021-05-29T11:07:57.000Z</time>
      </trkpt>
      <trkpt lat="47.20547" lon="-1.19933">
        <ele>141</ele>
        <time>2021-05-29T11:07:59.000Z</time>
      </trkpt>
      <trkpt lat="47.20559" lon="-1.19919">
        <ele>141</ele>
        <time>2021-05-29T11:08:02.000Z</time>
      </trkpt>
      <trkpt lat="47.20568" lon="-1.1991">
        <ele>141</ele>
        <time>2021-05-29T11:08:04.000Z</time>
      </trkpt>
      <trkpt lat="47.20577" lon="-1.19902">
        <ele>139</ele>
        <time>2021-05-29T11:08:06.000Z</time>
      </trkpt>
      <trkpt lat="47.20586" lon="-1.19894">
        <ele>139</ele>
        <time>2021-05-29T11:08:08.000Z</time>
      </trkpt>
      <trkpt lat="47.20596" lon="-1.19878">
        <ele>142</ele>
        <time>2021-05-29T11:08:11.000Z</time>
      </trkpt>
      <trkpt lat="47.20604" lon="-1.19867">
        <ele>142</ele>
        <time>2021-05-29T11:08:13.000Z</time>
      </trkpt>
      <trkpt lat="47.20611" lon="-1.19856">
        <ele>142</ele>
        <time>2021-05-29T11:08:15.000Z</time>
      </trkpt>
      <trkpt lat="47.2062" lon="-1.19845">
        <ele>142</ele>
        <time>2021-05-29T11:08:17.000Z</time>
      </trkpt>
      <trkpt lat="47.20625" lon="-1.19833">
        <ele>142</ele>
        <time>2021-05-29T11:08:19.000Z</time>
      </trkpt>
      <trkpt lat="47.2063" lon="-1.1982">
        <ele>141</ele>
        <time>2021-05-29T11:08:21.000Z</time>
      </trkpt>
      <trkpt lat="47.20635" lon="-1.19806">
        <ele>141</ele>
        <time>2021-05-29T11:08:23.000Z</time>
      </trkpt>
      <trkpt lat="47.2064" lon="-1.19793">
        <ele>141</ele>
        <time>2021-05-29T11:08:25.000Z</time>
      </trkpt>
      <trkpt lat="47.20644" lon="-1.1978">
        <ele>142</ele>
        <time>2021-05-29T11:08:27.000Z</time>
      </trkpt>
      <trkpt lat="47.20648" lon="-1.19766">
        <ele>142</ele>
        <time>2021-05-29T11:08:29.000Z</time>
      </trkpt>
      <trkpt lat="47.20652" lon="-1.19751">
        <ele>141</ele>
        <time>2021-05-29T11:08:31.000Z</time>
      </trkpt>
      <trkpt lat="47.20655" lon="-1.19737">
        <ele>141</ele>
        <time>2021-05-29T11:08:33.000Z</time>
      </trkpt>
      <trkpt lat="47.20658" lon="-1.19722">
        <ele>142</ele>
        <time>2021-05-29T11:08:35.000Z</time>
      </trkpt>
      <trkpt lat="47.2066" lon="-1.19707">
        <ele>142</ele>
        <time>2021-05-29T11:08:37.000Z</time>
      </trkpt>
      <trkpt lat="47.20664" lon="-1.19692">
        <ele>142</ele>
        <time>2021-05-29T11:08:39.000Z</time>
      </trkpt>
      <trkpt lat="47.20667" lon="-1.19677">
        <ele>142</ele>
        <time>2021-05-29T11:08:41.000Z</time>
      </trkpt>
      <trkpt lat="47.2067" lon="-1.19661">
        <ele>142</ele>
        <time>2021-05-29T11:08:43.000Z</time>
      </trkpt>
      <trkpt lat="47.20673" lon="-1.19647">
        <ele>142</ele>
        <time>2021-05-29T11:08:45.000Z</time>
      </trkpt>
      <trkpt lat="47.20676" lon="-1.1963">
        <ele>141</ele>
        <time>2021-05-29T11:08:47.000Z</time>
      </trkpt>
      <trkpt lat="47.20678" lon="-1.19616">
        <ele>142</ele>
        <time>2021-05-29T11:08:49.000Z</time>
      </trkpt>
      <trkpt lat="47.20683" lon="-1.19593">
        <ele>142</ele>
        <time>2021-05-29T11:08:52.000Z</time>
      </trkpt>
      <trkpt lat="47.20687" lon="-1.19578">
        <ele>142</ele>
        <time>2021-05-29T11:08:54.000Z</time>
      </trkpt>
      <trkpt lat="47.20691" lon="-1.19554">
        <ele>140</ele>
        <time>2021-05-29T11:08:57.000Z</time>
      </trkpt>
      <trkpt lat="47.20694" lon="-1.19538">
        <ele>140</ele>
        <time>2021-05-29T11:08:59.000Z</time>
      </trkpt>
      <trkpt lat="47.20698" lon="-1.19522">
        <ele>142</ele>
        <time>2021-05-29T11:09:01.000Z</time>
      </trkpt>
      <trkpt lat="47.20701" lon="-1.19506">
        <ele>142</ele>
        <time>2021-05-29T11:09:03.000Z</time>
      </trkpt>
      <trkpt lat="47.20704" lon="-1.19491">
        <ele>142</ele>
        <time>2021-05-29T11:09:05.000Z</time>
      </trkpt>
      <trkpt lat="47.20707" lon="-1.19476">
        <ele>142</ele>
        <time>2021-05-29T11:09:07.000Z</time>
      </trkpt>
      <trkpt lat="47.20711" lon="-1.19462">
        <ele>141</ele>
        <time>2021-05-29T11:09:09.000Z</time>
      </trkpt>
      <trkpt lat="47.20715" lon="-1.19446">
        <ele>141</ele>
        <time>2021-05-29T11:09:11.000Z</time>
      </trkpt>
      <trkpt lat="47.20718" lon="-1.1943">
        <ele>142</ele>
        <time>2021-05-29T11:09:13.000Z</time>
      </trkpt>
      <trkpt lat="47.20721" lon="-1.19414">
        <ele>142</ele>
        <time>2021-05-29T11:09:15.000Z</time>
      </trkpt>
      <trkpt lat="47.20726" lon="-1.19387">
        <ele>141</ele>
        <time>2021-05-29T11:09:18.000Z</time>
      </trkpt>
      <trkpt lat="47.20729" lon="-1.19373">
        <ele>141</ele>
        <time>2021-05-29T11:09:20.000Z</time>
      </trkpt>
      <trkpt lat="47.20732" lon="-1.19358">
        <ele>141</ele>
        <time>2021-05-29T11:09:22.000Z</time>
      </trkpt>
      <trkpt lat="47.20735" lon="-1.19344">
        <ele>141</ele>
        <time>2021-05-29T11:09:24.000Z</time>
      </trkpt>
      <trkpt lat="47.20739" lon="-1.1933">
        <ele>141</ele>
        <time>2021-05-29T11:09:26.000Z</time>
      </trkpt>
      <trkpt lat="47.20743" lon="-1.19314">
        <ele>141</ele>
        <time>2021-05-29T11:09:28.000Z</time>
      </trkpt>
      <trkpt lat="47.20746" lon="-1.19298">
        <ele>142</ele>
        <time>2021-05-29T11:09:30.000Z</time>
      </trkpt>
      <trkpt lat="47.20749" lon="-1.19281">
        <ele>142</ele>
        <time>2021-05-29T11:09:32.000Z</time>
      </trkpt>
      <trkpt lat="47.20753" lon="-1.19255">
        <ele>141</ele>
        <time>2021-05-29T11:09:35.000Z</time>
      </trkpt>
      <trkpt lat="47.20756" lon="-1.19239">
        <ele>141</ele>
        <time>2021-05-29T11:09:37.000Z</time>
      </trkpt>
      <trkpt lat="47.20761" lon="-1.19224">
        <ele>141</ele>
        <time>2021-05-29T11:09:39.000Z</time>
      </trkpt>
      <trkpt lat="47.20763" lon="-1.19208">
        <ele>141</ele>
        <time>2021-05-29T11:09:41.000Z</time>
      </trkpt>
      <trkpt lat="47.20769" lon="-1.19185">
        <ele>141</ele>
        <time>2021-05-29T11:09:44.000Z</time>
      </trkpt>
      <trkpt lat="47.20771" lon="-1.19171">
        <ele>142</ele>
        <time>2021-05-29T11:09:46.000Z</time>
      </trkpt>
      <trkpt lat="47.20774" lon="-1.19156">
        <ele>142</ele>
        <time>2021-05-29T11:09:48.000Z</time>
      </trkpt>
      <trkpt lat="47.20777" lon="-1.19141">
        <ele>142</ele>
        <time>2021-05-29T11:09:50.000Z</time>
      </trkpt>
      <trkpt lat="47.20781" lon="-1.19118">
        <ele>141</ele>
        <time>2021-05-29T11:09:53.000Z</time>
      </trkpt>
      <trkpt lat="47.20785" lon="-1.19101">
        <ele>141</ele>
        <time>2021-05-29T11:09:55.000Z</time>
      </trkpt>
      <trkpt lat="47.20788" lon="-1.19085">
        <ele>141</ele>
        <time>2021-05-29T11:09:57.000Z</time>
      </trkpt>
      <trkpt lat="47.20792" lon="-1.19069">
        <ele>141</ele>
        <time>2021-05-29T11:09:59.000Z</time>
      </trkpt>
      <trkpt lat="47.20795" lon="-1.19054">
        <ele>141</ele>
        <time>2021-05-29T11:10:01.000Z</time>
      </trkpt>
      <trkpt lat="47.20798" lon="-1.1904">
        <ele>141</ele>
        <time>2021-05-29T11:10:03.000Z</time>
      </trkpt>
      <trkpt lat="47.20801" lon="-1.19027">
        <ele>140</ele>
        <time>2021-05-29T11:10:05.000Z</time>
      </trkpt>
      <trkpt lat="47.20806" lon="-1.19005">
        <ele>141</ele>
        <time>2021-05-29T11:10:08.000Z</time>
      </trkpt>
      <trkpt lat="47.20808" lon="-1.18991">
        <ele>141</ele>
        <time>2021-05-29T11:10:10.000Z</time>
      </trkpt>
      <trkpt lat="47.20811" lon="-1.18976">
        <ele>142</ele>
        <time>2021-05-29T11:10:12.000Z</time>
      </trkpt>
      <trkpt lat="47.20815" lon="-1.18954">
        <ele>141</ele>
        <time>2021-05-29T11:10:15.000Z</time>
      </trkpt>
      <trkpt lat="47.20819" lon="-1.18939">
        <ele>142</ele>
        <time>2021-05-29T11:10:17.000Z</time>
      </trkpt>
      <trkpt lat="47.20822" lon="-1.18925">
        <ele>142</ele>
        <time>2021-05-29T11:10:19.000Z</time>
      </trkpt>
      <trkpt lat="47.20825" lon="-1.18911">
        <ele>142</ele>
        <time>2021-05-29T11:10:21.000Z</time>
      </trkpt>
      <trkpt lat="47.20829" lon="-1.18896">
        <ele>142</ele>
        <time>2021-05-29T11:10:23.000Z</time>
      </trkpt>
      <trkpt lat="47.20833" lon="-1.1888">
        <ele>142</ele>
        <time>2021-05-29T11:10:25.000Z</time>
      </trkpt>
      <trkpt lat="47.20837" lon="-1.18865">
        <ele>142</ele>
        <time>2021-05-29T11:10:27.000Z</time>
      </trkpt>
      <trkpt lat="47.20841" lon="-1.18851">
        <ele>142</ele>
        <time>2021-05-29T11:10:29.000Z</time>
      </trkpt>
      <trkpt lat="47.20846" lon="-1.18829">
        <ele>142</ele>
        <time>2021-05-29T11:10:32.000Z</time>
      </trkpt>
      <trkpt lat="47.20848" lon="-1.18814">
        <ele>143</ele>
        <time>2021-05-29T11:10:34.000Z</time>
      </trkpt>
      <trkpt lat="47.20852" lon="-1.18791">
        <ele>143</ele>
        <time>2021-05-29T11:10:37.000Z</time>
      </trkpt>
      <trkpt lat="47.20854" lon="-1.18774">
        <ele>142</ele>
        <time>2021-05-29T11:10:39.000Z</time>
      </trkpt>
      <trkpt lat="47.20855" lon="-1.18758">
        <ele>142</ele>
        <time>2021-05-29T11:10:41.000Z</time>
      </trkpt>
      <trkpt lat="47.20857" lon="-1.18743">
        <ele>142</ele>
        <time>2021-05-29T11:10:43.000Z</time>
      </trkpt>
      <trkpt lat="47.20858" lon="-1.18729">
        <ele>143</ele>
        <time>2021-05-29T11:10:45.000Z</time>
      </trkpt>
      <trkpt lat="47.20861" lon="-1.18708">
        <ele>143</ele>
        <time>2021-05-29T11:10:48.000Z</time>
      </trkpt>
      <trkpt lat="47.20862" lon="-1.18692">
        <ele>142</ele>
        <time>2021-05-29T11:10:50.000Z</time>
      </trkpt>
      <trkpt lat="47.20863" lon="-1.18676">
        <ele>141</ele>
        <time>2021-05-29T11:10:52.000Z</time>
      </trkpt>
      <trkpt lat="47.20865" lon="-1.18662">
        <ele>143</ele>
        <time>2021-05-29T11:10:54.000Z</time>
      </trkpt>
      <trkpt lat="47.20866" lon="-1.18648">
        <ele>143</ele>
        <time>2021-05-29T11:10:56.000Z</time>
      </trkpt>
      <trkpt lat="47.20869" lon="-1.18624">
        <ele>143</ele>
        <time>2021-05-29T11:10:59.000Z</time>
      </trkpt>
      <trkpt lat="47.20873" lon="-1.18604">
        <ele>144</ele>
        <time>2021-05-29T11:11:02.000Z</time>
      </trkpt>
      <trkpt lat="47.20876" lon="-1.1859">
        <ele>145</ele>
        <time>2021-05-29T11:11:04.000Z</time>
      </trkpt>
      <trkpt lat="47.20879" lon="-1.18576">
        <ele>145</ele>
        <time>2021-05-29T11:11:06.000Z</time>
      </trkpt>
      <trkpt lat="47.20881" lon="-1.18563">
        <ele>145</ele>
        <time>2021-05-29T11:11:08.000Z</time>
      </trkpt>
      <trkpt lat="47.20884" lon="-1.18547">
        <ele>145</ele>
        <time>2021-05-29T11:11:10.000Z</time>
      </trkpt>
      <trkpt lat="47.20887" lon="-1.18533">
        <ele>145</ele>
        <time>2021-05-29T11:11:12.000Z</time>
      </trkpt>
      <trkpt lat="47.2089" lon="-1.18518">
        <ele>145</ele>
        <time>2021-05-29T11:11:14.000Z</time>
      </trkpt>
      <trkpt lat="47.20893" lon="-1.18503">
        <ele>145</ele>
        <time>2021-05-29T11:11:16.000Z</time>
      </trkpt>
      <trkpt lat="47.20896" lon="-1.18487">
        <ele>145</ele>
        <time>2021-05-29T11:11:18.000Z</time>
      </trkpt>
      <trkpt lat="47.20899" lon="-1.18472">
        <ele>145</ele>
        <time>2021-05-29T11:11:20.000Z</time>
      </trkpt>
      <trkpt lat="47.20902" lon="-1.18457">
        <ele>146</ele>
        <time>2021-05-29T11:11:22.000Z</time>
      </trkpt>
      <trkpt lat="47.20905" lon="-1.18441">
        <ele>146</ele>
        <time>2021-05-29T11:11:24.000Z</time>
      </trkpt>
      <trkpt lat="47.20908" lon="-1.18425">
        <ele>145</ele>
        <time>2021-05-29T11:11:26.000Z</time>
      </trkpt>
      <trkpt lat="47.20912" lon="-1.18409">
        <ele>145</ele>
        <time>2021-05-29T11:11:28.000Z</time>
      </trkpt>
      <trkpt lat="47.20917" lon="-1.18395">
        <ele>145</ele>
        <time>2021-05-29T11:11:30.000Z</time>
      </trkpt>
      <trkpt lat="47.20922" lon="-1.18381">
        <ele>145</ele>
        <time>2021-05-29T11:11:32.000Z</time>
      </trkpt>
      <trkpt lat="47.20929" lon="-1.18369">
        <ele>144</ele>
        <time>2021-05-29T11:11:34.000Z</time>
      </trkpt>
      <trkpt lat="47.20938" lon="-1.18351">
        <ele>144</ele>
        <time>2021-05-29T11:11:37.000Z</time>
      </trkpt>
      <trkpt lat="47.20949" lon="-1.18338">
        <ele>145</ele>
        <time>2021-05-29T11:11:40.000Z</time>
      </trkpt>
      <trkpt lat="47.20962" lon="-1.18329">
        <ele>144</ele>
        <time>2021-05-29T11:11:43.000Z</time>
      </trkpt>
      <trkpt lat="47.20977" lon="-1.18319">
        <ele>145</ele>
        <time>2021-05-29T11:11:46.000Z</time>
      </trkpt>
      <trkpt lat="47.20988" lon="-1.18314">
        <ele>144</ele>
        <time>2021-05-29T11:11:48.000Z</time>
      </trkpt>
      <trkpt lat="47.20999" lon="-1.18311">
        <ele>142</ele>
        <time>2021-05-29T11:11:50.000Z</time>
      </trkpt>
      <trkpt lat="47.21009" lon="-1.18306">
        <ele>144</ele>
        <time>2021-05-29T11:11:52.000Z</time>
      </trkpt>
      <trkpt lat="47.21019" lon="-1.18301">
        <ele>144</ele>
        <time>2021-05-29T11:11:54.000Z</time>
      </trkpt>
      <trkpt lat="47.21029" lon="-1.18298">
        <ele>144</ele>
        <time>2021-05-29T11:11:56.000Z</time>
      </trkpt>
      <trkpt lat="47.21039" lon="-1.18293">
        <ele>145</ele>
        <time>2021-05-29T11:11:58.000Z</time>
      </trkpt>
      <trkpt lat="47.2105" lon="-1.18289">
        <ele>144</ele>
        <time>2021-05-29T11:12:00.000Z</time>
      </trkpt>
      <trkpt lat="47.2106" lon="-1.18284">
        <ele>144</ele>
        <time>2021-05-29T11:12:02.000Z</time>
      </trkpt>
      <trkpt lat="47.21071" lon="-1.1828">
        <ele>144</ele>
        <time>2021-05-29T11:12:04.000Z</time>
      </trkpt>
      <trkpt lat="47.21081" lon="-1.18276">
        <ele>144</ele>
        <time>2021-05-29T11:12:06.000Z</time>
      </trkpt>
      <trkpt lat="47.21092" lon="-1.18271">
        <ele>144</ele>
        <time>2021-05-29T11:12:08.000Z</time>
      </trkpt>
      <trkpt lat="47.21102" lon="-1.18265">
        <ele>144</ele>
        <time>2021-05-29T11:12:10.000Z</time>
      </trkpt>
      <trkpt lat="47.21112" lon="-1.18259">
        <ele>143</ele>
        <time>2021-05-29T11:12:12.000Z</time>
      </trkpt>
      <trkpt lat="47.21122" lon="-1.18252">
        <ele>143</ele>
        <time>2021-05-29T11:12:14.000Z</time>
      </trkpt>
      <trkpt lat="47.21131" lon="-1.18243">
        <ele>143</ele>
        <time>2021-05-29T11:12:16.000Z</time>
      </trkpt>
      <trkpt lat="47.21146" lon="-1.18228">
        <ele>143</ele>
        <time>2021-05-29T11:12:19.000Z</time>
      </trkpt>
      <trkpt lat="47.21154" lon="-1.18217">
        <ele>143</ele>
        <time>2021-05-29T11:12:21.000Z</time>
      </trkpt>
      <trkpt lat="47.21164" lon="-1.18208">
        <ele>142</ele>
        <time>2021-05-29T11:12:23.000Z</time>
      </trkpt>
      <trkpt lat="47.21177" lon="-1.18191">
        <ele>142</ele>
        <time>2021-05-29T11:12:26.000Z</time>
      </trkpt>
      <trkpt lat="47.21185" lon="-1.18182">
        <ele>143</ele>
        <time>2021-05-29T11:12:28.000Z</time>
      </trkpt>
      <trkpt lat="47.21194" lon="-1.1817">
        <ele>140</ele>
        <time>2021-05-29T11:12:30.000Z</time>
      </trkpt>
      <trkpt lat="47.21202" lon="-1.18157">
        <ele>141</ele>
        <time>2021-05-29T11:12:32.000Z</time>
      </trkpt>
      <trkpt lat="47.2121" lon="-1.18148">
        <ele>142</ele>
        <time>2021-05-29T11:12:34.000Z</time>
      </trkpt>
      <trkpt lat="47.2122" lon="-1.18137">
        <ele>142</ele>
        <time>2021-05-29T11:12:36.000Z</time>
      </trkpt>
      <trkpt lat="47.2123" lon="-1.18124">
        <ele>141</ele>
        <time>2021-05-29T11:12:38.000Z</time>
      </trkpt>
      <trkpt lat="47.21239" lon="-1.18112">
        <ele>141</ele>
        <time>2021-05-29T11:12:40.000Z</time>
      </trkpt>
      <trkpt lat="47.2125" lon="-1.18098">
        <ele>139</ele>
        <time>2021-05-29T11:12:42.000Z</time>
      </trkpt>
      <trkpt lat="47.21259" lon="-1.18085">
        <ele>139</ele>
        <time>2021-05-29T11:12:44.000Z</time>
      </trkpt>
      <trkpt lat="47.2127" lon="-1.18072">
        <ele>139</ele>
        <time>2021-05-29T11:12:46.000Z</time>
      </trkpt>
      <trkpt lat="47.21281" lon="-1.1806">
        <ele>139</ele>
        <time>2021-05-29T11:12:48.000Z</time>
      </trkpt>
      <trkpt lat="47.21292" lon="-1.18047">
        <ele>138</ele>
        <time>2021-05-29T11:12:50.000Z</time>
      </trkpt>
      <trkpt lat="47.21302" lon="-1.18034">
        <ele>138</ele>
        <time>2021-05-29T11:12:52.000Z</time>
      </trkpt>
      <trkpt lat="47.21313" lon="-1.18021">
        <ele>138</ele>
        <time>2021-05-29T11:12:54.000Z</time>
      </trkpt>
      <trkpt lat="47.21323" lon="-1.18009">
        <ele>137</ele>
        <time>2021-05-29T11:12:56.000Z</time>
      </trkpt>
      <trkpt lat="47.21333" lon="-1.17995">
        <ele>137</ele>
        <time>2021-05-29T11:12:58.000Z</time>
      </trkpt>
      <trkpt lat="47.21345" lon="-1.17981">
        <ele>134</ele>
        <time>2021-05-29T11:13:00.000Z</time>
      </trkpt>
      <trkpt lat="47.21355" lon="-1.17967">
        <ele>135</ele>
        <time>2021-05-29T11:13:02.000Z</time>
      </trkpt>
      <trkpt lat="47.21372" lon="-1.17948">
        <ele>132</ele>
        <time>2021-05-29T11:13:05.000Z</time>
      </trkpt>
      <trkpt lat="47.21387" lon="-1.17929">
        <ele>133</ele>
        <time>2021-05-29T11:13:08.000Z</time>
      </trkpt>
      <trkpt lat="47.21398" lon="-1.17916">
        <ele>133</ele>
        <time>2021-05-29T11:13:10.000Z</time>
      </trkpt>
      <trkpt lat="47.21408" lon="-1.17902">
        <ele>131</ele>
        <time>2021-05-29T11:13:12.000Z</time>
      </trkpt>
      <trkpt lat="47.21417" lon="-1.17889">
        <ele>134</ele>
        <time>2021-05-29T11:13:14.000Z</time>
      </trkpt>
      <trkpt lat="47.21427" lon="-1.17878">
        <ele>134</ele>
        <time>2021-05-29T11:13:16.000Z</time>
      </trkpt>
      <trkpt lat="47.21437" lon="-1.17866">
        <ele>134</ele>
        <time>2021-05-29T11:13:18.000Z</time>
      </trkpt>
      <trkpt lat="47.21446" lon="-1.17855">
        <ele>134</ele>
        <time>2021-05-29T11:13:20.000Z</time>
      </trkpt>
      <trkpt lat="47.21455" lon="-1.17845">
        <ele>135</ele>
        <time>2021-05-29T11:13:22.000Z</time>
      </trkpt>
      <trkpt lat="47.21467" lon="-1.17836">
        <ele>134</ele>
        <time>2021-05-29T11:13:24.000Z</time>
      </trkpt>
      <trkpt lat="47.2148" lon="-1.1783">
        <ele>133</ele>
        <time>2021-05-29T11:13:26.000Z</time>
      </trkpt>
      <trkpt lat="47.21493" lon="-1.17826">
        <ele>131</ele>
        <time>2021-05-29T11:13:28.000Z</time>
      </trkpt>
      <trkpt lat="47.21507" lon="-1.17825">
        <ele>130</ele>
        <time>2021-05-29T11:13:30.000Z</time>
      </trkpt>
      <trkpt lat="47.21522" lon="-1.17824">
        <ele>129</ele>
        <time>2021-05-29T11:13:32.000Z</time>
      </trkpt>
      <trkpt lat="47.21538" lon="-1.17823">
        <ele>128</ele>
        <time>2021-05-29T11:13:34.000Z</time>
      </trkpt>
      <trkpt lat="47.21554" lon="-1.17817">
        <ele>127</ele>
        <time>2021-05-29T11:13:36.000Z</time>
      </trkpt>
      <trkpt lat="47.21569" lon="-1.17807">
        <ele>124</ele>
        <time>2021-05-29T11:13:38.000Z</time>
      </trkpt>
      <trkpt lat="47.21582" lon="-1.17792">
        <ele>123</ele>
        <time>2021-05-29T11:13:40.000Z</time>
      </trkpt>
      <trkpt lat="47.216" lon="-1.17766">
        <ele>122</ele>
        <time>2021-05-29T11:13:43.000Z</time>
      </trkpt>
      <trkpt lat="47.2161" lon="-1.1775">
        <ele>122</ele>
        <time>2021-05-29T11:13:45.000Z</time>
      </trkpt>
      <trkpt lat="47.2162" lon="-1.17735">
        <ele>123</ele>
        <time>2021-05-29T11:13:47.000Z</time>
      </trkpt>
      <trkpt lat="47.21627" lon="-1.17723">
        <ele>123</ele>
        <time>2021-05-29T11:13:49.000Z</time>
      </trkpt>
      <trkpt lat="47.21634" lon="-1.17711">
        <ele>124</ele>
        <time>2021-05-29T11:13:51.000Z</time>
      </trkpt>
      <trkpt lat="47.21641" lon="-1.17699">
        <ele>126</ele>
        <time>2021-05-29T11:13:53.000Z</time>
      </trkpt>
      <trkpt lat="47.21652" lon="-1.17684">
        <ele>128</ele>
        <time>2021-05-29T11:13:56.000Z</time>
      </trkpt>
      <trkpt lat="47.2166" lon="-1.17674">
        <ele>129</ele>
        <time>2021-05-29T11:13:58.000Z</time>
      </trkpt>
      <trkpt lat="47.21667" lon="-1.17664">
        <ele>130</ele>
        <time>2021-05-29T11:14:00.000Z</time>
      </trkpt>
      <trkpt lat="47.21674" lon="-1.17654">
        <ele>131</ele>
        <time>2021-05-29T11:14:02.000Z</time>
      </trkpt>
      <trkpt lat="47.21682" lon="-1.17645">
        <ele>131</ele>
        <time>2021-05-29T11:14:04.000Z</time>
      </trkpt>
      <trkpt lat="47.2169" lon="-1.17636">
        <ele>132</ele>
        <time>2021-05-29T11:14:06.000Z</time>
      </trkpt>
      <trkpt lat="47.21697" lon="-1.17629">
        <ele>132</ele>
        <time>2021-05-29T11:14:08.000Z</time>
      </trkpt>
      <trkpt lat="47.21705" lon="-1.17621">
        <ele>132</ele>
        <time>2021-05-29T11:14:10.000Z</time>
      </trkpt>
      <trkpt lat="47.21713" lon="-1.17613">
        <ele>133</ele>
        <time>2021-05-29T11:14:12.000Z</time>
      </trkpt>
      <trkpt lat="47.21724" lon="-1.17602">
        <ele>134</ele>
        <time>2021-05-29T11:14:15.000Z</time>
      </trkpt>
      <trkpt lat="47.21731" lon="-1.17594">
        <ele>134</ele>
        <time>2021-05-29T11:14:17.000Z</time>
      </trkpt>
      <trkpt lat="47.21743" lon="-1.17582">
        <ele>135</ele>
        <time>2021-05-29T11:14:20.000Z</time>
      </trkpt>
      <trkpt lat="47.21753" lon="-1.17571">
        <ele>136</ele>
        <time>2021-05-29T11:14:23.000Z</time>
      </trkpt>
      <trkpt lat="47.2176" lon="-1.17562">
        <ele>137</ele>
        <time>2021-05-29T11:14:25.000Z</time>
      </trkpt>
      <trkpt lat="47.21768" lon="-1.17553">
        <ele>137</ele>
        <time>2021-05-29T11:14:27.000Z</time>
      </trkpt>
      <trkpt lat="47.21774" lon="-1.17544">
        <ele>137</ele>
        <time>2021-05-29T11:14:29.000Z</time>
      </trkpt>
      <trkpt lat="47.2178" lon="-1.17534">
        <ele>137</ele>
        <time>2021-05-29T11:14:31.000Z</time>
      </trkpt>
      <trkpt lat="47.21787" lon="-1.17524">
        <ele>137</ele>
        <time>2021-05-29T11:14:33.000Z</time>
      </trkpt>
      <trkpt lat="47.21793" lon="-1.17514">
        <ele>137</ele>
        <time>2021-05-29T11:14:35.000Z</time>
      </trkpt>
      <trkpt lat="47.21801" lon="-1.17499">
        <ele>137</ele>
        <time>2021-05-29T11:14:38.000Z</time>
      </trkpt>
      <trkpt lat="47.21807" lon="-1.17488">
        <ele>138</ele>
        <time>2021-05-29T11:14:40.000Z</time>
      </trkpt>
      <trkpt lat="47.21813" lon="-1.17477">
        <ele>138</ele>
        <time>2021-05-29T11:14:42.000Z</time>
      </trkpt>
      <trkpt lat="47.21821" lon="-1.17462">
        <ele>138</ele>
        <time>2021-05-29T11:14:45.000Z</time>
      </trkpt>
      <trkpt lat="47.21828" lon="-1.17446">
        <ele>139</ele>
        <time>2021-05-29T11:14:48.000Z</time>
      </trkpt>
      <trkpt lat="47.21836" lon="-1.1743">
        <ele>139</ele>
        <time>2021-05-29T11:14:51.000Z</time>
      </trkpt>
      <trkpt lat="47.21841" lon="-1.17419">
        <ele>139</ele>
        <time>2021-05-29T11:14:53.000Z</time>
      </trkpt>
      <trkpt lat="47.21849" lon="-1.17404">
        <ele>139</ele>
        <time>2021-05-29T11:14:56.000Z</time>
      </trkpt>
      <trkpt lat="47.21857" lon="-1.17388">
        <ele>139</ele>
        <time>2021-05-29T11:14:59.000Z</time>
      </trkpt>
      <trkpt lat="47.21865" lon="-1.17372">
        <ele>140</ele>
        <time>2021-05-29T11:15:02.000Z</time>
      </trkpt>
      <trkpt lat="47.21871" lon="-1.17362">
        <ele>140</ele>
        <time>2021-05-29T11:15:04.000Z</time>
      </trkpt>
      <trkpt lat="47.21878" lon="-1.17347">
        <ele>141</ele>
        <time>2021-05-29T11:15:07.000Z</time>
      </trkpt>
      <trkpt lat="47.21886" lon="-1.1733">
        <ele>141</ele>
        <time>2021-05-29T11:15:10.000Z</time>
      </trkpt>
      <trkpt lat="47.21892" lon="-1.1732">
        <ele>141</ele>
        <time>2021-05-29T11:15:12.000Z</time>
      </trkpt>
      <trkpt lat="47.21897" lon="-1.17308">
        <ele>141</ele>
        <time>2021-05-29T11:15:14.000Z</time>
      </trkpt>
      <trkpt lat="47.21904" lon="-1.17292">
        <ele>141</ele>
        <time>2021-05-29T11:15:17.000Z</time>
      </trkpt>
      <trkpt lat="47.21909" lon="-1.1728">
        <ele>142</ele>
        <time>2021-05-29T11:15:19.000Z</time>
      </trkpt>
      <trkpt lat="47.21914" lon="-1.17268">
        <ele>142</ele>
        <time>2021-05-29T11:15:21.000Z</time>
      </trkpt>
      <trkpt lat="47.21919" lon="-1.17256">
        <ele>142</ele>
        <time>2021-05-29T11:15:23.000Z</time>
      </trkpt>
      <trkpt lat="47.21923" lon="-1.17244">
        <ele>142</ele>
        <time>2021-05-29T11:15:25.000Z</time>
      </trkpt>
      <trkpt lat="47.21928" lon="-1.17232">
        <ele>142</ele>
        <time>2021-05-29T11:15:27.000Z</time>
      </trkpt>
      <trkpt lat="47.21932" lon="-1.17219">
        <ele>142</ele>
        <time>2021-05-29T11:15:29.000Z</time>
      </trkpt>
      <trkpt lat="47.21937" lon="-1.17206">
        <ele>143</ele>
        <time>2021-05-29T11:15:31.000Z</time>
      </trkpt>
      <trkpt lat="47.21942" lon="-1.17194">
        <ele>143</ele>
        <time>2021-05-29T11:15:33.000Z</time>
      </trkpt>
      <trkpt lat="47.21946" lon="-1.17181">
        <ele>143</ele>
        <time>2021-05-29T11:15:35.000Z</time>
      </trkpt>
      <trkpt lat="47.21951" lon="-1.17169">
        <ele>142</ele>
        <time>2021-05-29T11:15:37.000Z</time>
      </trkpt>
      <trkpt lat="47.21955" lon="-1.17156">
        <ele>143</ele>
        <time>2021-05-29T11:15:39.000Z</time>
      </trkpt>
      <trkpt lat="47.2196" lon="-1.17145">
        <ele>143</ele>
        <time>2021-05-29T11:15:41.000Z</time>
      </trkpt>
      <trkpt lat="47.21964" lon="-1.17132">
        <ele>143</ele>
        <time>2021-05-29T11:15:43.000Z</time>
      </trkpt>
      <trkpt lat="47.21968" lon="-1.1712">
        <ele>143</ele>
        <time>2021-05-29T11:15:45.000Z</time>
      </trkpt>
      <trkpt lat="47.21972" lon="-1.17108">
        <ele>143</ele>
        <time>2021-05-29T11:15:47.000Z</time>
      </trkpt>
      <trkpt lat="47.21976" lon="-1.17096">
        <ele>143</ele>
        <time>2021-05-29T11:15:49.000Z</time>
      </trkpt>
      <trkpt lat="47.21982" lon="-1.17079">
        <ele>144</ele>
        <time>2021-05-29T11:15:52.000Z</time>
      </trkpt>
      <trkpt lat="47.21986" lon="-1.17066">
        <ele>143</ele>
        <time>2021-05-29T11:15:54.000Z</time>
      </trkpt>
      <trkpt lat="47.21991" lon="-1.17054">
        <ele>144</ele>
        <time>2021-05-29T11:15:56.000Z</time>
      </trkpt>
      <trkpt lat="47.21995" lon="-1.17041">
        <ele>144</ele>
        <time>2021-05-29T11:15:58.000Z</time>
      </trkpt>
      <trkpt lat="47.21999" lon="-1.17029">
        <ele>144</ele>
        <time>2021-05-29T11:16:00.000Z</time>
      </trkpt>
      <trkpt lat="47.22004" lon="-1.17017">
        <ele>144</ele>
        <time>2021-05-29T11:16:02.000Z</time>
      </trkpt>
      <trkpt lat="47.22008" lon="-1.17004">
        <ele>144</ele>
        <time>2021-05-29T11:16:04.000Z</time>
      </trkpt>
      <trkpt lat="47.22013" lon="-1.16992">
        <ele>144</ele>
        <time>2021-05-29T11:16:06.000Z</time>
      </trkpt>
      <trkpt lat="47.22018" lon="-1.16979">
        <ele>144</ele>
        <time>2021-05-29T11:16:08.000Z</time>
      </trkpt>
      <trkpt lat="47.22023" lon="-1.16967">
        <ele>144</ele>
        <time>2021-05-29T11:16:10.000Z</time>
      </trkpt>
      <trkpt lat="47.22028" lon="-1.16954">
        <ele>144</ele>
        <time>2021-05-29T11:16:12.000Z</time>
      </trkpt>
      <trkpt lat="47.22032" lon="-1.16942">
        <ele>144</ele>
        <time>2021-05-29T11:16:14.000Z</time>
      </trkpt>
      <trkpt lat="47.22037" lon="-1.16929">
        <ele>144</ele>
        <time>2021-05-29T11:16:16.000Z</time>
      </trkpt>
      <trkpt lat="47.22042" lon="-1.16917">
        <ele>144</ele>
        <time>2021-05-29T11:16:18.000Z</time>
      </trkpt>
      <trkpt lat="47.22047" lon="-1.16905">
        <ele>144</ele>
        <time>2021-05-29T11:16:20.000Z</time>
      </trkpt>
      <trkpt lat="47.22052" lon="-1.16893">
        <ele>144</ele>
        <time>2021-05-29T11:16:22.000Z</time>
      </trkpt>
      <trkpt lat="47.22057" lon="-1.16881">
        <ele>145</ele>
        <time>2021-05-29T11:16:24.000Z</time>
      </trkpt>
      <trkpt lat="47.22063" lon="-1.16868">
        <ele>145</ele>
        <time>2021-05-29T11:16:26.000Z</time>
      </trkpt>
      <trkpt lat="47.22068" lon="-1.16857">
        <ele>145</ele>
        <time>2021-05-29T11:16:28.000Z</time>
      </trkpt>
      <trkpt lat="47.22074" lon="-1.16846">
        <ele>145</ele>
        <time>2021-05-29T11:16:30.000Z</time>
      </trkpt>
      <trkpt lat="47.2208" lon="-1.16834">
        <ele>145</ele>
        <time>2021-05-29T11:16:32.000Z</time>
      </trkpt>
      <trkpt lat="47.22086" lon="-1.16822">
        <ele>146</ele>
        <time>2021-05-29T11:16:34.000Z</time>
      </trkpt>
      <trkpt lat="47.22092" lon="-1.1681">
        <ele>146</ele>
        <time>2021-05-29T11:16:36.000Z</time>
      </trkpt>
      <trkpt lat="47.22099" lon="-1.16799">
        <ele>146</ele>
        <time>2021-05-29T11:16:38.000Z</time>
      </trkpt>
      <trkpt lat="47.22105" lon="-1.16788">
        <ele>146</ele>
        <time>2021-05-29T11:16:40.000Z</time>
      </trkpt>
      <trkpt lat="47.22112" lon="-1.16777">
        <ele>146</ele>
        <time>2021-05-29T11:16:42.000Z</time>
      </trkpt>
      <trkpt lat="47.2212" lon="-1.16767">
        <ele>146</ele>
        <time>2021-05-29T11:16:44.000Z</time>
      </trkpt>
      <trkpt lat="47.22127" lon="-1.16757">
        <ele>146</ele>
        <time>2021-05-29T11:16:46.000Z</time>
      </trkpt>
      <trkpt lat="47.22134" lon="-1.16747">
        <ele>146</ele>
        <time>2021-05-29T11:16:48.000Z</time>
      </trkpt>
      <trkpt lat="47.22142" lon="-1.16737">
        <ele>146</ele>
        <time>2021-05-29T11:16:50.000Z</time>
      </trkpt>
      <trkpt lat="47.22148" lon="-1.16727">
        <ele>146</ele>
        <time>2021-05-29T11:16:52.000Z</time>
      </trkpt>
      <trkpt lat="47.22156" lon="-1.16718">
        <ele>146</ele>
        <time>2021-05-29T11:16:54.000Z</time>
      </trkpt>
      <trkpt lat="47.22163" lon="-1.16708">
        <ele>146</ele>
        <time>2021-05-29T11:16:56.000Z</time>
      </trkpt>
      <trkpt lat="47.22171" lon="-1.16698">
        <ele>146</ele>
        <time>2021-05-29T11:16:58.000Z</time>
      </trkpt>
      <trkpt lat="47.22179" lon="-1.16688">
        <ele>146</ele>
        <time>2021-05-29T11:17:00.000Z</time>
      </trkpt>
      <trkpt lat="47.22186" lon="-1.16679">
        <ele>146</ele>
        <time>2021-05-29T11:17:02.000Z</time>
      </trkpt>
      <trkpt lat="47.22194" lon="-1.16669">
        <ele>146</ele>
        <time>2021-05-29T11:17:04.000Z</time>
      </trkpt>
      <trkpt lat="47.22202" lon="-1.16659">
        <ele>146</ele>
        <time>2021-05-29T11:17:06.000Z</time>
      </trkpt>
      <trkpt lat="47.22209" lon="-1.16649">
        <ele>146</ele>
        <time>2021-05-29T11:17:08.000Z</time>
      </trkpt>
      <trkpt lat="47.22217" lon="-1.16639">
        <ele>146</ele>
        <time>2021-05-29T11:17:10.000Z</time>
      </trkpt>
      <trkpt lat="47.22225" lon="-1.16629">
        <ele>146</ele>
        <time>2021-05-29T11:17:12.000Z</time>
      </trkpt>
      <trkpt lat="47.22233" lon="-1.16619">
        <ele>146</ele>
        <time>2021-05-29T11:17:14.000Z</time>
      </trkpt>
      <trkpt lat="47.22241" lon="-1.16609">
        <ele>146</ele>
        <time>2021-05-29T11:17:16.000Z</time>
      </trkpt>
      <trkpt lat="47.22249" lon="-1.16598">
        <ele>146</ele>
        <time>2021-05-29T11:17:18.000Z</time>
      </trkpt>
      <trkpt lat="47.22257" lon="-1.16587">
        <ele>146</ele>
        <time>2021-05-29T11:17:20.000Z</time>
      </trkpt>
      <trkpt lat="47.22265" lon="-1.16577">
        <ele>146</ele>
        <time>2021-05-29T11:17:22.000Z</time>
      </trkpt>
      <trkpt lat="47.22273" lon="-1.16567">
        <ele>146</ele>
        <time>2021-05-29T11:17:24.000Z</time>
      </trkpt>
      <trkpt lat="47.2228" lon="-1.16557">
        <ele>147</ele>
        <time>2021-05-29T11:17:26.000Z</time>
      </trkpt>
      <trkpt lat="47.22288" lon="-1.16547">
        <ele>147</ele>
        <time>2021-05-29T11:17:28.000Z</time>
      </trkpt>
      <trkpt lat="47.22295" lon="-1.16538">
        <ele>147</ele>
        <time>2021-05-29T11:17:30.000Z</time>
      </trkpt>
      <trkpt lat="47.22303" lon="-1.16528">
        <ele>147</ele>
        <time>2021-05-29T11:17:32.000Z</time>
      </trkpt>
      <trkpt lat="47.22311" lon="-1.16517">
        <ele>147</ele>
        <time>2021-05-29T11:17:34.000Z</time>
      </trkpt>
      <trkpt lat="47.22318" lon="-1.16508">
        <ele>147</ele>
        <time>2021-05-29T11:17:36.000Z</time>
      </trkpt>
      <trkpt lat="47.22326" lon="-1.16498">
        <ele>148</ele>
        <time>2021-05-29T11:17:38.000Z</time>
      </trkpt>
      <trkpt lat="47.22334" lon="-1.16488">
        <ele>148</ele>
        <time>2021-05-29T11:17:40.000Z</time>
      </trkpt>
      <trkpt lat="47.22342" lon="-1.16478">
        <ele>147</ele>
        <time>2021-05-29T11:17:42.000Z</time>
      </trkpt>
      <trkpt lat="47.2235" lon="-1.16468">
        <ele>147</ele>
        <time>2021-05-29T11:17:44.000Z</time>
      </trkpt>
      <trkpt lat="47.22357" lon="-1.16459">
        <ele>148</ele>
        <time>2021-05-29T11:17:46.000Z</time>
      </trkpt>
      <trkpt lat="47.22364" lon="-1.16449">
        <ele>148</ele>
        <time>2021-05-29T11:17:48.000Z</time>
      </trkpt>
      <trkpt lat="47.22372" lon="-1.16439">
        <ele>148</ele>
        <time>2021-05-29T11:17:50.000Z</time>
      </trkpt>
      <trkpt lat="47.22379" lon="-1.16429">
        <ele>148</ele>
        <time>2021-05-29T11:17:52.000Z</time>
      </trkpt>
      <trkpt lat="47.22386" lon="-1.16418">
        <ele>148</ele>
        <time>2021-05-29T11:17:54.000Z</time>
      </trkpt>
      <trkpt lat="47.22393" lon="-1.16407">
        <ele>149</ele>
        <time>2021-05-29T11:17:56.000Z</time>
      </trkpt>
      <trkpt lat="47.224" lon="-1.16396">
        <ele>149</ele>
        <time>2021-05-29T11:17:58.000Z</time>
      </trkpt>
      <trkpt lat="47.22406" lon="-1.16384">
        <ele>149</ele>
        <time>2021-05-29T11:18:00.000Z</time>
      </trkpt>
      <trkpt lat="47.22412" lon="-1.16373">
        <ele>149</ele>
        <time>2021-05-29T11:18:02.000Z</time>
      </trkpt>
      <trkpt lat="47.22418" lon="-1.16361">
        <ele>149</ele>
        <time>2021-05-29T11:18:04.000Z</time>
      </trkpt>
      <trkpt lat="47.22424" lon="-1.16349">
        <ele>150</ele>
        <time>2021-05-29T11:18:06.000Z</time>
      </trkpt>
      <trkpt lat="47.2243" lon="-1.16337">
        <ele>150</ele>
        <time>2021-05-29T11:18:08.000Z</time>
      </trkpt>
      <trkpt lat="47.22435" lon="-1.16325">
        <ele>150</ele>
        <time>2021-05-29T11:18:10.000Z</time>
      </trkpt>
      <trkpt lat="47.22441" lon="-1.16314">
        <ele>150</ele>
        <time>2021-05-29T11:18:12.000Z</time>
      </trkpt>
      <trkpt lat="47.22447" lon="-1.16302">
        <ele>150</ele>
        <time>2021-05-29T11:18:14.000Z</time>
      </trkpt>
      <trkpt lat="47.22452" lon="-1.16291">
        <ele>149</ele>
        <time>2021-05-29T11:18:16.000Z</time>
      </trkpt>
      <trkpt lat="47.22458" lon="-1.16279">
        <ele>149</ele>
        <time>2021-05-29T11:18:18.000Z</time>
      </trkpt>
      <trkpt lat="47.22463" lon="-1.16267">
        <ele>150</ele>
        <time>2021-05-29T11:18:20.000Z</time>
      </trkpt>
      <trkpt lat="47.22468" lon="-1.16255">
        <ele>149</ele>
        <time>2021-05-29T11:18:22.000Z</time>
      </trkpt>
      <trkpt lat="47.22474" lon="-1.16243">
        <ele>149</ele>
        <time>2021-05-29T11:18:24.000Z</time>
      </trkpt>
      <trkpt lat="47.2248" lon="-1.16231">
        <ele>149</ele>
        <time>2021-05-29T11:18:26.000Z</time>
      </trkpt>
      <trkpt lat="47.22485" lon="-1.16219">
        <ele>149</ele>
        <time>2021-05-29T11:18:28.000Z</time>
      </trkpt>
      <trkpt lat="47.22491" lon="-1.16206">
        <ele>149</ele>
        <time>2021-05-29T11:18:30.000Z</time>
      </trkpt>
      <trkpt lat="47.22497" lon="-1.16194">
        <ele>149</ele>
        <time>2021-05-29T11:18:32.000Z</time>
      </trkpt>
      <trkpt lat="47.22502" lon="-1.16182">
        <ele>149</ele>
        <time>2021-05-29T11:18:34.000Z</time>
      </trkpt>
      <trkpt lat="47.22508" lon="-1.1617">
        <ele>149</ele>
        <time>2021-05-29T11:18:36.000Z</time>
      </trkpt>
      <trkpt lat="47.22514" lon="-1.16157">
        <ele>149</ele>
        <time>2021-05-29T11:18:38.000Z</time>
      </trkpt>
      <trkpt lat="47.2252" lon="-1.16145">
        <ele>149</ele>
        <time>2021-05-29T11:18:40.000Z</time>
      </trkpt>
      <trkpt lat="47.22526" lon="-1.16132">
        <ele>149</ele>
        <time>2021-05-29T11:18:42.000Z</time>
      </trkpt>
      <trkpt lat="47.22531" lon="-1.1612">
        <ele>149</ele>
        <time>2021-05-29T11:18:44.000Z</time>
      </trkpt>
      <trkpt lat="47.22537" lon="-1.16107">
        <ele>149</ele>
        <time>2021-05-29T11:18:46.000Z</time>
      </trkpt>
      <trkpt lat="47.22543" lon="-1.16095">
        <ele>149</ele>
        <time>2021-05-29T11:18:48.000Z</time>
      </trkpt>
      <trkpt lat="47.22548" lon="-1.16082">
        <ele>149</ele>
        <time>2021-05-29T11:18:50.000Z</time>
      </trkpt>
      <trkpt lat="47.22554" lon="-1.1607">
        <ele>149</ele>
        <time>2021-05-29T11:18:52.000Z</time>
      </trkpt>
      <trkpt lat="47.2256" lon="-1.16057">
        <ele>149</ele>
        <time>2021-05-29T11:18:54.000Z</time>
      </trkpt>
      <trkpt lat="47.22566" lon="-1.16045">
        <ele>149</ele>
        <time>2021-05-29T11:18:56.000Z</time>
      </trkpt>
      <trkpt lat="47.22571" lon="-1.16032">
        <ele>149</ele>
        <time>2021-05-29T11:18:58.000Z</time>
      </trkpt>
      <trkpt lat="47.22577" lon="-1.16021">
        <ele>150</ele>
        <time>2021-05-29T11:19:00.000Z</time>
      </trkpt>
      <trkpt lat="47.22583" lon="-1.16009">
        <ele>149</ele>
        <time>2021-05-29T11:19:02.000Z</time>
      </trkpt>
      <trkpt lat="47.22588" lon="-1.15997">
        <ele>149</ele>
        <time>2021-05-29T11:19:04.000Z</time>
      </trkpt>
      <trkpt lat="47.22593" lon="-1.15985">
        <ele>150</ele>
        <time>2021-05-29T11:19:06.000Z</time>
      </trkpt>
      <trkpt lat="47.22598" lon="-1.15972">
        <ele>150</ele>
        <time>2021-05-29T11:19:08.000Z</time>
      </trkpt>
      <trkpt lat="47.22603" lon="-1.15959">
        <ele>150</ele>
        <time>2021-05-29T11:19:10.000Z</time>
      </trkpt>
      <trkpt lat="47.22607" lon="-1.15946">
        <ele>150</ele>
        <time>2021-05-29T11:19:12.000Z</time>
      </trkpt>
      <trkpt lat="47.22612" lon="-1.15934">
        <ele>150</ele>
        <time>2021-05-29T11:19:14.000Z</time>
      </trkpt>
      <trkpt lat="47.22616" lon="-1.15921">
        <ele>149</ele>
        <time>2021-05-29T11:19:16.000Z</time>
      </trkpt>
      <trkpt lat="47.2262" lon="-1.15908">
        <ele>149</ele>
        <time>2021-05-29T11:19:18.000Z</time>
      </trkpt>
      <trkpt lat="47.22626" lon="-1.15896">
        <ele>149</ele>
        <time>2021-05-29T11:19:20.000Z</time>
      </trkpt>
      <trkpt lat="47.2263" lon="-1.15884">
        <ele>149</ele>
        <time>2021-05-29T11:19:22.000Z</time>
      </trkpt>
      <trkpt lat="47.22634" lon="-1.15872">
        <ele>149</ele>
        <time>2021-05-29T11:19:24.000Z</time>
      </trkpt>
      <trkpt lat="47.22638" lon="-1.15859">
        <ele>148</ele>
        <time>2021-05-29T11:19:26.000Z</time>
      </trkpt>
      <trkpt lat="47.22643" lon="-1.15846">
        <ele>148</ele>
        <time>2021-05-29T11:19:28.000Z</time>
      </trkpt>
      <trkpt lat="47.22647" lon="-1.15833">
        <ele>149</ele>
        <time>2021-05-29T11:19:30.000Z</time>
      </trkpt>
      <trkpt lat="47.22652" lon="-1.1582">
        <ele>149</ele>
        <time>2021-05-29T11:19:32.000Z</time>
      </trkpt>
      <trkpt lat="47.22656" lon="-1.15807">
        <ele>149</ele>
        <time>2021-05-29T11:19:34.000Z</time>
      </trkpt>
      <trkpt lat="47.22661" lon="-1.15788">
        <ele>149</ele>
        <time>2021-05-29T11:19:37.000Z</time>
      </trkpt>
      <trkpt lat="47.22666" lon="-1.15776">
        <ele>150</ele>
        <time>2021-05-29T11:19:39.000Z</time>
      </trkpt>
      <trkpt lat="47.22673" lon="-1.15758">
        <ele>150</ele>
        <time>2021-05-29T11:19:42.000Z</time>
      </trkpt>
      <trkpt lat="47.22678" lon="-1.15745">
        <ele>150</ele>
        <time>2021-05-29T11:19:44.000Z</time>
      </trkpt>
      <trkpt lat="47.22682" lon="-1.15733">
        <ele>150</ele>
        <time>2021-05-29T11:19:46.000Z</time>
      </trkpt>
      <trkpt lat="47.22687" lon="-1.1572">
        <ele>150</ele>
        <time>2021-05-29T11:19:48.000Z</time>
      </trkpt>
      <trkpt lat="47.22692" lon="-1.15707">
        <ele>150</ele>
        <time>2021-05-29T11:19:50.000Z</time>
      </trkpt>
      <trkpt lat="47.22695" lon="-1.15695">
        <ele>149</ele>
        <time>2021-05-29T11:19:52.000Z</time>
      </trkpt>
      <trkpt lat="47.22698" lon="-1.15681">
        <ele>149</ele>
        <time>2021-05-29T11:19:54.000Z</time>
      </trkpt>
      <trkpt lat="47.22706" lon="-1.15664">
        <ele>150</ele>
        <time>2021-05-29T11:19:57.000Z</time>
      </trkpt>
      <trkpt lat="47.22715" lon="-1.15646">
        <ele>147</ele>
        <time>2021-05-29T11:20:00.000Z</time>
      </trkpt>
      <trkpt lat="47.22722" lon="-1.15623">
        <ele>149</ele>
        <time>2021-05-29T11:20:04.000Z</time>
      </trkpt>
      <trkpt lat="47.2273" lon="-1.15605">
        <ele>147</ele>
        <time>2021-05-29T11:20:07.000Z</time>
      </trkpt>
      <trkpt lat="47.22735" lon="-1.15592">
        <ele>148</ele>
        <time>2021-05-29T11:20:09.000Z</time>
      </trkpt>
      <trkpt lat="47.22738" lon="-1.15579">
        <ele>149</ele>
        <time>2021-05-29T11:20:11.000Z</time>
      </trkpt>
      <trkpt lat="47.22741" lon="-1.15567">
        <ele>149</ele>
        <time>2021-05-29T11:20:13.000Z</time>
      </trkpt>
      <trkpt lat="47.22747" lon="-1.15549">
        <ele>150</ele>
        <time>2021-05-29T11:20:16.000Z</time>
      </trkpt>
      <trkpt lat="47.22751" lon="-1.15537">
        <ele>150</ele>
        <time>2021-05-29T11:20:18.000Z</time>
      </trkpt>
      <trkpt lat="47.22755" lon="-1.15525">
        <ele>151</ele>
        <time>2021-05-29T11:20:20.000Z</time>
      </trkpt>
      <trkpt lat="47.22761" lon="-1.15513">
        <ele>150</ele>
        <time>2021-05-29T11:20:22.000Z</time>
      </trkpt>
      <trkpt lat="47.22764" lon="-1.155">
        <ele>151</ele>
        <time>2021-05-29T11:20:24.000Z</time>
      </trkpt>
      <trkpt lat="47.22769" lon="-1.15488">
        <ele>151</ele>
        <time>2021-05-29T11:20:26.000Z</time>
      </trkpt>
      <trkpt lat="47.22774" lon="-1.15476">
        <ele>151</ele>
        <time>2021-05-29T11:20:28.000Z</time>
      </trkpt>
      <trkpt lat="47.22779" lon="-1.15464">
        <ele>151</ele>
        <time>2021-05-29T11:20:30.000Z</time>
      </trkpt>
      <trkpt lat="47.22784" lon="-1.15453">
        <ele>151</ele>
        <time>2021-05-29T11:20:32.000Z</time>
      </trkpt>
      <trkpt lat="47.2279" lon="-1.15442">
        <ele>151</ele>
        <time>2021-05-29T11:20:34.000Z</time>
      </trkpt>
      <trkpt lat="47.22794" lon="-1.1543">
        <ele>151</ele>
        <time>2021-05-29T11:20:36.000Z</time>
      </trkpt>
      <trkpt lat="47.228" lon="-1.15419">
        <ele>152</ele>
        <time>2021-05-29T11:20:38.000Z</time>
      </trkpt>
      <trkpt lat="47.22806" lon="-1.15407">
        <ele>151</ele>
        <time>2021-05-29T11:20:40.000Z</time>
      </trkpt>
      <trkpt lat="47.22811" lon="-1.15395">
        <ele>152</ele>
        <time>2021-05-29T11:20:42.000Z</time>
      </trkpt>
      <trkpt lat="47.22816" lon="-1.15384">
        <ele>151</ele>
        <time>2021-05-29T11:20:44.000Z</time>
      </trkpt>
      <trkpt lat="47.22825" lon="-1.15368">
        <ele>151</ele>
        <time>2021-05-29T11:20:47.000Z</time>
      </trkpt>
      <trkpt lat="47.22835" lon="-1.15351">
        <ele>151</ele>
        <time>2021-05-29T11:20:50.000Z</time>
      </trkpt>
      <trkpt lat="47.22842" lon="-1.1534">
        <ele>151</ele>
        <time>2021-05-29T11:20:52.000Z</time>
      </trkpt>
      <trkpt lat="47.22848" lon="-1.1533">
        <ele>151</ele>
        <time>2021-05-29T11:20:54.000Z</time>
      </trkpt>
      <trkpt lat="47.22858" lon="-1.15314">
        <ele>151</ele>
        <time>2021-05-29T11:20:57.000Z</time>
      </trkpt>
      <trkpt lat="47.22864" lon="-1.15303">
        <ele>151</ele>
        <time>2021-05-29T11:20:59.000Z</time>
      </trkpt>
      <trkpt lat="47.22871" lon="-1.15292">
        <ele>151</ele>
        <time>2021-05-29T11:21:01.000Z</time>
      </trkpt>
      <trkpt lat="47.22877" lon="-1.15281">
        <ele>151</ele>
        <time>2021-05-29T11:21:03.000Z</time>
      </trkpt>
      <trkpt lat="47.22884" lon="-1.1527">
        <ele>151</ele>
        <time>2021-05-29T11:21:05.000Z</time>
      </trkpt>
      <trkpt lat="47.22894" lon="-1.15253">
        <ele>152</ele>
        <time>2021-05-29T11:21:08.000Z</time>
      </trkpt>
      <trkpt lat="47.229" lon="-1.15242">
        <ele>152</ele>
        <time>2021-05-29T11:21:10.000Z</time>
      </trkpt>
      <trkpt lat="47.22908" lon="-1.15232">
        <ele>152</ele>
        <time>2021-05-29T11:21:12.000Z</time>
      </trkpt>
      <trkpt lat="47.22914" lon="-1.15221">
        <ele>152</ele>
        <time>2021-05-29T11:21:14.000Z</time>
      </trkpt>
      <trkpt lat="47.22921" lon="-1.15209">
        <ele>152</ele>
        <time>2021-05-29T11:21:16.000Z</time>
      </trkpt>
      <trkpt lat="47.22928" lon="-1.15198">
        <ele>151</ele>
        <time>2021-05-29T11:21:18.000Z</time>
      </trkpt>
      <trkpt lat="47.22936" lon="-1.15186">
        <ele>151</ele>
        <time>2021-05-29T11:21:20.000Z</time>
      </trkpt>
      <trkpt lat="47.22943" lon="-1.15174">
        <ele>151</ele>
        <time>2021-05-29T11:21:22.000Z</time>
      </trkpt>
      <trkpt lat="47.22954" lon="-1.15157">
        <ele>151</ele>
        <time>2021-05-29T11:21:25.000Z</time>
      </trkpt>
      <trkpt lat="47.22961" lon="-1.15145">
        <ele>151</ele>
        <time>2021-05-29T11:21:27.000Z</time>
      </trkpt>
      <trkpt lat="47.22967" lon="-1.15135">
        <ele>151</ele>
        <time>2021-05-29T11:21:29.000Z</time>
      </trkpt>
      <trkpt lat="47.22974" lon="-1.15123">
        <ele>150</ele>
        <time>2021-05-29T11:21:31.000Z</time>
      </trkpt>
      <trkpt lat="47.22985" lon="-1.15106">
        <ele>150</ele>
        <time>2021-05-29T11:21:34.000Z</time>
      </trkpt>
      <trkpt lat="47.22991" lon="-1.15094">
        <ele>150</ele>
        <time>2021-05-29T11:21:36.000Z</time>
      </trkpt>
      <trkpt lat="47.22999" lon="-1.15084">
        <ele>150</ele>
        <time>2021-05-29T11:21:38.000Z</time>
      </trkpt>
      <trkpt lat="47.23006" lon="-1.15072">
        <ele>150</ele>
        <time>2021-05-29T11:21:40.000Z</time>
      </trkpt>
      <trkpt lat="47.23012" lon="-1.1506">
        <ele>150</ele>
        <time>2021-05-29T11:21:42.000Z</time>
      </trkpt>
      <trkpt lat="47.23019" lon="-1.15047">
        <ele>150</ele>
        <time>2021-05-29T11:21:44.000Z</time>
      </trkpt>
      <trkpt lat="47.23025" lon="-1.15034">
        <ele>150</ele>
        <time>2021-05-29T11:21:46.000Z</time>
      </trkpt>
      <trkpt lat="47.23031" lon="-1.1502">
        <ele>149</ele>
        <time>2021-05-29T11:21:48.000Z</time>
      </trkpt>
      <trkpt lat="47.23037" lon="-1.15006">
        <ele>149</ele>
        <time>2021-05-29T11:21:50.000Z</time>
      </trkpt>
      <trkpt lat="47.23042" lon="-1.14993">
        <ele>149</ele>
        <time>2021-05-29T11:21:52.000Z</time>
      </trkpt>
      <trkpt lat="47.23046" lon="-1.14979">
        <ele>148</ele>
        <time>2021-05-29T11:21:54.000Z</time>
      </trkpt>
      <trkpt lat="47.23054" lon="-1.14958">
        <ele>149</ele>
        <time>2021-05-29T11:21:57.000Z</time>
      </trkpt>
      <trkpt lat="47.23058" lon="-1.14945">
        <ele>148</ele>
        <time>2021-05-29T11:21:59.000Z</time>
      </trkpt>
      <trkpt lat="47.23063" lon="-1.1493">
        <ele>148</ele>
        <time>2021-05-29T11:22:01.000Z</time>
      </trkpt>
      <trkpt lat="47.23068" lon="-1.14916">
        <ele>148</ele>
        <time>2021-05-29T11:22:03.000Z</time>
      </trkpt>
      <trkpt lat="47.23072" lon="-1.14904">
        <ele>149</ele>
        <time>2021-05-29T11:22:05.000Z</time>
      </trkpt>
      <trkpt lat="47.23076" lon="-1.14891">
        <ele>149</ele>
        <time>2021-05-29T11:22:07.000Z</time>
      </trkpt>
      <trkpt lat="47.2308" lon="-1.14877">
        <ele>149</ele>
        <time>2021-05-29T11:22:09.000Z</time>
      </trkpt>
      <trkpt lat="47.23085" lon="-1.14864">
        <ele>149</ele>
        <time>2021-05-29T11:22:11.000Z</time>
      </trkpt>
      <trkpt lat="47.23089" lon="-1.14852">
        <ele>149</ele>
        <time>2021-05-29T11:22:13.000Z</time>
      </trkpt>
      <trkpt lat="47.23094" lon="-1.14839">
        <ele>150</ele>
        <time>2021-05-29T11:22:15.000Z</time>
      </trkpt>
      <trkpt lat="47.23098" lon="-1.14827">
        <ele>150</ele>
        <time>2021-05-29T11:22:17.000Z</time>
      </trkpt>
      <trkpt lat="47.23103" lon="-1.14815">
        <ele>150</ele>
        <time>2021-05-29T11:22:19.000Z</time>
      </trkpt>
      <trkpt lat="47.2311" lon="-1.14799">
        <ele>150</ele>
        <time>2021-05-29T11:22:22.000Z</time>
      </trkpt>
      <trkpt lat="47.23117" lon="-1.14781">
        <ele>150</ele>
        <time>2021-05-29T11:22:25.000Z</time>
      </trkpt>
      <trkpt lat="47.23123" lon="-1.1477">
        <ele>150</ele>
        <time>2021-05-29T11:22:27.000Z</time>
      </trkpt>
      <trkpt lat="47.23128" lon="-1.14757">
        <ele>149</ele>
        <time>2021-05-29T11:22:29.000Z</time>
      </trkpt>
      <trkpt lat="47.23133" lon="-1.14746">
        <ele>150</ele>
        <time>2021-05-29T11:22:31.000Z</time>
      </trkpt>
      <trkpt lat="47.23138" lon="-1.14735">
        <ele>150</ele>
        <time>2021-05-29T11:22:33.000Z</time>
      </trkpt>
      <trkpt lat="47.23145" lon="-1.14723">
        <ele>150</ele>
        <time>2021-05-29T11:22:35.000Z</time>
      </trkpt>
      <trkpt lat="47.2315" lon="-1.1471">
        <ele>153</ele>
        <time>2021-05-29T11:22:37.000Z</time>
      </trkpt>
      <trkpt lat="47.23158" lon="-1.14695">
        <ele>152</ele>
        <time>2021-05-29T11:22:40.000Z</time>
      </trkpt>
      <trkpt lat="47.23164" lon="-1.14683">
        <ele>152</ele>
        <time>2021-05-29T11:22:42.000Z</time>
      </trkpt>
      <trkpt lat="47.2317" lon="-1.14671">
        <ele>152</ele>
        <time>2021-05-29T11:22:44.000Z</time>
      </trkpt>
      <trkpt lat="47.23175" lon="-1.14659">
        <ele>151</ele>
        <time>2021-05-29T11:22:46.000Z</time>
      </trkpt>
      <trkpt lat="47.23181" lon="-1.14647">
        <ele>152</ele>
        <time>2021-05-29T11:22:48.000Z</time>
      </trkpt>
      <trkpt lat="47.23186" lon="-1.14635">
        <ele>152</ele>
        <time>2021-05-29T11:22:50.000Z</time>
      </trkpt>
      <trkpt lat="47.23191" lon="-1.14623">
        <ele>152</ele>
        <time>2021-05-29T11:22:52.000Z</time>
      </trkpt>
      <trkpt lat="47.23197" lon="-1.1461">
        <ele>153</ele>
        <time>2021-05-29T11:22:54.000Z</time>
      </trkpt>
      <trkpt lat="47.23202" lon="-1.14598">
        <ele>152</ele>
        <time>2021-05-29T11:22:56.000Z</time>
      </trkpt>
      <trkpt lat="47.23208" lon="-1.14586">
        <ele>152</ele>
        <time>2021-05-29T11:22:58.000Z</time>
      </trkpt>
      <trkpt lat="47.23217" lon="-1.14563">
        <ele>151</ele>
        <time>2021-05-29T11:23:02.000Z</time>
      </trkpt>
      <trkpt lat="47.23222" lon="-1.1455">
        <ele>151</ele>
        <time>2021-05-29T11:23:04.000Z</time>
      </trkpt>
      <trkpt lat="47.23227" lon="-1.14538">
        <ele>151</ele>
        <time>2021-05-29T11:23:06.000Z</time>
      </trkpt>
      <trkpt lat="47.23235" lon="-1.14519">
        <ele>151</ele>
        <time>2021-05-29T11:23:09.000Z</time>
      </trkpt>
      <trkpt lat="47.23245" lon="-1.14501">
        <ele>152</ele>
        <time>2021-05-29T11:23:12.000Z</time>
      </trkpt>
      <trkpt lat="47.2325" lon="-1.14489">
        <ele>152</ele>
        <time>2021-05-29T11:23:14.000Z</time>
      </trkpt>
      <trkpt lat="47.23256" lon="-1.14476">
        <ele>152</ele>
        <time>2021-05-29T11:23:16.000Z</time>
      </trkpt>
      <trkpt lat="47.23264" lon="-1.14458">
        <ele>152</ele>
        <time>2021-05-29T11:23:19.000Z</time>
      </trkpt>
      <trkpt lat="47.2327" lon="-1.14445">
        <ele>152</ele>
        <time>2021-05-29T11:23:21.000Z</time>
      </trkpt>
      <trkpt lat="47.23276" lon="-1.14431">
        <ele>152</ele>
        <time>2021-05-29T11:23:23.000Z</time>
      </trkpt>
      <trkpt lat="47.23281" lon="-1.14417">
        <ele>152</ele>
        <time>2021-05-29T11:23:25.000Z</time>
      </trkpt>
      <trkpt lat="47.23287" lon="-1.14403">
        <ele>153</ele>
        <time>2021-05-29T11:23:27.000Z</time>
      </trkpt>
      <trkpt lat="47.23293" lon="-1.14389">
        <ele>153</ele>
        <time>2021-05-29T11:23:29.000Z</time>
      </trkpt>
      <trkpt lat="47.23299" lon="-1.14374">
        <ele>153</ele>
        <time>2021-05-29T11:23:31.000Z</time>
      </trkpt>
      <trkpt lat="47.23307" lon="-1.14358">
        <ele>153</ele>
        <time>2021-05-29T11:23:33.000Z</time>
      </trkpt>
      <trkpt lat="47.23317" lon="-1.14335">
        <ele>152</ele>
        <time>2021-05-29T11:23:36.000Z</time>
      </trkpt>
      <trkpt lat="47.23323" lon="-1.14319">
        <ele>152</ele>
        <time>2021-05-29T11:23:38.000Z</time>
      </trkpt>
      <trkpt lat="47.2333" lon="-1.14303">
        <ele>152</ele>
        <time>2021-05-29T11:23:40.000Z</time>
      </trkpt>
      <trkpt lat="47.23338" lon="-1.14288">
        <ele>152</ele>
        <time>2021-05-29T11:23:42.000Z</time>
      </trkpt>
      <trkpt lat="47.23344" lon="-1.14271">
        <ele>152</ele>
        <time>2021-05-29T11:23:44.000Z</time>
      </trkpt>
      <trkpt lat="47.23351" lon="-1.14256">
        <ele>152</ele>
        <time>2021-05-29T11:23:46.000Z</time>
      </trkpt>
      <trkpt lat="47.23361" lon="-1.14233">
        <ele>152</ele>
        <time>2021-05-29T11:23:49.000Z</time>
      </trkpt>
      <trkpt lat="47.23368" lon="-1.14218">
        <ele>151</ele>
        <time>2021-05-29T11:23:51.000Z</time>
      </trkpt>
      <trkpt lat="47.23376" lon="-1.14205">
        <ele>149</ele>
        <time>2021-05-29T11:23:53.000Z</time>
      </trkpt>
      <trkpt lat="47.23384" lon="-1.14191">
        <ele>150</ele>
        <time>2021-05-29T11:23:55.000Z</time>
      </trkpt>
      <trkpt lat="47.23397" lon="-1.14171">
        <ele>150</ele>
        <time>2021-05-29T11:23:58.000Z</time>
      </trkpt>
      <trkpt lat="47.23405" lon="-1.14157">
        <ele>150</ele>
        <time>2021-05-29T11:24:00.000Z</time>
      </trkpt>
      <trkpt lat="47.23415" lon="-1.14143">
        <ele>150</ele>
        <time>2021-05-29T11:24:02.000Z</time>
      </trkpt>
      <trkpt lat="47.23429" lon="-1.14123">
        <ele>151</ele>
        <time>2021-05-29T11:24:05.000Z</time>
      </trkpt>
      <trkpt lat="47.23438" lon="-1.14109">
        <ele>151</ele>
        <time>2021-05-29T11:24:07.000Z</time>
      </trkpt>
      <trkpt lat="47.23447" lon="-1.14096">
        <ele>150</ele>
        <time>2021-05-29T11:24:09.000Z</time>
      </trkpt>
      <trkpt lat="47.23455" lon="-1.14082">
        <ele>150</ele>
        <time>2021-05-29T11:24:11.000Z</time>
      </trkpt>
      <trkpt lat="47.23463" lon="-1.14069">
        <ele>150</ele>
        <time>2021-05-29T11:24:13.000Z</time>
      </trkpt>
      <trkpt lat="47.2347" lon="-1.14054">
        <ele>150</ele>
        <time>2021-05-29T11:24:15.000Z</time>
      </trkpt>
      <trkpt lat="47.23482" lon="-1.14033">
        <ele>149</ele>
        <time>2021-05-29T11:24:18.000Z</time>
      </trkpt>
      <trkpt lat="47.23488" lon="-1.14018">
        <ele>151</ele>
        <time>2021-05-29T11:24:20.000Z</time>
      </trkpt>
      <trkpt lat="47.23494" lon="-1.14003">
        <ele>150</ele>
        <time>2021-05-29T11:24:22.000Z</time>
      </trkpt>
      <trkpt lat="47.23507" lon="-1.13984">
        <ele>150</ele>
        <time>2021-05-29T11:24:25.000Z</time>
      </trkpt>
      <trkpt lat="47.23512" lon="-1.1397">
        <ele>150</ele>
        <time>2021-05-29T11:24:27.000Z</time>
      </trkpt>
      <trkpt lat="47.23519" lon="-1.13956">
        <ele>150</ele>
        <time>2021-05-29T11:24:29.000Z</time>
      </trkpt>
      <trkpt lat="47.23531" lon="-1.13934">
        <ele>150</ele>
        <time>2021-05-29T11:24:32.000Z</time>
      </trkpt>
      <trkpt lat="47.23538" lon="-1.13919">
        <ele>151</ele>
        <time>2021-05-29T11:24:34.000Z</time>
      </trkpt>
      <trkpt lat="47.23548" lon="-1.13899">
        <ele>149</ele>
        <time>2021-05-29T11:24:37.000Z</time>
      </trkpt>
      <trkpt lat="47.23555" lon="-1.13884">
        <ele>150</ele>
        <time>2021-05-29T11:24:39.000Z</time>
      </trkpt>
      <trkpt lat="47.23562" lon="-1.13871">
        <ele>150</ele>
        <time>2021-05-29T11:24:41.000Z</time>
      </trkpt>
      <trkpt lat="47.23569" lon="-1.13856">
        <ele>150</ele>
        <time>2021-05-29T11:24:43.000Z</time>
      </trkpt>
      <trkpt lat="47.23576" lon="-1.13842">
        <ele>150</ele>
        <time>2021-05-29T11:24:45.000Z</time>
      </trkpt>
      <trkpt lat="47.23583" lon="-1.13828">
        <ele>150</ele>
        <time>2021-05-29T11:24:47.000Z</time>
      </trkpt>
      <trkpt lat="47.2359" lon="-1.13815">
        <ele>150</ele>
        <time>2021-05-29T11:24:49.000Z</time>
      </trkpt>
      <trkpt lat="47.23597" lon="-1.13801">
        <ele>150</ele>
        <time>2021-05-29T11:24:51.000Z</time>
      </trkpt>
      <trkpt lat="47.23604" lon="-1.13787">
        <ele>150</ele>
        <time>2021-05-29T11:24:53.000Z</time>
      </trkpt>
      <trkpt lat="47.23611" lon="-1.13773">
        <ele>150</ele>
        <time>2021-05-29T11:24:55.000Z</time>
      </trkpt>
      <trkpt lat="47.23625" lon="-1.13746">
        <ele>150</ele>
        <time>2021-05-29T11:24:59.000Z</time>
      </trkpt>
      <trkpt lat="47.23631" lon="-1.13729">
        <ele>149</ele>
        <time>2021-05-29T11:25:01.000Z</time>
      </trkpt>
      <trkpt lat="47.23641" lon="-1.13708">
        <ele>149</ele>
        <time>2021-05-29T11:25:04.000Z</time>
      </trkpt>
      <trkpt lat="47.23649" lon="-1.13695">
        <ele>149</ele>
        <time>2021-05-29T11:25:06.000Z</time>
      </trkpt>
      <trkpt lat="47.23657" lon="-1.13681">
        <ele>149</ele>
        <time>2021-05-29T11:25:08.000Z</time>
      </trkpt>
      <trkpt lat="47.23663" lon="-1.13669">
        <ele>149</ele>
        <time>2021-05-29T11:25:10.000Z</time>
      </trkpt>
      <trkpt lat="47.23671" lon="-1.13654">
        <ele>150</ele>
        <time>2021-05-29T11:25:12.000Z</time>
      </trkpt>
      <trkpt lat="47.23678" lon="-1.1364">
        <ele>149</ele>
        <time>2021-05-29T11:25:14.000Z</time>
      </trkpt>
      <trkpt lat="47.23685" lon="-1.13626">
        <ele>149</ele>
        <time>2021-05-29T11:25:16.000Z</time>
      </trkpt>
      <trkpt lat="47.23691" lon="-1.13612">
        <ele>149</ele>
        <time>2021-05-29T11:25:18.000Z</time>
      </trkpt>
      <trkpt lat="47.23698" lon="-1.136">
        <ele>149</ele>
        <time>2021-05-29T11:25:20.000Z</time>
      </trkpt>
      <trkpt lat="47.23706" lon="-1.13585">
        <ele>150</ele>
        <time>2021-05-29T11:25:22.000Z</time>
      </trkpt>
      <trkpt lat="47.23713" lon="-1.1357">
        <ele>150</ele>
        <time>2021-05-29T11:25:24.000Z</time>
      </trkpt>
      <trkpt lat="47.23719" lon="-1.13554">
        <ele>150</ele>
        <time>2021-05-29T11:25:26.000Z</time>
      </trkpt>
      <trkpt lat="47.23726" lon="-1.1354">
        <ele>150</ele>
        <time>2021-05-29T11:25:28.000Z</time>
      </trkpt>
      <trkpt lat="47.23733" lon="-1.13527">
        <ele>150</ele>
        <time>2021-05-29T11:25:30.000Z</time>
      </trkpt>
      <trkpt lat="47.2374" lon="-1.13516">
        <ele>150</ele>
        <time>2021-05-29T11:25:32.000Z</time>
      </trkpt>
      <trkpt lat="47.23746" lon="-1.13501">
        <ele>150</ele>
        <time>2021-05-29T11:25:34.000Z</time>
      </trkpt>
      <trkpt lat="47.23753" lon="-1.13488">
        <ele>148</ele>
        <time>2021-05-29T11:25:36.000Z</time>
      </trkpt>
      <trkpt lat="47.23761" lon="-1.13473">
        <ele>147</ele>
        <time>2021-05-29T11:25:38.000Z</time>
      </trkpt>
      <trkpt lat="47.23768" lon="-1.13461">
        <ele>148</ele>
        <time>2021-05-29T11:25:40.000Z</time>
      </trkpt>
      <trkpt lat="47.23775" lon="-1.13451">
        <ele>149</ele>
        <time>2021-05-29T11:25:42.000Z</time>
      </trkpt>
      <trkpt lat="47.23782" lon="-1.1344">
        <ele>149</ele>
        <time>2021-05-29T11:25:44.000Z</time>
      </trkpt>
      <trkpt lat="47.2379" lon="-1.13429">
        <ele>150</ele>
        <time>2021-05-29T11:25:46.000Z</time>
      </trkpt>
      <trkpt lat="47.23797" lon="-1.13418">
        <ele>150</ele>
        <time>2021-05-29T11:25:48.000Z</time>
      </trkpt>
      <trkpt lat="47.23806" lon="-1.13401">
        <ele>150</ele>
        <time>2021-05-29T11:25:51.000Z</time>
      </trkpt>
      <trkpt lat="47.23813" lon="-1.1339">
        <ele>150</ele>
        <time>2021-05-29T11:25:53.000Z</time>
      </trkpt>
      <trkpt lat="47.23823" lon="-1.13372">
        <ele>149</ele>
        <time>2021-05-29T11:25:56.000Z</time>
      </trkpt>
      <trkpt lat="47.23829" lon="-1.1336">
        <ele>149</ele>
        <time>2021-05-29T11:25:58.000Z</time>
      </trkpt>
      <trkpt lat="47.23837" lon="-1.13349">
        <ele>149</ele>
        <time>2021-05-29T11:26:00.000Z</time>
      </trkpt>
      <trkpt lat="47.23845" lon="-1.13337">
        <ele>149</ele>
        <time>2021-05-29T11:26:02.000Z</time>
      </trkpt>
      <trkpt lat="47.23852" lon="-1.13326">
        <ele>150</ele>
        <time>2021-05-29T11:26:04.000Z</time>
      </trkpt>
      <trkpt lat="47.23859" lon="-1.13314">
        <ele>150</ele>
        <time>2021-05-29T11:26:06.000Z</time>
      </trkpt>
      <trkpt lat="47.2387" lon="-1.13296">
        <ele>150</ele>
        <time>2021-05-29T11:26:09.000Z</time>
      </trkpt>
      <trkpt lat="47.23878" lon="-1.13286">
        <ele>151</ele>
        <time>2021-05-29T11:26:11.000Z</time>
      </trkpt>
      <trkpt lat="47.23885" lon="-1.13274">
        <ele>151</ele>
        <time>2021-05-29T11:26:13.000Z</time>
      </trkpt>
      <trkpt lat="47.23893" lon="-1.13262">
        <ele>151</ele>
        <time>2021-05-29T11:26:15.000Z</time>
      </trkpt>
      <trkpt lat="47.239" lon="-1.1325">
        <ele>151</ele>
        <time>2021-05-29T11:26:17.000Z</time>
      </trkpt>
      <trkpt lat="47.23908" lon="-1.13239">
        <ele>151</ele>
        <time>2021-05-29T11:26:19.000Z</time>
      </trkpt>
      <trkpt lat="47.23915" lon="-1.13228">
        <ele>152</ele>
        <time>2021-05-29T11:26:21.000Z</time>
      </trkpt>
      <trkpt lat="47.23922" lon="-1.13215">
        <ele>152</ele>
        <time>2021-05-29T11:26:23.000Z</time>
      </trkpt>
      <trkpt lat="47.23928" lon="-1.13203">
        <ele>152</ele>
        <time>2021-05-29T11:26:25.000Z</time>
      </trkpt>
      <trkpt lat="47.23935" lon="-1.13192">
        <ele>152</ele>
        <time>2021-05-29T11:26:27.000Z</time>
      </trkpt>
      <trkpt lat="47.23942" lon="-1.1318">
        <ele>152</ele>
        <time>2021-05-29T11:26:29.000Z</time>
      </trkpt>
      <trkpt lat="47.2395" lon="-1.13169">
        <ele>151</ele>
        <time>2021-05-29T11:26:31.000Z</time>
      </trkpt>
      <trkpt lat="47.23958" lon="-1.13158">
        <ele>149</ele>
        <time>2021-05-29T11:26:33.000Z</time>
      </trkpt>
      <trkpt lat="47.23965" lon="-1.13147">
        <ele>150</ele>
        <time>2021-05-29T11:26:35.000Z</time>
      </trkpt>
      <trkpt lat="47.23971" lon="-1.13134">
        <ele>150</ele>
        <time>2021-05-29T11:26:37.000Z</time>
      </trkpt>
      <trkpt lat="47.23982" lon="-1.13117">
        <ele>151</ele>
        <time>2021-05-29T11:26:40.000Z</time>
      </trkpt>
      <trkpt lat="47.23988" lon="-1.13106">
        <ele>152</ele>
        <time>2021-05-29T11:26:42.000Z</time>
      </trkpt>
      <trkpt lat="47.23994" lon="-1.13096">
        <ele>152</ele>
        <time>2021-05-29T11:26:44.000Z</time>
      </trkpt>
      <trkpt lat="47.24002" lon="-1.13085">
        <ele>153</ele>
        <time>2021-05-29T11:26:46.000Z</time>
      </trkpt>
      <trkpt lat="47.2401" lon="-1.13073">
        <ele>153</ele>
        <time>2021-05-29T11:26:48.000Z</time>
      </trkpt>
      <trkpt lat="47.24016" lon="-1.13062">
        <ele>153</ele>
        <time>2021-05-29T11:26:50.000Z</time>
      </trkpt>
      <trkpt lat="47.24027" lon="-1.13046">
        <ele>153</ele>
        <time>2021-05-29T11:26:54.000Z</time>
      </trkpt>
      <trkpt lat="47.24036" lon="-1.13041">
        <ele>153</ele>
        <time>2021-05-29T11:26:57.000Z</time>
      </trkpt>
      <trkpt lat="47.24044" lon="-1.13048">
        <ele>153</ele>
        <time>2021-05-29T11:26:59.000Z</time>
      </trkpt>
      <trkpt lat="47.24052" lon="-1.13059">
        <ele>153</ele>
        <time>2021-05-29T11:27:01.000Z</time>
      </trkpt>
      <trkpt lat="47.2406" lon="-1.1307">
        <ele>153</ele>
        <time>2021-05-29T11:27:03.000Z</time>
      </trkpt>
      <trkpt lat="47.24068" lon="-1.1308">
        <ele>153</ele>
        <time>2021-05-29T11:27:05.000Z</time>
      </trkpt>
      <trkpt lat="47.24076" lon="-1.13094">
        <ele>152</ele>
        <time>2021-05-29T11:27:07.000Z</time>
      </trkpt>
      <trkpt lat="47.24085" lon="-1.13104">
        <ele>152</ele>
        <time>2021-05-29T11:27:09.000Z</time>
      </trkpt>
      <trkpt lat="47.24093" lon="-1.13114">
        <ele>152</ele>
        <time>2021-05-29T11:27:11.000Z</time>
      </trkpt>
      <trkpt lat="47.24102" lon="-1.13125">
        <ele>152</ele>
        <time>2021-05-29T11:27:13.000Z</time>
      </trkpt>
      <trkpt lat="47.2411" lon="-1.13135">
        <ele>152</ele>
        <time>2021-05-29T11:27:15.000Z</time>
      </trkpt>
      <trkpt lat="47.24123" lon="-1.13151">
        <ele>152</ele>
        <time>2021-05-29T11:27:18.000Z</time>
      </trkpt>
      <trkpt lat="47.24131" lon="-1.13162">
        <ele>152</ele>
        <time>2021-05-29T11:27:20.000Z</time>
      </trkpt>
      <trkpt lat="47.24139" lon="-1.13173">
        <ele>152</ele>
        <time>2021-05-29T11:27:22.000Z</time>
      </trkpt>
      <trkpt lat="47.24148" lon="-1.13184">
        <ele>152</ele>
        <time>2021-05-29T11:27:24.000Z</time>
      </trkpt>
      <trkpt lat="47.24156" lon="-1.13194">
        <ele>151</ele>
        <time>2021-05-29T11:27:26.000Z</time>
      </trkpt>
      <trkpt lat="47.24168" lon="-1.13211">
        <ele>152</ele>
        <time>2021-05-29T11:27:29.000Z</time>
      </trkpt>
      <trkpt lat="47.24177" lon="-1.13222">
        <ele>152</ele>
        <time>2021-05-29T11:27:31.000Z</time>
      </trkpt>
      <trkpt lat="47.24186" lon="-1.13232">
        <ele>152</ele>
        <time>2021-05-29T11:27:33.000Z</time>
      </trkpt>
      <trkpt lat="47.24195" lon="-1.13242">
        <ele>152</ele>
        <time>2021-05-29T11:27:35.000Z</time>
      </trkpt>
      <trkpt lat="47.24204" lon="-1.13251">
        <ele>153</ele>
        <time>2021-05-29T11:27:37.000Z</time>
      </trkpt>
      <trkpt lat="47.24216" lon="-1.13249">
        <ele>153</ele>
        <time>2021-05-29T11:27:39.000Z</time>
      </trkpt>
      <trkpt lat="47.24228" lon="-1.13245">
        <ele>153</ele>
        <time>2021-05-29T11:27:41.000Z</time>
      </trkpt>
      <trkpt lat="47.24239" lon="-1.13242">
        <ele>152</ele>
        <time>2021-05-29T11:27:43.000Z</time>
      </trkpt>
      <trkpt lat="47.2425" lon="-1.13234">
        <ele>153</ele>
        <time>2021-05-29T11:27:45.000Z</time>
      </trkpt>
      <trkpt lat="47.24264" lon="-1.13224">
        <ele>153</ele>
        <time>2021-05-29T11:27:48.000Z</time>
      </trkpt>
      <trkpt lat="47.24274" lon="-1.13217">
        <ele>153</ele>
        <time>2021-05-29T11:27:50.000Z</time>
      </trkpt>
      <trkpt lat="47.24285" lon="-1.13211">
        <ele>153</ele>
        <time>2021-05-29T11:27:52.000Z</time>
      </trkpt>
      <trkpt lat="47.24302" lon="-1.13194">
        <ele>151</ele>
        <time>2021-05-29T11:27:55.000Z</time>
      </trkpt>
      <trkpt lat="47.24313" lon="-1.13188">
        <ele>150</ele>
        <time>2021-05-29T11:27:57.000Z</time>
      </trkpt>
      <trkpt lat="47.24323" lon="-1.13186">
        <ele>151</ele>
        <time>2021-05-29T11:27:59.000Z</time>
      </trkpt>
      <trkpt lat="47.24333" lon="-1.1318">
        <ele>152</ele>
        <time>2021-05-29T11:28:01.000Z</time>
      </trkpt>
      <trkpt lat="47.24343" lon="-1.13175">
        <ele>152</ele>
        <time>2021-05-29T11:28:03.000Z</time>
      </trkpt>
      <trkpt lat="47.24354" lon="-1.13169">
        <ele>152</ele>
        <time>2021-05-29T11:28:05.000Z</time>
      </trkpt>
      <trkpt lat="47.24364" lon="-1.13163">
        <ele>153</ele>
        <time>2021-05-29T11:28:07.000Z</time>
      </trkpt>
      <trkpt lat="47.24374" lon="-1.13157">
        <ele>153</ele>
        <time>2021-05-29T11:28:09.000Z</time>
      </trkpt>
      <trkpt lat="47.24384" lon="-1.13152">
        <ele>153</ele>
        <time>2021-05-29T11:28:11.000Z</time>
      </trkpt>
      <trkpt lat="47.24394" lon="-1.13146">
        <ele>153</ele>
        <time>2021-05-29T11:28:13.000Z</time>
      </trkpt>
      <trkpt lat="47.24405" lon="-1.1314">
        <ele>152</ele>
        <time>2021-05-29T11:28:15.000Z</time>
      </trkpt>
      <trkpt lat="47.24415" lon="-1.13134">
        <ele>152</ele>
        <time>2021-05-29T11:28:17.000Z</time>
      </trkpt>
      <trkpt lat="47.2443" lon="-1.13123">
        <ele>150</ele>
        <time>2021-05-29T11:28:20.000Z</time>
      </trkpt>
      <trkpt lat="47.24441" lon="-1.13117">
        <ele>147</ele>
        <time>2021-05-29T11:28:22.000Z</time>
      </trkpt>
      <trkpt lat="47.24458" lon="-1.1311">
        <ele>149</ele>
        <time>2021-05-29T11:28:25.000Z</time>
      </trkpt>
      <trkpt lat="47.24467" lon="-1.13104">
        <ele>150</ele>
        <time>2021-05-29T11:28:27.000Z</time>
      </trkpt>
      <trkpt lat="47.24476" lon="-1.13097">
        <ele>150</ele>
        <time>2021-05-29T11:28:29.000Z</time>
      </trkpt>
      <trkpt lat="47.24486" lon="-1.13089">
        <ele>151</ele>
        <time>2021-05-29T11:28:31.000Z</time>
      </trkpt>
      <trkpt lat="47.24503" lon="-1.13081">
        <ele>152</ele>
        <time>2021-05-29T11:28:34.000Z</time>
      </trkpt>
      <trkpt lat="47.24513" lon="-1.13075">
        <ele>152</ele>
        <time>2021-05-29T11:28:36.000Z</time>
      </trkpt>
      <trkpt lat="47.24523" lon="-1.13069">
        <ele>152</ele>
        <time>2021-05-29T11:28:38.000Z</time>
      </trkpt>
      <trkpt lat="47.24534" lon="-1.13064">
        <ele>152</ele>
        <time>2021-05-29T11:28:40.000Z</time>
      </trkpt>
      <trkpt lat="47.24545" lon="-1.13058">
        <ele>152</ele>
        <time>2021-05-29T11:28:42.000Z</time>
      </trkpt>
      <trkpt lat="47.24554" lon="-1.13052">
        <ele>152</ele>
        <time>2021-05-29T11:28:44.000Z</time>
      </trkpt>
      <trkpt lat="47.2457" lon="-1.13043">
        <ele>152</ele>
        <time>2021-05-29T11:28:47.000Z</time>
      </trkpt>
      <trkpt lat="47.24581" lon="-1.13037">
        <ele>152</ele>
        <time>2021-05-29T11:28:49.000Z</time>
      </trkpt>
      <trkpt lat="47.24592" lon="-1.13031">
        <ele>152</ele>
        <time>2021-05-29T11:28:51.000Z</time>
      </trkpt>
      <trkpt lat="47.24601" lon="-1.13022">
        <ele>152</ele>
        <time>2021-05-29T11:28:53.000Z</time>
      </trkpt>
      <trkpt lat="47.24613" lon="-1.13018">
        <ele>152</ele>
        <time>2021-05-29T11:28:55.000Z</time>
      </trkpt>
      <trkpt lat="47.24624" lon="-1.13012">
        <ele>152</ele>
        <time>2021-05-29T11:28:57.000Z</time>
      </trkpt>
      <trkpt lat="47.24635" lon="-1.13006">
        <ele>152</ele>
        <time>2021-05-29T11:28:59.000Z</time>
      </trkpt>
      <trkpt lat="47.24645" lon="-1.12999">
        <ele>152</ele>
        <time>2021-05-29T11:29:01.000Z</time>
      </trkpt>
      <trkpt lat="47.24657" lon="-1.12993">
        <ele>152</ele>
        <time>2021-05-29T11:29:03.000Z</time>
      </trkpt>
      <trkpt lat="47.24667" lon="-1.12987">
        <ele>152</ele>
        <time>2021-05-29T11:29:05.000Z</time>
      </trkpt>
      <trkpt lat="47.24678" lon="-1.1298">
        <ele>152</ele>
        <time>2021-05-29T11:29:07.000Z</time>
      </trkpt>
      <trkpt lat="47.24689" lon="-1.12974">
        <ele>152</ele>
        <time>2021-05-29T11:29:09.000Z</time>
      </trkpt>
      <trkpt lat="47.24701" lon="-1.12967">
        <ele>151</ele>
        <time>2021-05-29T11:29:11.000Z</time>
      </trkpt>
      <trkpt lat="47.24718" lon="-1.12963">
        <ele>151</ele>
        <time>2021-05-29T11:29:14.000Z</time>
      </trkpt>
      <trkpt lat="47.24729" lon="-1.12953">
        <ele>150</ele>
        <time>2021-05-29T11:29:16.000Z</time>
      </trkpt>
      <trkpt lat="47.24741" lon="-1.12948">
        <ele>149</ele>
        <time>2021-05-29T11:29:18.000Z</time>
      </trkpt>
      <trkpt lat="47.24752" lon="-1.12941">
        <ele>150</ele>
        <time>2021-05-29T11:29:20.000Z</time>
      </trkpt>
      <trkpt lat="47.24763" lon="-1.12934">
        <ele>150</ele>
        <time>2021-05-29T11:29:22.000Z</time>
      </trkpt>
      <trkpt lat="47.24786" lon="-1.1292">
        <ele>150</ele>
        <time>2021-05-29T11:29:26.000Z</time>
      </trkpt>
      <trkpt lat="47.24797" lon="-1.12914">
        <ele>150</ele>
        <time>2021-05-29T11:29:28.000Z</time>
      </trkpt>
      <trkpt lat="47.24808" lon="-1.12907">
        <ele>149</ele>
        <time>2021-05-29T11:29:30.000Z</time>
      </trkpt>
      <trkpt lat="47.24823" lon="-1.12899">
        <ele>150</ele>
        <time>2021-05-29T11:29:33.000Z</time>
      </trkpt>
      <trkpt lat="47.24835" lon="-1.12892">
        <ele>150</ele>
        <time>2021-05-29T11:29:35.000Z</time>
      </trkpt>
      <trkpt lat="47.24846" lon="-1.12886">
        <ele>150</ele>
        <time>2021-05-29T11:29:37.000Z</time>
      </trkpt>
      <trkpt lat="47.24862" lon="-1.12876">
        <ele>150</ele>
        <time>2021-05-29T11:29:40.000Z</time>
      </trkpt>
      <trkpt lat="47.24873" lon="-1.12869">
        <ele>150</ele>
        <time>2021-05-29T11:29:42.000Z</time>
      </trkpt>
      <trkpt lat="47.2488" lon="-1.1286">
        <ele>150</ele>
        <time>2021-05-29T11:29:44.000Z</time>
      </trkpt>
      <trkpt lat="47.24891" lon="-1.12853">
        <ele>150</ele>
        <time>2021-05-29T11:29:46.000Z</time>
      </trkpt>
      <trkpt lat="47.24903" lon="-1.12848">
        <ele>151</ele>
        <time>2021-05-29T11:29:48.000Z</time>
      </trkpt>
      <trkpt lat="47.24915" lon="-1.12843">
        <ele>151</ele>
        <time>2021-05-29T11:29:50.000Z</time>
      </trkpt>
      <trkpt lat="47.24926" lon="-1.12837">
        <ele>150</ele>
        <time>2021-05-29T11:29:52.000Z</time>
      </trkpt>
      <trkpt lat="47.24943" lon="-1.12827">
        <ele>150</ele>
        <time>2021-05-29T11:29:55.000Z</time>
      </trkpt>
      <trkpt lat="47.24953" lon="-1.12821">
        <ele>150</ele>
        <time>2021-05-29T11:29:57.000Z</time>
      </trkpt>
      <trkpt lat="47.24965" lon="-1.12816">
        <ele>150</ele>
        <time>2021-05-29T11:29:59.000Z</time>
      </trkpt>
      <trkpt lat="47.24982" lon="-1.1281">
        <ele>150</ele>
        <time>2021-05-29T11:30:02.000Z</time>
      </trkpt>
      <trkpt lat="47.24993" lon="-1.12806">
        <ele>149</ele>
        <time>2021-05-29T11:30:04.000Z</time>
      </trkpt>
      <trkpt lat="47.25004" lon="-1.12804">
        <ele>149</ele>
        <time>2021-05-29T11:30:06.000Z</time>
      </trkpt>
      <trkpt lat="47.25016" lon="-1.12804">
        <ele>149</ele>
        <time>2021-05-29T11:30:08.000Z</time>
      </trkpt>
      <trkpt lat="47.25027" lon="-1.12804">
        <ele>149</ele>
        <time>2021-05-29T11:30:10.000Z</time>
      </trkpt>
      <trkpt lat="47.25038" lon="-1.12804">
        <ele>148</ele>
        <time>2021-05-29T11:30:12.000Z</time>
      </trkpt>
      <trkpt lat="47.25049" lon="-1.12806">
        <ele>148</ele>
        <time>2021-05-29T11:30:14.000Z</time>
      </trkpt>
      <trkpt lat="47.25061" lon="-1.12808">
        <ele>147</ele>
        <time>2021-05-29T11:30:16.000Z</time>
      </trkpt>
      <trkpt lat="47.25072" lon="-1.1281">
        <ele>146</ele>
        <time>2021-05-29T11:30:18.000Z</time>
      </trkpt>
      <trkpt lat="47.25084" lon="-1.12811">
        <ele>146</ele>
        <time>2021-05-29T11:30:20.000Z</time>
      </trkpt>
      <trkpt lat="47.25097" lon="-1.12813">
        <ele>145</ele>
        <time>2021-05-29T11:30:22.000Z</time>
      </trkpt>
      <trkpt lat="47.25109" lon="-1.12815">
        <ele>144</ele>
        <time>2021-05-29T11:30:24.000Z</time>
      </trkpt>
      <trkpt lat="47.25121" lon="-1.12815">
        <ele>144</ele>
        <time>2021-05-29T11:30:26.000Z</time>
      </trkpt>
      <trkpt lat="47.25135" lon="-1.12818">
        <ele>144</ele>
        <time>2021-05-29T11:30:28.000Z</time>
      </trkpt>
      <trkpt lat="47.25154" lon="-1.12821">
        <ele>143</ele>
        <time>2021-05-29T11:30:31.000Z</time>
      </trkpt>
      <trkpt lat="47.25174" lon="-1.12824">
        <ele>142</ele>
        <time>2021-05-29T11:30:34.000Z</time>
      </trkpt>
      <trkpt lat="47.25186" lon="-1.12824">
        <ele>143</ele>
        <time>2021-05-29T11:30:36.000Z</time>
      </trkpt>
      <trkpt lat="47.25199" lon="-1.12826">
        <ele>142</ele>
        <time>2021-05-29T11:30:38.000Z</time>
      </trkpt>
      <trkpt lat="47.25212" lon="-1.12828">
        <ele>142</ele>
        <time>2021-05-29T11:30:40.000Z</time>
      </trkpt>
      <trkpt lat="47.25224" lon="-1.12829">
        <ele>142</ele>
        <time>2021-05-29T11:30:42.000Z</time>
      </trkpt>
      <trkpt lat="47.25237" lon="-1.12831">
        <ele>142</ele>
        <time>2021-05-29T11:30:44.000Z</time>
      </trkpt>
      <trkpt lat="47.2525" lon="-1.12833">
        <ele>142</ele>
        <time>2021-05-29T11:30:46.000Z</time>
      </trkpt>
      <trkpt lat="47.25262" lon="-1.12834">
        <ele>142</ele>
        <time>2021-05-29T11:30:48.000Z</time>
      </trkpt>
      <trkpt lat="47.25275" lon="-1.12836">
        <ele>143</ele>
        <time>2021-05-29T11:30:50.000Z</time>
      </trkpt>
      <trkpt lat="47.25288" lon="-1.12838">
        <ele>144</ele>
        <time>2021-05-29T11:30:52.000Z</time>
      </trkpt>
      <trkpt lat="47.253" lon="-1.1284">
        <ele>144</ele>
        <time>2021-05-29T11:30:54.000Z</time>
      </trkpt>
      <trkpt lat="47.2531" lon="-1.12841">
        <ele>145</ele>
        <time>2021-05-29T11:30:56.000Z</time>
      </trkpt>
      <trkpt lat="47.25321" lon="-1.12843">
        <ele>146</ele>
        <time>2021-05-29T11:30:58.000Z</time>
      </trkpt>
      <trkpt lat="47.25338" lon="-1.12842">
        <ele>146</ele>
        <time>2021-05-29T11:31:01.000Z</time>
      </trkpt>
      <trkpt lat="47.25349" lon="-1.12845">
        <ele>144</ele>
        <time>2021-05-29T11:31:03.000Z</time>
      </trkpt>
      <trkpt lat="47.2536" lon="-1.12848">
        <ele>143</ele>
        <time>2021-05-29T11:31:05.000Z</time>
      </trkpt>
      <trkpt lat="47.2537" lon="-1.12851">
        <ele>142</ele>
        <time>2021-05-29T11:31:07.000Z</time>
      </trkpt>
      <trkpt lat="47.25384" lon="-1.12854">
        <ele>143</ele>
        <time>2021-05-29T11:31:09.000Z</time>
      </trkpt>
      <trkpt lat="47.25395" lon="-1.12857">
        <ele>140</ele>
        <time>2021-05-29T11:31:12.000Z</time>
      </trkpt>
      <trkpt lat="47.25407" lon="-1.12858">
        <ele>140</ele>
        <time>2021-05-29T11:31:15.000Z</time>
      </trkpt>
      <trkpt lat="47.25423" lon="-1.12861">
        <ele>139</ele>
        <time>2021-05-29T11:31:18.000Z</time>
      </trkpt>
      <trkpt lat="47.25432" lon="-1.1286">
        <ele>142</ele>
        <time>2021-05-29T11:31:19.000Z</time>
      </trkpt>
      <trkpt lat="47.25445" lon="-1.12861">
        <ele>146</ele>
        <time>2021-05-29T11:31:21.000Z</time>
      </trkpt>
      <trkpt lat="47.25457" lon="-1.12862">
        <ele>148</ele>
        <time>2021-05-29T11:31:23.000Z</time>
      </trkpt>
      <trkpt lat="47.25469" lon="-1.12863">
        <ele>149</ele>
        <time>2021-05-29T11:31:25.000Z</time>
      </trkpt>
      <trkpt lat="47.2548" lon="-1.12864">
        <ele>149</ele>
        <time>2021-05-29T11:31:27.000Z</time>
      </trkpt>
      <trkpt lat="47.25495" lon="-1.12865">
        <ele>151</ele>
        <time>2021-05-29T11:31:30.000Z</time>
      </trkpt>
      <trkpt lat="47.25507" lon="-1.12867">
        <ele>151</ele>
        <time>2021-05-29T11:31:32.000Z</time>
      </trkpt>
      <trkpt lat="47.25517" lon="-1.12869">
        <ele>152</ele>
        <time>2021-05-29T11:31:34.000Z</time>
      </trkpt>
      <trkpt lat="47.25528" lon="-1.1287">
        <ele>153</ele>
        <time>2021-05-29T11:31:36.000Z</time>
      </trkpt>
      <trkpt lat="47.25539" lon="-1.12872">
        <ele>153</ele>
        <time>2021-05-29T11:31:38.000Z</time>
      </trkpt>
      <trkpt lat="47.2555" lon="-1.12874">
        <ele>153</ele>
        <time>2021-05-29T11:31:40.000Z</time>
      </trkpt>
      <trkpt lat="47.25561" lon="-1.12875">
        <ele>153</ele>
        <time>2021-05-29T11:31:42.000Z</time>
      </trkpt>
      <trkpt lat="47.25572" lon="-1.12877">
        <ele>152</ele>
        <time>2021-05-29T11:31:44.000Z</time>
      </trkpt>
      <trkpt lat="47.25583" lon="-1.12879">
        <ele>152</ele>
        <time>2021-05-29T11:31:46.000Z</time>
      </trkpt>
      <trkpt lat="47.25599" lon="-1.12879">
        <ele>152</ele>
        <time>2021-05-29T11:31:49.000Z</time>
      </trkpt>
      <trkpt lat="47.25609" lon="-1.1288">
        <ele>152</ele>
        <time>2021-05-29T11:31:51.000Z</time>
      </trkpt>
      <trkpt lat="47.25619" lon="-1.12881">
        <ele>151</ele>
        <time>2021-05-29T11:31:53.000Z</time>
      </trkpt>
      <trkpt lat="47.25629" lon="-1.1288">
        <ele>150</ele>
        <time>2021-05-29T11:31:56.000Z</time>
      </trkpt>
      <trkpt lat="47.2564" lon="-1.1288">
        <ele>153</ele>
        <time>2021-05-29T11:31:58.000Z</time>
      </trkpt>
      <trkpt lat="47.25654" lon="-1.12885">
        <ele>156</ele>
        <time>2021-05-29T11:32:00.000Z</time>
      </trkpt>
      <trkpt lat="47.25666" lon="-1.12889">
        <ele>156</ele>
        <time>2021-05-29T11:32:02.000Z</time>
      </trkpt>
      <trkpt lat="47.25678" lon="-1.1289">
        <ele>157</ele>
        <time>2021-05-29T11:32:04.000Z</time>
      </trkpt>
      <trkpt lat="47.2569" lon="-1.1289">
        <ele>156</ele>
        <time>2021-05-29T11:32:06.000Z</time>
      </trkpt>
      <trkpt lat="47.25708" lon="-1.12892">
        <ele>156</ele>
        <time>2021-05-29T11:32:09.000Z</time>
      </trkpt>
      <trkpt lat="47.2572" lon="-1.12895">
        <ele>156</ele>
        <time>2021-05-29T11:32:11.000Z</time>
      </trkpt>
      <trkpt lat="47.25732" lon="-1.12896">
        <ele>156</ele>
        <time>2021-05-29T11:32:13.000Z</time>
      </trkpt>
      <trkpt lat="47.25743" lon="-1.12897">
        <ele>156</ele>
        <time>2021-05-29T11:32:15.000Z</time>
      </trkpt>
      <trkpt lat="47.25755" lon="-1.12897">
        <ele>156</ele>
        <time>2021-05-29T11:32:17.000Z</time>
      </trkpt>
      <trkpt lat="47.25772" lon="-1.12898">
        <ele>156</ele>
        <time>2021-05-29T11:32:20.000Z</time>
      </trkpt>
      <trkpt lat="47.25783" lon="-1.12902">
        <ele>154</ele>
        <time>2021-05-29T11:32:22.000Z</time>
      </trkpt>
      <trkpt lat="47.25795" lon="-1.12905">
        <ele>154</ele>
        <time>2021-05-29T11:32:24.000Z</time>
      </trkpt>
      <trkpt lat="47.25808" lon="-1.12907">
        <ele>155</ele>
        <time>2021-05-29T11:32:26.000Z</time>
      </trkpt>
      <trkpt lat="47.2582" lon="-1.12908">
        <ele>155</ele>
        <time>2021-05-29T11:32:28.000Z</time>
      </trkpt>
      <trkpt lat="47.25832" lon="-1.12909">
        <ele>155</ele>
        <time>2021-05-29T11:32:30.000Z</time>
      </trkpt>
      <trkpt lat="47.25849" lon="-1.12911">
        <ele>156</ele>
        <time>2021-05-29T11:32:33.000Z</time>
      </trkpt>
      <trkpt lat="47.25861" lon="-1.12911">
        <ele>154</ele>
        <time>2021-05-29T11:32:35.000Z</time>
      </trkpt>
      <trkpt lat="47.25872" lon="-1.12913">
        <ele>153</ele>
        <time>2021-05-29T11:32:37.000Z</time>
      </trkpt>
      <trkpt lat="47.25882" lon="-1.12914">
        <ele>155</ele>
        <time>2021-05-29T11:32:39.000Z</time>
      </trkpt>
      <trkpt lat="47.25895" lon="-1.12918">
        <ele>155</ele>
        <time>2021-05-29T11:32:41.000Z</time>
      </trkpt>
      <trkpt lat="47.25908" lon="-1.1292">
        <ele>155</ele>
        <time>2021-05-29T11:32:43.000Z</time>
      </trkpt>
      <trkpt lat="47.25921" lon="-1.12922">
        <ele>155</ele>
        <time>2021-05-29T11:32:45.000Z</time>
      </trkpt>
      <trkpt lat="47.25935" lon="-1.12924">
        <ele>155</ele>
        <time>2021-05-29T11:32:47.000Z</time>
      </trkpt>
      <trkpt lat="47.25947" lon="-1.12927">
        <ele>154</ele>
        <time>2021-05-29T11:32:49.000Z</time>
      </trkpt>
      <trkpt lat="47.25959" lon="-1.12929">
        <ele>155</ele>
        <time>2021-05-29T11:32:51.000Z</time>
      </trkpt>
      <trkpt lat="47.25972" lon="-1.1293">
        <ele>154</ele>
        <time>2021-05-29T11:32:53.000Z</time>
      </trkpt>
      <trkpt lat="47.25989" lon="-1.12929">
        <ele>155</ele>
        <time>2021-05-29T11:32:56.000Z</time>
      </trkpt>
      <trkpt lat="47.26001" lon="-1.1293">
        <ele>155</ele>
        <time>2021-05-29T11:32:58.000Z</time>
      </trkpt>
      <trkpt lat="47.26013" lon="-1.12931">
        <ele>155</ele>
        <time>2021-05-29T11:33:00.000Z</time>
      </trkpt>
      <trkpt lat="47.26023" lon="-1.12932">
        <ele>153</ele>
        <time>2021-05-29T11:33:02.000Z</time>
      </trkpt>
      <trkpt lat="47.26035" lon="-1.12934">
        <ele>154</ele>
        <time>2021-05-29T11:33:04.000Z</time>
      </trkpt>
      <trkpt lat="47.26047" lon="-1.12936">
        <ele>156</ele>
        <time>2021-05-29T11:33:06.000Z</time>
      </trkpt>
      <trkpt lat="47.26058" lon="-1.12938">
        <ele>158</ele>
        <time>2021-05-29T11:33:08.000Z</time>
      </trkpt>
      <trkpt lat="47.2607" lon="-1.1294">
        <ele>158</ele>
        <time>2021-05-29T11:33:10.000Z</time>
      </trkpt>
      <trkpt lat="47.26082" lon="-1.12943">
        <ele>157</ele>
        <time>2021-05-29T11:33:12.000Z</time>
      </trkpt>
      <trkpt lat="47.26095" lon="-1.12944">
        <ele>156</ele>
        <time>2021-05-29T11:33:14.000Z</time>
      </trkpt>
      <trkpt lat="47.26112" lon="-1.12946">
        <ele>155</ele>
        <time>2021-05-29T11:33:17.000Z</time>
      </trkpt>
      <trkpt lat="47.26124" lon="-1.12948">
        <ele>154</ele>
        <time>2021-05-29T11:33:19.000Z</time>
      </trkpt>
      <trkpt lat="47.26135" lon="-1.12952">
        <ele>154</ele>
        <time>2021-05-29T11:33:21.000Z</time>
      </trkpt>
      <trkpt lat="47.26146" lon="-1.12953">
        <ele>154</ele>
        <time>2021-05-29T11:33:23.000Z</time>
      </trkpt>
      <trkpt lat="47.26157" lon="-1.12956">
        <ele>153</ele>
        <time>2021-05-29T11:33:25.000Z</time>
      </trkpt>
      <trkpt lat="47.26169" lon="-1.12956">
        <ele>153</ele>
        <time>2021-05-29T11:33:27.000Z</time>
      </trkpt>
      <trkpt lat="47.2618" lon="-1.1296">
        <ele>153</ele>
        <time>2021-05-29T11:33:29.000Z</time>
      </trkpt>
      <trkpt lat="47.26197" lon="-1.12962">
        <ele>152</ele>
        <time>2021-05-29T11:33:32.000Z</time>
      </trkpt>
      <trkpt lat="47.26208" lon="-1.12964">
        <ele>152</ele>
        <time>2021-05-29T11:33:34.000Z</time>
      </trkpt>
      <trkpt lat="47.26219" lon="-1.12966">
        <ele>152</ele>
        <time>2021-05-29T11:33:36.000Z</time>
      </trkpt>
      <trkpt lat="47.2623" lon="-1.12968">
        <ele>152</ele>
        <time>2021-05-29T11:33:38.000Z</time>
      </trkpt>
      <trkpt lat="47.26241" lon="-1.1297">
        <ele>152</ele>
        <time>2021-05-29T11:33:40.000Z</time>
      </trkpt>
      <trkpt lat="47.26251" lon="-1.12971">
        <ele>152</ele>
        <time>2021-05-29T11:33:42.000Z</time>
      </trkpt>
      <trkpt lat="47.26268" lon="-1.12974">
        <ele>150</ele>
        <time>2021-05-29T11:33:45.000Z</time>
      </trkpt>
      <trkpt lat="47.26279" lon="-1.12974">
        <ele>152</ele>
        <time>2021-05-29T11:33:47.000Z</time>
      </trkpt>
      <trkpt lat="47.26289" lon="-1.12974">
        <ele>153</ele>
        <time>2021-05-29T11:33:49.000Z</time>
      </trkpt>
      <trkpt lat="47.26306" lon="-1.12978">
        <ele>152</ele>
        <time>2021-05-29T11:33:52.000Z</time>
      </trkpt>
      <trkpt lat="47.2632" lon="-1.1298">
        <ele>150</ele>
        <time>2021-05-29T11:33:54.000Z</time>
      </trkpt>
      <trkpt lat="47.2633" lon="-1.1298">
        <ele>152</ele>
        <time>2021-05-29T11:33:56.000Z</time>
      </trkpt>
      <trkpt lat="47.26339" lon="-1.12981">
        <ele>153</ele>
        <time>2021-05-29T11:33:58.000Z</time>
      </trkpt>
      <trkpt lat="47.2635" lon="-1.12983">
        <ele>153</ele>
        <time>2021-05-29T11:34:00.000Z</time>
      </trkpt>
      <trkpt lat="47.26361" lon="-1.12985">
        <ele>153</ele>
        <time>2021-05-29T11:34:02.000Z</time>
      </trkpt>
      <trkpt lat="47.26372" lon="-1.12986">
        <ele>153</ele>
        <time>2021-05-29T11:34:04.000Z</time>
      </trkpt>
      <trkpt lat="47.26387" lon="-1.12988">
        <ele>153</ele>
        <time>2021-05-29T11:34:07.000Z</time>
      </trkpt>
      <trkpt lat="47.26398" lon="-1.1299">
        <ele>153</ele>
        <time>2021-05-29T11:34:09.000Z</time>
      </trkpt>
      <trkpt lat="47.26409" lon="-1.12994">
        <ele>152</ele>
        <time>2021-05-29T11:34:11.000Z</time>
      </trkpt>
      <trkpt lat="47.26419" lon="-1.12999">
        <ele>152</ele>
        <time>2021-05-29T11:34:13.000Z</time>
      </trkpt>
      <trkpt lat="47.2643" lon="-1.13003">
        <ele>152</ele>
        <time>2021-05-29T11:34:15.000Z</time>
      </trkpt>
      <trkpt lat="47.26447" lon="-1.13013">
        <ele>152</ele>
        <time>2021-05-29T11:34:18.000Z</time>
      </trkpt>
      <trkpt lat="47.26457" lon="-1.13016">
        <ele>152</ele>
        <time>2021-05-29T11:34:20.000Z</time>
      </trkpt>
      <trkpt lat="47.26469" lon="-1.13022">
        <ele>152</ele>
        <time>2021-05-29T11:34:22.000Z</time>
      </trkpt>
      <trkpt lat="47.26479" lon="-1.13028">
        <ele>152</ele>
        <time>2021-05-29T11:34:24.000Z</time>
      </trkpt>
      <trkpt lat="47.2649" lon="-1.13035">
        <ele>152</ele>
        <time>2021-05-29T11:34:26.000Z</time>
      </trkpt>
      <trkpt lat="47.26505" lon="-1.13043">
        <ele>151</ele>
        <time>2021-05-29T11:34:29.000Z</time>
      </trkpt>
      <trkpt lat="47.26516" lon="-1.13053">
        <ele>148</ele>
        <time>2021-05-29T11:34:31.000Z</time>
      </trkpt>
      <trkpt lat="47.26528" lon="-1.13058">
        <ele>148</ele>
        <time>2021-05-29T11:34:33.000Z</time>
      </trkpt>
      <trkpt lat="47.26538" lon="-1.13063">
        <ele>149</ele>
        <time>2021-05-29T11:34:35.000Z</time>
      </trkpt>
      <trkpt lat="47.26551" lon="-1.13069">
        <ele>149</ele>
        <time>2021-05-29T11:34:37.000Z</time>
      </trkpt>
      <trkpt lat="47.26562" lon="-1.13075">
        <ele>149</ele>
        <time>2021-05-29T11:34:39.000Z</time>
      </trkpt>
      <trkpt lat="47.26579" lon="-1.13084">
        <ele>149</ele>
        <time>2021-05-29T11:34:42.000Z</time>
      </trkpt>
      <trkpt lat="47.2659" lon="-1.13089">
        <ele>149</ele>
        <time>2021-05-29T11:34:44.000Z</time>
      </trkpt>
      <trkpt lat="47.26601" lon="-1.13095">
        <ele>149</ele>
        <time>2021-05-29T11:34:46.000Z</time>
      </trkpt>
      <trkpt lat="47.26613" lon="-1.13099">
        <ele>148</ele>
        <time>2021-05-29T11:34:48.000Z</time>
      </trkpt>
      <trkpt lat="47.26624" lon="-1.13103">
        <ele>148</ele>
        <time>2021-05-29T11:34:50.000Z</time>
      </trkpt>
      <trkpt lat="47.26636" lon="-1.13106">
        <ele>148</ele>
        <time>2021-05-29T11:34:52.000Z</time>
      </trkpt>
      <trkpt lat="47.26648" lon="-1.13109">
        <ele>148</ele>
        <time>2021-05-29T11:34:54.000Z</time>
      </trkpt>
      <trkpt lat="47.26659" lon="-1.1311">
        <ele>148</ele>
        <time>2021-05-29T11:34:56.000Z</time>
      </trkpt>
      <trkpt lat="47.26671" lon="-1.13111">
        <ele>147</ele>
        <time>2021-05-29T11:34:58.000Z</time>
      </trkpt>
      <trkpt lat="47.26689" lon="-1.13111">
        <ele>148</ele>
        <time>2021-05-29T11:35:01.000Z</time>
      </trkpt>
      <trkpt lat="47.267" lon="-1.13111">
        <ele>148</ele>
        <time>2021-05-29T11:35:03.000Z</time>
      </trkpt>
      <trkpt lat="47.26712" lon="-1.1311">
        <ele>148</ele>
        <time>2021-05-29T11:35:05.000Z</time>
      </trkpt>
      <trkpt lat="47.26723" lon="-1.13107">
        <ele>147</ele>
        <time>2021-05-29T11:35:07.000Z</time>
      </trkpt>
      <trkpt lat="47.26734" lon="-1.13105">
        <ele>148</ele>
        <time>2021-05-29T11:35:09.000Z</time>
      </trkpt>
      <trkpt lat="47.26746" lon="-1.13104">
        <ele>148</ele>
        <time>2021-05-29T11:35:11.000Z</time>
      </trkpt>
      <trkpt lat="47.26758" lon="-1.13104">
        <ele>147</ele>
        <time>2021-05-29T11:35:13.000Z</time>
      </trkpt>
      <trkpt lat="47.26769" lon="-1.13104">
        <ele>148</ele>
        <time>2021-05-29T11:35:15.000Z</time>
      </trkpt>
      <trkpt lat="47.26781" lon="-1.13108">
        <ele>149</ele>
        <time>2021-05-29T11:35:17.000Z</time>
      </trkpt>
      <trkpt lat="47.26793" lon="-1.13112">
        <ele>150</ele>
        <time>2021-05-29T11:35:19.000Z</time>
      </trkpt>
      <trkpt lat="47.26805" lon="-1.13116">
        <ele>150</ele>
        <time>2021-05-29T11:35:21.000Z</time>
      </trkpt>
      <trkpt lat="47.26816" lon="-1.13121">
        <ele>151</ele>
        <time>2021-05-29T11:35:23.000Z</time>
      </trkpt>
      <trkpt lat="47.26828" lon="-1.13125">
        <ele>151</ele>
        <time>2021-05-29T11:35:25.000Z</time>
      </trkpt>
      <trkpt lat="47.2684" lon="-1.1313">
        <ele>150</ele>
        <time>2021-05-29T11:35:27.000Z</time>
      </trkpt>
      <trkpt lat="47.26852" lon="-1.13133">
        <ele>150</ele>
        <time>2021-05-29T11:35:29.000Z</time>
      </trkpt>
      <trkpt lat="47.2687" lon="-1.13139">
        <ele>149</ele>
        <time>2021-05-29T11:35:32.000Z</time>
      </trkpt>
      <trkpt lat="47.26887" lon="-1.13144">
        <ele>149</ele>
        <time>2021-05-29T11:35:35.000Z</time>
      </trkpt>
      <trkpt lat="47.26899" lon="-1.13149">
        <ele>149</ele>
        <time>2021-05-29T11:35:37.000Z</time>
      </trkpt>
      <trkpt lat="47.26909" lon="-1.13153">
        <ele>147</ele>
        <time>2021-05-29T11:35:39.000Z</time>
      </trkpt>
      <trkpt lat="47.26921" lon="-1.13158">
        <ele>148</ele>
        <time>2021-05-29T11:35:41.000Z</time>
      </trkpt>
      <trkpt lat="47.26937" lon="-1.13164">
        <ele>148</ele>
        <time>2021-05-29T11:35:44.000Z</time>
      </trkpt>
      <trkpt lat="47.26949" lon="-1.13168">
        <ele>147</ele>
        <time>2021-05-29T11:35:46.000Z</time>
      </trkpt>
      <trkpt lat="47.26959" lon="-1.1317">
        <ele>147</ele>
        <time>2021-05-29T11:35:48.000Z</time>
      </trkpt>
      <trkpt lat="47.2697" lon="-1.13173">
        <ele>146</ele>
        <time>2021-05-29T11:35:50.000Z</time>
      </trkpt>
      <trkpt lat="47.26981" lon="-1.13174">
        <ele>146</ele>
        <time>2021-05-29T11:35:52.000Z</time>
      </trkpt>
      <trkpt lat="47.26993" lon="-1.13176">
        <ele>147</ele>
        <time>2021-05-29T11:35:54.000Z</time>
      </trkpt>
      <trkpt lat="47.27005" lon="-1.13176">
        <ele>147</ele>
        <time>2021-05-29T11:35:56.000Z</time>
      </trkpt>
      <trkpt lat="47.27016" lon="-1.13175">
        <ele>147</ele>
        <time>2021-05-29T11:35:58.000Z</time>
      </trkpt>
      <trkpt lat="47.27027" lon="-1.13174">
        <ele>147</ele>
        <time>2021-05-29T11:36:00.000Z</time>
      </trkpt>
      <trkpt lat="47.27038" lon="-1.13171">
        <ele>147</ele>
        <time>2021-05-29T11:36:02.000Z</time>
      </trkpt>
      <trkpt lat="47.27049" lon="-1.13168">
        <ele>147</ele>
        <time>2021-05-29T11:36:04.000Z</time>
      </trkpt>
      <trkpt lat="47.27058" lon="-1.13162">
        <ele>148</ele>
        <time>2021-05-29T11:36:06.000Z</time>
      </trkpt>
      <trkpt lat="47.27073" lon="-1.1315">
        <ele>148</ele>
        <time>2021-05-29T11:36:09.000Z</time>
      </trkpt>
      <trkpt lat="47.27082" lon="-1.13142">
        <ele>148</ele>
        <time>2021-05-29T11:36:11.000Z</time>
      </trkpt>
      <trkpt lat="47.2709" lon="-1.13132">
        <ele>149</ele>
        <time>2021-05-29T11:36:13.000Z</time>
      </trkpt>
      <trkpt lat="47.27098" lon="-1.13123">
        <ele>149</ele>
        <time>2021-05-29T11:36:15.000Z</time>
      </trkpt>
      <trkpt lat="47.27106" lon="-1.13114">
        <ele>149</ele>
        <time>2021-05-29T11:36:17.000Z</time>
      </trkpt>
      <trkpt lat="47.27119" lon="-1.13101">
        <ele>150</ele>
        <time>2021-05-29T11:36:20.000Z</time>
      </trkpt>
      <trkpt lat="47.27127" lon="-1.13092">
        <ele>151</ele>
        <time>2021-05-29T11:36:22.000Z</time>
      </trkpt>
      <trkpt lat="47.27135" lon="-1.13082">
        <ele>152</ele>
        <time>2021-05-29T11:36:24.000Z</time>
      </trkpt>
      <trkpt lat="47.27144" lon="-1.13073">
        <ele>152</ele>
        <time>2021-05-29T11:36:26.000Z</time>
      </trkpt>
      <trkpt lat="47.27153" lon="-1.13064">
        <ele>152</ele>
        <time>2021-05-29T11:36:28.000Z</time>
      </trkpt>
      <trkpt lat="47.27161" lon="-1.13054">
        <ele>152</ele>
        <time>2021-05-29T11:36:30.000Z</time>
      </trkpt>
      <trkpt lat="47.27169" lon="-1.13045">
        <ele>152</ele>
        <time>2021-05-29T11:36:32.000Z</time>
      </trkpt>
      <trkpt lat="47.27177" lon="-1.13036">
        <ele>152</ele>
        <time>2021-05-29T11:36:34.000Z</time>
      </trkpt>
      <trkpt lat="47.27186" lon="-1.13027">
        <ele>152</ele>
        <time>2021-05-29T11:36:36.000Z</time>
      </trkpt>
      <trkpt lat="47.27194" lon="-1.13018">
        <ele>151</ele>
        <time>2021-05-29T11:36:38.000Z</time>
      </trkpt>
      <trkpt lat="47.27203" lon="-1.13009">
        <ele>152</ele>
        <time>2021-05-29T11:36:40.000Z</time>
      </trkpt>
      <trkpt lat="47.27211" lon="-1.12999">
        <ele>152</ele>
        <time>2021-05-29T11:36:42.000Z</time>
      </trkpt>
      <trkpt lat="47.27219" lon="-1.12991">
        <ele>152</ele>
        <time>2021-05-29T11:36:44.000Z</time>
      </trkpt>
      <trkpt lat="47.27228" lon="-1.12981">
        <ele>152</ele>
        <time>2021-05-29T11:36:46.000Z</time>
      </trkpt>
      <trkpt lat="47.27236" lon="-1.12972">
        <ele>152</ele>
        <time>2021-05-29T11:36:48.000Z</time>
      </trkpt>
      <trkpt lat="47.27245" lon="-1.12962">
        <ele>152</ele>
        <time>2021-05-29T11:36:50.000Z</time>
      </trkpt>
      <trkpt lat="47.27254" lon="-1.12953">
        <ele>152</ele>
        <time>2021-05-29T11:36:52.000Z</time>
      </trkpt>
      <trkpt lat="47.27261" lon="-1.12945">
        <ele>152</ele>
        <time>2021-05-29T11:36:54.000Z</time>
      </trkpt>
      <trkpt lat="47.27273" lon="-1.12931">
        <ele>152</ele>
        <time>2021-05-29T11:36:57.000Z</time>
      </trkpt>
      <trkpt lat="47.27282" lon="-1.12923">
        <ele>152</ele>
        <time>2021-05-29T11:36:59.000Z</time>
      </trkpt>
      <trkpt lat="47.27291" lon="-1.12914">
        <ele>152</ele>
        <time>2021-05-29T11:37:01.000Z</time>
      </trkpt>
      <trkpt lat="47.27299" lon="-1.12906">
        <ele>152</ele>
        <time>2021-05-29T11:37:03.000Z</time>
      </trkpt>
      <trkpt lat="47.27312" lon="-1.12892">
        <ele>151</ele>
        <time>2021-05-29T11:37:06.000Z</time>
      </trkpt>
      <trkpt lat="47.2732" lon="-1.12883">
        <ele>151</ele>
        <time>2021-05-29T11:37:08.000Z</time>
      </trkpt>
      <trkpt lat="47.27333" lon="-1.12868">
        <ele>151</ele>
        <time>2021-05-29T11:37:11.000Z</time>
      </trkpt>
      <trkpt lat="47.27341" lon="-1.12858">
        <ele>151</ele>
        <time>2021-05-29T11:37:13.000Z</time>
      </trkpt>
      <trkpt lat="47.27351" lon="-1.12852">
        <ele>152</ele>
        <time>2021-05-29T11:37:15.000Z</time>
      </trkpt>
      <trkpt lat="47.27361" lon="-1.12846">
        <ele>151</ele>
        <time>2021-05-29T11:37:17.000Z</time>
      </trkpt>
      <trkpt lat="47.27372" lon="-1.12844">
        <ele>151</ele>
        <time>2021-05-29T11:37:19.000Z</time>
      </trkpt>
      <trkpt lat="47.27383" lon="-1.12847">
        <ele>150</ele>
        <time>2021-05-29T11:37:21.000Z</time>
      </trkpt>
      <trkpt lat="47.27401" lon="-1.12855">
        <ele>149</ele>
        <time>2021-05-29T11:37:24.000Z</time>
      </trkpt>
      <trkpt lat="47.27412" lon="-1.12863">
        <ele>149</ele>
        <time>2021-05-29T11:37:26.000Z</time>
      </trkpt>
      <trkpt lat="47.27424" lon="-1.12866">
        <ele>149</ele>
        <time>2021-05-29T11:37:28.000Z</time>
      </trkpt>
      <trkpt lat="47.27437" lon="-1.12872">
        <ele>148</ele>
        <time>2021-05-29T11:37:30.000Z</time>
      </trkpt>
      <trkpt lat="47.27449" lon="-1.12877">
        <ele>149</ele>
        <time>2021-05-29T11:37:32.000Z</time>
      </trkpt>
      <trkpt lat="47.27461" lon="-1.12881">
        <ele>149</ele>
        <time>2021-05-29T11:37:34.000Z</time>
      </trkpt>
      <trkpt lat="47.27473" lon="-1.12885">
        <ele>149</ele>
        <time>2021-05-29T11:37:36.000Z</time>
      </trkpt>
      <trkpt lat="47.27483" lon="-1.12889">
        <ele>149</ele>
        <time>2021-05-29T11:37:38.000Z</time>
      </trkpt>
      <trkpt lat="47.27494" lon="-1.12895">
        <ele>148</ele>
        <time>2021-05-29T11:37:40.000Z</time>
      </trkpt>
      <trkpt lat="47.27504" lon="-1.12899">
        <ele>149</ele>
        <time>2021-05-29T11:37:42.000Z</time>
      </trkpt>
      <trkpt lat="47.27515" lon="-1.12904">
        <ele>149</ele>
        <time>2021-05-29T11:37:44.000Z</time>
      </trkpt>
      <trkpt lat="47.27526" lon="-1.1291">
        <ele>149</ele>
        <time>2021-05-29T11:37:46.000Z</time>
      </trkpt>
      <trkpt lat="47.27537" lon="-1.12915">
        <ele>149</ele>
        <time>2021-05-29T11:37:48.000Z</time>
      </trkpt>
      <trkpt lat="47.27547" lon="-1.1292">
        <ele>149</ele>
        <time>2021-05-29T11:37:50.000Z</time>
      </trkpt>
      <trkpt lat="47.27558" lon="-1.12925">
        <ele>149</ele>
        <time>2021-05-29T11:37:52.000Z</time>
      </trkpt>
      <trkpt lat="47.27569" lon="-1.12929">
        <ele>150</ele>
        <time>2021-05-29T11:37:54.000Z</time>
      </trkpt>
      <trkpt lat="47.2758" lon="-1.12934">
        <ele>150</ele>
        <time>2021-05-29T11:37:56.000Z</time>
      </trkpt>
      <trkpt lat="47.27596" lon="-1.1294">
        <ele>149</ele>
        <time>2021-05-29T11:37:59.000Z</time>
      </trkpt>
      <trkpt lat="47.27607" lon="-1.12945">
        <ele>150</ele>
        <time>2021-05-29T11:38:01.000Z</time>
      </trkpt>
      <trkpt lat="47.27618" lon="-1.12951">
        <ele>150</ele>
        <time>2021-05-29T11:38:03.000Z</time>
      </trkpt>
      <trkpt lat="47.27629" lon="-1.12956">
        <ele>150</ele>
        <time>2021-05-29T11:38:05.000Z</time>
      </trkpt>
      <trkpt lat="47.2764" lon="-1.12961">
        <ele>150</ele>
        <time>2021-05-29T11:38:07.000Z</time>
      </trkpt>
      <trkpt lat="47.27651" lon="-1.12965">
        <ele>150</ele>
        <time>2021-05-29T11:38:09.000Z</time>
      </trkpt>
      <trkpt lat="47.27662" lon="-1.1297">
        <ele>150</ele>
        <time>2021-05-29T11:38:11.000Z</time>
      </trkpt>
      <trkpt lat="47.27678" lon="-1.12977">
        <ele>150</ele>
        <time>2021-05-29T11:38:14.000Z</time>
      </trkpt>
      <trkpt lat="47.2769" lon="-1.12982">
        <ele>151</ele>
        <time>2021-05-29T11:38:16.000Z</time>
      </trkpt>
      <trkpt lat="47.27699" lon="-1.12986">
        <ele>151</ele>
        <time>2021-05-29T11:38:18.000Z</time>
      </trkpt>
      <trkpt lat="47.27715" lon="-1.12993">
        <ele>150</ele>
        <time>2021-05-29T11:38:21.000Z</time>
      </trkpt>
      <trkpt lat="47.27725" lon="-1.12997">
        <ele>151</ele>
        <time>2021-05-29T11:38:23.000Z</time>
      </trkpt>
      <trkpt lat="47.27737" lon="-1.13004">
        <ele>150</ele>
        <time>2021-05-29T11:38:25.000Z</time>
      </trkpt>
      <trkpt lat="47.27747" lon="-1.13009">
        <ele>150</ele>
        <time>2021-05-29T11:38:27.000Z</time>
      </trkpt>
      <trkpt lat="47.27758" lon="-1.13014">
        <ele>150</ele>
        <time>2021-05-29T11:38:29.000Z</time>
      </trkpt>
      <trkpt lat="47.27769" lon="-1.13019">
        <ele>150</ele>
        <time>2021-05-29T11:38:31.000Z</time>
      </trkpt>
      <trkpt lat="47.2778" lon="-1.13024">
        <ele>150</ele>
        <time>2021-05-29T11:38:33.000Z</time>
      </trkpt>
      <trkpt lat="47.27791" lon="-1.13029">
        <ele>150</ele>
        <time>2021-05-29T11:38:35.000Z</time>
      </trkpt>
      <trkpt lat="47.27801" lon="-1.13034">
        <ele>150</ele>
        <time>2021-05-29T11:38:37.000Z</time>
      </trkpt>
      <trkpt lat="47.27813" lon="-1.13039">
        <ele>150</ele>
        <time>2021-05-29T11:38:39.000Z</time>
      </trkpt>
      <trkpt lat="47.27824" lon="-1.13044">
        <ele>150</ele>
        <time>2021-05-29T11:38:41.000Z</time>
      </trkpt>
      <trkpt lat="47.27835" lon="-1.1305">
        <ele>149</ele>
        <time>2021-05-29T11:38:43.000Z</time>
      </trkpt>
      <trkpt lat="47.27848" lon="-1.13056">
        <ele>150</ele>
        <time>2021-05-29T11:38:45.000Z</time>
      </trkpt>
      <trkpt lat="47.27858" lon="-1.1306">
        <ele>150</ele>
        <time>2021-05-29T11:38:47.000Z</time>
      </trkpt>
      <trkpt lat="47.27868" lon="-1.13065">
        <ele>150</ele>
        <time>2021-05-29T11:38:49.000Z</time>
      </trkpt>
      <trkpt lat="47.27879" lon="-1.1307">
        <ele>150</ele>
        <time>2021-05-29T11:38:51.000Z</time>
      </trkpt>
      <trkpt lat="47.2789" lon="-1.13075">
        <ele>150</ele>
        <time>2021-05-29T11:38:53.000Z</time>
      </trkpt>
      <trkpt lat="47.27901" lon="-1.1308">
        <ele>150</ele>
        <time>2021-05-29T11:38:55.000Z</time>
      </trkpt>
      <trkpt lat="47.27912" lon="-1.13085">
        <ele>150</ele>
        <time>2021-05-29T11:38:57.000Z</time>
      </trkpt>
      <trkpt lat="47.27922" lon="-1.1309">
        <ele>150</ele>
        <time>2021-05-29T11:38:59.000Z</time>
      </trkpt>
      <trkpt lat="47.27933" lon="-1.13094">
        <ele>150</ele>
        <time>2021-05-29T11:39:01.000Z</time>
      </trkpt>
      <trkpt lat="47.27945" lon="-1.131">
        <ele>151</ele>
        <time>2021-05-29T11:39:03.000Z</time>
      </trkpt>
      <trkpt lat="47.27962" lon="-1.13107">
        <ele>150</ele>
        <time>2021-05-29T11:39:06.000Z</time>
      </trkpt>
      <trkpt lat="47.27975" lon="-1.13112">
        <ele>149</ele>
        <time>2021-05-29T11:39:08.000Z</time>
      </trkpt>
      <trkpt lat="47.27986" lon="-1.13117">
        <ele>149</ele>
        <time>2021-05-29T11:39:10.000Z</time>
      </trkpt>
      <trkpt lat="47.28001" lon="-1.13124">
        <ele>150</ele>
        <time>2021-05-29T11:39:13.000Z</time>
      </trkpt>
      <trkpt lat="47.28012" lon="-1.13128">
        <ele>150</ele>
        <time>2021-05-29T11:39:15.000Z</time>
      </trkpt>
      <trkpt lat="47.28022" lon="-1.13133">
        <ele>150</ele>
        <time>2021-05-29T11:39:17.000Z</time>
      </trkpt>
      <trkpt lat="47.28033" lon="-1.13138">
        <ele>150</ele>
        <time>2021-05-29T11:39:19.000Z</time>
      </trkpt>
      <trkpt lat="47.28044" lon="-1.13143">
        <ele>150</ele>
        <time>2021-05-29T11:39:21.000Z</time>
      </trkpt>
      <trkpt lat="47.28056" lon="-1.13147">
        <ele>151</ele>
        <time>2021-05-29T11:39:23.000Z</time>
      </trkpt>
      <trkpt lat="47.28066" lon="-1.13153">
        <ele>150</ele>
        <time>2021-05-29T11:39:25.000Z</time>
      </trkpt>
      <trkpt lat="47.28077" lon="-1.13158">
        <ele>150</ele>
        <time>2021-05-29T11:39:27.000Z</time>
      </trkpt>
      <trkpt lat="47.28088" lon="-1.13164">
        <ele>150</ele>
        <time>2021-05-29T11:39:29.000Z</time>
      </trkpt>
      <trkpt lat="47.28099" lon="-1.13169">
        <ele>151</ele>
        <time>2021-05-29T11:39:31.000Z</time>
      </trkpt>
      <trkpt lat="47.2811" lon="-1.13174">
        <ele>151</ele>
        <time>2021-05-29T11:39:33.000Z</time>
      </trkpt>
      <trkpt lat="47.28122" lon="-1.13181">
        <ele>151</ele>
        <time>2021-05-29T11:39:35.000Z</time>
      </trkpt>
      <trkpt lat="47.28132" lon="-1.13185">
        <ele>150</ele>
        <time>2021-05-29T11:39:37.000Z</time>
      </trkpt>
      <trkpt lat="47.28141" lon="-1.1319">
        <ele>150</ele>
        <time>2021-05-29T11:39:39.000Z</time>
      </trkpt>
      <trkpt lat="47.28152" lon="-1.13195">
        <ele>150</ele>
        <time>2021-05-29T11:39:41.000Z</time>
      </trkpt>
      <trkpt lat="47.28162" lon="-1.13199">
        <ele>150</ele>
        <time>2021-05-29T11:39:43.000Z</time>
      </trkpt>
      <trkpt lat="47.28171" lon="-1.132">
        <ele>149</ele>
        <time>2021-05-29T11:39:45.000Z</time>
      </trkpt>
      <trkpt lat="47.2818" lon="-1.13201">
        <ele>150</ele>
        <time>2021-05-29T11:39:49.000Z</time>
      </trkpt>
      <trkpt lat="47.28193" lon="-1.13211">
        <ele>151</ele>
        <time>2021-05-29T11:39:53.000Z</time>
      </trkpt>
      <trkpt lat="47.28204" lon="-1.13219">
        <ele>152</ele>
        <time>2021-05-29T11:39:55.000Z</time>
      </trkpt>
      <trkpt lat="47.28215" lon="-1.13225">
        <ele>151</ele>
        <time>2021-05-29T11:39:57.000Z</time>
      </trkpt>
      <trkpt lat="47.28227" lon="-1.13229">
        <ele>151</ele>
        <time>2021-05-29T11:39:59.000Z</time>
      </trkpt>
      <trkpt lat="47.28239" lon="-1.13233">
        <ele>151</ele>
        <time>2021-05-29T11:40:01.000Z</time>
      </trkpt>
      <trkpt lat="47.2825" lon="-1.13236">
        <ele>151</ele>
        <time>2021-05-29T11:40:03.000Z</time>
      </trkpt>
      <trkpt lat="47.28262" lon="-1.13241">
        <ele>151</ele>
        <time>2021-05-29T11:40:05.000Z</time>
      </trkpt>
      <trkpt lat="47.2828" lon="-1.13248">
        <ele>150</ele>
        <time>2021-05-29T11:40:08.000Z</time>
      </trkpt>
      <trkpt lat="47.28292" lon="-1.13253">
        <ele>149</ele>
        <time>2021-05-29T11:40:10.000Z</time>
      </trkpt>
      <trkpt lat="47.28303" lon="-1.13258">
        <ele>149</ele>
        <time>2021-05-29T11:40:12.000Z</time>
      </trkpt>
      <trkpt lat="47.28315" lon="-1.13262">
        <ele>149</ele>
        <time>2021-05-29T11:40:14.000Z</time>
      </trkpt>
      <trkpt lat="47.28326" lon="-1.13266">
        <ele>149</ele>
        <time>2021-05-29T11:40:16.000Z</time>
      </trkpt>
      <trkpt lat="47.28343" lon="-1.13267">
        <ele>149</ele>
        <time>2021-05-29T11:40:19.000Z</time>
      </trkpt>
      <trkpt lat="47.28354" lon="-1.13275">
        <ele>150</ele>
        <time>2021-05-29T11:40:21.000Z</time>
      </trkpt>
      <trkpt lat="47.28365" lon="-1.13279">
        <ele>149</ele>
        <time>2021-05-29T11:40:23.000Z</time>
      </trkpt>
      <trkpt lat="47.28382" lon="-1.13285">
        <ele>148</ele>
        <time>2021-05-29T11:40:26.000Z</time>
      </trkpt>
      <trkpt lat="47.28393" lon="-1.13287">
        <ele>148</ele>
        <time>2021-05-29T11:40:28.000Z</time>
      </trkpt>
      <trkpt lat="47.28405" lon="-1.13292">
        <ele>149</ele>
        <time>2021-05-29T11:40:30.000Z</time>
      </trkpt>
      <trkpt lat="47.28416" lon="-1.13298">
        <ele>149</ele>
        <time>2021-05-29T11:40:32.000Z</time>
      </trkpt>
      <trkpt lat="47.28427" lon="-1.13302">
        <ele>150</ele>
        <time>2021-05-29T11:40:34.000Z</time>
      </trkpt>
      <trkpt lat="47.28438" lon="-1.13307">
        <ele>149</ele>
        <time>2021-05-29T11:40:36.000Z</time>
      </trkpt>
      <trkpt lat="47.28449" lon="-1.13312">
        <ele>149</ele>
        <time>2021-05-29T11:40:38.000Z</time>
      </trkpt>
      <trkpt lat="47.28458" lon="-1.13315">
        <ele>148</ele>
        <time>2021-05-29T11:40:40.000Z</time>
      </trkpt>
      <trkpt lat="47.2847" lon="-1.1332">
        <ele>149</ele>
        <time>2021-05-29T11:40:42.000Z</time>
      </trkpt>
      <trkpt lat="47.28481" lon="-1.13325">
        <ele>149</ele>
        <time>2021-05-29T11:40:44.000Z</time>
      </trkpt>
      <trkpt lat="47.2849" lon="-1.1333">
        <ele>149</ele>
        <time>2021-05-29T11:40:46.000Z</time>
      </trkpt>
      <trkpt lat="47.28503" lon="-1.13333">
        <ele>149</ele>
        <time>2021-05-29T11:40:48.000Z</time>
      </trkpt>
      <trkpt lat="47.28513" lon="-1.1334">
        <ele>149</ele>
        <time>2021-05-29T11:40:50.000Z</time>
      </trkpt>
      <trkpt lat="47.28524" lon="-1.13344">
        <ele>149</ele>
        <time>2021-05-29T11:40:52.000Z</time>
      </trkpt>
      <trkpt lat="47.28534" lon="-1.13351">
        <ele>149</ele>
        <time>2021-05-29T11:40:54.000Z</time>
      </trkpt>
      <trkpt lat="47.28544" lon="-1.13356">
        <ele>149</ele>
        <time>2021-05-29T11:40:56.000Z</time>
      </trkpt>
      <trkpt lat="47.28555" lon="-1.13363">
        <ele>149</ele>
        <time>2021-05-29T11:40:58.000Z</time>
      </trkpt>
      <trkpt lat="47.28566" lon="-1.13368">
        <ele>148</ele>
        <time>2021-05-29T11:41:00.000Z</time>
      </trkpt>
      <trkpt lat="47.28582" lon="-1.13374">
        <ele>148</ele>
        <time>2021-05-29T11:41:03.000Z</time>
      </trkpt>
      <trkpt lat="47.28593" lon="-1.13377">
        <ele>147</ele>
        <time>2021-05-29T11:41:05.000Z</time>
      </trkpt>
      <trkpt lat="47.28604" lon="-1.13381">
        <ele>145</ele>
        <time>2021-05-29T11:41:07.000Z</time>
      </trkpt>
      <trkpt lat="47.28615" lon="-1.13386">
        <ele>145</ele>
        <time>2021-05-29T11:41:09.000Z</time>
      </trkpt>
      <trkpt lat="47.28628" lon="-1.13389">
        <ele>145</ele>
        <time>2021-05-29T11:41:11.000Z</time>
      </trkpt>
      <trkpt lat="47.2864" lon="-1.13392">
        <ele>144</ele>
        <time>2021-05-29T11:41:13.000Z</time>
      </trkpt>
      <trkpt lat="47.28653" lon="-1.13395">
        <ele>144</ele>
        <time>2021-05-29T11:41:15.000Z</time>
      </trkpt>
      <trkpt lat="47.28666" lon="-1.134">
        <ele>141</ele>
        <time>2021-05-29T11:41:17.000Z</time>
      </trkpt>
      <trkpt lat="47.28678" lon="-1.13403">
        <ele>141</ele>
        <time>2021-05-29T11:41:19.000Z</time>
      </trkpt>
      <trkpt lat="47.2869" lon="-1.13406">
        <ele>141</ele>
        <time>2021-05-29T11:41:21.000Z</time>
      </trkpt>
      <trkpt lat="47.28702" lon="-1.13409">
        <ele>142</ele>
        <time>2021-05-29T11:41:23.000Z</time>
      </trkpt>
      <trkpt lat="47.28714" lon="-1.13412">
        <ele>142</ele>
        <time>2021-05-29T11:41:25.000Z</time>
      </trkpt>
      <trkpt lat="47.28725" lon="-1.13416">
        <ele>142</ele>
        <time>2021-05-29T11:41:27.000Z</time>
      </trkpt>
      <trkpt lat="47.28737" lon="-1.13419">
        <ele>142</ele>
        <time>2021-05-29T11:41:29.000Z</time>
      </trkpt>
      <trkpt lat="47.28748" lon="-1.13421">
        <ele>142</ele>
        <time>2021-05-29T11:41:31.000Z</time>
      </trkpt>
      <trkpt lat="47.28761" lon="-1.13425">
        <ele>142</ele>
        <time>2021-05-29T11:41:33.000Z</time>
      </trkpt>
      <trkpt lat="47.28777" lon="-1.13426">
        <ele>143</ele>
        <time>2021-05-29T11:41:36.000Z</time>
      </trkpt>
      <trkpt lat="47.28786" lon="-1.1343">
        <ele>144</ele>
        <time>2021-05-29T11:41:38.000Z</time>
      </trkpt>
      <trkpt lat="47.28795" lon="-1.13433">
        <ele>144</ele>
        <time>2021-05-29T11:41:40.000Z</time>
      </trkpt>
      <trkpt lat="47.28806" lon="-1.13435">
        <ele>145</ele>
        <time>2021-05-29T11:41:43.000Z</time>
      </trkpt>
      <trkpt lat="47.28809" lon="-1.13453">
        <ele>145</ele>
        <time>2021-05-29T11:41:46.000Z</time>
      </trkpt>
      <trkpt lat="47.28811" lon="-1.13468">
        <ele>144</ele>
        <time>2021-05-29T11:41:48.000Z</time>
      </trkpt>
      <trkpt lat="47.28817" lon="-1.13481">
        <ele>144</ele>
        <time>2021-05-29T11:41:50.000Z</time>
      </trkpt>
      <trkpt lat="47.28828" lon="-1.13485">
        <ele>144</ele>
        <time>2021-05-29T11:41:52.000Z</time>
      </trkpt>
      <trkpt lat="47.28839" lon="-1.13485">
        <ele>144</ele>
        <time>2021-05-29T11:41:54.000Z</time>
      </trkpt>
      <trkpt lat="47.28851" lon="-1.13487">
        <ele>144</ele>
        <time>2021-05-29T11:41:56.000Z</time>
      </trkpt>
      <trkpt lat="47.28863" lon="-1.13488">
        <ele>144</ele>
        <time>2021-05-29T11:41:58.000Z</time>
      </trkpt>
      <trkpt lat="47.28875" lon="-1.13491">
        <ele>144</ele>
        <time>2021-05-29T11:42:00.000Z</time>
      </trkpt>
      <trkpt lat="47.28886" lon="-1.13494">
        <ele>145</ele>
        <time>2021-05-29T11:42:02.000Z</time>
      </trkpt>
      <trkpt lat="47.28904" lon="-1.13501">
        <ele>142</ele>
        <time>2021-05-29T11:42:05.000Z</time>
      </trkpt>
      <trkpt lat="47.28913" lon="-1.13505">
        <ele>141</ele>
        <time>2021-05-29T11:42:07.000Z</time>
      </trkpt>
      <trkpt lat="47.28924" lon="-1.13509">
        <ele>142</ele>
        <time>2021-05-29T11:42:09.000Z</time>
      </trkpt>
      <trkpt lat="47.28936" lon="-1.13513">
        <ele>142</ele>
        <time>2021-05-29T11:42:11.000Z</time>
      </trkpt>
      <trkpt lat="47.28947" lon="-1.13517">
        <ele>142</ele>
        <time>2021-05-29T11:42:13.000Z</time>
      </trkpt>
      <trkpt lat="47.28959" lon="-1.13523">
        <ele>143</ele>
        <time>2021-05-29T11:42:15.000Z</time>
      </trkpt>
      <trkpt lat="47.28971" lon="-1.13528">
        <ele>141</ele>
        <time>2021-05-29T11:42:17.000Z</time>
      </trkpt>
      <trkpt lat="47.2898" lon="-1.13532">
        <ele>140</ele>
        <time>2021-05-29T11:42:19.000Z</time>
      </trkpt>
      <trkpt lat="47.28991" lon="-1.13538">
        <ele>140</ele>
        <time>2021-05-29T11:42:21.000Z</time>
      </trkpt>
      <trkpt lat="47.29001" lon="-1.13543">
        <ele>140</ele>
        <time>2021-05-29T11:42:23.000Z</time>
      </trkpt>
      <trkpt lat="47.29011" lon="-1.1355">
        <ele>140</ele>
        <time>2021-05-29T11:42:25.000Z</time>
      </trkpt>
      <trkpt lat="47.29021" lon="-1.13556">
        <ele>140</ele>
        <time>2021-05-29T11:42:27.000Z</time>
      </trkpt>
      <trkpt lat="47.29031" lon="-1.13563">
        <ele>141</ele>
        <time>2021-05-29T11:42:29.000Z</time>
      </trkpt>
      <trkpt lat="47.29042" lon="-1.13569">
        <ele>141</ele>
        <time>2021-05-29T11:42:31.000Z</time>
      </trkpt>
      <trkpt lat="47.29053" lon="-1.13572">
        <ele>142</ele>
        <time>2021-05-29T11:42:33.000Z</time>
      </trkpt>
      <trkpt lat="47.29064" lon="-1.13573">
        <ele>139</ele>
        <time>2021-05-29T11:42:35.000Z</time>
      </trkpt>
      <trkpt lat="47.29076" lon="-1.13573">
        <ele>139</ele>
        <time>2021-05-29T11:42:37.000Z</time>
      </trkpt>
      <trkpt lat="47.29084" lon="-1.13581">
        <ele>141</ele>
        <time>2021-05-29T11:42:39.000Z</time>
      </trkpt>
      <trkpt lat="47.2909" lon="-1.13595">
        <ele>141</ele>
        <time>2021-05-29T11:42:41.000Z</time>
      </trkpt>
      <trkpt lat="47.29097" lon="-1.13607">
        <ele>142</ele>
        <time>2021-05-29T11:42:43.000Z</time>
      </trkpt>
      <trkpt lat="47.29106" lon="-1.13616">
        <ele>142</ele>
        <time>2021-05-29T11:42:45.000Z</time>
      </trkpt>
      <trkpt lat="47.29115" lon="-1.13624">
        <ele>142</ele>
        <time>2021-05-29T11:42:47.000Z</time>
      </trkpt>
      <trkpt lat="47.29125" lon="-1.13632">
        <ele>143</ele>
        <time>2021-05-29T11:42:49.000Z</time>
      </trkpt>
      <trkpt lat="47.29135" lon="-1.13638">
        <ele>142</ele>
        <time>2021-05-29T11:42:51.000Z</time>
      </trkpt>
      <trkpt lat="47.29144" lon="-1.13646">
        <ele>143</ele>
        <time>2021-05-29T11:42:53.000Z</time>
      </trkpt>
      <trkpt lat="47.29154" lon="-1.13652">
        <ele>142</ele>
        <time>2021-05-29T11:42:55.000Z</time>
      </trkpt>
      <trkpt lat="47.29163" lon="-1.13659">
        <ele>142</ele>
        <time>2021-05-29T11:42:57.000Z</time>
      </trkpt>
      <trkpt lat="47.29178" lon="-1.13669">
        <ele>143</ele>
        <time>2021-05-29T11:43:00.000Z</time>
      </trkpt>
      <trkpt lat="47.29187" lon="-1.13676">
        <ele>144</ele>
        <time>2021-05-29T11:43:02.000Z</time>
      </trkpt>
      <trkpt lat="47.29198" lon="-1.13682">
        <ele>144</ele>
        <time>2021-05-29T11:43:04.000Z</time>
      </trkpt>
      <trkpt lat="47.29208" lon="-1.1369">
        <ele>145</ele>
        <time>2021-05-29T11:43:06.000Z</time>
      </trkpt>
      <trkpt lat="47.29217" lon="-1.13696">
        <ele>145</ele>
        <time>2021-05-29T11:43:08.000Z</time>
      </trkpt>
      <trkpt lat="47.29228" lon="-1.13703">
        <ele>145</ele>
        <time>2021-05-29T11:43:10.000Z</time>
      </trkpt>
      <trkpt lat="47.29238" lon="-1.13708">
        <ele>146</ele>
        <time>2021-05-29T11:43:12.000Z</time>
      </trkpt>
      <trkpt lat="47.29248" lon="-1.13713">
        <ele>146</ele>
        <time>2021-05-29T11:43:14.000Z</time>
      </trkpt>
      <trkpt lat="47.29257" lon="-1.13718">
        <ele>147</ele>
        <time>2021-05-29T11:43:16.000Z</time>
      </trkpt>
      <trkpt lat="47.29267" lon="-1.13722">
        <ele>146</ele>
        <time>2021-05-29T11:43:18.000Z</time>
      </trkpt>
      <trkpt lat="47.29277" lon="-1.13727">
        <ele>147</ele>
        <time>2021-05-29T11:43:20.000Z</time>
      </trkpt>
      <trkpt lat="47.29288" lon="-1.13731">
        <ele>146</ele>
        <time>2021-05-29T11:43:22.000Z</time>
      </trkpt>
      <trkpt lat="47.29298" lon="-1.13736">
        <ele>147</ele>
        <time>2021-05-29T11:43:24.000Z</time>
      </trkpt>
      <trkpt lat="47.29308" lon="-1.13741">
        <ele>147</ele>
        <time>2021-05-29T11:43:26.000Z</time>
      </trkpt>
      <trkpt lat="47.29318" lon="-1.13745">
        <ele>147</ele>
        <time>2021-05-29T11:43:28.000Z</time>
      </trkpt>
      <trkpt lat="47.29329" lon="-1.13749">
        <ele>147</ele>
        <time>2021-05-29T11:43:30.000Z</time>
      </trkpt>
      <trkpt lat="47.2934" lon="-1.13754">
        <ele>145</ele>
        <time>2021-05-29T11:43:32.000Z</time>
      </trkpt>
      <trkpt lat="47.29351" lon="-1.13756">
        <ele>146</ele>
        <time>2021-05-29T11:43:34.000Z</time>
      </trkpt>
      <trkpt lat="47.29362" lon="-1.13759">
        <ele>146</ele>
        <time>2021-05-29T11:43:36.000Z</time>
      </trkpt>
      <trkpt lat="47.29377" lon="-1.13762">
        <ele>147</ele>
        <time>2021-05-29T11:43:39.000Z</time>
      </trkpt>
      <trkpt lat="47.29389" lon="-1.13767">
        <ele>144</ele>
        <time>2021-05-29T11:43:41.000Z</time>
      </trkpt>
      <trkpt lat="47.29399" lon="-1.13768">
        <ele>143</ele>
        <time>2021-05-29T11:43:43.000Z</time>
      </trkpt>
      <trkpt lat="47.2941" lon="-1.13771">
        <ele>144</ele>
        <time>2021-05-29T11:43:45.000Z</time>
      </trkpt>
      <trkpt lat="47.29425" lon="-1.13772">
        <ele>146</ele>
        <time>2021-05-29T11:43:48.000Z</time>
      </trkpt>
      <trkpt lat="47.29438" lon="-1.13777">
        <ele>145</ele>
        <time>2021-05-29T11:43:51.000Z</time>
      </trkpt>
      <trkpt lat="47.2945" lon="-1.13776">
        <ele>146</ele>
        <time>2021-05-29T11:43:53.000Z</time>
      </trkpt>
      <trkpt lat="47.29463" lon="-1.13776">
        <ele>147</ele>
        <time>2021-05-29T11:43:55.000Z</time>
      </trkpt>
      <trkpt lat="47.29474" lon="-1.13775">
        <ele>146</ele>
        <time>2021-05-29T11:43:57.000Z</time>
      </trkpt>
      <trkpt lat="47.29485" lon="-1.13775">
        <ele>146</ele>
        <time>2021-05-29T11:43:59.000Z</time>
      </trkpt>
      <trkpt lat="47.29497" lon="-1.13776">
        <ele>146</ele>
        <time>2021-05-29T11:44:01.000Z</time>
      </trkpt>
      <trkpt lat="47.29509" lon="-1.13776">
        <ele>146</ele>
        <time>2021-05-29T11:44:03.000Z</time>
      </trkpt>
      <trkpt lat="47.2952" lon="-1.13777">
        <ele>146</ele>
        <time>2021-05-29T11:44:05.000Z</time>
      </trkpt>
      <trkpt lat="47.29532" lon="-1.13777">
        <ele>146</ele>
        <time>2021-05-29T11:44:07.000Z</time>
      </trkpt>
      <trkpt lat="47.29543" lon="-1.13779">
        <ele>146</ele>
        <time>2021-05-29T11:44:09.000Z</time>
      </trkpt>
      <trkpt lat="47.29555" lon="-1.1378">
        <ele>147</ele>
        <time>2021-05-29T11:44:11.000Z</time>
      </trkpt>
      <trkpt lat="47.29566" lon="-1.13781">
        <ele>146</ele>
        <time>2021-05-29T11:44:13.000Z</time>
      </trkpt>
      <trkpt lat="47.29577" lon="-1.13781">
        <ele>146</ele>
        <time>2021-05-29T11:44:15.000Z</time>
      </trkpt>
      <trkpt lat="47.29589" lon="-1.13783">
        <ele>145</ele>
        <time>2021-05-29T11:44:17.000Z</time>
      </trkpt>
      <trkpt lat="47.29607" lon="-1.13783">
        <ele>146</ele>
        <time>2021-05-29T11:44:20.000Z</time>
      </trkpt>
      <trkpt lat="47.29618" lon="-1.13783">
        <ele>146</ele>
        <time>2021-05-29T11:44:22.000Z</time>
      </trkpt>
      <trkpt lat="47.2963" lon="-1.13784">
        <ele>146</ele>
        <time>2021-05-29T11:44:24.000Z</time>
      </trkpt>
      <trkpt lat="47.29641" lon="-1.13785">
        <ele>147</ele>
        <time>2021-05-29T11:44:26.000Z</time>
      </trkpt>
      <trkpt lat="47.29653" lon="-1.13787">
        <ele>146</ele>
        <time>2021-05-29T11:44:28.000Z</time>
      </trkpt>
      <trkpt lat="47.29665" lon="-1.1379">
        <ele>146</ele>
        <time>2021-05-29T11:44:30.000Z</time>
      </trkpt>
      <trkpt lat="47.29682" lon="-1.13794">
        <ele>146</ele>
        <time>2021-05-29T11:44:33.000Z</time>
      </trkpt>
      <trkpt lat="47.29694" lon="-1.13797">
        <ele>147</ele>
        <time>2021-05-29T11:44:35.000Z</time>
      </trkpt>
      <trkpt lat="47.29705" lon="-1.138">
        <ele>147</ele>
        <time>2021-05-29T11:44:37.000Z</time>
      </trkpt>
      <trkpt lat="47.29717" lon="-1.13804">
        <ele>147</ele>
        <time>2021-05-29T11:44:39.000Z</time>
      </trkpt>
      <trkpt lat="47.29734" lon="-1.13811">
        <ele>146</ele>
        <time>2021-05-29T11:44:42.000Z</time>
      </trkpt>
      <trkpt lat="47.29745" lon="-1.13816">
        <ele>146</ele>
        <time>2021-05-29T11:44:44.000Z</time>
      </trkpt>
      <trkpt lat="47.29755" lon="-1.13822">
        <ele>146</ele>
        <time>2021-05-29T11:44:46.000Z</time>
      </trkpt>
      <trkpt lat="47.29767" lon="-1.13829">
        <ele>145</ele>
        <time>2021-05-29T11:44:48.000Z</time>
      </trkpt>
      <trkpt lat="47.29779" lon="-1.13835">
        <ele>144</ele>
        <time>2021-05-29T11:44:50.000Z</time>
      </trkpt>
      <trkpt lat="47.29789" lon="-1.13839">
        <ele>144</ele>
        <time>2021-05-29T11:44:52.000Z</time>
      </trkpt>
      <trkpt lat="47.298" lon="-1.13845">
        <ele>144</ele>
        <time>2021-05-29T11:44:54.000Z</time>
      </trkpt>
      <trkpt lat="47.29811" lon="-1.13854">
        <ele>143</ele>
        <time>2021-05-29T11:44:56.000Z</time>
      </trkpt>
      <trkpt lat="47.29822" lon="-1.13862">
        <ele>144</ele>
        <time>2021-05-29T11:44:58.000Z</time>
      </trkpt>
      <trkpt lat="47.29832" lon="-1.13871">
        <ele>144</ele>
        <time>2021-05-29T11:45:00.000Z</time>
      </trkpt>
      <trkpt lat="47.29842" lon="-1.13879">
        <ele>144</ele>
        <time>2021-05-29T11:45:02.000Z</time>
      </trkpt>
      <trkpt lat="47.29852" lon="-1.13889">
        <ele>144</ele>
        <time>2021-05-29T11:45:04.000Z</time>
      </trkpt>
      <trkpt lat="47.29867" lon="-1.13903">
        <ele>144</ele>
        <time>2021-05-29T11:45:07.000Z</time>
      </trkpt>
      <trkpt lat="47.29877" lon="-1.13912">
        <ele>144</ele>
        <time>2021-05-29T11:45:09.000Z</time>
      </trkpt>
      <trkpt lat="47.29887" lon="-1.13923">
        <ele>142</ele>
        <time>2021-05-29T11:45:11.000Z</time>
      </trkpt>
      <trkpt lat="47.29897" lon="-1.13933">
        <ele>141</ele>
        <time>2021-05-29T11:45:13.000Z</time>
      </trkpt>
      <trkpt lat="47.29906" lon="-1.13943">
        <ele>142</ele>
        <time>2021-05-29T11:45:15.000Z</time>
      </trkpt>
      <trkpt lat="47.29916" lon="-1.13952">
        <ele>142</ele>
        <time>2021-05-29T11:45:17.000Z</time>
      </trkpt>
      <trkpt lat="47.2993" lon="-1.13968">
        <ele>143</ele>
        <time>2021-05-29T11:45:20.000Z</time>
      </trkpt>
      <trkpt lat="47.29939" lon="-1.13978">
        <ele>143</ele>
        <time>2021-05-29T11:45:22.000Z</time>
      </trkpt>
      <trkpt lat="47.29953" lon="-1.13995">
        <ele>142</ele>
        <time>2021-05-29T11:45:25.000Z</time>
      </trkpt>
      <trkpt lat="47.29959" lon="-1.14009">
        <ele>141</ele>
        <time>2021-05-29T11:45:27.000Z</time>
      </trkpt>
      <trkpt lat="47.29969" lon="-1.14017">
        <ele>143</ele>
        <time>2021-05-29T11:45:29.000Z</time>
      </trkpt>
      <trkpt lat="47.29981" lon="-1.14027">
        <ele>143</ele>
        <time>2021-05-29T11:45:31.000Z</time>
      </trkpt>
      <trkpt lat="47.2999" lon="-1.14038">
        <ele>143</ele>
        <time>2021-05-29T11:45:33.000Z</time>
      </trkpt>
      <trkpt lat="47.29999" lon="-1.1405">
        <ele>142</ele>
        <time>2021-05-29T11:45:35.000Z</time>
      </trkpt>
      <trkpt lat="47.30009" lon="-1.1406">
        <ele>143</ele>
        <time>2021-05-29T11:45:37.000Z</time>
      </trkpt>
      <trkpt lat="47.30022" lon="-1.14077">
        <ele>143</ele>
        <time>2021-05-29T11:45:40.000Z</time>
      </trkpt>
      <trkpt lat="47.30031" lon="-1.14088">
        <ele>144</ele>
        <time>2021-05-29T11:45:42.000Z</time>
      </trkpt>
      <trkpt lat="47.30039" lon="-1.141">
        <ele>143</ele>
        <time>2021-05-29T11:45:44.000Z</time>
      </trkpt>
      <trkpt lat="47.30047" lon="-1.14113">
        <ele>143</ele>
        <time>2021-05-29T11:45:46.000Z</time>
      </trkpt>
      <trkpt lat="47.30055" lon="-1.14125">
        <ele>144</ele>
        <time>2021-05-29T11:45:48.000Z</time>
      </trkpt>
      <trkpt lat="47.30068" lon="-1.14142">
        <ele>144</ele>
        <time>2021-05-29T11:45:51.000Z</time>
      </trkpt>
      <trkpt lat="47.30075" lon="-1.14154">
        <ele>144</ele>
        <time>2021-05-29T11:45:53.000Z</time>
      </trkpt>
      <trkpt lat="47.30083" lon="-1.14167">
        <ele>144</ele>
        <time>2021-05-29T11:45:55.000Z</time>
      </trkpt>
      <trkpt lat="47.3009" lon="-1.1418">
        <ele>144</ele>
        <time>2021-05-29T11:45:57.000Z</time>
      </trkpt>
      <trkpt lat="47.30098" lon="-1.14193">
        <ele>145</ele>
        <time>2021-05-29T11:45:59.000Z</time>
      </trkpt>
      <trkpt lat="47.30106" lon="-1.14206">
        <ele>145</ele>
        <time>2021-05-29T11:46:01.000Z</time>
      </trkpt>
      <trkpt lat="47.30113" lon="-1.14218">
        <ele>145</ele>
        <time>2021-05-29T11:46:03.000Z</time>
      </trkpt>
      <trkpt lat="47.30119" lon="-1.1423">
        <ele>145</ele>
        <time>2021-05-29T11:46:05.000Z</time>
      </trkpt>
      <trkpt lat="47.30127" lon="-1.14242">
        <ele>146</ele>
        <time>2021-05-29T11:46:07.000Z</time>
      </trkpt>
      <trkpt lat="47.30134" lon="-1.14254">
        <ele>146</ele>
        <time>2021-05-29T11:46:09.000Z</time>
      </trkpt>
      <trkpt lat="47.30142" lon="-1.14268">
        <ele>146</ele>
        <time>2021-05-29T11:46:11.000Z</time>
      </trkpt>
      <trkpt lat="47.30151" lon="-1.14291">
        <ele>145</ele>
        <time>2021-05-29T11:46:14.000Z</time>
      </trkpt>
      <trkpt lat="47.30157" lon="-1.14305">
        <ele>145</ele>
        <time>2021-05-29T11:46:16.000Z</time>
      </trkpt>
      <trkpt lat="47.30165" lon="-1.14315">
        <ele>144</ele>
        <time>2021-05-29T11:46:18.000Z</time>
      </trkpt>
      <trkpt lat="47.30174" lon="-1.14326">
        <ele>145</ele>
        <time>2021-05-29T11:46:20.000Z</time>
      </trkpt>
      <trkpt lat="47.30181" lon="-1.14338">
        <ele>145</ele>
        <time>2021-05-29T11:46:22.000Z</time>
      </trkpt>
      <trkpt lat="47.30189" lon="-1.1435">
        <ele>146</ele>
        <time>2021-05-29T11:46:24.000Z</time>
      </trkpt>
      <trkpt lat="47.302" lon="-1.14369">
        <ele>146</ele>
        <time>2021-05-29T11:46:27.000Z</time>
      </trkpt>
      <trkpt lat="47.30208" lon="-1.1438">
        <ele>147</ele>
        <time>2021-05-29T11:46:29.000Z</time>
      </trkpt>
      <trkpt lat="47.30215" lon="-1.14394">
        <ele>147</ele>
        <time>2021-05-29T11:46:31.000Z</time>
      </trkpt>
      <trkpt lat="47.30223" lon="-1.14406">
        <ele>147</ele>
        <time>2021-05-29T11:46:33.000Z</time>
      </trkpt>
      <trkpt lat="47.30231" lon="-1.14419">
        <ele>147</ele>
        <time>2021-05-29T11:46:35.000Z</time>
      </trkpt>
      <trkpt lat="47.30242" lon="-1.14437">
        <ele>147</ele>
        <time>2021-05-29T11:46:38.000Z</time>
      </trkpt>
      <trkpt lat="47.3025" lon="-1.1445">
        <ele>146</ele>
        <time>2021-05-29T11:46:40.000Z</time>
      </trkpt>
      <trkpt lat="47.3026" lon="-1.14463">
        <ele>146</ele>
        <time>2021-05-29T11:46:42.000Z</time>
      </trkpt>
      <trkpt lat="47.30269" lon="-1.14476">
        <ele>146</ele>
        <time>2021-05-29T11:46:44.000Z</time>
      </trkpt>
      <trkpt lat="47.30282" lon="-1.14494">
        <ele>146</ele>
        <time>2021-05-29T11:46:47.000Z</time>
      </trkpt>
      <trkpt lat="47.30291" lon="-1.14506">
        <ele>144</ele>
        <time>2021-05-29T11:46:49.000Z</time>
      </trkpt>
      <trkpt lat="47.30301" lon="-1.14519">
        <ele>143</ele>
        <time>2021-05-29T11:46:51.000Z</time>
      </trkpt>
      <trkpt lat="47.30314" lon="-1.14537">
        <ele>144</ele>
        <time>2021-05-29T11:46:54.000Z</time>
      </trkpt>
      <trkpt lat="47.30323" lon="-1.14548">
        <ele>143</ele>
        <time>2021-05-29T11:46:56.000Z</time>
      </trkpt>
      <trkpt lat="47.30333" lon="-1.1456">
        <ele>143</ele>
        <time>2021-05-29T11:46:58.000Z</time>
      </trkpt>
      <trkpt lat="47.30342" lon="-1.14572">
        <ele>144</ele>
        <time>2021-05-29T11:47:00.000Z</time>
      </trkpt>
      <trkpt lat="47.30351" lon="-1.14585">
        <ele>143</ele>
        <time>2021-05-29T11:47:02.000Z</time>
      </trkpt>
      <trkpt lat="47.3036" lon="-1.14596">
        <ele>143</ele>
        <time>2021-05-29T11:47:04.000Z</time>
      </trkpt>
      <trkpt lat="47.30374" lon="-1.14614">
        <ele>143</ele>
        <time>2021-05-29T11:47:07.000Z</time>
      </trkpt>
      <trkpt lat="47.30383" lon="-1.14625">
        <ele>143</ele>
        <time>2021-05-29T11:47:09.000Z</time>
      </trkpt>
      <trkpt lat="47.30392" lon="-1.14637">
        <ele>143</ele>
        <time>2021-05-29T11:47:11.000Z</time>
      </trkpt>
      <trkpt lat="47.30405" lon="-1.14655">
        <ele>142</ele>
        <time>2021-05-29T11:47:14.000Z</time>
      </trkpt>
      <trkpt lat="47.30414" lon="-1.14666">
        <ele>143</ele>
        <time>2021-05-29T11:47:16.000Z</time>
      </trkpt>
      <trkpt lat="47.30422" lon="-1.14678">
        <ele>143</ele>
        <time>2021-05-29T11:47:18.000Z</time>
      </trkpt>
      <trkpt lat="47.30431" lon="-1.14688">
        <ele>143</ele>
        <time>2021-05-29T11:47:20.000Z</time>
      </trkpt>
      <trkpt lat="47.30444" lon="-1.14707">
        <ele>143</ele>
        <time>2021-05-29T11:47:23.000Z</time>
      </trkpt>
      <trkpt lat="47.30453" lon="-1.14717">
        <ele>143</ele>
        <time>2021-05-29T11:47:25.000Z</time>
      </trkpt>
      <trkpt lat="47.30461" lon="-1.14729">
        <ele>143</ele>
        <time>2021-05-29T11:47:27.000Z</time>
      </trkpt>
      <trkpt lat="47.30474" lon="-1.14745">
        <ele>143</ele>
        <time>2021-05-29T11:47:30.000Z</time>
      </trkpt>
      <trkpt lat="47.30483" lon="-1.14758">
        <ele>140</ele>
        <time>2021-05-29T11:47:32.000Z</time>
      </trkpt>
      <trkpt lat="47.30492" lon="-1.1477">
        <ele>140</ele>
        <time>2021-05-29T11:47:34.000Z</time>
      </trkpt>
      <trkpt lat="47.305" lon="-1.1478">
        <ele>142</ele>
        <time>2021-05-29T11:47:36.000Z</time>
      </trkpt>
      <trkpt lat="47.30508" lon="-1.1479">
        <ele>142</ele>
        <time>2021-05-29T11:47:38.000Z</time>
      </trkpt>
      <trkpt lat="47.30516" lon="-1.14801">
        <ele>142</ele>
        <time>2021-05-29T11:47:40.000Z</time>
      </trkpt>
      <trkpt lat="47.3053" lon="-1.14818">
        <ele>142</ele>
        <time>2021-05-29T11:47:43.000Z</time>
      </trkpt>
      <trkpt lat="47.30537" lon="-1.14828">
        <ele>142</ele>
        <time>2021-05-29T11:47:45.000Z</time>
      </trkpt>
      <trkpt lat="47.30546" lon="-1.14838">
        <ele>143</ele>
        <time>2021-05-29T11:47:47.000Z</time>
      </trkpt>
      <trkpt lat="47.30554" lon="-1.14849">
        <ele>143</ele>
        <time>2021-05-29T11:47:49.000Z</time>
      </trkpt>
      <trkpt lat="47.30563" lon="-1.14859">
        <ele>143</ele>
        <time>2021-05-29T11:47:51.000Z</time>
      </trkpt>
      <trkpt lat="47.30571" lon="-1.1487">
        <ele>144</ele>
        <time>2021-05-29T11:47:53.000Z</time>
      </trkpt>
      <trkpt lat="47.3058" lon="-1.14881">
        <ele>143</ele>
        <time>2021-05-29T11:47:55.000Z</time>
      </trkpt>
      <trkpt lat="47.3059" lon="-1.14892">
        <ele>143</ele>
        <time>2021-05-29T11:47:57.000Z</time>
      </trkpt>
      <trkpt lat="47.30599" lon="-1.14903">
        <ele>143</ele>
        <time>2021-05-29T11:47:59.000Z</time>
      </trkpt>
      <trkpt lat="47.30608" lon="-1.14915">
        <ele>142</ele>
        <time>2021-05-29T11:48:01.000Z</time>
      </trkpt>
      <trkpt lat="47.30618" lon="-1.14928">
        <ele>142</ele>
        <time>2021-05-29T11:48:03.000Z</time>
      </trkpt>
      <trkpt lat="47.30629" lon="-1.14939">
        <ele>143</ele>
        <time>2021-05-29T11:48:05.000Z</time>
      </trkpt>
      <trkpt lat="47.30638" lon="-1.14951">
        <ele>143</ele>
        <time>2021-05-29T11:48:07.000Z</time>
      </trkpt>
      <trkpt lat="47.3065" lon="-1.14963">
        <ele>142</ele>
        <time>2021-05-29T11:48:09.000Z</time>
      </trkpt>
      <trkpt lat="47.3066" lon="-1.14975">
        <ele>142</ele>
        <time>2021-05-29T11:48:11.000Z</time>
      </trkpt>
      <trkpt lat="47.30671" lon="-1.14987">
        <ele>142</ele>
        <time>2021-05-29T11:48:13.000Z</time>
      </trkpt>
      <trkpt lat="47.30682" lon="-1.14999">
        <ele>142</ele>
        <time>2021-05-29T11:48:15.000Z</time>
      </trkpt>
      <trkpt lat="47.30692" lon="-1.15011">
        <ele>142</ele>
        <time>2021-05-29T11:48:17.000Z</time>
      </trkpt>
      <trkpt lat="47.30703" lon="-1.15024">
        <ele>142</ele>
        <time>2021-05-29T11:48:19.000Z</time>
      </trkpt>
      <trkpt lat="47.30714" lon="-1.15034">
        <ele>142</ele>
        <time>2021-05-29T11:48:21.000Z</time>
      </trkpt>
      <trkpt lat="47.30724" lon="-1.15047">
        <ele>142</ele>
        <time>2021-05-29T11:48:23.000Z</time>
      </trkpt>
      <trkpt lat="47.30733" lon="-1.15059">
        <ele>142</ele>
        <time>2021-05-29T11:48:25.000Z</time>
      </trkpt>
      <trkpt lat="47.30743" lon="-1.15072">
        <ele>141</ele>
        <time>2021-05-29T11:48:27.000Z</time>
      </trkpt>
      <trkpt lat="47.30752" lon="-1.15085">
        <ele>141</ele>
        <time>2021-05-29T11:48:29.000Z</time>
      </trkpt>
      <trkpt lat="47.30762" lon="-1.15098">
        <ele>141</ele>
        <time>2021-05-29T11:48:31.000Z</time>
      </trkpt>
      <trkpt lat="47.30771" lon="-1.1511">
        <ele>141</ele>
        <time>2021-05-29T11:48:33.000Z</time>
      </trkpt>
      <trkpt lat="47.30781" lon="-1.15123">
        <ele>141</ele>
        <time>2021-05-29T11:48:35.000Z</time>
      </trkpt>
      <trkpt lat="47.3079" lon="-1.15136">
        <ele>141</ele>
        <time>2021-05-29T11:48:37.000Z</time>
      </trkpt>
      <trkpt lat="47.30798" lon="-1.15148">
        <ele>141</ele>
        <time>2021-05-29T11:48:39.000Z</time>
      </trkpt>
      <trkpt lat="47.30806" lon="-1.15162">
        <ele>141</ele>
        <time>2021-05-29T11:48:41.000Z</time>
      </trkpt>
      <trkpt lat="47.30815" lon="-1.15177">
        <ele>142</ele>
        <time>2021-05-29T11:48:43.000Z</time>
      </trkpt>
      <trkpt lat="47.30824" lon="-1.1519">
        <ele>141</ele>
        <time>2021-05-29T11:48:45.000Z</time>
      </trkpt>
      <trkpt lat="47.30834" lon="-1.15203">
        <ele>141</ele>
        <time>2021-05-29T11:48:47.000Z</time>
      </trkpt>
      <trkpt lat="47.30843" lon="-1.15219">
        <ele>141</ele>
        <time>2021-05-29T11:48:49.000Z</time>
      </trkpt>
      <trkpt lat="47.3085" lon="-1.15232">
        <ele>140</ele>
        <time>2021-05-29T11:48:51.000Z</time>
      </trkpt>
      <trkpt lat="47.30858" lon="-1.15246">
        <ele>140</ele>
        <time>2021-05-29T11:48:53.000Z</time>
      </trkpt>
      <trkpt lat="47.3087" lon="-1.15267">
        <ele>140</ele>
        <time>2021-05-29T11:48:56.000Z</time>
      </trkpt>
      <trkpt lat="47.30878" lon="-1.15281">
        <ele>140</ele>
        <time>2021-05-29T11:48:58.000Z</time>
      </trkpt>
      <trkpt lat="47.30887" lon="-1.15296">
        <ele>139</ele>
        <time>2021-05-29T11:49:00.000Z</time>
      </trkpt>
      <trkpt lat="47.30895" lon="-1.1531">
        <ele>139</ele>
        <time>2021-05-29T11:49:02.000Z</time>
      </trkpt>
      <trkpt lat="47.30903" lon="-1.15323">
        <ele>139</ele>
        <time>2021-05-29T11:49:04.000Z</time>
      </trkpt>
      <trkpt lat="47.3091" lon="-1.15336">
        <ele>139</ele>
        <time>2021-05-29T11:49:06.000Z</time>
      </trkpt>
      <trkpt lat="47.30918" lon="-1.15351">
        <ele>140</ele>
        <time>2021-05-29T11:49:08.000Z</time>
      </trkpt>
      <trkpt lat="47.30926" lon="-1.15365">
        <ele>139</ele>
        <time>2021-05-29T11:49:10.000Z</time>
      </trkpt>
      <trkpt lat="47.30934" lon="-1.15379">
        <ele>139</ele>
        <time>2021-05-29T11:49:12.000Z</time>
      </trkpt>
      <trkpt lat="47.30947" lon="-1.15401">
        <ele>138</ele>
        <time>2021-05-29T11:49:15.000Z</time>
      </trkpt>
      <trkpt lat="47.30955" lon="-1.15415">
        <ele>138</ele>
        <time>2021-05-29T11:49:17.000Z</time>
      </trkpt>
      <trkpt lat="47.30962" lon="-1.15428">
        <ele>139</ele>
        <time>2021-05-29T11:49:19.000Z</time>
      </trkpt>
      <trkpt lat="47.3097" lon="-1.15442">
        <ele>139</ele>
        <time>2021-05-29T11:49:21.000Z</time>
      </trkpt>
      <trkpt lat="47.30982" lon="-1.15462">
        <ele>139</ele>
        <time>2021-05-29T11:49:24.000Z</time>
      </trkpt>
      <trkpt lat="47.30994" lon="-1.15483">
        <ele>140</ele>
        <time>2021-05-29T11:49:27.000Z</time>
      </trkpt>
      <trkpt lat="47.31001" lon="-1.15495">
        <ele>139</ele>
        <time>2021-05-29T11:49:29.000Z</time>
      </trkpt>
      <trkpt lat="47.31009" lon="-1.15509">
        <ele>139</ele>
        <time>2021-05-29T11:49:31.000Z</time>
      </trkpt>
      <trkpt lat="47.3102" lon="-1.1553">
        <ele>138</ele>
        <time>2021-05-29T11:49:34.000Z</time>
      </trkpt>
      <trkpt lat="47.31029" lon="-1.15542">
        <ele>139</ele>
        <time>2021-05-29T11:49:36.000Z</time>
      </trkpt>
      <trkpt lat="47.31037" lon="-1.15556">
        <ele>139</ele>
        <time>2021-05-29T11:49:38.000Z</time>
      </trkpt>
      <trkpt lat="47.31044" lon="-1.15569">
        <ele>139</ele>
        <time>2021-05-29T11:49:40.000Z</time>
      </trkpt>
      <trkpt lat="47.31052" lon="-1.15582">
        <ele>140</ele>
        <time>2021-05-29T11:49:42.000Z</time>
      </trkpt>
      <trkpt lat="47.31059" lon="-1.15594">
        <ele>140</ele>
        <time>2021-05-29T11:49:44.000Z</time>
      </trkpt>
      <trkpt lat="47.31067" lon="-1.15608">
        <ele>139</ele>
        <time>2021-05-29T11:49:46.000Z</time>
      </trkpt>
      <trkpt lat="47.31074" lon="-1.15621">
        <ele>140</ele>
        <time>2021-05-29T11:49:48.000Z</time>
      </trkpt>
      <trkpt lat="47.31081" lon="-1.15634">
        <ele>141</ele>
        <time>2021-05-29T11:49:50.000Z</time>
      </trkpt>
      <trkpt lat="47.31088" lon="-1.15647">
        <ele>142</ele>
        <time>2021-05-29T11:49:52.000Z</time>
      </trkpt>
      <trkpt lat="47.31101" lon="-1.15668">
        <ele>142</ele>
        <time>2021-05-29T11:49:55.000Z</time>
      </trkpt>
      <trkpt lat="47.31107" lon="-1.15683">
        <ele>143</ele>
        <time>2021-05-29T11:49:57.000Z</time>
      </trkpt>
      <trkpt lat="47.31112" lon="-1.15696">
        <ele>143</ele>
        <time>2021-05-29T11:49:59.000Z</time>
      </trkpt>
      <trkpt lat="47.31118" lon="-1.15711">
        <ele>143</ele>
        <time>2021-05-29T11:50:01.000Z</time>
      </trkpt>
      <trkpt lat="47.31125" lon="-1.15726">
        <ele>143</ele>
        <time>2021-05-29T11:50:03.000Z</time>
      </trkpt>
      <trkpt lat="47.3113" lon="-1.15743">
        <ele>141</ele>
        <time>2021-05-29T11:50:05.000Z</time>
      </trkpt>
      <trkpt lat="47.31136" lon="-1.15757">
        <ele>141</ele>
        <time>2021-05-29T11:50:07.000Z</time>
      </trkpt>
      <trkpt lat="47.31141" lon="-1.15771">
        <ele>142</ele>
        <time>2021-05-29T11:50:09.000Z</time>
      </trkpt>
      <trkpt lat="47.31147" lon="-1.15786">
        <ele>141</ele>
        <time>2021-05-29T11:50:11.000Z</time>
      </trkpt>
      <trkpt lat="47.31152" lon="-1.158">
        <ele>141</ele>
        <time>2021-05-29T11:50:13.000Z</time>
      </trkpt>
      <trkpt lat="47.31156" lon="-1.15814">
        <ele>141</ele>
        <time>2021-05-29T11:50:15.000Z</time>
      </trkpt>
      <trkpt lat="47.3116" lon="-1.15829">
        <ele>141</ele>
        <time>2021-05-29T11:50:17.000Z</time>
      </trkpt>
      <trkpt lat="47.31165" lon="-1.15844">
        <ele>141</ele>
        <time>2021-05-29T11:50:19.000Z</time>
      </trkpt>
      <trkpt lat="47.3117" lon="-1.1586">
        <ele>140</ele>
        <time>2021-05-29T11:50:21.000Z</time>
      </trkpt>
      <trkpt lat="47.31174" lon="-1.15875">
        <ele>140</ele>
        <time>2021-05-29T11:50:23.000Z</time>
      </trkpt>
      <trkpt lat="47.31177" lon="-1.15891">
        <ele>140</ele>
        <time>2021-05-29T11:50:25.000Z</time>
      </trkpt>
      <trkpt lat="47.31181" lon="-1.15907">
        <ele>140</ele>
        <time>2021-05-29T11:50:27.000Z</time>
      </trkpt>
      <trkpt lat="47.31184" lon="-1.1592">
        <ele>140</ele>
        <time>2021-05-29T11:50:29.000Z</time>
      </trkpt>
      <trkpt lat="47.31188" lon="-1.15936">
        <ele>140</ele>
        <time>2021-05-29T11:50:31.000Z</time>
      </trkpt>
      <trkpt lat="47.31192" lon="-1.15954">
        <ele>139</ele>
        <time>2021-05-29T11:50:33.000Z</time>
      </trkpt>
      <trkpt lat="47.31195" lon="-1.15969">
        <ele>139</ele>
        <time>2021-05-29T11:50:35.000Z</time>
      </trkpt>
      <trkpt lat="47.31198" lon="-1.15986">
        <ele>139</ele>
        <time>2021-05-29T11:50:37.000Z</time>
      </trkpt>
      <trkpt lat="47.31204" lon="-1.1601">
        <ele>139</ele>
        <time>2021-05-29T11:50:40.000Z</time>
      </trkpt>
      <trkpt lat="47.3121" lon="-1.1603">
        <ele>138</ele>
        <time>2021-05-29T11:50:42.000Z</time>
      </trkpt>
      <trkpt lat="47.31215" lon="-1.16048">
        <ele>137</ele>
        <time>2021-05-29T11:50:44.000Z</time>
      </trkpt>
      <trkpt lat="47.31217" lon="-1.16063">
        <ele>137</ele>
        <time>2021-05-29T11:50:46.000Z</time>
      </trkpt>
      <trkpt lat="47.31218" lon="-1.16079">
        <ele>137</ele>
        <time>2021-05-29T11:50:48.000Z</time>
      </trkpt>
      <trkpt lat="47.31219" lon="-1.16097">
        <ele>137</ele>
        <time>2021-05-29T11:50:50.000Z</time>
      </trkpt>
      <trkpt lat="47.31219" lon="-1.16116">
        <ele>138</ele>
        <time>2021-05-29T11:50:52.000Z</time>
      </trkpt>
      <trkpt lat="47.31219" lon="-1.16134">
        <ele>137</ele>
        <time>2021-05-29T11:50:54.000Z</time>
      </trkpt>
      <trkpt lat="47.31219" lon="-1.16155">
        <ele>136</ele>
        <time>2021-05-29T11:50:56.000Z</time>
      </trkpt>
      <trkpt lat="47.31223" lon="-1.16174">
        <ele>135</ele>
        <time>2021-05-29T11:50:58.000Z</time>
      </trkpt>
      <trkpt lat="47.31234" lon="-1.16185">
        <ele>135</ele>
        <time>2021-05-29T11:51:00.000Z</time>
      </trkpt>
      <trkpt lat="47.31247" lon="-1.16194">
        <ele>135</ele>
        <time>2021-05-29T11:51:02.000Z</time>
      </trkpt>
      <trkpt lat="47.31261" lon="-1.16199">
        <ele>135</ele>
        <time>2021-05-29T11:51:04.000Z</time>
      </trkpt>
      <trkpt lat="47.31274" lon="-1.16203">
        <ele>135</ele>
        <time>2021-05-29T11:51:06.000Z</time>
      </trkpt>
      <trkpt lat="47.31286" lon="-1.16207">
        <ele>135</ele>
        <time>2021-05-29T11:51:08.000Z</time>
      </trkpt>
      <trkpt lat="47.31299" lon="-1.16211">
        <ele>135</ele>
        <time>2021-05-29T11:51:10.000Z</time>
      </trkpt>
      <trkpt lat="47.31312" lon="-1.16216">
        <ele>134</ele>
        <time>2021-05-29T11:51:12.000Z</time>
      </trkpt>
      <trkpt lat="47.31323" lon="-1.16222">
        <ele>134</ele>
        <time>2021-05-29T11:51:14.000Z</time>
      </trkpt>
      <trkpt lat="47.31335" lon="-1.16229">
        <ele>134</ele>
        <time>2021-05-29T11:51:16.000Z</time>
      </trkpt>
      <trkpt lat="47.31347" lon="-1.16233">
        <ele>134</ele>
        <time>2021-05-29T11:51:18.000Z</time>
      </trkpt>
      <trkpt lat="47.31359" lon="-1.16239">
        <ele>134</ele>
        <time>2021-05-29T11:51:20.000Z</time>
      </trkpt>
      <trkpt lat="47.31371" lon="-1.16245">
        <ele>135</ele>
        <time>2021-05-29T11:51:22.000Z</time>
      </trkpt>
      <trkpt lat="47.31382" lon="-1.16254">
        <ele>136</ele>
        <time>2021-05-29T11:51:24.000Z</time>
      </trkpt>
      <trkpt lat="47.31395" lon="-1.16256">
        <ele>136</ele>
        <time>2021-05-29T11:51:26.000Z</time>
      </trkpt>
      <trkpt lat="47.31415" lon="-1.1626">
        <ele>136</ele>
        <time>2021-05-29T11:51:29.000Z</time>
      </trkpt>
      <trkpt lat="47.31426" lon="-1.16262">
        <ele>136</ele>
        <time>2021-05-29T11:51:31.000Z</time>
      </trkpt>
      <trkpt lat="47.31437" lon="-1.16265">
        <ele>136</ele>
        <time>2021-05-29T11:51:33.000Z</time>
      </trkpt>
      <trkpt lat="47.31449" lon="-1.16267">
        <ele>136</ele>
        <time>2021-05-29T11:51:35.000Z</time>
      </trkpt>
      <trkpt lat="47.3146" lon="-1.16271">
        <ele>137</ele>
        <time>2021-05-29T11:51:37.000Z</time>
      </trkpt>
      <trkpt lat="47.31471" lon="-1.16275">
        <ele>137</ele>
        <time>2021-05-29T11:51:39.000Z</time>
      </trkpt>
      <trkpt lat="47.31482" lon="-1.16278">
        <ele>138</ele>
        <time>2021-05-29T11:51:41.000Z</time>
      </trkpt>
      <trkpt lat="47.31494" lon="-1.16283">
        <ele>138</ele>
        <time>2021-05-29T11:51:43.000Z</time>
      </trkpt>
      <trkpt lat="47.31509" lon="-1.16288">
        <ele>137</ele>
        <time>2021-05-29T11:51:46.000Z</time>
      </trkpt>
      <trkpt lat="47.3152" lon="-1.16292">
        <ele>138</ele>
        <time>2021-05-29T11:51:48.000Z</time>
      </trkpt>
      <trkpt lat="47.31532" lon="-1.16295">
        <ele>138</ele>
        <time>2021-05-29T11:51:50.000Z</time>
      </trkpt>
      <trkpt lat="47.31544" lon="-1.16298">
        <ele>138</ele>
        <time>2021-05-29T11:51:52.000Z</time>
      </trkpt>
      <trkpt lat="47.31561" lon="-1.16301">
        <ele>138</ele>
        <time>2021-05-29T11:51:55.000Z</time>
      </trkpt>
      <trkpt lat="47.31572" lon="-1.16306">
        <ele>138</ele>
        <time>2021-05-29T11:51:57.000Z</time>
      </trkpt>
      <trkpt lat="47.31583" lon="-1.1631">
        <ele>138</ele>
        <time>2021-05-29T11:51:59.000Z</time>
      </trkpt>
      <trkpt lat="47.31594" lon="-1.16314">
        <ele>137</ele>
        <time>2021-05-29T11:52:01.000Z</time>
      </trkpt>
      <trkpt lat="47.31614" lon="-1.16318">
        <ele>136</ele>
        <time>2021-05-29T11:52:04.000Z</time>
      </trkpt>
      <trkpt lat="47.31625" lon="-1.16323">
        <ele>136</ele>
        <time>2021-05-29T11:52:06.000Z</time>
      </trkpt>
      <trkpt lat="47.31637" lon="-1.16327">
        <ele>136</ele>
        <time>2021-05-29T11:52:08.000Z</time>
      </trkpt>
      <trkpt lat="47.31649" lon="-1.1633">
        <ele>136</ele>
        <time>2021-05-29T11:52:10.000Z</time>
      </trkpt>
      <trkpt lat="47.31662" lon="-1.16335">
        <ele>135</ele>
        <time>2021-05-29T11:52:12.000Z</time>
      </trkpt>
      <trkpt lat="47.31675" lon="-1.16339">
        <ele>134</ele>
        <time>2021-05-29T11:52:14.000Z</time>
      </trkpt>
      <trkpt lat="47.31689" lon="-1.16343">
        <ele>135</ele>
        <time>2021-05-29T11:52:16.000Z</time>
      </trkpt>
      <trkpt lat="47.31703" lon="-1.16348">
        <ele>134</ele>
        <time>2021-05-29T11:52:18.000Z</time>
      </trkpt>
      <trkpt lat="47.31717" lon="-1.16352">
        <ele>133</ele>
        <time>2021-05-29T11:52:20.000Z</time>
      </trkpt>
      <trkpt lat="47.31731" lon="-1.16357">
        <ele>133</ele>
        <time>2021-05-29T11:52:22.000Z</time>
      </trkpt>
      <trkpt lat="47.31746" lon="-1.16362">
        <ele>132</ele>
        <time>2021-05-29T11:52:24.000Z</time>
      </trkpt>
      <trkpt lat="47.31762" lon="-1.16367">
        <ele>132</ele>
        <time>2021-05-29T11:52:26.000Z</time>
      </trkpt>
      <trkpt lat="47.31778" lon="-1.16372">
        <ele>131</ele>
        <time>2021-05-29T11:52:28.000Z</time>
      </trkpt>
      <trkpt lat="47.31794" lon="-1.16377">
        <ele>130</ele>
        <time>2021-05-29T11:52:30.000Z</time>
      </trkpt>
      <trkpt lat="47.31811" lon="-1.16383">
        <ele>129</ele>
        <time>2021-05-29T11:52:32.000Z</time>
      </trkpt>
      <trkpt lat="47.3182" lon="-1.16386">
        <ele>129</ele>
        <time>2021-05-29T11:52:33.000Z</time>
      </trkpt>
      <trkpt lat="47.31836" lon="-1.1639">
        <ele>128</ele>
        <time>2021-05-29T11:52:35.000Z</time>
      </trkpt>
      <trkpt lat="47.31853" lon="-1.16395">
        <ele>128</ele>
        <time>2021-05-29T11:52:37.000Z</time>
      </trkpt>
      <trkpt lat="47.31862" lon="-1.16398">
        <ele>127</ele>
        <time>2021-05-29T11:52:38.000Z</time>
      </trkpt>
      <trkpt lat="47.31879" lon="-1.16404">
        <ele>126</ele>
        <time>2021-05-29T11:52:40.000Z</time>
      </trkpt>
      <trkpt lat="47.31913" lon="-1.16413">
        <ele>124</ele>
        <time>2021-05-29T11:52:44.000Z</time>
      </trkpt>
      <trkpt lat="47.31928" lon="-1.16417">
        <ele>124</ele>
        <time>2021-05-29T11:52:46.000Z</time>
      </trkpt>
      <trkpt lat="47.31945" lon="-1.16423">
        <ele>123</ele>
        <time>2021-05-29T11:52:48.000Z</time>
      </trkpt>
      <trkpt lat="47.31962" lon="-1.16427">
        <ele>123</ele>
        <time>2021-05-29T11:52:50.000Z</time>
      </trkpt>
      <trkpt lat="47.31979" lon="-1.16432">
        <ele>123</ele>
        <time>2021-05-29T11:52:52.000Z</time>
      </trkpt>
      <trkpt lat="47.31995" lon="-1.16438">
        <ele>123</ele>
        <time>2021-05-29T11:52:54.000Z</time>
      </trkpt>
      <trkpt lat="47.32012" lon="-1.16443">
        <ele>122</ele>
        <time>2021-05-29T11:52:56.000Z</time>
      </trkpt>
      <trkpt lat="47.32028" lon="-1.16449">
        <ele>121</ele>
        <time>2021-05-29T11:52:58.000Z</time>
      </trkpt>
      <trkpt lat="47.32052" lon="-1.16457">
        <ele>121</ele>
        <time>2021-05-29T11:53:01.000Z</time>
      </trkpt>
      <trkpt lat="47.32068" lon="-1.16462">
        <ele>121</ele>
        <time>2021-05-29T11:53:03.000Z</time>
      </trkpt>
      <trkpt lat="47.32084" lon="-1.16468">
        <ele>121</ele>
        <time>2021-05-29T11:53:05.000Z</time>
      </trkpt>
      <trkpt lat="47.321" lon="-1.16474">
        <ele>121</ele>
        <time>2021-05-29T11:53:07.000Z</time>
      </trkpt>
      <trkpt lat="47.32116" lon="-1.16479">
        <ele>120</ele>
        <time>2021-05-29T11:53:09.000Z</time>
      </trkpt>
      <trkpt lat="47.32132" lon="-1.16486">
        <ele>120</ele>
        <time>2021-05-29T11:53:11.000Z</time>
      </trkpt>
      <trkpt lat="47.32147" lon="-1.1649">
        <ele>120</ele>
        <time>2021-05-29T11:53:13.000Z</time>
      </trkpt>
      <trkpt lat="47.32162" lon="-1.16494">
        <ele>119</ele>
        <time>2021-05-29T11:53:15.000Z</time>
      </trkpt>
      <trkpt lat="47.32178" lon="-1.16499">
        <ele>119</ele>
        <time>2021-05-29T11:53:17.000Z</time>
      </trkpt>
      <trkpt lat="47.32187" lon="-1.16502">
        <ele>119</ele>
        <time>2021-05-29T11:53:18.000Z</time>
      </trkpt>
      <trkpt lat="47.32204" lon="-1.16508">
        <ele>119</ele>
        <time>2021-05-29T11:53:20.000Z</time>
      </trkpt>
      <trkpt lat="47.32219" lon="-1.16512">
        <ele>120</ele>
        <time>2021-05-29T11:53:22.000Z</time>
      </trkpt>
      <trkpt lat="47.32242" lon="-1.16521">
        <ele>120</ele>
        <time>2021-05-29T11:53:25.000Z</time>
      </trkpt>
      <trkpt lat="47.32256" lon="-1.16526">
        <ele>120</ele>
        <time>2021-05-29T11:53:27.000Z</time>
      </trkpt>
      <trkpt lat="47.32271" lon="-1.16532">
        <ele>119</ele>
        <time>2021-05-29T11:53:29.000Z</time>
      </trkpt>
      <trkpt lat="47.32287" lon="-1.16536">
        <ele>118</ele>
        <time>2021-05-29T11:53:31.000Z</time>
      </trkpt>
      <trkpt lat="47.32302" lon="-1.1654">
        <ele>119</ele>
        <time>2021-05-29T11:53:33.000Z</time>
      </trkpt>
      <trkpt lat="47.32316" lon="-1.16545">
        <ele>120</ele>
        <time>2021-05-29T11:53:35.000Z</time>
      </trkpt>
      <trkpt lat="47.32331" lon="-1.16549">
        <ele>120</ele>
        <time>2021-05-29T11:53:37.000Z</time>
      </trkpt>
      <trkpt lat="47.32345" lon="-1.16555">
        <ele>119</ele>
        <time>2021-05-29T11:53:39.000Z</time>
      </trkpt>
      <trkpt lat="47.3236" lon="-1.1656">
        <ele>119</ele>
        <time>2021-05-29T11:53:41.000Z</time>
      </trkpt>
      <trkpt lat="47.32374" lon="-1.16564">
        <ele>120</ele>
        <time>2021-05-29T11:53:43.000Z</time>
      </trkpt>
      <trkpt lat="47.32388" lon="-1.16568">
        <ele>119</ele>
        <time>2021-05-29T11:53:45.000Z</time>
      </trkpt>
      <trkpt lat="47.32402" lon="-1.16572">
        <ele>119</ele>
        <time>2021-05-29T11:53:47.000Z</time>
      </trkpt>
      <trkpt lat="47.32415" lon="-1.16577">
        <ele>120</ele>
        <time>2021-05-29T11:53:49.000Z</time>
      </trkpt>
      <trkpt lat="47.3243" lon="-1.16582">
        <ele>119</ele>
        <time>2021-05-29T11:53:51.000Z</time>
      </trkpt>
      <trkpt lat="47.32445" lon="-1.16588">
        <ele>115</ele>
        <time>2021-05-29T11:53:53.000Z</time>
      </trkpt>
      <trkpt lat="47.3246" lon="-1.16593">
        <ele>115</ele>
        <time>2021-05-29T11:53:55.000Z</time>
      </trkpt>
      <trkpt lat="47.32475" lon="-1.16597">
        <ele>118</ele>
        <time>2021-05-29T11:53:57.000Z</time>
      </trkpt>
      <trkpt lat="47.32494" lon="-1.16602">
        <ele>120</ele>
        <time>2021-05-29T11:54:00.000Z</time>
      </trkpt>
      <trkpt lat="47.32508" lon="-1.16605">
        <ele>120</ele>
        <time>2021-05-29T11:54:02.000Z</time>
      </trkpt>
      <trkpt lat="47.32522" lon="-1.1661">
        <ele>120</ele>
        <time>2021-05-29T11:54:04.000Z</time>
      </trkpt>
      <trkpt lat="47.32542" lon="-1.16617">
        <ele>120</ele>
        <time>2021-05-29T11:54:07.000Z</time>
      </trkpt>
      <trkpt lat="47.32556" lon="-1.1662">
        <ele>120</ele>
        <time>2021-05-29T11:54:09.000Z</time>
      </trkpt>
      <trkpt lat="47.32569" lon="-1.16625">
        <ele>120</ele>
        <time>2021-05-29T11:54:11.000Z</time>
      </trkpt>
      <trkpt lat="47.3259" lon="-1.16631">
        <ele>120</ele>
        <time>2021-05-29T11:54:14.000Z</time>
      </trkpt>
      <trkpt lat="47.32603" lon="-1.16635">
        <ele>119</ele>
        <time>2021-05-29T11:54:16.000Z</time>
      </trkpt>
      <trkpt lat="47.32617" lon="-1.1664">
        <ele>120</ele>
        <time>2021-05-29T11:54:18.000Z</time>
      </trkpt>
      <trkpt lat="47.3263" lon="-1.16644">
        <ele>120</ele>
        <time>2021-05-29T11:54:20.000Z</time>
      </trkpt>
      <trkpt lat="47.32644" lon="-1.16648">
        <ele>120</ele>
        <time>2021-05-29T11:54:22.000Z</time>
      </trkpt>
      <trkpt lat="47.32657" lon="-1.16653">
        <ele>119</ele>
        <time>2021-05-29T11:54:24.000Z</time>
      </trkpt>
      <trkpt lat="47.32671" lon="-1.16657">
        <ele>118</ele>
        <time>2021-05-29T11:54:26.000Z</time>
      </trkpt>
      <trkpt lat="47.3269" lon="-1.16663">
        <ele>119</ele>
        <time>2021-05-29T11:54:29.000Z</time>
      </trkpt>
      <trkpt lat="47.32703" lon="-1.16668">
        <ele>119</ele>
        <time>2021-05-29T11:54:31.000Z</time>
      </trkpt>
      <trkpt lat="47.32716" lon="-1.16671">
        <ele>119</ele>
        <time>2021-05-29T11:54:33.000Z</time>
      </trkpt>
      <trkpt lat="47.32736" lon="-1.16678">
        <ele>115</ele>
        <time>2021-05-29T11:54:36.000Z</time>
      </trkpt>
      <trkpt lat="47.32751" lon="-1.16683">
        <ele>116</ele>
        <time>2021-05-29T11:54:38.000Z</time>
      </trkpt>
      <trkpt lat="47.32764" lon="-1.16687">
        <ele>116</ele>
        <time>2021-05-29T11:54:40.000Z</time>
      </trkpt>
      <trkpt lat="47.32784" lon="-1.16697">
        <ele>113</ele>
        <time>2021-05-29T11:54:43.000Z</time>
      </trkpt>
      <trkpt lat="47.32799" lon="-1.167">
        <ele>113</ele>
        <time>2021-05-29T11:54:45.000Z</time>
      </trkpt>
      <trkpt lat="47.32814" lon="-1.16705">
        <ele>113</ele>
        <time>2021-05-29T11:54:47.000Z</time>
      </trkpt>
      <trkpt lat="47.32828" lon="-1.16708">
        <ele>113</ele>
        <time>2021-05-29T11:54:49.000Z</time>
      </trkpt>
      <trkpt lat="47.32851" lon="-1.16715">
        <ele>111</ele>
        <time>2021-05-29T11:54:52.000Z</time>
      </trkpt>
      <trkpt lat="47.32867" lon="-1.1672">
        <ele>110</ele>
        <time>2021-05-29T11:54:54.000Z</time>
      </trkpt>
      <trkpt lat="47.32884" lon="-1.16726">
        <ele>110</ele>
        <time>2021-05-29T11:54:56.000Z</time>
      </trkpt>
      <trkpt lat="47.329" lon="-1.16731">
        <ele>109</ele>
        <time>2021-05-29T11:54:58.000Z</time>
      </trkpt>
      <trkpt lat="47.32926" lon="-1.16737">
        <ele>107</ele>
        <time>2021-05-29T11:55:01.000Z</time>
      </trkpt>
      <trkpt lat="47.32943" lon="-1.16742">
        <ele>105</ele>
        <time>2021-05-29T11:55:03.000Z</time>
      </trkpt>
      <trkpt lat="47.3296" lon="-1.16745">
        <ele>105</ele>
        <time>2021-05-29T11:55:05.000Z</time>
      </trkpt>
      <trkpt lat="47.32978" lon="-1.16748">
        <ele>104</ele>
        <time>2021-05-29T11:55:07.000Z</time>
      </trkpt>
      <trkpt lat="47.32987" lon="-1.16749">
        <ele>104</ele>
        <time>2021-05-29T11:55:08.000Z</time>
      </trkpt>
      <trkpt lat="47.33005" lon="-1.1675">
        <ele>103</ele>
        <time>2021-05-29T11:55:10.000Z</time>
      </trkpt>
      <trkpt lat="47.33022" lon="-1.16746">
        <ele>103</ele>
        <time>2021-05-29T11:55:12.000Z</time>
      </trkpt>
      <trkpt lat="47.33037" lon="-1.16741">
        <ele>103</ele>
        <time>2021-05-29T11:55:14.000Z</time>
      </trkpt>
      <trkpt lat="47.33062" lon="-1.16759">
        <ele>100</ele>
        <time>2021-05-29T11:55:18.000Z</time>
      </trkpt>
      <trkpt lat="47.33071" lon="-1.16774">
        <ele>102</ele>
        <time>2021-05-29T11:55:20.000Z</time>
      </trkpt>
      <trkpt lat="47.33087" lon="-1.16791">
        <ele>103</ele>
        <time>2021-05-29T11:55:23.000Z</time>
      </trkpt>
      <trkpt lat="47.33099" lon="-1.16795">
        <ele>105</ele>
        <time>2021-05-29T11:55:25.000Z</time>
      </trkpt>
      <trkpt lat="47.33109" lon="-1.16798">
        <ele>105</ele>
        <time>2021-05-29T11:55:27.000Z</time>
      </trkpt>
      <trkpt lat="47.33119" lon="-1.16802">
        <ele>103</ele>
        <time>2021-05-29T11:55:29.000Z</time>
      </trkpt>
      <trkpt lat="47.33134" lon="-1.16806">
        <ele>103</ele>
        <time>2021-05-29T11:55:32.000Z</time>
      </trkpt>
      <trkpt lat="47.33145" lon="-1.16809">
        <ele>105</ele>
        <time>2021-05-29T11:55:34.000Z</time>
      </trkpt>
      <trkpt lat="47.33155" lon="-1.16812">
        <ele>107</ele>
        <time>2021-05-29T11:55:36.000Z</time>
      </trkpt>
      <trkpt lat="47.33166" lon="-1.16815">
        <ele>107</ele>
        <time>2021-05-29T11:55:38.000Z</time>
      </trkpt>
      <trkpt lat="47.33177" lon="-1.16819">
        <ele>107</ele>
        <time>2021-05-29T11:55:40.000Z</time>
      </trkpt>
      <trkpt lat="47.33188" lon="-1.16822">
        <ele>108</ele>
        <time>2021-05-29T11:55:42.000Z</time>
      </trkpt>
      <trkpt lat="47.33198" lon="-1.16826">
        <ele>108</ele>
        <time>2021-05-29T11:55:44.000Z</time>
      </trkpt>
      <trkpt lat="47.33208" lon="-1.16829">
        <ele>108</ele>
        <time>2021-05-29T11:55:46.000Z</time>
      </trkpt>
      <trkpt lat="47.33222" lon="-1.16834">
        <ele>107</ele>
        <time>2021-05-29T11:55:49.000Z</time>
      </trkpt>
      <trkpt lat="47.33243" lon="-1.16841">
        <ele>108</ele>
        <time>2021-05-29T11:55:52.000Z</time>
      </trkpt>
      <trkpt lat="47.33257" lon="-1.16846">
        <ele>107</ele>
        <time>2021-05-29T11:55:55.000Z</time>
      </trkpt>
      <trkpt lat="47.33266" lon="-1.1685">
        <ele>106</ele>
        <time>2021-05-29T11:55:57.000Z</time>
      </trkpt>
      <trkpt lat="47.33277" lon="-1.16854">
        <ele>105</ele>
        <time>2021-05-29T11:55:59.000Z</time>
      </trkpt>
      <trkpt lat="47.33294" lon="-1.16858">
        <ele>107</ele>
        <time>2021-05-29T11:56:02.000Z</time>
      </trkpt>
      <trkpt lat="47.33304" lon="-1.16859">
        <ele>104</ele>
        <time>2021-05-29T11:56:04.000Z</time>
      </trkpt>
      <trkpt lat="47.33316" lon="-1.16863">
        <ele>105</ele>
        <time>2021-05-29T11:56:06.000Z</time>
      </trkpt>
      <trkpt lat="47.33328" lon="-1.16869">
        <ele>106</ele>
        <time>2021-05-29T11:56:08.000Z</time>
      </trkpt>
      <trkpt lat="47.33341" lon="-1.16873">
        <ele>106</ele>
        <time>2021-05-29T11:56:10.000Z</time>
      </trkpt>
      <trkpt lat="47.33352" lon="-1.16877">
        <ele>106</ele>
        <time>2021-05-29T11:56:12.000Z</time>
      </trkpt>
      <trkpt lat="47.33363" lon="-1.1688">
        <ele>106</ele>
        <time>2021-05-29T11:56:14.000Z</time>
      </trkpt>
      <trkpt lat="47.3338" lon="-1.16884">
        <ele>104</ele>
        <time>2021-05-29T11:56:17.000Z</time>
      </trkpt>
      <trkpt lat="47.33391" lon="-1.16888">
        <ele>103</ele>
        <time>2021-05-29T11:56:19.000Z</time>
      </trkpt>
      <trkpt lat="47.33402" lon="-1.16892">
        <ele>104</ele>
        <time>2021-05-29T11:56:21.000Z</time>
      </trkpt>
      <trkpt lat="47.33413" lon="-1.16896">
        <ele>104</ele>
        <time>2021-05-29T11:56:23.000Z</time>
      </trkpt>
      <trkpt lat="47.33423" lon="-1.169">
        <ele>105</ele>
        <time>2021-05-29T11:56:25.000Z</time>
      </trkpt>
      <trkpt lat="47.33435" lon="-1.16903">
        <ele>105</ele>
        <time>2021-05-29T11:56:27.000Z</time>
      </trkpt>
      <trkpt lat="47.33446" lon="-1.16905">
        <ele>106</ele>
        <time>2021-05-29T11:56:29.000Z</time>
      </trkpt>
      <trkpt lat="47.33463" lon="-1.169">
        <ele>105</ele>
        <time>2021-05-29T11:56:32.000Z</time>
      </trkpt>
      <trkpt lat="47.33476" lon="-1.16907">
        <ele>103</ele>
        <time>2021-05-29T11:56:34.000Z</time>
      </trkpt>
      <trkpt lat="47.33485" lon="-1.16916">
        <ele>104</ele>
        <time>2021-05-29T11:56:36.000Z</time>
      </trkpt>
      <trkpt lat="47.33496" lon="-1.16921">
        <ele>104</ele>
        <time>2021-05-29T11:56:38.000Z</time>
      </trkpt>
      <trkpt lat="47.33507" lon="-1.16923">
        <ele>99</ele>
        <time>2021-05-29T11:56:40.000Z</time>
      </trkpt>
      <trkpt lat="47.33518" lon="-1.16927">
        <ele>99</ele>
        <time>2021-05-29T11:56:42.000Z</time>
      </trkpt>
      <trkpt lat="47.33531" lon="-1.16934">
        <ele>101</ele>
        <time>2021-05-29T11:56:44.000Z</time>
      </trkpt>
      <trkpt lat="47.33542" lon="-1.16938">
        <ele>101</ele>
        <time>2021-05-29T11:56:46.000Z</time>
      </trkpt>
      <trkpt lat="47.33554" lon="-1.16941">
        <ele>102</ele>
        <time>2021-05-29T11:56:48.000Z</time>
      </trkpt>
      <trkpt lat="47.33564" lon="-1.16943">
        <ele>103</ele>
        <time>2021-05-29T11:56:50.000Z</time>
      </trkpt>
      <trkpt lat="47.33574" lon="-1.16944">
        <ele>104</ele>
        <time>2021-05-29T11:56:52.000Z</time>
      </trkpt>
      <trkpt lat="47.33584" lon="-1.16945">
        <ele>104</ele>
        <time>2021-05-29T11:56:54.000Z</time>
      </trkpt>
      <trkpt lat="47.33595" lon="-1.16944">
        <ele>105</ele>
        <time>2021-05-29T11:56:56.000Z</time>
      </trkpt>
      <trkpt lat="47.33605" lon="-1.16943">
        <ele>105</ele>
        <time>2021-05-29T11:56:58.000Z</time>
      </trkpt>
      <trkpt lat="47.33615" lon="-1.16941">
        <ele>106</ele>
        <time>2021-05-29T11:57:00.000Z</time>
      </trkpt>
      <trkpt lat="47.33631" lon="-1.16939">
        <ele>105</ele>
        <time>2021-05-29T11:57:03.000Z</time>
      </trkpt>
      <trkpt lat="47.33642" lon="-1.16935">
        <ele>105</ele>
        <time>2021-05-29T11:57:05.000Z</time>
      </trkpt>
      <trkpt lat="47.33653" lon="-1.1693">
        <ele>106</ele>
        <time>2021-05-29T11:57:07.000Z</time>
      </trkpt>
      <trkpt lat="47.33662" lon="-1.16924">
        <ele>106</ele>
        <time>2021-05-29T11:57:09.000Z</time>
      </trkpt>
      <trkpt lat="47.33672" lon="-1.16917">
        <ele>106</ele>
        <time>2021-05-29T11:57:11.000Z</time>
      </trkpt>
      <trkpt lat="47.33682" lon="-1.16913">
        <ele>106</ele>
        <time>2021-05-29T11:57:13.000Z</time>
      </trkpt>
      <trkpt lat="47.33692" lon="-1.16909">
        <ele>107</ele>
        <time>2021-05-29T11:57:15.000Z</time>
      </trkpt>
      <trkpt lat="47.33702" lon="-1.16903">
        <ele>106</ele>
        <time>2021-05-29T11:57:17.000Z</time>
      </trkpt>
      <trkpt lat="47.33711" lon="-1.16895">
        <ele>107</ele>
        <time>2021-05-29T11:57:19.000Z</time>
      </trkpt>
      <trkpt lat="47.33721" lon="-1.16891">
        <ele>107</ele>
        <time>2021-05-29T11:57:21.000Z</time>
      </trkpt>
      <trkpt lat="47.33731" lon="-1.16887">
        <ele>108</ele>
        <time>2021-05-29T11:57:23.000Z</time>
      </trkpt>
      <trkpt lat="47.33741" lon="-1.16883">
        <ele>108</ele>
        <time>2021-05-29T11:57:25.000Z</time>
      </trkpt>
      <trkpt lat="47.33753" lon="-1.1688">
        <ele>109</ele>
        <time>2021-05-29T11:57:27.000Z</time>
      </trkpt>
      <trkpt lat="47.33763" lon="-1.16877">
        <ele>109</ele>
        <time>2021-05-29T11:57:29.000Z</time>
      </trkpt>
      <trkpt lat="47.33773" lon="-1.16872">
        <ele>109</ele>
        <time>2021-05-29T11:57:31.000Z</time>
      </trkpt>
      <trkpt lat="47.33786" lon="-1.16864">
        <ele>109</ele>
        <time>2021-05-29T11:57:34.000Z</time>
      </trkpt>
      <trkpt lat="47.33797" lon="-1.16858">
        <ele>110</ele>
        <time>2021-05-29T11:57:36.000Z</time>
      </trkpt>
      <trkpt lat="47.33808" lon="-1.16854">
        <ele>110</ele>
        <time>2021-05-29T11:57:38.000Z</time>
      </trkpt>
      <trkpt lat="47.3382" lon="-1.16848">
        <ele>109</ele>
        <time>2021-05-29T11:57:41.000Z</time>
      </trkpt>
      <trkpt lat="47.33832" lon="-1.1684">
        <ele>109</ele>
        <time>2021-05-29T11:57:43.000Z</time>
      </trkpt>
      <trkpt lat="47.33844" lon="-1.16833">
        <ele>109</ele>
        <time>2021-05-29T11:57:45.000Z</time>
      </trkpt>
      <trkpt lat="47.33856" lon="-1.16828">
        <ele>109</ele>
        <time>2021-05-29T11:57:47.000Z</time>
      </trkpt>
      <trkpt lat="47.33866" lon="-1.16821">
        <ele>109</ele>
        <time>2021-05-29T11:57:49.000Z</time>
      </trkpt>
      <trkpt lat="47.33877" lon="-1.16816">
        <ele>109</ele>
        <time>2021-05-29T11:57:51.000Z</time>
      </trkpt>
      <trkpt lat="47.33888" lon="-1.1681">
        <ele>109</ele>
        <time>2021-05-29T11:57:53.000Z</time>
      </trkpt>
      <trkpt lat="47.33901" lon="-1.16797">
        <ele>108</ele>
        <time>2021-05-29T11:57:56.000Z</time>
      </trkpt>
      <trkpt lat="47.33912" lon="-1.16793">
        <ele>108</ele>
        <time>2021-05-29T11:57:58.000Z</time>
      </trkpt>
      <trkpt lat="47.33925" lon="-1.16788">
        <ele>108</ele>
        <time>2021-05-29T11:58:00.000Z</time>
      </trkpt>
      <trkpt lat="47.33936" lon="-1.16782">
        <ele>110</ele>
        <time>2021-05-29T11:58:02.000Z</time>
      </trkpt>
      <trkpt lat="47.33948" lon="-1.16777">
        <ele>106</ele>
        <time>2021-05-29T11:58:04.000Z</time>
      </trkpt>
      <trkpt lat="47.3396" lon="-1.16771">
        <ele>106</ele>
        <time>2021-05-29T11:58:06.000Z</time>
      </trkpt>
      <trkpt lat="47.33971" lon="-1.16767">
        <ele>107</ele>
        <time>2021-05-29T11:58:08.000Z</time>
      </trkpt>
      <trkpt lat="47.33982" lon="-1.16764">
        <ele>107</ele>
        <time>2021-05-29T11:58:10.000Z</time>
      </trkpt>
      <trkpt lat="47.33992" lon="-1.16758">
        <ele>108</ele>
        <time>2021-05-29T11:58:12.000Z</time>
      </trkpt>
      <trkpt lat="47.34003" lon="-1.16751">
        <ele>108</ele>
        <time>2021-05-29T11:58:14.000Z</time>
      </trkpt>
      <trkpt lat="47.34014" lon="-1.16745">
        <ele>108</ele>
        <time>2021-05-29T11:58:16.000Z</time>
      </trkpt>
      <trkpt lat="47.34025" lon="-1.1674">
        <ele>108</ele>
        <time>2021-05-29T11:58:18.000Z</time>
      </trkpt>
      <trkpt lat="47.3404" lon="-1.16733">
        <ele>108</ele>
        <time>2021-05-29T11:58:20.000Z</time>
      </trkpt>
      <trkpt lat="47.3405" lon="-1.16729">
        <ele>109</ele>
        <time>2021-05-29T11:58:22.000Z</time>
      </trkpt>
      <trkpt lat="47.3406" lon="-1.16722">
        <ele>107</ele>
        <time>2021-05-29T11:58:24.000Z</time>
      </trkpt>
      <trkpt lat="47.34071" lon="-1.16716">
        <ele>107</ele>
        <time>2021-05-29T11:58:26.000Z</time>
      </trkpt>
      <trkpt lat="47.34084" lon="-1.16709">
        <ele>106</ele>
        <time>2021-05-29T11:58:28.000Z</time>
      </trkpt>
      <trkpt lat="47.34101" lon="-1.16695">
        <ele>104</ele>
        <time>2021-05-29T11:58:31.000Z</time>
      </trkpt>
      <trkpt lat="47.34112" lon="-1.16683">
        <ele>104</ele>
        <time>2021-05-29T11:58:33.000Z</time>
      </trkpt>
      <trkpt lat="47.34122" lon="-1.1667">
        <ele>103</ele>
        <time>2021-05-29T11:58:35.000Z</time>
      </trkpt>
      <trkpt lat="47.34131" lon="-1.16655">
        <ele>102</ele>
        <time>2021-05-29T11:58:37.000Z</time>
      </trkpt>
      <trkpt lat="47.3414" lon="-1.1664">
        <ele>101</ele>
        <time>2021-05-29T11:58:39.000Z</time>
      </trkpt>
      <trkpt lat="47.34151" lon="-1.16617">
        <ele>100</ele>
        <time>2021-05-29T11:58:42.000Z</time>
      </trkpt>
      <trkpt lat="47.34158" lon="-1.16599">
        <ele>99</ele>
        <time>2021-05-29T11:58:44.000Z</time>
      </trkpt>
      <trkpt lat="47.34168" lon="-1.16586">
        <ele>98</ele>
        <time>2021-05-29T11:58:46.000Z</time>
      </trkpt>
      <trkpt lat="47.34177" lon="-1.16568">
        <ele>98</ele>
        <time>2021-05-29T11:58:48.000Z</time>
      </trkpt>
      <trkpt lat="47.34184" lon="-1.16551">
        <ele>98</ele>
        <time>2021-05-29T11:58:50.000Z</time>
      </trkpt>
      <trkpt lat="47.34193" lon="-1.16534">
        <ele>99</ele>
        <time>2021-05-29T11:58:52.000Z</time>
      </trkpt>
      <trkpt lat="47.342" lon="-1.16515">
        <ele>99</ele>
        <time>2021-05-29T11:58:54.000Z</time>
      </trkpt>
      <trkpt lat="47.34208" lon="-1.16487">
        <ele>99</ele>
        <time>2021-05-29T11:58:57.000Z</time>
      </trkpt>
      <trkpt lat="47.34212" lon="-1.16469">
        <ele>98</ele>
        <time>2021-05-29T11:58:59.000Z</time>
      </trkpt>
      <trkpt lat="47.34217" lon="-1.16451">
        <ele>98</ele>
        <time>2021-05-29T11:59:01.000Z</time>
      </trkpt>
      <trkpt lat="47.34221" lon="-1.16433">
        <ele>98</ele>
        <time>2021-05-29T11:59:03.000Z</time>
      </trkpt>
      <trkpt lat="47.34226" lon="-1.16416">
        <ele>97</ele>
        <time>2021-05-29T11:59:05.000Z</time>
      </trkpt>
      <trkpt lat="47.34236" lon="-1.16402">
        <ele>97</ele>
        <time>2021-05-29T11:59:07.000Z</time>
      </trkpt>
      <trkpt lat="47.3425" lon="-1.16397">
        <ele>98</ele>
        <time>2021-05-29T11:59:09.000Z</time>
      </trkpt>
      <trkpt lat="47.34264" lon="-1.16397">
        <ele>95</ele>
        <time>2021-05-29T11:59:11.000Z</time>
      </trkpt>
      <trkpt lat="47.34278" lon="-1.16397">
        <ele>95</ele>
        <time>2021-05-29T11:59:13.000Z</time>
      </trkpt>
      <trkpt lat="47.34293" lon="-1.16398">
        <ele>95</ele>
        <time>2021-05-29T11:59:15.000Z</time>
      </trkpt>
      <trkpt lat="47.34307" lon="-1.16406">
        <ele>94</ele>
        <time>2021-05-29T11:59:17.000Z</time>
      </trkpt>
      <trkpt lat="47.34317" lon="-1.16427">
        <ele>94</ele>
        <time>2021-05-29T11:59:19.000Z</time>
      </trkpt>
      <trkpt lat="47.34323" lon="-1.16451">
        <ele>92</ele>
        <time>2021-05-29T11:59:21.000Z</time>
      </trkpt>
      <trkpt lat="47.34328" lon="-1.16477">
        <ele>91</ele>
        <time>2021-05-29T11:59:23.000Z</time>
      </trkpt>
      <trkpt lat="47.3433" lon="-1.1649">
        <ele>91</ele>
        <time>2021-05-29T11:59:24.000Z</time>
      </trkpt>
      <trkpt lat="47.34338" lon="-1.16528">
        <ele>87</ele>
        <time>2021-05-29T11:59:27.000Z</time>
      </trkpt>
      <trkpt lat="47.34343" lon="-1.16553">
        <ele>87</ele>
        <time>2021-05-29T11:59:29.000Z</time>
      </trkpt>
      <trkpt lat="47.34357" lon="-1.16571">
        <ele>85</ele>
        <time>2021-05-29T11:59:31.000Z</time>
      </trkpt>
      <trkpt lat="47.34367" lon="-1.16574">
        <ele>84</ele>
        <time>2021-05-29T11:59:32.000Z</time>
      </trkpt>
      <trkpt lat="47.34379" lon="-1.1657">
        <ele>82</ele>
        <time>2021-05-29T11:59:33.000Z</time>
      </trkpt>
      <trkpt lat="47.34388" lon="-1.1656">
        <ele>81</ele>
        <time>2021-05-29T11:59:34.000Z</time>
      </trkpt>
      <trkpt lat="47.34394" lon="-1.16549">
        <ele>80</ele>
        <time>2021-05-29T11:59:35.000Z</time>
      </trkpt>
      <trkpt lat="47.34399" lon="-1.16537">
        <ele>80</ele>
        <time>2021-05-29T11:59:36.000Z</time>
      </trkpt>
      <trkpt lat="47.34402" lon="-1.16524">
        <ele>80</ele>
        <time>2021-05-29T11:59:37.000Z</time>
      </trkpt>
      <trkpt lat="47.34404" lon="-1.16511">
        <ele>80</ele>
        <time>2021-05-29T11:59:38.000Z</time>
      </trkpt>
      <trkpt lat="47.34409" lon="-1.16486">
        <ele>79</ele>
        <time>2021-05-29T11:59:40.000Z</time>
      </trkpt>
      <trkpt lat="47.34411" lon="-1.16473">
        <ele>78</ele>
        <time>2021-05-29T11:59:41.000Z</time>
      </trkpt>
      <trkpt lat="47.34413" lon="-1.1646">
        <ele>77</ele>
        <time>2021-05-29T11:59:42.000Z</time>
      </trkpt>
      <trkpt lat="47.34415" lon="-1.16447">
        <ele>76</ele>
        <time>2021-05-29T11:59:43.000Z</time>
      </trkpt>
      <trkpt lat="47.34418" lon="-1.16434">
        <ele>77</ele>
        <time>2021-05-29T11:59:44.000Z</time>
      </trkpt>
      <trkpt lat="47.34421" lon="-1.16422">
        <ele>76</ele>
        <time>2021-05-29T11:59:45.000Z</time>
      </trkpt>
      <trkpt lat="47.34428" lon="-1.16398">
        <ele>73</ele>
        <time>2021-05-29T11:59:47.000Z</time>
      </trkpt>
      <trkpt lat="47.34431" lon="-1.16373">
        <ele>72</ele>
        <time>2021-05-29T11:59:49.000Z</time>
      </trkpt>
      <trkpt lat="47.34433" lon="-1.16347">
        <ele>72</ele>
        <time>2021-05-29T11:59:51.000Z</time>
      </trkpt>
      <trkpt lat="47.34435" lon="-1.16334">
        <ele>72</ele>
        <time>2021-05-29T11:59:52.000Z</time>
      </trkpt>
      <trkpt lat="47.34437" lon="-1.16321">
        <ele>72</ele>
        <time>2021-05-29T11:59:53.000Z</time>
      </trkpt>
      <trkpt lat="47.34439" lon="-1.16308">
        <ele>71</ele>
        <time>2021-05-29T11:59:54.000Z</time>
      </trkpt>
      <trkpt lat="47.34442" lon="-1.16294">
        <ele>70</ele>
        <time>2021-05-29T11:59:55.000Z</time>
      </trkpt>
      <trkpt lat="47.34456" lon="-1.16279">
        <ele>69</ele>
        <time>2021-05-29T11:59:57.000Z</time>
      </trkpt>
      <trkpt lat="47.34465" lon="-1.16277">
        <ele>69</ele>
        <time>2021-05-29T11:59:58.000Z</time>
      </trkpt>
      <trkpt lat="47.34482" lon="-1.16282">
        <ele>70</ele>
        <time>2021-05-29T12:00:00.000Z</time>
      </trkpt>
      <trkpt lat="47.34498" lon="-1.16284">
        <ele>70</ele>
        <time>2021-05-29T12:00:02.000Z</time>
      </trkpt>
      <trkpt lat="47.34515" lon="-1.16285">
        <ele>69</ele>
        <time>2021-05-29T12:00:04.000Z</time>
      </trkpt>
      <trkpt lat="47.34531" lon="-1.16282">
        <ele>68</ele>
        <time>2021-05-29T12:00:06.000Z</time>
      </trkpt>
      <trkpt lat="47.34547" lon="-1.1628">
        <ele>67</ele>
        <time>2021-05-29T12:00:08.000Z</time>
      </trkpt>
      <trkpt lat="47.34562" lon="-1.16279">
        <ele>65</ele>
        <time>2021-05-29T12:00:10.000Z</time>
      </trkpt>
      <trkpt lat="47.34577" lon="-1.1628">
        <ele>65</ele>
        <time>2021-05-29T12:00:12.000Z</time>
      </trkpt>
      <trkpt lat="47.34593" lon="-1.16281">
        <ele>64</ele>
        <time>2021-05-29T12:00:14.000Z</time>
      </trkpt>
      <trkpt lat="47.34608" lon="-1.16287">
        <ele>64</ele>
        <time>2021-05-29T12:00:16.000Z</time>
      </trkpt>
      <trkpt lat="47.34624" lon="-1.16295">
        <ele>63</ele>
        <time>2021-05-29T12:00:18.000Z</time>
      </trkpt>
      <trkpt lat="47.34645" lon="-1.16311">
        <ele>61</ele>
        <time>2021-05-29T12:00:21.000Z</time>
      </trkpt>
      <trkpt lat="47.34659" lon="-1.16323">
        <ele>61</ele>
        <time>2021-05-29T12:00:23.000Z</time>
      </trkpt>
      <trkpt lat="47.34676" lon="-1.1634">
        <ele>61</ele>
        <time>2021-05-29T12:00:26.000Z</time>
      </trkpt>
      <trkpt lat="47.34686" lon="-1.16353">
        <ele>61</ele>
        <time>2021-05-29T12:00:28.000Z</time>
      </trkpt>
      <trkpt lat="47.34697" lon="-1.16365">
        <ele>61</ele>
        <time>2021-05-29T12:00:30.000Z</time>
      </trkpt>
      <trkpt lat="47.34709" lon="-1.16376">
        <ele>60</ele>
        <time>2021-05-29T12:00:32.000Z</time>
      </trkpt>
      <trkpt lat="47.34721" lon="-1.16386">
        <ele>60</ele>
        <time>2021-05-29T12:00:34.000Z</time>
      </trkpt>
      <trkpt lat="47.34734" lon="-1.16389">
        <ele>60</ele>
        <time>2021-05-29T12:00:36.000Z</time>
      </trkpt>
      <trkpt lat="47.34746" lon="-1.16389">
        <ele>60</ele>
        <time>2021-05-29T12:00:38.000Z</time>
      </trkpt>
      <trkpt lat="47.34758" lon="-1.16394">
        <ele>60</ele>
        <time>2021-05-29T12:00:40.000Z</time>
      </trkpt>
      <trkpt lat="47.34772" lon="-1.16382">
        <ele>57</ele>
        <time>2021-05-29T12:00:43.000Z</time>
      </trkpt>
      <trkpt lat="47.34772" lon="-1.16361">
        <ele>54</ele>
        <time>2021-05-29T12:00:45.000Z</time>
      </trkpt>
      <trkpt lat="47.34769" lon="-1.16348">
        <ele>54</ele>
        <time>2021-05-29T12:00:46.000Z</time>
      </trkpt>
      <trkpt lat="47.34764" lon="-1.16327">
        <ele>56</ele>
        <time>2021-05-29T12:00:48.000Z</time>
      </trkpt>
      <trkpt lat="47.34759" lon="-1.16294">
        <ele>55</ele>
        <time>2021-05-29T12:00:51.000Z</time>
      </trkpt>
      <trkpt lat="47.34757" lon="-1.16271">
        <ele>54</ele>
        <time>2021-05-29T12:00:53.000Z</time>
      </trkpt>
      <trkpt lat="47.34762" lon="-1.16251">
        <ele>56</ele>
        <time>2021-05-29T12:00:55.000Z</time>
      </trkpt>
      <trkpt lat="47.34777" lon="-1.16241">
        <ele>57</ele>
        <time>2021-05-29T12:00:57.000Z</time>
      </trkpt>
      <trkpt lat="47.3479" lon="-1.16238">
        <ele>58</ele>
        <time>2021-05-29T12:00:59.000Z</time>
      </trkpt>
      <trkpt lat="47.34816" lon="-1.16228">
        <ele>58</ele>
        <time>2021-05-29T12:01:03.000Z</time>
      </trkpt>
      <trkpt lat="47.34829" lon="-1.16223">
        <ele>59</ele>
        <time>2021-05-29T12:01:05.000Z</time>
      </trkpt>
      <trkpt lat="47.3484" lon="-1.16211">
        <ele>59</ele>
        <time>2021-05-29T12:01:07.000Z</time>
      </trkpt>
      <trkpt lat="47.34848" lon="-1.16195">
        <ele>60</ele>
        <time>2021-05-29T12:01:09.000Z</time>
      </trkpt>
      <trkpt lat="47.34857" lon="-1.16181">
        <ele>61</ele>
        <time>2021-05-29T12:01:11.000Z</time>
      </trkpt>
      <trkpt lat="47.34862" lon="-1.16147">
        <ele>59</ele>
        <time>2021-05-29T12:01:14.000Z</time>
      </trkpt>
      <trkpt lat="47.34865" lon="-1.16129">
        <ele>55</ele>
        <time>2021-05-29T12:01:16.000Z</time>
      </trkpt>
      <trkpt lat="47.34867" lon="-1.16113">
        <ele>57</ele>
        <time>2021-05-29T12:01:18.000Z</time>
      </trkpt>
      <trkpt lat="47.34869" lon="-1.16095">
        <ele>57</ele>
        <time>2021-05-29T12:01:20.000Z</time>
      </trkpt>
      <trkpt lat="47.34873" lon="-1.16075">
        <ele>58</ele>
        <time>2021-05-29T12:01:22.000Z</time>
      </trkpt>
      <trkpt lat="47.34878" lon="-1.16057">
        <ele>58</ele>
        <time>2021-05-29T12:01:24.000Z</time>
      </trkpt>
      <trkpt lat="47.34883" lon="-1.16039">
        <ele>58</ele>
        <time>2021-05-29T12:01:26.000Z</time>
      </trkpt>
      <trkpt lat="47.34888" lon="-1.16022">
        <ele>58</ele>
        <time>2021-05-29T12:01:28.000Z</time>
      </trkpt>
      <trkpt lat="47.34895" lon="-1.16005">
        <ele>59</ele>
        <time>2021-05-29T12:01:30.000Z</time>
      </trkpt>
      <trkpt lat="47.34903" lon="-1.1599">
        <ele>59</ele>
        <time>2021-05-29T12:01:32.000Z</time>
      </trkpt>
      <trkpt lat="47.34911" lon="-1.15978">
        <ele>60</ele>
        <time>2021-05-29T12:01:34.000Z</time>
      </trkpt>
      <trkpt lat="47.34923" lon="-1.15962">
        <ele>60</ele>
        <time>2021-05-29T12:01:37.000Z</time>
      </trkpt>
      <trkpt lat="47.34933" lon="-1.15958">
        <ele>60</ele>
        <time>2021-05-29T12:01:39.000Z</time>
      </trkpt>
      <trkpt lat="47.34945" lon="-1.15965">
        <ele>60</ele>
        <time>2021-05-29T12:01:41.000Z</time>
      </trkpt>
      <trkpt lat="47.34957" lon="-1.15971">
        <ele>60</ele>
        <time>2021-05-29T12:01:43.000Z</time>
      </trkpt>
      <trkpt lat="47.3497" lon="-1.15977">
        <ele>60</ele>
        <time>2021-05-29T12:01:45.000Z</time>
      </trkpt>
      <trkpt lat="47.34985" lon="-1.1598">
        <ele>59</ele>
        <time>2021-05-29T12:01:47.000Z</time>
      </trkpt>
      <trkpt lat="47.34997" lon="-1.15978">
        <ele>57</ele>
        <time>2021-05-29T12:01:49.000Z</time>
      </trkpt>
      <trkpt lat="47.35007" lon="-1.15967">
        <ele>58</ele>
        <time>2021-05-29T12:01:51.000Z</time>
      </trkpt>
      <trkpt lat="47.35019" lon="-1.15942">
        <ele>56</ele>
        <time>2021-05-29T12:01:54.000Z</time>
      </trkpt>
      <trkpt lat="47.35025" lon="-1.15925">
        <ele>59</ele>
        <time>2021-05-29T12:01:56.000Z</time>
      </trkpt>
      <trkpt lat="47.35031" lon="-1.15906">
        <ele>60</ele>
        <time>2021-05-29T12:01:58.000Z</time>
      </trkpt>
      <trkpt lat="47.35038" lon="-1.1589">
        <ele>59</ele>
        <time>2021-05-29T12:02:00.000Z</time>
      </trkpt>
      <trkpt lat="47.35046" lon="-1.15874">
        <ele>59</ele>
        <time>2021-05-29T12:02:02.000Z</time>
      </trkpt>
      <trkpt lat="47.35057" lon="-1.15853">
        <ele>58</ele>
        <time>2021-05-29T12:02:05.000Z</time>
      </trkpt>
      <trkpt lat="47.35065" lon="-1.15838">
        <ele>58</ele>
        <time>2021-05-29T12:02:07.000Z</time>
      </trkpt>
      <trkpt lat="47.35071" lon="-1.1582">
        <ele>58</ele>
        <time>2021-05-29T12:02:09.000Z</time>
      </trkpt>
      <trkpt lat="47.35077" lon="-1.15803">
        <ele>59</ele>
        <time>2021-05-29T12:02:11.000Z</time>
      </trkpt>
      <trkpt lat="47.35083" lon="-1.15786">
        <ele>58</ele>
        <time>2021-05-29T12:02:13.000Z</time>
      </trkpt>
      <trkpt lat="47.35093" lon="-1.15761">
        <ele>59</ele>
        <time>2021-05-29T12:02:16.000Z</time>
      </trkpt>
      <trkpt lat="47.35099" lon="-1.15745">
        <ele>59</ele>
        <time>2021-05-29T12:02:18.000Z</time>
      </trkpt>
      <trkpt lat="47.35108" lon="-1.1573">
        <ele>58</ele>
        <time>2021-05-29T12:02:20.000Z</time>
      </trkpt>
      <trkpt lat="47.35119" lon="-1.1572">
        <ele>58</ele>
        <time>2021-05-29T12:02:22.000Z</time>
      </trkpt>
      <trkpt lat="47.35132" lon="-1.15715">
        <ele>58</ele>
        <time>2021-05-29T12:02:24.000Z</time>
      </trkpt>
      <trkpt lat="47.35145" lon="-1.15713">
        <ele>59</ele>
        <time>2021-05-29T12:02:26.000Z</time>
      </trkpt>
      <trkpt lat="47.35157" lon="-1.15711">
        <ele>59</ele>
        <time>2021-05-29T12:02:28.000Z</time>
      </trkpt>
      <trkpt lat="47.3517" lon="-1.15711">
        <ele>59</ele>
        <time>2021-05-29T12:02:30.000Z</time>
      </trkpt>
      <trkpt lat="47.35184" lon="-1.15712">
        <ele>60</ele>
        <time>2021-05-29T12:02:32.000Z</time>
      </trkpt>
      <trkpt lat="47.35197" lon="-1.1571">
        <ele>61</ele>
        <time>2021-05-29T12:02:34.000Z</time>
      </trkpt>
      <trkpt lat="47.3521" lon="-1.15708">
        <ele>61</ele>
        <time>2021-05-29T12:02:36.000Z</time>
      </trkpt>
      <trkpt lat="47.35223" lon="-1.15706">
        <ele>61</ele>
        <time>2021-05-29T12:02:38.000Z</time>
      </trkpt>
      <trkpt lat="47.35237" lon="-1.15703">
        <ele>60</ele>
        <time>2021-05-29T12:02:40.000Z</time>
      </trkpt>
      <trkpt lat="47.35256" lon="-1.15701">
        <ele>61</ele>
        <time>2021-05-29T12:02:43.000Z</time>
      </trkpt>
      <trkpt lat="47.35276" lon="-1.15698">
        <ele>61</ele>
        <time>2021-05-29T12:02:46.000Z</time>
      </trkpt>
      <trkpt lat="47.35289" lon="-1.15696">
        <ele>60</ele>
        <time>2021-05-29T12:02:48.000Z</time>
      </trkpt>
      <trkpt lat="47.35302" lon="-1.15693">
        <ele>60</ele>
        <time>2021-05-29T12:02:50.000Z</time>
      </trkpt>
      <trkpt lat="47.35326" lon="-1.15683">
        <ele>60</ele>
        <time>2021-05-29T12:02:54.000Z</time>
      </trkpt>
      <trkpt lat="47.35338" lon="-1.15678">
        <ele>60</ele>
        <time>2021-05-29T12:02:56.000Z</time>
      </trkpt>
      <trkpt lat="47.3535" lon="-1.15673">
        <ele>60</ele>
        <time>2021-05-29T12:02:58.000Z</time>
      </trkpt>
      <trkpt lat="47.35363" lon="-1.15669">
        <ele>58</ele>
        <time>2021-05-29T12:03:00.000Z</time>
      </trkpt>
      <trkpt lat="47.35373" lon="-1.15661">
        <ele>58</ele>
        <time>2021-05-29T12:03:02.000Z</time>
      </trkpt>
      <trkpt lat="47.35387" lon="-1.15658">
        <ele>58</ele>
        <time>2021-05-29T12:03:04.000Z</time>
      </trkpt>
      <trkpt lat="47.35401" lon="-1.15654">
        <ele>59</ele>
        <time>2021-05-29T12:03:06.000Z</time>
      </trkpt>
      <trkpt lat="47.35414" lon="-1.15652">
        <ele>59</ele>
        <time>2021-05-29T12:03:08.000Z</time>
      </trkpt>
      <trkpt lat="47.35428" lon="-1.1565">
        <ele>59</ele>
        <time>2021-05-29T12:03:10.000Z</time>
      </trkpt>
      <trkpt lat="47.35441" lon="-1.15651">
        <ele>59</ele>
        <time>2021-05-29T12:03:12.000Z</time>
      </trkpt>
      <trkpt lat="47.35455" lon="-1.15653">
        <ele>59</ele>
        <time>2021-05-29T12:03:14.000Z</time>
      </trkpt>
      <trkpt lat="47.35468" lon="-1.15657">
        <ele>59</ele>
        <time>2021-05-29T12:03:16.000Z</time>
      </trkpt>
      <trkpt lat="47.35481" lon="-1.15662">
        <ele>59</ele>
        <time>2021-05-29T12:03:18.000Z</time>
      </trkpt>
      <trkpt lat="47.35499" lon="-1.15673">
        <ele>59</ele>
        <time>2021-05-29T12:03:21.000Z</time>
      </trkpt>
      <trkpt lat="47.35509" lon="-1.15685">
        <ele>58</ele>
        <time>2021-05-29T12:03:23.000Z</time>
      </trkpt>
      <trkpt lat="47.35519" lon="-1.15698">
        <ele>58</ele>
        <time>2021-05-29T12:03:25.000Z</time>
      </trkpt>
      <trkpt lat="47.35529" lon="-1.15713">
        <ele>58</ele>
        <time>2021-05-29T12:03:27.000Z</time>
      </trkpt>
      <trkpt lat="47.35539" lon="-1.15726">
        <ele>59</ele>
        <time>2021-05-29T12:03:29.000Z</time>
      </trkpt>
      <trkpt lat="47.35548" lon="-1.15741">
        <ele>59</ele>
        <time>2021-05-29T12:03:31.000Z</time>
      </trkpt>
      <trkpt lat="47.35556" lon="-1.15756">
        <ele>60</ele>
        <time>2021-05-29T12:03:33.000Z</time>
      </trkpt>
      <trkpt lat="47.35564" lon="-1.15771">
        <ele>60</ele>
        <time>2021-05-29T12:03:35.000Z</time>
      </trkpt>
      <trkpt lat="47.35573" lon="-1.15787">
        <ele>60</ele>
        <time>2021-05-29T12:03:37.000Z</time>
      </trkpt>
      <trkpt lat="47.35581" lon="-1.15802">
        <ele>61</ele>
        <time>2021-05-29T12:03:39.000Z</time>
      </trkpt>
      <trkpt lat="47.35589" lon="-1.15816">
        <ele>61</ele>
        <time>2021-05-29T12:03:41.000Z</time>
      </trkpt>
      <trkpt lat="47.35598" lon="-1.1583">
        <ele>61</ele>
        <time>2021-05-29T12:03:43.000Z</time>
      </trkpt>
      <trkpt lat="47.35608" lon="-1.15844">
        <ele>61</ele>
        <time>2021-05-29T12:03:45.000Z</time>
      </trkpt>
      <trkpt lat="47.35617" lon="-1.1586">
        <ele>60</ele>
        <time>2021-05-29T12:03:47.000Z</time>
      </trkpt>
      <trkpt lat="47.35632" lon="-1.15885">
        <ele>60</ele>
        <time>2021-05-29T12:03:50.000Z</time>
      </trkpt>
      <trkpt lat="47.35638" lon="-1.15901">
        <ele>59</ele>
        <time>2021-05-29T12:03:52.000Z</time>
      </trkpt>
      <trkpt lat="47.35644" lon="-1.15915">
        <ele>58</ele>
        <time>2021-05-29T12:03:54.000Z</time>
      </trkpt>
      <trkpt lat="47.35652" lon="-1.1593">
        <ele>57</ele>
        <time>2021-05-29T12:03:56.000Z</time>
      </trkpt>
      <trkpt lat="47.3566" lon="-1.15945">
        <ele>57</ele>
        <time>2021-05-29T12:03:58.000Z</time>
      </trkpt>
      <trkpt lat="47.35664" lon="-1.15964">
        <ele>57</ele>
        <time>2021-05-29T12:04:00.000Z</time>
      </trkpt>
      <trkpt lat="47.35665" lon="-1.15983">
        <ele>56</ele>
        <time>2021-05-29T12:04:02.000Z</time>
      </trkpt>
      <trkpt lat="47.35664" lon="-1.16003">
        <ele>56</ele>
        <time>2021-05-29T12:04:04.000Z</time>
      </trkpt>
      <trkpt lat="47.35661" lon="-1.16032">
        <ele>56</ele>
        <time>2021-05-29T12:04:07.000Z</time>
      </trkpt>
      <trkpt lat="47.35659" lon="-1.1605">
        <ele>56</ele>
        <time>2021-05-29T12:04:09.000Z</time>
      </trkpt>
      <trkpt lat="47.35658" lon="-1.1607">
        <ele>56</ele>
        <time>2021-05-29T12:04:11.000Z</time>
      </trkpt>
      <trkpt lat="47.35654" lon="-1.16098">
        <ele>57</ele>
        <time>2021-05-29T12:04:14.000Z</time>
      </trkpt>
      <trkpt lat="47.35649" lon="-1.16127">
        <ele>56</ele>
        <time>2021-05-29T12:04:17.000Z</time>
      </trkpt>
      <trkpt lat="47.35644" lon="-1.16145">
        <ele>55</ele>
        <time>2021-05-29T12:04:19.000Z</time>
      </trkpt>
      <trkpt lat="47.3564" lon="-1.16169">
        <ele>56</ele>
        <time>2021-05-29T12:04:22.000Z</time>
      </trkpt>
      <trkpt lat="47.35636" lon="-1.16189">
        <ele>56</ele>
        <time>2021-05-29T12:04:24.000Z</time>
      </trkpt>
      <trkpt lat="47.35635" lon="-1.16212">
        <ele>56</ele>
        <time>2021-05-29T12:04:26.000Z</time>
      </trkpt>
      <trkpt lat="47.35633" lon="-1.16231">
        <ele>56</ele>
        <time>2021-05-29T12:04:28.000Z</time>
      </trkpt>
      <trkpt lat="47.35632" lon="-1.1625">
        <ele>56</ele>
        <time>2021-05-29T12:04:30.000Z</time>
      </trkpt>
      <trkpt lat="47.35635" lon="-1.16275">
        <ele>56</ele>
        <time>2021-05-29T12:04:33.000Z</time>
      </trkpt>
      <trkpt lat="47.35637" lon="-1.16302">
        <ele>57</ele>
        <time>2021-05-29T12:04:36.000Z</time>
      </trkpt>
      <trkpt lat="47.35639" lon="-1.16324">
        <ele>57</ele>
        <time>2021-05-29T12:04:38.000Z</time>
      </trkpt>
      <trkpt lat="47.3564" lon="-1.16345">
        <ele>57</ele>
        <time>2021-05-29T12:04:40.000Z</time>
      </trkpt>
      <trkpt lat="47.35641" lon="-1.16364">
        <ele>57</ele>
        <time>2021-05-29T12:04:42.000Z</time>
      </trkpt>
      <trkpt lat="47.35641" lon="-1.16384">
        <ele>57</ele>
        <time>2021-05-29T12:04:44.000Z</time>
      </trkpt>
      <trkpt lat="47.3564" lon="-1.16402">
        <ele>57</ele>
        <time>2021-05-29T12:04:46.000Z</time>
      </trkpt>
      <trkpt lat="47.35639" lon="-1.16421">
        <ele>57</ele>
        <time>2021-05-29T12:04:48.000Z</time>
      </trkpt>
      <trkpt lat="47.35637" lon="-1.16441">
        <ele>57</ele>
        <time>2021-05-29T12:04:50.000Z</time>
      </trkpt>
      <trkpt lat="47.35635" lon="-1.1646">
        <ele>57</ele>
        <time>2021-05-29T12:04:52.000Z</time>
      </trkpt>
      <trkpt lat="47.35634" lon="-1.16481">
        <ele>56</ele>
        <time>2021-05-29T12:04:54.000Z</time>
      </trkpt>
      <trkpt lat="47.35634" lon="-1.16499">
        <ele>58</ele>
        <time>2021-05-29T12:04:56.000Z</time>
      </trkpt>
      <trkpt lat="47.35636" lon="-1.16519">
        <ele>58</ele>
        <time>2021-05-29T12:04:58.000Z</time>
      </trkpt>
      <trkpt lat="47.35639" lon="-1.16548">
        <ele>58</ele>
        <time>2021-05-29T12:05:01.000Z</time>
      </trkpt>
      <trkpt lat="47.35642" lon="-1.16566">
        <ele>58</ele>
        <time>2021-05-29T12:05:03.000Z</time>
      </trkpt>
      <trkpt lat="47.35646" lon="-1.16585">
        <ele>58</ele>
        <time>2021-05-29T12:05:05.000Z</time>
      </trkpt>
      <trkpt lat="47.3565" lon="-1.16615">
        <ele>58</ele>
        <time>2021-05-29T12:05:08.000Z</time>
      </trkpt>
      <trkpt lat="47.35653" lon="-1.16634">
        <ele>58</ele>
        <time>2021-05-29T12:05:10.000Z</time>
      </trkpt>
      <trkpt lat="47.35655" lon="-1.16653">
        <ele>58</ele>
        <time>2021-05-29T12:05:12.000Z</time>
      </trkpt>
      <trkpt lat="47.35658" lon="-1.16682">
        <ele>56</ele>
        <time>2021-05-29T12:05:15.000Z</time>
      </trkpt>
      <trkpt lat="47.35661" lon="-1.167">
        <ele>55</ele>
        <time>2021-05-29T12:05:17.000Z</time>
      </trkpt>
      <trkpt lat="47.35661" lon="-1.1672">
        <ele>55</ele>
        <time>2021-05-29T12:05:19.000Z</time>
      </trkpt>
      <trkpt lat="47.35661" lon="-1.16739">
        <ele>55</ele>
        <time>2021-05-29T12:05:21.000Z</time>
      </trkpt>
      <trkpt lat="47.35658" lon="-1.16759">
        <ele>55</ele>
        <time>2021-05-29T12:05:23.000Z</time>
      </trkpt>
      <trkpt lat="47.35654" lon="-1.16777">
        <ele>56</ele>
        <time>2021-05-29T12:05:25.000Z</time>
      </trkpt>
      <trkpt lat="47.3565" lon="-1.16796">
        <ele>56</ele>
        <time>2021-05-29T12:05:27.000Z</time>
      </trkpt>
      <trkpt lat="47.35646" lon="-1.16815">
        <ele>57</ele>
        <time>2021-05-29T12:05:29.000Z</time>
      </trkpt>
      <trkpt lat="47.35643" lon="-1.16845">
        <ele>56</ele>
        <time>2021-05-29T12:05:32.000Z</time>
      </trkpt>
      <trkpt lat="47.35642" lon="-1.16864">
        <ele>56</ele>
        <time>2021-05-29T12:05:34.000Z</time>
      </trkpt>
      <trkpt lat="47.35639" lon="-1.16882">
        <ele>56</ele>
        <time>2021-05-29T12:05:36.000Z</time>
      </trkpt>
      <trkpt lat="47.35637" lon="-1.16912">
        <ele>56</ele>
        <time>2021-05-29T12:05:39.000Z</time>
      </trkpt>
      <trkpt lat="47.35636" lon="-1.16932">
        <ele>55</ele>
        <time>2021-05-29T12:05:41.000Z</time>
      </trkpt>
      <trkpt lat="47.35638" lon="-1.16959">
        <ele>55</ele>
        <time>2021-05-29T12:05:44.000Z</time>
      </trkpt>
      <trkpt lat="47.35644" lon="-1.16987">
        <ele>56</ele>
        <time>2021-05-29T12:05:47.000Z</time>
      </trkpt>
      <trkpt lat="47.35651" lon="-1.17004">
        <ele>56</ele>
        <time>2021-05-29T12:05:49.000Z</time>
      </trkpt>
      <trkpt lat="47.35659" lon="-1.17018">
        <ele>57</ele>
        <time>2021-05-29T12:05:51.000Z</time>
      </trkpt>
      <trkpt lat="47.35667" lon="-1.17035">
        <ele>57</ele>
        <time>2021-05-29T12:05:53.000Z</time>
      </trkpt>
      <trkpt lat="47.35677" lon="-1.17058">
        <ele>58</ele>
        <time>2021-05-29T12:05:56.000Z</time>
      </trkpt>
      <trkpt lat="47.35683" lon="-1.17079">
        <ele>56</ele>
        <time>2021-05-29T12:05:58.000Z</time>
      </trkpt>
      <trkpt lat="47.3569" lon="-1.17095">
        <ele>57</ele>
        <time>2021-05-29T12:06:00.000Z</time>
      </trkpt>
      <trkpt lat="47.35698" lon="-1.17108">
        <ele>58</ele>
        <time>2021-05-29T12:06:02.000Z</time>
      </trkpt>
      <trkpt lat="47.35706" lon="-1.17121">
        <ele>59</ele>
        <time>2021-05-29T12:06:04.000Z</time>
      </trkpt>
      <trkpt lat="47.35717" lon="-1.1714">
        <ele>58</ele>
        <time>2021-05-29T12:06:07.000Z</time>
      </trkpt>
      <trkpt lat="47.35726" lon="-1.1715">
        <ele>59</ele>
        <time>2021-05-29T12:06:09.000Z</time>
      </trkpt>
      <trkpt lat="47.35735" lon="-1.1716">
        <ele>59</ele>
        <time>2021-05-29T12:06:11.000Z</time>
      </trkpt>
      <trkpt lat="47.35743" lon="-1.17172">
        <ele>59</ele>
        <time>2021-05-29T12:06:13.000Z</time>
      </trkpt>
      <trkpt lat="47.35752" lon="-1.17194">
        <ele>58</ele>
        <time>2021-05-29T12:06:16.000Z</time>
      </trkpt>
      <trkpt lat="47.35757" lon="-1.1721">
        <ele>57</ele>
        <time>2021-05-29T12:06:18.000Z</time>
      </trkpt>
      <trkpt lat="47.35763" lon="-1.17228">
        <ele>57</ele>
        <time>2021-05-29T12:06:20.000Z</time>
      </trkpt>
      <trkpt lat="47.35767" lon="-1.17247">
        <ele>53</ele>
        <time>2021-05-29T12:06:22.000Z</time>
      </trkpt>
      <trkpt lat="47.35779" lon="-1.17272">
        <ele>54</ele>
        <time>2021-05-29T12:06:25.000Z</time>
      </trkpt>
      <trkpt lat="47.35784" lon="-1.17291">
        <ele>55</ele>
        <time>2021-05-29T12:06:27.000Z</time>
      </trkpt>
      <trkpt lat="47.35788" lon="-1.17307">
        <ele>55</ele>
        <time>2021-05-29T12:06:29.000Z</time>
      </trkpt>
      <trkpt lat="47.35787" lon="-1.17321">
        <ele>52</ele>
        <time>2021-05-29T12:06:31.000Z</time>
      </trkpt>
      <trkpt lat="47.35782" lon="-1.17337">
        <ele>54</ele>
        <time>2021-05-29T12:06:33.000Z</time>
      </trkpt>
      <trkpt lat="47.35775" lon="-1.17352">
        <ele>54</ele>
        <time>2021-05-29T12:06:35.000Z</time>
      </trkpt>
      <trkpt lat="47.35769" lon="-1.17365">
        <ele>54</ele>
        <time>2021-05-29T12:06:37.000Z</time>
      </trkpt>
      <trkpt lat="47.35764" lon="-1.17378">
        <ele>55</ele>
        <time>2021-05-29T12:06:39.000Z</time>
      </trkpt>
      <trkpt lat="47.35759" lon="-1.1739">
        <ele>56</ele>
        <time>2021-05-29T12:06:41.000Z</time>
      </trkpt>
      <trkpt lat="47.35756" lon="-1.17405">
        <ele>57</ele>
        <time>2021-05-29T12:06:44.000Z</time>
      </trkpt>
      <trkpt lat="47.35762" lon="-1.17416">
        <ele>58</ele>
        <time>2021-05-29T12:06:49.000Z</time>
      </trkpt>
      <trkpt lat="47.3578" lon="-1.17427">
        <ele>58</ele>
        <time>2021-05-29T12:06:53.000Z</time>
      </trkpt>
      <trkpt lat="47.35791" lon="-1.17434">
        <ele>54</ele>
        <time>2021-05-29T12:06:55.000Z</time>
      </trkpt>
      <trkpt lat="47.35801" lon="-1.1744">
        <ele>56</ele>
        <time>2021-05-29T12:06:57.000Z</time>
      </trkpt>
      <trkpt lat="47.35814" lon="-1.17447">
        <ele>57</ele>
        <time>2021-05-29T12:06:59.000Z</time>
      </trkpt>
      <trkpt lat="47.35827" lon="-1.17452">
        <ele>57</ele>
        <time>2021-05-29T12:07:01.000Z</time>
      </trkpt>
      <trkpt lat="47.35838" lon="-1.17457">
        <ele>58</ele>
        <time>2021-05-29T12:07:03.000Z</time>
      </trkpt>
      <trkpt lat="47.35849" lon="-1.17463">
        <ele>56</ele>
        <time>2021-05-29T12:07:05.000Z</time>
      </trkpt>
      <trkpt lat="47.35859" lon="-1.17469">
        <ele>57</ele>
        <time>2021-05-29T12:07:07.000Z</time>
      </trkpt>
      <trkpt lat="47.35871" lon="-1.17473">
        <ele>57</ele>
        <time>2021-05-29T12:07:09.000Z</time>
      </trkpt>
      <trkpt lat="47.35881" lon="-1.17478">
        <ele>58</ele>
        <time>2021-05-29T12:07:11.000Z</time>
      </trkpt>
      <trkpt lat="47.35892" lon="-1.17483">
        <ele>59</ele>
        <time>2021-05-29T12:07:13.000Z</time>
      </trkpt>
      <trkpt lat="47.35904" lon="-1.1749">
        <ele>57</ele>
        <time>2021-05-29T12:07:15.000Z</time>
      </trkpt>
      <trkpt lat="47.35915" lon="-1.17497">
        <ele>56</ele>
        <time>2021-05-29T12:07:17.000Z</time>
      </trkpt>
      <trkpt lat="47.35925" lon="-1.17501">
        <ele>57</ele>
        <time>2021-05-29T12:07:19.000Z</time>
      </trkpt>
      <trkpt lat="47.35935" lon="-1.17507">
        <ele>58</ele>
        <time>2021-05-29T12:07:21.000Z</time>
      </trkpt>
      <trkpt lat="47.35946" lon="-1.17511">
        <ele>58</ele>
        <time>2021-05-29T12:07:23.000Z</time>
      </trkpt>
      <trkpt lat="47.35956" lon="-1.17517">
        <ele>59</ele>
        <time>2021-05-29T12:07:25.000Z</time>
      </trkpt>
      <trkpt lat="47.35967" lon="-1.17523">
        <ele>59</ele>
        <time>2021-05-29T12:07:27.000Z</time>
      </trkpt>
      <trkpt lat="47.35977" lon="-1.17529">
        <ele>60</ele>
        <time>2021-05-29T12:07:29.000Z</time>
      </trkpt>
      <trkpt lat="47.35987" lon="-1.17534">
        <ele>60</ele>
        <time>2021-05-29T12:07:31.000Z</time>
      </trkpt>
      <trkpt lat="47.36003" lon="-1.17543">
        <ele>60</ele>
        <time>2021-05-29T12:07:34.000Z</time>
      </trkpt>
      <trkpt lat="47.36018" lon="-1.1755">
        <ele>60</ele>
        <time>2021-05-29T12:07:37.000Z</time>
      </trkpt>
      <trkpt lat="47.36028" lon="-1.17555">
        <ele>61</ele>
        <time>2021-05-29T12:07:39.000Z</time>
      </trkpt>
      <trkpt lat="47.36045" lon="-1.17565">
        <ele>62</ele>
        <time>2021-05-29T12:07:42.000Z</time>
      </trkpt>
      <trkpt lat="47.36054" lon="-1.17571">
        <ele>60</ele>
        <time>2021-05-29T12:07:44.000Z</time>
      </trkpt>
      <trkpt lat="47.36064" lon="-1.17577">
        <ele>61</ele>
        <time>2021-05-29T12:07:46.000Z</time>
      </trkpt>
      <trkpt lat="47.36076" lon="-1.17582">
        <ele>63</ele>
        <time>2021-05-29T12:07:48.000Z</time>
      </trkpt>
      <trkpt lat="47.36088" lon="-1.17586">
        <ele>63</ele>
        <time>2021-05-29T12:07:50.000Z</time>
      </trkpt>
      <trkpt lat="47.36098" lon="-1.17591">
        <ele>61</ele>
        <time>2021-05-29T12:07:52.000Z</time>
      </trkpt>
      <trkpt lat="47.36108" lon="-1.17598">
        <ele>61</ele>
        <time>2021-05-29T12:07:54.000Z</time>
      </trkpt>
      <trkpt lat="47.36121" lon="-1.17604">
        <ele>63</ele>
        <time>2021-05-29T12:07:56.000Z</time>
      </trkpt>
      <trkpt lat="47.36132" lon="-1.17609">
        <ele>64</ele>
        <time>2021-05-29T12:07:58.000Z</time>
      </trkpt>
      <trkpt lat="47.36144" lon="-1.17615">
        <ele>61</ele>
        <time>2021-05-29T12:08:00.000Z</time>
      </trkpt>
      <trkpt lat="47.36152" lon="-1.17621">
        <ele>60</ele>
        <time>2021-05-29T12:08:02.000Z</time>
      </trkpt>
      <trkpt lat="47.36166" lon="-1.17628">
        <ele>62</ele>
        <time>2021-05-29T12:08:04.000Z</time>
      </trkpt>
      <trkpt lat="47.36178" lon="-1.17634">
        <ele>63</ele>
        <time>2021-05-29T12:08:06.000Z</time>
      </trkpt>
      <trkpt lat="47.3619" lon="-1.17641">
        <ele>64</ele>
        <time>2021-05-29T12:08:08.000Z</time>
      </trkpt>
      <trkpt lat="47.36201" lon="-1.17646">
        <ele>64</ele>
        <time>2021-05-29T12:08:10.000Z</time>
      </trkpt>
      <trkpt lat="47.36217" lon="-1.17655">
        <ele>64</ele>
        <time>2021-05-29T12:08:13.000Z</time>
      </trkpt>
      <trkpt lat="47.36227" lon="-1.17661">
        <ele>65</ele>
        <time>2021-05-29T12:08:15.000Z</time>
      </trkpt>
      <trkpt lat="47.36238" lon="-1.17668">
        <ele>64</ele>
        <time>2021-05-29T12:08:17.000Z</time>
      </trkpt>
      <trkpt lat="47.36251" lon="-1.17674">
        <ele>65</ele>
        <time>2021-05-29T12:08:19.000Z</time>
      </trkpt>
      <trkpt lat="47.36268" lon="-1.17682">
        <ele>65</ele>
        <time>2021-05-29T12:08:22.000Z</time>
      </trkpt>
      <trkpt lat="47.36279" lon="-1.17688">
        <ele>62</ele>
        <time>2021-05-29T12:08:24.000Z</time>
      </trkpt>
      <trkpt lat="47.3629" lon="-1.17693">
        <ele>62</ele>
        <time>2021-05-29T12:08:26.000Z</time>
      </trkpt>
      <trkpt lat="47.36304" lon="-1.17698">
        <ele>63</ele>
        <time>2021-05-29T12:08:28.000Z</time>
      </trkpt>
      <trkpt lat="47.36315" lon="-1.17705">
        <ele>62</ele>
        <time>2021-05-29T12:08:30.000Z</time>
      </trkpt>
      <trkpt lat="47.36326" lon="-1.17711">
        <ele>62</ele>
        <time>2021-05-29T12:08:32.000Z</time>
      </trkpt>
      <trkpt lat="47.36338" lon="-1.17719">
        <ele>62</ele>
        <time>2021-05-29T12:08:34.000Z</time>
      </trkpt>
      <trkpt lat="47.3635" lon="-1.17725">
        <ele>62</ele>
        <time>2021-05-29T12:08:36.000Z</time>
      </trkpt>
      <trkpt lat="47.36362" lon="-1.17728">
        <ele>62</ele>
        <time>2021-05-29T12:08:38.000Z</time>
      </trkpt>
      <trkpt lat="47.36365" lon="-1.17747">
        <ele>61</ele>
        <time>2021-05-29T12:08:42.000Z</time>
      </trkpt>
      <trkpt lat="47.36359" lon="-1.17759">
        <ele>64</ele>
        <time>2021-05-29T12:08:44.000Z</time>
      </trkpt>
      <trkpt lat="47.36349" lon="-1.17776">
        <ele>66</ele>
        <time>2021-05-29T12:08:46.000Z</time>
      </trkpt>
      <trkpt lat="47.36345" lon="-1.17799">
        <ele>64</ele>
        <time>2021-05-29T12:08:48.000Z</time>
      </trkpt>
      <trkpt lat="47.3634" lon="-1.17823">
        <ele>62</ele>
        <time>2021-05-29T12:08:50.000Z</time>
      </trkpt>
      <trkpt lat="47.36335" lon="-1.17846">
        <ele>62</ele>
        <time>2021-05-29T12:08:52.000Z</time>
      </trkpt>
      <trkpt lat="47.3633" lon="-1.17867">
        <ele>61</ele>
        <time>2021-05-29T12:08:54.000Z</time>
      </trkpt>
      <trkpt lat="47.36326" lon="-1.17888">
        <ele>60</ele>
        <time>2021-05-29T12:08:56.000Z</time>
      </trkpt>
      <trkpt lat="47.36325" lon="-1.17909">
        <ele>60</ele>
        <time>2021-05-29T12:08:58.000Z</time>
      </trkpt>
      <trkpt lat="47.36327" lon="-1.1793">
        <ele>60</ele>
        <time>2021-05-29T12:09:00.000Z</time>
      </trkpt>
      <trkpt lat="47.36329" lon="-1.17951">
        <ele>59</ele>
        <time>2021-05-29T12:09:02.000Z</time>
      </trkpt>
      <trkpt lat="47.3633" lon="-1.17972">
        <ele>59</ele>
        <time>2021-05-29T12:09:04.000Z</time>
      </trkpt>
      <trkpt lat="47.36332" lon="-1.17992">
        <ele>58</ele>
        <time>2021-05-29T12:09:06.000Z</time>
      </trkpt>
      <trkpt lat="47.36334" lon="-1.18013">
        <ele>59</ele>
        <time>2021-05-29T12:09:08.000Z</time>
      </trkpt>
      <trkpt lat="47.36336" lon="-1.18032">
        <ele>58</ele>
        <time>2021-05-29T12:09:10.000Z</time>
      </trkpt>
      <trkpt lat="47.36337" lon="-1.18053">
        <ele>58</ele>
        <time>2021-05-29T12:09:12.000Z</time>
      </trkpt>
      <trkpt lat="47.36339" lon="-1.18072">
        <ele>58</ele>
        <time>2021-05-29T12:09:14.000Z</time>
      </trkpt>
      <trkpt lat="47.3634" lon="-1.18092">
        <ele>58</ele>
        <time>2021-05-29T12:09:16.000Z</time>
      </trkpt>
      <trkpt lat="47.36345" lon="-1.1811">
        <ele>58</ele>
        <time>2021-05-29T12:09:18.000Z</time>
      </trkpt>
      <trkpt lat="47.36347" lon="-1.18132">
        <ele>58</ele>
        <time>2021-05-29T12:09:20.000Z</time>
      </trkpt>
      <trkpt lat="47.36348" lon="-1.18153">
        <ele>58</ele>
        <time>2021-05-29T12:09:22.000Z</time>
      </trkpt>
      <trkpt lat="47.36351" lon="-1.18171">
        <ele>58</ele>
        <time>2021-05-29T12:09:24.000Z</time>
      </trkpt>
      <trkpt lat="47.36352" lon="-1.18191">
        <ele>58</ele>
        <time>2021-05-29T12:09:26.000Z</time>
      </trkpt>
      <trkpt lat="47.36352" lon="-1.18218">
        <ele>59</ele>
        <time>2021-05-29T12:09:29.000Z</time>
      </trkpt>
      <trkpt lat="47.36352" lon="-1.18238">
        <ele>58</ele>
        <time>2021-05-29T12:09:31.000Z</time>
      </trkpt>
      <trkpt lat="47.36354" lon="-1.18257">
        <ele>57</ele>
        <time>2021-05-29T12:09:33.000Z</time>
      </trkpt>
      <trkpt lat="47.36356" lon="-1.18275">
        <ele>57</ele>
        <time>2021-05-29T12:09:35.000Z</time>
      </trkpt>
      <trkpt lat="47.3636" lon="-1.18292">
        <ele>58</ele>
        <time>2021-05-29T12:09:37.000Z</time>
      </trkpt>
      <trkpt lat="47.36358" lon="-1.18307">
        <ele>59</ele>
        <time>2021-05-29T12:09:39.000Z</time>
      </trkpt>
      <trkpt lat="47.36347" lon="-1.18309">
        <ele>58</ele>
        <time>2021-05-29T12:09:41.000Z</time>
      </trkpt>
      <trkpt lat="47.36338" lon="-1.18297">
        <ele>59</ele>
        <time>2021-05-29T12:09:43.000Z</time>
      </trkpt>
      <trkpt lat="47.36331" lon="-1.18286">
        <ele>59</ele>
        <time>2021-05-29T12:09:45.000Z</time>
      </trkpt>
      <trkpt lat="47.3633" lon="-1.18301">
        <ele>61</ele>
        <time>2021-05-29T12:09:50.000Z</time>
      </trkpt>
      <trkpt lat="47.36336" lon="-1.18315">
        <ele>62</ele>
        <time>2021-05-29T12:09:52.000Z</time>
      </trkpt>
      <trkpt lat="47.36342" lon="-1.18332">
        <ele>61</ele>
        <time>2021-05-29T12:09:54.000Z</time>
      </trkpt>
      <trkpt lat="47.36344" lon="-1.18351">
        <ele>60</ele>
        <time>2021-05-29T12:09:56.000Z</time>
      </trkpt>
      <trkpt lat="47.36342" lon="-1.18369">
        <ele>60</ele>
        <time>2021-05-29T12:09:58.000Z</time>
      </trkpt>
      <trkpt lat="47.36343" lon="-1.18389">
        <ele>60</ele>
        <time>2021-05-29T12:10:00.000Z</time>
      </trkpt>
      <trkpt lat="47.36343" lon="-1.18406">
        <ele>60</ele>
        <time>2021-05-29T12:10:02.000Z</time>
      </trkpt>
      <trkpt lat="47.36343" lon="-1.18424">
        <ele>61</ele>
        <time>2021-05-29T12:10:04.000Z</time>
      </trkpt>
      <trkpt lat="47.36344" lon="-1.18443">
        <ele>61</ele>
        <time>2021-05-29T12:10:06.000Z</time>
      </trkpt>
      <trkpt lat="47.36344" lon="-1.1846">
        <ele>61</ele>
        <time>2021-05-29T12:10:08.000Z</time>
      </trkpt>
      <trkpt lat="47.36344" lon="-1.1848">
        <ele>61</ele>
        <time>2021-05-29T12:10:11.000Z</time>
      </trkpt>
      <trkpt lat="47.36343" lon="-1.18499">
        <ele>63</ele>
        <time>2021-05-29T12:10:13.000Z</time>
      </trkpt>
      <trkpt lat="47.36344" lon="-1.18515">
        <ele>62</ele>
        <time>2021-05-29T12:10:15.000Z</time>
      </trkpt>
      <trkpt lat="47.36342" lon="-1.1854">
        <ele>63</ele>
        <time>2021-05-29T12:10:18.000Z</time>
      </trkpt>
      <trkpt lat="47.36342" lon="-1.18559">
        <ele>64</ele>
        <time>2021-05-29T12:10:20.000Z</time>
      </trkpt>
      <trkpt lat="47.36343" lon="-1.18581">
        <ele>63</ele>
        <time>2021-05-29T12:10:22.000Z</time>
      </trkpt>
      <trkpt lat="47.36346" lon="-1.18601">
        <ele>63</ele>
        <time>2021-05-29T12:10:24.000Z</time>
      </trkpt>
      <trkpt lat="47.36344" lon="-1.1862">
        <ele>61</ele>
        <time>2021-05-29T12:10:26.000Z</time>
      </trkpt>
      <trkpt lat="47.36338" lon="-1.18644">
        <ele>61</ele>
        <time>2021-05-29T12:10:29.000Z</time>
      </trkpt>
      <trkpt lat="47.36337" lon="-1.18659">
        <ele>61</ele>
        <time>2021-05-29T12:10:31.000Z</time>
      </trkpt>
      <trkpt lat="47.36336" lon="-1.18676">
        <ele>60</ele>
        <time>2021-05-29T12:10:33.000Z</time>
      </trkpt>
      <trkpt lat="47.36333" lon="-1.18694">
        <ele>59</ele>
        <time>2021-05-29T12:10:35.000Z</time>
      </trkpt>
      <trkpt lat="47.36329" lon="-1.18709">
        <ele>60</ele>
        <time>2021-05-29T12:10:37.000Z</time>
      </trkpt>
      <trkpt lat="47.36329" lon="-1.18724">
        <ele>58</ele>
        <time>2021-05-29T12:10:39.000Z</time>
      </trkpt>
      <trkpt lat="47.36333" lon="-1.18742">
        <ele>57</ele>
        <time>2021-05-29T12:10:41.000Z</time>
      </trkpt>
      <trkpt lat="47.36338" lon="-1.18755">
        <ele>57</ele>
        <time>2021-05-29T12:10:43.000Z</time>
      </trkpt>
      <trkpt lat="47.36343" lon="-1.18768">
        <ele>58</ele>
        <time>2021-05-29T12:10:45.000Z</time>
      </trkpt>
      <trkpt lat="47.36345" lon="-1.18786">
        <ele>58</ele>
        <time>2021-05-29T12:10:47.000Z</time>
      </trkpt>
      <trkpt lat="47.36345" lon="-1.18809">
        <ele>59</ele>
        <time>2021-05-29T12:10:50.000Z</time>
      </trkpt>
      <trkpt lat="47.36344" lon="-1.18828">
        <ele>59</ele>
        <time>2021-05-29T12:10:52.000Z</time>
      </trkpt>
      <trkpt lat="47.36342" lon="-1.18845">
        <ele>59</ele>
        <time>2021-05-29T12:10:54.000Z</time>
      </trkpt>
      <trkpt lat="47.36342" lon="-1.18861">
        <ele>60</ele>
        <time>2021-05-29T12:10:56.000Z</time>
      </trkpt>
      <trkpt lat="47.36343" lon="-1.1889">
        <ele>61</ele>
        <time>2021-05-29T12:10:59.000Z</time>
      </trkpt>
      <trkpt lat="47.36342" lon="-1.18915">
        <ele>60</ele>
        <time>2021-05-29T12:11:02.000Z</time>
      </trkpt>
      <trkpt lat="47.36342" lon="-1.18932">
        <ele>60</ele>
        <time>2021-05-29T12:11:04.000Z</time>
      </trkpt>
      <trkpt lat="47.36342" lon="-1.1895">
        <ele>59</ele>
        <time>2021-05-29T12:11:06.000Z</time>
      </trkpt>
      <trkpt lat="47.36341" lon="-1.18967">
        <ele>59</ele>
        <time>2021-05-29T12:11:08.000Z</time>
      </trkpt>
      <trkpt lat="47.3634" lon="-1.18986">
        <ele>59</ele>
        <time>2021-05-29T12:11:10.000Z</time>
      </trkpt>
      <trkpt lat="47.3634" lon="-1.19004">
        <ele>58</ele>
        <time>2021-05-29T12:11:12.000Z</time>
      </trkpt>
      <trkpt lat="47.36339" lon="-1.19033">
        <ele>58</ele>
        <time>2021-05-29T12:11:15.000Z</time>
      </trkpt>
      <trkpt lat="47.36339" lon="-1.19051">
        <ele>58</ele>
        <time>2021-05-29T12:11:17.000Z</time>
      </trkpt>
      <trkpt lat="47.36339" lon="-1.1907">
        <ele>58</ele>
        <time>2021-05-29T12:11:19.000Z</time>
      </trkpt>
      <trkpt lat="47.36339" lon="-1.1909">
        <ele>57</ele>
        <time>2021-05-29T12:11:21.000Z</time>
      </trkpt>
      <trkpt lat="47.36339" lon="-1.19108">
        <ele>58</ele>
        <time>2021-05-29T12:11:23.000Z</time>
      </trkpt>
      <trkpt lat="47.3634" lon="-1.19126">
        <ele>58</ele>
        <time>2021-05-29T12:11:25.000Z</time>
      </trkpt>
      <trkpt lat="47.36341" lon="-1.19144">
        <ele>58</ele>
        <time>2021-05-29T12:11:27.000Z</time>
      </trkpt>
      <trkpt lat="47.36342" lon="-1.19172">
        <ele>58</ele>
        <time>2021-05-29T12:11:30.000Z</time>
      </trkpt>
      <trkpt lat="47.36343" lon="-1.19191">
        <ele>58</ele>
        <time>2021-05-29T12:11:32.000Z</time>
      </trkpt>
      <trkpt lat="47.36344" lon="-1.1921">
        <ele>58</ele>
        <time>2021-05-29T12:11:34.000Z</time>
      </trkpt>
      <trkpt lat="47.36345" lon="-1.19229">
        <ele>58</ele>
        <time>2021-05-29T12:11:36.000Z</time>
      </trkpt>
      <trkpt lat="47.36348" lon="-1.19258">
        <ele>58</ele>
        <time>2021-05-29T12:11:39.000Z</time>
      </trkpt>
      <trkpt lat="47.36349" lon="-1.19275">
        <ele>57</ele>
        <time>2021-05-29T12:11:41.000Z</time>
      </trkpt>
      <trkpt lat="47.36349" lon="-1.19294">
        <ele>57</ele>
        <time>2021-05-29T12:11:43.000Z</time>
      </trkpt>
      <trkpt lat="47.36349" lon="-1.19312">
        <ele>57</ele>
        <time>2021-05-29T12:11:45.000Z</time>
      </trkpt>
      <trkpt lat="47.3635" lon="-1.19329">
        <ele>57</ele>
        <time>2021-05-29T12:11:47.000Z</time>
      </trkpt>
      <trkpt lat="47.36351" lon="-1.19349">
        <ele>57</ele>
        <time>2021-05-29T12:11:49.000Z</time>
      </trkpt>
      <trkpt lat="47.36351" lon="-1.19367">
        <ele>58</ele>
        <time>2021-05-29T12:11:51.000Z</time>
      </trkpt>
      <trkpt lat="47.36351" lon="-1.19386">
        <ele>58</ele>
        <time>2021-05-29T12:11:53.000Z</time>
      </trkpt>
      <trkpt lat="47.36349" lon="-1.19404">
        <ele>57</ele>
        <time>2021-05-29T12:11:55.000Z</time>
      </trkpt>
      <trkpt lat="47.36345" lon="-1.19422">
        <ele>58</ele>
        <time>2021-05-29T12:11:57.000Z</time>
      </trkpt>
      <trkpt lat="47.36341" lon="-1.19439">
        <ele>57</ele>
        <time>2021-05-29T12:11:59.000Z</time>
      </trkpt>
      <trkpt lat="47.36338" lon="-1.19457">
        <ele>58</ele>
        <time>2021-05-29T12:12:01.000Z</time>
      </trkpt>
      <trkpt lat="47.36335" lon="-1.19476">
        <ele>57</ele>
        <time>2021-05-29T12:12:03.000Z</time>
      </trkpt>
      <trkpt lat="47.36333" lon="-1.19493">
        <ele>58</ele>
        <time>2021-05-29T12:12:05.000Z</time>
      </trkpt>
      <trkpt lat="47.36327" lon="-1.19511">
        <ele>58</ele>
        <time>2021-05-29T12:12:07.000Z</time>
      </trkpt>
      <trkpt lat="47.36323" lon="-1.19531">
        <ele>57</ele>
        <time>2021-05-29T12:12:09.000Z</time>
      </trkpt>
      <trkpt lat="47.36322" lon="-1.19549">
        <ele>57</ele>
        <time>2021-05-29T12:12:11.000Z</time>
      </trkpt>
      <trkpt lat="47.3632" lon="-1.19565">
        <ele>58</ele>
        <time>2021-05-29T12:12:13.000Z</time>
      </trkpt>
      <trkpt lat="47.36318" lon="-1.19583">
        <ele>58</ele>
        <time>2021-05-29T12:12:15.000Z</time>
      </trkpt>
      <trkpt lat="47.36316" lon="-1.196">
        <ele>58</ele>
        <time>2021-05-29T12:12:17.000Z</time>
      </trkpt>
      <trkpt lat="47.36313" lon="-1.19618">
        <ele>58</ele>
        <time>2021-05-29T12:12:19.000Z</time>
      </trkpt>
      <trkpt lat="47.36311" lon="-1.19637">
        <ele>58</ele>
        <time>2021-05-29T12:12:21.000Z</time>
      </trkpt>
      <trkpt lat="47.36308" lon="-1.19655">
        <ele>57</ele>
        <time>2021-05-29T12:12:23.000Z</time>
      </trkpt>
      <trkpt lat="47.36305" lon="-1.19671">
        <ele>57</ele>
        <time>2021-05-29T12:12:25.000Z</time>
      </trkpt>
      <trkpt lat="47.36302" lon="-1.1969">
        <ele>56</ele>
        <time>2021-05-29T12:12:27.000Z</time>
      </trkpt>
      <trkpt lat="47.36298" lon="-1.19707">
        <ele>56</ele>
        <time>2021-05-29T12:12:29.000Z</time>
      </trkpt>
      <trkpt lat="47.36295" lon="-1.19723">
        <ele>55</ele>
        <time>2021-05-29T12:12:31.000Z</time>
      </trkpt>
      <trkpt lat="47.36289" lon="-1.19745">
        <ele>55</ele>
        <time>2021-05-29T12:12:34.000Z</time>
      </trkpt>
      <trkpt lat="47.36282" lon="-1.19767">
        <ele>55</ele>
        <time>2021-05-29T12:12:37.000Z</time>
      </trkpt>
      <trkpt lat="47.36276" lon="-1.19783">
        <ele>55</ele>
        <time>2021-05-29T12:12:39.000Z</time>
      </trkpt>
      <trkpt lat="47.36271" lon="-1.19799">
        <ele>56</ele>
        <time>2021-05-29T12:12:41.000Z</time>
      </trkpt>
      <trkpt lat="47.36265" lon="-1.19816">
        <ele>56</ele>
        <time>2021-05-29T12:12:43.000Z</time>
      </trkpt>
      <trkpt lat="47.36259" lon="-1.19832">
        <ele>56</ele>
        <time>2021-05-29T12:12:45.000Z</time>
      </trkpt>
      <trkpt lat="47.36252" lon="-1.19848">
        <ele>55</ele>
        <time>2021-05-29T12:12:47.000Z</time>
      </trkpt>
      <trkpt lat="47.36246" lon="-1.19865">
        <ele>55</ele>
        <time>2021-05-29T12:12:49.000Z</time>
      </trkpt>
      <trkpt lat="47.3624" lon="-1.19878">
        <ele>54</ele>
        <time>2021-05-29T12:12:51.000Z</time>
      </trkpt>
      <trkpt lat="47.36234" lon="-1.1989">
        <ele>54</ele>
        <time>2021-05-29T12:12:53.000Z</time>
      </trkpt>
      <trkpt lat="47.36226" lon="-1.19914">
        <ele>55</ele>
        <time>2021-05-29T12:12:56.000Z</time>
      </trkpt>
      <trkpt lat="47.36221" lon="-1.19931">
        <ele>56</ele>
        <time>2021-05-29T12:12:58.000Z</time>
      </trkpt>
      <trkpt lat="47.36215" lon="-1.19948">
        <ele>56</ele>
        <time>2021-05-29T12:13:00.000Z</time>
      </trkpt>
      <trkpt lat="47.36209" lon="-1.19966">
        <ele>56</ele>
        <time>2021-05-29T12:13:02.000Z</time>
      </trkpt>
      <trkpt lat="47.36204" lon="-1.19984">
        <ele>56</ele>
        <time>2021-05-29T12:13:04.000Z</time>
      </trkpt>
      <trkpt lat="47.36198" lon="-1.20001">
        <ele>56</ele>
        <time>2021-05-29T12:13:06.000Z</time>
      </trkpt>
      <trkpt lat="47.36191" lon="-1.20026">
        <ele>56</ele>
        <time>2021-05-29T12:13:09.000Z</time>
      </trkpt>
      <trkpt lat="47.36187" lon="-1.20044">
        <ele>55</ele>
        <time>2021-05-29T12:13:11.000Z</time>
      </trkpt>
      <trkpt lat="47.36184" lon="-1.20063">
        <ele>54</ele>
        <time>2021-05-29T12:13:13.000Z</time>
      </trkpt>
      <trkpt lat="47.36181" lon="-1.20082">
        <ele>55</ele>
        <time>2021-05-29T12:13:15.000Z</time>
      </trkpt>
      <trkpt lat="47.36177" lon="-1.20101">
        <ele>51</ele>
        <time>2021-05-29T12:13:17.000Z</time>
      </trkpt>
      <trkpt lat="47.36174" lon="-1.20116">
        <ele>50</ele>
        <time>2021-05-29T12:13:19.000Z</time>
      </trkpt>
      <trkpt lat="47.36169" lon="-1.20144">
        <ele>52</ele>
        <time>2021-05-29T12:13:22.000Z</time>
      </trkpt>
      <trkpt lat="47.3616" lon="-1.20168">
        <ele>52</ele>
        <time>2021-05-29T12:13:25.000Z</time>
      </trkpt>
      <trkpt lat="47.36151" lon="-1.20182">
        <ele>53</ele>
        <time>2021-05-29T12:13:27.000Z</time>
      </trkpt>
      <trkpt lat="47.3613" lon="-1.20206">
        <ele>54</ele>
        <time>2021-05-29T12:13:31.000Z</time>
      </trkpt>
      <trkpt lat="47.36118" lon="-1.20213">
        <ele>56</ele>
        <time>2021-05-29T12:13:33.000Z</time>
      </trkpt>
      <trkpt lat="47.36104" lon="-1.20213">
        <ele>57</ele>
        <time>2021-05-29T12:13:35.000Z</time>
      </trkpt>
      <trkpt lat="47.36092" lon="-1.2022">
        <ele>56</ele>
        <time>2021-05-29T12:13:37.000Z</time>
      </trkpt>
      <trkpt lat="47.36085" lon="-1.20236">
        <ele>55</ele>
        <time>2021-05-29T12:13:39.000Z</time>
      </trkpt>
      <trkpt lat="47.36082" lon="-1.20256">
        <ele>54</ele>
        <time>2021-05-29T12:13:41.000Z</time>
      </trkpt>
      <trkpt lat="47.36081" lon="-1.20275">
        <ele>53</ele>
        <time>2021-05-29T12:13:43.000Z</time>
      </trkpt>
      <trkpt lat="47.3608" lon="-1.20295">
        <ele>53</ele>
        <time>2021-05-29T12:13:45.000Z</time>
      </trkpt>
      <trkpt lat="47.36078" lon="-1.20327">
        <ele>52</ele>
        <time>2021-05-29T12:13:48.000Z</time>
      </trkpt>
      <trkpt lat="47.36078" lon="-1.20346">
        <ele>51</ele>
        <time>2021-05-29T12:13:50.000Z</time>
      </trkpt>
      <trkpt lat="47.36078" lon="-1.20364">
        <ele>51</ele>
        <time>2021-05-29T12:13:52.000Z</time>
      </trkpt>
      <trkpt lat="47.36077" lon="-1.20383">
        <ele>50</ele>
        <time>2021-05-29T12:13:54.000Z</time>
      </trkpt>
      <trkpt lat="47.36076" lon="-1.20398">
        <ele>50</ele>
        <time>2021-05-29T12:13:56.000Z</time>
      </trkpt>
      <trkpt lat="47.36077" lon="-1.20416">
        <ele>50</ele>
        <time>2021-05-29T12:13:58.000Z</time>
      </trkpt>
      <trkpt lat="47.36076" lon="-1.20441">
        <ele>51</ele>
        <time>2021-05-29T12:14:01.000Z</time>
      </trkpt>
      <trkpt lat="47.36074" lon="-1.2046">
        <ele>52</ele>
        <time>2021-05-29T12:14:03.000Z</time>
      </trkpt>
      <trkpt lat="47.36073" lon="-1.20478">
        <ele>50</ele>
        <time>2021-05-29T12:14:05.000Z</time>
      </trkpt>
      <trkpt lat="47.36075" lon="-1.20506">
        <ele>51</ele>
        <time>2021-05-29T12:14:08.000Z</time>
      </trkpt>
      <trkpt lat="47.36074" lon="-1.20525">
        <ele>52</ele>
        <time>2021-05-29T12:14:10.000Z</time>
      </trkpt>
      <trkpt lat="47.36072" lon="-1.20544">
        <ele>52</ele>
        <time>2021-05-29T12:14:12.000Z</time>
      </trkpt>
      <trkpt lat="47.36071" lon="-1.20563">
        <ele>52</ele>
        <time>2021-05-29T12:14:14.000Z</time>
      </trkpt>
      <trkpt lat="47.36068" lon="-1.20591">
        <ele>53</ele>
        <time>2021-05-29T12:14:17.000Z</time>
      </trkpt>
      <trkpt lat="47.36067" lon="-1.2061">
        <ele>53</ele>
        <time>2021-05-29T12:14:19.000Z</time>
      </trkpt>
      <trkpt lat="47.36066" lon="-1.20629">
        <ele>53</ele>
        <time>2021-05-29T12:14:21.000Z</time>
      </trkpt>
      <trkpt lat="47.36065" lon="-1.20649">
        <ele>53</ele>
        <time>2021-05-29T12:14:23.000Z</time>
      </trkpt>
      <trkpt lat="47.36065" lon="-1.20668">
        <ele>53</ele>
        <time>2021-05-29T12:14:25.000Z</time>
      </trkpt>
      <trkpt lat="47.36063" lon="-1.20686">
        <ele>53</ele>
        <time>2021-05-29T12:14:27.000Z</time>
      </trkpt>
      <trkpt lat="47.36061" lon="-1.20705">
        <ele>53</ele>
        <time>2021-05-29T12:14:29.000Z</time>
      </trkpt>
      <trkpt lat="47.36058" lon="-1.20723">
        <ele>53</ele>
        <time>2021-05-29T12:14:31.000Z</time>
      </trkpt>
      <trkpt lat="47.36056" lon="-1.20752">
        <ele>52</ele>
        <time>2021-05-29T12:14:34.000Z</time>
      </trkpt>
      <trkpt lat="47.36053" lon="-1.20771">
        <ele>49</ele>
        <time>2021-05-29T12:14:36.000Z</time>
      </trkpt>
      <trkpt lat="47.36052" lon="-1.20788">
        <ele>49</ele>
        <time>2021-05-29T12:14:38.000Z</time>
      </trkpt>
      <trkpt lat="47.36049" lon="-1.20808">
        <ele>52</ele>
        <time>2021-05-29T12:14:40.000Z</time>
      </trkpt>
      <trkpt lat="47.36045" lon="-1.20822">
        <ele>54</ele>
        <time>2021-05-29T12:14:42.000Z</time>
      </trkpt>
      <trkpt lat="47.36039" lon="-1.20849">
        <ele>57</ele>
        <time>2021-05-29T12:14:45.000Z</time>
      </trkpt>
      <trkpt lat="47.36035" lon="-1.20864">
        <ele>57</ele>
        <time>2021-05-29T12:14:47.000Z</time>
      </trkpt>
      <trkpt lat="47.36029" lon="-1.20884">
        <ele>58</ele>
        <time>2021-05-29T12:14:49.000Z</time>
      </trkpt>
      <trkpt lat="47.36018" lon="-1.20913">
        <ele>57</ele>
        <time>2021-05-29T12:14:52.000Z</time>
      </trkpt>
      <trkpt lat="47.3601" lon="-1.20931">
        <ele>56</ele>
        <time>2021-05-29T12:14:54.000Z</time>
      </trkpt>
      <trkpt lat="47.36004" lon="-1.2095">
        <ele>57</ele>
        <time>2021-05-29T12:14:56.000Z</time>
      </trkpt>
      <trkpt lat="47.35997" lon="-1.20968">
        <ele>54</ele>
        <time>2021-05-29T12:14:58.000Z</time>
      </trkpt>
      <trkpt lat="47.35993" lon="-1.20984">
        <ele>53</ele>
        <time>2021-05-29T12:15:00.000Z</time>
      </trkpt>
      <trkpt lat="47.35986" lon="-1.21002">
        <ele>54</ele>
        <time>2021-05-29T12:15:02.000Z</time>
      </trkpt>
      <trkpt lat="47.35975" lon="-1.21027">
        <ele>53</ele>
        <time>2021-05-29T12:15:05.000Z</time>
      </trkpt>
      <trkpt lat="47.35968" lon="-1.21044">
        <ele>54</ele>
        <time>2021-05-29T12:15:07.000Z</time>
      </trkpt>
      <trkpt lat="47.35961" lon="-1.21059">
        <ele>53</ele>
        <time>2021-05-29T12:15:09.000Z</time>
      </trkpt>
      <trkpt lat="47.35955" lon="-1.21075">
        <ele>54</ele>
        <time>2021-05-29T12:15:11.000Z</time>
      </trkpt>
      <trkpt lat="47.35948" lon="-1.21091">
        <ele>53</ele>
        <time>2021-05-29T12:15:13.000Z</time>
      </trkpt>
      <trkpt lat="47.35941" lon="-1.21106">
        <ele>53</ele>
        <time>2021-05-29T12:15:15.000Z</time>
      </trkpt>
      <trkpt lat="47.35935" lon="-1.21123">
        <ele>54</ele>
        <time>2021-05-29T12:15:17.000Z</time>
      </trkpt>
      <trkpt lat="47.35928" lon="-1.2114">
        <ele>54</ele>
        <time>2021-05-29T12:15:19.000Z</time>
      </trkpt>
      <trkpt lat="47.35922" lon="-1.21157">
        <ele>55</ele>
        <time>2021-05-29T12:15:21.000Z</time>
      </trkpt>
      <trkpt lat="47.3591" lon="-1.21181">
        <ele>51</ele>
        <time>2021-05-29T12:15:24.000Z</time>
      </trkpt>
      <trkpt lat="47.35903" lon="-1.212">
        <ele>53</ele>
        <time>2021-05-29T12:15:26.000Z</time>
      </trkpt>
      <trkpt lat="47.35896" lon="-1.21217">
        <ele>53</ele>
        <time>2021-05-29T12:15:28.000Z</time>
      </trkpt>
      <trkpt lat="47.35888" lon="-1.21243">
        <ele>53</ele>
        <time>2021-05-29T12:15:31.000Z</time>
      </trkpt>
      <trkpt lat="47.35879" lon="-1.21269">
        <ele>53</ele>
        <time>2021-05-29T12:15:34.000Z</time>
      </trkpt>
      <trkpt lat="47.35875" lon="-1.21286">
        <ele>54</ele>
        <time>2021-05-29T12:15:36.000Z</time>
      </trkpt>
      <trkpt lat="47.35872" lon="-1.21305">
        <ele>54</ele>
        <time>2021-05-29T12:15:38.000Z</time>
      </trkpt>
      <trkpt lat="47.3587" lon="-1.21323">
        <ele>54</ele>
        <time>2021-05-29T12:15:40.000Z</time>
      </trkpt>
      <trkpt lat="47.35866" lon="-1.21341">
        <ele>54</ele>
        <time>2021-05-29T12:15:42.000Z</time>
      </trkpt>
      <trkpt lat="47.35862" lon="-1.21359">
        <ele>54</ele>
        <time>2021-05-29T12:15:44.000Z</time>
      </trkpt>
      <trkpt lat="47.35859" lon="-1.21377">
        <ele>54</ele>
        <time>2021-05-29T12:15:46.000Z</time>
      </trkpt>
      <trkpt lat="47.35856" lon="-1.21395">
        <ele>54</ele>
        <time>2021-05-29T12:15:48.000Z</time>
      </trkpt>
      <trkpt lat="47.35851" lon="-1.21414">
        <ele>54</ele>
        <time>2021-05-29T12:15:50.000Z</time>
      </trkpt>
      <trkpt lat="47.35845" lon="-1.21441">
        <ele>54</ele>
        <time>2021-05-29T12:15:53.000Z</time>
      </trkpt>
      <trkpt lat="47.35842" lon="-1.2146">
        <ele>54</ele>
        <time>2021-05-29T12:15:55.000Z</time>
      </trkpt>
      <trkpt lat="47.35838" lon="-1.21478">
        <ele>54</ele>
        <time>2021-05-29T12:15:57.000Z</time>
      </trkpt>
      <trkpt lat="47.35833" lon="-1.21506">
        <ele>55</ele>
        <time>2021-05-29T12:16:00.000Z</time>
      </trkpt>
      <trkpt lat="47.3583" lon="-1.21524">
        <ele>55</ele>
        <time>2021-05-29T12:16:02.000Z</time>
      </trkpt>
      <trkpt lat="47.35828" lon="-1.21542">
        <ele>54</ele>
        <time>2021-05-29T12:16:04.000Z</time>
      </trkpt>
      <trkpt lat="47.35824" lon="-1.21561">
        <ele>55</ele>
        <time>2021-05-29T12:16:06.000Z</time>
      </trkpt>
      <trkpt lat="47.3582" lon="-1.2158">
        <ele>55</ele>
        <time>2021-05-29T12:16:08.000Z</time>
      </trkpt>
      <trkpt lat="47.35815" lon="-1.21598">
        <ele>54</ele>
        <time>2021-05-29T12:16:10.000Z</time>
      </trkpt>
      <trkpt lat="47.35811" lon="-1.21616">
        <ele>55</ele>
        <time>2021-05-29T12:16:12.000Z</time>
      </trkpt>
      <trkpt lat="47.35808" lon="-1.21635">
        <ele>55</ele>
        <time>2021-05-29T12:16:14.000Z</time>
      </trkpt>
      <trkpt lat="47.35804" lon="-1.21653">
        <ele>55</ele>
        <time>2021-05-29T12:16:16.000Z</time>
      </trkpt>
      <trkpt lat="47.35801" lon="-1.21672">
        <ele>55</ele>
        <time>2021-05-29T12:16:18.000Z</time>
      </trkpt>
      <trkpt lat="47.35797" lon="-1.21691">
        <ele>55</ele>
        <time>2021-05-29T12:16:20.000Z</time>
      </trkpt>
      <trkpt lat="47.35794" lon="-1.21709">
        <ele>55</ele>
        <time>2021-05-29T12:16:22.000Z</time>
      </trkpt>
      <trkpt lat="47.3579" lon="-1.21727">
        <ele>55</ele>
        <time>2021-05-29T12:16:24.000Z</time>
      </trkpt>
      <trkpt lat="47.35786" lon="-1.21746">
        <ele>55</ele>
        <time>2021-05-29T12:16:26.000Z</time>
      </trkpt>
      <trkpt lat="47.35783" lon="-1.21765">
        <ele>55</ele>
        <time>2021-05-29T12:16:28.000Z</time>
      </trkpt>
      <trkpt lat="47.35778" lon="-1.21793">
        <ele>54</ele>
        <time>2021-05-29T12:16:31.000Z</time>
      </trkpt>
      <trkpt lat="47.35774" lon="-1.21811">
        <ele>54</ele>
        <time>2021-05-29T12:16:33.000Z</time>
      </trkpt>
      <trkpt lat="47.3577" lon="-1.21831">
        <ele>54</ele>
        <time>2021-05-29T12:16:35.000Z</time>
      </trkpt>
      <trkpt lat="47.35765" lon="-1.21852">
        <ele>54</ele>
        <time>2021-05-29T12:16:37.000Z</time>
      </trkpt>
      <trkpt lat="47.35759" lon="-1.21886">
        <ele>54</ele>
        <time>2021-05-29T12:16:41.000Z</time>
      </trkpt>
      <trkpt lat="47.35758" lon="-1.21905">
        <ele>53</ele>
        <time>2021-05-29T12:16:43.000Z</time>
      </trkpt>
      <trkpt lat="47.35757" lon="-1.21926">
        <ele>53</ele>
        <time>2021-05-29T12:16:45.000Z</time>
      </trkpt>
      <trkpt lat="47.35755" lon="-1.21945">
        <ele>53</ele>
        <time>2021-05-29T12:16:47.000Z</time>
      </trkpt>
      <trkpt lat="47.35753" lon="-1.21964">
        <ele>53</ele>
        <time>2021-05-29T12:16:49.000Z</time>
      </trkpt>
      <trkpt lat="47.35751" lon="-1.21983">
        <ele>53</ele>
        <time>2021-05-29T12:16:51.000Z</time>
      </trkpt>
      <trkpt lat="47.35749" lon="-1.22003">
        <ele>53</ele>
        <time>2021-05-29T12:16:53.000Z</time>
      </trkpt>
      <trkpt lat="47.35747" lon="-1.22022">
        <ele>53</ele>
        <time>2021-05-29T12:16:55.000Z</time>
      </trkpt>
      <trkpt lat="47.35744" lon="-1.22042">
        <ele>53</ele>
        <time>2021-05-29T12:16:57.000Z</time>
      </trkpt>
      <trkpt lat="47.35743" lon="-1.22062">
        <ele>53</ele>
        <time>2021-05-29T12:16:59.000Z</time>
      </trkpt>
      <trkpt lat="47.3574" lon="-1.22083">
        <ele>53</ele>
        <time>2021-05-29T12:17:01.000Z</time>
      </trkpt>
      <trkpt lat="47.35738" lon="-1.22101">
        <ele>53</ele>
        <time>2021-05-29T12:17:03.000Z</time>
      </trkpt>
      <trkpt lat="47.35735" lon="-1.2212">
        <ele>54</ele>
        <time>2021-05-29T12:17:05.000Z</time>
      </trkpt>
      <trkpt lat="47.35733" lon="-1.22139">
        <ele>54</ele>
        <time>2021-05-29T12:17:07.000Z</time>
      </trkpt>
      <trkpt lat="47.3573" lon="-1.22158">
        <ele>54</ele>
        <time>2021-05-29T12:17:09.000Z</time>
      </trkpt>
      <trkpt lat="47.35728" lon="-1.22179">
        <ele>53</ele>
        <time>2021-05-29T12:17:11.000Z</time>
      </trkpt>
      <trkpt lat="47.35724" lon="-1.22198">
        <ele>53</ele>
        <time>2021-05-29T12:17:13.000Z</time>
      </trkpt>
      <trkpt lat="47.35722" lon="-1.22216">
        <ele>53</ele>
        <time>2021-05-29T12:17:15.000Z</time>
      </trkpt>
      <trkpt lat="47.3572" lon="-1.22235">
        <ele>54</ele>
        <time>2021-05-29T12:17:17.000Z</time>
      </trkpt>
      <trkpt lat="47.35718" lon="-1.22265">
        <ele>54</ele>
        <time>2021-05-29T12:17:20.000Z</time>
      </trkpt>
      <trkpt lat="47.35715" lon="-1.22284">
        <ele>53</ele>
        <time>2021-05-29T12:17:22.000Z</time>
      </trkpt>
      <trkpt lat="47.35713" lon="-1.22303">
        <ele>53</ele>
        <time>2021-05-29T12:17:24.000Z</time>
      </trkpt>
      <trkpt lat="47.35711" lon="-1.22322">
        <ele>53</ele>
        <time>2021-05-29T12:17:26.000Z</time>
      </trkpt>
      <trkpt lat="47.35709" lon="-1.22341">
        <ele>53</ele>
        <time>2021-05-29T12:17:28.000Z</time>
      </trkpt>
      <trkpt lat="47.35706" lon="-1.2236">
        <ele>53</ele>
        <time>2021-05-29T12:17:30.000Z</time>
      </trkpt>
      <trkpt lat="47.35708" lon="-1.22377">
        <ele>53</ele>
        <time>2021-05-29T12:17:32.000Z</time>
      </trkpt>
      <trkpt lat="47.35717" lon="-1.22391">
        <ele>53</ele>
        <time>2021-05-29T12:17:34.000Z</time>
      </trkpt>
      <trkpt lat="47.35727" lon="-1.22401">
        <ele>53</ele>
        <time>2021-05-29T12:17:36.000Z</time>
      </trkpt>
      <trkpt lat="47.35736" lon="-1.22412">
        <ele>53</ele>
        <time>2021-05-29T12:17:38.000Z</time>
      </trkpt>
      <trkpt lat="47.35739" lon="-1.2243">
        <ele>54</ele>
        <time>2021-05-29T12:17:40.000Z</time>
      </trkpt>
      <trkpt lat="47.35735" lon="-1.22447">
        <ele>54</ele>
        <time>2021-05-29T12:17:42.000Z</time>
      </trkpt>
      <trkpt lat="47.35727" lon="-1.22461">
        <ele>54</ele>
        <time>2021-05-29T12:17:44.000Z</time>
      </trkpt>
      <trkpt lat="47.3572" lon="-1.22476">
        <ele>54</ele>
        <time>2021-05-29T12:17:46.000Z</time>
      </trkpt>
      <trkpt lat="47.35708" lon="-1.22499">
        <ele>55</ele>
        <time>2021-05-29T12:17:49.000Z</time>
      </trkpt>
      <trkpt lat="47.35701" lon="-1.22514">
        <ele>55</ele>
        <time>2021-05-29T12:17:51.000Z</time>
      </trkpt>
      <trkpt lat="47.3569" lon="-1.22531">
        <ele>54</ele>
        <time>2021-05-29T12:17:53.000Z</time>
      </trkpt>
      <trkpt lat="47.35681" lon="-1.22545">
        <ele>53</ele>
        <time>2021-05-29T12:17:55.000Z</time>
      </trkpt>
      <trkpt lat="47.35669" lon="-1.22566">
        <ele>53</ele>
        <time>2021-05-29T12:17:58.000Z</time>
      </trkpt>
      <trkpt lat="47.35663" lon="-1.2258">
        <ele>54</ele>
        <time>2021-05-29T12:18:00.000Z</time>
      </trkpt>
      <trkpt lat="47.35657" lon="-1.22596">
        <ele>54</ele>
        <time>2021-05-29T12:18:02.000Z</time>
      </trkpt>
      <trkpt lat="47.35646" lon="-1.22619">
        <ele>54</ele>
        <time>2021-05-29T12:18:05.000Z</time>
      </trkpt>
      <trkpt lat="47.3564" lon="-1.22635">
        <ele>54</ele>
        <time>2021-05-29T12:18:07.000Z</time>
      </trkpt>
      <trkpt lat="47.35633" lon="-1.2265">
        <ele>54</ele>
        <time>2021-05-29T12:18:09.000Z</time>
      </trkpt>
      <trkpt lat="47.35625" lon="-1.22665">
        <ele>55</ele>
        <time>2021-05-29T12:18:11.000Z</time>
      </trkpt>
      <trkpt lat="47.35619" lon="-1.22681">
        <ele>55</ele>
        <time>2021-05-29T12:18:13.000Z</time>
      </trkpt>
      <trkpt lat="47.35611" lon="-1.22696">
        <ele>55</ele>
        <time>2021-05-29T12:18:15.000Z</time>
      </trkpt>
      <trkpt lat="47.35603" lon="-1.2271">
        <ele>55</ele>
        <time>2021-05-29T12:18:17.000Z</time>
      </trkpt>
      <trkpt lat="47.35596" lon="-1.22725">
        <ele>55</ele>
        <time>2021-05-29T12:18:19.000Z</time>
      </trkpt>
      <trkpt lat="47.35589" lon="-1.2274">
        <ele>55</ele>
        <time>2021-05-29T12:18:21.000Z</time>
      </trkpt>
      <trkpt lat="47.35581" lon="-1.22753">
        <ele>55</ele>
        <time>2021-05-29T12:18:23.000Z</time>
      </trkpt>
      <trkpt lat="47.35573" lon="-1.22766">
        <ele>55</ele>
        <time>2021-05-29T12:18:25.000Z</time>
      </trkpt>
      <trkpt lat="47.35568" lon="-1.22784">
        <ele>56</ele>
        <time>2021-05-29T12:18:28.000Z</time>
      </trkpt>
      <trkpt lat="47.35559" lon="-1.22804">
        <ele>56</ele>
        <time>2021-05-29T12:18:31.000Z</time>
      </trkpt>
      <trkpt lat="47.35548" lon="-1.22828">
        <ele>56</ele>
        <time>2021-05-29T12:18:34.000Z</time>
      </trkpt>
      <trkpt lat="47.35539" lon="-1.22843">
        <ele>56</ele>
        <time>2021-05-29T12:18:36.000Z</time>
      </trkpt>
      <trkpt lat="47.35532" lon="-1.22859">
        <ele>56</ele>
        <time>2021-05-29T12:18:38.000Z</time>
      </trkpt>
      <trkpt lat="47.35524" lon="-1.22875">
        <ele>56</ele>
        <time>2021-05-29T12:18:40.000Z</time>
      </trkpt>
      <trkpt lat="47.35516" lon="-1.22891">
        <ele>56</ele>
        <time>2021-05-29T12:18:42.000Z</time>
      </trkpt>
      <trkpt lat="47.35509" lon="-1.22907">
        <ele>56</ele>
        <time>2021-05-29T12:18:44.000Z</time>
      </trkpt>
      <trkpt lat="47.35501" lon="-1.22922">
        <ele>56</ele>
        <time>2021-05-29T12:18:46.000Z</time>
      </trkpt>
      <trkpt lat="47.35489" lon="-1.22944">
        <ele>56</ele>
        <time>2021-05-29T12:18:49.000Z</time>
      </trkpt>
      <trkpt lat="47.35479" lon="-1.22968">
        <ele>56</ele>
        <time>2021-05-29T12:18:52.000Z</time>
      </trkpt>
      <trkpt lat="47.35472" lon="-1.22984">
        <ele>56</ele>
        <time>2021-05-29T12:18:54.000Z</time>
      </trkpt>
      <trkpt lat="47.35463" lon="-1.22999">
        <ele>57</ele>
        <time>2021-05-29T12:18:56.000Z</time>
      </trkpt>
      <trkpt lat="47.35456" lon="-1.23015">
        <ele>57</ele>
        <time>2021-05-29T12:18:58.000Z</time>
      </trkpt>
      <trkpt lat="47.35447" lon="-1.2303">
        <ele>57</ele>
        <time>2021-05-29T12:19:00.000Z</time>
      </trkpt>
      <trkpt lat="47.3544" lon="-1.23046">
        <ele>57</ele>
        <time>2021-05-29T12:19:02.000Z</time>
      </trkpt>
      <trkpt lat="47.35432" lon="-1.23061">
        <ele>57</ele>
        <time>2021-05-29T12:19:04.000Z</time>
      </trkpt>
      <trkpt lat="47.35424" lon="-1.23078">
        <ele>57</ele>
        <time>2021-05-29T12:19:06.000Z</time>
      </trkpt>
      <trkpt lat="47.35416" lon="-1.23093">
        <ele>57</ele>
        <time>2021-05-29T12:19:08.000Z</time>
      </trkpt>
      <trkpt lat="47.35409" lon="-1.23109">
        <ele>57</ele>
        <time>2021-05-29T12:19:10.000Z</time>
      </trkpt>
      <trkpt lat="47.35401" lon="-1.23125">
        <ele>58</ele>
        <time>2021-05-29T12:19:12.000Z</time>
      </trkpt>
      <trkpt lat="47.35393" lon="-1.2314">
        <ele>57</ele>
        <time>2021-05-29T12:19:14.000Z</time>
      </trkpt>
      <trkpt lat="47.35385" lon="-1.23156">
        <ele>57</ele>
        <time>2021-05-29T12:19:16.000Z</time>
      </trkpt>
      <trkpt lat="47.35377" lon="-1.23171">
        <ele>58</ele>
        <time>2021-05-29T12:19:18.000Z</time>
      </trkpt>
      <trkpt lat="47.3537" lon="-1.23187">
        <ele>57</ele>
        <time>2021-05-29T12:19:20.000Z</time>
      </trkpt>
      <trkpt lat="47.35364" lon="-1.23203">
        <ele>57</ele>
        <time>2021-05-29T12:19:22.000Z</time>
      </trkpt>
      <trkpt lat="47.35357" lon="-1.23219">
        <ele>56</ele>
        <time>2021-05-29T12:19:24.000Z</time>
      </trkpt>
      <trkpt lat="47.35348" lon="-1.23243">
        <ele>57</ele>
        <time>2021-05-29T12:19:27.000Z</time>
      </trkpt>
      <trkpt lat="47.35342" lon="-1.23257">
        <ele>58</ele>
        <time>2021-05-29T12:19:29.000Z</time>
      </trkpt>
      <trkpt lat="47.35337" lon="-1.23272">
        <ele>59</ele>
        <time>2021-05-29T12:19:31.000Z</time>
      </trkpt>
      <trkpt lat="47.35332" lon="-1.23288">
        <ele>59</ele>
        <time>2021-05-29T12:19:33.000Z</time>
      </trkpt>
      <trkpt lat="47.35326" lon="-1.23304">
        <ele>59</ele>
        <time>2021-05-29T12:19:35.000Z</time>
      </trkpt>
      <trkpt lat="47.3532" lon="-1.2332">
        <ele>59</ele>
        <time>2021-05-29T12:19:37.000Z</time>
      </trkpt>
      <trkpt lat="47.35314" lon="-1.23337">
        <ele>59</ele>
        <time>2021-05-29T12:19:39.000Z</time>
      </trkpt>
      <trkpt lat="47.35308" lon="-1.23356">
        <ele>59</ele>
        <time>2021-05-29T12:19:41.000Z</time>
      </trkpt>
      <trkpt lat="47.35302" lon="-1.23374">
        <ele>59</ele>
        <time>2021-05-29T12:19:43.000Z</time>
      </trkpt>
      <trkpt lat="47.35297" lon="-1.23393">
        <ele>58</ele>
        <time>2021-05-29T12:19:45.000Z</time>
      </trkpt>
      <trkpt lat="47.35292" lon="-1.23411">
        <ele>58</ele>
        <time>2021-05-29T12:19:47.000Z</time>
      </trkpt>
      <trkpt lat="47.35287" lon="-1.23428">
        <ele>58</ele>
        <time>2021-05-29T12:19:49.000Z</time>
      </trkpt>
      <trkpt lat="47.35282" lon="-1.23446">
        <ele>59</ele>
        <time>2021-05-29T12:19:51.000Z</time>
      </trkpt>
      <trkpt lat="47.35277" lon="-1.23463">
        <ele>59</ele>
        <time>2021-05-29T12:19:53.000Z</time>
      </trkpt>
      <trkpt lat="47.35272" lon="-1.23492">
        <ele>59</ele>
        <time>2021-05-29T12:19:56.000Z</time>
      </trkpt>
      <trkpt lat="47.35265" lon="-1.23517">
        <ele>59</ele>
        <time>2021-05-29T12:19:59.000Z</time>
      </trkpt>
      <trkpt lat="47.35259" lon="-1.23534">
        <ele>59</ele>
        <time>2021-05-29T12:20:01.000Z</time>
      </trkpt>
      <trkpt lat="47.35253" lon="-1.23551">
        <ele>59</ele>
        <time>2021-05-29T12:20:03.000Z</time>
      </trkpt>
      <trkpt lat="47.35249" lon="-1.23569">
        <ele>59</ele>
        <time>2021-05-29T12:20:05.000Z</time>
      </trkpt>
      <trkpt lat="47.35244" lon="-1.23587">
        <ele>58</ele>
        <time>2021-05-29T12:20:07.000Z</time>
      </trkpt>
      <trkpt lat="47.3524" lon="-1.23603">
        <ele>58</ele>
        <time>2021-05-29T12:20:09.000Z</time>
      </trkpt>
      <trkpt lat="47.35235" lon="-1.23621">
        <ele>58</ele>
        <time>2021-05-29T12:20:11.000Z</time>
      </trkpt>
      <trkpt lat="47.35226" lon="-1.23646">
        <ele>57</ele>
        <time>2021-05-29T12:20:14.000Z</time>
      </trkpt>
      <trkpt lat="47.35221" lon="-1.23663">
        <ele>58</ele>
        <time>2021-05-29T12:20:16.000Z</time>
      </trkpt>
      <trkpt lat="47.35217" lon="-1.2368">
        <ele>58</ele>
        <time>2021-05-29T12:20:18.000Z</time>
      </trkpt>
      <trkpt lat="47.35212" lon="-1.23697">
        <ele>58</ele>
        <time>2021-05-29T12:20:20.000Z</time>
      </trkpt>
      <trkpt lat="47.35207" lon="-1.23714">
        <ele>58</ele>
        <time>2021-05-29T12:20:22.000Z</time>
      </trkpt>
      <trkpt lat="47.35203" lon="-1.2373">
        <ele>58</ele>
        <time>2021-05-29T12:20:24.000Z</time>
      </trkpt>
      <trkpt lat="47.35198" lon="-1.23746">
        <ele>58</ele>
        <time>2021-05-29T12:20:26.000Z</time>
      </trkpt>
      <trkpt lat="47.35194" lon="-1.23763">
        <ele>58</ele>
        <time>2021-05-29T12:20:28.000Z</time>
      </trkpt>
      <trkpt lat="47.35187" lon="-1.23785">
        <ele>58</ele>
        <time>2021-05-29T12:20:31.000Z</time>
      </trkpt>
      <trkpt lat="47.35182" lon="-1.23798">
        <ele>57</ele>
        <time>2021-05-29T12:20:33.000Z</time>
      </trkpt>
      <trkpt lat="47.35174" lon="-1.23813">
        <ele>57</ele>
        <time>2021-05-29T12:20:36.000Z</time>
      </trkpt>
      <trkpt lat="47.35171" lon="-1.2383">
        <ele>56</ele>
        <time>2021-05-29T12:20:39.000Z</time>
      </trkpt>
      <trkpt lat="47.35168" lon="-1.23856">
        <ele>55</ele>
        <time>2021-05-29T12:20:43.000Z</time>
      </trkpt>
      <trkpt lat="47.35161" lon="-1.23872">
        <ele>54</ele>
        <time>2021-05-29T12:20:45.000Z</time>
      </trkpt>
      <trkpt lat="47.35159" lon="-1.23889">
        <ele>55</ele>
        <time>2021-05-29T12:20:47.000Z</time>
      </trkpt>
      <trkpt lat="47.35154" lon="-1.23905">
        <ele>56</ele>
        <time>2021-05-29T12:20:49.000Z</time>
      </trkpt>
      <trkpt lat="47.35147" lon="-1.2393">
        <ele>55</ele>
        <time>2021-05-29T12:20:52.000Z</time>
      </trkpt>
      <trkpt lat="47.35142" lon="-1.23947">
        <ele>56</ele>
        <time>2021-05-29T12:20:54.000Z</time>
      </trkpt>
      <trkpt lat="47.35137" lon="-1.23964">
        <ele>55</ele>
        <time>2021-05-29T12:20:56.000Z</time>
      </trkpt>
      <trkpt lat="47.35132" lon="-1.2398">
        <ele>56</ele>
        <time>2021-05-29T12:20:58.000Z</time>
      </trkpt>
      <trkpt lat="47.35126" lon="-1.23997">
        <ele>56</ele>
        <time>2021-05-29T12:21:00.000Z</time>
      </trkpt>
      <trkpt lat="47.35121" lon="-1.24012">
        <ele>57</ele>
        <time>2021-05-29T12:21:02.000Z</time>
      </trkpt>
      <trkpt lat="47.35116" lon="-1.24026">
        <ele>58</ele>
        <time>2021-05-29T12:21:04.000Z</time>
      </trkpt>
      <trkpt lat="47.35113" lon="-1.24043">
        <ele>58</ele>
        <time>2021-05-29T12:21:06.000Z</time>
      </trkpt>
      <trkpt lat="47.3511" lon="-1.24061">
        <ele>58</ele>
        <time>2021-05-29T12:21:08.000Z</time>
      </trkpt>
      <trkpt lat="47.35105" lon="-1.2408">
        <ele>58</ele>
        <time>2021-05-29T12:21:10.000Z</time>
      </trkpt>
      <trkpt lat="47.351" lon="-1.241">
        <ele>57</ele>
        <time>2021-05-29T12:21:12.000Z</time>
      </trkpt>
      <trkpt lat="47.35095" lon="-1.24119">
        <ele>57</ele>
        <time>2021-05-29T12:21:14.000Z</time>
      </trkpt>
      <trkpt lat="47.3509" lon="-1.24138">
        <ele>57</ele>
        <time>2021-05-29T12:21:16.000Z</time>
      </trkpt>
      <trkpt lat="47.35085" lon="-1.24156">
        <ele>57</ele>
        <time>2021-05-29T12:21:18.000Z</time>
      </trkpt>
      <trkpt lat="47.35079" lon="-1.24175">
        <ele>57</ele>
        <time>2021-05-29T12:21:20.000Z</time>
      </trkpt>
      <trkpt lat="47.35075" lon="-1.24192">
        <ele>58</ele>
        <time>2021-05-29T12:21:22.000Z</time>
      </trkpt>
      <trkpt lat="47.3507" lon="-1.2421">
        <ele>58</ele>
        <time>2021-05-29T12:21:24.000Z</time>
      </trkpt>
      <trkpt lat="47.35065" lon="-1.24228">
        <ele>58</ele>
        <time>2021-05-29T12:21:26.000Z</time>
      </trkpt>
      <trkpt lat="47.35059" lon="-1.24245">
        <ele>54</ele>
        <time>2021-05-29T12:21:28.000Z</time>
      </trkpt>
      <trkpt lat="47.35054" lon="-1.24264">
        <ele>55</ele>
        <time>2021-05-29T12:21:30.000Z</time>
      </trkpt>
      <trkpt lat="47.3505" lon="-1.24282">
        <ele>55</ele>
        <time>2021-05-29T12:21:32.000Z</time>
      </trkpt>
      <trkpt lat="47.35044" lon="-1.24299">
        <ele>55</ele>
        <time>2021-05-29T12:21:34.000Z</time>
      </trkpt>
      <trkpt lat="47.35038" lon="-1.24317">
        <ele>55</ele>
        <time>2021-05-29T12:21:36.000Z</time>
      </trkpt>
      <trkpt lat="47.35031" lon="-1.24344">
        <ele>56</ele>
        <time>2021-05-29T12:21:39.000Z</time>
      </trkpt>
      <trkpt lat="47.35026" lon="-1.24362">
        <ele>56</ele>
        <time>2021-05-29T12:21:41.000Z</time>
      </trkpt>
      <trkpt lat="47.35018" lon="-1.24388">
        <ele>56</ele>
        <time>2021-05-29T12:21:44.000Z</time>
      </trkpt>
      <trkpt lat="47.35012" lon="-1.24406">
        <ele>57</ele>
        <time>2021-05-29T12:21:46.000Z</time>
      </trkpt>
      <trkpt lat="47.35006" lon="-1.24423">
        <ele>57</ele>
        <time>2021-05-29T12:21:48.000Z</time>
      </trkpt>
      <trkpt lat="47.35" lon="-1.24439">
        <ele>58</ele>
        <time>2021-05-29T12:21:50.000Z</time>
      </trkpt>
      <trkpt lat="47.34994" lon="-1.24455">
        <ele>58</ele>
        <time>2021-05-29T12:21:52.000Z</time>
      </trkpt>
      <trkpt lat="47.34988" lon="-1.24473">
        <ele>58</ele>
        <time>2021-05-29T12:21:54.000Z</time>
      </trkpt>
      <trkpt lat="47.34982" lon="-1.24489">
        <ele>59</ele>
        <time>2021-05-29T12:21:56.000Z</time>
      </trkpt>
      <trkpt lat="47.34975" lon="-1.24505">
        <ele>58</ele>
        <time>2021-05-29T12:21:58.000Z</time>
      </trkpt>
      <trkpt lat="47.3497" lon="-1.24522">
        <ele>58</ele>
        <time>2021-05-29T12:22:00.000Z</time>
      </trkpt>
      <trkpt lat="47.34962" lon="-1.24538">
        <ele>58</ele>
        <time>2021-05-29T12:22:02.000Z</time>
      </trkpt>
      <trkpt lat="47.34956" lon="-1.24553">
        <ele>58</ele>
        <time>2021-05-29T12:22:04.000Z</time>
      </trkpt>
      <trkpt lat="47.34948" lon="-1.2457">
        <ele>58</ele>
        <time>2021-05-29T12:22:06.000Z</time>
      </trkpt>
      <trkpt lat="47.34941" lon="-1.24586">
        <ele>58</ele>
        <time>2021-05-29T12:22:08.000Z</time>
      </trkpt>
      <trkpt lat="47.34934" lon="-1.24601">
        <ele>58</ele>
        <time>2021-05-29T12:22:10.000Z</time>
      </trkpt>
      <trkpt lat="47.34927" lon="-1.24616">
        <ele>58</ele>
        <time>2021-05-29T12:22:12.000Z</time>
      </trkpt>
      <trkpt lat="47.3492" lon="-1.24631">
        <ele>58</ele>
        <time>2021-05-29T12:22:14.000Z</time>
      </trkpt>
      <trkpt lat="47.34913" lon="-1.24647">
        <ele>58</ele>
        <time>2021-05-29T12:22:16.000Z</time>
      </trkpt>
      <trkpt lat="47.34906" lon="-1.24662">
        <ele>58</ele>
        <time>2021-05-29T12:22:18.000Z</time>
      </trkpt>
      <trkpt lat="47.34899" lon="-1.24678">
        <ele>58</ele>
        <time>2021-05-29T12:22:20.000Z</time>
      </trkpt>
      <trkpt lat="47.34892" lon="-1.24693">
        <ele>57</ele>
        <time>2021-05-29T12:22:22.000Z</time>
      </trkpt>
      <trkpt lat="47.34886" lon="-1.2471">
        <ele>58</ele>
        <time>2021-05-29T12:22:24.000Z</time>
      </trkpt>
      <trkpt lat="47.3488" lon="-1.24725">
        <ele>58</ele>
        <time>2021-05-29T12:22:26.000Z</time>
      </trkpt>
      <trkpt lat="47.34872" lon="-1.2474">
        <ele>58</ele>
        <time>2021-05-29T12:22:28.000Z</time>
      </trkpt>
      <trkpt lat="47.34865" lon="-1.24755">
        <ele>58</ele>
        <time>2021-05-29T12:22:30.000Z</time>
      </trkpt>
      <trkpt lat="47.34858" lon="-1.24771">
        <ele>58</ele>
        <time>2021-05-29T12:22:32.000Z</time>
      </trkpt>
      <trkpt lat="47.34852" lon="-1.24785">
        <ele>58</ele>
        <time>2021-05-29T12:22:34.000Z</time>
      </trkpt>
      <trkpt lat="47.34846" lon="-1.248">
        <ele>58</ele>
        <time>2021-05-29T12:22:36.000Z</time>
      </trkpt>
      <trkpt lat="47.34841" lon="-1.24815">
        <ele>59</ele>
        <time>2021-05-29T12:22:38.000Z</time>
      </trkpt>
      <trkpt lat="47.34834" lon="-1.24828">
        <ele>60</ele>
        <time>2021-05-29T12:22:40.000Z</time>
      </trkpt>
      <trkpt lat="47.34829" lon="-1.24843">
        <ele>60</ele>
        <time>2021-05-29T12:22:42.000Z</time>
      </trkpt>
      <trkpt lat="47.3482" lon="-1.24866">
        <ele>60</ele>
        <time>2021-05-29T12:22:45.000Z</time>
      </trkpt>
      <trkpt lat="47.34814" lon="-1.24882">
        <ele>60</ele>
        <time>2021-05-29T12:22:47.000Z</time>
      </trkpt>
      <trkpt lat="47.34809" lon="-1.24897">
        <ele>60</ele>
        <time>2021-05-29T12:22:49.000Z</time>
      </trkpt>
      <trkpt lat="47.34804" lon="-1.24913">
        <ele>60</ele>
        <time>2021-05-29T12:22:51.000Z</time>
      </trkpt>
      <trkpt lat="47.34796" lon="-1.24938">
        <ele>60</ele>
        <time>2021-05-29T12:22:54.000Z</time>
      </trkpt>
      <trkpt lat="47.34792" lon="-1.24956">
        <ele>60</ele>
        <time>2021-05-29T12:22:56.000Z</time>
      </trkpt>
      <trkpt lat="47.34788" lon="-1.24972">
        <ele>60</ele>
        <time>2021-05-29T12:22:58.000Z</time>
      </trkpt>
      <trkpt lat="47.34783" lon="-1.24988">
        <ele>60</ele>
        <time>2021-05-29T12:23:00.000Z</time>
      </trkpt>
      <trkpt lat="47.34778" lon="-1.25005">
        <ele>60</ele>
        <time>2021-05-29T12:23:02.000Z</time>
      </trkpt>
      <trkpt lat="47.34774" lon="-1.2502">
        <ele>61</ele>
        <time>2021-05-29T12:23:04.000Z</time>
      </trkpt>
      <trkpt lat="47.34769" lon="-1.25036">
        <ele>60</ele>
        <time>2021-05-29T12:23:06.000Z</time>
      </trkpt>
      <trkpt lat="47.34763" lon="-1.25062">
        <ele>59</ele>
        <time>2021-05-29T12:23:09.000Z</time>
      </trkpt>
      <trkpt lat="47.34757" lon="-1.25092">
        <ele>59</ele>
        <time>2021-05-29T12:23:12.000Z</time>
      </trkpt>
      <trkpt lat="47.34752" lon="-1.2511">
        <ele>59</ele>
        <time>2021-05-29T12:23:14.000Z</time>
      </trkpt>
      <trkpt lat="47.34748" lon="-1.25129">
        <ele>59</ele>
        <time>2021-05-29T12:23:16.000Z</time>
      </trkpt>
      <trkpt lat="47.34743" lon="-1.25158">
        <ele>58</ele>
        <time>2021-05-29T12:23:19.000Z</time>
      </trkpt>
      <trkpt lat="47.34739" lon="-1.25176">
        <ele>58</ele>
        <time>2021-05-29T12:23:21.000Z</time>
      </trkpt>
      <trkpt lat="47.34737" lon="-1.25194">
        <ele>58</ele>
        <time>2021-05-29T12:23:23.000Z</time>
      </trkpt>
      <trkpt lat="47.34735" lon="-1.25213">
        <ele>57</ele>
        <time>2021-05-29T12:23:25.000Z</time>
      </trkpt>
      <trkpt lat="47.34732" lon="-1.25231">
        <ele>57</ele>
        <time>2021-05-29T12:23:27.000Z</time>
      </trkpt>
      <trkpt lat="47.3473" lon="-1.25249">
        <ele>57</ele>
        <time>2021-05-29T12:23:29.000Z</time>
      </trkpt>
      <trkpt lat="47.34728" lon="-1.25266">
        <ele>56</ele>
        <time>2021-05-29T12:23:31.000Z</time>
      </trkpt>
      <trkpt lat="47.34726" lon="-1.25283">
        <ele>56</ele>
        <time>2021-05-29T12:23:33.000Z</time>
      </trkpt>
      <trkpt lat="47.34724" lon="-1.25299">
        <ele>55</ele>
        <time>2021-05-29T12:23:35.000Z</time>
      </trkpt>
      <trkpt lat="47.3472" lon="-1.25314">
        <ele>55</ele>
        <time>2021-05-29T12:23:37.000Z</time>
      </trkpt>
      <trkpt lat="47.34716" lon="-1.25329">
        <ele>55</ele>
        <time>2021-05-29T12:23:39.000Z</time>
      </trkpt>
      <trkpt lat="47.34715" lon="-1.25342">
        <ele>55</ele>
        <time>2021-05-29T12:23:41.000Z</time>
      </trkpt>
      <trkpt lat="47.34723" lon="-1.25354">
        <ele>55</ele>
        <time>2021-05-29T12:23:44.000Z</time>
      </trkpt>
      <trkpt lat="47.34737" lon="-1.25357">
        <ele>56</ele>
        <time>2021-05-29T12:23:47.000Z</time>
      </trkpt>
      <trkpt lat="47.34748" lon="-1.25357">
        <ele>56</ele>
        <time>2021-05-29T12:23:49.000Z</time>
      </trkpt>
      <trkpt lat="47.34759" lon="-1.25357">
        <ele>56</ele>
        <time>2021-05-29T12:23:51.000Z</time>
      </trkpt>
      <trkpt lat="47.3477" lon="-1.25357">
        <ele>56</ele>
        <time>2021-05-29T12:23:53.000Z</time>
      </trkpt>
      <trkpt lat="47.34786" lon="-1.25355">
        <ele>57</ele>
        <time>2021-05-29T12:23:56.000Z</time>
      </trkpt>
      <trkpt lat="47.34795" lon="-1.25362">
        <ele>57</ele>
        <time>2021-05-29T12:23:58.000Z</time>
      </trkpt>
      <trkpt lat="47.34797" lon="-1.25378">
        <ele>58</ele>
        <time>2021-05-29T12:24:00.000Z</time>
      </trkpt>
      <trkpt lat="47.34797" lon="-1.25392">
        <ele>58</ele>
        <time>2021-05-29T12:24:02.000Z</time>
      </trkpt>
      <trkpt lat="47.34795" lon="-1.25409">
        <ele>57</ele>
        <time>2021-05-29T12:24:04.000Z</time>
      </trkpt>
      <trkpt lat="47.34793" lon="-1.25427">
        <ele>56</ele>
        <time>2021-05-29T12:24:06.000Z</time>
      </trkpt>
      <trkpt lat="47.34792" lon="-1.25446">
        <ele>55</ele>
        <time>2021-05-29T12:24:08.000Z</time>
      </trkpt>
      <trkpt lat="47.34792" lon="-1.25465">
        <ele>54</ele>
        <time>2021-05-29T12:24:10.000Z</time>
      </trkpt>
      <trkpt lat="47.34792" lon="-1.25484">
        <ele>55</ele>
        <time>2021-05-29T12:24:12.000Z</time>
      </trkpt>
      <trkpt lat="47.34791" lon="-1.25513">
        <ele>54</ele>
        <time>2021-05-29T12:24:15.000Z</time>
      </trkpt>
      <trkpt lat="47.34787" lon="-1.25539">
        <ele>55</ele>
        <time>2021-05-29T12:24:18.000Z</time>
      </trkpt>
      <trkpt lat="47.34783" lon="-1.25556">
        <ele>55</ele>
        <time>2021-05-29T12:24:20.000Z</time>
      </trkpt>
      <trkpt lat="47.34779" lon="-1.25575">
        <ele>56</ele>
        <time>2021-05-29T12:24:22.000Z</time>
      </trkpt>
      <trkpt lat="47.34775" lon="-1.25593">
        <ele>56</ele>
        <time>2021-05-29T12:24:24.000Z</time>
      </trkpt>
      <trkpt lat="47.34772" lon="-1.25611">
        <ele>55</ele>
        <time>2021-05-29T12:24:26.000Z</time>
      </trkpt>
      <trkpt lat="47.34769" lon="-1.25629">
        <ele>55</ele>
        <time>2021-05-29T12:24:28.000Z</time>
      </trkpt>
      <trkpt lat="47.34768" lon="-1.25648">
        <ele>55</ele>
        <time>2021-05-29T12:24:30.000Z</time>
      </trkpt>
      <trkpt lat="47.34769" lon="-1.25666">
        <ele>54</ele>
        <time>2021-05-29T12:24:32.000Z</time>
      </trkpt>
      <trkpt lat="47.34772" lon="-1.25688">
        <ele>54</ele>
        <time>2021-05-29T12:24:34.000Z</time>
      </trkpt>
      <trkpt lat="47.34773" lon="-1.25705">
        <ele>54</ele>
        <time>2021-05-29T12:24:36.000Z</time>
      </trkpt>
      <trkpt lat="47.34773" lon="-1.25721">
        <ele>54</ele>
        <time>2021-05-29T12:24:38.000Z</time>
      </trkpt>
      <trkpt lat="47.34775" lon="-1.25738">
        <ele>54</ele>
        <time>2021-05-29T12:24:40.000Z</time>
      </trkpt>
      <trkpt lat="47.34778" lon="-1.25757">
        <ele>54</ele>
        <time>2021-05-29T12:24:42.000Z</time>
      </trkpt>
      <trkpt lat="47.34782" lon="-1.25773">
        <ele>54</ele>
        <time>2021-05-29T12:24:44.000Z</time>
      </trkpt>
      <trkpt lat="47.34786" lon="-1.2579">
        <ele>53</ele>
        <time>2021-05-29T12:24:46.000Z</time>
      </trkpt>
      <trkpt lat="47.34789" lon="-1.25808">
        <ele>54</ele>
        <time>2021-05-29T12:24:48.000Z</time>
      </trkpt>
      <trkpt lat="47.34792" lon="-1.25825">
        <ele>53</ele>
        <time>2021-05-29T12:24:50.000Z</time>
      </trkpt>
      <trkpt lat="47.34796" lon="-1.25843">
        <ele>53</ele>
        <time>2021-05-29T12:24:52.000Z</time>
      </trkpt>
      <trkpt lat="47.348" lon="-1.2586">
        <ele>53</ele>
        <time>2021-05-29T12:24:54.000Z</time>
      </trkpt>
      <trkpt lat="47.34803" lon="-1.25878">
        <ele>53</ele>
        <time>2021-05-29T12:24:56.000Z</time>
      </trkpt>
      <trkpt lat="47.34807" lon="-1.25896">
        <ele>53</ele>
        <time>2021-05-29T12:24:58.000Z</time>
      </trkpt>
      <trkpt lat="47.3481" lon="-1.25914">
        <ele>53</ele>
        <time>2021-05-29T12:25:00.000Z</time>
      </trkpt>
      <trkpt lat="47.34813" lon="-1.25932">
        <ele>52</ele>
        <time>2021-05-29T12:25:02.000Z</time>
      </trkpt>
      <trkpt lat="47.34815" lon="-1.25953">
        <ele>51</ele>
        <time>2021-05-29T12:25:04.000Z</time>
      </trkpt>
      <trkpt lat="47.34823" lon="-1.25973">
        <ele>60</ele>
        <time>2021-05-29T12:25:07.000Z</time>
      </trkpt>
      <trkpt lat="47.34826" lon="-1.25992">
        <ele>64</ele>
        <time>2021-05-29T12:25:09.000Z</time>
      </trkpt>
      <trkpt lat="47.34829" lon="-1.26013">
        <ele>59</ele>
        <time>2021-05-29T12:25:11.000Z</time>
      </trkpt>
      <trkpt lat="47.34835" lon="-1.2604">
        <ele>55</ele>
        <time>2021-05-29T12:25:14.000Z</time>
      </trkpt>
      <trkpt lat="47.34839" lon="-1.26057">
        <ele>56</ele>
        <time>2021-05-29T12:25:16.000Z</time>
      </trkpt>
      <trkpt lat="47.34844" lon="-1.26074">
        <ele>55</ele>
        <time>2021-05-29T12:25:18.000Z</time>
      </trkpt>
      <trkpt lat="47.3485" lon="-1.26093">
        <ele>50</ele>
        <time>2021-05-29T12:25:20.000Z</time>
      </trkpt>
      <trkpt lat="47.34856" lon="-1.2611">
        <ele>46</ele>
        <time>2021-05-29T12:25:22.000Z</time>
      </trkpt>
      <trkpt lat="47.34862" lon="-1.26125">
        <ele>47</ele>
        <time>2021-05-29T12:25:24.000Z</time>
      </trkpt>
      <trkpt lat="47.34867" lon="-1.26141">
        <ele>50</ele>
        <time>2021-05-29T12:25:26.000Z</time>
      </trkpt>
      <trkpt lat="47.34873" lon="-1.26158">
        <ele>50</ele>
        <time>2021-05-29T12:25:28.000Z</time>
      </trkpt>
      <trkpt lat="47.34879" lon="-1.26175">
        <ele>50</ele>
        <time>2021-05-29T12:25:30.000Z</time>
      </trkpt>
      <trkpt lat="47.34888" lon="-1.26201">
        <ele>51</ele>
        <time>2021-05-29T12:25:33.000Z</time>
      </trkpt>
      <trkpt lat="47.34894" lon="-1.26217">
        <ele>53</ele>
        <time>2021-05-29T12:25:35.000Z</time>
      </trkpt>
      <trkpt lat="47.34899" lon="-1.26233">
        <ele>54</ele>
        <time>2021-05-29T12:25:37.000Z</time>
      </trkpt>
      <trkpt lat="47.34905" lon="-1.26249">
        <ele>55</ele>
        <time>2021-05-29T12:25:39.000Z</time>
      </trkpt>
      <trkpt lat="47.34912" lon="-1.26273">
        <ele>55</ele>
        <time>2021-05-29T12:25:42.000Z</time>
      </trkpt>
      <trkpt lat="47.34915" lon="-1.2629">
        <ele>55</ele>
        <time>2021-05-29T12:25:44.000Z</time>
      </trkpt>
      <trkpt lat="47.34916" lon="-1.26306">
        <ele>52</ele>
        <time>2021-05-29T12:25:46.000Z</time>
      </trkpt>
      <trkpt lat="47.34919" lon="-1.26319">
        <ele>51</ele>
        <time>2021-05-29T12:25:48.000Z</time>
      </trkpt>
      <trkpt lat="47.34921" lon="-1.26339">
        <ele>52</ele>
        <time>2021-05-29T12:25:50.000Z</time>
      </trkpt>
      <trkpt lat="47.34922" lon="-1.26359">
        <ele>54</ele>
        <time>2021-05-29T12:25:52.000Z</time>
      </trkpt>
      <trkpt lat="47.34924" lon="-1.26386">
        <ele>55</ele>
        <time>2021-05-29T12:25:55.000Z</time>
      </trkpt>
      <trkpt lat="47.34925" lon="-1.26404">
        <ele>56</ele>
        <time>2021-05-29T12:25:57.000Z</time>
      </trkpt>
      <trkpt lat="47.34927" lon="-1.26421">
        <ele>56</ele>
        <time>2021-05-29T12:25:59.000Z</time>
      </trkpt>
      <trkpt lat="47.34928" lon="-1.26438">
        <ele>57</ele>
        <time>2021-05-29T12:26:01.000Z</time>
      </trkpt>
      <trkpt lat="47.34929" lon="-1.26455">
        <ele>58</ele>
        <time>2021-05-29T12:26:03.000Z</time>
      </trkpt>
      <trkpt lat="47.34931" lon="-1.26473">
        <ele>58</ele>
        <time>2021-05-29T12:26:05.000Z</time>
      </trkpt>
      <trkpt lat="47.34933" lon="-1.26491">
        <ele>58</ele>
        <time>2021-05-29T12:26:07.000Z</time>
      </trkpt>
      <trkpt lat="47.34934" lon="-1.26508">
        <ele>59</ele>
        <time>2021-05-29T12:26:09.000Z</time>
      </trkpt>
      <trkpt lat="47.34937" lon="-1.26525">
        <ele>59</ele>
        <time>2021-05-29T12:26:11.000Z</time>
      </trkpt>
      <trkpt lat="47.34939" lon="-1.26541">
        <ele>59</ele>
        <time>2021-05-29T12:26:13.000Z</time>
      </trkpt>
      <trkpt lat="47.34942" lon="-1.26564">
        <ele>58</ele>
        <time>2021-05-29T12:26:16.000Z</time>
      </trkpt>
      <trkpt lat="47.34945" lon="-1.2658">
        <ele>57</ele>
        <time>2021-05-29T12:26:18.000Z</time>
      </trkpt>
      <trkpt lat="47.34949" lon="-1.26598">
        <ele>58</ele>
        <time>2021-05-29T12:26:20.000Z</time>
      </trkpt>
      <trkpt lat="47.34951" lon="-1.26621">
        <ele>58</ele>
        <time>2021-05-29T12:26:23.000Z</time>
      </trkpt>
      <trkpt lat="47.34952" lon="-1.26641">
        <ele>58</ele>
        <time>2021-05-29T12:26:26.000Z</time>
      </trkpt>
      <trkpt lat="47.34942" lon="-1.26662">
        <ele>57</ele>
        <time>2021-05-29T12:26:29.000Z</time>
      </trkpt>
      <trkpt lat="47.34927" lon="-1.26676">
        <ele>56</ele>
        <time>2021-05-29T12:26:31.000Z</time>
      </trkpt>
      <trkpt lat="47.34912" lon="-1.26691">
        <ele>55</ele>
        <time>2021-05-29T12:26:33.000Z</time>
      </trkpt>
      <trkpt lat="47.34888" lon="-1.26708">
        <ele>52</ele>
        <time>2021-05-29T12:26:36.000Z</time>
      </trkpt>
      <trkpt lat="47.3488" lon="-1.26714">
        <ele>51</ele>
        <time>2021-05-29T12:26:37.000Z</time>
      </trkpt>
      <trkpt lat="47.34867" lon="-1.26727">
        <ele>51</ele>
        <time>2021-05-29T12:26:39.000Z</time>
      </trkpt>
      <trkpt lat="47.34855" lon="-1.2674">
        <ele>51</ele>
        <time>2021-05-29T12:26:41.000Z</time>
      </trkpt>
      <trkpt lat="47.34843" lon="-1.26752">
        <ele>52</ele>
        <time>2021-05-29T12:26:43.000Z</time>
      </trkpt>
      <trkpt lat="47.34832" lon="-1.26766">
        <ele>51</ele>
        <time>2021-05-29T12:26:45.000Z</time>
      </trkpt>
      <trkpt lat="47.34823" lon="-1.26782">
        <ele>50</ele>
        <time>2021-05-29T12:26:47.000Z</time>
      </trkpt>
      <trkpt lat="47.34819" lon="-1.268">
        <ele>52</ele>
        <time>2021-05-29T12:26:49.000Z</time>
      </trkpt>
      <trkpt lat="47.34818" lon="-1.26819">
        <ele>52</ele>
        <time>2021-05-29T12:26:51.000Z</time>
      </trkpt>
      <trkpt lat="47.34816" lon="-1.26839">
        <ele>52</ele>
        <time>2021-05-29T12:26:53.000Z</time>
      </trkpt>
      <trkpt lat="47.34813" lon="-1.26859">
        <ele>52</ele>
        <time>2021-05-29T12:26:55.000Z</time>
      </trkpt>
      <trkpt lat="47.3481" lon="-1.26889">
        <ele>52</ele>
        <time>2021-05-29T12:26:58.000Z</time>
      </trkpt>
      <trkpt lat="47.34806" lon="-1.26909">
        <ele>53</ele>
        <time>2021-05-29T12:27:00.000Z</time>
      </trkpt>
      <trkpt lat="47.34801" lon="-1.26929">
        <ele>52</ele>
        <time>2021-05-29T12:27:02.000Z</time>
      </trkpt>
      <trkpt lat="47.34798" lon="-1.26949">
        <ele>52</ele>
        <time>2021-05-29T12:27:04.000Z</time>
      </trkpt>
      <trkpt lat="47.34796" lon="-1.2697">
        <ele>53</ele>
        <time>2021-05-29T12:27:06.000Z</time>
      </trkpt>
      <trkpt lat="47.3479" lon="-1.26999">
        <ele>53</ele>
        <time>2021-05-29T12:27:09.000Z</time>
      </trkpt>
      <trkpt lat="47.34785" lon="-1.27028">
        <ele>53</ele>
        <time>2021-05-29T12:27:12.000Z</time>
      </trkpt>
      <trkpt lat="47.34782" lon="-1.27047">
        <ele>53</ele>
        <time>2021-05-29T12:27:14.000Z</time>
      </trkpt>
      <trkpt lat="47.34779" lon="-1.27066">
        <ele>53</ele>
        <time>2021-05-29T12:27:16.000Z</time>
      </trkpt>
      <trkpt lat="47.34776" lon="-1.27084">
        <ele>52</ele>
        <time>2021-05-29T12:27:18.000Z</time>
      </trkpt>
      <trkpt lat="47.34777" lon="-1.27104">
        <ele>54</ele>
        <time>2021-05-29T12:27:20.000Z</time>
      </trkpt>
      <trkpt lat="47.34775" lon="-1.27133">
        <ele>55</ele>
        <time>2021-05-29T12:27:23.000Z</time>
      </trkpt>
      <trkpt lat="47.34773" lon="-1.27151">
        <ele>56</ele>
        <time>2021-05-29T12:27:25.000Z</time>
      </trkpt>
      <trkpt lat="47.34771" lon="-1.2717">
        <ele>56</ele>
        <time>2021-05-29T12:27:27.000Z</time>
      </trkpt>
      <trkpt lat="47.34769" lon="-1.27188">
        <ele>56</ele>
        <time>2021-05-29T12:27:29.000Z</time>
      </trkpt>
      <trkpt lat="47.34767" lon="-1.27207">
        <ele>56</ele>
        <time>2021-05-29T12:27:31.000Z</time>
      </trkpt>
      <trkpt lat="47.34767" lon="-1.27225">
        <ele>55</ele>
        <time>2021-05-29T12:27:33.000Z</time>
      </trkpt>
      <trkpt lat="47.34765" lon="-1.27246">
        <ele>55</ele>
        <time>2021-05-29T12:27:35.000Z</time>
      </trkpt>
      <trkpt lat="47.34763" lon="-1.27264">
        <ele>55</ele>
        <time>2021-05-29T12:27:37.000Z</time>
      </trkpt>
      <trkpt lat="47.3476" lon="-1.27295">
        <ele>52</ele>
        <time>2021-05-29T12:27:40.000Z</time>
      </trkpt>
      <trkpt lat="47.34758" lon="-1.27322">
        <ele>54</ele>
        <time>2021-05-29T12:27:43.000Z</time>
      </trkpt>
      <trkpt lat="47.34755" lon="-1.27349">
        <ele>54</ele>
        <time>2021-05-29T12:27:46.000Z</time>
      </trkpt>
      <trkpt lat="47.34754" lon="-1.27368">
        <ele>54</ele>
        <time>2021-05-29T12:27:48.000Z</time>
      </trkpt>
      <trkpt lat="47.34751" lon="-1.27398">
        <ele>54</ele>
        <time>2021-05-29T12:27:51.000Z</time>
      </trkpt>
      <trkpt lat="47.34749" lon="-1.27418">
        <ele>53</ele>
        <time>2021-05-29T12:27:53.000Z</time>
      </trkpt>
      <trkpt lat="47.34746" lon="-1.27435">
        <ele>51</ele>
        <time>2021-05-29T12:27:55.000Z</time>
      </trkpt>
      <trkpt lat="47.34744" lon="-1.27455">
        <ele>52</ele>
        <time>2021-05-29T12:27:57.000Z</time>
      </trkpt>
      <trkpt lat="47.34742" lon="-1.27477">
        <ele>52</ele>
        <time>2021-05-29T12:27:59.000Z</time>
      </trkpt>
      <trkpt lat="47.3474" lon="-1.27498">
        <ele>53</ele>
        <time>2021-05-29T12:28:01.000Z</time>
      </trkpt>
      <trkpt lat="47.34737" lon="-1.27519">
        <ele>53</ele>
        <time>2021-05-29T12:28:03.000Z</time>
      </trkpt>
      <trkpt lat="47.34735" lon="-1.27539">
        <ele>53</ele>
        <time>2021-05-29T12:28:05.000Z</time>
      </trkpt>
      <trkpt lat="47.34733" lon="-1.27559">
        <ele>53</ele>
        <time>2021-05-29T12:28:07.000Z</time>
      </trkpt>
      <trkpt lat="47.34732" lon="-1.27578">
        <ele>53</ele>
        <time>2021-05-29T12:28:09.000Z</time>
      </trkpt>
      <trkpt lat="47.3473" lon="-1.27607">
        <ele>53</ele>
        <time>2021-05-29T12:28:12.000Z</time>
      </trkpt>
      <trkpt lat="47.34725" lon="-1.27626">
        <ele>51</ele>
        <time>2021-05-29T12:28:14.000Z</time>
      </trkpt>
      <trkpt lat="47.34726" lon="-1.27645">
        <ele>51</ele>
        <time>2021-05-29T12:28:16.000Z</time>
      </trkpt>
      <trkpt lat="47.34728" lon="-1.27662">
        <ele>54</ele>
        <time>2021-05-29T12:28:18.000Z</time>
      </trkpt>
      <trkpt lat="47.3473" lon="-1.27681">
        <ele>56</ele>
        <time>2021-05-29T12:28:20.000Z</time>
      </trkpt>
      <trkpt lat="47.34727" lon="-1.277">
        <ele>56</ele>
        <time>2021-05-29T12:28:22.000Z</time>
      </trkpt>
      <trkpt lat="47.34725" lon="-1.27718">
        <ele>54</ele>
        <time>2021-05-29T12:28:24.000Z</time>
      </trkpt>
      <trkpt lat="47.34723" lon="-1.27741">
        <ele>58</ele>
        <time>2021-05-29T12:28:27.000Z</time>
      </trkpt>
      <trkpt lat="47.34716" lon="-1.27769">
        <ele>58</ele>
        <time>2021-05-29T12:28:30.000Z</time>
      </trkpt>
      <trkpt lat="47.34712" lon="-1.27786">
        <ele>59</ele>
        <time>2021-05-29T12:28:32.000Z</time>
      </trkpt>
      <trkpt lat="47.34708" lon="-1.27807">
        <ele>60</ele>
        <time>2021-05-29T12:28:34.000Z</time>
      </trkpt>
      <trkpt lat="47.34706" lon="-1.27826">
        <ele>60</ele>
        <time>2021-05-29T12:28:36.000Z</time>
      </trkpt>
      <trkpt lat="47.34704" lon="-1.27842">
        <ele>58</ele>
        <time>2021-05-29T12:28:38.000Z</time>
      </trkpt>
      <trkpt lat="47.34701" lon="-1.27857">
        <ele>57</ele>
        <time>2021-05-29T12:28:40.000Z</time>
      </trkpt>
      <trkpt lat="47.34697" lon="-1.27876">
        <ele>57</ele>
        <time>2021-05-29T12:28:42.000Z</time>
      </trkpt>
      <trkpt lat="47.34695" lon="-1.27897">
        <ele>57</ele>
        <time>2021-05-29T12:28:44.000Z</time>
      </trkpt>
      <trkpt lat="47.34693" lon="-1.27915">
        <ele>57</ele>
        <time>2021-05-29T12:28:46.000Z</time>
      </trkpt>
      <trkpt lat="47.34691" lon="-1.27932">
        <ele>56</ele>
        <time>2021-05-29T12:28:48.000Z</time>
      </trkpt>
      <trkpt lat="47.3469" lon="-1.27949">
        <ele>56</ele>
        <time>2021-05-29T12:28:50.000Z</time>
      </trkpt>
      <trkpt lat="47.34687" lon="-1.27977">
        <ele>58</ele>
        <time>2021-05-29T12:28:53.000Z</time>
      </trkpt>
      <trkpt lat="47.34684" lon="-1.27997">
        <ele>59</ele>
        <time>2021-05-29T12:28:55.000Z</time>
      </trkpt>
      <trkpt lat="47.3468" lon="-1.28024">
        <ele>57</ele>
        <time>2021-05-29T12:28:58.000Z</time>
      </trkpt>
      <trkpt lat="47.34681" lon="-1.28053">
        <ele>54</ele>
        <time>2021-05-29T12:29:01.000Z</time>
      </trkpt>
      <trkpt lat="47.34695" lon="-1.28068">
        <ele>55</ele>
        <time>2021-05-29T12:29:04.000Z</time>
      </trkpt>
      <trkpt lat="47.34714" lon="-1.2807">
        <ele>55</ele>
        <time>2021-05-29T12:29:07.000Z</time>
      </trkpt>
      <trkpt lat="47.3473" lon="-1.28071">
        <ele>54</ele>
        <time>2021-05-29T12:29:10.000Z</time>
      </trkpt>
      <trkpt lat="47.34734" lon="-1.28086">
        <ele>54</ele>
        <time>2021-05-29T12:29:12.000Z</time>
      </trkpt>
      <trkpt lat="47.34729" lon="-1.28103">
        <ele>54</ele>
        <time>2021-05-29T12:29:14.000Z</time>
      </trkpt>
      <trkpt lat="47.34723" lon="-1.28129">
        <ele>55</ele>
        <time>2021-05-29T12:29:17.000Z</time>
      </trkpt>
      <trkpt lat="47.34719" lon="-1.28146">
        <ele>54</ele>
        <time>2021-05-29T12:29:19.000Z</time>
      </trkpt>
      <trkpt lat="47.34715" lon="-1.28163">
        <ele>54</ele>
        <time>2021-05-29T12:29:21.000Z</time>
      </trkpt>
      <trkpt lat="47.34711" lon="-1.2818">
        <ele>54</ele>
        <time>2021-05-29T12:29:23.000Z</time>
      </trkpt>
      <trkpt lat="47.34704" lon="-1.28205">
        <ele>53</ele>
        <time>2021-05-29T12:29:26.000Z</time>
      </trkpt>
      <trkpt lat="47.34696" lon="-1.2823">
        <ele>52</ele>
        <time>2021-05-29T12:29:29.000Z</time>
      </trkpt>
      <trkpt lat="47.34692" lon="-1.28247">
        <ele>53</ele>
        <time>2021-05-29T12:29:31.000Z</time>
      </trkpt>
      <trkpt lat="47.34688" lon="-1.28264">
        <ele>54</ele>
        <time>2021-05-29T12:29:33.000Z</time>
      </trkpt>
      <trkpt lat="47.34684" lon="-1.28281">
        <ele>54</ele>
        <time>2021-05-29T12:29:35.000Z</time>
      </trkpt>
      <trkpt lat="47.3468" lon="-1.28298">
        <ele>55</ele>
        <time>2021-05-29T12:29:37.000Z</time>
      </trkpt>
      <trkpt lat="47.34675" lon="-1.28316">
        <ele>55</ele>
        <time>2021-05-29T12:29:39.000Z</time>
      </trkpt>
      <trkpt lat="47.34667" lon="-1.28341">
        <ele>55</ele>
        <time>2021-05-29T12:29:42.000Z</time>
      </trkpt>
      <trkpt lat="47.34657" lon="-1.28366">
        <ele>55</ele>
        <time>2021-05-29T12:29:45.000Z</time>
      </trkpt>
      <trkpt lat="47.34647" lon="-1.28369">
        <ele>56</ele>
        <time>2021-05-29T12:29:47.000Z</time>
      </trkpt>
      <trkpt lat="47.34637" lon="-1.28366">
        <ele>56</ele>
        <time>2021-05-29T12:29:49.000Z</time>
      </trkpt>
      <trkpt lat="47.34634" lon="-1.2838">
        <ele>57</ele>
        <time>2021-05-29T12:29:52.000Z</time>
      </trkpt>
      <trkpt lat="47.34641" lon="-1.28393">
        <ele>57</ele>
        <time>2021-05-29T12:29:54.000Z</time>
      </trkpt>
      <trkpt lat="47.34645" lon="-1.28409">
        <ele>57</ele>
        <time>2021-05-29T12:29:56.000Z</time>
      </trkpt>
      <trkpt lat="47.34647" lon="-1.28427">
        <ele>57</ele>
        <time>2021-05-29T12:29:58.000Z</time>
      </trkpt>
      <trkpt lat="47.34645" lon="-1.28445">
        <ele>57</ele>
        <time>2021-05-29T12:30:00.000Z</time>
      </trkpt>
      <trkpt lat="47.34641" lon="-1.28473">
        <ele>57</ele>
        <time>2021-05-29T12:30:03.000Z</time>
      </trkpt>
      <trkpt lat="47.34638" lon="-1.2849">
        <ele>58</ele>
        <time>2021-05-29T12:30:05.000Z</time>
      </trkpt>
      <trkpt lat="47.34633" lon="-1.28516">
        <ele>58</ele>
        <time>2021-05-29T12:30:08.000Z</time>
      </trkpt>
      <trkpt lat="47.34632" lon="-1.28543">
        <ele>57</ele>
        <time>2021-05-29T12:30:11.000Z</time>
      </trkpt>
      <trkpt lat="47.34633" lon="-1.28571">
        <ele>57</ele>
        <time>2021-05-29T12:30:15.000Z</time>
      </trkpt>
      <trkpt lat="47.34636" lon="-1.28584">
        <ele>58</ele>
        <time>2021-05-29T12:30:18.000Z</time>
      </trkpt>
      <trkpt lat="47.34645" lon="-1.28586">
        <ele>58</ele>
        <time>2021-05-29T12:30:25.000Z</time>
      </trkpt>
      <trkpt lat="47.34649" lon="-1.28598">
        <ele>58</ele>
        <time>2021-05-29T12:30:28.000Z</time>
      </trkpt>
      <trkpt lat="47.34643" lon="-1.28614">
        <ele>59</ele>
        <time>2021-05-29T12:30:31.000Z</time>
      </trkpt>
      <trkpt lat="47.34636" lon="-1.28624">
        <ele>59</ele>
        <time>2021-05-29T12:30:33.000Z</time>
      </trkpt>
      <trkpt lat="47.34629" lon="-1.28634">
        <ele>59</ele>
        <time>2021-05-29T12:30:35.000Z</time>
      </trkpt>
      <trkpt lat="47.34621" lon="-1.28646">
        <ele>59</ele>
        <time>2021-05-29T12:30:37.000Z</time>
      </trkpt>
      <trkpt lat="47.34613" lon="-1.28661">
        <ele>58</ele>
        <time>2021-05-29T12:30:39.000Z</time>
      </trkpt>
      <trkpt lat="47.34608" lon="-1.28676">
        <ele>59</ele>
        <time>2021-05-29T12:30:41.000Z</time>
      </trkpt>
      <trkpt lat="47.34602" lon="-1.28689">
        <ele>59</ele>
        <time>2021-05-29T12:30:43.000Z</time>
      </trkpt>
      <trkpt lat="47.34597" lon="-1.28701">
        <ele>59</ele>
        <time>2021-05-29T12:30:45.000Z</time>
      </trkpt>
      <trkpt lat="47.34609" lon="-1.28708">
        <ele>60</ele>
        <time>2021-05-29T12:31:20.000Z</time>
      </trkpt>
      <trkpt lat="47.34616" lon="-1.28719">
        <ele>60</ele>
        <time>2021-05-29T12:31:22.000Z</time>
      </trkpt>
      <trkpt lat="47.34622" lon="-1.28732">
        <ele>59</ele>
        <time>2021-05-29T12:31:24.000Z</time>
      </trkpt>
      <trkpt lat="47.34633" lon="-1.28753">
        <ele>59</ele>
        <time>2021-05-29T12:31:28.000Z</time>
      </trkpt>
      <trkpt lat="47.34635" lon="-1.2877">
        <ele>57</ele>
        <time>2021-05-29T12:31:30.000Z</time>
      </trkpt>
      <trkpt lat="47.34629" lon="-1.28784">
        <ele>56</ele>
        <time>2021-05-29T12:31:32.000Z</time>
      </trkpt>
      <trkpt lat="47.34623" lon="-1.28797">
        <ele>55</ele>
        <time>2021-05-29T12:31:34.000Z</time>
      </trkpt>
      <trkpt lat="47.34616" lon="-1.28812">
        <ele>52</ele>
        <time>2021-05-29T12:31:36.000Z</time>
      </trkpt>
      <trkpt lat="47.34605" lon="-1.28827">
        <ele>60</ele>
        <time>2021-05-29T12:31:41.000Z</time>
      </trkpt>
      <trkpt lat="47.34597" lon="-1.28844">
        <ele>55</ele>
        <time>2021-05-29T12:31:44.000Z</time>
      </trkpt>
      <trkpt lat="47.34593" lon="-1.28856">
        <ele>59</ele>
        <time>2021-05-29T12:31:46.000Z</time>
      </trkpt>
      <trkpt lat="47.34585" lon="-1.28871">
        <ele>58</ele>
        <time>2021-05-29T12:31:48.000Z</time>
      </trkpt>
      <trkpt lat="47.34579" lon="-1.28884">
        <ele>59</ele>
        <time>2021-05-29T12:31:50.000Z</time>
      </trkpt>
      <trkpt lat="47.34574" lon="-1.28895">
        <ele>57</ele>
        <time>2021-05-29T12:31:52.000Z</time>
      </trkpt>
      <trkpt lat="47.3456" lon="-1.28888">
        <ele>60</ele>
        <time>2021-05-29T12:31:55.000Z</time>
      </trkpt>
      <trkpt lat="47.34549" lon="-1.28883">
        <ele>61</ele>
        <time>2021-05-29T12:31:57.000Z</time>
      </trkpt>
      <trkpt lat="47.3454" lon="-1.28887">
        <ele>58</ele>
        <time>2021-05-29T12:31:59.000Z</time>
      </trkpt>
      <trkpt lat="47.34535" lon="-1.28903">
        <ele>60</ele>
        <time>2021-05-29T12:32:01.000Z</time>
      </trkpt>
      <trkpt lat="47.34531" lon="-1.28918">
        <ele>60</ele>
        <time>2021-05-29T12:32:03.000Z</time>
      </trkpt>
      <trkpt lat="47.34527" lon="-1.28931">
        <ele>61</ele>
        <time>2021-05-29T12:32:05.000Z</time>
      </trkpt>
      <trkpt lat="47.34521" lon="-1.28944">
        <ele>62</ele>
        <time>2021-05-29T12:32:07.000Z</time>
      </trkpt>
      <trkpt lat="47.34513" lon="-1.28956">
        <ele>63</ele>
        <time>2021-05-29T12:32:09.000Z</time>
      </trkpt>
      <trkpt lat="47.34505" lon="-1.28969">
        <ele>63</ele>
        <time>2021-05-29T12:32:11.000Z</time>
      </trkpt>
      <trkpt lat="47.34498" lon="-1.28983">
        <ele>63</ele>
        <time>2021-05-29T12:32:13.000Z</time>
      </trkpt>
      <trkpt lat="47.3449" lon="-1.28996">
        <ele>65</ele>
        <time>2021-05-29T12:32:15.000Z</time>
      </trkpt>
      <trkpt lat="47.34481" lon="-1.29009">
        <ele>65</ele>
        <time>2021-05-29T12:32:17.000Z</time>
      </trkpt>
      <trkpt lat="47.34476" lon="-1.29029">
        <ele>64</ele>
        <time>2021-05-29T12:32:19.000Z</time>
      </trkpt>
      <trkpt lat="47.3447" lon="-1.2905">
        <ele>64</ele>
        <time>2021-05-29T12:32:21.000Z</time>
      </trkpt>
      <trkpt lat="47.34465" lon="-1.29083">
        <ele>64</ele>
        <time>2021-05-29T12:32:24.000Z</time>
      </trkpt>
      <trkpt lat="47.3446" lon="-1.29104">
        <ele>63</ele>
        <time>2021-05-29T12:32:26.000Z</time>
      </trkpt>
      <trkpt lat="47.34453" lon="-1.29122">
        <ele>61</ele>
        <time>2021-05-29T12:32:28.000Z</time>
      </trkpt>
      <trkpt lat="47.34445" lon="-1.29137">
        <ele>60</ele>
        <time>2021-05-29T12:32:30.000Z</time>
      </trkpt>
      <trkpt lat="47.34438" lon="-1.29153">
        <ele>60</ele>
        <time>2021-05-29T12:32:32.000Z</time>
      </trkpt>
      <trkpt lat="47.34438" lon="-1.29173">
        <ele>59</ele>
        <time>2021-05-29T12:32:34.000Z</time>
      </trkpt>
      <trkpt lat="47.34437" lon="-1.29194">
        <ele>59</ele>
        <time>2021-05-29T12:32:36.000Z</time>
      </trkpt>
      <trkpt lat="47.34437" lon="-1.29215">
        <ele>57</ele>
        <time>2021-05-29T12:32:38.000Z</time>
      </trkpt>
      <trkpt lat="47.34438" lon="-1.29236">
        <ele>56</ele>
        <time>2021-05-29T12:32:40.000Z</time>
      </trkpt>
      <trkpt lat="47.34439" lon="-1.29258">
        <ele>56</ele>
        <time>2021-05-29T12:32:42.000Z</time>
      </trkpt>
      <trkpt lat="47.3444" lon="-1.29302">
        <ele>54</ele>
        <time>2021-05-29T12:32:46.000Z</time>
      </trkpt>
      <trkpt lat="47.3444" lon="-1.29325">
        <ele>54</ele>
        <time>2021-05-29T12:32:48.000Z</time>
      </trkpt>
      <trkpt lat="47.34439" lon="-1.29345">
        <ele>52</ele>
        <time>2021-05-29T12:32:50.000Z</time>
      </trkpt>
      <trkpt lat="47.34438" lon="-1.29366">
        <ele>51</ele>
        <time>2021-05-29T12:32:52.000Z</time>
      </trkpt>
      <trkpt lat="47.34439" lon="-1.29385">
        <ele>50</ele>
        <time>2021-05-29T12:32:54.000Z</time>
      </trkpt>
      <trkpt lat="47.34439" lon="-1.29408">
        <ele>51</ele>
        <time>2021-05-29T12:32:56.000Z</time>
      </trkpt>
      <trkpt lat="47.3444" lon="-1.29426">
        <ele>52</ele>
        <time>2021-05-29T12:32:58.000Z</time>
      </trkpt>
      <trkpt lat="47.34438" lon="-1.29449">
        <ele>52</ele>
        <time>2021-05-29T12:33:00.000Z</time>
      </trkpt>
      <trkpt lat="47.34436" lon="-1.29471">
        <ele>51</ele>
        <time>2021-05-29T12:33:02.000Z</time>
      </trkpt>
      <trkpt lat="47.34434" lon="-1.29494">
        <ele>51</ele>
        <time>2021-05-29T12:33:04.000Z</time>
      </trkpt>
      <trkpt lat="47.3443" lon="-1.29516">
        <ele>51</ele>
        <time>2021-05-29T12:33:06.000Z</time>
      </trkpt>
      <trkpt lat="47.34426" lon="-1.29537">
        <ele>50</ele>
        <time>2021-05-29T12:33:08.000Z</time>
      </trkpt>
      <trkpt lat="47.34423" lon="-1.29569">
        <ele>49</ele>
        <time>2021-05-29T12:33:11.000Z</time>
      </trkpt>
      <trkpt lat="47.3442" lon="-1.2959">
        <ele>49</ele>
        <time>2021-05-29T12:33:13.000Z</time>
      </trkpt>
      <trkpt lat="47.34417" lon="-1.2961">
        <ele>49</ele>
        <time>2021-05-29T12:33:15.000Z</time>
      </trkpt>
      <trkpt lat="47.34414" lon="-1.29628">
        <ele>51</ele>
        <time>2021-05-29T12:33:17.000Z</time>
      </trkpt>
      <trkpt lat="47.34408" lon="-1.29646">
        <ele>51</ele>
        <time>2021-05-29T12:33:19.000Z</time>
      </trkpt>
      <trkpt lat="47.34399" lon="-1.29669">
        <ele>53</ele>
        <time>2021-05-29T12:33:22.000Z</time>
      </trkpt>
      <trkpt lat="47.34391" lon="-1.29687">
        <ele>53</ele>
        <time>2021-05-29T12:33:24.000Z</time>
      </trkpt>
      <trkpt lat="47.34382" lon="-1.29704">
        <ele>52</ele>
        <time>2021-05-29T12:33:26.000Z</time>
      </trkpt>
      <trkpt lat="47.34372" lon="-1.29721">
        <ele>52</ele>
        <time>2021-05-29T12:33:28.000Z</time>
      </trkpt>
      <trkpt lat="47.34362" lon="-1.29738">
        <ele>53</ele>
        <time>2021-05-29T12:33:30.000Z</time>
      </trkpt>
      <trkpt lat="47.34354" lon="-1.29756">
        <ele>53</ele>
        <time>2021-05-29T12:33:32.000Z</time>
      </trkpt>
      <trkpt lat="47.34346" lon="-1.29773">
        <ele>51</ele>
        <time>2021-05-29T12:33:34.000Z</time>
      </trkpt>
      <trkpt lat="47.34338" lon="-1.29794">
        <ele>49</ele>
        <time>2021-05-29T12:33:36.000Z</time>
      </trkpt>
      <trkpt lat="47.34329" lon="-1.2981">
        <ele>51</ele>
        <time>2021-05-29T12:33:38.000Z</time>
      </trkpt>
      <trkpt lat="47.34322" lon="-1.29826">
        <ele>52</ele>
        <time>2021-05-29T12:33:40.000Z</time>
      </trkpt>
      <trkpt lat="47.34315" lon="-1.29844">
        <ele>53</ele>
        <time>2021-05-29T12:33:42.000Z</time>
      </trkpt>
      <trkpt lat="47.34308" lon="-1.29861">
        <ele>52</ele>
        <time>2021-05-29T12:33:44.000Z</time>
      </trkpt>
      <trkpt lat="47.343" lon="-1.2988">
        <ele>53</ele>
        <time>2021-05-29T12:33:46.000Z</time>
      </trkpt>
      <trkpt lat="47.34295" lon="-1.29896">
        <ele>54</ele>
        <time>2021-05-29T12:33:48.000Z</time>
      </trkpt>
      <trkpt lat="47.3429" lon="-1.29912">
        <ele>54</ele>
        <time>2021-05-29T12:33:50.000Z</time>
      </trkpt>
      <trkpt lat="47.34285" lon="-1.2993">
        <ele>54</ele>
        <time>2021-05-29T12:33:52.000Z</time>
      </trkpt>
      <trkpt lat="47.3428" lon="-1.29948">
        <ele>54</ele>
        <time>2021-05-29T12:33:54.000Z</time>
      </trkpt>
      <trkpt lat="47.34276" lon="-1.29966">
        <ele>54</ele>
        <time>2021-05-29T12:33:56.000Z</time>
      </trkpt>
      <trkpt lat="47.34272" lon="-1.29983">
        <ele>55</ele>
        <time>2021-05-29T12:33:58.000Z</time>
      </trkpt>
      <trkpt lat="47.34268" lon="-1.30001">
        <ele>55</ele>
        <time>2021-05-29T12:34:00.000Z</time>
      </trkpt>
      <trkpt lat="47.34264" lon="-1.30019">
        <ele>54</ele>
        <time>2021-05-29T12:34:02.000Z</time>
      </trkpt>
      <trkpt lat="47.34259" lon="-1.30039">
        <ele>54</ele>
        <time>2021-05-29T12:34:04.000Z</time>
      </trkpt>
      <trkpt lat="47.34256" lon="-1.30059">
        <ele>54</ele>
        <time>2021-05-29T12:34:06.000Z</time>
      </trkpt>
      <trkpt lat="47.34251" lon="-1.30078">
        <ele>54</ele>
        <time>2021-05-29T12:34:08.000Z</time>
      </trkpt>
      <trkpt lat="47.34245" lon="-1.30097">
        <ele>53</ele>
        <time>2021-05-29T12:34:10.000Z</time>
      </trkpt>
      <trkpt lat="47.34242" lon="-1.30116">
        <ele>52</ele>
        <time>2021-05-29T12:34:12.000Z</time>
      </trkpt>
      <trkpt lat="47.34237" lon="-1.30133">
        <ele>53</ele>
        <time>2021-05-29T12:34:14.000Z</time>
      </trkpt>
      <trkpt lat="47.34233" lon="-1.30149">
        <ele>53</ele>
        <time>2021-05-29T12:34:16.000Z</time>
      </trkpt>
      <trkpt lat="47.3423" lon="-1.30168">
        <ele>52</ele>
        <time>2021-05-29T12:34:18.000Z</time>
      </trkpt>
      <trkpt lat="47.34223" lon="-1.30186">
        <ele>51</ele>
        <time>2021-05-29T12:34:20.000Z</time>
      </trkpt>
      <trkpt lat="47.34217" lon="-1.30205">
        <ele>50</ele>
        <time>2021-05-29T12:34:22.000Z</time>
      </trkpt>
      <trkpt lat="47.34212" lon="-1.3023">
        <ele>48</ele>
        <time>2021-05-29T12:34:25.000Z</time>
      </trkpt>
      <trkpt lat="47.34202" lon="-1.30247">
        <ele>48</ele>
        <time>2021-05-29T12:34:27.000Z</time>
      </trkpt>
      <trkpt lat="47.34195" lon="-1.30264">
        <ele>49</ele>
        <time>2021-05-29T12:34:29.000Z</time>
      </trkpt>
      <trkpt lat="47.34187" lon="-1.3028">
        <ele>50</ele>
        <time>2021-05-29T12:34:31.000Z</time>
      </trkpt>
      <trkpt lat="47.3418" lon="-1.30295">
        <ele>51</ele>
        <time>2021-05-29T12:34:33.000Z</time>
      </trkpt>
      <trkpt lat="47.34174" lon="-1.30309">
        <ele>50</ele>
        <time>2021-05-29T12:34:35.000Z</time>
      </trkpt>
      <trkpt lat="47.34169" lon="-1.30322">
        <ele>51</ele>
        <time>2021-05-29T12:34:37.000Z</time>
      </trkpt>
      <trkpt lat="47.34164" lon="-1.30337">
        <ele>52</ele>
        <time>2021-05-29T12:34:39.000Z</time>
      </trkpt>
      <trkpt lat="47.34159" lon="-1.3035">
        <ele>53</ele>
        <time>2021-05-29T12:34:41.000Z</time>
      </trkpt>
      <trkpt lat="47.34154" lon="-1.30364">
        <ele>52</ele>
        <time>2021-05-29T12:34:43.000Z</time>
      </trkpt>
      <trkpt lat="47.34147" lon="-1.30377">
        <ele>51</ele>
        <time>2021-05-29T12:34:45.000Z</time>
      </trkpt>
      <trkpt lat="47.34138" lon="-1.30393">
        <ele>51</ele>
        <time>2021-05-29T12:34:47.000Z</time>
      </trkpt>
      <trkpt lat="47.34131" lon="-1.30409">
        <ele>53</ele>
        <time>2021-05-29T12:34:49.000Z</time>
      </trkpt>
      <trkpt lat="47.34125" lon="-1.30423">
        <ele>53</ele>
        <time>2021-05-29T12:34:51.000Z</time>
      </trkpt>
      <trkpt lat="47.34121" lon="-1.3044">
        <ele>53</ele>
        <time>2021-05-29T12:34:53.000Z</time>
      </trkpt>
      <trkpt lat="47.34114" lon="-1.30456">
        <ele>53</ele>
        <time>2021-05-29T12:34:55.000Z</time>
      </trkpt>
      <trkpt lat="47.34106" lon="-1.30477">
        <ele>54</ele>
        <time>2021-05-29T12:34:58.000Z</time>
      </trkpt>
      <trkpt lat="47.34102" lon="-1.30492">
        <ele>53</ele>
        <time>2021-05-29T12:35:00.000Z</time>
      </trkpt>
      <trkpt lat="47.34095" lon="-1.30505">
        <ele>54</ele>
        <time>2021-05-29T12:35:02.000Z</time>
      </trkpt>
      <trkpt lat="47.34081" lon="-1.30528">
        <ele>54</ele>
        <time>2021-05-29T12:35:05.000Z</time>
      </trkpt>
      <trkpt lat="47.34073" lon="-1.30546">
        <ele>54</ele>
        <time>2021-05-29T12:35:07.000Z</time>
      </trkpt>
      <trkpt lat="47.34064" lon="-1.30563">
        <ele>54</ele>
        <time>2021-05-29T12:35:09.000Z</time>
      </trkpt>
      <trkpt lat="47.34056" lon="-1.30578">
        <ele>54</ele>
        <time>2021-05-29T12:35:11.000Z</time>
      </trkpt>
      <trkpt lat="47.34047" lon="-1.30592">
        <ele>54</ele>
        <time>2021-05-29T12:35:13.000Z</time>
      </trkpt>
      <trkpt lat="47.34039" lon="-1.30604">
        <ele>52</ele>
        <time>2021-05-29T12:35:15.000Z</time>
      </trkpt>
      <trkpt lat="47.34032" lon="-1.30617">
        <ele>52</ele>
        <time>2021-05-29T12:35:17.000Z</time>
      </trkpt>
      <trkpt lat="47.34024" lon="-1.30633">
        <ele>53</ele>
        <time>2021-05-29T12:35:19.000Z</time>
      </trkpt>
      <trkpt lat="47.34016" lon="-1.30647">
        <ele>52</ele>
        <time>2021-05-29T12:35:21.000Z</time>
      </trkpt>
      <trkpt lat="47.34009" lon="-1.30658">
        <ele>51</ele>
        <time>2021-05-29T12:35:23.000Z</time>
      </trkpt>
      <trkpt lat="47.33998" lon="-1.3067">
        <ele>52</ele>
        <time>2021-05-29T12:35:25.000Z</time>
      </trkpt>
      <trkpt lat="47.33988" lon="-1.30684">
        <ele>52</ele>
        <time>2021-05-29T12:35:27.000Z</time>
      </trkpt>
      <trkpt lat="47.3398" lon="-1.30693">
        <ele>52</ele>
        <time>2021-05-29T12:35:29.000Z</time>
      </trkpt>
      <trkpt lat="47.33967" lon="-1.30694">
        <ele>52</ele>
        <time>2021-05-29T12:35:32.000Z</time>
      </trkpt>
      <trkpt lat="47.33951" lon="-1.30689">
        <ele>54</ele>
        <time>2021-05-29T12:35:37.000Z</time>
      </trkpt>
      <trkpt lat="47.33942" lon="-1.30707">
        <ele>51</ele>
        <time>2021-05-29T12:35:40.000Z</time>
      </trkpt>
      <trkpt lat="47.33934" lon="-1.30714">
        <ele>53</ele>
        <time>2021-05-29T12:35:42.000Z</time>
      </trkpt>
      <trkpt lat="47.33926" lon="-1.30722">
        <ele>53</ele>
        <time>2021-05-29T12:35:44.000Z</time>
      </trkpt>
      <trkpt lat="47.33921" lon="-1.30734">
        <ele>53</ele>
        <time>2021-05-29T12:35:46.000Z</time>
      </trkpt>
      <trkpt lat="47.33916" lon="-1.30746">
        <ele>52</ele>
        <time>2021-05-29T12:35:48.000Z</time>
      </trkpt>
      <trkpt lat="47.33909" lon="-1.30761">
        <ele>52</ele>
        <time>2021-05-29T12:35:50.000Z</time>
      </trkpt>
      <trkpt lat="47.33899" lon="-1.30769">
        <ele>54</ele>
        <time>2021-05-29T12:35:52.000Z</time>
      </trkpt>
      <trkpt lat="47.33887" lon="-1.30778">
        <ele>55</ele>
        <time>2021-05-29T12:35:54.000Z</time>
      </trkpt>
      <trkpt lat="47.33876" lon="-1.30787">
        <ele>55</ele>
        <time>2021-05-29T12:35:56.000Z</time>
      </trkpt>
      <trkpt lat="47.33862" lon="-1.30801">
        <ele>55</ele>
        <time>2021-05-29T12:35:59.000Z</time>
      </trkpt>
      <trkpt lat="47.33853" lon="-1.30811">
        <ele>56</ele>
        <time>2021-05-29T12:36:01.000Z</time>
      </trkpt>
      <trkpt lat="47.33841" lon="-1.3082">
        <ele>56</ele>
        <time>2021-05-29T12:36:03.000Z</time>
      </trkpt>
      <trkpt lat="47.33831" lon="-1.30829">
        <ele>56</ele>
        <time>2021-05-29T12:36:05.000Z</time>
      </trkpt>
      <trkpt lat="47.33821" lon="-1.30839">
        <ele>56</ele>
        <time>2021-05-29T12:36:07.000Z</time>
      </trkpt>
      <trkpt lat="47.3381" lon="-1.3085">
        <ele>54</ele>
        <time>2021-05-29T12:36:09.000Z</time>
      </trkpt>
      <trkpt lat="47.33795" lon="-1.30872">
        <ele>53</ele>
        <time>2021-05-29T12:36:12.000Z</time>
      </trkpt>
      <trkpt lat="47.33784" lon="-1.30881">
        <ele>54</ele>
        <time>2021-05-29T12:36:14.000Z</time>
      </trkpt>
      <trkpt lat="47.33775" lon="-1.30888">
        <ele>54</ele>
        <time>2021-05-29T12:36:16.000Z</time>
      </trkpt>
      <trkpt lat="47.33766" lon="-1.30898">
        <ele>53</ele>
        <time>2021-05-29T12:36:18.000Z</time>
      </trkpt>
      <trkpt lat="47.33751" lon="-1.30912">
        <ele>53</ele>
        <time>2021-05-29T12:36:21.000Z</time>
      </trkpt>
      <trkpt lat="47.3374" lon="-1.30923">
        <ele>53</ele>
        <time>2021-05-29T12:36:23.000Z</time>
      </trkpt>
      <trkpt lat="47.33731" lon="-1.30934">
        <ele>51</ele>
        <time>2021-05-29T12:36:25.000Z</time>
      </trkpt>
      <trkpt lat="47.3372" lon="-1.30944">
        <ele>50</ele>
        <time>2021-05-29T12:36:27.000Z</time>
      </trkpt>
      <trkpt lat="47.33708" lon="-1.3096">
        <ele>50</ele>
        <time>2021-05-29T12:36:30.000Z</time>
      </trkpt>
      <trkpt lat="47.33699" lon="-1.30969">
        <ele>50</ele>
        <time>2021-05-29T12:36:32.000Z</time>
      </trkpt>
      <trkpt lat="47.33693" lon="-1.30979">
        <ele>51</ele>
        <time>2021-05-29T12:36:34.000Z</time>
      </trkpt>
      <trkpt lat="47.33683" lon="-1.30989">
        <ele>52</ele>
        <time>2021-05-29T12:36:38.000Z</time>
      </trkpt>
      <trkpt lat="47.33675" lon="-1.31001">
        <ele>52</ele>
        <time>2021-05-29T12:36:41.000Z</time>
      </trkpt>
      <trkpt lat="47.33664" lon="-1.31022">
        <ele>52</ele>
        <time>2021-05-29T12:36:44.000Z</time>
      </trkpt>
      <trkpt lat="47.33656" lon="-1.31034">
        <ele>53</ele>
        <time>2021-05-29T12:36:46.000Z</time>
      </trkpt>
      <trkpt lat="47.33647" lon="-1.31047">
        <ele>53</ele>
        <time>2021-05-29T12:36:48.000Z</time>
      </trkpt>
      <trkpt lat="47.33639" lon="-1.31061">
        <ele>53</ele>
        <time>2021-05-29T12:36:50.000Z</time>
      </trkpt>
      <trkpt lat="47.3363" lon="-1.31074">
        <ele>53</ele>
        <time>2021-05-29T12:36:52.000Z</time>
      </trkpt>
      <trkpt lat="47.33621" lon="-1.31086">
        <ele>53</ele>
        <time>2021-05-29T12:36:54.000Z</time>
      </trkpt>
      <trkpt lat="47.33608" lon="-1.31105">
        <ele>54</ele>
        <time>2021-05-29T12:36:57.000Z</time>
      </trkpt>
      <trkpt lat="47.336" lon="-1.31119">
        <ele>53</ele>
        <time>2021-05-29T12:36:59.000Z</time>
      </trkpt>
      <trkpt lat="47.33593" lon="-1.31132">
        <ele>53</ele>
        <time>2021-05-29T12:37:01.000Z</time>
      </trkpt>
      <trkpt lat="47.33585" lon="-1.31145">
        <ele>53</ele>
        <time>2021-05-29T12:37:03.000Z</time>
      </trkpt>
      <trkpt lat="47.33575" lon="-1.31164">
        <ele>53</ele>
        <time>2021-05-29T12:37:06.000Z</time>
      </trkpt>
      <trkpt lat="47.3357" lon="-1.31178">
        <ele>53</ele>
        <time>2021-05-29T12:37:08.000Z</time>
      </trkpt>
      <trkpt lat="47.33561" lon="-1.31193">
        <ele>55</ele>
        <time>2021-05-29T12:37:10.000Z</time>
      </trkpt>
      <trkpt lat="47.33548" lon="-1.31213">
        <ele>55</ele>
        <time>2021-05-29T12:37:13.000Z</time>
      </trkpt>
      <trkpt lat="47.33541" lon="-1.31227">
        <ele>54</ele>
        <time>2021-05-29T12:37:15.000Z</time>
      </trkpt>
      <trkpt lat="47.33534" lon="-1.31242">
        <ele>55</ele>
        <time>2021-05-29T12:37:17.000Z</time>
      </trkpt>
      <trkpt lat="47.33525" lon="-1.31257">
        <ele>56</ele>
        <time>2021-05-29T12:37:19.000Z</time>
      </trkpt>
      <trkpt lat="47.33519" lon="-1.31272">
        <ele>56</ele>
        <time>2021-05-29T12:37:21.000Z</time>
      </trkpt>
      <trkpt lat="47.33514" lon="-1.31287">
        <ele>55</ele>
        <time>2021-05-29T12:37:23.000Z</time>
      </trkpt>
      <trkpt lat="47.33509" lon="-1.31301">
        <ele>56</ele>
        <time>2021-05-29T12:37:25.000Z</time>
      </trkpt>
      <trkpt lat="47.33501" lon="-1.31315">
        <ele>56</ele>
        <time>2021-05-29T12:37:27.000Z</time>
      </trkpt>
      <trkpt lat="47.33492" lon="-1.31329">
        <ele>56</ele>
        <time>2021-05-29T12:37:29.000Z</time>
      </trkpt>
      <trkpt lat="47.33485" lon="-1.31344">
        <ele>54</ele>
        <time>2021-05-29T12:37:31.000Z</time>
      </trkpt>
      <trkpt lat="47.33476" lon="-1.31358">
        <ele>54</ele>
        <time>2021-05-29T12:37:33.000Z</time>
      </trkpt>
      <trkpt lat="47.33468" lon="-1.31373">
        <ele>56</ele>
        <time>2021-05-29T12:37:35.000Z</time>
      </trkpt>
      <trkpt lat="47.33459" lon="-1.31386">
        <ele>56</ele>
        <time>2021-05-29T12:37:37.000Z</time>
      </trkpt>
      <trkpt lat="47.3345" lon="-1.31409">
        <ele>54</ele>
        <time>2021-05-29T12:37:40.000Z</time>
      </trkpt>
      <trkpt lat="47.33442" lon="-1.31422">
        <ele>55</ele>
        <time>2021-05-29T12:37:42.000Z</time>
      </trkpt>
      <trkpt lat="47.33435" lon="-1.31435">
        <ele>56</ele>
        <time>2021-05-29T12:37:44.000Z</time>
      </trkpt>
      <trkpt lat="47.33429" lon="-1.31448">
        <ele>54</ele>
        <time>2021-05-29T12:37:46.000Z</time>
      </trkpt>
      <trkpt lat="47.33422" lon="-1.31465">
        <ele>52</ele>
        <time>2021-05-29T12:37:48.000Z</time>
      </trkpt>
      <trkpt lat="47.33414" lon="-1.3148">
        <ele>52</ele>
        <time>2021-05-29T12:37:50.000Z</time>
      </trkpt>
      <trkpt lat="47.33407" lon="-1.31494">
        <ele>52</ele>
        <time>2021-05-29T12:37:52.000Z</time>
      </trkpt>
      <trkpt lat="47.33399" lon="-1.31508">
        <ele>53</ele>
        <time>2021-05-29T12:37:54.000Z</time>
      </trkpt>
      <trkpt lat="47.33392" lon="-1.31523">
        <ele>53</ele>
        <time>2021-05-29T12:37:56.000Z</time>
      </trkpt>
      <trkpt lat="47.33384" lon="-1.31537">
        <ele>53</ele>
        <time>2021-05-29T12:37:58.000Z</time>
      </trkpt>
      <trkpt lat="47.33377" lon="-1.31552">
        <ele>54</ele>
        <time>2021-05-29T12:38:00.000Z</time>
      </trkpt>
      <trkpt lat="47.33373" lon="-1.31567">
        <ele>52</ele>
        <time>2021-05-29T12:38:02.000Z</time>
      </trkpt>
      <trkpt lat="47.33365" lon="-1.31583">
        <ele>53</ele>
        <time>2021-05-29T12:38:04.000Z</time>
      </trkpt>
      <trkpt lat="47.33356" lon="-1.31595">
        <ele>53</ele>
        <time>2021-05-29T12:38:06.000Z</time>
      </trkpt>
      <trkpt lat="47.33347" lon="-1.31609">
        <ele>53</ele>
        <time>2021-05-29T12:38:08.000Z</time>
      </trkpt>
      <trkpt lat="47.33336" lon="-1.31629">
        <ele>51</ele>
        <time>2021-05-29T12:38:11.000Z</time>
      </trkpt>
      <trkpt lat="47.33328" lon="-1.31644">
        <ele>51</ele>
        <time>2021-05-29T12:38:13.000Z</time>
      </trkpt>
      <trkpt lat="47.33322" lon="-1.31657">
        <ele>51</ele>
        <time>2021-05-29T12:38:15.000Z</time>
      </trkpt>
      <trkpt lat="47.33311" lon="-1.31679">
        <ele>49</ele>
        <time>2021-05-29T12:38:18.000Z</time>
      </trkpt>
      <trkpt lat="47.33305" lon="-1.31697">
        <ele>47</ele>
        <time>2021-05-29T12:38:20.000Z</time>
      </trkpt>
      <trkpt lat="47.33297" lon="-1.31712">
        <ele>50</ele>
        <time>2021-05-29T12:38:22.000Z</time>
      </trkpt>
      <trkpt lat="47.33288" lon="-1.31725">
        <ele>50</ele>
        <time>2021-05-29T12:38:24.000Z</time>
      </trkpt>
      <trkpt lat="47.33277" lon="-1.31737">
        <ele>50</ele>
        <time>2021-05-29T12:38:26.000Z</time>
      </trkpt>
      <trkpt lat="47.3327" lon="-1.31753">
        <ele>48</ele>
        <time>2021-05-29T12:38:28.000Z</time>
      </trkpt>
      <trkpt lat="47.3326" lon="-1.31773">
        <ele>49</ele>
        <time>2021-05-29T12:38:31.000Z</time>
      </trkpt>
      <trkpt lat="47.33252" lon="-1.31787">
        <ele>51</ele>
        <time>2021-05-29T12:38:33.000Z</time>
      </trkpt>
      <trkpt lat="47.33245" lon="-1.31801">
        <ele>51</ele>
        <time>2021-05-29T12:38:35.000Z</time>
      </trkpt>
      <trkpt lat="47.33238" lon="-1.31816">
        <ele>52</ele>
        <time>2021-05-29T12:38:37.000Z</time>
      </trkpt>
      <trkpt lat="47.3323" lon="-1.31829">
        <ele>53</ele>
        <time>2021-05-29T12:38:39.000Z</time>
      </trkpt>
      <trkpt lat="47.33223" lon="-1.31843">
        <ele>54</ele>
        <time>2021-05-29T12:38:41.000Z</time>
      </trkpt>
      <trkpt lat="47.33212" lon="-1.31863">
        <ele>54</ele>
        <time>2021-05-29T12:38:44.000Z</time>
      </trkpt>
      <trkpt lat="47.33206" lon="-1.31877">
        <ele>55</ele>
        <time>2021-05-29T12:38:46.000Z</time>
      </trkpt>
      <trkpt lat="47.33199" lon="-1.31892">
        <ele>56</ele>
        <time>2021-05-29T12:38:48.000Z</time>
      </trkpt>
      <trkpt lat="47.33195" lon="-1.31905">
        <ele>54</ele>
        <time>2021-05-29T12:38:50.000Z</time>
      </trkpt>
      <trkpt lat="47.33187" lon="-1.31929">
        <ele>52</ele>
        <time>2021-05-29T12:38:53.000Z</time>
      </trkpt>
      <trkpt lat="47.33179" lon="-1.31942">
        <ele>54</ele>
        <time>2021-05-29T12:38:55.000Z</time>
      </trkpt>
      <trkpt lat="47.33171" lon="-1.31956">
        <ele>55</ele>
        <time>2021-05-29T12:38:57.000Z</time>
      </trkpt>
      <trkpt lat="47.33162" lon="-1.31976">
        <ele>55</ele>
        <time>2021-05-29T12:39:00.000Z</time>
      </trkpt>
      <trkpt lat="47.33155" lon="-1.31987">
        <ele>55</ele>
        <time>2021-05-29T12:39:02.000Z</time>
      </trkpt>
      <trkpt lat="47.33145" lon="-1.31995">
        <ele>55</ele>
        <time>2021-05-29T12:39:04.000Z</time>
      </trkpt>
      <trkpt lat="47.33134" lon="-1.32001">
        <ele>52</ele>
        <time>2021-05-29T12:39:06.000Z</time>
      </trkpt>
      <trkpt lat="47.33126" lon="-1.32012">
        <ele>50</ele>
        <time>2021-05-29T12:39:08.000Z</time>
      </trkpt>
      <trkpt lat="47.33118" lon="-1.32026">
        <ele>51</ele>
        <time>2021-05-29T12:39:10.000Z</time>
      </trkpt>
      <trkpt lat="47.33112" lon="-1.32039">
        <ele>51</ele>
        <time>2021-05-29T12:39:12.000Z</time>
      </trkpt>
      <trkpt lat="47.33098" lon="-1.32049">
        <ele>53</ele>
        <time>2021-05-29T12:39:15.000Z</time>
      </trkpt>
      <trkpt lat="47.33098" lon="-1.32068">
        <ele>54</ele>
        <time>2021-05-29T12:39:18.000Z</time>
      </trkpt>
      <trkpt lat="47.33098" lon="-1.32082">
        <ele>54</ele>
        <time>2021-05-29T12:39:20.000Z</time>
      </trkpt>
      <trkpt lat="47.33093" lon="-1.32099">
        <ele>54</ele>
        <time>2021-05-29T12:39:22.000Z</time>
      </trkpt>
      <trkpt lat="47.33085" lon="-1.32115">
        <ele>54</ele>
        <time>2021-05-29T12:39:24.000Z</time>
      </trkpt>
      <trkpt lat="47.33077" lon="-1.32129">
        <ele>55</ele>
        <time>2021-05-29T12:39:26.000Z</time>
      </trkpt>
      <trkpt lat="47.33064" lon="-1.32149">
        <ele>55</ele>
        <time>2021-05-29T12:39:29.000Z</time>
      </trkpt>
      <trkpt lat="47.33056" lon="-1.32163">
        <ele>52</ele>
        <time>2021-05-29T12:39:31.000Z</time>
      </trkpt>
      <trkpt lat="47.33048" lon="-1.32179">
        <ele>53</ele>
        <time>2021-05-29T12:39:33.000Z</time>
      </trkpt>
      <trkpt lat="47.33039" lon="-1.32199">
        <ele>54</ele>
        <time>2021-05-29T12:39:36.000Z</time>
      </trkpt>
      <trkpt lat="47.33031" lon="-1.32215">
        <ele>52</ele>
        <time>2021-05-29T12:39:38.000Z</time>
      </trkpt>
      <trkpt lat="47.33023" lon="-1.3223">
        <ele>51</ele>
        <time>2021-05-29T12:39:40.000Z</time>
      </trkpt>
      <trkpt lat="47.33016" lon="-1.32244">
        <ele>53</ele>
        <time>2021-05-29T12:39:42.000Z</time>
      </trkpt>
      <trkpt lat="47.33007" lon="-1.32259">
        <ele>53</ele>
        <time>2021-05-29T12:39:44.000Z</time>
      </trkpt>
      <trkpt lat="47.32999" lon="-1.32273">
        <ele>54</ele>
        <time>2021-05-29T12:39:46.000Z</time>
      </trkpt>
      <trkpt lat="47.32991" lon="-1.32288">
        <ele>55</ele>
        <time>2021-05-29T12:39:48.000Z</time>
      </trkpt>
      <trkpt lat="47.32983" lon="-1.32303">
        <ele>55</ele>
        <time>2021-05-29T12:39:50.000Z</time>
      </trkpt>
      <trkpt lat="47.32975" lon="-1.32317">
        <ele>55</ele>
        <time>2021-05-29T12:39:52.000Z</time>
      </trkpt>
      <trkpt lat="47.32969" lon="-1.32333">
        <ele>53</ele>
        <time>2021-05-29T12:39:54.000Z</time>
      </trkpt>
      <trkpt lat="47.32961" lon="-1.32347">
        <ele>54</ele>
        <time>2021-05-29T12:39:56.000Z</time>
      </trkpt>
      <trkpt lat="47.32953" lon="-1.32361">
        <ele>54</ele>
        <time>2021-05-29T12:39:58.000Z</time>
      </trkpt>
      <trkpt lat="47.32945" lon="-1.32375">
        <ele>55</ele>
        <time>2021-05-29T12:40:00.000Z</time>
      </trkpt>
      <trkpt lat="47.32939" lon="-1.32391">
        <ele>53</ele>
        <time>2021-05-29T12:40:02.000Z</time>
      </trkpt>
      <trkpt lat="47.32932" lon="-1.32407">
        <ele>53</ele>
        <time>2021-05-29T12:40:04.000Z</time>
      </trkpt>
      <trkpt lat="47.32922" lon="-1.3243">
        <ele>54</ele>
        <time>2021-05-29T12:40:07.000Z</time>
      </trkpt>
      <trkpt lat="47.32913" lon="-1.32444">
        <ele>53</ele>
        <time>2021-05-29T12:40:09.000Z</time>
      </trkpt>
      <trkpt lat="47.32906" lon="-1.32459">
        <ele>52</ele>
        <time>2021-05-29T12:40:11.000Z</time>
      </trkpt>
      <trkpt lat="47.32893" lon="-1.32481">
        <ele>53</ele>
        <time>2021-05-29T12:40:14.000Z</time>
      </trkpt>
      <trkpt lat="47.32887" lon="-1.32497">
        <ele>54</ele>
        <time>2021-05-29T12:40:16.000Z</time>
      </trkpt>
      <trkpt lat="47.32879" lon="-1.32511">
        <ele>54</ele>
        <time>2021-05-29T12:40:18.000Z</time>
      </trkpt>
      <trkpt lat="47.32872" lon="-1.32527">
        <ele>53</ele>
        <time>2021-05-29T12:40:20.000Z</time>
      </trkpt>
      <trkpt lat="47.32866" lon="-1.32543">
        <ele>54</ele>
        <time>2021-05-29T12:40:22.000Z</time>
      </trkpt>
      <trkpt lat="47.32857" lon="-1.32556">
        <ele>54</ele>
        <time>2021-05-29T12:40:24.000Z</time>
      </trkpt>
      <trkpt lat="47.32849" lon="-1.32571">
        <ele>55</ele>
        <time>2021-05-29T12:40:26.000Z</time>
      </trkpt>
      <trkpt lat="47.32841" lon="-1.32586">
        <ele>55</ele>
        <time>2021-05-29T12:40:28.000Z</time>
      </trkpt>
      <trkpt lat="47.32833" lon="-1.32601">
        <ele>56</ele>
        <time>2021-05-29T12:40:30.000Z</time>
      </trkpt>
      <trkpt lat="47.32825" lon="-1.32615">
        <ele>55</ele>
        <time>2021-05-29T12:40:32.000Z</time>
      </trkpt>
      <trkpt lat="47.32817" lon="-1.32628">
        <ele>56</ele>
        <time>2021-05-29T12:40:34.000Z</time>
      </trkpt>
      <trkpt lat="47.32807" lon="-1.32642">
        <ele>56</ele>
        <time>2021-05-29T12:40:36.000Z</time>
      </trkpt>
      <trkpt lat="47.32798" lon="-1.32654">
        <ele>57</ele>
        <time>2021-05-29T12:40:38.000Z</time>
      </trkpt>
      <trkpt lat="47.32789" lon="-1.32667">
        <ele>57</ele>
        <time>2021-05-29T12:40:40.000Z</time>
      </trkpt>
      <trkpt lat="47.32782" lon="-1.32688">
        <ele>56</ele>
        <time>2021-05-29T12:40:42.000Z</time>
      </trkpt>
      <trkpt lat="47.32775" lon="-1.3271">
        <ele>56</ele>
        <time>2021-05-29T12:40:45.000Z</time>
      </trkpt>
      <trkpt lat="47.32769" lon="-1.32723">
        <ele>55</ele>
        <time>2021-05-29T12:40:47.000Z</time>
      </trkpt>
      <trkpt lat="47.32762" lon="-1.32736">
        <ele>55</ele>
        <time>2021-05-29T12:40:49.000Z</time>
      </trkpt>
      <trkpt lat="47.32754" lon="-1.32748">
        <ele>55</ele>
        <time>2021-05-29T12:40:51.000Z</time>
      </trkpt>
      <trkpt lat="47.32748" lon="-1.32764">
        <ele>54</ele>
        <time>2021-05-29T12:40:53.000Z</time>
      </trkpt>
      <trkpt lat="47.32739" lon="-1.32778">
        <ele>55</ele>
        <time>2021-05-29T12:40:55.000Z</time>
      </trkpt>
      <trkpt lat="47.3273" lon="-1.3279">
        <ele>56</ele>
        <time>2021-05-29T12:40:57.000Z</time>
      </trkpt>
      <trkpt lat="47.32722" lon="-1.32803">
        <ele>55</ele>
        <time>2021-05-29T12:40:59.000Z</time>
      </trkpt>
      <trkpt lat="47.3271" lon="-1.32824">
        <ele>56</ele>
        <time>2021-05-29T12:41:02.000Z</time>
      </trkpt>
      <trkpt lat="47.32701" lon="-1.32838">
        <ele>55</ele>
        <time>2021-05-29T12:41:04.000Z</time>
      </trkpt>
      <trkpt lat="47.32693" lon="-1.32851">
        <ele>54</ele>
        <time>2021-05-29T12:41:06.000Z</time>
      </trkpt>
      <trkpt lat="47.32684" lon="-1.32863">
        <ele>53</ele>
        <time>2021-05-29T12:41:08.000Z</time>
      </trkpt>
      <trkpt lat="47.32672" lon="-1.32882">
        <ele>54</ele>
        <time>2021-05-29T12:41:11.000Z</time>
      </trkpt>
      <trkpt lat="47.32664" lon="-1.32895">
        <ele>54</ele>
        <time>2021-05-29T12:41:13.000Z</time>
      </trkpt>
      <trkpt lat="47.32656" lon="-1.32906">
        <ele>54</ele>
        <time>2021-05-29T12:41:15.000Z</time>
      </trkpt>
      <trkpt lat="47.32647" lon="-1.32917">
        <ele>54</ele>
        <time>2021-05-29T12:41:17.000Z</time>
      </trkpt>
      <trkpt lat="47.32637" lon="-1.32927">
        <ele>55</ele>
        <time>2021-05-29T12:41:20.000Z</time>
      </trkpt>
      <trkpt lat="47.32626" lon="-1.32932">
        <ele>55</ele>
        <time>2021-05-29T12:41:23.000Z</time>
      </trkpt>
      <trkpt lat="47.32617" lon="-1.32943">
        <ele>56</ele>
        <time>2021-05-29T12:41:26.000Z</time>
      </trkpt>
      <trkpt lat="47.32611" lon="-1.32953">
        <ele>57</ele>
        <time>2021-05-29T12:41:28.000Z</time>
      </trkpt>
      <trkpt lat="47.32603" lon="-1.32964">
        <ele>51</ele>
        <time>2021-05-29T12:41:30.000Z</time>
      </trkpt>
      <trkpt lat="47.32596" lon="-1.32975">
        <ele>51</ele>
        <time>2021-05-29T12:41:32.000Z</time>
      </trkpt>
      <trkpt lat="47.32589" lon="-1.32988">
        <ele>51</ele>
        <time>2021-05-29T12:41:34.000Z</time>
      </trkpt>
      <trkpt lat="47.32575" lon="-1.33005">
        <ele>54</ele>
        <time>2021-05-29T12:41:37.000Z</time>
      </trkpt>
      <trkpt lat="47.32566" lon="-1.33015">
        <ele>55</ele>
        <time>2021-05-29T12:41:39.000Z</time>
      </trkpt>
      <trkpt lat="47.32556" lon="-1.33023">
        <ele>55</ele>
        <time>2021-05-29T12:41:41.000Z</time>
      </trkpt>
      <trkpt lat="47.32546" lon="-1.33032">
        <ele>55</ele>
        <time>2021-05-29T12:41:43.000Z</time>
      </trkpt>
      <trkpt lat="47.32536" lon="-1.3304">
        <ele>53</ele>
        <time>2021-05-29T12:41:45.000Z</time>
      </trkpt>
      <trkpt lat="47.32522" lon="-1.33051">
        <ele>49</ele>
        <time>2021-05-29T12:41:47.000Z</time>
      </trkpt>
      <trkpt lat="47.32511" lon="-1.33062">
        <ele>48</ele>
        <time>2021-05-29T12:41:49.000Z</time>
      </trkpt>
      <trkpt lat="47.325" lon="-1.33072">
        <ele>50</ele>
        <time>2021-05-29T12:41:51.000Z</time>
      </trkpt>
      <trkpt lat="47.3249" lon="-1.33082">
        <ele>51</ele>
        <time>2021-05-29T12:41:53.000Z</time>
      </trkpt>
      <trkpt lat="47.32481" lon="-1.33094">
        <ele>48</ele>
        <time>2021-05-29T12:41:55.000Z</time>
      </trkpt>
      <trkpt lat="47.32472" lon="-1.33105">
        <ele>49</ele>
        <time>2021-05-29T12:41:57.000Z</time>
      </trkpt>
      <trkpt lat="47.32463" lon="-1.33116">
        <ele>50</ele>
        <time>2021-05-29T12:41:59.000Z</time>
      </trkpt>
      <trkpt lat="47.32453" lon="-1.33127">
        <ele>51</ele>
        <time>2021-05-29T12:42:01.000Z</time>
      </trkpt>
      <trkpt lat="47.32444" lon="-1.33138">
        <ele>51</ele>
        <time>2021-05-29T12:42:03.000Z</time>
      </trkpt>
      <trkpt lat="47.32436" lon="-1.33147">
        <ele>53</ele>
        <time>2021-05-29T12:42:06.000Z</time>
      </trkpt>
      <trkpt lat="47.32426" lon="-1.33148">
        <ele>54</ele>
        <time>2021-05-29T12:42:09.000Z</time>
      </trkpt>
      <trkpt lat="47.32417" lon="-1.33151">
        <ele>53</ele>
        <time>2021-05-29T12:42:12.000Z</time>
      </trkpt>
      <trkpt lat="47.32409" lon="-1.33164">
        <ele>51</ele>
        <time>2021-05-29T12:42:15.000Z</time>
      </trkpt>
      <trkpt lat="47.32401" lon="-1.33173">
        <ele>50</ele>
        <time>2021-05-29T12:42:18.000Z</time>
      </trkpt>
      <trkpt lat="47.32394" lon="-1.33184">
        <ele>51</ele>
        <time>2021-05-29T12:42:22.000Z</time>
      </trkpt>
      <trkpt lat="47.3239" lon="-1.33197">
        <ele>51</ele>
        <time>2021-05-29T12:42:27.000Z</time>
      </trkpt>
      <trkpt lat="47.32383" lon="-1.33205">
        <ele>51</ele>
        <time>2021-05-29T12:42:51.000Z</time>
      </trkpt>
      <trkpt lat="47.32371" lon="-1.33214">
        <ele>52</ele>
        <time>2021-05-29T12:43:28.000Z</time>
      </trkpt>
      <trkpt lat="47.32364" lon="-1.33227">
        <ele>54</ele>
        <time>2021-05-29T12:43:31.000Z</time>
      </trkpt>
      <trkpt lat="47.3236" lon="-1.3324">
        <ele>53</ele>
        <time>2021-05-29T12:43:33.000Z</time>
      </trkpt>
      <trkpt lat="47.32354" lon="-1.33251">
        <ele>54</ele>
        <time>2021-05-29T12:43:35.000Z</time>
      </trkpt>
      <trkpt lat="47.32348" lon="-1.33262">
        <ele>54</ele>
        <time>2021-05-29T12:43:37.000Z</time>
      </trkpt>
      <trkpt lat="47.32341" lon="-1.33274">
        <ele>54</ele>
        <time>2021-05-29T12:43:39.000Z</time>
      </trkpt>
      <trkpt lat="47.32337" lon="-1.33288">
        <ele>55</ele>
        <time>2021-05-29T12:43:41.000Z</time>
      </trkpt>
      <trkpt lat="47.32332" lon="-1.33302">
        <ele>55</ele>
        <time>2021-05-29T12:43:43.000Z</time>
      </trkpt>
      <trkpt lat="47.32327" lon="-1.33315">
        <ele>55</ele>
        <time>2021-05-29T12:43:45.000Z</time>
      </trkpt>
      <trkpt lat="47.32322" lon="-1.33329">
        <ele>56</ele>
        <time>2021-05-29T12:43:47.000Z</time>
      </trkpt>
      <trkpt lat="47.32316" lon="-1.33342">
        <ele>56</ele>
        <time>2021-05-29T12:43:49.000Z</time>
      </trkpt>
      <trkpt lat="47.32306" lon="-1.33362">
        <ele>55</ele>
        <time>2021-05-29T12:43:52.000Z</time>
      </trkpt>
      <trkpt lat="47.323" lon="-1.33376">
        <ele>56</ele>
        <time>2021-05-29T12:43:54.000Z</time>
      </trkpt>
      <trkpt lat="47.32293" lon="-1.3339">
        <ele>55</ele>
        <time>2021-05-29T12:43:56.000Z</time>
      </trkpt>
      <trkpt lat="47.32287" lon="-1.33403">
        <ele>55</ele>
        <time>2021-05-29T12:43:58.000Z</time>
      </trkpt>
      <trkpt lat="47.32281" lon="-1.33418">
        <ele>55</ele>
        <time>2021-05-29T12:44:00.000Z</time>
      </trkpt>
      <trkpt lat="47.32277" lon="-1.33433">
        <ele>55</ele>
        <time>2021-05-29T12:44:02.000Z</time>
      </trkpt>
      <trkpt lat="47.32272" lon="-1.33448">
        <ele>54</ele>
        <time>2021-05-29T12:44:04.000Z</time>
      </trkpt>
      <trkpt lat="47.3226" lon="-1.33465">
        <ele>55</ele>
        <time>2021-05-29T12:44:07.000Z</time>
      </trkpt>
      <trkpt lat="47.32254" lon="-1.33478">
        <ele>53</ele>
        <time>2021-05-29T12:44:09.000Z</time>
      </trkpt>
      <trkpt lat="47.32248" lon="-1.33491">
        <ele>53</ele>
        <time>2021-05-29T12:44:11.000Z</time>
      </trkpt>
      <trkpt lat="47.32241" lon="-1.33505">
        <ele>54</ele>
        <time>2021-05-29T12:44:13.000Z</time>
      </trkpt>
      <trkpt lat="47.32234" lon="-1.33519">
        <ele>54</ele>
        <time>2021-05-29T12:44:15.000Z</time>
      </trkpt>
      <trkpt lat="47.32227" lon="-1.33532">
        <ele>54</ele>
        <time>2021-05-29T12:44:17.000Z</time>
      </trkpt>
      <trkpt lat="47.32223" lon="-1.33545">
        <ele>53</ele>
        <time>2021-05-29T12:44:19.000Z</time>
      </trkpt>
      <trkpt lat="47.32217" lon="-1.33557">
        <ele>53</ele>
        <time>2021-05-29T12:44:21.000Z</time>
      </trkpt>
      <trkpt lat="47.3221" lon="-1.33571">
        <ele>54</ele>
        <time>2021-05-29T12:44:23.000Z</time>
      </trkpt>
      <trkpt lat="47.32204" lon="-1.33584">
        <ele>55</ele>
        <time>2021-05-29T12:44:25.000Z</time>
      </trkpt>
      <trkpt lat="47.32197" lon="-1.33597">
        <ele>55</ele>
        <time>2021-05-29T12:44:27.000Z</time>
      </trkpt>
      <trkpt lat="47.32192" lon="-1.33611">
        <ele>55</ele>
        <time>2021-05-29T12:44:29.000Z</time>
      </trkpt>
      <trkpt lat="47.32186" lon="-1.33625">
        <ele>55</ele>
        <time>2021-05-29T12:44:31.000Z</time>
      </trkpt>
      <trkpt lat="47.32182" lon="-1.33637">
        <ele>55</ele>
        <time>2021-05-29T12:44:33.000Z</time>
      </trkpt>
      <trkpt lat="47.32176" lon="-1.33652">
        <ele>54</ele>
        <time>2021-05-29T12:44:36.000Z</time>
      </trkpt>
      <trkpt lat="47.32171" lon="-1.33664">
        <ele>54</ele>
        <time>2021-05-29T12:44:38.000Z</time>
      </trkpt>
      <trkpt lat="47.32166" lon="-1.33679">
        <ele>55</ele>
        <time>2021-05-29T12:44:40.000Z</time>
      </trkpt>
      <trkpt lat="47.32162" lon="-1.33692">
        <ele>54</ele>
        <time>2021-05-29T12:44:42.000Z</time>
      </trkpt>
      <trkpt lat="47.32158" lon="-1.33707">
        <ele>53</ele>
        <time>2021-05-29T12:44:44.000Z</time>
      </trkpt>
      <trkpt lat="47.32155" lon="-1.33723">
        <ele>54</ele>
        <time>2021-05-29T12:44:46.000Z</time>
      </trkpt>
      <trkpt lat="47.32149" lon="-1.33734">
        <ele>54</ele>
        <time>2021-05-29T12:44:48.000Z</time>
      </trkpt>
      <trkpt lat="47.32141" lon="-1.33748">
        <ele>54</ele>
        <time>2021-05-29T12:44:51.000Z</time>
      </trkpt>
      <trkpt lat="47.32136" lon="-1.33761">
        <ele>53</ele>
        <time>2021-05-29T12:44:53.000Z</time>
      </trkpt>
      <trkpt lat="47.3213" lon="-1.33772">
        <ele>53</ele>
        <time>2021-05-29T12:44:55.000Z</time>
      </trkpt>
      <trkpt lat="47.32122" lon="-1.3379">
        <ele>54</ele>
        <time>2021-05-29T12:44:58.000Z</time>
      </trkpt>
      <trkpt lat="47.32119" lon="-1.33804">
        <ele>53</ele>
        <time>2021-05-29T12:45:00.000Z</time>
      </trkpt>
      <trkpt lat="47.32108" lon="-1.33819">
        <ele>54</ele>
        <time>2021-05-29T12:45:02.000Z</time>
      </trkpt>
      <trkpt lat="47.321" lon="-1.33835">
        <ele>55</ele>
        <time>2021-05-29T12:45:04.000Z</time>
      </trkpt>
      <trkpt lat="47.32092" lon="-1.33851">
        <ele>55</ele>
        <time>2021-05-29T12:45:06.000Z</time>
      </trkpt>
      <trkpt lat="47.32084" lon="-1.33866">
        <ele>55</ele>
        <time>2021-05-29T12:45:08.000Z</time>
      </trkpt>
      <trkpt lat="47.32077" lon="-1.33882">
        <ele>56</ele>
        <time>2021-05-29T12:45:10.000Z</time>
      </trkpt>
      <trkpt lat="47.32069" lon="-1.33898">
        <ele>56</ele>
        <time>2021-05-29T12:45:12.000Z</time>
      </trkpt>
      <trkpt lat="47.32059" lon="-1.33913">
        <ele>55</ele>
        <time>2021-05-29T12:45:14.000Z</time>
      </trkpt>
      <trkpt lat="47.3205" lon="-1.33927">
        <ele>54</ele>
        <time>2021-05-29T12:45:16.000Z</time>
      </trkpt>
      <trkpt lat="47.32041" lon="-1.3394">
        <ele>53</ele>
        <time>2021-05-29T12:45:18.000Z</time>
      </trkpt>
      <trkpt lat="47.32033" lon="-1.33955">
        <ele>53</ele>
        <time>2021-05-29T12:45:20.000Z</time>
      </trkpt>
      <trkpt lat="47.32026" lon="-1.3397">
        <ele>54</ele>
        <time>2021-05-29T12:45:22.000Z</time>
      </trkpt>
      <trkpt lat="47.32018" lon="-1.33982">
        <ele>55</ele>
        <time>2021-05-29T12:45:24.000Z</time>
      </trkpt>
      <trkpt lat="47.3201" lon="-1.33995">
        <ele>55</ele>
        <time>2021-05-29T12:45:26.000Z</time>
      </trkpt>
      <trkpt lat="47.32002" lon="-1.34009">
        <ele>53</ele>
        <time>2021-05-29T12:45:28.000Z</time>
      </trkpt>
      <trkpt lat="47.31993" lon="-1.34024">
        <ele>54</ele>
        <time>2021-05-29T12:45:30.000Z</time>
      </trkpt>
      <trkpt lat="47.31981" lon="-1.34042">
        <ele>55</ele>
        <time>2021-05-29T12:45:33.000Z</time>
      </trkpt>
      <trkpt lat="47.31973" lon="-1.34056">
        <ele>50</ele>
        <time>2021-05-29T12:45:35.000Z</time>
      </trkpt>
      <trkpt lat="47.31964" lon="-1.34069">
        <ele>52</ele>
        <time>2021-05-29T12:45:37.000Z</time>
      </trkpt>
      <trkpt lat="47.31957" lon="-1.34081">
        <ele>52</ele>
        <time>2021-05-29T12:45:39.000Z</time>
      </trkpt>
      <trkpt lat="47.31948" lon="-1.34094">
        <ele>53</ele>
        <time>2021-05-29T12:45:41.000Z</time>
      </trkpt>
      <trkpt lat="47.31941" lon="-1.34106">
        <ele>51</ele>
        <time>2021-05-29T12:45:43.000Z</time>
      </trkpt>
      <trkpt lat="47.31937" lon="-1.34123">
        <ele>51</ele>
        <time>2021-05-29T12:45:45.000Z</time>
      </trkpt>
      <trkpt lat="47.31928" lon="-1.34133">
        <ele>52</ele>
        <time>2021-05-29T12:45:47.000Z</time>
      </trkpt>
      <trkpt lat="47.31919" lon="-1.34143">
        <ele>53</ele>
        <time>2021-05-29T12:45:49.000Z</time>
      </trkpt>
      <trkpt lat="47.3191" lon="-1.34154">
        <ele>54</ele>
        <time>2021-05-29T12:45:51.000Z</time>
      </trkpt>
      <trkpt lat="47.31902" lon="-1.34166">
        <ele>53</ele>
        <time>2021-05-29T12:45:53.000Z</time>
      </trkpt>
      <trkpt lat="47.31892" lon="-1.3418">
        <ele>54</ele>
        <time>2021-05-29T12:45:55.000Z</time>
      </trkpt>
      <trkpt lat="47.31882" lon="-1.34194">
        <ele>54</ele>
        <time>2021-05-29T12:45:57.000Z</time>
      </trkpt>
      <trkpt lat="47.31873" lon="-1.34208">
        <ele>55</ele>
        <time>2021-05-29T12:45:59.000Z</time>
      </trkpt>
      <trkpt lat="47.31865" lon="-1.34222">
        <ele>54</ele>
        <time>2021-05-29T12:46:01.000Z</time>
      </trkpt>
      <trkpt lat="47.31857" lon="-1.34234">
        <ele>55</ele>
        <time>2021-05-29T12:46:03.000Z</time>
      </trkpt>
      <trkpt lat="47.31844" lon="-1.34254">
        <ele>54</ele>
        <time>2021-05-29T12:46:06.000Z</time>
      </trkpt>
      <trkpt lat="47.31834" lon="-1.34268">
        <ele>53</ele>
        <time>2021-05-29T12:46:08.000Z</time>
      </trkpt>
      <trkpt lat="47.31826" lon="-1.3428">
        <ele>53</ele>
        <time>2021-05-29T12:46:10.000Z</time>
      </trkpt>
      <trkpt lat="47.31819" lon="-1.34293">
        <ele>53</ele>
        <time>2021-05-29T12:46:12.000Z</time>
      </trkpt>
      <trkpt lat="47.31811" lon="-1.34306">
        <ele>53</ele>
        <time>2021-05-29T12:46:14.000Z</time>
      </trkpt>
      <trkpt lat="47.31802" lon="-1.34319">
        <ele>53</ele>
        <time>2021-05-29T12:46:16.000Z</time>
      </trkpt>
      <trkpt lat="47.31793" lon="-1.34332">
        <ele>52</ele>
        <time>2021-05-29T12:46:18.000Z</time>
      </trkpt>
      <trkpt lat="47.31785" lon="-1.34344">
        <ele>52</ele>
        <time>2021-05-29T12:46:20.000Z</time>
      </trkpt>
      <trkpt lat="47.31777" lon="-1.34356">
        <ele>52</ele>
        <time>2021-05-29T12:46:22.000Z</time>
      </trkpt>
      <trkpt lat="47.31769" lon="-1.34369">
        <ele>53</ele>
        <time>2021-05-29T12:46:24.000Z</time>
      </trkpt>
      <trkpt lat="47.31761" lon="-1.3438">
        <ele>53</ele>
        <time>2021-05-29T12:46:26.000Z</time>
      </trkpt>
      <trkpt lat="47.31754" lon="-1.34393">
        <ele>53</ele>
        <time>2021-05-29T12:46:28.000Z</time>
      </trkpt>
      <trkpt lat="47.31748" lon="-1.34408">
        <ele>54</ele>
        <time>2021-05-29T12:46:30.000Z</time>
      </trkpt>
      <trkpt lat="47.31742" lon="-1.34422">
        <ele>54</ele>
        <time>2021-05-29T12:46:32.000Z</time>
      </trkpt>
      <trkpt lat="47.31733" lon="-1.34434">
        <ele>55</ele>
        <time>2021-05-29T12:46:34.000Z</time>
      </trkpt>
      <trkpt lat="47.3172" lon="-1.34453">
        <ele>54</ele>
        <time>2021-05-29T12:46:37.000Z</time>
      </trkpt>
      <trkpt lat="47.31707" lon="-1.34472">
        <ele>54</ele>
        <time>2021-05-29T12:46:40.000Z</time>
      </trkpt>
      <trkpt lat="47.317" lon="-1.34485">
        <ele>54</ele>
        <time>2021-05-29T12:46:42.000Z</time>
      </trkpt>
      <trkpt lat="47.31692" lon="-1.34497">
        <ele>53</ele>
        <time>2021-05-29T12:46:44.000Z</time>
      </trkpt>
      <trkpt lat="47.31685" lon="-1.34513">
        <ele>51</ele>
        <time>2021-05-29T12:46:46.000Z</time>
      </trkpt>
      <trkpt lat="47.31676" lon="-1.34528">
        <ele>50</ele>
        <time>2021-05-29T12:46:48.000Z</time>
      </trkpt>
      <trkpt lat="47.31666" lon="-1.34539">
        <ele>51</ele>
        <time>2021-05-29T12:46:50.000Z</time>
      </trkpt>
      <trkpt lat="47.31655" lon="-1.3456">
        <ele>49</ele>
        <time>2021-05-29T12:46:53.000Z</time>
      </trkpt>
      <trkpt lat="47.31646" lon="-1.34572">
        <ele>50</ele>
        <time>2021-05-29T12:46:55.000Z</time>
      </trkpt>
      <trkpt lat="47.31639" lon="-1.34584">
        <ele>51</ele>
        <time>2021-05-29T12:46:57.000Z</time>
      </trkpt>
      <trkpt lat="47.31631" lon="-1.34595">
        <ele>53</ele>
        <time>2021-05-29T12:46:59.000Z</time>
      </trkpt>
      <trkpt lat="47.31622" lon="-1.34603">
        <ele>52</ele>
        <time>2021-05-29T12:47:01.000Z</time>
      </trkpt>
      <trkpt lat="47.31613" lon="-1.34616">
        <ele>52</ele>
        <time>2021-05-29T12:47:03.000Z</time>
      </trkpt>
      <trkpt lat="47.31605" lon="-1.3463">
        <ele>53</ele>
        <time>2021-05-29T12:47:05.000Z</time>
      </trkpt>
      <trkpt lat="47.31594" lon="-1.34648">
        <ele>52</ele>
        <time>2021-05-29T12:47:08.000Z</time>
      </trkpt>
      <trkpt lat="47.31587" lon="-1.3466">
        <ele>51</ele>
        <time>2021-05-29T12:47:10.000Z</time>
      </trkpt>
      <trkpt lat="47.3158" lon="-1.34675">
        <ele>52</ele>
        <time>2021-05-29T12:47:12.000Z</time>
      </trkpt>
      <trkpt lat="47.31572" lon="-1.34687">
        <ele>54</ele>
        <time>2021-05-29T12:47:14.000Z</time>
      </trkpt>
      <trkpt lat="47.31564" lon="-1.34701">
        <ele>53</ele>
        <time>2021-05-29T12:47:16.000Z</time>
      </trkpt>
      <trkpt lat="47.31557" lon="-1.34715">
        <ele>54</ele>
        <time>2021-05-29T12:47:18.000Z</time>
      </trkpt>
      <trkpt lat="47.31548" lon="-1.34728">
        <ele>54</ele>
        <time>2021-05-29T12:47:20.000Z</time>
      </trkpt>
      <trkpt lat="47.3154" lon="-1.34742">
        <ele>54</ele>
        <time>2021-05-29T12:47:22.000Z</time>
      </trkpt>
      <trkpt lat="47.31527" lon="-1.3476">
        <ele>55</ele>
        <time>2021-05-29T12:47:25.000Z</time>
      </trkpt>
      <trkpt lat="47.31518" lon="-1.34772">
        <ele>55</ele>
        <time>2021-05-29T12:47:27.000Z</time>
      </trkpt>
      <trkpt lat="47.31512" lon="-1.34786">
        <ele>55</ele>
        <time>2021-05-29T12:47:29.000Z</time>
      </trkpt>
      <trkpt lat="47.315" lon="-1.34805">
        <ele>55</ele>
        <time>2021-05-29T12:47:32.000Z</time>
      </trkpt>
      <trkpt lat="47.31493" lon="-1.34818">
        <ele>55</ele>
        <time>2021-05-29T12:47:34.000Z</time>
      </trkpt>
      <trkpt lat="47.31484" lon="-1.34832">
        <ele>54</ele>
        <time>2021-05-29T12:47:36.000Z</time>
      </trkpt>
      <trkpt lat="47.31476" lon="-1.34846">
        <ele>55</ele>
        <time>2021-05-29T12:47:38.000Z</time>
      </trkpt>
      <trkpt lat="47.31467" lon="-1.34857">
        <ele>55</ele>
        <time>2021-05-29T12:47:40.000Z</time>
      </trkpt>
      <trkpt lat="47.31453" lon="-1.34875">
        <ele>55</ele>
        <time>2021-05-29T12:47:43.000Z</time>
      </trkpt>
      <trkpt lat="47.31445" lon="-1.34889">
        <ele>55</ele>
        <time>2021-05-29T12:47:45.000Z</time>
      </trkpt>
      <trkpt lat="47.31437" lon="-1.34901">
        <ele>55</ele>
        <time>2021-05-29T12:47:47.000Z</time>
      </trkpt>
      <trkpt lat="47.31429" lon="-1.34914">
        <ele>55</ele>
        <time>2021-05-29T12:47:49.000Z</time>
      </trkpt>
      <trkpt lat="47.3142" lon="-1.34926">
        <ele>55</ele>
        <time>2021-05-29T12:47:51.000Z</time>
      </trkpt>
      <trkpt lat="47.31412" lon="-1.34939">
        <ele>55</ele>
        <time>2021-05-29T12:47:53.000Z</time>
      </trkpt>
      <trkpt lat="47.31404" lon="-1.34951">
        <ele>55</ele>
        <time>2021-05-29T12:47:55.000Z</time>
      </trkpt>
      <trkpt lat="47.31397" lon="-1.34962">
        <ele>52</ele>
        <time>2021-05-29T12:47:57.000Z</time>
      </trkpt>
      <trkpt lat="47.31391" lon="-1.34976">
        <ele>47</ele>
        <time>2021-05-29T12:47:59.000Z</time>
      </trkpt>
      <trkpt lat="47.31382" lon="-1.34991">
        <ele>47</ele>
        <time>2021-05-29T12:48:01.000Z</time>
      </trkpt>
      <trkpt lat="47.31374" lon="-1.35003">
        <ele>49</ele>
        <time>2021-05-29T12:48:03.000Z</time>
      </trkpt>
      <trkpt lat="47.31366" lon="-1.35015">
        <ele>50</ele>
        <time>2021-05-29T12:48:05.000Z</time>
      </trkpt>
      <trkpt lat="47.31355" lon="-1.35036">
        <ele>48</ele>
        <time>2021-05-29T12:48:08.000Z</time>
      </trkpt>
      <trkpt lat="47.31347" lon="-1.35047">
        <ele>50</ele>
        <time>2021-05-29T12:48:10.000Z</time>
      </trkpt>
      <trkpt lat="47.31339" lon="-1.35058">
        <ele>51</ele>
        <time>2021-05-29T12:48:12.000Z</time>
      </trkpt>
      <trkpt lat="47.31332" lon="-1.35078">
        <ele>49</ele>
        <time>2021-05-29T12:48:15.000Z</time>
      </trkpt>
      <trkpt lat="47.31319" lon="-1.35089">
        <ele>51</ele>
        <time>2021-05-29T12:48:18.000Z</time>
      </trkpt>
      <trkpt lat="47.31308" lon="-1.35092">
        <ele>53</ele>
        <time>2021-05-29T12:48:20.000Z</time>
      </trkpt>
      <trkpt lat="47.31299" lon="-1.35102">
        <ele>53</ele>
        <time>2021-05-29T12:48:22.000Z</time>
      </trkpt>
      <trkpt lat="47.31292" lon="-1.35112">
        <ele>53</ele>
        <time>2021-05-29T12:48:24.000Z</time>
      </trkpt>
      <trkpt lat="47.31284" lon="-1.35129">
        <ele>53</ele>
        <time>2021-05-29T12:48:27.000Z</time>
      </trkpt>
      <trkpt lat="47.31275" lon="-1.35149">
        <ele>51</ele>
        <time>2021-05-29T12:48:30.000Z</time>
      </trkpt>
      <trkpt lat="47.3127" lon="-1.35164">
        <ele>51</ele>
        <time>2021-05-29T12:48:32.000Z</time>
      </trkpt>
      <trkpt lat="47.31262" lon="-1.35177">
        <ele>52</ele>
        <time>2021-05-29T12:48:34.000Z</time>
      </trkpt>
      <trkpt lat="47.31254" lon="-1.35191">
        <ele>51</ele>
        <time>2021-05-29T12:48:36.000Z</time>
      </trkpt>
      <trkpt lat="47.31246" lon="-1.35205">
        <ele>50</ele>
        <time>2021-05-29T12:48:38.000Z</time>
      </trkpt>
      <trkpt lat="47.31239" lon="-1.35217">
        <ele>50</ele>
        <time>2021-05-29T12:48:40.000Z</time>
      </trkpt>
      <trkpt lat="47.3123" lon="-1.35226">
        <ele>51</ele>
        <time>2021-05-29T12:48:42.000Z</time>
      </trkpt>
      <trkpt lat="47.31216" lon="-1.35245">
        <ele>48</ele>
        <time>2021-05-29T12:48:45.000Z</time>
      </trkpt>
      <trkpt lat="47.31207" lon="-1.35257">
        <ele>48</ele>
        <time>2021-05-29T12:48:47.000Z</time>
      </trkpt>
      <trkpt lat="47.31197" lon="-1.35269">
        <ele>48</ele>
        <time>2021-05-29T12:48:49.000Z</time>
      </trkpt>
      <trkpt lat="47.31191" lon="-1.35282">
        <ele>49</ele>
        <time>2021-05-29T12:48:51.000Z</time>
      </trkpt>
      <trkpt lat="47.31185" lon="-1.35295">
        <ele>48</ele>
        <time>2021-05-29T12:48:53.000Z</time>
      </trkpt>
      <trkpt lat="47.31177" lon="-1.35308">
        <ele>49</ele>
        <time>2021-05-29T12:48:55.000Z</time>
      </trkpt>
      <trkpt lat="47.3117" lon="-1.35319">
        <ele>50</ele>
        <time>2021-05-29T12:48:57.000Z</time>
      </trkpt>
      <trkpt lat="47.31158" lon="-1.35338">
        <ele>50</ele>
        <time>2021-05-29T12:49:00.000Z</time>
      </trkpt>
      <trkpt lat="47.31148" lon="-1.35355">
        <ele>50</ele>
        <time>2021-05-29T12:49:02.000Z</time>
      </trkpt>
      <trkpt lat="47.3114" lon="-1.35367">
        <ele>51</ele>
        <time>2021-05-29T12:49:04.000Z</time>
      </trkpt>
      <trkpt lat="47.3113" lon="-1.35381">
        <ele>51</ele>
        <time>2021-05-29T12:49:07.000Z</time>
      </trkpt>
      <trkpt lat="47.31123" lon="-1.35391">
        <ele>50</ele>
        <time>2021-05-29T12:49:09.000Z</time>
      </trkpt>
      <trkpt lat="47.31116" lon="-1.35405">
        <ele>48</ele>
        <time>2021-05-29T12:49:11.000Z</time>
      </trkpt>
      <trkpt lat="47.31108" lon="-1.35418">
        <ele>49</ele>
        <time>2021-05-29T12:49:13.000Z</time>
      </trkpt>
      <trkpt lat="47.311" lon="-1.3543">
        <ele>48</ele>
        <time>2021-05-29T12:49:15.000Z</time>
      </trkpt>
      <trkpt lat="47.31092" lon="-1.35444">
        <ele>47</ele>
        <time>2021-05-29T12:49:17.000Z</time>
      </trkpt>
      <trkpt lat="47.31079" lon="-1.35458">
        <ele>50</ele>
        <time>2021-05-29T12:49:20.000Z</time>
      </trkpt>
      <trkpt lat="47.31071" lon="-1.35469">
        <ele>50</ele>
        <time>2021-05-29T12:49:22.000Z</time>
      </trkpt>
      <trkpt lat="47.31062" lon="-1.3548">
        <ele>50</ele>
        <time>2021-05-29T12:49:24.000Z</time>
      </trkpt>
      <trkpt lat="47.31054" lon="-1.35493">
        <ele>50</ele>
        <time>2021-05-29T12:49:26.000Z</time>
      </trkpt>
      <trkpt lat="47.31042" lon="-1.35513">
        <ele>48</ele>
        <time>2021-05-29T12:49:29.000Z</time>
      </trkpt>
      <trkpt lat="47.31031" lon="-1.3552">
        <ele>50</ele>
        <time>2021-05-29T12:49:31.000Z</time>
      </trkpt>
      <trkpt lat="47.31021" lon="-1.35529">
        <ele>52</ele>
        <time>2021-05-29T12:49:33.000Z</time>
      </trkpt>
      <trkpt lat="47.31007" lon="-1.35545">
        <ele>51</ele>
        <time>2021-05-29T12:49:36.000Z</time>
      </trkpt>
      <trkpt lat="47.30996" lon="-1.35555">
        <ele>52</ele>
        <time>2021-05-29T12:49:38.000Z</time>
      </trkpt>
      <trkpt lat="47.30986" lon="-1.35565">
        <ele>52</ele>
        <time>2021-05-29T12:49:40.000Z</time>
      </trkpt>
      <trkpt lat="47.30977" lon="-1.35576">
        <ele>52</ele>
        <time>2021-05-29T12:49:42.000Z</time>
      </trkpt>
      <trkpt lat="47.30969" lon="-1.35588">
        <ele>53</ele>
        <time>2021-05-29T12:49:44.000Z</time>
      </trkpt>
      <trkpt lat="47.30957" lon="-1.35604">
        <ele>53</ele>
        <time>2021-05-29T12:49:47.000Z</time>
      </trkpt>
      <trkpt lat="47.3095" lon="-1.35616">
        <ele>53</ele>
        <time>2021-05-29T12:49:49.000Z</time>
      </trkpt>
      <trkpt lat="47.30942" lon="-1.35628">
        <ele>52</ele>
        <time>2021-05-29T12:49:51.000Z</time>
      </trkpt>
      <trkpt lat="47.30934" lon="-1.35634">
        <ele>52</ele>
        <time>2021-05-29T12:49:53.000Z</time>
      </trkpt>
      <trkpt lat="47.30924" lon="-1.35642">
        <ele>52</ele>
        <time>2021-05-29T12:49:55.000Z</time>
      </trkpt>
      <trkpt lat="47.30914" lon="-1.35653">
        <ele>52</ele>
        <time>2021-05-29T12:49:57.000Z</time>
      </trkpt>
      <trkpt lat="47.30907" lon="-1.35666">
        <ele>51</ele>
        <time>2021-05-29T12:49:59.000Z</time>
      </trkpt>
      <trkpt lat="47.309" lon="-1.35677">
        <ele>54</ele>
        <time>2021-05-29T12:50:01.000Z</time>
      </trkpt>
      <trkpt lat="47.3089" lon="-1.35688">
        <ele>54</ele>
        <time>2021-05-29T12:50:03.000Z</time>
      </trkpt>
      <trkpt lat="47.3088" lon="-1.35699">
        <ele>54</ele>
        <time>2021-05-29T12:50:05.000Z</time>
      </trkpt>
      <trkpt lat="47.30871" lon="-1.35713">
        <ele>51</ele>
        <time>2021-05-29T12:50:07.000Z</time>
      </trkpt>
      <trkpt lat="47.30861" lon="-1.35724">
        <ele>51</ele>
        <time>2021-05-29T12:50:09.000Z</time>
      </trkpt>
      <trkpt lat="47.30844" lon="-1.35738">
        <ele>52</ele>
        <time>2021-05-29T12:50:12.000Z</time>
      </trkpt>
      <trkpt lat="47.30835" lon="-1.35747">
        <ele>53</ele>
        <time>2021-05-29T12:50:14.000Z</time>
      </trkpt>
      <trkpt lat="47.3082" lon="-1.35764">
        <ele>53</ele>
        <time>2021-05-29T12:50:17.000Z</time>
      </trkpt>
      <trkpt lat="47.30812" lon="-1.35777">
        <ele>53</ele>
        <time>2021-05-29T12:50:19.000Z</time>
      </trkpt>
      <trkpt lat="47.30803" lon="-1.35787">
        <ele>54</ele>
        <time>2021-05-29T12:50:21.000Z</time>
      </trkpt>
      <trkpt lat="47.30793" lon="-1.35797">
        <ele>53</ele>
        <time>2021-05-29T12:50:23.000Z</time>
      </trkpt>
      <trkpt lat="47.30783" lon="-1.35807">
        <ele>53</ele>
        <time>2021-05-29T12:50:25.000Z</time>
      </trkpt>
      <trkpt lat="47.30768" lon="-1.35823">
        <ele>53</ele>
        <time>2021-05-29T12:50:28.000Z</time>
      </trkpt>
      <trkpt lat="47.30761" lon="-1.35834">
        <ele>52</ele>
        <time>2021-05-29T12:50:30.000Z</time>
      </trkpt>
      <trkpt lat="47.30752" lon="-1.35847">
        <ele>51</ele>
        <time>2021-05-29T12:50:32.000Z</time>
      </trkpt>
      <trkpt lat="47.30741" lon="-1.35857">
        <ele>52</ele>
        <time>2021-05-29T12:50:34.000Z</time>
      </trkpt>
      <trkpt lat="47.30731" lon="-1.35868">
        <ele>53</ele>
        <time>2021-05-29T12:50:36.000Z</time>
      </trkpt>
      <trkpt lat="47.3072" lon="-1.3588">
        <ele>51</ele>
        <time>2021-05-29T12:50:38.000Z</time>
      </trkpt>
      <trkpt lat="47.30711" lon="-1.35891">
        <ele>51</ele>
        <time>2021-05-29T12:50:40.000Z</time>
      </trkpt>
      <trkpt lat="47.30701" lon="-1.35901">
        <ele>52</ele>
        <time>2021-05-29T12:50:42.000Z</time>
      </trkpt>
      <trkpt lat="47.3069" lon="-1.35911">
        <ele>52</ele>
        <time>2021-05-29T12:50:44.000Z</time>
      </trkpt>
      <trkpt lat="47.30681" lon="-1.35925">
        <ele>49</ele>
        <time>2021-05-29T12:50:46.000Z</time>
      </trkpt>
      <trkpt lat="47.30668" lon="-1.3594">
        <ele>50</ele>
        <time>2021-05-29T12:50:49.000Z</time>
      </trkpt>
      <trkpt lat="47.30659" lon="-1.3595">
        <ele>52</ele>
        <time>2021-05-29T12:50:51.000Z</time>
      </trkpt>
      <trkpt lat="47.3065" lon="-1.35961">
        <ele>51</ele>
        <time>2021-05-29T12:50:53.000Z</time>
      </trkpt>
      <trkpt lat="47.3064" lon="-1.35972">
        <ele>51</ele>
        <time>2021-05-29T12:50:55.000Z</time>
      </trkpt>
      <trkpt lat="47.30631" lon="-1.35982">
        <ele>52</ele>
        <time>2021-05-29T12:50:57.000Z</time>
      </trkpt>
      <trkpt lat="47.30621" lon="-1.35993">
        <ele>52</ele>
        <time>2021-05-29T12:50:59.000Z</time>
      </trkpt>
      <trkpt lat="47.30612" lon="-1.36003">
        <ele>52</ele>
        <time>2021-05-29T12:51:01.000Z</time>
      </trkpt>
      <trkpt lat="47.30603" lon="-1.36013">
        <ele>51</ele>
        <time>2021-05-29T12:51:03.000Z</time>
      </trkpt>
      <trkpt lat="47.30595" lon="-1.36023">
        <ele>51</ele>
        <time>2021-05-29T12:51:05.000Z</time>
      </trkpt>
      <trkpt lat="47.30586" lon="-1.36034">
        <ele>51</ele>
        <time>2021-05-29T12:51:07.000Z</time>
      </trkpt>
      <trkpt lat="47.30579" lon="-1.36046">
        <ele>52</ele>
        <time>2021-05-29T12:51:09.000Z</time>
      </trkpt>
      <trkpt lat="47.30573" lon="-1.3606">
        <ele>52</ele>
        <time>2021-05-29T12:51:11.000Z</time>
      </trkpt>
      <trkpt lat="47.3056" lon="-1.36076">
        <ele>53</ele>
        <time>2021-05-29T12:51:14.000Z</time>
      </trkpt>
      <trkpt lat="47.30552" lon="-1.36087">
        <ele>53</ele>
        <time>2021-05-29T12:51:16.000Z</time>
      </trkpt>
      <trkpt lat="47.30544" lon="-1.36102">
        <ele>51</ele>
        <time>2021-05-29T12:51:18.000Z</time>
      </trkpt>
      <trkpt lat="47.30537" lon="-1.36116">
        <ele>51</ele>
        <time>2021-05-29T12:51:20.000Z</time>
      </trkpt>
      <trkpt lat="47.30524" lon="-1.36133">
        <ele>52</ele>
        <time>2021-05-29T12:51:23.000Z</time>
      </trkpt>
      <trkpt lat="47.30515" lon="-1.3615">
        <ele>51</ele>
        <time>2021-05-29T12:51:25.000Z</time>
      </trkpt>
      <trkpt lat="47.30508" lon="-1.36165">
        <ele>51</ele>
        <time>2021-05-29T12:51:27.000Z</time>
      </trkpt>
      <trkpt lat="47.30501" lon="-1.36175">
        <ele>52</ele>
        <time>2021-05-29T12:51:29.000Z</time>
      </trkpt>
      <trkpt lat="47.30488" lon="-1.36193">
        <ele>52</ele>
        <time>2021-05-29T12:51:32.000Z</time>
      </trkpt>
      <trkpt lat="47.30477" lon="-1.36214">
        <ele>53</ele>
        <time>2021-05-29T12:51:35.000Z</time>
      </trkpt>
      <trkpt lat="47.30469" lon="-1.36227">
        <ele>53</ele>
        <time>2021-05-29T12:51:37.000Z</time>
      </trkpt>
      <trkpt lat="47.30462" lon="-1.36241">
        <ele>53</ele>
        <time>2021-05-29T12:51:39.000Z</time>
      </trkpt>
      <trkpt lat="47.30452" lon="-1.36265">
        <ele>52</ele>
        <time>2021-05-29T12:51:42.000Z</time>
      </trkpt>
      <trkpt lat="47.30444" lon="-1.3628">
        <ele>52</ele>
        <time>2021-05-29T12:51:44.000Z</time>
      </trkpt>
      <trkpt lat="47.30436" lon="-1.36293">
        <ele>53</ele>
        <time>2021-05-29T12:51:46.000Z</time>
      </trkpt>
      <trkpt lat="47.30427" lon="-1.36313">
        <ele>53</ele>
        <time>2021-05-29T12:51:49.000Z</time>
      </trkpt>
      <trkpt lat="47.30422" lon="-1.36326">
        <ele>55</ele>
        <time>2021-05-29T12:51:51.000Z</time>
      </trkpt>
      <trkpt lat="47.30416" lon="-1.36342">
        <ele>57</ele>
        <time>2021-05-29T12:51:53.000Z</time>
      </trkpt>
      <trkpt lat="47.30405" lon="-1.36364">
        <ele>56</ele>
        <time>2021-05-29T12:51:56.000Z</time>
      </trkpt>
      <trkpt lat="47.30399" lon="-1.36379">
        <ele>54</ele>
        <time>2021-05-29T12:51:58.000Z</time>
      </trkpt>
      <trkpt lat="47.30394" lon="-1.36396">
        <ele>54</ele>
        <time>2021-05-29T12:52:00.000Z</time>
      </trkpt>
      <trkpt lat="47.30386" lon="-1.36409">
        <ele>54</ele>
        <time>2021-05-29T12:52:02.000Z</time>
      </trkpt>
      <trkpt lat="47.30379" lon="-1.36423">
        <ele>54</ele>
        <time>2021-05-29T12:52:04.000Z</time>
      </trkpt>
      <trkpt lat="47.30371" lon="-1.36436">
        <ele>53</ele>
        <time>2021-05-29T12:52:06.000Z</time>
      </trkpt>
      <trkpt lat="47.30361" lon="-1.36458">
        <ele>54</ele>
        <time>2021-05-29T12:52:09.000Z</time>
      </trkpt>
      <trkpt lat="47.30354" lon="-1.36472">
        <ele>54</ele>
        <time>2021-05-29T12:52:11.000Z</time>
      </trkpt>
      <trkpt lat="47.30349" lon="-1.36486">
        <ele>52</ele>
        <time>2021-05-29T12:52:13.000Z</time>
      </trkpt>
      <trkpt lat="47.30342" lon="-1.36502">
        <ele>53</ele>
        <time>2021-05-29T12:52:15.000Z</time>
      </trkpt>
      <trkpt lat="47.30334" lon="-1.36516">
        <ele>54</ele>
        <time>2021-05-29T12:52:17.000Z</time>
      </trkpt>
      <trkpt lat="47.30328" lon="-1.36532">
        <ele>54</ele>
        <time>2021-05-29T12:52:19.000Z</time>
      </trkpt>
      <trkpt lat="47.30322" lon="-1.36546">
        <ele>54</ele>
        <time>2021-05-29T12:52:21.000Z</time>
      </trkpt>
      <trkpt lat="47.30316" lon="-1.36561">
        <ele>55</ele>
        <time>2021-05-29T12:52:23.000Z</time>
      </trkpt>
      <trkpt lat="47.30308" lon="-1.36575">
        <ele>55</ele>
        <time>2021-05-29T12:52:25.000Z</time>
      </trkpt>
      <trkpt lat="47.303" lon="-1.36589">
        <ele>55</ele>
        <time>2021-05-29T12:52:27.000Z</time>
      </trkpt>
      <trkpt lat="47.30294" lon="-1.36604">
        <ele>55</ele>
        <time>2021-05-29T12:52:29.000Z</time>
      </trkpt>
      <trkpt lat="47.30289" lon="-1.36621">
        <ele>54</ele>
        <time>2021-05-29T12:52:31.000Z</time>
      </trkpt>
      <trkpt lat="47.30281" lon="-1.36634">
        <ele>55</ele>
        <time>2021-05-29T12:52:33.000Z</time>
      </trkpt>
      <trkpt lat="47.30272" lon="-1.36645">
        <ele>55</ele>
        <time>2021-05-29T12:52:35.000Z</time>
      </trkpt>
      <trkpt lat="47.30265" lon="-1.36659">
        <ele>53</ele>
        <time>2021-05-29T12:52:37.000Z</time>
      </trkpt>
      <trkpt lat="47.30254" lon="-1.3668">
        <ele>53</ele>
        <time>2021-05-29T12:52:40.000Z</time>
      </trkpt>
      <trkpt lat="47.30247" lon="-1.36694">
        <ele>54</ele>
        <time>2021-05-29T12:52:42.000Z</time>
      </trkpt>
      <trkpt lat="47.3024" lon="-1.36708">
        <ele>52</ele>
        <time>2021-05-29T12:52:44.000Z</time>
      </trkpt>
      <trkpt lat="47.30234" lon="-1.36725">
        <ele>50</ele>
        <time>2021-05-29T12:52:46.000Z</time>
      </trkpt>
      <trkpt lat="47.30228" lon="-1.36738">
        <ele>49</ele>
        <time>2021-05-29T12:52:48.000Z</time>
      </trkpt>
      <trkpt lat="47.3022" lon="-1.36751">
        <ele>50</ele>
        <time>2021-05-29T12:52:50.000Z</time>
      </trkpt>
      <trkpt lat="47.30213" lon="-1.36764">
        <ele>51</ele>
        <time>2021-05-29T12:52:52.000Z</time>
      </trkpt>
      <trkpt lat="47.30206" lon="-1.36778">
        <ele>52</ele>
        <time>2021-05-29T12:52:54.000Z</time>
      </trkpt>
      <trkpt lat="47.302" lon="-1.36791">
        <ele>53</ele>
        <time>2021-05-29T12:52:56.000Z</time>
      </trkpt>
      <trkpt lat="47.3019" lon="-1.36812">
        <ele>54</ele>
        <time>2021-05-29T12:52:59.000Z</time>
      </trkpt>
      <trkpt lat="47.30184" lon="-1.36826">
        <ele>54</ele>
        <time>2021-05-29T12:53:01.000Z</time>
      </trkpt>
      <trkpt lat="47.30175" lon="-1.36847">
        <ele>54</ele>
        <time>2021-05-29T12:53:04.000Z</time>
      </trkpt>
      <trkpt lat="47.30169" lon="-1.36861">
        <ele>55</ele>
        <time>2021-05-29T12:53:06.000Z</time>
      </trkpt>
      <trkpt lat="47.30161" lon="-1.36875">
        <ele>55</ele>
        <time>2021-05-29T12:53:08.000Z</time>
      </trkpt>
      <trkpt lat="47.30155" lon="-1.36888">
        <ele>54</ele>
        <time>2021-05-29T12:53:10.000Z</time>
      </trkpt>
      <trkpt lat="47.30144" lon="-1.36906">
        <ele>54</ele>
        <time>2021-05-29T12:53:13.000Z</time>
      </trkpt>
      <trkpt lat="47.30137" lon="-1.36922">
        <ele>55</ele>
        <time>2021-05-29T12:53:15.000Z</time>
      </trkpt>
      <trkpt lat="47.3013" lon="-1.36938">
        <ele>53</ele>
        <time>2021-05-29T12:53:17.000Z</time>
      </trkpt>
      <trkpt lat="47.30123" lon="-1.36955">
        <ele>51</ele>
        <time>2021-05-29T12:53:19.000Z</time>
      </trkpt>
      <trkpt lat="47.30113" lon="-1.36975">
        <ele>53</ele>
        <time>2021-05-29T12:53:22.000Z</time>
      </trkpt>
      <trkpt lat="47.30106" lon="-1.36986">
        <ele>54</ele>
        <time>2021-05-29T12:53:24.000Z</time>
      </trkpt>
      <trkpt lat="47.301" lon="-1.36999">
        <ele>54</ele>
        <time>2021-05-29T12:53:26.000Z</time>
      </trkpt>
      <trkpt lat="47.30093" lon="-1.37014">
        <ele>55</ele>
        <time>2021-05-29T12:53:28.000Z</time>
      </trkpt>
      <trkpt lat="47.30086" lon="-1.37028">
        <ele>55</ele>
        <time>2021-05-29T12:53:30.000Z</time>
      </trkpt>
      <trkpt lat="47.30078" lon="-1.3704">
        <ele>55</ele>
        <time>2021-05-29T12:53:32.000Z</time>
      </trkpt>
      <trkpt lat="47.30071" lon="-1.37054">
        <ele>54</ele>
        <time>2021-05-29T12:53:34.000Z</time>
      </trkpt>
      <trkpt lat="47.30064" lon="-1.37066">
        <ele>54</ele>
        <time>2021-05-29T12:53:36.000Z</time>
      </trkpt>
      <trkpt lat="47.30055" lon="-1.37079">
        <ele>54</ele>
        <time>2021-05-29T12:53:38.000Z</time>
      </trkpt>
      <trkpt lat="47.30044" lon="-1.371">
        <ele>54</ele>
        <time>2021-05-29T12:53:41.000Z</time>
      </trkpt>
      <trkpt lat="47.30037" lon="-1.37115">
        <ele>54</ele>
        <time>2021-05-29T12:53:43.000Z</time>
      </trkpt>
      <trkpt lat="47.3003" lon="-1.37128">
        <ele>55</ele>
        <time>2021-05-29T12:53:45.000Z</time>
      </trkpt>
      <trkpt lat="47.30019" lon="-1.37147">
        <ele>54</ele>
        <time>2021-05-29T12:53:48.000Z</time>
      </trkpt>
      <trkpt lat="47.3001" lon="-1.3716">
        <ele>53</ele>
        <time>2021-05-29T12:53:50.000Z</time>
      </trkpt>
      <trkpt lat="47.30001" lon="-1.37173">
        <ele>53</ele>
        <time>2021-05-29T12:53:52.000Z</time>
      </trkpt>
      <trkpt lat="47.29988" lon="-1.37192">
        <ele>51</ele>
        <time>2021-05-29T12:53:55.000Z</time>
      </trkpt>
      <trkpt lat="47.29979" lon="-1.37205">
        <ele>49</ele>
        <time>2021-05-29T12:53:57.000Z</time>
      </trkpt>
      <trkpt lat="47.29971" lon="-1.37218">
        <ele>48</ele>
        <time>2021-05-29T12:53:59.000Z</time>
      </trkpt>
      <trkpt lat="47.29958" lon="-1.37234">
        <ele>50</ele>
        <time>2021-05-29T12:54:02.000Z</time>
      </trkpt>
      <trkpt lat="47.2995" lon="-1.37246">
        <ele>50</ele>
        <time>2021-05-29T12:54:04.000Z</time>
      </trkpt>
      <trkpt lat="47.29943" lon="-1.37259">
        <ele>50</ele>
        <time>2021-05-29T12:54:06.000Z</time>
      </trkpt>
      <trkpt lat="47.29934" lon="-1.37273">
        <ele>50</ele>
        <time>2021-05-29T12:54:08.000Z</time>
      </trkpt>
      <trkpt lat="47.29926" lon="-1.37286">
        <ele>50</ele>
        <time>2021-05-29T12:54:10.000Z</time>
      </trkpt>
      <trkpt lat="47.29917" lon="-1.37299">
        <ele>50</ele>
        <time>2021-05-29T12:54:12.000Z</time>
      </trkpt>
      <trkpt lat="47.29909" lon="-1.37315">
        <ele>50</ele>
        <time>2021-05-29T12:54:14.000Z</time>
      </trkpt>
      <trkpt lat="47.29902" lon="-1.37328">
        <ele>50</ele>
        <time>2021-05-29T12:54:16.000Z</time>
      </trkpt>
      <trkpt lat="47.29888" lon="-1.37346">
        <ele>50</ele>
        <time>2021-05-29T12:54:19.000Z</time>
      </trkpt>
      <trkpt lat="47.29881" lon="-1.37359">
        <ele>49</ele>
        <time>2021-05-29T12:54:21.000Z</time>
      </trkpt>
      <trkpt lat="47.29873" lon="-1.37375">
        <ele>48</ele>
        <time>2021-05-29T12:54:23.000Z</time>
      </trkpt>
      <trkpt lat="47.2986" lon="-1.3739">
        <ele>48</ele>
        <time>2021-05-29T12:54:26.000Z</time>
      </trkpt>
      <trkpt lat="47.29852" lon="-1.37402">
        <ele>48</ele>
        <time>2021-05-29T12:54:28.000Z</time>
      </trkpt>
      <trkpt lat="47.29842" lon="-1.37414">
        <ele>45</ele>
        <time>2021-05-29T12:54:30.000Z</time>
      </trkpt>
      <trkpt lat="47.29833" lon="-1.37426">
        <ele>46</ele>
        <time>2021-05-29T12:54:32.000Z</time>
      </trkpt>
      <trkpt lat="47.29822" lon="-1.37445">
        <ele>47</ele>
        <time>2021-05-29T12:54:35.000Z</time>
      </trkpt>
      <trkpt lat="47.29815" lon="-1.37458">
        <ele>47</ele>
        <time>2021-05-29T12:54:37.000Z</time>
      </trkpt>
      <trkpt lat="47.29808" lon="-1.37471">
        <ele>46</ele>
        <time>2021-05-29T12:54:39.000Z</time>
      </trkpt>
      <trkpt lat="47.29799" lon="-1.37484">
        <ele>47</ele>
        <time>2021-05-29T12:54:41.000Z</time>
      </trkpt>
      <trkpt lat="47.29793" lon="-1.37496">
        <ele>48</ele>
        <time>2021-05-29T12:54:43.000Z</time>
      </trkpt>
      <trkpt lat="47.29785" lon="-1.3751">
        <ele>48</ele>
        <time>2021-05-29T12:54:45.000Z</time>
      </trkpt>
      <trkpt lat="47.29774" lon="-1.37529">
        <ele>48</ele>
        <time>2021-05-29T12:54:48.000Z</time>
      </trkpt>
      <trkpt lat="47.29767" lon="-1.37542">
        <ele>49</ele>
        <time>2021-05-29T12:54:50.000Z</time>
      </trkpt>
      <trkpt lat="47.29759" lon="-1.37556">
        <ele>49</ele>
        <time>2021-05-29T12:54:52.000Z</time>
      </trkpt>
      <trkpt lat="47.29752" lon="-1.3757">
        <ele>50</ele>
        <time>2021-05-29T12:54:54.000Z</time>
      </trkpt>
      <trkpt lat="47.29744" lon="-1.37584">
        <ele>50</ele>
        <time>2021-05-29T12:54:56.000Z</time>
      </trkpt>
      <trkpt lat="47.29735" lon="-1.37605">
        <ele>50</ele>
        <time>2021-05-29T12:54:59.000Z</time>
      </trkpt>
      <trkpt lat="47.29727" lon="-1.37619">
        <ele>49</ele>
        <time>2021-05-29T12:55:01.000Z</time>
      </trkpt>
      <trkpt lat="47.29719" lon="-1.37632">
        <ele>46</ele>
        <time>2021-05-29T12:55:03.000Z</time>
      </trkpt>
      <trkpt lat="47.29712" lon="-1.37647">
        <ele>47</ele>
        <time>2021-05-29T12:55:05.000Z</time>
      </trkpt>
      <trkpt lat="47.29705" lon="-1.37661">
        <ele>48</ele>
        <time>2021-05-29T12:55:07.000Z</time>
      </trkpt>
      <trkpt lat="47.29697" lon="-1.37675">
        <ele>46</ele>
        <time>2021-05-29T12:55:09.000Z</time>
      </trkpt>
      <trkpt lat="47.2969" lon="-1.37688">
        <ele>47</ele>
        <time>2021-05-29T12:55:11.000Z</time>
      </trkpt>
      <trkpt lat="47.29684" lon="-1.37703">
        <ele>48</ele>
        <time>2021-05-29T12:55:13.000Z</time>
      </trkpt>
      <trkpt lat="47.29677" lon="-1.37715">
        <ele>49</ele>
        <time>2021-05-29T12:55:15.000Z</time>
      </trkpt>
      <trkpt lat="47.29671" lon="-1.37729">
        <ele>49</ele>
        <time>2021-05-29T12:55:17.000Z</time>
      </trkpt>
      <trkpt lat="47.29662" lon="-1.3775">
        <ele>49</ele>
        <time>2021-05-29T12:55:20.000Z</time>
      </trkpt>
      <trkpt lat="47.29654" lon="-1.37762">
        <ele>50</ele>
        <time>2021-05-29T12:55:22.000Z</time>
      </trkpt>
      <trkpt lat="47.29647" lon="-1.37774">
        <ele>50</ele>
        <time>2021-05-29T12:55:24.000Z</time>
      </trkpt>
      <trkpt lat="47.29638" lon="-1.37793">
        <ele>50</ele>
        <time>2021-05-29T12:55:27.000Z</time>
      </trkpt>
      <trkpt lat="47.2963" lon="-1.37804">
        <ele>50</ele>
        <time>2021-05-29T12:55:29.000Z</time>
      </trkpt>
      <trkpt lat="47.29623" lon="-1.37816">
        <ele>52</ele>
        <time>2021-05-29T12:55:31.000Z</time>
      </trkpt>
      <trkpt lat="47.29617" lon="-1.37829">
        <ele>52</ele>
        <time>2021-05-29T12:55:33.000Z</time>
      </trkpt>
      <trkpt lat="47.29611" lon="-1.37843">
        <ele>51</ele>
        <time>2021-05-29T12:55:35.000Z</time>
      </trkpt>
      <trkpt lat="47.29605" lon="-1.37857">
        <ele>51</ele>
        <time>2021-05-29T12:55:37.000Z</time>
      </trkpt>
      <trkpt lat="47.29594" lon="-1.37878">
        <ele>50</ele>
        <time>2021-05-29T12:55:40.000Z</time>
      </trkpt>
      <trkpt lat="47.29586" lon="-1.37894">
        <ele>48</ele>
        <time>2021-05-29T12:55:42.000Z</time>
      </trkpt>
      <trkpt lat="47.29583" lon="-1.37907">
        <ele>48</ele>
        <time>2021-05-29T12:55:44.000Z</time>
      </trkpt>
      <trkpt lat="47.29577" lon="-1.37919">
        <ele>50</ele>
        <time>2021-05-29T12:55:46.000Z</time>
      </trkpt>
      <trkpt lat="47.29567" lon="-1.3794">
        <ele>49</ele>
        <time>2021-05-29T12:55:49.000Z</time>
      </trkpt>
      <trkpt lat="47.2956" lon="-1.37958">
        <ele>48</ele>
        <time>2021-05-29T12:55:51.000Z</time>
      </trkpt>
      <trkpt lat="47.29555" lon="-1.37971">
        <ele>49</ele>
        <time>2021-05-29T12:55:53.000Z</time>
      </trkpt>
      <trkpt lat="47.29546" lon="-1.37991">
        <ele>51</ele>
        <time>2021-05-29T12:55:56.000Z</time>
      </trkpt>
      <trkpt lat="47.29542" lon="-1.38006">
        <ele>50</ele>
        <time>2021-05-29T12:55:58.000Z</time>
      </trkpt>
      <trkpt lat="47.29537" lon="-1.38019">
        <ele>52</ele>
        <time>2021-05-29T12:56:00.000Z</time>
      </trkpt>
      <trkpt lat="47.29533" lon="-1.38033">
        <ele>54</ele>
        <time>2021-05-29T12:56:02.000Z</time>
      </trkpt>
      <trkpt lat="47.29527" lon="-1.38048">
        <ele>55</ele>
        <time>2021-05-29T12:56:04.000Z</time>
      </trkpt>
      <trkpt lat="47.29521" lon="-1.38074">
        <ele>55</ele>
        <time>2021-05-29T12:56:07.000Z</time>
      </trkpt>
      <trkpt lat="47.29516" lon="-1.38089">
        <ele>55</ele>
        <time>2021-05-29T12:56:09.000Z</time>
      </trkpt>
      <trkpt lat="47.29512" lon="-1.38104">
        <ele>55</ele>
        <time>2021-05-29T12:56:11.000Z</time>
      </trkpt>
      <trkpt lat="47.29506" lon="-1.3812">
        <ele>54</ele>
        <time>2021-05-29T12:56:13.000Z</time>
      </trkpt>
      <trkpt lat="47.29501" lon="-1.38137">
        <ele>53</ele>
        <time>2021-05-29T12:56:15.000Z</time>
      </trkpt>
      <trkpt lat="47.29498" lon="-1.38153">
        <ele>54</ele>
        <time>2021-05-29T12:56:17.000Z</time>
      </trkpt>
      <trkpt lat="47.29492" lon="-1.38166">
        <ele>54</ele>
        <time>2021-05-29T12:56:19.000Z</time>
      </trkpt>
      <trkpt lat="47.29488" lon="-1.38183">
        <ele>54</ele>
        <time>2021-05-29T12:56:21.000Z</time>
      </trkpt>
      <trkpt lat="47.29486" lon="-1.38199">
        <ele>54</ele>
        <time>2021-05-29T12:56:23.000Z</time>
      </trkpt>
      <trkpt lat="47.2948" lon="-1.38216">
        <ele>55</ele>
        <time>2021-05-29T12:56:25.000Z</time>
      </trkpt>
      <trkpt lat="47.29475" lon="-1.3823">
        <ele>56</ele>
        <time>2021-05-29T12:56:27.000Z</time>
      </trkpt>
      <trkpt lat="47.29473" lon="-1.38248">
        <ele>56</ele>
        <time>2021-05-29T12:56:29.000Z</time>
      </trkpt>
      <trkpt lat="47.29468" lon="-1.38264">
        <ele>56</ele>
        <time>2021-05-29T12:56:31.000Z</time>
      </trkpt>
      <trkpt lat="47.29463" lon="-1.38277">
        <ele>56</ele>
        <time>2021-05-29T12:56:33.000Z</time>
      </trkpt>
      <trkpt lat="47.29459" lon="-1.38292">
        <ele>58</ele>
        <time>2021-05-29T12:56:35.000Z</time>
      </trkpt>
      <trkpt lat="47.29455" lon="-1.38307">
        <ele>57</ele>
        <time>2021-05-29T12:56:37.000Z</time>
      </trkpt>
      <trkpt lat="47.2945" lon="-1.3832">
        <ele>58</ele>
        <time>2021-05-29T12:56:39.000Z</time>
      </trkpt>
      <trkpt lat="47.29443" lon="-1.38334">
        <ele>59</ele>
        <time>2021-05-29T12:56:42.000Z</time>
      </trkpt>
      <trkpt lat="47.29436" lon="-1.38347">
        <ele>55</ele>
        <time>2021-05-29T12:56:48.000Z</time>
      </trkpt>
      <trkpt lat="47.29434" lon="-1.38363">
        <ele>55</ele>
        <time>2021-05-29T12:56:50.000Z</time>
      </trkpt>
      <trkpt lat="47.29431" lon="-1.38382">
        <ele>55</ele>
        <time>2021-05-29T12:56:52.000Z</time>
      </trkpt>
      <trkpt lat="47.29426" lon="-1.38401">
        <ele>55</ele>
        <time>2021-05-29T12:56:54.000Z</time>
      </trkpt>
      <trkpt lat="47.29422" lon="-1.3842">
        <ele>55</ele>
        <time>2021-05-29T12:56:56.000Z</time>
      </trkpt>
      <trkpt lat="47.29417" lon="-1.38439">
        <ele>55</ele>
        <time>2021-05-29T12:56:58.000Z</time>
      </trkpt>
      <trkpt lat="47.29411" lon="-1.38459">
        <ele>54</ele>
        <time>2021-05-29T12:57:00.000Z</time>
      </trkpt>
      <trkpt lat="47.29403" lon="-1.38474">
        <ele>54</ele>
        <time>2021-05-29T12:57:02.000Z</time>
      </trkpt>
      <trkpt lat="47.29397" lon="-1.38491">
        <ele>54</ele>
        <time>2021-05-29T12:57:04.000Z</time>
      </trkpt>
      <trkpt lat="47.29387" lon="-1.38518">
        <ele>53</ele>
        <time>2021-05-29T12:57:07.000Z</time>
      </trkpt>
      <trkpt lat="47.29383" lon="-1.38535">
        <ele>55</ele>
        <time>2021-05-29T12:57:09.000Z</time>
      </trkpt>
      <trkpt lat="47.29377" lon="-1.38553">
        <ele>53</ele>
        <time>2021-05-29T12:57:11.000Z</time>
      </trkpt>
      <trkpt lat="47.29374" lon="-1.38573">
        <ele>52</ele>
        <time>2021-05-29T12:57:13.000Z</time>
      </trkpt>
      <trkpt lat="47.29362" lon="-1.386">
        <ele>51</ele>
        <time>2021-05-29T12:57:16.000Z</time>
      </trkpt>
      <trkpt lat="47.29356" lon="-1.38619">
        <ele>50</ele>
        <time>2021-05-29T12:57:18.000Z</time>
      </trkpt>
      <trkpt lat="47.29351" lon="-1.3864">
        <ele>49</ele>
        <time>2021-05-29T12:57:20.000Z</time>
      </trkpt>
      <trkpt lat="47.29343" lon="-1.38661">
        <ele>47</ele>
        <time>2021-05-29T12:57:22.000Z</time>
      </trkpt>
      <trkpt lat="47.29335" lon="-1.38679">
        <ele>47</ele>
        <time>2021-05-29T12:57:24.000Z</time>
      </trkpt>
      <trkpt lat="47.29326" lon="-1.38704">
        <ele>47</ele>
        <time>2021-05-29T12:57:27.000Z</time>
      </trkpt>
      <trkpt lat="47.29318" lon="-1.38721">
        <ele>46</ele>
        <time>2021-05-29T12:57:29.000Z</time>
      </trkpt>
      <trkpt lat="47.29315" lon="-1.3874">
        <ele>47</ele>
        <time>2021-05-29T12:57:31.000Z</time>
      </trkpt>
      <trkpt lat="47.29312" lon="-1.38759">
        <ele>49</ele>
        <time>2021-05-29T12:57:33.000Z</time>
      </trkpt>
      <trkpt lat="47.29308" lon="-1.38778">
        <ele>50</ele>
        <time>2021-05-29T12:57:35.000Z</time>
      </trkpt>
      <trkpt lat="47.29305" lon="-1.38798">
        <ele>50</ele>
        <time>2021-05-29T12:57:37.000Z</time>
      </trkpt>
      <trkpt lat="47.29299" lon="-1.38815">
        <ele>50</ele>
        <time>2021-05-29T12:57:39.000Z</time>
      </trkpt>
      <trkpt lat="47.29294" lon="-1.38834">
        <ele>49</ele>
        <time>2021-05-29T12:57:41.000Z</time>
      </trkpt>
      <trkpt lat="47.29289" lon="-1.38853">
        <ele>49</ele>
        <time>2021-05-29T12:57:43.000Z</time>
      </trkpt>
      <trkpt lat="47.29284" lon="-1.38872">
        <ele>50</ele>
        <time>2021-05-29T12:57:45.000Z</time>
      </trkpt>
      <trkpt lat="47.2928" lon="-1.3889">
        <ele>50</ele>
        <time>2021-05-29T12:57:47.000Z</time>
      </trkpt>
      <trkpt lat="47.29273" lon="-1.38918">
        <ele>50</ele>
        <time>2021-05-29T12:57:50.000Z</time>
      </trkpt>
      <trkpt lat="47.29269" lon="-1.38938">
        <ele>50</ele>
        <time>2021-05-29T12:57:52.000Z</time>
      </trkpt>
      <trkpt lat="47.29265" lon="-1.38959">
        <ele>49</ele>
        <time>2021-05-29T12:57:54.000Z</time>
      </trkpt>
      <trkpt lat="47.29259" lon="-1.38976">
        <ele>50</ele>
        <time>2021-05-29T12:57:56.000Z</time>
      </trkpt>
      <trkpt lat="47.29252" lon="-1.39002">
        <ele>51</ele>
        <time>2021-05-29T12:57:59.000Z</time>
      </trkpt>
      <trkpt lat="47.29249" lon="-1.3902">
        <ele>51</ele>
        <time>2021-05-29T12:58:01.000Z</time>
      </trkpt>
      <trkpt lat="47.29242" lon="-1.39038">
        <ele>51</ele>
        <time>2021-05-29T12:58:03.000Z</time>
      </trkpt>
      <trkpt lat="47.29236" lon="-1.39055">
        <ele>51</ele>
        <time>2021-05-29T12:58:05.000Z</time>
      </trkpt>
      <trkpt lat="47.29232" lon="-1.39076">
        <ele>51</ele>
        <time>2021-05-29T12:58:07.000Z</time>
      </trkpt>
      <trkpt lat="47.29226" lon="-1.39094">
        <ele>48</ele>
        <time>2021-05-29T12:58:09.000Z</time>
      </trkpt>
      <trkpt lat="47.29217" lon="-1.3911">
        <ele>47</ele>
        <time>2021-05-29T12:58:11.000Z</time>
      </trkpt>
      <trkpt lat="47.29208" lon="-1.39124">
        <ele>48</ele>
        <time>2021-05-29T12:58:13.000Z</time>
      </trkpt>
      <trkpt lat="47.29196" lon="-1.39136">
        <ele>48</ele>
        <time>2021-05-29T12:58:15.000Z</time>
      </trkpt>
      <trkpt lat="47.29185" lon="-1.39148">
        <ele>47</ele>
        <time>2021-05-29T12:58:17.000Z</time>
      </trkpt>
      <trkpt lat="47.29176" lon="-1.3916">
        <ele>48</ele>
        <time>2021-05-29T12:58:19.000Z</time>
      </trkpt>
      <trkpt lat="47.29166" lon="-1.39172">
        <ele>48</ele>
        <time>2021-05-29T12:58:21.000Z</time>
      </trkpt>
      <trkpt lat="47.29155" lon="-1.39185">
        <ele>47</ele>
        <time>2021-05-29T12:58:23.000Z</time>
      </trkpt>
      <trkpt lat="47.29142" lon="-1.39197">
        <ele>45</ele>
        <time>2021-05-29T12:58:25.000Z</time>
      </trkpt>
      <trkpt lat="47.29131" lon="-1.39209">
        <ele>45</ele>
        <time>2021-05-29T12:58:27.000Z</time>
      </trkpt>
      <trkpt lat="47.29122" lon="-1.39221">
        <ele>45</ele>
        <time>2021-05-29T12:58:29.000Z</time>
      </trkpt>
      <trkpt lat="47.29114" lon="-1.39231">
        <ele>45</ele>
        <time>2021-05-29T12:58:31.000Z</time>
      </trkpt>
      <trkpt lat="47.29101" lon="-1.39251">
        <ele>47</ele>
        <time>2021-05-29T12:58:34.000Z</time>
      </trkpt>
      <trkpt lat="47.29093" lon="-1.39266">
        <ele>47</ele>
        <time>2021-05-29T12:58:36.000Z</time>
      </trkpt>
      <trkpt lat="47.29086" lon="-1.3928">
        <ele>48</ele>
        <time>2021-05-29T12:58:38.000Z</time>
      </trkpt>
      <trkpt lat="47.29078" lon="-1.39293">
        <ele>48</ele>
        <time>2021-05-29T12:58:40.000Z</time>
      </trkpt>
      <trkpt lat="47.29068" lon="-1.39304">
        <ele>49</ele>
        <time>2021-05-29T12:58:42.000Z</time>
      </trkpt>
      <trkpt lat="47.29058" lon="-1.39314">
        <ele>49</ele>
        <time>2021-05-29T12:58:44.000Z</time>
      </trkpt>
      <trkpt lat="47.29049" lon="-1.39324">
        <ele>50</ele>
        <time>2021-05-29T12:58:46.000Z</time>
      </trkpt>
      <trkpt lat="47.2904" lon="-1.39335">
        <ele>50</ele>
        <time>2021-05-29T12:58:48.000Z</time>
      </trkpt>
      <trkpt lat="47.29026" lon="-1.3935">
        <ele>51</ele>
        <time>2021-05-29T12:58:51.000Z</time>
      </trkpt>
      <trkpt lat="47.29018" lon="-1.39362">
        <ele>51</ele>
        <time>2021-05-29T12:58:53.000Z</time>
      </trkpt>
      <trkpt lat="47.29011" lon="-1.39375">
        <ele>52</ele>
        <time>2021-05-29T12:58:55.000Z</time>
      </trkpt>
      <trkpt lat="47.29002" lon="-1.39388">
        <ele>52</ele>
        <time>2021-05-29T12:58:57.000Z</time>
      </trkpt>
      <trkpt lat="47.28992" lon="-1.39401">
        <ele>52</ele>
        <time>2021-05-29T12:58:59.000Z</time>
      </trkpt>
      <trkpt lat="47.28983" lon="-1.39413">
        <ele>52</ele>
        <time>2021-05-29T12:59:01.000Z</time>
      </trkpt>
      <trkpt lat="47.28974" lon="-1.39425">
        <ele>53</ele>
        <time>2021-05-29T12:59:03.000Z</time>
      </trkpt>
      <trkpt lat="47.28965" lon="-1.39438">
        <ele>53</ele>
        <time>2021-05-29T12:59:05.000Z</time>
      </trkpt>
      <trkpt lat="47.28955" lon="-1.3945">
        <ele>53</ele>
        <time>2021-05-29T12:59:07.000Z</time>
      </trkpt>
      <trkpt lat="47.28944" lon="-1.39462">
        <ele>54</ele>
        <time>2021-05-29T12:59:09.000Z</time>
      </trkpt>
      <trkpt lat="47.28934" lon="-1.39473">
        <ele>53</ele>
        <time>2021-05-29T12:59:11.000Z</time>
      </trkpt>
      <trkpt lat="47.28924" lon="-1.39486">
        <ele>54</ele>
        <time>2021-05-29T12:59:13.000Z</time>
      </trkpt>
      <trkpt lat="47.28914" lon="-1.39498">
        <ele>54</ele>
        <time>2021-05-29T12:59:15.000Z</time>
      </trkpt>
      <trkpt lat="47.28904" lon="-1.3951">
        <ele>54</ele>
        <time>2021-05-29T12:59:17.000Z</time>
      </trkpt>
      <trkpt lat="47.28894" lon="-1.39522">
        <ele>55</ele>
        <time>2021-05-29T12:59:19.000Z</time>
      </trkpt>
      <trkpt lat="47.28883" lon="-1.39535">
        <ele>55</ele>
        <time>2021-05-29T12:59:21.000Z</time>
      </trkpt>
      <trkpt lat="47.28873" lon="-1.39546">
        <ele>54</ele>
        <time>2021-05-29T12:59:23.000Z</time>
      </trkpt>
      <trkpt lat="47.28863" lon="-1.39558">
        <ele>54</ele>
        <time>2021-05-29T12:59:25.000Z</time>
      </trkpt>
      <trkpt lat="47.28853" lon="-1.3957">
        <ele>54</ele>
        <time>2021-05-29T12:59:27.000Z</time>
      </trkpt>
      <trkpt lat="47.28842" lon="-1.39582">
        <ele>54</ele>
        <time>2021-05-29T12:59:29.000Z</time>
      </trkpt>
      <trkpt lat="47.28831" lon="-1.39594">
        <ele>55</ele>
        <time>2021-05-29T12:59:31.000Z</time>
      </trkpt>
      <trkpt lat="47.28816" lon="-1.39612">
        <ele>55</ele>
        <time>2021-05-29T12:59:34.000Z</time>
      </trkpt>
      <trkpt lat="47.28806" lon="-1.39626">
        <ele>54</ele>
        <time>2021-05-29T12:59:36.000Z</time>
      </trkpt>
      <trkpt lat="47.28796" lon="-1.39637">
        <ele>53</ele>
        <time>2021-05-29T12:59:38.000Z</time>
      </trkpt>
      <trkpt lat="47.28787" lon="-1.39649">
        <ele>53</ele>
        <time>2021-05-29T12:59:40.000Z</time>
      </trkpt>
      <trkpt lat="47.28766" lon="-1.39673">
        <ele>51</ele>
        <time>2021-05-29T12:59:44.000Z</time>
      </trkpt>
      <trkpt lat="47.28756" lon="-1.39684">
        <ele>51</ele>
        <time>2021-05-29T12:59:46.000Z</time>
      </trkpt>
      <trkpt lat="47.28746" lon="-1.39694">
        <ele>51</ele>
        <time>2021-05-29T12:59:48.000Z</time>
      </trkpt>
      <trkpt lat="47.28737" lon="-1.39705">
        <ele>51</ele>
        <time>2021-05-29T12:59:50.000Z</time>
      </trkpt>
      <trkpt lat="47.28727" lon="-1.39717">
        <ele>52</ele>
        <time>2021-05-29T12:59:52.000Z</time>
      </trkpt>
      <trkpt lat="47.28718" lon="-1.39731">
        <ele>52</ele>
        <time>2021-05-29T12:59:54.000Z</time>
      </trkpt>
      <trkpt lat="47.28704" lon="-1.3975">
        <ele>53</ele>
        <time>2021-05-29T12:59:57.000Z</time>
      </trkpt>
      <trkpt lat="47.28695" lon="-1.39761">
        <ele>51</ele>
        <time>2021-05-29T12:59:59.000Z</time>
      </trkpt>
      <trkpt lat="47.28685" lon="-1.39773">
        <ele>51</ele>
        <time>2021-05-29T13:00:01.000Z</time>
      </trkpt>
      <trkpt lat="47.28675" lon="-1.39785">
        <ele>52</ele>
        <time>2021-05-29T13:00:03.000Z</time>
      </trkpt>
      <trkpt lat="47.28666" lon="-1.39798">
        <ele>51</ele>
        <time>2021-05-29T13:00:05.000Z</time>
      </trkpt>
      <trkpt lat="47.28658" lon="-1.39812">
        <ele>51</ele>
        <time>2021-05-29T13:00:07.000Z</time>
      </trkpt>
      <trkpt lat="47.28643" lon="-1.39831">
        <ele>51</ele>
        <time>2021-05-29T13:00:10.000Z</time>
      </trkpt>
      <trkpt lat="47.28634" lon="-1.39846">
        <ele>52</ele>
        <time>2021-05-29T13:00:12.000Z</time>
      </trkpt>
      <trkpt lat="47.28625" lon="-1.39862">
        <ele>51</ele>
        <time>2021-05-29T13:00:14.000Z</time>
      </trkpt>
      <trkpt lat="47.28614" lon="-1.39876">
        <ele>49</ele>
        <time>2021-05-29T13:00:16.000Z</time>
      </trkpt>
      <trkpt lat="47.28605" lon="-1.39885">
        <ele>49</ele>
        <time>2021-05-29T13:00:18.000Z</time>
      </trkpt>
      <trkpt lat="47.28591" lon="-1.39903">
        <ele>50</ele>
        <time>2021-05-29T13:00:21.000Z</time>
      </trkpt>
      <trkpt lat="47.28583" lon="-1.39917">
        <ele>51</ele>
        <time>2021-05-29T13:00:23.000Z</time>
      </trkpt>
      <trkpt lat="47.28577" lon="-1.3993">
        <ele>51</ele>
        <time>2021-05-29T13:00:25.000Z</time>
      </trkpt>
      <trkpt lat="47.28567" lon="-1.39944">
        <ele>52</ele>
        <time>2021-05-29T13:00:27.000Z</time>
      </trkpt>
      <trkpt lat="47.28559" lon="-1.39957">
        <ele>51</ele>
        <time>2021-05-29T13:00:29.000Z</time>
      </trkpt>
      <trkpt lat="47.28551" lon="-1.3997">
        <ele>51</ele>
        <time>2021-05-29T13:00:31.000Z</time>
      </trkpt>
      <trkpt lat="47.28541" lon="-1.39983">
        <ele>51</ele>
        <time>2021-05-29T13:00:33.000Z</time>
      </trkpt>
      <trkpt lat="47.28533" lon="-1.39996">
        <ele>52</ele>
        <time>2021-05-29T13:00:35.000Z</time>
      </trkpt>
      <trkpt lat="47.2852" lon="-1.40014">
        <ele>51</ele>
        <time>2021-05-29T13:00:38.000Z</time>
      </trkpt>
      <trkpt lat="47.28512" lon="-1.40027">
        <ele>51</ele>
        <time>2021-05-29T13:00:40.000Z</time>
      </trkpt>
      <trkpt lat="47.285" lon="-1.40047">
        <ele>51</ele>
        <time>2021-05-29T13:00:43.000Z</time>
      </trkpt>
      <trkpt lat="47.28492" lon="-1.40062">
        <ele>52</ele>
        <time>2021-05-29T13:00:45.000Z</time>
      </trkpt>
      <trkpt lat="47.28486" lon="-1.40075">
        <ele>50</ele>
        <time>2021-05-29T13:00:47.000Z</time>
      </trkpt>
      <trkpt lat="47.28483" lon="-1.40088">
        <ele>52</ele>
        <time>2021-05-29T13:00:49.000Z</time>
      </trkpt>
      <trkpt lat="47.28475" lon="-1.40106">
        <ele>57</ele>
        <time>2021-05-29T13:00:51.000Z</time>
      </trkpt>
      <trkpt lat="47.28466" lon="-1.40132">
        <ele>60</ele>
        <time>2021-05-29T13:00:54.000Z</time>
      </trkpt>
      <trkpt lat="47.28461" lon="-1.40147">
        <ele>59</ele>
        <time>2021-05-29T13:00:56.000Z</time>
      </trkpt>
      <trkpt lat="47.28456" lon="-1.40165">
        <ele>58</ele>
        <time>2021-05-29T13:00:58.000Z</time>
      </trkpt>
      <trkpt lat="47.2845" lon="-1.40181">
        <ele>58</ele>
        <time>2021-05-29T13:01:00.000Z</time>
      </trkpt>
      <trkpt lat="47.28443" lon="-1.40197">
        <ele>58</ele>
        <time>2021-05-29T13:01:02.000Z</time>
      </trkpt>
      <trkpt lat="47.28434" lon="-1.40221">
        <ele>58</ele>
        <time>2021-05-29T13:01:05.000Z</time>
      </trkpt>
      <trkpt lat="47.28428" lon="-1.40236">
        <ele>58</ele>
        <time>2021-05-29T13:01:07.000Z</time>
      </trkpt>
      <trkpt lat="47.28422" lon="-1.40251">
        <ele>58</ele>
        <time>2021-05-29T13:01:09.000Z</time>
      </trkpt>
      <trkpt lat="47.28415" lon="-1.40267">
        <ele>58</ele>
        <time>2021-05-29T13:01:11.000Z</time>
      </trkpt>
      <trkpt lat="47.28407" lon="-1.40282">
        <ele>58</ele>
        <time>2021-05-29T13:01:13.000Z</time>
      </trkpt>
      <trkpt lat="47.28398" lon="-1.40295">
        <ele>56</ele>
        <time>2021-05-29T13:01:15.000Z</time>
      </trkpt>
      <trkpt lat="47.2839" lon="-1.4031">
        <ele>56</ele>
        <time>2021-05-29T13:01:17.000Z</time>
      </trkpt>
      <trkpt lat="47.28382" lon="-1.40323">
        <ele>56</ele>
        <time>2021-05-29T13:01:19.000Z</time>
      </trkpt>
      <trkpt lat="47.28373" lon="-1.40336">
        <ele>55</ele>
        <time>2021-05-29T13:01:21.000Z</time>
      </trkpt>
      <trkpt lat="47.28364" lon="-1.40349">
        <ele>54</ele>
        <time>2021-05-29T13:01:23.000Z</time>
      </trkpt>
      <trkpt lat="47.28355" lon="-1.40361">
        <ele>54</ele>
        <time>2021-05-29T13:01:25.000Z</time>
      </trkpt>
      <trkpt lat="47.28346" lon="-1.40374">
        <ele>54</ele>
        <time>2021-05-29T13:01:27.000Z</time>
      </trkpt>
      <trkpt lat="47.28336" lon="-1.40386">
        <ele>54</ele>
        <time>2021-05-29T13:01:29.000Z</time>
      </trkpt>
      <trkpt lat="47.28323" lon="-1.40404">
        <ele>54</ele>
        <time>2021-05-29T13:01:32.000Z</time>
      </trkpt>
      <trkpt lat="47.28312" lon="-1.40415">
        <ele>53</ele>
        <time>2021-05-29T13:01:34.000Z</time>
      </trkpt>
      <trkpt lat="47.28301" lon="-1.40428">
        <ele>52</ele>
        <time>2021-05-29T13:01:36.000Z</time>
      </trkpt>
      <trkpt lat="47.28289" lon="-1.40442">
        <ele>51</ele>
        <time>2021-05-29T13:01:38.000Z</time>
      </trkpt>
      <trkpt lat="47.28279" lon="-1.40451">
        <ele>51</ele>
        <time>2021-05-29T13:01:40.000Z</time>
      </trkpt>
      <trkpt lat="47.2827" lon="-1.40457">
        <ele>53</ele>
        <time>2021-05-29T13:01:42.000Z</time>
      </trkpt>
      <trkpt lat="47.2826" lon="-1.40464">
        <ele>53</ele>
        <time>2021-05-29T13:01:44.000Z</time>
      </trkpt>
      <trkpt lat="47.2825" lon="-1.40475">
        <ele>53</ele>
        <time>2021-05-29T13:01:46.000Z</time>
      </trkpt>
      <trkpt lat="47.2824" lon="-1.40486">
        <ele>53</ele>
        <time>2021-05-29T13:01:48.000Z</time>
      </trkpt>
      <trkpt lat="47.28232" lon="-1.40495">
        <ele>52</ele>
        <time>2021-05-29T13:01:50.000Z</time>
      </trkpt>
      <trkpt lat="47.28222" lon="-1.40506">
        <ele>52</ele>
        <time>2021-05-29T13:01:52.000Z</time>
      </trkpt>
      <trkpt lat="47.28211" lon="-1.40515">
        <ele>52</ele>
        <time>2021-05-29T13:01:54.000Z</time>
      </trkpt>
      <trkpt lat="47.28201" lon="-1.40525">
        <ele>52</ele>
        <time>2021-05-29T13:01:56.000Z</time>
      </trkpt>
      <trkpt lat="47.2819" lon="-1.40535">
        <ele>52</ele>
        <time>2021-05-29T13:01:58.000Z</time>
      </trkpt>
      <trkpt lat="47.28175" lon="-1.4055">
        <ele>52</ele>
        <time>2021-05-29T13:02:01.000Z</time>
      </trkpt>
      <trkpt lat="47.28164" lon="-1.40559">
        <ele>51</ele>
        <time>2021-05-29T13:02:03.000Z</time>
      </trkpt>
      <trkpt lat="47.28154" lon="-1.40569">
        <ele>51</ele>
        <time>2021-05-29T13:02:05.000Z</time>
      </trkpt>
      <trkpt lat="47.28144" lon="-1.40578">
        <ele>51</ele>
        <time>2021-05-29T13:02:07.000Z</time>
      </trkpt>
      <trkpt lat="47.28134" lon="-1.40588">
        <ele>51</ele>
        <time>2021-05-29T13:02:09.000Z</time>
      </trkpt>
      <trkpt lat="47.28126" lon="-1.40598">
        <ele>51</ele>
        <time>2021-05-29T13:02:11.000Z</time>
      </trkpt>
      <trkpt lat="47.28115" lon="-1.40607">
        <ele>52</ele>
        <time>2021-05-29T13:02:13.000Z</time>
      </trkpt>
      <trkpt lat="47.28105" lon="-1.40617">
        <ele>52</ele>
        <time>2021-05-29T13:02:15.000Z</time>
      </trkpt>
      <trkpt lat="47.28097" lon="-1.40629">
        <ele>52</ele>
        <time>2021-05-29T13:02:17.000Z</time>
      </trkpt>
      <trkpt lat="47.28086" lon="-1.40637">
        <ele>52</ele>
        <time>2021-05-29T13:02:19.000Z</time>
      </trkpt>
      <trkpt lat="47.2807" lon="-1.40652">
        <ele>53</ele>
        <time>2021-05-29T13:02:22.000Z</time>
      </trkpt>
      <trkpt lat="47.2806" lon="-1.40661">
        <ele>53</ele>
        <time>2021-05-29T13:02:24.000Z</time>
      </trkpt>
      <trkpt lat="47.28044" lon="-1.40676">
        <ele>52</ele>
        <time>2021-05-29T13:02:27.000Z</time>
      </trkpt>
      <trkpt lat="47.28034" lon="-1.40687">
        <ele>51</ele>
        <time>2021-05-29T13:02:29.000Z</time>
      </trkpt>
      <trkpt lat="47.28024" lon="-1.40697">
        <ele>52</ele>
        <time>2021-05-29T13:02:31.000Z</time>
      </trkpt>
      <trkpt lat="47.28014" lon="-1.40707">
        <ele>52</ele>
        <time>2021-05-29T13:02:33.000Z</time>
      </trkpt>
      <trkpt lat="47.28003" lon="-1.40717">
        <ele>51</ele>
        <time>2021-05-29T13:02:35.000Z</time>
      </trkpt>
      <trkpt lat="47.27989" lon="-1.40731">
        <ele>51</ele>
        <time>2021-05-29T13:02:38.000Z</time>
      </trkpt>
      <trkpt lat="47.2798" lon="-1.4074">
        <ele>53</ele>
        <time>2021-05-29T13:02:40.000Z</time>
      </trkpt>
      <trkpt lat="47.2797" lon="-1.4075">
        <ele>52</ele>
        <time>2021-05-29T13:02:42.000Z</time>
      </trkpt>
      <trkpt lat="47.27959" lon="-1.4076">
        <ele>52</ele>
        <time>2021-05-29T13:02:44.000Z</time>
      </trkpt>
      <trkpt lat="47.27948" lon="-1.40769">
        <ele>52</ele>
        <time>2021-05-29T13:02:46.000Z</time>
      </trkpt>
      <trkpt lat="47.27939" lon="-1.40781">
        <ele>51</ele>
        <time>2021-05-29T13:02:48.000Z</time>
      </trkpt>
      <trkpt lat="47.27928" lon="-1.40791">
        <ele>51</ele>
        <time>2021-05-29T13:02:50.000Z</time>
      </trkpt>
      <trkpt lat="47.27917" lon="-1.40801">
        <ele>51</ele>
        <time>2021-05-29T13:02:52.000Z</time>
      </trkpt>
      <trkpt lat="47.27902" lon="-1.40817">
        <ele>52</ele>
        <time>2021-05-29T13:02:55.000Z</time>
      </trkpt>
      <trkpt lat="47.27891" lon="-1.40826">
        <ele>52</ele>
        <time>2021-05-29T13:02:57.000Z</time>
      </trkpt>
      <trkpt lat="47.27882" lon="-1.40837">
        <ele>52</ele>
        <time>2021-05-29T13:02:59.000Z</time>
      </trkpt>
      <trkpt lat="47.27874" lon="-1.40851">
        <ele>51</ele>
        <time>2021-05-29T13:03:01.000Z</time>
      </trkpt>
      <trkpt lat="47.27867" lon="-1.40865">
        <ele>52</ele>
        <time>2021-05-29T13:03:03.000Z</time>
      </trkpt>
      <trkpt lat="47.27859" lon="-1.40883">
        <ele>51</ele>
        <time>2021-05-29T13:03:05.000Z</time>
      </trkpt>
      <trkpt lat="47.27852" lon="-1.40899">
        <ele>51</ele>
        <time>2021-05-29T13:03:07.000Z</time>
      </trkpt>
      <trkpt lat="47.27845" lon="-1.40912">
        <ele>52</ele>
        <time>2021-05-29T13:03:09.000Z</time>
      </trkpt>
      <trkpt lat="47.27838" lon="-1.40925">
        <ele>51</ele>
        <time>2021-05-29T13:03:11.000Z</time>
      </trkpt>
      <trkpt lat="47.27831" lon="-1.4094">
        <ele>51</ele>
        <time>2021-05-29T13:03:13.000Z</time>
      </trkpt>
      <trkpt lat="47.27821" lon="-1.40962">
        <ele>51</ele>
        <time>2021-05-29T13:03:16.000Z</time>
      </trkpt>
      <trkpt lat="47.27813" lon="-1.40977">
        <ele>52</ele>
        <time>2021-05-29T13:03:18.000Z</time>
      </trkpt>
      <trkpt lat="47.27805" lon="-1.4099">
        <ele>52</ele>
        <time>2021-05-29T13:03:20.000Z</time>
      </trkpt>
      <trkpt lat="47.27796" lon="-1.41003">
        <ele>51</ele>
        <time>2021-05-29T13:03:22.000Z</time>
      </trkpt>
      <trkpt lat="47.27787" lon="-1.41016">
        <ele>52</ele>
        <time>2021-05-29T13:03:24.000Z</time>
      </trkpt>
      <trkpt lat="47.27779" lon="-1.41029">
        <ele>51</ele>
        <time>2021-05-29T13:03:26.000Z</time>
      </trkpt>
      <trkpt lat="47.27772" lon="-1.41041">
        <ele>50</ele>
        <time>2021-05-29T13:03:28.000Z</time>
      </trkpt>
      <trkpt lat="47.27767" lon="-1.41058">
        <ele>51</ele>
        <time>2021-05-29T13:03:30.000Z</time>
      </trkpt>
      <trkpt lat="47.2776" lon="-1.41073">
        <ele>52</ele>
        <time>2021-05-29T13:03:32.000Z</time>
      </trkpt>
      <trkpt lat="47.27744" lon="-1.4109">
        <ele>51</ele>
        <time>2021-05-29T13:03:35.000Z</time>
      </trkpt>
      <trkpt lat="47.27733" lon="-1.41099">
        <ele>49</ele>
        <time>2021-05-29T13:03:37.000Z</time>
      </trkpt>
      <trkpt lat="47.27722" lon="-1.41109">
        <ele>50</ele>
        <time>2021-05-29T13:03:39.000Z</time>
      </trkpt>
      <trkpt lat="47.27713" lon="-1.41119">
        <ele>50</ele>
        <time>2021-05-29T13:03:41.000Z</time>
      </trkpt>
      <trkpt lat="47.27702" lon="-1.4113">
        <ele>51</ele>
        <time>2021-05-29T13:03:43.000Z</time>
      </trkpt>
      <trkpt lat="47.27692" lon="-1.41141">
        <ele>51</ele>
        <time>2021-05-29T13:03:45.000Z</time>
      </trkpt>
      <trkpt lat="47.27684" lon="-1.41152">
        <ele>51</ele>
        <time>2021-05-29T13:03:47.000Z</time>
      </trkpt>
      <trkpt lat="47.27675" lon="-1.41163">
        <ele>51</ele>
        <time>2021-05-29T13:03:49.000Z</time>
      </trkpt>
      <trkpt lat="47.27666" lon="-1.41175">
        <ele>51</ele>
        <time>2021-05-29T13:03:51.000Z</time>
      </trkpt>
      <trkpt lat="47.27657" lon="-1.41186">
        <ele>50</ele>
        <time>2021-05-29T13:03:53.000Z</time>
      </trkpt>
      <trkpt lat="47.27647" lon="-1.41194">
        <ele>51</ele>
        <time>2021-05-29T13:03:55.000Z</time>
      </trkpt>
      <trkpt lat="47.27638" lon="-1.41204">
        <ele>51</ele>
        <time>2021-05-29T13:03:57.000Z</time>
      </trkpt>
      <trkpt lat="47.27628" lon="-1.41214">
        <ele>50</ele>
        <time>2021-05-29T13:03:59.000Z</time>
      </trkpt>
      <trkpt lat="47.27619" lon="-1.41224">
        <ele>50</ele>
        <time>2021-05-29T13:04:01.000Z</time>
      </trkpt>
      <trkpt lat="47.27608" lon="-1.41235">
        <ele>51</ele>
        <time>2021-05-29T13:04:03.000Z</time>
      </trkpt>
      <trkpt lat="47.27598" lon="-1.41246">
        <ele>52</ele>
        <time>2021-05-29T13:04:05.000Z</time>
      </trkpt>
      <trkpt lat="47.27587" lon="-1.41256">
        <ele>50</ele>
        <time>2021-05-29T13:04:07.000Z</time>
      </trkpt>
      <trkpt lat="47.27572" lon="-1.41275">
        <ele>51</ele>
        <time>2021-05-29T13:04:10.000Z</time>
      </trkpt>
      <trkpt lat="47.27563" lon="-1.41287">
        <ele>51</ele>
        <time>2021-05-29T13:04:12.000Z</time>
      </trkpt>
      <trkpt lat="47.2755" lon="-1.41305">
        <ele>51</ele>
        <time>2021-05-29T13:04:15.000Z</time>
      </trkpt>
      <trkpt lat="47.27541" lon="-1.41318">
        <ele>52</ele>
        <time>2021-05-29T13:04:17.000Z</time>
      </trkpt>
      <trkpt lat="47.27531" lon="-1.41329">
        <ele>52</ele>
        <time>2021-05-29T13:04:19.000Z</time>
      </trkpt>
      <trkpt lat="47.27517" lon="-1.41347">
        <ele>52</ele>
        <time>2021-05-29T13:04:22.000Z</time>
      </trkpt>
      <trkpt lat="47.27508" lon="-1.4136">
        <ele>52</ele>
        <time>2021-05-29T13:04:24.000Z</time>
      </trkpt>
      <trkpt lat="47.27499" lon="-1.41373">
        <ele>52</ele>
        <time>2021-05-29T13:04:26.000Z</time>
      </trkpt>
      <trkpt lat="47.27491" lon="-1.41385">
        <ele>52</ele>
        <time>2021-05-29T13:04:28.000Z</time>
      </trkpt>
      <trkpt lat="47.27476" lon="-1.41404">
        <ele>52</ele>
        <time>2021-05-29T13:04:31.000Z</time>
      </trkpt>
      <trkpt lat="47.2747" lon="-1.41418">
        <ele>52</ele>
        <time>2021-05-29T13:04:33.000Z</time>
      </trkpt>
      <trkpt lat="47.27462" lon="-1.41433">
        <ele>52</ele>
        <time>2021-05-29T13:04:35.000Z</time>
      </trkpt>
      <trkpt lat="47.27454" lon="-1.41446">
        <ele>51</ele>
        <time>2021-05-29T13:04:37.000Z</time>
      </trkpt>
      <trkpt lat="47.27446" lon="-1.4146">
        <ele>51</ele>
        <time>2021-05-29T13:04:39.000Z</time>
      </trkpt>
      <trkpt lat="47.27437" lon="-1.41475">
        <ele>50</ele>
        <time>2021-05-29T13:04:41.000Z</time>
      </trkpt>
      <trkpt lat="47.27429" lon="-1.41488">
        <ele>51</ele>
        <time>2021-05-29T13:04:43.000Z</time>
      </trkpt>
      <trkpt lat="47.27421" lon="-1.41502">
        <ele>50</ele>
        <time>2021-05-29T13:04:45.000Z</time>
      </trkpt>
      <trkpt lat="47.2741" lon="-1.41524">
        <ele>49</ele>
        <time>2021-05-29T13:04:48.000Z</time>
      </trkpt>
      <trkpt lat="47.274" lon="-1.41541">
        <ele>48</ele>
        <time>2021-05-29T13:04:50.000Z</time>
      </trkpt>
      <trkpt lat="47.27393" lon="-1.41553">
        <ele>49</ele>
        <time>2021-05-29T13:04:52.000Z</time>
      </trkpt>
      <trkpt lat="47.27385" lon="-1.41562">
        <ele>49</ele>
        <time>2021-05-29T13:04:54.000Z</time>
      </trkpt>
      <trkpt lat="47.27378" lon="-1.41574">
        <ele>49</ele>
        <time>2021-05-29T13:04:56.000Z</time>
      </trkpt>
      <trkpt lat="47.2737" lon="-1.41587">
        <ele>50</ele>
        <time>2021-05-29T13:04:58.000Z</time>
      </trkpt>
      <trkpt lat="47.27361" lon="-1.41599">
        <ele>47</ele>
        <time>2021-05-29T13:05:00.000Z</time>
      </trkpt>
      <trkpt lat="47.27353" lon="-1.41614">
        <ele>46</ele>
        <time>2021-05-29T13:05:02.000Z</time>
      </trkpt>
      <trkpt lat="47.27344" lon="-1.41626">
        <ele>47</ele>
        <time>2021-05-29T13:05:04.000Z</time>
      </trkpt>
      <trkpt lat="47.27336" lon="-1.41638">
        <ele>48</ele>
        <time>2021-05-29T13:05:06.000Z</time>
      </trkpt>
      <trkpt lat="47.27328" lon="-1.41649">
        <ele>45</ele>
        <time>2021-05-29T13:05:08.000Z</time>
      </trkpt>
      <trkpt lat="47.27319" lon="-1.41664">
        <ele>46</ele>
        <time>2021-05-29T13:05:10.000Z</time>
      </trkpt>
      <trkpt lat="47.27311" lon="-1.41676">
        <ele>47</ele>
        <time>2021-05-29T13:05:12.000Z</time>
      </trkpt>
      <trkpt lat="47.27304" lon="-1.41691">
        <ele>47</ele>
        <time>2021-05-29T13:05:14.000Z</time>
      </trkpt>
      <trkpt lat="47.27296" lon="-1.41704">
        <ele>46</ele>
        <time>2021-05-29T13:05:16.000Z</time>
      </trkpt>
      <trkpt lat="47.2729" lon="-1.41718">
        <ele>46</ele>
        <time>2021-05-29T13:05:18.000Z</time>
      </trkpt>
      <trkpt lat="47.27283" lon="-1.41734">
        <ele>47</ele>
        <time>2021-05-29T13:05:20.000Z</time>
      </trkpt>
      <trkpt lat="47.27275" lon="-1.41749">
        <ele>48</ele>
        <time>2021-05-29T13:05:22.000Z</time>
      </trkpt>
      <trkpt lat="47.27267" lon="-1.41765">
        <ele>48</ele>
        <time>2021-05-29T13:05:24.000Z</time>
      </trkpt>
      <trkpt lat="47.27255" lon="-1.41786">
        <ele>49</ele>
        <time>2021-05-29T13:05:27.000Z</time>
      </trkpt>
      <trkpt lat="47.27249" lon="-1.418">
        <ele>49</ele>
        <time>2021-05-29T13:05:29.000Z</time>
      </trkpt>
      <trkpt lat="47.27241" lon="-1.41815">
        <ele>50</ele>
        <time>2021-05-29T13:05:31.000Z</time>
      </trkpt>
      <trkpt lat="47.27233" lon="-1.41829">
        <ele>50</ele>
        <time>2021-05-29T13:05:33.000Z</time>
      </trkpt>
      <trkpt lat="47.27226" lon="-1.41843">
        <ele>50</ele>
        <time>2021-05-29T13:05:35.000Z</time>
      </trkpt>
      <trkpt lat="47.27214" lon="-1.41864">
        <ele>51</ele>
        <time>2021-05-29T13:05:38.000Z</time>
      </trkpt>
      <trkpt lat="47.27207" lon="-1.41877">
        <ele>51</ele>
        <time>2021-05-29T13:05:40.000Z</time>
      </trkpt>
      <trkpt lat="47.27198" lon="-1.41891">
        <ele>51</ele>
        <time>2021-05-29T13:05:42.000Z</time>
      </trkpt>
      <trkpt lat="47.27191" lon="-1.41905">
        <ele>51</ele>
        <time>2021-05-29T13:05:44.000Z</time>
      </trkpt>
      <trkpt lat="47.27183" lon="-1.41919">
        <ele>51</ele>
        <time>2021-05-29T13:05:46.000Z</time>
      </trkpt>
      <trkpt lat="47.27173" lon="-1.41934">
        <ele>52</ele>
        <time>2021-05-29T13:05:48.000Z</time>
      </trkpt>
      <trkpt lat="47.27165" lon="-1.41948">
        <ele>52</ele>
        <time>2021-05-29T13:05:50.000Z</time>
      </trkpt>
      <trkpt lat="47.27157" lon="-1.41963">
        <ele>52</ele>
        <time>2021-05-29T13:05:52.000Z</time>
      </trkpt>
      <trkpt lat="47.2715" lon="-1.41978">
        <ele>52</ele>
        <time>2021-05-29T13:05:54.000Z</time>
      </trkpt>
      <trkpt lat="47.27142" lon="-1.41993">
        <ele>53</ele>
        <time>2021-05-29T13:05:56.000Z</time>
      </trkpt>
      <trkpt lat="47.27134" lon="-1.42008">
        <ele>53</ele>
        <time>2021-05-29T13:05:58.000Z</time>
      </trkpt>
      <trkpt lat="47.27122" lon="-1.42028">
        <ele>53</ele>
        <time>2021-05-29T13:06:01.000Z</time>
      </trkpt>
      <trkpt lat="47.27113" lon="-1.42038">
        <ele>51</ele>
        <time>2021-05-29T13:06:03.000Z</time>
      </trkpt>
      <trkpt lat="47.27104" lon="-1.42052">
        <ele>52</ele>
        <time>2021-05-29T13:06:05.000Z</time>
      </trkpt>
      <trkpt lat="47.27095" lon="-1.42066">
        <ele>52</ele>
        <time>2021-05-29T13:06:07.000Z</time>
      </trkpt>
      <trkpt lat="47.27087" lon="-1.42079">
        <ele>52</ele>
        <time>2021-05-29T13:06:09.000Z</time>
      </trkpt>
      <trkpt lat="47.27079" lon="-1.42093">
        <ele>52</ele>
        <time>2021-05-29T13:06:11.000Z</time>
      </trkpt>
      <trkpt lat="47.27068" lon="-1.42116">
        <ele>51</ele>
        <time>2021-05-29T13:06:14.000Z</time>
      </trkpt>
      <trkpt lat="47.2706" lon="-1.42129">
        <ele>52</ele>
        <time>2021-05-29T13:06:16.000Z</time>
      </trkpt>
      <trkpt lat="47.27053" lon="-1.42142">
        <ele>51</ele>
        <time>2021-05-29T13:06:18.000Z</time>
      </trkpt>
      <trkpt lat="47.27045" lon="-1.42156">
        <ele>52</ele>
        <time>2021-05-29T13:06:20.000Z</time>
      </trkpt>
      <trkpt lat="47.27037" lon="-1.42169">
        <ele>51</ele>
        <time>2021-05-29T13:06:22.000Z</time>
      </trkpt>
      <trkpt lat="47.27029" lon="-1.42184">
        <ele>53</ele>
        <time>2021-05-29T13:06:24.000Z</time>
      </trkpt>
      <trkpt lat="47.27018" lon="-1.42201">
        <ele>55</ele>
        <time>2021-05-29T13:06:27.000Z</time>
      </trkpt>
      <trkpt lat="47.27009" lon="-1.42215">
        <ele>53</ele>
        <time>2021-05-29T13:06:29.000Z</time>
      </trkpt>
      <trkpt lat="47.26999" lon="-1.42233">
        <ele>52</ele>
        <time>2021-05-29T13:06:31.000Z</time>
      </trkpt>
      <trkpt lat="47.26992" lon="-1.4225">
        <ele>52</ele>
        <time>2021-05-29T13:06:33.000Z</time>
      </trkpt>
      <trkpt lat="47.26986" lon="-1.42262">
        <ele>51</ele>
        <time>2021-05-29T13:06:35.000Z</time>
      </trkpt>
      <trkpt lat="47.26979" lon="-1.42276">
        <ele>50</ele>
        <time>2021-05-29T13:06:37.000Z</time>
      </trkpt>
      <trkpt lat="47.2697" lon="-1.42292">
        <ele>51</ele>
        <time>2021-05-29T13:06:39.000Z</time>
      </trkpt>
      <trkpt lat="47.26962" lon="-1.42306">
        <ele>51</ele>
        <time>2021-05-29T13:06:41.000Z</time>
      </trkpt>
      <trkpt lat="47.26955" lon="-1.42321">
        <ele>52</ele>
        <time>2021-05-29T13:06:43.000Z</time>
      </trkpt>
      <trkpt lat="47.26948" lon="-1.42336">
        <ele>52</ele>
        <time>2021-05-29T13:06:45.000Z</time>
      </trkpt>
      <trkpt lat="47.26941" lon="-1.42351">
        <ele>52</ele>
        <time>2021-05-29T13:06:47.000Z</time>
      </trkpt>
      <trkpt lat="47.26934" lon="-1.42366">
        <ele>52</ele>
        <time>2021-05-29T13:06:49.000Z</time>
      </trkpt>
      <trkpt lat="47.26927" lon="-1.4238">
        <ele>52</ele>
        <time>2021-05-29T13:06:51.000Z</time>
      </trkpt>
      <trkpt lat="47.2692" lon="-1.42395">
        <ele>53</ele>
        <time>2021-05-29T13:06:53.000Z</time>
      </trkpt>
      <trkpt lat="47.26912" lon="-1.4241">
        <ele>53</ele>
        <time>2021-05-29T13:06:55.000Z</time>
      </trkpt>
      <trkpt lat="47.26904" lon="-1.42424">
        <ele>53</ele>
        <time>2021-05-29T13:06:57.000Z</time>
      </trkpt>
      <trkpt lat="47.26896" lon="-1.42436">
        <ele>53</ele>
        <time>2021-05-29T13:06:59.000Z</time>
      </trkpt>
      <trkpt lat="47.26888" lon="-1.42448">
        <ele>52</ele>
        <time>2021-05-29T13:07:01.000Z</time>
      </trkpt>
      <trkpt lat="47.26878" lon="-1.42462">
        <ele>51</ele>
        <time>2021-05-29T13:07:03.000Z</time>
      </trkpt>
      <trkpt lat="47.2687" lon="-1.42478">
        <ele>50</ele>
        <time>2021-05-29T13:07:05.000Z</time>
      </trkpt>
      <trkpt lat="47.26862" lon="-1.42494">
        <ele>49</ele>
        <time>2021-05-29T13:07:07.000Z</time>
      </trkpt>
      <trkpt lat="47.26852" lon="-1.42508">
        <ele>48</ele>
        <time>2021-05-29T13:07:09.000Z</time>
      </trkpt>
      <trkpt lat="47.26844" lon="-1.42521">
        <ele>48</ele>
        <time>2021-05-29T13:07:11.000Z</time>
      </trkpt>
      <trkpt lat="47.26838" lon="-1.42538">
        <ele>49</ele>
        <time>2021-05-29T13:07:13.000Z</time>
      </trkpt>
      <trkpt lat="47.26831" lon="-1.42553">
        <ele>49</ele>
        <time>2021-05-29T13:07:15.000Z</time>
      </trkpt>
      <trkpt lat="47.26825" lon="-1.4257">
        <ele>49</ele>
        <time>2021-05-29T13:07:17.000Z</time>
      </trkpt>
      <trkpt lat="47.26818" lon="-1.42586">
        <ele>49</ele>
        <time>2021-05-29T13:07:19.000Z</time>
      </trkpt>
      <trkpt lat="47.2681" lon="-1.42601">
        <ele>49</ele>
        <time>2021-05-29T13:07:21.000Z</time>
      </trkpt>
      <trkpt lat="47.26804" lon="-1.42617">
        <ele>50</ele>
        <time>2021-05-29T13:07:23.000Z</time>
      </trkpt>
      <trkpt lat="47.26797" lon="-1.42633">
        <ele>50</ele>
        <time>2021-05-29T13:07:25.000Z</time>
      </trkpt>
      <trkpt lat="47.26786" lon="-1.42656">
        <ele>50</ele>
        <time>2021-05-29T13:07:28.000Z</time>
      </trkpt>
      <trkpt lat="47.2678" lon="-1.42675">
        <ele>50</ele>
        <time>2021-05-29T13:07:30.000Z</time>
      </trkpt>
      <trkpt lat="47.26776" lon="-1.42691">
        <ele>50</ele>
        <time>2021-05-29T13:07:32.000Z</time>
      </trkpt>
      <trkpt lat="47.2677" lon="-1.42706">
        <ele>50</ele>
        <time>2021-05-29T13:07:34.000Z</time>
      </trkpt>
      <trkpt lat="47.26764" lon="-1.42722">
        <ele>50</ele>
        <time>2021-05-29T13:07:36.000Z</time>
      </trkpt>
      <trkpt lat="47.26757" lon="-1.42736">
        <ele>50</ele>
        <time>2021-05-29T13:07:38.000Z</time>
      </trkpt>
      <trkpt lat="47.26751" lon="-1.4275">
        <ele>50</ele>
        <time>2021-05-29T13:07:40.000Z</time>
      </trkpt>
      <trkpt lat="47.26743" lon="-1.42767">
        <ele>50</ele>
        <time>2021-05-29T13:07:42.000Z</time>
      </trkpt>
      <trkpt lat="47.26733" lon="-1.4279">
        <ele>50</ele>
        <time>2021-05-29T13:07:45.000Z</time>
      </trkpt>
      <trkpt lat="47.26729" lon="-1.42805">
        <ele>49</ele>
        <time>2021-05-29T13:07:47.000Z</time>
      </trkpt>
      <trkpt lat="47.26726" lon="-1.42819">
        <ele>48</ele>
        <time>2021-05-29T13:07:49.000Z</time>
      </trkpt>
      <trkpt lat="47.26719" lon="-1.42842">
        <ele>50</ele>
        <time>2021-05-29T13:07:52.000Z</time>
      </trkpt>
      <trkpt lat="47.26711" lon="-1.42859">
        <ele>50</ele>
        <time>2021-05-29T13:07:54.000Z</time>
      </trkpt>
      <trkpt lat="47.26704" lon="-1.42875">
        <ele>50</ele>
        <time>2021-05-29T13:07:56.000Z</time>
      </trkpt>
      <trkpt lat="47.26698" lon="-1.4289">
        <ele>51</ele>
        <time>2021-05-29T13:07:58.000Z</time>
      </trkpt>
      <trkpt lat="47.2669" lon="-1.42906">
        <ele>51</ele>
        <time>2021-05-29T13:08:00.000Z</time>
      </trkpt>
      <trkpt lat="47.26681" lon="-1.42923">
        <ele>51</ele>
        <time>2021-05-29T13:08:02.000Z</time>
      </trkpt>
      <trkpt lat="47.26673" lon="-1.42938">
        <ele>51</ele>
        <time>2021-05-29T13:08:04.000Z</time>
      </trkpt>
      <trkpt lat="47.26665" lon="-1.42952">
        <ele>50</ele>
        <time>2021-05-29T13:08:06.000Z</time>
      </trkpt>
      <trkpt lat="47.26657" lon="-1.42966">
        <ele>49</ele>
        <time>2021-05-29T13:08:08.000Z</time>
      </trkpt>
      <trkpt lat="47.2665" lon="-1.4298">
        <ele>49</ele>
        <time>2021-05-29T13:08:10.000Z</time>
      </trkpt>
      <trkpt lat="47.26643" lon="-1.42994">
        <ele>49</ele>
        <time>2021-05-29T13:08:12.000Z</time>
      </trkpt>
      <trkpt lat="47.26628" lon="-1.43014">
        <ele>50</ele>
        <time>2021-05-29T13:08:15.000Z</time>
      </trkpt>
      <trkpt lat="47.2662" lon="-1.43026">
        <ele>48</ele>
        <time>2021-05-29T13:08:17.000Z</time>
      </trkpt>
      <trkpt lat="47.26616" lon="-1.43042">
        <ele>49</ele>
        <time>2021-05-29T13:08:19.000Z</time>
      </trkpt>
      <trkpt lat="47.2661" lon="-1.43058">
        <ele>49</ele>
        <time>2021-05-29T13:08:21.000Z</time>
      </trkpt>
      <trkpt lat="47.26603" lon="-1.43073">
        <ele>49</ele>
        <time>2021-05-29T13:08:23.000Z</time>
      </trkpt>
      <trkpt lat="47.26595" lon="-1.43087">
        <ele>50</ele>
        <time>2021-05-29T13:08:25.000Z</time>
      </trkpt>
      <trkpt lat="47.26588" lon="-1.43101">
        <ele>50</ele>
        <time>2021-05-29T13:08:27.000Z</time>
      </trkpt>
      <trkpt lat="47.26581" lon="-1.43115">
        <ele>49</ele>
        <time>2021-05-29T13:08:29.000Z</time>
      </trkpt>
      <trkpt lat="47.26573" lon="-1.43128">
        <ele>49</ele>
        <time>2021-05-29T13:08:31.000Z</time>
      </trkpt>
      <trkpt lat="47.26569" lon="-1.43143">
        <ele>49</ele>
        <time>2021-05-29T13:08:33.000Z</time>
      </trkpt>
      <trkpt lat="47.26559" lon="-1.43154">
        <ele>49</ele>
        <time>2021-05-29T13:08:35.000Z</time>
      </trkpt>
      <trkpt lat="47.26551" lon="-1.43168">
        <ele>48</ele>
        <time>2021-05-29T13:08:37.000Z</time>
      </trkpt>
      <trkpt lat="47.26543" lon="-1.43182">
        <ele>46</ele>
        <time>2021-05-29T13:08:39.000Z</time>
      </trkpt>
      <trkpt lat="47.26535" lon="-1.43193">
        <ele>47</ele>
        <time>2021-05-29T13:08:41.000Z</time>
      </trkpt>
      <trkpt lat="47.2652" lon="-1.4321">
        <ele>46</ele>
        <time>2021-05-29T13:08:44.000Z</time>
      </trkpt>
      <trkpt lat="47.26512" lon="-1.4322">
        <ele>46</ele>
        <time>2021-05-29T13:08:46.000Z</time>
      </trkpt>
      <trkpt lat="47.26503" lon="-1.43233">
        <ele>47</ele>
        <time>2021-05-29T13:08:48.000Z</time>
      </trkpt>
      <trkpt lat="47.26494" lon="-1.43244">
        <ele>48</ele>
        <time>2021-05-29T13:08:50.000Z</time>
      </trkpt>
      <trkpt lat="47.26485" lon="-1.43257">
        <ele>49</ele>
        <time>2021-05-29T13:08:52.000Z</time>
      </trkpt>
      <trkpt lat="47.26475" lon="-1.4327">
        <ele>48</ele>
        <time>2021-05-29T13:08:54.000Z</time>
      </trkpt>
      <trkpt lat="47.26467" lon="-1.43284">
        <ele>49</ele>
        <time>2021-05-29T13:08:56.000Z</time>
      </trkpt>
      <trkpt lat="47.2646" lon="-1.43296">
        <ele>50</ele>
        <time>2021-05-29T13:08:58.000Z</time>
      </trkpt>
      <trkpt lat="47.26453" lon="-1.43307">
        <ele>50</ele>
        <time>2021-05-29T13:09:00.000Z</time>
      </trkpt>
      <trkpt lat="47.26445" lon="-1.43318">
        <ele>50</ele>
        <time>2021-05-29T13:09:02.000Z</time>
      </trkpt>
      <trkpt lat="47.26437" lon="-1.4333">
        <ele>50</ele>
        <time>2021-05-29T13:09:04.000Z</time>
      </trkpt>
      <trkpt lat="47.26428" lon="-1.4334">
        <ele>50</ele>
        <time>2021-05-29T13:09:06.000Z</time>
      </trkpt>
      <trkpt lat="47.26415" lon="-1.43357">
        <ele>50</ele>
        <time>2021-05-29T13:09:09.000Z</time>
      </trkpt>
      <trkpt lat="47.26404" lon="-1.43369">
        <ele>50</ele>
        <time>2021-05-29T13:09:11.000Z</time>
      </trkpt>
      <trkpt lat="47.26395" lon="-1.4338">
        <ele>50</ele>
        <time>2021-05-29T13:09:13.000Z</time>
      </trkpt>
      <trkpt lat="47.2638" lon="-1.43396">
        <ele>49</ele>
        <time>2021-05-29T13:09:16.000Z</time>
      </trkpt>
      <trkpt lat="47.2637" lon="-1.43407">
        <ele>49</ele>
        <time>2021-05-29T13:09:18.000Z</time>
      </trkpt>
      <trkpt lat="47.26361" lon="-1.43416">
        <ele>49</ele>
        <time>2021-05-29T13:09:20.000Z</time>
      </trkpt>
      <trkpt lat="47.26347" lon="-1.43431">
        <ele>49</ele>
        <time>2021-05-29T13:09:23.000Z</time>
      </trkpt>
      <trkpt lat="47.26338" lon="-1.43441">
        <ele>49</ele>
        <time>2021-05-29T13:09:25.000Z</time>
      </trkpt>
      <trkpt lat="47.26324" lon="-1.43455">
        <ele>49</ele>
        <time>2021-05-29T13:09:28.000Z</time>
      </trkpt>
      <trkpt lat="47.26314" lon="-1.43465">
        <ele>48</ele>
        <time>2021-05-29T13:09:30.000Z</time>
      </trkpt>
      <trkpt lat="47.26305" lon="-1.43476">
        <ele>48</ele>
        <time>2021-05-29T13:09:32.000Z</time>
      </trkpt>
      <trkpt lat="47.26297" lon="-1.43484">
        <ele>48</ele>
        <time>2021-05-29T13:09:34.000Z</time>
      </trkpt>
      <trkpt lat="47.26283" lon="-1.43489">
        <ele>50</ele>
        <time>2021-05-29T13:09:37.000Z</time>
      </trkpt>
      <trkpt lat="47.26273" lon="-1.43493">
        <ele>49</ele>
        <time>2021-05-29T13:09:39.000Z</time>
      </trkpt>
      <trkpt lat="47.26263" lon="-1.43495">
        <ele>48</ele>
        <time>2021-05-29T13:09:41.000Z</time>
      </trkpt>
      <trkpt lat="47.26251" lon="-1.43505">
        <ele>49</ele>
        <time>2021-05-29T13:09:43.000Z</time>
      </trkpt>
      <trkpt lat="47.26242" lon="-1.43516">
        <ele>51</ele>
        <time>2021-05-29T13:09:45.000Z</time>
      </trkpt>
      <trkpt lat="47.26226" lon="-1.4353">
        <ele>50</ele>
        <time>2021-05-29T13:09:48.000Z</time>
      </trkpt>
      <trkpt lat="47.26217" lon="-1.43543">
        <ele>50</ele>
        <time>2021-05-29T13:09:50.000Z</time>
      </trkpt>
      <trkpt lat="47.26213" lon="-1.43563">
        <ele>47</ele>
        <time>2021-05-29T13:09:53.000Z</time>
      </trkpt>
      <trkpt lat="47.26211" lon="-1.43578">
        <ele>47</ele>
        <time>2021-05-29T13:09:55.000Z</time>
      </trkpt>
      <trkpt lat="47.26206" lon="-1.4359">
        <ele>46</ele>
        <time>2021-05-29T13:09:57.000Z</time>
      </trkpt>
      <trkpt lat="47.26197" lon="-1.436">
        <ele>48</ele>
        <time>2021-05-29T13:09:59.000Z</time>
      </trkpt>
      <trkpt lat="47.2619" lon="-1.4361">
        <ele>49</ele>
        <time>2021-05-29T13:10:01.000Z</time>
      </trkpt>
      <trkpt lat="47.26179" lon="-1.43617">
        <ele>50</ele>
        <time>2021-05-29T13:10:04.000Z</time>
      </trkpt>
      <trkpt lat="47.26169" lon="-1.43624">
        <ele>49</ele>
        <time>2021-05-29T13:10:08.000Z</time>
      </trkpt>
      <trkpt lat="47.2616" lon="-1.43628">
        <ele>37</ele>
        <time>2021-05-29T13:11:17.000Z</time>
      </trkpt>
      <trkpt lat="47.26171" lon="-1.43632">
        <ele>41</ele>
        <time>2021-05-29T13:11:40.000Z</time>
      </trkpt>
      <trkpt lat="47.26164" lon="-1.43622">
        <ele>35</ele>
        <time>2021-05-29T13:12:52.000Z</time>
      </trkpt>
      <trkpt lat="47.2617" lon="-1.43633">
        <ele>31</ele>
        <time>2021-05-29T13:13:26.000Z</time>
      </trkpt>
      <trkpt lat="47.2618" lon="-1.43635">
        <ele>48</ele>
        <time>2021-05-29T13:14:10.000Z</time>
      </trkpt>
      <trkpt lat="47.26188" lon="-1.43642">
        <ele>49</ele>
        <time>2021-05-29T13:14:32.000Z</time>
      </trkpt>
      <trkpt lat="47.2618" lon="-1.4363">
        <ele>48</ele>
        <time>2021-05-29T13:14:48.000Z</time>
      </trkpt>
      <trkpt lat="47.26169" lon="-1.43625">
        <ele>46</ele>
        <time>2021-05-29T13:15:02.000Z</time>
      </trkpt>
      <trkpt lat="47.26161" lon="-1.43633">
        <ele>24</ele>
        <time>2021-05-29T13:17:16.000Z</time>
      </trkpt>
      <trkpt lat="47.26165" lon="-1.43621">
        <ele>43</ele>
        <time>2021-05-29T13:25:20.000Z</time>
      </trkpt>
      <trkpt lat="47.26169" lon="-1.43634">
        <ele>47</ele>
        <time>2021-05-29T13:25:46.000Z</time>
      </trkpt>
      <trkpt lat="47.26174" lon="-1.43646">
        <ele>46</ele>
        <time>2021-05-29T13:25:49.000Z</time>
      </trkpt>
      <trkpt lat="47.26166" lon="-1.43659">
        <ele>50</ele>
        <time>2021-05-29T13:25:52.000Z</time>
      </trkpt>
      <trkpt lat="47.26161" lon="-1.43675">
        <ele>49</ele>
        <time>2021-05-29T13:25:56.000Z</time>
      </trkpt>
      <trkpt lat="47.26155" lon="-1.43687">
        <ele>51</ele>
        <time>2021-05-29T13:25:58.000Z</time>
      </trkpt>
      <trkpt lat="47.26146" lon="-1.43699">
        <ele>55</ele>
        <time>2021-05-29T13:26:00.000Z</time>
      </trkpt>
      <trkpt lat="47.26138" lon="-1.43708">
        <ele>55</ele>
        <time>2021-05-29T13:26:02.000Z</time>
      </trkpt>
      <trkpt lat="47.2613" lon="-1.43716">
        <ele>55</ele>
        <time>2021-05-29T13:26:04.000Z</time>
      </trkpt>
      <trkpt lat="47.26122" lon="-1.43725">
        <ele>54</ele>
        <time>2021-05-29T13:26:06.000Z</time>
      </trkpt>
      <trkpt lat="47.26113" lon="-1.43738">
        <ele>56</ele>
        <time>2021-05-29T13:26:09.000Z</time>
      </trkpt>
      <trkpt lat="47.26102" lon="-1.43752">
        <ele>56</ele>
        <time>2021-05-29T13:26:11.000Z</time>
      </trkpt>
      <trkpt lat="47.26092" lon="-1.43763">
        <ele>55</ele>
        <time>2021-05-29T13:26:13.000Z</time>
      </trkpt>
      <trkpt lat="47.26082" lon="-1.43774">
        <ele>56</ele>
        <time>2021-05-29T13:26:15.000Z</time>
      </trkpt>
      <trkpt lat="47.26072" lon="-1.43783">
        <ele>57</ele>
        <time>2021-05-29T13:26:17.000Z</time>
      </trkpt>
      <trkpt lat="47.26062" lon="-1.43793">
        <ele>57</ele>
        <time>2021-05-29T13:26:19.000Z</time>
      </trkpt>
      <trkpt lat="47.26053" lon="-1.43807">
        <ele>58</ele>
        <time>2021-05-29T13:26:21.000Z</time>
      </trkpt>
      <trkpt lat="47.26047" lon="-1.43821">
        <ele>58</ele>
        <time>2021-05-29T13:26:23.000Z</time>
      </trkpt>
      <trkpt lat="47.2604" lon="-1.43836">
        <ele>58</ele>
        <time>2021-05-29T13:26:25.000Z</time>
      </trkpt>
      <trkpt lat="47.26033" lon="-1.43853">
        <ele>60</ele>
        <time>2021-05-29T13:26:27.000Z</time>
      </trkpt>
      <trkpt lat="47.26023" lon="-1.43866">
        <ele>60</ele>
        <time>2021-05-29T13:26:29.000Z</time>
      </trkpt>
      <trkpt lat="47.26013" lon="-1.43876">
        <ele>60</ele>
        <time>2021-05-29T13:26:31.000Z</time>
      </trkpt>
      <trkpt lat="47.26003" lon="-1.43885">
        <ele>60</ele>
        <time>2021-05-29T13:26:33.000Z</time>
      </trkpt>
      <trkpt lat="47.25994" lon="-1.43894">
        <ele>60</ele>
        <time>2021-05-29T13:26:35.000Z</time>
      </trkpt>
      <trkpt lat="47.25986" lon="-1.43906">
        <ele>57</ele>
        <time>2021-05-29T13:26:37.000Z</time>
      </trkpt>
      <trkpt lat="47.25978" lon="-1.43919">
        <ele>58</ele>
        <time>2021-05-29T13:26:39.000Z</time>
      </trkpt>
      <trkpt lat="47.25969" lon="-1.43929">
        <ele>58</ele>
        <time>2021-05-29T13:26:41.000Z</time>
      </trkpt>
      <trkpt lat="47.25961" lon="-1.43938">
        <ele>58</ele>
        <time>2021-05-29T13:26:43.000Z</time>
      </trkpt>
      <trkpt lat="47.25954" lon="-1.43947">
        <ele>59</ele>
        <time>2021-05-29T13:26:45.000Z</time>
      </trkpt>
      <trkpt lat="47.25945" lon="-1.43956">
        <ele>60</ele>
        <time>2021-05-29T13:26:47.000Z</time>
      </trkpt>
      <trkpt lat="47.25936" lon="-1.43964">
        <ele>62</ele>
        <time>2021-05-29T13:26:49.000Z</time>
      </trkpt>
      <trkpt lat="47.25924" lon="-1.43974">
        <ele>64</ele>
        <time>2021-05-29T13:26:52.000Z</time>
      </trkpt>
      <trkpt lat="47.25911" lon="-1.43986">
        <ele>63</ele>
        <time>2021-05-29T13:26:54.000Z</time>
      </trkpt>
      <trkpt lat="47.259" lon="-1.43998">
        <ele>64</ele>
        <time>2021-05-29T13:26:56.000Z</time>
      </trkpt>
      <trkpt lat="47.25887" lon="-1.44013">
        <ele>62</ele>
        <time>2021-05-29T13:26:58.000Z</time>
      </trkpt>
      <trkpt lat="47.25878" lon="-1.44028">
        <ele>62</ele>
        <time>2021-05-29T13:27:00.000Z</time>
      </trkpt>
      <trkpt lat="47.25868" lon="-1.44052">
        <ele>63</ele>
        <time>2021-05-29T13:27:03.000Z</time>
      </trkpt>
      <trkpt lat="47.25861" lon="-1.44071">
        <ele>63</ele>
        <time>2021-05-29T13:27:05.000Z</time>
      </trkpt>
      <trkpt lat="47.25853" lon="-1.44087">
        <ele>62</ele>
        <time>2021-05-29T13:27:07.000Z</time>
      </trkpt>
      <trkpt lat="47.25843" lon="-1.44102">
        <ele>60</ele>
        <time>2021-05-29T13:27:09.000Z</time>
      </trkpt>
      <trkpt lat="47.25833" lon="-1.44114">
        <ele>59</ele>
        <time>2021-05-29T13:27:11.000Z</time>
      </trkpt>
      <trkpt lat="47.25825" lon="-1.44125">
        <ele>57</ele>
        <time>2021-05-29T13:27:13.000Z</time>
      </trkpt>
      <trkpt lat="47.25812" lon="-1.44141">
        <ele>55</ele>
        <time>2021-05-29T13:27:16.000Z</time>
      </trkpt>
      <trkpt lat="47.25803" lon="-1.44151">
        <ele>55</ele>
        <time>2021-05-29T13:27:18.000Z</time>
      </trkpt>
      <trkpt lat="47.25787" lon="-1.44168">
        <ele>54</ele>
        <time>2021-05-29T13:27:21.000Z</time>
      </trkpt>
      <trkpt lat="47.25778" lon="-1.44181">
        <ele>54</ele>
        <time>2021-05-29T13:27:23.000Z</time>
      </trkpt>
      <trkpt lat="47.2577" lon="-1.4419">
        <ele>53</ele>
        <time>2021-05-29T13:27:25.000Z</time>
      </trkpt>
      <trkpt lat="47.25759" lon="-1.44203">
        <ele>53</ele>
        <time>2021-05-29T13:27:27.000Z</time>
      </trkpt>
      <trkpt lat="47.25749" lon="-1.44217">
        <ele>55</ele>
        <time>2021-05-29T13:27:29.000Z</time>
      </trkpt>
      <trkpt lat="47.25741" lon="-1.44228">
        <ele>55</ele>
        <time>2021-05-29T13:27:31.000Z</time>
      </trkpt>
      <trkpt lat="47.25731" lon="-1.4424">
        <ele>55</ele>
        <time>2021-05-29T13:27:33.000Z</time>
      </trkpt>
      <trkpt lat="47.25722" lon="-1.44253">
        <ele>55</ele>
        <time>2021-05-29T13:27:35.000Z</time>
      </trkpt>
      <trkpt lat="47.25712" lon="-1.44264">
        <ele>55</ele>
        <time>2021-05-29T13:27:37.000Z</time>
      </trkpt>
      <trkpt lat="47.25702" lon="-1.44274">
        <ele>53</ele>
        <time>2021-05-29T13:27:39.000Z</time>
      </trkpt>
      <trkpt lat="47.25691" lon="-1.44283">
        <ele>53</ele>
        <time>2021-05-29T13:27:41.000Z</time>
      </trkpt>
      <trkpt lat="47.25681" lon="-1.44299">
        <ele>54</ele>
        <time>2021-05-29T13:27:43.000Z</time>
      </trkpt>
      <trkpt lat="47.25672" lon="-1.44313">
        <ele>55</ele>
        <time>2021-05-29T13:27:45.000Z</time>
      </trkpt>
      <trkpt lat="47.25662" lon="-1.44324">
        <ele>55</ele>
        <time>2021-05-29T13:27:47.000Z</time>
      </trkpt>
      <trkpt lat="47.25652" lon="-1.44333">
        <ele>54</ele>
        <time>2021-05-29T13:27:49.000Z</time>
      </trkpt>
      <trkpt lat="47.25641" lon="-1.44345">
        <ele>54</ele>
        <time>2021-05-29T13:27:51.000Z</time>
      </trkpt>
      <trkpt lat="47.25631" lon="-1.44355">
        <ele>54</ele>
        <time>2021-05-29T13:27:53.000Z</time>
      </trkpt>
      <trkpt lat="47.25623" lon="-1.44366">
        <ele>54</ele>
        <time>2021-05-29T13:27:55.000Z</time>
      </trkpt>
      <trkpt lat="47.25615" lon="-1.44377">
        <ele>54</ele>
        <time>2021-05-29T13:27:57.000Z</time>
      </trkpt>
      <trkpt lat="47.25606" lon="-1.44388">
        <ele>55</ele>
        <time>2021-05-29T13:27:59.000Z</time>
      </trkpt>
      <trkpt lat="47.25593" lon="-1.44403">
        <ele>54</ele>
        <time>2021-05-29T13:28:01.000Z</time>
      </trkpt>
      <trkpt lat="47.25584" lon="-1.44412">
        <ele>52</ele>
        <time>2021-05-29T13:28:03.000Z</time>
      </trkpt>
      <trkpt lat="47.25574" lon="-1.44427">
        <ele>52</ele>
        <time>2021-05-29T13:28:05.000Z</time>
      </trkpt>
      <trkpt lat="47.25564" lon="-1.4444">
        <ele>53</ele>
        <time>2021-05-29T13:28:08.000Z</time>
      </trkpt>
      <trkpt lat="47.25555" lon="-1.44451">
        <ele>54</ele>
        <time>2021-05-29T13:28:09.000Z</time>
      </trkpt>
      <trkpt lat="47.25543" lon="-1.44465">
        <ele>55</ele>
        <time>2021-05-29T13:28:11.000Z</time>
      </trkpt>
      <trkpt lat="47.25534" lon="-1.44478">
        <ele>55</ele>
        <time>2021-05-29T13:28:13.000Z</time>
      </trkpt>
      <trkpt lat="47.25524" lon="-1.44491">
        <ele>55</ele>
        <time>2021-05-29T13:28:15.000Z</time>
      </trkpt>
      <trkpt lat="47.25508" lon="-1.44516">
        <ele>56</ele>
        <time>2021-05-29T13:28:18.000Z</time>
      </trkpt>
      <trkpt lat="47.25498" lon="-1.44533">
        <ele>56</ele>
        <time>2021-05-29T13:28:20.000Z</time>
      </trkpt>
      <trkpt lat="47.25488" lon="-1.44549">
        <ele>55</ele>
        <time>2021-05-29T13:28:22.000Z</time>
      </trkpt>
      <trkpt lat="47.25478" lon="-1.44563">
        <ele>55</ele>
        <time>2021-05-29T13:28:24.000Z</time>
      </trkpt>
      <trkpt lat="47.2547" lon="-1.44578">
        <ele>54</ele>
        <time>2021-05-29T13:28:26.000Z</time>
      </trkpt>
      <trkpt lat="47.25461" lon="-1.44591">
        <ele>53</ele>
        <time>2021-05-29T13:28:28.000Z</time>
      </trkpt>
      <trkpt lat="47.25449" lon="-1.44609">
        <ele>54</ele>
        <time>2021-05-29T13:28:31.000Z</time>
      </trkpt>
      <trkpt lat="47.2544" lon="-1.44619">
        <ele>54</ele>
        <time>2021-05-29T13:28:33.000Z</time>
      </trkpt>
      <trkpt lat="47.25431" lon="-1.4463">
        <ele>53</ele>
        <time>2021-05-29T13:28:35.000Z</time>
      </trkpt>
      <trkpt lat="47.25421" lon="-1.44644">
        <ele>52</ele>
        <time>2021-05-29T13:28:37.000Z</time>
      </trkpt>
      <trkpt lat="47.25409" lon="-1.44659">
        <ele>54</ele>
        <time>2021-05-29T13:28:39.000Z</time>
      </trkpt>
      <trkpt lat="47.25399" lon="-1.44671">
        <ele>53</ele>
        <time>2021-05-29T13:28:41.000Z</time>
      </trkpt>
      <trkpt lat="47.25381" lon="-1.44696">
        <ele>51</ele>
        <time>2021-05-29T13:28:45.000Z</time>
      </trkpt>
      <trkpt lat="47.25374" lon="-1.44706">
        <ele>53</ele>
        <time>2021-05-29T13:28:47.000Z</time>
      </trkpt>
      <trkpt lat="47.25364" lon="-1.44719">
        <ele>54</ele>
        <time>2021-05-29T13:28:49.000Z</time>
      </trkpt>
      <trkpt lat="47.25351" lon="-1.44731">
        <ele>55</ele>
        <time>2021-05-29T13:28:51.000Z</time>
      </trkpt>
      <trkpt lat="47.25339" lon="-1.44743">
        <ele>56</ele>
        <time>2021-05-29T13:28:53.000Z</time>
      </trkpt>
      <trkpt lat="47.25329" lon="-1.44754">
        <ele>57</ele>
        <time>2021-05-29T13:28:55.000Z</time>
      </trkpt>
      <trkpt lat="47.25318" lon="-1.44767">
        <ele>58</ele>
        <time>2021-05-29T13:28:57.000Z</time>
      </trkpt>
      <trkpt lat="47.25308" lon="-1.44779">
        <ele>58</ele>
        <time>2021-05-29T13:28:59.000Z</time>
      </trkpt>
      <trkpt lat="47.25299" lon="-1.44788">
        <ele>57</ele>
        <time>2021-05-29T13:29:01.000Z</time>
      </trkpt>
      <trkpt lat="47.2529" lon="-1.44793">
        <ele>56</ele>
        <time>2021-05-29T13:29:03.000Z</time>
      </trkpt>
      <trkpt lat="47.25279" lon="-1.44808">
        <ele>58</ele>
        <time>2021-05-29T13:29:05.000Z</time>
      </trkpt>
      <trkpt lat="47.25269" lon="-1.44819">
        <ele>59</ele>
        <time>2021-05-29T13:29:07.000Z</time>
      </trkpt>
      <trkpt lat="47.25261" lon="-1.44827">
        <ele>59</ele>
        <time>2021-05-29T13:29:09.000Z</time>
      </trkpt>
      <trkpt lat="47.25249" lon="-1.44841">
        <ele>58</ele>
        <time>2021-05-29T13:29:11.000Z</time>
      </trkpt>
      <trkpt lat="47.25237" lon="-1.44854">
        <ele>58</ele>
        <time>2021-05-29T13:29:13.000Z</time>
      </trkpt>
      <trkpt lat="47.2522" lon="-1.44861">
        <ele>58</ele>
        <time>2021-05-29T13:29:16.000Z</time>
      </trkpt>
      <trkpt lat="47.25205" lon="-1.44872">
        <ele>59</ele>
        <time>2021-05-29T13:29:18.000Z</time>
      </trkpt>
      <trkpt lat="47.25192" lon="-1.44881">
        <ele>59</ele>
        <time>2021-05-29T13:29:20.000Z</time>
      </trkpt>
      <trkpt lat="47.25179" lon="-1.44892">
        <ele>60</ele>
        <time>2021-05-29T13:29:22.000Z</time>
      </trkpt>
      <trkpt lat="47.25162" lon="-1.4491">
        <ele>61</ele>
        <time>2021-05-29T13:29:25.000Z</time>
      </trkpt>
      <trkpt lat="47.2515" lon="-1.44923">
        <ele>63</ele>
        <time>2021-05-29T13:29:27.000Z</time>
      </trkpt>
      <trkpt lat="47.25139" lon="-1.44934">
        <ele>63</ele>
        <time>2021-05-29T13:29:29.000Z</time>
      </trkpt>
      <trkpt lat="47.2513" lon="-1.44943">
        <ele>63</ele>
        <time>2021-05-29T13:29:31.000Z</time>
      </trkpt>
      <trkpt lat="47.25119" lon="-1.44955">
        <ele>63</ele>
        <time>2021-05-29T13:29:33.000Z</time>
      </trkpt>
      <trkpt lat="47.25106" lon="-1.44966">
        <ele>63</ele>
        <time>2021-05-29T13:29:35.000Z</time>
      </trkpt>
      <trkpt lat="47.25094" lon="-1.44977">
        <ele>63</ele>
        <time>2021-05-29T13:29:37.000Z</time>
      </trkpt>
      <trkpt lat="47.25079" lon="-1.44987">
        <ele>61</ele>
        <time>2021-05-29T13:29:40.000Z</time>
      </trkpt>
      <trkpt lat="47.2507" lon="-1.44994">
        <ele>60</ele>
        <time>2021-05-29T13:29:42.000Z</time>
      </trkpt>
      <trkpt lat="47.2506" lon="-1.45005">
        <ele>59</ele>
        <time>2021-05-29T13:29:44.000Z</time>
      </trkpt>
      <trkpt lat="47.25049" lon="-1.45012">
        <ele>59</ele>
        <time>2021-05-29T13:29:46.000Z</time>
      </trkpt>
      <trkpt lat="47.25037" lon="-1.4502">
        <ele>59</ele>
        <time>2021-05-29T13:29:48.000Z</time>
      </trkpt>
      <trkpt lat="47.25026" lon="-1.45031">
        <ele>60</ele>
        <time>2021-05-29T13:29:50.000Z</time>
      </trkpt>
      <trkpt lat="47.25014" lon="-1.45041">
        <ele>60</ele>
        <time>2021-05-29T13:29:52.000Z</time>
      </trkpt>
      <trkpt lat="47.25002" lon="-1.45053">
        <ele>60</ele>
        <time>2021-05-29T13:29:54.000Z</time>
      </trkpt>
      <trkpt lat="47.24994" lon="-1.45064">
        <ele>60</ele>
        <time>2021-05-29T13:29:56.000Z</time>
      </trkpt>
      <trkpt lat="47.24984" lon="-1.45079">
        <ele>59</ele>
        <time>2021-05-29T13:29:58.000Z</time>
      </trkpt>
      <trkpt lat="47.24969" lon="-1.45095">
        <ele>61</ele>
        <time>2021-05-29T13:30:01.000Z</time>
      </trkpt>
      <trkpt lat="47.24957" lon="-1.45106">
        <ele>61</ele>
        <time>2021-05-29T13:30:03.000Z</time>
      </trkpt>
      <trkpt lat="47.24945" lon="-1.45119">
        <ele>60</ele>
        <time>2021-05-29T13:30:05.000Z</time>
      </trkpt>
      <trkpt lat="47.24935" lon="-1.45129">
        <ele>59</ele>
        <time>2021-05-29T13:30:07.000Z</time>
      </trkpt>
      <trkpt lat="47.24924" lon="-1.45141">
        <ele>59</ele>
        <time>2021-05-29T13:30:09.000Z</time>
      </trkpt>
      <trkpt lat="47.24908" lon="-1.45158">
        <ele>58</ele>
        <time>2021-05-29T13:30:12.000Z</time>
      </trkpt>
      <trkpt lat="47.24898" lon="-1.45166">
        <ele>59</ele>
        <time>2021-05-29T13:30:14.000Z</time>
      </trkpt>
      <trkpt lat="47.2489" lon="-1.45177">
        <ele>59</ele>
        <time>2021-05-29T13:30:16.000Z</time>
      </trkpt>
      <trkpt lat="47.24882" lon="-1.4519">
        <ele>59</ele>
        <time>2021-05-29T13:30:18.000Z</time>
      </trkpt>
      <trkpt lat="47.24869" lon="-1.45207">
        <ele>59</ele>
        <time>2021-05-29T13:30:21.000Z</time>
      </trkpt>
      <trkpt lat="47.24861" lon="-1.45218">
        <ele>58</ele>
        <time>2021-05-29T13:30:23.000Z</time>
      </trkpt>
      <trkpt lat="47.24851" lon="-1.45233">
        <ele>56</ele>
        <time>2021-05-29T13:30:25.000Z</time>
      </trkpt>
      <trkpt lat="47.24845" lon="-1.45245">
        <ele>57</ele>
        <time>2021-05-29T13:30:27.000Z</time>
      </trkpt>
      <trkpt lat="47.24837" lon="-1.45259">
        <ele>57</ele>
        <time>2021-05-29T13:30:29.000Z</time>
      </trkpt>
      <trkpt lat="47.2483" lon="-1.45272">
        <ele>57</ele>
        <time>2021-05-29T13:30:31.000Z</time>
      </trkpt>
      <trkpt lat="47.24828" lon="-1.45285">
        <ele>58</ele>
        <time>2021-05-29T13:30:33.000Z</time>
      </trkpt>
      <trkpt lat="47.24819" lon="-1.45306">
        <ele>62</ele>
        <time>2021-05-29T13:30:36.000Z</time>
      </trkpt>
      <trkpt lat="47.24807" lon="-1.45325">
        <ele>62</ele>
        <time>2021-05-29T13:30:38.000Z</time>
      </trkpt>
      <trkpt lat="47.24797" lon="-1.45339">
        <ele>62</ele>
        <time>2021-05-29T13:30:40.000Z</time>
      </trkpt>
      <trkpt lat="47.24787" lon="-1.45353">
        <ele>62</ele>
        <time>2021-05-29T13:30:42.000Z</time>
      </trkpt>
      <trkpt lat="47.24779" lon="-1.45371">
        <ele>63</ele>
        <time>2021-05-29T13:30:44.000Z</time>
      </trkpt>
      <trkpt lat="47.24773" lon="-1.4539">
        <ele>64</ele>
        <time>2021-05-29T13:30:46.000Z</time>
      </trkpt>
      <trkpt lat="47.24766" lon="-1.45408">
        <ele>63</ele>
        <time>2021-05-29T13:30:48.000Z</time>
      </trkpt>
      <trkpt lat="47.24759" lon="-1.45426">
        <ele>62</ele>
        <time>2021-05-29T13:30:50.000Z</time>
      </trkpt>
      <trkpt lat="47.24754" lon="-1.45444">
        <ele>62</ele>
        <time>2021-05-29T13:30:52.000Z</time>
      </trkpt>
      <trkpt lat="47.24749" lon="-1.45462">
        <ele>62</ele>
        <time>2021-05-29T13:30:54.000Z</time>
      </trkpt>
      <trkpt lat="47.24742" lon="-1.45478">
        <ele>61</ele>
        <time>2021-05-29T13:30:56.000Z</time>
      </trkpt>
      <trkpt lat="47.24731" lon="-1.45503">
        <ele>60</ele>
        <time>2021-05-29T13:30:59.000Z</time>
      </trkpt>
      <trkpt lat="47.24725" lon="-1.45519">
        <ele>60</ele>
        <time>2021-05-29T13:31:01.000Z</time>
      </trkpt>
      <trkpt lat="47.24719" lon="-1.45534">
        <ele>58</ele>
        <time>2021-05-29T13:31:03.000Z</time>
      </trkpt>
      <trkpt lat="47.24714" lon="-1.45552">
        <ele>56</ele>
        <time>2021-05-29T13:31:05.000Z</time>
      </trkpt>
      <trkpt lat="47.24709" lon="-1.45573">
        <ele>56</ele>
        <time>2021-05-29T13:31:07.000Z</time>
      </trkpt>
      <trkpt lat="47.24703" lon="-1.45592">
        <ele>55</ele>
        <time>2021-05-29T13:31:09.000Z</time>
      </trkpt>
      <trkpt lat="47.24696" lon="-1.45609">
        <ele>54</ele>
        <time>2021-05-29T13:31:11.000Z</time>
      </trkpt>
      <trkpt lat="47.24691" lon="-1.45624">
        <ele>53</ele>
        <time>2021-05-29T13:31:13.000Z</time>
      </trkpt>
      <trkpt lat="47.24688" lon="-1.45642">
        <ele>54</ele>
        <time>2021-05-29T13:31:15.000Z</time>
      </trkpt>
      <trkpt lat="47.24683" lon="-1.45659">
        <ele>54</ele>
        <time>2021-05-29T13:31:17.000Z</time>
      </trkpt>
      <trkpt lat="47.24678" lon="-1.45673">
        <ele>54</ele>
        <time>2021-05-29T13:31:19.000Z</time>
      </trkpt>
      <trkpt lat="47.24673" lon="-1.45687">
        <ele>55</ele>
        <time>2021-05-29T13:31:21.000Z</time>
      </trkpt>
      <trkpt lat="47.24668" lon="-1.45702">
        <ele>56</ele>
        <time>2021-05-29T13:31:23.000Z</time>
      </trkpt>
      <trkpt lat="47.24664" lon="-1.45719">
        <ele>57</ele>
        <time>2021-05-29T13:31:25.000Z</time>
      </trkpt>
      <trkpt lat="47.24661" lon="-1.45739">
        <ele>57</ele>
        <time>2021-05-29T13:31:27.000Z</time>
      </trkpt>
      <trkpt lat="47.24656" lon="-1.45756">
        <ele>57</ele>
        <time>2021-05-29T13:31:29.000Z</time>
      </trkpt>
      <trkpt lat="47.24652" lon="-1.4577">
        <ele>57</ele>
        <time>2021-05-29T13:31:31.000Z</time>
      </trkpt>
      <trkpt lat="47.24645" lon="-1.45785">
        <ele>56</ele>
        <time>2021-05-29T13:31:34.000Z</time>
      </trkpt>
      <trkpt lat="47.2464" lon="-1.45798">
        <ele>57</ele>
        <time>2021-05-29T13:31:36.000Z</time>
      </trkpt>
      <trkpt lat="47.24633" lon="-1.45822">
        <ele>59</ele>
        <time>2021-05-29T13:31:39.000Z</time>
      </trkpt>
      <trkpt lat="47.24631" lon="-1.4584">
        <ele>60</ele>
        <time>2021-05-29T13:31:41.000Z</time>
      </trkpt>
      <trkpt lat="47.24627" lon="-1.45853">
        <ele>62</ele>
        <time>2021-05-29T13:31:43.000Z</time>
      </trkpt>
      <trkpt lat="47.24621" lon="-1.4587">
        <ele>63</ele>
        <time>2021-05-29T13:31:45.000Z</time>
      </trkpt>
      <trkpt lat="47.24614" lon="-1.45893">
        <ele>64</ele>
        <time>2021-05-29T13:31:48.000Z</time>
      </trkpt>
      <trkpt lat="47.2461" lon="-1.45906">
        <ele>66</ele>
        <time>2021-05-29T13:31:50.000Z</time>
      </trkpt>
      <trkpt lat="47.24606" lon="-1.4592">
        <ele>68</ele>
        <time>2021-05-29T13:31:52.000Z</time>
      </trkpt>
      <trkpt lat="47.24601" lon="-1.45934">
        <ele>68</ele>
        <time>2021-05-29T13:31:54.000Z</time>
      </trkpt>
      <trkpt lat="47.24596" lon="-1.45946">
        <ele>68</ele>
        <time>2021-05-29T13:31:55.000Z</time>
      </trkpt>
      <trkpt lat="47.24588" lon="-1.45966">
        <ele>67</ele>
        <time>2021-05-29T13:31:57.000Z</time>
      </trkpt>
      <trkpt lat="47.24584" lon="-1.45989">
        <ele>68</ele>
        <time>2021-05-29T13:32:00.000Z</time>
      </trkpt>
      <trkpt lat="47.24575" lon="-1.46007">
        <ele>73</ele>
        <time>2021-05-29T13:32:02.000Z</time>
      </trkpt>
      <trkpt lat="47.24568" lon="-1.46016">
        <ele>73</ele>
        <time>2021-05-29T13:32:03.000Z</time>
      </trkpt>
      <trkpt lat="47.24557" lon="-1.46035">
        <ele>73</ele>
        <time>2021-05-29T13:32:05.000Z</time>
      </trkpt>
      <trkpt lat="47.24549" lon="-1.46051">
        <ele>72</ele>
        <time>2021-05-29T13:32:07.000Z</time>
      </trkpt>
      <trkpt lat="47.24542" lon="-1.46065">
        <ele>71</ele>
        <time>2021-05-29T13:32:09.000Z</time>
      </trkpt>
      <trkpt lat="47.24532" lon="-1.46081">
        <ele>69</ele>
        <time>2021-05-29T13:32:11.000Z</time>
      </trkpt>
      <trkpt lat="47.24522" lon="-1.46095">
        <ele>70</ele>
        <time>2021-05-29T13:32:13.000Z</time>
      </trkpt>
      <trkpt lat="47.24507" lon="-1.46121">
        <ele>70</ele>
        <time>2021-05-29T13:32:16.000Z</time>
      </trkpt>
      <trkpt lat="47.24497" lon="-1.46133">
        <ele>69</ele>
        <time>2021-05-29T13:32:18.000Z</time>
      </trkpt>
      <trkpt lat="47.24488" lon="-1.46148">
        <ele>70</ele>
        <time>2021-05-29T13:32:20.000Z</time>
      </trkpt>
      <trkpt lat="47.24479" lon="-1.46163">
        <ele>70</ele>
        <time>2021-05-29T13:32:22.000Z</time>
      </trkpt>
      <trkpt lat="47.24474" lon="-1.46175">
        <ele>71</ele>
        <time>2021-05-29T13:32:24.000Z</time>
      </trkpt>
      <trkpt lat="47.24465" lon="-1.46184">
        <ele>71</ele>
        <time>2021-05-29T13:32:26.000Z</time>
      </trkpt>
      <trkpt lat="47.24452" lon="-1.46196">
        <ele>68</ele>
        <time>2021-05-29T13:32:28.000Z</time>
      </trkpt>
      <trkpt lat="47.24441" lon="-1.46208">
        <ele>67</ele>
        <time>2021-05-29T13:32:30.000Z</time>
      </trkpt>
      <trkpt lat="47.2443" lon="-1.46221">
        <ele>65</ele>
        <time>2021-05-29T13:32:32.000Z</time>
      </trkpt>
      <trkpt lat="47.2442" lon="-1.4623">
        <ele>62</ele>
        <time>2021-05-29T13:32:34.000Z</time>
      </trkpt>
      <trkpt lat="47.24407" lon="-1.46248">
        <ele>61</ele>
        <time>2021-05-29T13:32:37.000Z</time>
      </trkpt>
      <trkpt lat="47.24399" lon="-1.46263">
        <ele>60</ele>
        <time>2021-05-29T13:32:39.000Z</time>
      </trkpt>
      <trkpt lat="47.24386" lon="-1.4628">
        <ele>61</ele>
        <time>2021-05-29T13:32:42.000Z</time>
      </trkpt>
      <trkpt lat="47.24377" lon="-1.4629">
        <ele>59</ele>
        <time>2021-05-29T13:32:44.000Z</time>
      </trkpt>
      <trkpt lat="47.2437" lon="-1.46303">
        <ele>60</ele>
        <time>2021-05-29T13:32:46.000Z</time>
      </trkpt>
      <trkpt lat="47.24361" lon="-1.46324">
        <ele>64</ele>
        <time>2021-05-29T13:32:49.000Z</time>
      </trkpt>
      <trkpt lat="47.2435" lon="-1.4634">
        <ele>68</ele>
        <time>2021-05-29T13:32:51.000Z</time>
      </trkpt>
      <trkpt lat="47.24341" lon="-1.46352">
        <ele>68</ele>
        <time>2021-05-29T13:32:53.000Z</time>
      </trkpt>
      <trkpt lat="47.24333" lon="-1.46366">
        <ele>70</ele>
        <time>2021-05-29T13:32:55.000Z</time>
      </trkpt>
      <trkpt lat="47.24325" lon="-1.46378">
        <ele>69</ele>
        <time>2021-05-29T13:32:57.000Z</time>
      </trkpt>
      <trkpt lat="47.2432" lon="-1.46389">
        <ele>69</ele>
        <time>2021-05-29T13:32:59.000Z</time>
      </trkpt>
      <trkpt lat="47.24311" lon="-1.46402">
        <ele>68</ele>
        <time>2021-05-29T13:33:01.000Z</time>
      </trkpt>
      <trkpt lat="47.24304" lon="-1.46417">
        <ele>68</ele>
        <time>2021-05-29T13:33:03.000Z</time>
      </trkpt>
      <trkpt lat="47.24288" lon="-1.4644">
        <ele>69</ele>
        <time>2021-05-29T13:33:06.000Z</time>
      </trkpt>
      <trkpt lat="47.24278" lon="-1.46456">
        <ele>68</ele>
        <time>2021-05-29T13:33:08.000Z</time>
      </trkpt>
      <trkpt lat="47.24267" lon="-1.4647">
        <ele>67</ele>
        <time>2021-05-29T13:33:10.000Z</time>
      </trkpt>
      <trkpt lat="47.24252" lon="-1.46487">
        <ele>65</ele>
        <time>2021-05-29T13:33:13.000Z</time>
      </trkpt>
      <trkpt lat="47.24242" lon="-1.46502">
        <ele>64</ele>
        <time>2021-05-29T13:33:15.000Z</time>
      </trkpt>
      <trkpt lat="47.24231" lon="-1.46517">
        <ele>63</ele>
        <time>2021-05-29T13:33:17.000Z</time>
      </trkpt>
      <trkpt lat="47.2422" lon="-1.46528">
        <ele>63</ele>
        <time>2021-05-29T13:33:19.000Z</time>
      </trkpt>
      <trkpt lat="47.2421" lon="-1.4654">
        <ele>62</ele>
        <time>2021-05-29T13:33:21.000Z</time>
      </trkpt>
      <trkpt lat="47.24201" lon="-1.46553">
        <ele>62</ele>
        <time>2021-05-29T13:33:23.000Z</time>
      </trkpt>
      <trkpt lat="47.24192" lon="-1.46565">
        <ele>60</ele>
        <time>2021-05-29T13:33:25.000Z</time>
      </trkpt>
      <trkpt lat="47.24183" lon="-1.46578">
        <ele>61</ele>
        <time>2021-05-29T13:33:27.000Z</time>
      </trkpt>
      <trkpt lat="47.24173" lon="-1.46589">
        <ele>61</ele>
        <time>2021-05-29T13:33:29.000Z</time>
      </trkpt>
      <trkpt lat="47.2416" lon="-1.46605">
        <ele>60</ele>
        <time>2021-05-29T13:33:32.000Z</time>
      </trkpt>
      <trkpt lat="47.24152" lon="-1.46616">
        <ele>60</ele>
        <time>2021-05-29T13:33:34.000Z</time>
      </trkpt>
      <trkpt lat="47.24144" lon="-1.4663">
        <ele>60</ele>
        <time>2021-05-29T13:33:36.000Z</time>
      </trkpt>
      <trkpt lat="47.2413" lon="-1.46648">
        <ele>60</ele>
        <time>2021-05-29T13:33:39.000Z</time>
      </trkpt>
      <trkpt lat="47.24121" lon="-1.46659">
        <ele>60</ele>
        <time>2021-05-29T13:33:41.000Z</time>
      </trkpt>
      <trkpt lat="47.24113" lon="-1.46668">
        <ele>57</ele>
        <time>2021-05-29T13:33:43.000Z</time>
      </trkpt>
      <trkpt lat="47.24106" lon="-1.46677">
        <ele>58</ele>
        <time>2021-05-29T13:33:45.000Z</time>
      </trkpt>
      <trkpt lat="47.24097" lon="-1.4669">
        <ele>61</ele>
        <time>2021-05-29T13:33:47.000Z</time>
      </trkpt>
      <trkpt lat="47.24089" lon="-1.46705">
        <ele>61</ele>
        <time>2021-05-29T13:33:49.000Z</time>
      </trkpt>
      <trkpt lat="47.24081" lon="-1.46723">
        <ele>59</ele>
        <time>2021-05-29T13:33:51.000Z</time>
      </trkpt>
      <trkpt lat="47.24072" lon="-1.46738">
        <ele>60</ele>
        <time>2021-05-29T13:33:53.000Z</time>
      </trkpt>
      <trkpt lat="47.24061" lon="-1.46747">
        <ele>58</ele>
        <time>2021-05-29T13:33:55.000Z</time>
      </trkpt>
      <trkpt lat="47.24049" lon="-1.46755">
        <ele>57</ele>
        <time>2021-05-29T13:33:57.000Z</time>
      </trkpt>
      <trkpt lat="47.24036" lon="-1.46768">
        <ele>57</ele>
        <time>2021-05-29T13:33:59.000Z</time>
      </trkpt>
      <trkpt lat="47.24027" lon="-1.46777">
        <ele>56</ele>
        <time>2021-05-29T13:34:01.000Z</time>
      </trkpt>
      <trkpt lat="47.24018" lon="-1.46788">
        <ele>56</ele>
        <time>2021-05-29T13:34:03.000Z</time>
      </trkpt>
      <trkpt lat="47.24004" lon="-1.46804">
        <ele>56</ele>
        <time>2021-05-29T13:34:06.000Z</time>
      </trkpt>
      <trkpt lat="47.23996" lon="-1.46811">
        <ele>54</ele>
        <time>2021-05-29T13:34:08.000Z</time>
      </trkpt>
      <trkpt lat="47.23989" lon="-1.46823">
        <ele>54</ele>
        <time>2021-05-29T13:34:10.000Z</time>
      </trkpt>
      <trkpt lat="47.23973" lon="-1.4684">
        <ele>55</ele>
        <time>2021-05-29T13:34:13.000Z</time>
      </trkpt>
      <trkpt lat="47.23962" lon="-1.46848">
        <ele>54</ele>
        <time>2021-05-29T13:34:15.000Z</time>
      </trkpt>
      <trkpt lat="47.23953" lon="-1.46857">
        <ele>55</ele>
        <time>2021-05-29T13:34:17.000Z</time>
      </trkpt>
      <trkpt lat="47.23943" lon="-1.46864">
        <ele>56</ele>
        <time>2021-05-29T13:34:19.000Z</time>
      </trkpt>
      <trkpt lat="47.23935" lon="-1.46873">
        <ele>56</ele>
        <time>2021-05-29T13:34:21.000Z</time>
      </trkpt>
      <trkpt lat="47.23925" lon="-1.46882">
        <ele>56</ele>
        <time>2021-05-29T13:34:23.000Z</time>
      </trkpt>
      <trkpt lat="47.23915" lon="-1.46891">
        <ele>56</ele>
        <time>2021-05-29T13:34:25.000Z</time>
      </trkpt>
      <trkpt lat="47.23904" lon="-1.46903">
        <ele>57</ele>
        <time>2021-05-29T13:34:27.000Z</time>
      </trkpt>
      <trkpt lat="47.23895" lon="-1.46914">
        <ele>57</ele>
        <time>2021-05-29T13:34:29.000Z</time>
      </trkpt>
      <trkpt lat="47.23887" lon="-1.46926">
        <ele>57</ele>
        <time>2021-05-29T13:34:31.000Z</time>
      </trkpt>
      <trkpt lat="47.23879" lon="-1.46938">
        <ele>58</ele>
        <time>2021-05-29T13:34:33.000Z</time>
      </trkpt>
      <trkpt lat="47.2387" lon="-1.4695">
        <ele>59</ele>
        <time>2021-05-29T13:34:35.000Z</time>
      </trkpt>
      <trkpt lat="47.2386" lon="-1.46963">
        <ele>58</ele>
        <time>2021-05-29T13:34:37.000Z</time>
      </trkpt>
      <trkpt lat="47.23852" lon="-1.46977">
        <ele>57</ele>
        <time>2021-05-29T13:34:39.000Z</time>
      </trkpt>
      <trkpt lat="47.23843" lon="-1.4699">
        <ele>57</ele>
        <time>2021-05-29T13:34:41.000Z</time>
      </trkpt>
      <trkpt lat="47.23835" lon="-1.47002">
        <ele>57</ele>
        <time>2021-05-29T13:34:43.000Z</time>
      </trkpt>
      <trkpt lat="47.23827" lon="-1.47016">
        <ele>57</ele>
        <time>2021-05-29T13:34:45.000Z</time>
      </trkpt>
      <trkpt lat="47.23817" lon="-1.47027">
        <ele>57</ele>
        <time>2021-05-29T13:34:47.000Z</time>
      </trkpt>
      <trkpt lat="47.23808" lon="-1.47041">
        <ele>57</ele>
        <time>2021-05-29T13:34:49.000Z</time>
      </trkpt>
      <trkpt lat="47.23801" lon="-1.47053">
        <ele>57</ele>
        <time>2021-05-29T13:34:51.000Z</time>
      </trkpt>
      <trkpt lat="47.23792" lon="-1.47067">
        <ele>54</ele>
        <time>2021-05-29T13:34:53.000Z</time>
      </trkpt>
      <trkpt lat="47.23783" lon="-1.47078">
        <ele>54</ele>
        <time>2021-05-29T13:34:55.000Z</time>
      </trkpt>
      <trkpt lat="47.23773" lon="-1.4709">
        <ele>56</ele>
        <time>2021-05-29T13:34:57.000Z</time>
      </trkpt>
      <trkpt lat="47.23764" lon="-1.47102">
        <ele>56</ele>
        <time>2021-05-29T13:34:59.000Z</time>
      </trkpt>
      <trkpt lat="47.23753" lon="-1.47124">
        <ele>54</ele>
        <time>2021-05-29T13:35:02.000Z</time>
      </trkpt>
      <trkpt lat="47.23747" lon="-1.47135">
        <ele>52</ele>
        <time>2021-05-29T13:35:04.000Z</time>
      </trkpt>
      <trkpt lat="47.2373" lon="-1.47149">
        <ele>54</ele>
        <time>2021-05-29T13:35:07.000Z</time>
      </trkpt>
      <trkpt lat="47.2372" lon="-1.47162">
        <ele>54</ele>
        <time>2021-05-29T13:35:09.000Z</time>
      </trkpt>
      <trkpt lat="47.2371" lon="-1.47172">
        <ele>55</ele>
        <time>2021-05-29T13:35:11.000Z</time>
      </trkpt>
      <trkpt lat="47.237" lon="-1.47181">
        <ele>56</ele>
        <time>2021-05-29T13:35:13.000Z</time>
      </trkpt>
      <trkpt lat="47.2369" lon="-1.47191">
        <ele>57</ele>
        <time>2021-05-29T13:35:15.000Z</time>
      </trkpt>
      <trkpt lat="47.23684" lon="-1.47209">
        <ele>57</ele>
        <time>2021-05-29T13:35:17.000Z</time>
      </trkpt>
      <trkpt lat="47.23674" lon="-1.47225">
        <ele>57</ele>
        <time>2021-05-29T13:35:19.000Z</time>
      </trkpt>
      <trkpt lat="47.23664" lon="-1.47237">
        <ele>56</ele>
        <time>2021-05-29T13:35:21.000Z</time>
      </trkpt>
      <trkpt lat="47.23653" lon="-1.47248">
        <ele>55</ele>
        <time>2021-05-29T13:35:23.000Z</time>
      </trkpt>
      <trkpt lat="47.23639" lon="-1.47266">
        <ele>55</ele>
        <time>2021-05-29T13:35:26.000Z</time>
      </trkpt>
      <trkpt lat="47.2363" lon="-1.47277">
        <ele>55</ele>
        <time>2021-05-29T13:35:28.000Z</time>
      </trkpt>
      <trkpt lat="47.2362" lon="-1.47287">
        <ele>55</ele>
        <time>2021-05-29T13:35:30.000Z</time>
      </trkpt>
      <trkpt lat="47.2361" lon="-1.47297">
        <ele>56</ele>
        <time>2021-05-29T13:35:32.000Z</time>
      </trkpt>
      <trkpt lat="47.236" lon="-1.47307">
        <ele>55</ele>
        <time>2021-05-29T13:35:34.000Z</time>
      </trkpt>
      <trkpt lat="47.2359" lon="-1.47313">
        <ele>54</ele>
        <time>2021-05-29T13:35:36.000Z</time>
      </trkpt>
      <trkpt lat="47.23579" lon="-1.47323">
        <ele>55</ele>
        <time>2021-05-29T13:35:38.000Z</time>
      </trkpt>
      <trkpt lat="47.23569" lon="-1.47334">
        <ele>55</ele>
        <time>2021-05-29T13:35:40.000Z</time>
      </trkpt>
      <trkpt lat="47.23558" lon="-1.47344">
        <ele>56</ele>
        <time>2021-05-29T13:35:42.000Z</time>
      </trkpt>
      <trkpt lat="47.23547" lon="-1.47354">
        <ele>56</ele>
        <time>2021-05-29T13:35:44.000Z</time>
      </trkpt>
      <trkpt lat="47.23536" lon="-1.47361">
        <ele>56</ele>
        <time>2021-05-29T13:35:46.000Z</time>
      </trkpt>
      <trkpt lat="47.23526" lon="-1.4737">
        <ele>56</ele>
        <time>2021-05-29T13:35:48.000Z</time>
      </trkpt>
      <trkpt lat="47.23515" lon="-1.4738">
        <ele>56</ele>
        <time>2021-05-29T13:35:50.000Z</time>
      </trkpt>
      <trkpt lat="47.23504" lon="-1.47388">
        <ele>55</ele>
        <time>2021-05-29T13:35:52.000Z</time>
      </trkpt>
      <trkpt lat="47.23496" lon="-1.47398">
        <ele>55</ele>
        <time>2021-05-29T13:35:54.000Z</time>
      </trkpt>
      <trkpt lat="47.23484" lon="-1.47404">
        <ele>55</ele>
        <time>2021-05-29T13:35:56.000Z</time>
      </trkpt>
      <trkpt lat="47.23466" lon="-1.47411">
        <ele>55</ele>
        <time>2021-05-29T13:35:59.000Z</time>
      </trkpt>
      <trkpt lat="47.23454" lon="-1.47415">
        <ele>56</ele>
        <time>2021-05-29T13:36:01.000Z</time>
      </trkpt>
      <trkpt lat="47.23443" lon="-1.47419">
        <ele>56</ele>
        <time>2021-05-29T13:36:03.000Z</time>
      </trkpt>
      <trkpt lat="47.23431" lon="-1.47423">
        <ele>56</ele>
        <time>2021-05-29T13:36:05.000Z</time>
      </trkpt>
      <trkpt lat="47.23418" lon="-1.47433">
        <ele>56</ele>
        <time>2021-05-29T13:36:08.000Z</time>
      </trkpt>
      <trkpt lat="47.2341" lon="-1.47445">
        <ele>56</ele>
        <time>2021-05-29T13:36:10.000Z</time>
      </trkpt>
      <trkpt lat="47.23398" lon="-1.4745">
        <ele>56</ele>
        <time>2021-05-29T13:36:12.000Z</time>
      </trkpt>
      <trkpt lat="47.23385" lon="-1.47458">
        <ele>56</ele>
        <time>2021-05-29T13:36:14.000Z</time>
      </trkpt>
      <trkpt lat="47.23372" lon="-1.47466">
        <ele>56</ele>
        <time>2021-05-29T13:36:16.000Z</time>
      </trkpt>
      <trkpt lat="47.23359" lon="-1.4747">
        <ele>56</ele>
        <time>2021-05-29T13:36:18.000Z</time>
      </trkpt>
      <trkpt lat="47.23348" lon="-1.47475">
        <ele>56</ele>
        <time>2021-05-29T13:36:20.000Z</time>
      </trkpt>
      <trkpt lat="47.23337" lon="-1.47481">
        <ele>55</ele>
        <time>2021-05-29T13:36:22.000Z</time>
      </trkpt>
      <trkpt lat="47.23327" lon="-1.47487">
        <ele>55</ele>
        <time>2021-05-29T13:36:24.000Z</time>
      </trkpt>
      <trkpt lat="47.23318" lon="-1.47497">
        <ele>56</ele>
        <time>2021-05-29T13:36:26.000Z</time>
      </trkpt>
      <trkpt lat="47.23308" lon="-1.47504">
        <ele>55</ele>
        <time>2021-05-29T13:36:28.000Z</time>
      </trkpt>
      <trkpt lat="47.23295" lon="-1.47511">
        <ele>56</ele>
        <time>2021-05-29T13:36:31.000Z</time>
      </trkpt>
      <trkpt lat="47.23284" lon="-1.47517">
        <ele>57</ele>
        <time>2021-05-29T13:36:33.000Z</time>
      </trkpt>
      <trkpt lat="47.23268" lon="-1.4753">
        <ele>58</ele>
        <time>2021-05-29T13:36:36.000Z</time>
      </trkpt>
      <trkpt lat="47.23259" lon="-1.47541">
        <ele>58</ele>
        <time>2021-05-29T13:36:38.000Z</time>
      </trkpt>
      <trkpt lat="47.23249" lon="-1.47554">
        <ele>58</ele>
        <time>2021-05-29T13:36:40.000Z</time>
      </trkpt>
      <trkpt lat="47.23238" lon="-1.47578">
        <ele>59</ele>
        <time>2021-05-29T13:36:43.000Z</time>
      </trkpt>
      <trkpt lat="47.23231" lon="-1.47591">
        <ele>56</ele>
        <time>2021-05-29T13:36:45.000Z</time>
      </trkpt>
      <trkpt lat="47.23222" lon="-1.47604">
        <ele>55</ele>
        <time>2021-05-29T13:36:47.000Z</time>
      </trkpt>
      <trkpt lat="47.23217" lon="-1.47621">
        <ele>56</ele>
        <time>2021-05-29T13:36:49.000Z</time>
      </trkpt>
      <trkpt lat="47.23211" lon="-1.47636">
        <ele>58</ele>
        <time>2021-05-29T13:36:51.000Z</time>
      </trkpt>
      <trkpt lat="47.23201" lon="-1.47658">
        <ele>58</ele>
        <time>2021-05-29T13:36:54.000Z</time>
      </trkpt>
      <trkpt lat="47.23196" lon="-1.47673">
        <ele>58</ele>
        <time>2021-05-29T13:36:56.000Z</time>
      </trkpt>
      <trkpt lat="47.23188" lon="-1.47682">
        <ele>58</ele>
        <time>2021-05-29T13:36:58.000Z</time>
      </trkpt>
      <trkpt lat="47.23182" lon="-1.47695">
        <ele>60</ele>
        <time>2021-05-29T13:37:00.000Z</time>
      </trkpt>
      <trkpt lat="47.23174" lon="-1.47714">
        <ele>61</ele>
        <time>2021-05-29T13:37:02.000Z</time>
      </trkpt>
      <trkpt lat="47.23168" lon="-1.47732">
        <ele>61</ele>
        <time>2021-05-29T13:37:04.000Z</time>
      </trkpt>
      <trkpt lat="47.23158" lon="-1.47757">
        <ele>62</ele>
        <time>2021-05-29T13:37:07.000Z</time>
      </trkpt>
      <trkpt lat="47.23152" lon="-1.47773">
        <ele>63</ele>
        <time>2021-05-29T13:37:09.000Z</time>
      </trkpt>
      <trkpt lat="47.23145" lon="-1.47787">
        <ele>63</ele>
        <time>2021-05-29T13:37:11.000Z</time>
      </trkpt>
      <trkpt lat="47.2314" lon="-1.47802">
        <ele>63</ele>
        <time>2021-05-29T13:37:13.000Z</time>
      </trkpt>
      <trkpt lat="47.23134" lon="-1.47815">
        <ele>62</ele>
        <time>2021-05-29T13:37:15.000Z</time>
      </trkpt>
      <trkpt lat="47.23129" lon="-1.47829">
        <ele>61</ele>
        <time>2021-05-29T13:37:17.000Z</time>
      </trkpt>
      <trkpt lat="47.23127" lon="-1.47842">
        <ele>63</ele>
        <time>2021-05-29T13:37:19.000Z</time>
      </trkpt>
      <trkpt lat="47.23123" lon="-1.47857">
        <ele>66</ele>
        <time>2021-05-29T13:37:21.000Z</time>
      </trkpt>
      <trkpt lat="47.23111" lon="-1.47875">
        <ele>66</ele>
        <time>2021-05-29T13:37:23.000Z</time>
      </trkpt>
      <trkpt lat="47.23099" lon="-1.47892">
        <ele>65</ele>
        <time>2021-05-29T13:37:25.000Z</time>
      </trkpt>
      <trkpt lat="47.23091" lon="-1.47906">
        <ele>64</ele>
        <time>2021-05-29T13:37:27.000Z</time>
      </trkpt>
      <trkpt lat="47.23078" lon="-1.47917">
        <ele>62</ele>
        <time>2021-05-29T13:37:30.000Z</time>
      </trkpt>
      <trkpt lat="47.2307" lon="-1.47928">
        <ele>61</ele>
        <time>2021-05-29T13:37:32.000Z</time>
      </trkpt>
      <trkpt lat="47.23062" lon="-1.47938">
        <ele>61</ele>
        <time>2021-05-29T13:37:34.000Z</time>
      </trkpt>
      <trkpt lat="47.23055" lon="-1.47947">
        <ele>63</ele>
        <time>2021-05-29T13:37:36.000Z</time>
      </trkpt>
      <trkpt lat="47.23047" lon="-1.47961">
        <ele>66</ele>
        <time>2021-05-29T13:37:38.000Z</time>
      </trkpt>
      <trkpt lat="47.23037" lon="-1.47976">
        <ele>66</ele>
        <time>2021-05-29T13:37:40.000Z</time>
      </trkpt>
      <trkpt lat="47.23026" lon="-1.47988">
        <ele>67</ele>
        <time>2021-05-29T13:37:42.000Z</time>
      </trkpt>
      <trkpt lat="47.23018" lon="-1.47999">
        <ele>66</ele>
        <time>2021-05-29T13:37:44.000Z</time>
      </trkpt>
      <trkpt lat="47.2301" lon="-1.48013">
        <ele>66</ele>
        <time>2021-05-29T13:37:46.000Z</time>
      </trkpt>
      <trkpt lat="47.23002" lon="-1.48027">
        <ele>66</ele>
        <time>2021-05-29T13:37:48.000Z</time>
      </trkpt>
      <trkpt lat="47.22994" lon="-1.48042">
        <ele>66</ele>
        <time>2021-05-29T13:37:50.000Z</time>
      </trkpt>
      <trkpt lat="47.22984" lon="-1.48056">
        <ele>64</ele>
        <time>2021-05-29T13:37:52.000Z</time>
      </trkpt>
      <trkpt lat="47.22975" lon="-1.48069">
        <ele>64</ele>
        <time>2021-05-29T13:37:54.000Z</time>
      </trkpt>
      <trkpt lat="47.22966" lon="-1.48081">
        <ele>64</ele>
        <time>2021-05-29T13:37:56.000Z</time>
      </trkpt>
      <trkpt lat="47.22957" lon="-1.48091">
        <ele>61</ele>
        <time>2021-05-29T13:37:58.000Z</time>
      </trkpt>
      <trkpt lat="47.22946" lon="-1.48105">
        <ele>60</ele>
        <time>2021-05-29T13:38:01.000Z</time>
      </trkpt>
      <trkpt lat="47.22936" lon="-1.48109">
        <ele>59</ele>
        <time>2021-05-29T13:38:03.000Z</time>
      </trkpt>
      <trkpt lat="47.22924" lon="-1.48114">
        <ele>60</ele>
        <time>2021-05-29T13:38:05.000Z</time>
      </trkpt>
      <trkpt lat="47.22911" lon="-1.48121">
        <ele>60</ele>
        <time>2021-05-29T13:38:07.000Z</time>
      </trkpt>
      <trkpt lat="47.22901" lon="-1.48133">
        <ele>60</ele>
        <time>2021-05-29T13:38:09.000Z</time>
      </trkpt>
      <trkpt lat="47.22893" lon="-1.48145">
        <ele>60</ele>
        <time>2021-05-29T13:38:11.000Z</time>
      </trkpt>
      <trkpt lat="47.22885" lon="-1.48156">
        <ele>59</ele>
        <time>2021-05-29T13:38:13.000Z</time>
      </trkpt>
      <trkpt lat="47.22876" lon="-1.48165">
        <ele>59</ele>
        <time>2021-05-29T13:38:15.000Z</time>
      </trkpt>
      <trkpt lat="47.22869" lon="-1.48177">
        <ele>61</ele>
        <time>2021-05-29T13:38:17.000Z</time>
      </trkpt>
      <trkpt lat="47.22861" lon="-1.4819">
        <ele>62</ele>
        <time>2021-05-29T13:38:19.000Z</time>
      </trkpt>
      <trkpt lat="47.22853" lon="-1.48202">
        <ele>63</ele>
        <time>2021-05-29T13:38:21.000Z</time>
      </trkpt>
      <trkpt lat="47.22844" lon="-1.48216">
        <ele>63</ele>
        <time>2021-05-29T13:38:23.000Z</time>
      </trkpt>
      <trkpt lat="47.22835" lon="-1.4823">
        <ele>62</ele>
        <time>2021-05-29T13:38:25.000Z</time>
      </trkpt>
      <trkpt lat="47.22826" lon="-1.48241">
        <ele>62</ele>
        <time>2021-05-29T13:38:27.000Z</time>
      </trkpt>
      <trkpt lat="47.22816" lon="-1.48251">
        <ele>61</ele>
        <time>2021-05-29T13:38:29.000Z</time>
      </trkpt>
      <trkpt lat="47.22803" lon="-1.48268">
        <ele>62</ele>
        <time>2021-05-29T13:38:32.000Z</time>
      </trkpt>
      <trkpt lat="47.22797" lon="-1.48282">
        <ele>61</ele>
        <time>2021-05-29T13:38:34.000Z</time>
      </trkpt>
      <trkpt lat="47.2279" lon="-1.48294">
        <ele>64</ele>
        <time>2021-05-29T13:38:36.000Z</time>
      </trkpt>
      <trkpt lat="47.22783" lon="-1.48307">
        <ele>66</ele>
        <time>2021-05-29T13:38:38.000Z</time>
      </trkpt>
      <trkpt lat="47.22773" lon="-1.48327">
        <ele>65</ele>
        <time>2021-05-29T13:38:41.000Z</time>
      </trkpt>
      <trkpt lat="47.22764" lon="-1.48341">
        <ele>67</ele>
        <time>2021-05-29T13:38:43.000Z</time>
      </trkpt>
      <trkpt lat="47.22753" lon="-1.48352">
        <ele>66</ele>
        <time>2021-05-29T13:38:45.000Z</time>
      </trkpt>
      <trkpt lat="47.22744" lon="-1.48365">
        <ele>65</ele>
        <time>2021-05-29T13:38:47.000Z</time>
      </trkpt>
      <trkpt lat="47.22729" lon="-1.48386">
        <ele>64</ele>
        <time>2021-05-29T13:38:50.000Z</time>
      </trkpt>
      <trkpt lat="47.22719" lon="-1.48396">
        <ele>64</ele>
        <time>2021-05-29T13:38:52.000Z</time>
      </trkpt>
      <trkpt lat="47.2271" lon="-1.48412">
        <ele>63</ele>
        <time>2021-05-29T13:38:54.000Z</time>
      </trkpt>
      <trkpt lat="47.22704" lon="-1.48429">
        <ele>62</ele>
        <time>2021-05-29T13:38:56.000Z</time>
      </trkpt>
      <trkpt lat="47.22698" lon="-1.48445">
        <ele>62</ele>
        <time>2021-05-29T13:38:58.000Z</time>
      </trkpt>
      <trkpt lat="47.22692" lon="-1.48459">
        <ele>63</ele>
        <time>2021-05-29T13:39:00.000Z</time>
      </trkpt>
      <trkpt lat="47.22686" lon="-1.48474">
        <ele>63</ele>
        <time>2021-05-29T13:39:02.000Z</time>
      </trkpt>
      <trkpt lat="47.22679" lon="-1.48486">
        <ele>63</ele>
        <time>2021-05-29T13:39:04.000Z</time>
      </trkpt>
      <trkpt lat="47.2267" lon="-1.48508">
        <ele>62</ele>
        <time>2021-05-29T13:39:07.000Z</time>
      </trkpt>
      <trkpt lat="47.22662" lon="-1.48538">
        <ele>63</ele>
        <time>2021-05-29T13:39:11.000Z</time>
      </trkpt>
      <trkpt lat="47.22655" lon="-1.48556">
        <ele>62</ele>
        <time>2021-05-29T13:39:13.000Z</time>
      </trkpt>
      <trkpt lat="47.22648" lon="-1.48572">
        <ele>62</ele>
        <time>2021-05-29T13:39:15.000Z</time>
      </trkpt>
      <trkpt lat="47.22641" lon="-1.48584">
        <ele>58</ele>
        <time>2021-05-29T13:39:17.000Z</time>
      </trkpt>
      <trkpt lat="47.22634" lon="-1.48596">
        <ele>60</ele>
        <time>2021-05-29T13:39:20.000Z</time>
      </trkpt>
      <trkpt lat="47.22625" lon="-1.48614">
        <ele>60</ele>
        <time>2021-05-29T13:39:23.000Z</time>
      </trkpt>
      <trkpt lat="47.22618" lon="-1.48626">
        <ele>61</ele>
        <time>2021-05-29T13:39:25.000Z</time>
      </trkpt>
      <trkpt lat="47.22612" lon="-1.48639">
        <ele>63</ele>
        <time>2021-05-29T13:39:27.000Z</time>
      </trkpt>
      <trkpt lat="47.22606" lon="-1.48658">
        <ele>64</ele>
        <time>2021-05-29T13:39:29.000Z</time>
      </trkpt>
      <trkpt lat="47.22602" lon="-1.48678">
        <ele>64</ele>
        <time>2021-05-29T13:39:31.000Z</time>
      </trkpt>
      <trkpt lat="47.22599" lon="-1.48697">
        <ele>63</ele>
        <time>2021-05-29T13:39:33.000Z</time>
      </trkpt>
      <trkpt lat="47.22593" lon="-1.48723">
        <ele>62</ele>
        <time>2021-05-29T13:39:36.000Z</time>
      </trkpt>
      <trkpt lat="47.22588" lon="-1.48748">
        <ele>63</ele>
        <time>2021-05-29T13:39:39.000Z</time>
      </trkpt>
      <trkpt lat="47.22579" lon="-1.48774">
        <ele>63</ele>
        <time>2021-05-29T13:39:42.000Z</time>
      </trkpt>
      <trkpt lat="47.22574" lon="-1.48791">
        <ele>64</ele>
        <time>2021-05-29T13:39:44.000Z</time>
      </trkpt>
      <trkpt lat="47.22568" lon="-1.48803">
        <ele>63</ele>
        <time>2021-05-29T13:39:46.000Z</time>
      </trkpt>
      <trkpt lat="47.22562" lon="-1.48817">
        <ele>62</ele>
        <time>2021-05-29T13:39:48.000Z</time>
      </trkpt>
      <trkpt lat="47.22555" lon="-1.48836">
        <ele>62</ele>
        <time>2021-05-29T13:39:51.000Z</time>
      </trkpt>
      <trkpt lat="47.22554" lon="-1.48849">
        <ele>63</ele>
        <time>2021-05-29T13:39:53.000Z</time>
      </trkpt>
      <trkpt lat="47.22551" lon="-1.48867">
        <ele>65</ele>
        <time>2021-05-29T13:39:56.000Z</time>
      </trkpt>
      <trkpt lat="47.22548" lon="-1.48879">
        <ele>65</ele>
        <time>2021-05-29T13:39:58.000Z</time>
      </trkpt>
      <trkpt lat="47.22544" lon="-1.48908">
        <ele>68</ele>
        <time>2021-05-29T13:40:02.000Z</time>
      </trkpt>
      <trkpt lat="47.22541" lon="-1.48921">
        <ele>69</ele>
        <time>2021-05-29T13:40:04.000Z</time>
      </trkpt>
      <trkpt lat="47.22535" lon="-1.48945">
        <ele>71</ele>
        <time>2021-05-29T13:40:07.000Z</time>
      </trkpt>
      <trkpt lat="47.22527" lon="-1.48965">
        <ele>71</ele>
        <time>2021-05-29T13:40:09.000Z</time>
      </trkpt>
      <trkpt lat="47.22519" lon="-1.4898">
        <ele>72</ele>
        <time>2021-05-29T13:40:11.000Z</time>
      </trkpt>
      <trkpt lat="47.22511" lon="-1.48997">
        <ele>71</ele>
        <time>2021-05-29T13:40:14.000Z</time>
      </trkpt>
      <trkpt lat="47.22502" lon="-1.49015">
        <ele>73</ele>
        <time>2021-05-29T13:40:17.000Z</time>
      </trkpt>
      <trkpt lat="47.22496" lon="-1.49031">
        <ele>73</ele>
        <time>2021-05-29T13:40:19.000Z</time>
      </trkpt>
      <trkpt lat="47.22492" lon="-1.49043">
        <ele>74</ele>
        <time>2021-05-29T13:40:21.000Z</time>
      </trkpt>
      <trkpt lat="47.22487" lon="-1.49057">
        <ele>74</ele>
        <time>2021-05-29T13:40:23.000Z</time>
      </trkpt>
      <trkpt lat="47.22482" lon="-1.49071">
        <ele>75</ele>
        <time>2021-05-29T13:40:24.000Z</time>
      </trkpt>
      <trkpt lat="47.22475" lon="-1.49089">
        <ele>75</ele>
        <time>2021-05-29T13:40:26.000Z</time>
      </trkpt>
      <trkpt lat="47.22464" lon="-1.49119">
        <ele>76</ele>
        <time>2021-05-29T13:40:29.000Z</time>
      </trkpt>
      <trkpt lat="47.22458" lon="-1.49138">
        <ele>76</ele>
        <time>2021-05-29T13:40:31.000Z</time>
      </trkpt>
      <trkpt lat="47.22452" lon="-1.49156">
        <ele>78</ele>
        <time>2021-05-29T13:40:33.000Z</time>
      </trkpt>
      <trkpt lat="47.22451" lon="-1.49173">
        <ele>78</ele>
        <time>2021-05-29T13:40:35.000Z</time>
      </trkpt>
      <trkpt lat="47.22441" lon="-1.49203">
        <ele>79</ele>
        <time>2021-05-29T13:40:38.000Z</time>
      </trkpt>
      <trkpt lat="47.22436" lon="-1.49218">
        <ele>79</ele>
        <time>2021-05-29T13:40:40.000Z</time>
      </trkpt>
      <trkpt lat="47.22432" lon="-1.49232">
        <ele>79</ele>
        <time>2021-05-29T13:40:42.000Z</time>
      </trkpt>
      <trkpt lat="47.22429" lon="-1.49247">
        <ele>79</ele>
        <time>2021-05-29T13:40:44.000Z</time>
      </trkpt>
      <trkpt lat="47.22422" lon="-1.49264">
        <ele>79</ele>
        <time>2021-05-29T13:40:46.000Z</time>
      </trkpt>
      <trkpt lat="47.22414" lon="-1.49278">
        <ele>80</ele>
        <time>2021-05-29T13:40:48.000Z</time>
      </trkpt>
      <trkpt lat="47.22407" lon="-1.49294">
        <ele>78</ele>
        <time>2021-05-29T13:40:50.000Z</time>
      </trkpt>
      <trkpt lat="47.224" lon="-1.49316">
        <ele>79</ele>
        <time>2021-05-29T13:40:53.000Z</time>
      </trkpt>
      <trkpt lat="47.22393" lon="-1.49336">
        <ele>79</ele>
        <time>2021-05-29T13:40:55.000Z</time>
      </trkpt>
      <trkpt lat="47.22387" lon="-1.49351">
        <ele>79</ele>
        <time>2021-05-29T13:40:57.000Z</time>
      </trkpt>
      <trkpt lat="47.22382" lon="-1.49365">
        <ele>77</ele>
        <time>2021-05-29T13:40:59.000Z</time>
      </trkpt>
      <trkpt lat="47.22376" lon="-1.49382">
        <ele>76</ele>
        <time>2021-05-29T13:41:02.000Z</time>
      </trkpt>
      <trkpt lat="47.22371" lon="-1.49394">
        <ele>76</ele>
        <time>2021-05-29T13:41:04.000Z</time>
      </trkpt>
      <trkpt lat="47.22364" lon="-1.4941">
        <ele>74</ele>
        <time>2021-05-29T13:41:06.000Z</time>
      </trkpt>
      <trkpt lat="47.22357" lon="-1.49425">
        <ele>73</ele>
        <time>2021-05-29T13:41:08.000Z</time>
      </trkpt>
      <trkpt lat="47.2235" lon="-1.49439">
        <ele>73</ele>
        <time>2021-05-29T13:41:10.000Z</time>
      </trkpt>
      <trkpt lat="47.22343" lon="-1.49452">
        <ele>75</ele>
        <time>2021-05-29T13:41:12.000Z</time>
      </trkpt>
      <trkpt lat="47.22337" lon="-1.49466">
        <ele>75</ele>
        <time>2021-05-29T13:41:14.000Z</time>
      </trkpt>
      <trkpt lat="47.22331" lon="-1.49481">
        <ele>75</ele>
        <time>2021-05-29T13:41:16.000Z</time>
      </trkpt>
      <trkpt lat="47.22326" lon="-1.49497">
        <ele>76</ele>
        <time>2021-05-29T13:41:18.000Z</time>
      </trkpt>
      <trkpt lat="47.22321" lon="-1.49514">
        <ele>73</ele>
        <time>2021-05-29T13:41:20.000Z</time>
      </trkpt>
      <trkpt lat="47.22316" lon="-1.49527">
        <ele>73</ele>
        <time>2021-05-29T13:41:22.000Z</time>
      </trkpt>
      <trkpt lat="47.22311" lon="-1.49543">
        <ele>74</ele>
        <time>2021-05-29T13:41:24.000Z</time>
      </trkpt>
      <trkpt lat="47.22305" lon="-1.49559">
        <ele>75</ele>
        <time>2021-05-29T13:41:26.000Z</time>
      </trkpt>
      <trkpt lat="47.223" lon="-1.49577">
        <ele>75</ele>
        <time>2021-05-29T13:41:28.000Z</time>
      </trkpt>
      <trkpt lat="47.22294" lon="-1.49592">
        <ele>74</ele>
        <time>2021-05-29T13:41:30.000Z</time>
      </trkpt>
      <trkpt lat="47.22291" lon="-1.49607">
        <ele>74</ele>
        <time>2021-05-29T13:41:32.000Z</time>
      </trkpt>
      <trkpt lat="47.22285" lon="-1.49625">
        <ele>74</ele>
        <time>2021-05-29T13:41:34.000Z</time>
      </trkpt>
      <trkpt lat="47.2228" lon="-1.49641">
        <ele>74</ele>
        <time>2021-05-29T13:41:36.000Z</time>
      </trkpt>
      <trkpt lat="47.22273" lon="-1.49659">
        <ele>74</ele>
        <time>2021-05-29T13:41:39.000Z</time>
      </trkpt>
      <trkpt lat="47.22267" lon="-1.49678">
        <ele>74</ele>
        <time>2021-05-29T13:41:41.000Z</time>
      </trkpt>
      <trkpt lat="47.22263" lon="-1.49695">
        <ele>73</ele>
        <time>2021-05-29T13:41:43.000Z</time>
      </trkpt>
      <trkpt lat="47.22257" lon="-1.49709">
        <ele>72</ele>
        <time>2021-05-29T13:41:45.000Z</time>
      </trkpt>
      <trkpt lat="47.22253" lon="-1.49721">
        <ele>73</ele>
        <time>2021-05-29T13:41:47.000Z</time>
      </trkpt>
      <trkpt lat="47.22251" lon="-1.49738">
        <ele>73</ele>
        <time>2021-05-29T13:41:49.000Z</time>
      </trkpt>
      <trkpt lat="47.22248" lon="-1.49757">
        <ele>72</ele>
        <time>2021-05-29T13:41:51.000Z</time>
      </trkpt>
      <trkpt lat="47.22247" lon="-1.49771">
        <ele>72</ele>
        <time>2021-05-29T13:41:53.000Z</time>
      </trkpt>
      <trkpt lat="47.22243" lon="-1.49788">
        <ele>73</ele>
        <time>2021-05-29T13:41:56.000Z</time>
      </trkpt>
      <trkpt lat="47.2224" lon="-1.49808">
        <ele>72</ele>
        <time>2021-05-29T13:41:58.000Z</time>
      </trkpt>
      <trkpt lat="47.22235" lon="-1.49827">
        <ele>72</ele>
        <time>2021-05-29T13:42:00.000Z</time>
      </trkpt>
      <trkpt lat="47.22231" lon="-1.49844">
        <ele>72</ele>
        <time>2021-05-29T13:42:02.000Z</time>
      </trkpt>
      <trkpt lat="47.22227" lon="-1.4986">
        <ele>72</ele>
        <time>2021-05-29T13:42:04.000Z</time>
      </trkpt>
      <trkpt lat="47.22223" lon="-1.49876">
        <ele>72</ele>
        <time>2021-05-29T13:42:06.000Z</time>
      </trkpt>
      <trkpt lat="47.22222" lon="-1.4989">
        <ele>71</ele>
        <time>2021-05-29T13:42:09.000Z</time>
      </trkpt>
      <trkpt lat="47.2222" lon="-1.49905">
        <ele>73</ele>
        <time>2021-05-29T13:42:12.000Z</time>
      </trkpt>
      <trkpt lat="47.22216" lon="-1.49918">
        <ele>75</ele>
        <time>2021-05-29T13:42:15.000Z</time>
      </trkpt>
      <trkpt lat="47.22211" lon="-1.4993">
        <ele>76</ele>
        <time>2021-05-29T13:42:17.000Z</time>
      </trkpt>
      <trkpt lat="47.22207" lon="-1.49942">
        <ele>76</ele>
        <time>2021-05-29T13:42:19.000Z</time>
      </trkpt>
      <trkpt lat="47.22202" lon="-1.49961">
        <ele>77</ele>
        <time>2021-05-29T13:42:21.000Z</time>
      </trkpt>
      <trkpt lat="47.22197" lon="-1.49978">
        <ele>77</ele>
        <time>2021-05-29T13:42:23.000Z</time>
      </trkpt>
      <trkpt lat="47.22192" lon="-1.49997">
        <ele>77</ele>
        <time>2021-05-29T13:42:25.000Z</time>
      </trkpt>
      <trkpt lat="47.22185" lon="-1.50018">
        <ele>77</ele>
        <time>2021-05-29T13:42:28.000Z</time>
      </trkpt>
      <trkpt lat="47.22181" lon="-1.50032">
        <ele>77</ele>
        <time>2021-05-29T13:42:30.000Z</time>
      </trkpt>
      <trkpt lat="47.22177" lon="-1.50052">
        <ele>77</ele>
        <time>2021-05-29T13:42:32.000Z</time>
      </trkpt>
      <trkpt lat="47.22173" lon="-1.50076">
        <ele>76</ele>
        <time>2021-05-29T13:42:34.000Z</time>
      </trkpt>
      <trkpt lat="47.2217" lon="-1.50093">
        <ele>76</ele>
        <time>2021-05-29T13:42:36.000Z</time>
      </trkpt>
      <trkpt lat="47.22168" lon="-1.50115">
        <ele>78</ele>
        <time>2021-05-29T13:42:38.000Z</time>
      </trkpt>
      <trkpt lat="47.22165" lon="-1.50136">
        <ele>80</ele>
        <time>2021-05-29T13:42:40.000Z</time>
      </trkpt>
      <trkpt lat="47.22161" lon="-1.5015">
        <ele>80</ele>
        <time>2021-05-29T13:42:41.000Z</time>
      </trkpt>
      <trkpt lat="47.22156" lon="-1.50172">
        <ele>79</ele>
        <time>2021-05-29T13:42:43.000Z</time>
      </trkpt>
      <trkpt lat="47.2215" lon="-1.50193">
        <ele>78</ele>
        <time>2021-05-29T13:42:46.000Z</time>
      </trkpt>
      <trkpt lat="47.22146" lon="-1.50205">
        <ele>77</ele>
        <time>2021-05-29T13:42:51.000Z</time>
      </trkpt>
      <trkpt lat="47.22138" lon="-1.50217">
        <ele>75</ele>
        <time>2021-05-29T13:42:55.000Z</time>
      </trkpt>
      <trkpt lat="47.22134" lon="-1.50231">
        <ele>75</ele>
        <time>2021-05-29T13:42:57.000Z</time>
      </trkpt>
      <trkpt lat="47.22128" lon="-1.50248">
        <ele>76</ele>
        <time>2021-05-29T13:43:00.000Z</time>
      </trkpt>
      <trkpt lat="47.22121" lon="-1.5026">
        <ele>76</ele>
        <time>2021-05-29T13:43:02.000Z</time>
      </trkpt>
      <trkpt lat="47.22114" lon="-1.50279">
        <ele>77</ele>
        <time>2021-05-29T13:43:05.000Z</time>
      </trkpt>
      <trkpt lat="47.22107" lon="-1.50295">
        <ele>75</ele>
        <time>2021-05-29T13:43:07.000Z</time>
      </trkpt>
      <trkpt lat="47.22096" lon="-1.50306">
        <ele>74</ele>
        <time>2021-05-29T13:43:09.000Z</time>
      </trkpt>
      <trkpt lat="47.22088" lon="-1.50321">
        <ele>73</ele>
        <time>2021-05-29T13:43:11.000Z</time>
      </trkpt>
      <trkpt lat="47.22083" lon="-1.50346">
        <ele>74</ele>
        <time>2021-05-29T13:43:14.000Z</time>
      </trkpt>
      <trkpt lat="47.22082" lon="-1.50361">
        <ele>76</ele>
        <time>2021-05-29T13:43:16.000Z</time>
      </trkpt>
      <trkpt lat="47.2208" lon="-1.50375">
        <ele>76</ele>
        <time>2021-05-29T13:43:17.000Z</time>
      </trkpt>
      <trkpt lat="47.22074" lon="-1.50392">
        <ele>75</ele>
        <time>2021-05-29T13:43:19.000Z</time>
      </trkpt>
      <trkpt lat="47.2207" lon="-1.50409">
        <ele>74</ele>
        <time>2021-05-29T13:43:21.000Z</time>
      </trkpt>
      <trkpt lat="47.22066" lon="-1.50428">
        <ele>73</ele>
        <time>2021-05-29T13:43:23.000Z</time>
      </trkpt>
      <trkpt lat="47.22065" lon="-1.50446">
        <ele>71</ele>
        <time>2021-05-29T13:43:25.000Z</time>
      </trkpt>
      <trkpt lat="47.22063" lon="-1.50462">
        <ele>70</ele>
        <time>2021-05-29T13:43:27.000Z</time>
      </trkpt>
      <trkpt lat="47.22061" lon="-1.50477">
        <ele>69</ele>
        <time>2021-05-29T13:43:29.000Z</time>
      </trkpt>
      <trkpt lat="47.22058" lon="-1.50493">
        <ele>68</ele>
        <time>2021-05-29T13:43:31.000Z</time>
      </trkpt>
      <trkpt lat="47.22056" lon="-1.50507">
        <ele>70</ele>
        <time>2021-05-29T13:43:33.000Z</time>
      </trkpt>
      <trkpt lat="47.22056" lon="-1.50522">
        <ele>70</ele>
        <time>2021-05-29T13:43:35.000Z</time>
      </trkpt>
      <trkpt lat="47.22054" lon="-1.50538">
        <ele>70</ele>
        <time>2021-05-29T13:43:37.000Z</time>
      </trkpt>
      <trkpt lat="47.22054" lon="-1.50555">
        <ele>68</ele>
        <time>2021-05-29T13:43:39.000Z</time>
      </trkpt>
      <trkpt lat="47.22049" lon="-1.5057">
        <ele>67</ele>
        <time>2021-05-29T13:43:42.000Z</time>
      </trkpt>
      <trkpt lat="47.22046" lon="-1.50587">
        <ele>67</ele>
        <time>2021-05-29T13:43:45.000Z</time>
      </trkpt>
      <trkpt lat="47.22045" lon="-1.50605">
        <ele>68</ele>
        <time>2021-05-29T13:43:48.000Z</time>
      </trkpt>
      <trkpt lat="47.22042" lon="-1.50618">
        <ele>70</ele>
        <time>2021-05-29T13:43:50.000Z</time>
      </trkpt>
      <trkpt lat="47.22039" lon="-1.50636">
        <ele>72</ele>
        <time>2021-05-29T13:43:53.000Z</time>
      </trkpt>
      <trkpt lat="47.2204" lon="-1.50653">
        <ele>74</ele>
        <time>2021-05-29T13:43:55.000Z</time>
      </trkpt>
      <trkpt lat="47.22041" lon="-1.50668">
        <ele>74</ele>
        <time>2021-05-29T13:43:57.000Z</time>
      </trkpt>
      <trkpt lat="47.22039" lon="-1.50686">
        <ele>76</ele>
        <time>2021-05-29T13:44:00.000Z</time>
      </trkpt>
      <trkpt lat="47.22036" lon="-1.50704">
        <ele>76</ele>
        <time>2021-05-29T13:44:03.000Z</time>
      </trkpt>
      <trkpt lat="47.22031" lon="-1.50723">
        <ele>77</ele>
        <time>2021-05-29T13:44:06.000Z</time>
      </trkpt>
      <trkpt lat="47.22027" lon="-1.50739">
        <ele>78</ele>
        <time>2021-05-29T13:44:08.000Z</time>
      </trkpt>
      <trkpt lat="47.22026" lon="-1.50754">
        <ele>77</ele>
        <time>2021-05-29T13:44:10.000Z</time>
      </trkpt>
      <trkpt lat="47.22025" lon="-1.50769">
        <ele>78</ele>
        <time>2021-05-29T13:44:12.000Z</time>
      </trkpt>
      <trkpt lat="47.22022" lon="-1.50786">
        <ele>79</ele>
        <time>2021-05-29T13:44:14.000Z</time>
      </trkpt>
      <trkpt lat="47.2202" lon="-1.50802">
        <ele>81</ele>
        <time>2021-05-29T13:44:16.000Z</time>
      </trkpt>
      <trkpt lat="47.22012" lon="-1.50822">
        <ele>83</ele>
        <time>2021-05-29T13:44:18.000Z</time>
      </trkpt>
      <trkpt lat="47.22002" lon="-1.50839">
        <ele>84</ele>
        <time>2021-05-29T13:44:20.000Z</time>
      </trkpt>
      <trkpt lat="47.21994" lon="-1.50855">
        <ele>84</ele>
        <time>2021-05-29T13:44:22.000Z</time>
      </trkpt>
      <trkpt lat="47.21986" lon="-1.50879">
        <ele>82</ele>
        <time>2021-05-29T13:44:24.000Z</time>
      </trkpt>
      <trkpt lat="47.21976" lon="-1.50911">
        <ele>82</ele>
        <time>2021-05-29T13:44:27.000Z</time>
      </trkpt>
      <trkpt lat="47.21974" lon="-1.50933">
        <ele>85</ele>
        <time>2021-05-29T13:44:29.000Z</time>
      </trkpt>
      <trkpt lat="47.2197" lon="-1.50955">
        <ele>81</ele>
        <time>2021-05-29T13:44:31.000Z</time>
      </trkpt>
      <trkpt lat="47.21966" lon="-1.50978">
        <ele>78</ele>
        <time>2021-05-29T13:44:33.000Z</time>
      </trkpt>
      <trkpt lat="47.2196" lon="-1.50999">
        <ele>76</ele>
        <time>2021-05-29T13:44:35.000Z</time>
      </trkpt>
      <trkpt lat="47.21957" lon="-1.51017">
        <ele>74</ele>
        <time>2021-05-29T13:44:37.000Z</time>
      </trkpt>
      <trkpt lat="47.21953" lon="-1.51034">
        <ele>73</ele>
        <time>2021-05-29T13:44:39.000Z</time>
      </trkpt>
      <trkpt lat="47.21949" lon="-1.51048">
        <ele>69</ele>
        <time>2021-05-29T13:44:41.000Z</time>
      </trkpt>
      <trkpt lat="47.21944" lon="-1.51062">
        <ele>65</ele>
        <time>2021-05-29T13:44:43.000Z</time>
      </trkpt>
      <trkpt lat="47.21938" lon="-1.51074">
        <ele>64</ele>
        <time>2021-05-29T13:44:45.000Z</time>
      </trkpt>
      <trkpt lat="47.21928" lon="-1.51099">
        <ele>62</ele>
        <time>2021-05-29T13:44:48.000Z</time>
      </trkpt>
      <trkpt lat="47.21922" lon="-1.51113">
        <ele>61</ele>
        <time>2021-05-29T13:44:50.000Z</time>
      </trkpt>
      <trkpt lat="47.21916" lon="-1.5113">
        <ele>60</ele>
        <time>2021-05-29T13:44:52.000Z</time>
      </trkpt>
      <trkpt lat="47.21911" lon="-1.51146">
        <ele>59</ele>
        <time>2021-05-29T13:44:54.000Z</time>
      </trkpt>
      <trkpt lat="47.21907" lon="-1.51161">
        <ele>59</ele>
        <time>2021-05-29T13:44:56.000Z</time>
      </trkpt>
      <trkpt lat="47.21901" lon="-1.51176">
        <ele>58</ele>
        <time>2021-05-29T13:44:58.000Z</time>
      </trkpt>
      <trkpt lat="47.21897" lon="-1.51192">
        <ele>58</ele>
        <time>2021-05-29T13:45:00.000Z</time>
      </trkpt>
      <trkpt lat="47.21891" lon="-1.51208">
        <ele>57</ele>
        <time>2021-05-29T13:45:02.000Z</time>
      </trkpt>
      <trkpt lat="47.21886" lon="-1.51223">
        <ele>57</ele>
        <time>2021-05-29T13:45:04.000Z</time>
      </trkpt>
      <trkpt lat="47.21882" lon="-1.5124">
        <ele>55</ele>
        <time>2021-05-29T13:45:06.000Z</time>
      </trkpt>
      <trkpt lat="47.21871" lon="-1.51265">
        <ele>53</ele>
        <time>2021-05-29T13:45:10.000Z</time>
      </trkpt>
      <trkpt lat="47.21865" lon="-1.51281">
        <ele>55</ele>
        <time>2021-05-29T13:45:12.000Z</time>
      </trkpt>
      <trkpt lat="47.21859" lon="-1.51294">
        <ele>56</ele>
        <time>2021-05-29T13:45:14.000Z</time>
      </trkpt>
      <trkpt lat="47.21855" lon="-1.51308">
        <ele>57</ele>
        <time>2021-05-29T13:45:16.000Z</time>
      </trkpt>
      <trkpt lat="47.21852" lon="-1.51321">
        <ele>59</ele>
        <time>2021-05-29T13:45:18.000Z</time>
      </trkpt>
      <trkpt lat="47.2185" lon="-1.51335">
        <ele>60</ele>
        <time>2021-05-29T13:45:20.000Z</time>
      </trkpt>
      <trkpt lat="47.21845" lon="-1.51351">
        <ele>61</ele>
        <time>2021-05-29T13:45:22.000Z</time>
      </trkpt>
      <trkpt lat="47.21839" lon="-1.51375">
        <ele>59</ele>
        <time>2021-05-29T13:45:25.000Z</time>
      </trkpt>
      <trkpt lat="47.21832" lon="-1.51401">
        <ele>60</ele>
        <time>2021-05-29T13:45:28.000Z</time>
      </trkpt>
      <trkpt lat="47.21829" lon="-1.51418">
        <ele>60</ele>
        <time>2021-05-29T13:45:30.000Z</time>
      </trkpt>
      <trkpt lat="47.21825" lon="-1.51432">
        <ele>59</ele>
        <time>2021-05-29T13:45:32.000Z</time>
      </trkpt>
      <trkpt lat="47.21822" lon="-1.5145">
        <ele>58</ele>
        <time>2021-05-29T13:45:34.000Z</time>
      </trkpt>
      <trkpt lat="47.21819" lon="-1.51468">
        <ele>57</ele>
        <time>2021-05-29T13:45:36.000Z</time>
      </trkpt>
      <trkpt lat="47.21816" lon="-1.51485">
        <ele>56</ele>
        <time>2021-05-29T13:45:38.000Z</time>
      </trkpt>
      <trkpt lat="47.21812" lon="-1.51502">
        <ele>54</ele>
        <time>2021-05-29T13:45:40.000Z</time>
      </trkpt>
      <trkpt lat="47.21804" lon="-1.51514">
        <ele>55</ele>
        <time>2021-05-29T13:45:42.000Z</time>
      </trkpt>
      <trkpt lat="47.21798" lon="-1.51529">
        <ele>56</ele>
        <time>2021-05-29T13:45:44.000Z</time>
      </trkpt>
      <trkpt lat="47.21793" lon="-1.51543">
        <ele>56</ele>
        <time>2021-05-29T13:45:46.000Z</time>
      </trkpt>
      <trkpt lat="47.21787" lon="-1.51558">
        <ele>55</ele>
        <time>2021-05-29T13:45:48.000Z</time>
      </trkpt>
      <trkpt lat="47.21777" lon="-1.51578">
        <ele>55</ele>
        <time>2021-05-29T13:45:51.000Z</time>
      </trkpt>
      <trkpt lat="47.2177" lon="-1.5159">
        <ele>56</ele>
        <time>2021-05-29T13:45:53.000Z</time>
      </trkpt>
      <trkpt lat="47.21762" lon="-1.51602">
        <ele>55</ele>
        <time>2021-05-29T13:45:55.000Z</time>
      </trkpt>
      <trkpt lat="47.21753" lon="-1.51617">
        <ele>54</ele>
        <time>2021-05-29T13:45:57.000Z</time>
      </trkpt>
      <trkpt lat="47.21747" lon="-1.51629">
        <ele>54</ele>
        <time>2021-05-29T13:45:59.000Z</time>
      </trkpt>
      <trkpt lat="47.2174" lon="-1.51642">
        <ele>55</ele>
        <time>2021-05-29T13:46:01.000Z</time>
      </trkpt>
      <trkpt lat="47.21734" lon="-1.51655">
        <ele>55</ele>
        <time>2021-05-29T13:46:03.000Z</time>
      </trkpt>
      <trkpt lat="47.21728" lon="-1.51666">
        <ele>53</ele>
        <time>2021-05-29T13:46:05.000Z</time>
      </trkpt>
      <trkpt lat="47.21721" lon="-1.5168">
        <ele>53</ele>
        <time>2021-05-29T13:46:07.000Z</time>
      </trkpt>
      <trkpt lat="47.21712" lon="-1.51701">
        <ele>54</ele>
        <time>2021-05-29T13:46:10.000Z</time>
      </trkpt>
      <trkpt lat="47.21706" lon="-1.51714">
        <ele>54</ele>
        <time>2021-05-29T13:46:12.000Z</time>
      </trkpt>
      <trkpt lat="47.217" lon="-1.51726">
        <ele>55</ele>
        <time>2021-05-29T13:46:14.000Z</time>
      </trkpt>
      <trkpt lat="47.21694" lon="-1.51739">
        <ele>56</ele>
        <time>2021-05-29T13:46:16.000Z</time>
      </trkpt>
      <trkpt lat="47.21688" lon="-1.51755">
        <ele>56</ele>
        <time>2021-05-29T13:46:18.000Z</time>
      </trkpt>
      <trkpt lat="47.2168" lon="-1.51771">
        <ele>56</ele>
        <time>2021-05-29T13:46:20.000Z</time>
      </trkpt>
      <trkpt lat="47.21674" lon="-1.51786">
        <ele>55</ele>
        <time>2021-05-29T13:46:22.000Z</time>
      </trkpt>
      <trkpt lat="47.21668" lon="-1.51799">
        <ele>55</ele>
        <time>2021-05-29T13:46:24.000Z</time>
      </trkpt>
      <trkpt lat="47.21662" lon="-1.51814">
        <ele>53</ele>
        <time>2021-05-29T13:46:26.000Z</time>
      </trkpt>
      <trkpt lat="47.21659" lon="-1.5183">
        <ele>53</ele>
        <time>2021-05-29T13:46:28.000Z</time>
      </trkpt>
      <trkpt lat="47.21652" lon="-1.51853">
        <ele>54</ele>
        <time>2021-05-29T13:46:31.000Z</time>
      </trkpt>
      <trkpt lat="47.21647" lon="-1.51866">
        <ele>52</ele>
        <time>2021-05-29T13:46:33.000Z</time>
      </trkpt>
      <trkpt lat="47.21643" lon="-1.5188">
        <ele>53</ele>
        <time>2021-05-29T13:46:35.000Z</time>
      </trkpt>
      <trkpt lat="47.2164" lon="-1.51894">
        <ele>54</ele>
        <time>2021-05-29T13:46:37.000Z</time>
      </trkpt>
      <trkpt lat="47.21634" lon="-1.51906">
        <ele>56</ele>
        <time>2021-05-29T13:46:39.000Z</time>
      </trkpt>
      <trkpt lat="47.21628" lon="-1.51921">
        <ele>56</ele>
        <time>2021-05-29T13:46:41.000Z</time>
      </trkpt>
      <trkpt lat="47.21619" lon="-1.51938">
        <ele>53</ele>
        <time>2021-05-29T13:46:44.000Z</time>
      </trkpt>
      <trkpt lat="47.21616" lon="-1.5195">
        <ele>54</ele>
        <time>2021-05-29T13:46:46.000Z</time>
      </trkpt>
      <trkpt lat="47.21612" lon="-1.51975">
        <ele>54</ele>
        <time>2021-05-29T13:46:49.000Z</time>
      </trkpt>
      <trkpt lat="47.21607" lon="-1.51987">
        <ele>55</ele>
        <time>2021-05-29T13:46:51.000Z</time>
      </trkpt>
      <trkpt lat="47.21601" lon="-1.52001">
        <ele>55</ele>
        <time>2021-05-29T13:46:53.000Z</time>
      </trkpt>
      <trkpt lat="47.21596" lon="-1.52017">
        <ele>56</ele>
        <time>2021-05-29T13:46:55.000Z</time>
      </trkpt>
      <trkpt lat="47.21592" lon="-1.52033">
        <ele>58</ele>
        <time>2021-05-29T13:46:57.000Z</time>
      </trkpt>
      <trkpt lat="47.21587" lon="-1.5205">
        <ele>58</ele>
        <time>2021-05-29T13:46:59.000Z</time>
      </trkpt>
      <trkpt lat="47.21581" lon="-1.52067">
        <ele>58</ele>
        <time>2021-05-29T13:47:01.000Z</time>
      </trkpt>
      <trkpt lat="47.21576" lon="-1.52082">
        <ele>57</ele>
        <time>2021-05-29T13:47:03.000Z</time>
      </trkpt>
      <trkpt lat="47.2157" lon="-1.52098">
        <ele>57</ele>
        <time>2021-05-29T13:47:05.000Z</time>
      </trkpt>
      <trkpt lat="47.21565" lon="-1.52112">
        <ele>57</ele>
        <time>2021-05-29T13:47:07.000Z</time>
      </trkpt>
      <trkpt lat="47.2156" lon="-1.52127">
        <ele>57</ele>
        <time>2021-05-29T13:47:09.000Z</time>
      </trkpt>
      <trkpt lat="47.21556" lon="-1.52143">
        <ele>56</ele>
        <time>2021-05-29T13:47:11.000Z</time>
      </trkpt>
      <trkpt lat="47.2155" lon="-1.52159">
        <ele>56</ele>
        <time>2021-05-29T13:47:13.000Z</time>
      </trkpt>
      <trkpt lat="47.21546" lon="-1.52175">
        <ele>54</ele>
        <time>2021-05-29T13:47:15.000Z</time>
      </trkpt>
      <trkpt lat="47.21539" lon="-1.5219">
        <ele>53</ele>
        <time>2021-05-29T13:47:17.000Z</time>
      </trkpt>
      <trkpt lat="47.21535" lon="-1.52208">
        <ele>54</ele>
        <time>2021-05-29T13:47:19.000Z</time>
      </trkpt>
      <trkpt lat="47.21531" lon="-1.52225">
        <ele>52</ele>
        <time>2021-05-29T13:47:21.000Z</time>
      </trkpt>
      <trkpt lat="47.21526" lon="-1.52242">
        <ele>51</ele>
        <time>2021-05-29T13:47:23.000Z</time>
      </trkpt>
      <trkpt lat="47.2152" lon="-1.52259">
        <ele>52</ele>
        <time>2021-05-29T13:47:26.000Z</time>
      </trkpt>
      <trkpt lat="47.21514" lon="-1.52274">
        <ele>54</ele>
        <time>2021-05-29T13:47:28.000Z</time>
      </trkpt>
      <trkpt lat="47.21507" lon="-1.52299">
        <ele>55</ele>
        <time>2021-05-29T13:47:31.000Z</time>
      </trkpt>
      <trkpt lat="47.21501" lon="-1.52315">
        <ele>55</ele>
        <time>2021-05-29T13:47:33.000Z</time>
      </trkpt>
      <trkpt lat="47.21496" lon="-1.52331">
        <ele>55</ele>
        <time>2021-05-29T13:47:35.000Z</time>
      </trkpt>
      <trkpt lat="47.21492" lon="-1.52345">
        <ele>55</ele>
        <time>2021-05-29T13:47:37.000Z</time>
      </trkpt>
      <trkpt lat="47.21487" lon="-1.5236">
        <ele>56</ele>
        <time>2021-05-29T13:47:39.000Z</time>
      </trkpt>
      <trkpt lat="47.21478" lon="-1.52382">
        <ele>56</ele>
        <time>2021-05-29T13:47:42.000Z</time>
      </trkpt>
      <trkpt lat="47.21473" lon="-1.52397">
        <ele>55</ele>
        <time>2021-05-29T13:47:44.000Z</time>
      </trkpt>
      <trkpt lat="47.21469" lon="-1.52414">
        <ele>53</ele>
        <time>2021-05-29T13:47:46.000Z</time>
      </trkpt>
      <trkpt lat="47.21467" lon="-1.52429">
        <ele>51</ele>
        <time>2021-05-29T13:47:48.000Z</time>
      </trkpt>
      <trkpt lat="47.21461" lon="-1.52445">
        <ele>51</ele>
        <time>2021-05-29T13:47:50.000Z</time>
      </trkpt>
      <trkpt lat="47.21456" lon="-1.5246">
        <ele>52</ele>
        <time>2021-05-29T13:47:52.000Z</time>
      </trkpt>
      <trkpt lat="47.21452" lon="-1.52473">
        <ele>52</ele>
        <time>2021-05-29T13:47:54.000Z</time>
      </trkpt>
      <trkpt lat="47.21443" lon="-1.52496">
        <ele>52</ele>
        <time>2021-05-29T13:47:57.000Z</time>
      </trkpt>
      <trkpt lat="47.21438" lon="-1.52513">
        <ele>53</ele>
        <time>2021-05-29T13:47:59.000Z</time>
      </trkpt>
      <trkpt lat="47.21432" lon="-1.52528">
        <ele>54</ele>
        <time>2021-05-29T13:48:01.000Z</time>
      </trkpt>
      <trkpt lat="47.21427" lon="-1.52544">
        <ele>53</ele>
        <time>2021-05-29T13:48:03.000Z</time>
      </trkpt>
      <trkpt lat="47.21423" lon="-1.5256">
        <ele>53</ele>
        <time>2021-05-29T13:48:05.000Z</time>
      </trkpt>
      <trkpt lat="47.21418" lon="-1.52574">
        <ele>53</ele>
        <time>2021-05-29T13:48:07.000Z</time>
      </trkpt>
      <trkpt lat="47.2141" lon="-1.52591">
        <ele>51</ele>
        <time>2021-05-29T13:48:10.000Z</time>
      </trkpt>
      <trkpt lat="47.21405" lon="-1.52607">
        <ele>52</ele>
        <time>2021-05-29T13:48:12.000Z</time>
      </trkpt>
      <trkpt lat="47.214" lon="-1.52623">
        <ele>52</ele>
        <time>2021-05-29T13:48:14.000Z</time>
      </trkpt>
      <trkpt lat="47.21396" lon="-1.52638">
        <ele>52</ele>
        <time>2021-05-29T13:48:16.000Z</time>
      </trkpt>
      <trkpt lat="47.21391" lon="-1.52653">
        <ele>52</ele>
        <time>2021-05-29T13:48:18.000Z</time>
      </trkpt>
      <trkpt lat="47.21384" lon="-1.52672">
        <ele>52</ele>
        <time>2021-05-29T13:48:21.000Z</time>
      </trkpt>
      <trkpt lat="47.21379" lon="-1.52688">
        <ele>54</ele>
        <time>2021-05-29T13:48:23.000Z</time>
      </trkpt>
      <trkpt lat="47.21376" lon="-1.52705">
        <ele>55</ele>
        <time>2021-05-29T13:48:25.000Z</time>
      </trkpt>
      <trkpt lat="47.21372" lon="-1.52721">
        <ele>53</ele>
        <time>2021-05-29T13:48:28.000Z</time>
      </trkpt>
      <trkpt lat="47.21369" lon="-1.52735">
        <ele>55</ele>
        <time>2021-05-29T13:48:30.000Z</time>
      </trkpt>
      <trkpt lat="47.21366" lon="-1.52758">
        <ele>58</ele>
        <time>2021-05-29T13:48:32.000Z</time>
      </trkpt>
      <trkpt lat="47.21364" lon="-1.52778">
        <ele>58</ele>
        <time>2021-05-29T13:48:34.000Z</time>
      </trkpt>
      <trkpt lat="47.21362" lon="-1.52796">
        <ele>58</ele>
        <time>2021-05-29T13:48:36.000Z</time>
      </trkpt>
      <trkpt lat="47.21361" lon="-1.52812">
        <ele>58</ele>
        <time>2021-05-29T13:48:38.000Z</time>
      </trkpt>
      <trkpt lat="47.21359" lon="-1.52829">
        <ele>57</ele>
        <time>2021-05-29T13:48:40.000Z</time>
      </trkpt>
      <trkpt lat="47.21355" lon="-1.52844">
        <ele>57</ele>
        <time>2021-05-29T13:48:42.000Z</time>
      </trkpt>
      <trkpt lat="47.21351" lon="-1.5286">
        <ele>57</ele>
        <time>2021-05-29T13:48:44.000Z</time>
      </trkpt>
      <trkpt lat="47.21349" lon="-1.52877">
        <ele>57</ele>
        <time>2021-05-29T13:48:46.000Z</time>
      </trkpt>
      <trkpt lat="47.21346" lon="-1.52894">
        <ele>57</ele>
        <time>2021-05-29T13:48:48.000Z</time>
      </trkpt>
      <trkpt lat="47.21343" lon="-1.5291">
        <ele>56</ele>
        <time>2021-05-29T13:48:50.000Z</time>
      </trkpt>
      <trkpt lat="47.21341" lon="-1.52926">
        <ele>56</ele>
        <time>2021-05-29T13:48:52.000Z</time>
      </trkpt>
      <trkpt lat="47.21339" lon="-1.52942">
        <ele>56</ele>
        <time>2021-05-29T13:48:54.000Z</time>
      </trkpt>
      <trkpt lat="47.21338" lon="-1.52957">
        <ele>55</ele>
        <time>2021-05-29T13:48:56.000Z</time>
      </trkpt>
      <trkpt lat="47.21335" lon="-1.52972">
        <ele>56</ele>
        <time>2021-05-29T13:48:58.000Z</time>
      </trkpt>
      <trkpt lat="47.21333" lon="-1.52987">
        <ele>56</ele>
        <time>2021-05-29T13:49:00.000Z</time>
      </trkpt>
      <trkpt lat="47.21333" lon="-1.53005">
        <ele>56</ele>
        <time>2021-05-29T13:49:02.000Z</time>
      </trkpt>
      <trkpt lat="47.21332" lon="-1.53022">
        <ele>56</ele>
        <time>2021-05-29T13:49:04.000Z</time>
      </trkpt>
      <trkpt lat="47.2133" lon="-1.53039">
        <ele>56</ele>
        <time>2021-05-29T13:49:06.000Z</time>
      </trkpt>
      <trkpt lat="47.21329" lon="-1.53064">
        <ele>56</ele>
        <time>2021-05-29T13:49:09.000Z</time>
      </trkpt>
      <trkpt lat="47.21328" lon="-1.53081">
        <ele>56</ele>
        <time>2021-05-29T13:49:11.000Z</time>
      </trkpt>
      <trkpt lat="47.21327" lon="-1.53096">
        <ele>56</ele>
        <time>2021-05-29T13:49:13.000Z</time>
      </trkpt>
      <trkpt lat="47.21326" lon="-1.5311">
        <ele>55</ele>
        <time>2021-05-29T13:49:15.000Z</time>
      </trkpt>
      <trkpt lat="47.21323" lon="-1.53125">
        <ele>54</ele>
        <time>2021-05-29T13:49:17.000Z</time>
      </trkpt>
      <trkpt lat="47.21319" lon="-1.5314">
        <ele>55</ele>
        <time>2021-05-29T13:49:19.000Z</time>
      </trkpt>
      <trkpt lat="47.21316" lon="-1.53166">
        <ele>55</ele>
        <time>2021-05-29T13:49:22.000Z</time>
      </trkpt>
      <trkpt lat="47.21314" lon="-1.53182">
        <ele>55</ele>
        <time>2021-05-29T13:49:24.000Z</time>
      </trkpt>
      <trkpt lat="47.21312" lon="-1.53197">
        <ele>55</ele>
        <time>2021-05-29T13:49:26.000Z</time>
      </trkpt>
      <trkpt lat="47.2131" lon="-1.53214">
        <ele>55</ele>
        <time>2021-05-29T13:49:28.000Z</time>
      </trkpt>
      <trkpt lat="47.21309" lon="-1.53231">
        <ele>55</ele>
        <time>2021-05-29T13:49:30.000Z</time>
      </trkpt>
      <trkpt lat="47.21308" lon="-1.53247">
        <ele>55</ele>
        <time>2021-05-29T13:49:32.000Z</time>
      </trkpt>
      <trkpt lat="47.21306" lon="-1.53266">
        <ele>53</ele>
        <time>2021-05-29T13:49:35.000Z</time>
      </trkpt>
      <trkpt lat="47.21307" lon="-1.53285">
        <ele>54</ele>
        <time>2021-05-29T13:49:37.000Z</time>
      </trkpt>
      <trkpt lat="47.21308" lon="-1.53302">
        <ele>55</ele>
        <time>2021-05-29T13:49:39.000Z</time>
      </trkpt>
      <trkpt lat="47.21307" lon="-1.53319">
        <ele>55</ele>
        <time>2021-05-29T13:49:41.000Z</time>
      </trkpt>
      <trkpt lat="47.21303" lon="-1.53344">
        <ele>55</ele>
        <time>2021-05-29T13:49:44.000Z</time>
      </trkpt>
      <trkpt lat="47.213" lon="-1.5336">
        <ele>56</ele>
        <time>2021-05-29T13:49:46.000Z</time>
      </trkpt>
      <trkpt lat="47.21296" lon="-1.53377">
        <ele>55</ele>
        <time>2021-05-29T13:49:48.000Z</time>
      </trkpt>
      <trkpt lat="47.21294" lon="-1.53393">
        <ele>55</ele>
        <time>2021-05-29T13:49:50.000Z</time>
      </trkpt>
      <trkpt lat="47.21293" lon="-1.53409">
        <ele>55</ele>
        <time>2021-05-29T13:49:52.000Z</time>
      </trkpt>
      <trkpt lat="47.21291" lon="-1.53426">
        <ele>55</ele>
        <time>2021-05-29T13:49:54.000Z</time>
      </trkpt>
      <trkpt lat="47.21289" lon="-1.53441">
        <ele>55</ele>
        <time>2021-05-29T13:49:56.000Z</time>
      </trkpt>
      <trkpt lat="47.21294" lon="-1.53467">
        <ele>56</ele>
        <time>2021-05-29T13:50:00.000Z</time>
      </trkpt>
      <trkpt lat="47.21297" lon="-1.53484">
        <ele>53</ele>
        <time>2021-05-29T13:50:02.000Z</time>
      </trkpt>
      <trkpt lat="47.21299" lon="-1.535">
        <ele>51</ele>
        <time>2021-05-29T13:50:04.000Z</time>
      </trkpt>
      <trkpt lat="47.213" lon="-1.53521">
        <ele>51</ele>
        <time>2021-05-29T13:50:07.000Z</time>
      </trkpt>
      <trkpt lat="47.21301" lon="-1.53534">
        <ele>52</ele>
        <time>2021-05-29T13:50:09.000Z</time>
      </trkpt>
      <trkpt lat="47.21302" lon="-1.5355">
        <ele>53</ele>
        <time>2021-05-29T13:50:11.000Z</time>
      </trkpt>
      <trkpt lat="47.21303" lon="-1.53563">
        <ele>51</ele>
        <time>2021-05-29T13:50:13.000Z</time>
      </trkpt>
      <trkpt lat="47.21303" lon="-1.53581">
        <ele>53</ele>
        <time>2021-05-29T13:50:15.000Z</time>
      </trkpt>
      <trkpt lat="47.21303" lon="-1.53602">
        <ele>54</ele>
        <time>2021-05-29T13:50:18.000Z</time>
      </trkpt>
      <trkpt lat="47.21303" lon="-1.53623">
        <ele>55</ele>
        <time>2021-05-29T13:50:21.000Z</time>
      </trkpt>
      <trkpt lat="47.21297" lon="-1.53638">
        <ele>56</ele>
        <time>2021-05-29T13:50:25.000Z</time>
      </trkpt>
      <trkpt lat="47.21294" lon="-1.53654">
        <ele>52</ele>
        <time>2021-05-29T13:50:29.000Z</time>
      </trkpt>
      <trkpt lat="47.21278" lon="-1.53656">
        <ele>52</ele>
        <time>2021-05-29T13:50:33.000Z</time>
      </trkpt>
      <trkpt lat="47.21266" lon="-1.53654">
        <ele>50</ele>
        <time>2021-05-29T13:50:35.000Z</time>
      </trkpt>
      <trkpt lat="47.21252" lon="-1.53654">
        <ele>53</ele>
        <time>2021-05-29T13:50:39.000Z</time>
      </trkpt>
      <trkpt lat="47.21243" lon="-1.53645">
        <ele>57</ele>
        <time>2021-05-29T13:50:43.000Z</time>
      </trkpt>
      <trkpt lat="47.21233" lon="-1.53635">
        <ele>57</ele>
        <time>2021-05-29T13:50:45.000Z</time>
      </trkpt>
      <trkpt lat="47.21223" lon="-1.53628">
        <ele>58</ele>
        <time>2021-05-29T13:50:47.000Z</time>
      </trkpt>
      <trkpt lat="47.21204" lon="-1.53618">
        <ele>59</ele>
        <time>2021-05-29T13:50:51.000Z</time>
      </trkpt>
      <trkpt lat="47.21192" lon="-1.53612">
        <ele>60</ele>
        <time>2021-05-29T13:50:53.000Z</time>
      </trkpt>
      <trkpt lat="47.21178" lon="-1.53606">
        <ele>59</ele>
        <time>2021-05-29T13:50:56.000Z</time>
      </trkpt>
      <trkpt lat="47.21169" lon="-1.53603">
        <ele>58</ele>
        <time>2021-05-29T13:50:58.000Z</time>
      </trkpt>
      <trkpt lat="47.21157" lon="-1.53599">
        <ele>58</ele>
        <time>2021-05-29T13:51:01.000Z</time>
      </trkpt>
      <trkpt lat="47.21149" lon="-1.53593">
        <ele>58</ele>
        <time>2021-05-29T13:51:03.000Z</time>
      </trkpt>
      <trkpt lat="47.21138" lon="-1.53589">
        <ele>58</ele>
        <time>2021-05-29T13:51:05.000Z</time>
      </trkpt>
      <trkpt lat="47.21128" lon="-1.53585">
        <ele>59</ele>
        <time>2021-05-29T13:51:07.000Z</time>
      </trkpt>
      <trkpt lat="47.21115" lon="-1.53577">
        <ele>58</ele>
        <time>2021-05-29T13:51:10.000Z</time>
      </trkpt>
      <trkpt lat="47.21106" lon="-1.53573">
        <ele>58</ele>
        <time>2021-05-29T13:51:12.000Z</time>
      </trkpt>
      <trkpt lat="47.21097" lon="-1.53568">
        <ele>57</ele>
        <time>2021-05-29T13:51:14.000Z</time>
      </trkpt>
      <trkpt lat="47.21087" lon="-1.53563">
        <ele>57</ele>
        <time>2021-05-29T13:51:16.000Z</time>
      </trkpt>
      <trkpt lat="47.21077" lon="-1.53558">
        <ele>57</ele>
        <time>2021-05-29T13:51:18.000Z</time>
      </trkpt>
      <trkpt lat="47.21066" lon="-1.53562">
        <ele>57</ele>
        <time>2021-05-29T13:51:20.000Z</time>
      </trkpt>
      <trkpt lat="47.21057" lon="-1.53574">
        <ele>53</ele>
        <time>2021-05-29T13:51:22.000Z</time>
      </trkpt>
      <trkpt lat="47.21052" lon="-1.53587">
        <ele>53</ele>
        <time>2021-05-29T13:51:24.000Z</time>
      </trkpt>
      <trkpt lat="47.21053" lon="-1.53608">
        <ele>56</ele>
        <time>2021-05-29T13:51:26.000Z</time>
      </trkpt>
      <trkpt lat="47.21052" lon="-1.53624">
        <ele>57</ele>
        <time>2021-05-29T13:51:28.000Z</time>
      </trkpt>
      <trkpt lat="47.21051" lon="-1.53641">
        <ele>58</ele>
        <time>2021-05-29T13:51:30.000Z</time>
      </trkpt>
      <trkpt lat="47.2105" lon="-1.53658">
        <ele>58</ele>
        <time>2021-05-29T13:51:32.000Z</time>
      </trkpt>
      <trkpt lat="47.21048" lon="-1.53674">
        <ele>58</ele>
        <time>2021-05-29T13:51:34.000Z</time>
      </trkpt>
      <trkpt lat="47.21045" lon="-1.5369">
        <ele>58</ele>
        <time>2021-05-29T13:51:36.000Z</time>
      </trkpt>
      <trkpt lat="47.21042" lon="-1.53704">
        <ele>58</ele>
        <time>2021-05-29T13:51:38.000Z</time>
      </trkpt>
      <trkpt lat="47.2104" lon="-1.53722">
        <ele>58</ele>
        <time>2021-05-29T13:51:40.000Z</time>
      </trkpt>
      <trkpt lat="47.21037" lon="-1.53739">
        <ele>57</ele>
        <time>2021-05-29T13:51:42.000Z</time>
      </trkpt>
      <trkpt lat="47.21034" lon="-1.53754">
        <ele>57</ele>
        <time>2021-05-29T13:51:44.000Z</time>
      </trkpt>
      <trkpt lat="47.21031" lon="-1.53769">
        <ele>57</ele>
        <time>2021-05-29T13:51:46.000Z</time>
      </trkpt>
      <trkpt lat="47.21027" lon="-1.53784">
        <ele>58</ele>
        <time>2021-05-29T13:51:48.000Z</time>
      </trkpt>
      <trkpt lat="47.21023" lon="-1.53796">
        <ele>57</ele>
        <time>2021-05-29T13:51:50.000Z</time>
      </trkpt>
      <trkpt lat="47.21023" lon="-1.53811">
        <ele>57</ele>
        <time>2021-05-29T13:51:52.000Z</time>
      </trkpt>
      <trkpt lat="47.21021" lon="-1.53828">
        <ele>56</ele>
        <time>2021-05-29T13:51:54.000Z</time>
      </trkpt>
      <trkpt lat="47.21014" lon="-1.53853">
        <ele>56</ele>
        <time>2021-05-29T13:51:57.000Z</time>
      </trkpt>
      <trkpt lat="47.21007" lon="-1.53868">
        <ele>56</ele>
        <time>2021-05-29T13:51:59.000Z</time>
      </trkpt>
      <trkpt lat="47.21003" lon="-1.53883">
        <ele>56</ele>
        <time>2021-05-29T13:52:01.000Z</time>
      </trkpt>
      <trkpt lat="47.21002" lon="-1.53901">
        <ele>56</ele>
        <time>2021-05-29T13:52:04.000Z</time>
      </trkpt>
      <trkpt lat="47.20998" lon="-1.53919">
        <ele>57</ele>
        <time>2021-05-29T13:52:06.000Z</time>
      </trkpt>
      <trkpt lat="47.20993" lon="-1.53934">
        <ele>57</ele>
        <time>2021-05-29T13:52:08.000Z</time>
      </trkpt>
      <trkpt lat="47.20988" lon="-1.5395">
        <ele>57</ele>
        <time>2021-05-29T13:52:10.000Z</time>
      </trkpt>
      <trkpt lat="47.20983" lon="-1.53966">
        <ele>58</ele>
        <time>2021-05-29T13:52:12.000Z</time>
      </trkpt>
      <trkpt lat="47.20982" lon="-1.53979">
        <ele>59</ele>
        <time>2021-05-29T13:52:14.000Z</time>
      </trkpt>
      <trkpt lat="47.20978" lon="-1.53995">
        <ele>59</ele>
        <time>2021-05-29T13:52:16.000Z</time>
      </trkpt>
      <trkpt lat="47.20974" lon="-1.54009">
        <ele>59</ele>
        <time>2021-05-29T13:52:18.000Z</time>
      </trkpt>
      <trkpt lat="47.2097" lon="-1.54024">
        <ele>59</ele>
        <time>2021-05-29T13:52:20.000Z</time>
      </trkpt>
      <trkpt lat="47.20964" lon="-1.5405">
        <ele>57</ele>
        <time>2021-05-29T13:52:23.000Z</time>
      </trkpt>
      <trkpt lat="47.2096" lon="-1.54068">
        <ele>58</ele>
        <time>2021-05-29T13:52:25.000Z</time>
      </trkpt>
      <trkpt lat="47.20954" lon="-1.54082">
        <ele>59</ele>
        <time>2021-05-29T13:52:27.000Z</time>
      </trkpt>
      <trkpt lat="47.20948" lon="-1.54097">
        <ele>60</ele>
        <time>2021-05-29T13:52:29.000Z</time>
      </trkpt>
      <trkpt lat="47.2094" lon="-1.5411">
        <ele>60</ele>
        <time>2021-05-29T13:52:31.000Z</time>
      </trkpt>
      <trkpt lat="47.20936" lon="-1.54126">
        <ele>61</ele>
        <time>2021-05-29T13:52:33.000Z</time>
      </trkpt>
      <trkpt lat="47.20937" lon="-1.54151">
        <ele>59</ele>
        <time>2021-05-29T13:52:35.000Z</time>
      </trkpt>
      <trkpt lat="47.20931" lon="-1.54166">
        <ele>59</ele>
        <time>2021-05-29T13:52:37.000Z</time>
      </trkpt>
      <trkpt lat="47.20922" lon="-1.54184">
        <ele>62</ele>
        <time>2021-05-29T13:52:40.000Z</time>
      </trkpt>
      <trkpt lat="47.20916" lon="-1.54197">
        <ele>63</ele>
        <time>2021-05-29T13:52:42.000Z</time>
      </trkpt>
      <trkpt lat="47.20912" lon="-1.54209">
        <ele>63</ele>
        <time>2021-05-29T13:52:44.000Z</time>
      </trkpt>
      <trkpt lat="47.20902" lon="-1.54234">
        <ele>64</ele>
        <time>2021-05-29T13:52:48.000Z</time>
      </trkpt>
      <trkpt lat="47.20897" lon="-1.54251">
        <ele>63</ele>
        <time>2021-05-29T13:52:50.000Z</time>
      </trkpt>
      <trkpt lat="47.20892" lon="-1.54267">
        <ele>61</ele>
        <time>2021-05-29T13:52:52.000Z</time>
      </trkpt>
      <trkpt lat="47.20886" lon="-1.54284">
        <ele>60</ele>
        <time>2021-05-29T13:52:54.000Z</time>
      </trkpt>
      <trkpt lat="47.2088" lon="-1.54299">
        <ele>59</ele>
        <time>2021-05-29T13:52:56.000Z</time>
      </trkpt>
      <trkpt lat="47.20874" lon="-1.54315">
        <ele>55</ele>
        <time>2021-05-29T13:52:58.000Z</time>
      </trkpt>
      <trkpt lat="47.2087" lon="-1.54329">
        <ele>55</ele>
        <time>2021-05-29T13:53:00.000Z</time>
      </trkpt>
      <trkpt lat="47.20863" lon="-1.54347">
        <ele>61</ele>
        <time>2021-05-29T13:53:03.000Z</time>
      </trkpt>
      <trkpt lat="47.2086" lon="-1.54361">
        <ele>62</ele>
        <time>2021-05-29T13:53:05.000Z</time>
      </trkpt>
      <trkpt lat="47.20853" lon="-1.54376">
        <ele>61</ele>
        <time>2021-05-29T13:53:07.000Z</time>
      </trkpt>
      <trkpt lat="47.20846" lon="-1.54397">
        <ele>63</ele>
        <time>2021-05-29T13:53:10.000Z</time>
      </trkpt>
      <trkpt lat="47.20841" lon="-1.54413">
        <ele>63</ele>
        <time>2021-05-29T13:53:12.000Z</time>
      </trkpt>
      <trkpt lat="47.20835" lon="-1.54429">
        <ele>56</ele>
        <time>2021-05-29T13:53:15.000Z</time>
      </trkpt>
      <trkpt lat="47.20829" lon="-1.54448">
        <ele>58</ele>
        <time>2021-05-29T13:53:17.000Z</time>
      </trkpt>
      <trkpt lat="47.20825" lon="-1.54464">
        <ele>58</ele>
        <time>2021-05-29T13:53:19.000Z</time>
      </trkpt>
      <trkpt lat="47.20821" lon="-1.54481">
        <ele>58</ele>
        <time>2021-05-29T13:53:21.000Z</time>
      </trkpt>
      <trkpt lat="47.20817" lon="-1.54497">
        <ele>58</ele>
        <time>2021-05-29T13:53:23.000Z</time>
      </trkpt>
      <trkpt lat="47.20812" lon="-1.54512">
        <ele>57</ele>
        <time>2021-05-29T13:53:25.000Z</time>
      </trkpt>
      <trkpt lat="47.20807" lon="-1.54527">
        <ele>57</ele>
        <time>2021-05-29T13:53:27.000Z</time>
      </trkpt>
      <trkpt lat="47.20803" lon="-1.54542">
        <ele>57</ele>
        <time>2021-05-29T13:53:29.000Z</time>
      </trkpt>
      <trkpt lat="47.20799" lon="-1.54557">
        <ele>57</ele>
        <time>2021-05-29T13:53:31.000Z</time>
      </trkpt>
      <trkpt lat="47.20794" lon="-1.54571">
        <ele>57</ele>
        <time>2021-05-29T13:53:33.000Z</time>
      </trkpt>
      <trkpt lat="47.2079" lon="-1.54586">
        <ele>56</ele>
        <time>2021-05-29T13:53:35.000Z</time>
      </trkpt>
      <trkpt lat="47.20784" lon="-1.54601">
        <ele>56</ele>
        <time>2021-05-29T13:53:37.000Z</time>
      </trkpt>
      <trkpt lat="47.2078" lon="-1.54613">
        <ele>57</ele>
        <time>2021-05-29T13:53:39.000Z</time>
      </trkpt>
      <trkpt lat="47.20776" lon="-1.54627">
        <ele>57</ele>
        <time>2021-05-29T13:53:41.000Z</time>
      </trkpt>
      <trkpt lat="47.2077" lon="-1.54649">
        <ele>56</ele>
        <time>2021-05-29T13:53:44.000Z</time>
      </trkpt>
      <trkpt lat="47.20765" lon="-1.54663">
        <ele>55</ele>
        <time>2021-05-29T13:53:46.000Z</time>
      </trkpt>
      <trkpt lat="47.20761" lon="-1.54677">
        <ele>55</ele>
        <time>2021-05-29T13:53:48.000Z</time>
      </trkpt>
      <trkpt lat="47.20751" lon="-1.54692">
        <ele>48</ele>
        <time>2021-05-29T13:53:51.000Z</time>
      </trkpt>
      <trkpt lat="47.20746" lon="-1.54706">
        <ele>51</ele>
        <time>2021-05-29T13:53:53.000Z</time>
      </trkpt>
      <trkpt lat="47.20744" lon="-1.5472">
        <ele>50</ele>
        <time>2021-05-29T13:53:56.000Z</time>
      </trkpt>
      <trkpt lat="47.20739" lon="-1.54741">
        <ele>56</ele>
        <time>2021-05-29T13:53:59.000Z</time>
      </trkpt>
      <trkpt lat="47.20735" lon="-1.54753">
        <ele>61</ele>
        <time>2021-05-29T13:54:01.000Z</time>
      </trkpt>
      <trkpt lat="47.20729" lon="-1.54768">
        <ele>63</ele>
        <time>2021-05-29T13:54:03.000Z</time>
      </trkpt>
      <trkpt lat="47.20725" lon="-1.54782">
        <ele>64</ele>
        <time>2021-05-29T13:54:05.000Z</time>
      </trkpt>
      <trkpt lat="47.20721" lon="-1.54803">
        <ele>63</ele>
        <time>2021-05-29T13:54:08.000Z</time>
      </trkpt>
      <trkpt lat="47.20717" lon="-1.54823">
        <ele>62</ele>
        <time>2021-05-29T13:54:11.000Z</time>
      </trkpt>
      <trkpt lat="47.20725" lon="-1.54815">
        <ele>73</ele>
        <time>2021-05-29T13:54:15.000Z</time>
      </trkpt>
      <trkpt lat="47.20714" lon="-1.54833">
        <ele>68</ele>
        <time>2021-05-29T13:54:16.000Z</time>
      </trkpt>
      <trkpt lat="47.20713" lon="-1.5485">
        <ele>60</ele>
        <time>2021-05-29T13:54:27.000Z</time>
      </trkpt>
      <trkpt lat="47.2071" lon="-1.54862">
        <ele>61</ele>
        <time>2021-05-29T13:54:30.000Z</time>
      </trkpt>
      <trkpt lat="47.20703" lon="-1.54872">
        <ele>57</ele>
        <time>2021-05-29T13:54:34.000Z</time>
      </trkpt>
      <trkpt lat="47.20688" lon="-1.54869">
        <ele>57</ele>
        <time>2021-05-29T13:54:39.000Z</time>
      </trkpt>
      <trkpt lat="47.2068" lon="-1.54862">
        <ele>58</ele>
        <time>2021-05-29T13:54:41.000Z</time>
      </trkpt>
      <trkpt lat="47.20672" lon="-1.54855">
        <ele>58</ele>
        <time>2021-05-29T13:54:43.000Z</time>
      </trkpt>
      <trkpt lat="47.20664" lon="-1.54848">
        <ele>58</ele>
        <time>2021-05-29T13:54:45.000Z</time>
      </trkpt>
      <trkpt lat="47.20656" lon="-1.54841">
        <ele>59</ele>
        <time>2021-05-29T13:54:47.000Z</time>
      </trkpt>
      <trkpt lat="47.20645" lon="-1.54831">
        <ele>60</ele>
        <time>2021-05-29T13:54:50.000Z</time>
      </trkpt>
      <trkpt lat="47.20633" lon="-1.54822">
        <ele>60</ele>
        <time>2021-05-29T13:54:53.000Z</time>
      </trkpt>
      <trkpt lat="47.20625" lon="-1.54813">
        <ele>61</ele>
        <time>2021-05-29T13:54:56.000Z</time>
      </trkpt>
      <trkpt lat="47.20616" lon="-1.54806">
        <ele>60</ele>
        <time>2021-05-29T13:54:59.000Z</time>
      </trkpt>
      <trkpt lat="47.20608" lon="-1.54798">
        <ele>60</ele>
        <time>2021-05-29T13:55:05.000Z</time>
      </trkpt>
      <trkpt lat="47.20591" lon="-1.54782">
        <ele>61</ele>
        <time>2021-05-29T13:55:10.000Z</time>
      </trkpt>
      <trkpt lat="47.20579" lon="-1.5478">
        <ele>61</ele>
        <time>2021-05-29T13:55:12.000Z</time>
      </trkpt>
      <trkpt lat="47.20569" lon="-1.54776">
        <ele>63</ele>
        <time>2021-05-29T13:55:14.000Z</time>
      </trkpt>
      <trkpt lat="47.2055" lon="-1.54773">
        <ele>64</ele>
        <time>2021-05-29T13:55:18.000Z</time>
      </trkpt>
      <trkpt lat="47.20539" lon="-1.54765">
        <ele>65</ele>
        <time>2021-05-29T13:55:21.000Z</time>
      </trkpt>
      <trkpt lat="47.20524" lon="-1.54763">
        <ele>68</ele>
        <time>2021-05-29T13:55:24.000Z</time>
      </trkpt>
      <trkpt lat="47.20519" lon="-1.54775">
        <ele>68</ele>
        <time>2021-05-29T13:55:26.000Z</time>
      </trkpt>
      <trkpt lat="47.20514" lon="-1.54797">
        <ele>65</ele>
        <time>2021-05-29T13:55:29.000Z</time>
      </trkpt>
      <trkpt lat="47.20509" lon="-1.5482">
        <ele>63</ele>
        <time>2021-05-29T13:55:32.000Z</time>
      </trkpt>
      <trkpt lat="47.20505" lon="-1.54834">
        <ele>62</ele>
        <time>2021-05-29T13:55:34.000Z</time>
      </trkpt>
      <trkpt lat="47.205" lon="-1.5486">
        <ele>58</ele>
        <time>2021-05-29T13:55:37.000Z</time>
      </trkpt>
      <trkpt lat="47.20495" lon="-1.54874">
        <ele>58</ele>
        <time>2021-05-29T13:55:39.000Z</time>
      </trkpt>
      <trkpt lat="47.20491" lon="-1.54886">
        <ele>60</ele>
        <time>2021-05-29T13:55:41.000Z</time>
      </trkpt>
      <trkpt lat="47.20488" lon="-1.54899">
        <ele>60</ele>
        <time>2021-05-29T13:55:43.000Z</time>
      </trkpt>
      <trkpt lat="47.20484" lon="-1.54913">
        <ele>60</ele>
        <time>2021-05-29T13:55:45.000Z</time>
      </trkpt>
      <trkpt lat="47.20478" lon="-1.54937">
        <ele>58</ele>
        <time>2021-05-29T13:55:49.000Z</time>
      </trkpt>
      <trkpt lat="47.20475" lon="-1.54954">
        <ele>58</ele>
        <time>2021-05-29T13:55:51.000Z</time>
      </trkpt>
      <trkpt lat="47.20472" lon="-1.54969">
        <ele>58</ele>
        <time>2021-05-29T13:55:53.000Z</time>
      </trkpt>
      <trkpt lat="47.20465" lon="-1.54981">
        <ele>57</ele>
        <time>2021-05-29T13:55:55.000Z</time>
      </trkpt>
      <trkpt lat="47.2046" lon="-1.54993">
        <ele>57</ele>
        <time>2021-05-29T13:55:57.000Z</time>
      </trkpt>
      <trkpt lat="47.20454" lon="-1.55023">
        <ele>60</ele>
        <time>2021-05-29T13:56:01.000Z</time>
      </trkpt>
      <trkpt lat="47.20446" lon="-1.55043">
        <ele>60</ele>
        <time>2021-05-29T13:56:04.000Z</time>
      </trkpt>
      <trkpt lat="47.20441" lon="-1.55057">
        <ele>59</ele>
        <time>2021-05-29T13:56:06.000Z</time>
      </trkpt>
      <trkpt lat="47.2043" lon="-1.55081">
        <ele>56</ele>
        <time>2021-05-29T13:56:10.000Z</time>
      </trkpt>
      <trkpt lat="47.20425" lon="-1.55094">
        <ele>57</ele>
        <time>2021-05-29T13:56:12.000Z</time>
      </trkpt>
      <trkpt lat="47.20419" lon="-1.55107">
        <ele>58</ele>
        <time>2021-05-29T13:56:14.000Z</time>
      </trkpt>
      <trkpt lat="47.20415" lon="-1.55122">
        <ele>57</ele>
        <time>2021-05-29T13:56:16.000Z</time>
      </trkpt>
      <trkpt lat="47.20412" lon="-1.55135">
        <ele>57</ele>
        <time>2021-05-29T13:56:18.000Z</time>
      </trkpt>
      <trkpt lat="47.20406" lon="-1.55151">
        <ele>56</ele>
        <time>2021-05-29T13:56:21.000Z</time>
      </trkpt>
      <trkpt lat="47.20399" lon="-1.55167">
        <ele>56</ele>
        <time>2021-05-29T13:56:24.000Z</time>
      </trkpt>
      <trkpt lat="47.20392" lon="-1.55176">
        <ele>56</ele>
        <time>2021-05-29T13:56:26.000Z</time>
      </trkpt>
      <trkpt lat="47.20381" lon="-1.55182">
        <ele>55</ele>
        <time>2021-05-29T13:56:28.000Z</time>
      </trkpt>
      <trkpt lat="47.20372" lon="-1.55191">
        <ele>55</ele>
        <time>2021-05-29T13:56:30.000Z</time>
      </trkpt>
      <trkpt lat="47.20359" lon="-1.55205">
        <ele>57</ele>
        <time>2021-05-29T13:56:33.000Z</time>
      </trkpt>
      <trkpt lat="47.2035" lon="-1.55216">
        <ele>58</ele>
        <time>2021-05-29T13:56:35.000Z</time>
      </trkpt>
      <trkpt lat="47.2034" lon="-1.5523">
        <ele>58</ele>
        <time>2021-05-29T13:56:37.000Z</time>
      </trkpt>
      <trkpt lat="47.20327" lon="-1.55247">
        <ele>58</ele>
        <time>2021-05-29T13:56:40.000Z</time>
      </trkpt>
      <trkpt lat="47.20319" lon="-1.5526">
        <ele>59</ele>
        <time>2021-05-29T13:56:43.000Z</time>
      </trkpt>
      <trkpt lat="47.20309" lon="-1.55271">
        <ele>60</ele>
        <time>2021-05-29T13:56:45.000Z</time>
      </trkpt>
      <trkpt lat="47.20302" lon="-1.55281">
        <ele>60</ele>
        <time>2021-05-29T13:56:47.000Z</time>
      </trkpt>
      <trkpt lat="47.20295" lon="-1.55291">
        <ele>60</ele>
        <time>2021-05-29T13:56:49.000Z</time>
      </trkpt>
      <trkpt lat="47.20285" lon="-1.55304">
        <ele>56</ele>
        <time>2021-05-29T13:56:52.000Z</time>
      </trkpt>
      <trkpt lat="47.20278" lon="-1.55314">
        <ele>59</ele>
        <time>2021-05-29T13:56:54.000Z</time>
      </trkpt>
      <trkpt lat="47.20268" lon="-1.55324">
        <ele>59</ele>
        <time>2021-05-29T13:56:56.000Z</time>
      </trkpt>
      <trkpt lat="47.2026" lon="-1.55336">
        <ele>60</ele>
        <time>2021-05-29T13:56:58.000Z</time>
      </trkpt>
      <trkpt lat="47.20252" lon="-1.55347">
        <ele>58</ele>
        <time>2021-05-29T13:57:00.000Z</time>
      </trkpt>
      <trkpt lat="47.20245" lon="-1.55356">
        <ele>59</ele>
        <time>2021-05-29T13:57:02.000Z</time>
      </trkpt>
      <trkpt lat="47.20237" lon="-1.55367">
        <ele>60</ele>
        <time>2021-05-29T13:57:04.000Z</time>
      </trkpt>
      <trkpt lat="47.20229" lon="-1.55377">
        <ele>60</ele>
        <time>2021-05-29T13:57:06.000Z</time>
      </trkpt>
      <trkpt lat="47.20221" lon="-1.55387">
        <ele>60</ele>
        <time>2021-05-29T13:57:08.000Z</time>
      </trkpt>
      <trkpt lat="47.20209" lon="-1.55402">
        <ele>60</ele>
        <time>2021-05-29T13:57:11.000Z</time>
      </trkpt>
      <trkpt lat="47.20202" lon="-1.55412">
        <ele>60</ele>
        <time>2021-05-29T13:57:13.000Z</time>
      </trkpt>
      <trkpt lat="47.20195" lon="-1.55427">
        <ele>60</ele>
        <time>2021-05-29T13:57:16.000Z</time>
      </trkpt>
      <trkpt lat="47.20189" lon="-1.5544">
        <ele>59</ele>
        <time>2021-05-29T13:57:18.000Z</time>
      </trkpt>
      <trkpt lat="47.20185" lon="-1.55453">
        <ele>59</ele>
        <time>2021-05-29T13:57:20.000Z</time>
      </trkpt>
      <trkpt lat="47.20181" lon="-1.55467">
        <ele>58</ele>
        <time>2021-05-29T13:57:22.000Z</time>
      </trkpt>
      <trkpt lat="47.20178" lon="-1.5548">
        <ele>57</ele>
        <time>2021-05-29T13:57:24.000Z</time>
      </trkpt>
      <trkpt lat="47.20177" lon="-1.55498">
        <ele>56</ele>
        <time>2021-05-29T13:57:27.000Z</time>
      </trkpt>
      <trkpt lat="47.20182" lon="-1.55521">
        <ele>55</ele>
        <time>2021-05-29T13:57:31.000Z</time>
      </trkpt>
      <trkpt lat="47.20194" lon="-1.55535">
        <ele>54</ele>
        <time>2021-05-29T13:57:36.000Z</time>
      </trkpt>
      <trkpt lat="47.20204" lon="-1.55538">
        <ele>55</ele>
        <time>2021-05-29T14:00:09.000Z</time>
      </trkpt>
      <trkpt lat="47.20214" lon="-1.55544">
        <ele>56</ele>
        <time>2021-05-29T14:00:12.000Z</time>
      </trkpt>
      <trkpt lat="47.20224" lon="-1.55548">
        <ele>56</ele>
        <time>2021-05-29T14:00:15.000Z</time>
      </trkpt>
      <trkpt lat="47.20235" lon="-1.55554">
        <ele>56</ele>
        <time>2021-05-29T14:00:18.000Z</time>
      </trkpt>
      <trkpt lat="47.20246" lon="-1.55559">
        <ele>56</ele>
        <time>2021-05-29T14:00:21.000Z</time>
      </trkpt>
      <trkpt lat="47.20255" lon="-1.55559">
        <ele>55</ele>
        <time>2021-05-29T14:00:25.000Z</time>
      </trkpt>
      <trkpt lat="47.20266" lon="-1.55566">
        <ele>56</ele>
        <time>2021-05-29T14:00:28.000Z</time>
      </trkpt>
      <trkpt lat="47.2028" lon="-1.5557">
        <ele>58</ele>
        <time>2021-05-29T14:00:31.000Z</time>
      </trkpt>
      <trkpt lat="47.20289" lon="-1.55579">
        <ele>59</ele>
        <time>2021-05-29T14:00:35.000Z</time>
      </trkpt>
      <trkpt lat="47.20295" lon="-1.55592">
        <ele>59</ele>
        <time>2021-05-29T14:00:38.000Z</time>
      </trkpt>
      <trkpt lat="47.20296" lon="-1.55605">
        <ele>56</ele>
        <time>2021-05-29T14:00:40.000Z</time>
      </trkpt>
      <trkpt lat="47.20294" lon="-1.55625">
        <ele>52</ele>
        <time>2021-05-29T14:00:43.000Z</time>
      </trkpt>
      <trkpt lat="47.20292" lon="-1.55645">
        <ele>53</ele>
        <time>2021-05-29T14:00:46.000Z</time>
      </trkpt>
      <trkpt lat="47.20292" lon="-1.55665">
        <ele>52</ele>
        <time>2021-05-29T14:00:49.000Z</time>
      </trkpt>
      <trkpt lat="47.20292" lon="-1.55679">
        <ele>52</ele>
        <time>2021-05-29T14:00:51.000Z</time>
      </trkpt>
      <trkpt lat="47.2029" lon="-1.55693">
        <ele>52</ele>
        <time>2021-05-29T14:00:53.000Z</time>
      </trkpt>
      <trkpt lat="47.20287" lon="-1.55715">
        <ele>50</ele>
        <time>2021-05-29T14:00:56.000Z</time>
      </trkpt>
      <trkpt lat="47.20285" lon="-1.55736">
        <ele>50</ele>
        <time>2021-05-29T14:00:59.000Z</time>
      </trkpt>
      <trkpt lat="47.20283" lon="-1.5575">
        <ele>48</ele>
        <time>2021-05-29T14:01:01.000Z</time>
      </trkpt>
      <trkpt lat="47.20281" lon="-1.5577">
        <ele>50</ele>
        <time>2021-05-29T14:01:04.000Z</time>
      </trkpt>
      <trkpt lat="47.20278" lon="-1.5579">
        <ele>51</ele>
        <time>2021-05-29T14:01:07.000Z</time>
      </trkpt>
      <trkpt lat="47.20277" lon="-1.55816">
        <ele>52</ele>
        <time>2021-05-29T14:01:11.000Z</time>
      </trkpt>
      <trkpt lat="47.20275" lon="-1.5583">
        <ele>53</ele>
        <time>2021-05-29T14:01:13.000Z</time>
      </trkpt>
      <trkpt lat="47.20274" lon="-1.55843">
        <ele>53</ele>
        <time>2021-05-29T14:01:15.000Z</time>
      </trkpt>
      <trkpt lat="47.20272" lon="-1.55857">
        <ele>53</ele>
        <time>2021-05-29T14:01:17.000Z</time>
      </trkpt>
      <trkpt lat="47.2027" lon="-1.55872">
        <ele>53</ele>
        <time>2021-05-29T14:01:19.000Z</time>
      </trkpt>
      <trkpt lat="47.20269" lon="-1.55887">
        <ele>53</ele>
        <time>2021-05-29T14:01:21.000Z</time>
      </trkpt>
      <trkpt lat="47.20267" lon="-1.55901">
        <ele>53</ele>
        <time>2021-05-29T14:01:23.000Z</time>
      </trkpt>
      <trkpt lat="47.20265" lon="-1.55915">
        <ele>53</ele>
        <time>2021-05-29T14:01:25.000Z</time>
      </trkpt>
      <trkpt lat="47.20263" lon="-1.55929">
        <ele>53</ele>
        <time>2021-05-29T14:01:27.000Z</time>
      </trkpt>
      <trkpt lat="47.20262" lon="-1.55946">
        <ele>52</ele>
        <time>2021-05-29T14:01:29.000Z</time>
      </trkpt>
      <trkpt lat="47.2026" lon="-1.55973">
        <ele>54</ele>
        <time>2021-05-29T14:01:33.000Z</time>
      </trkpt>
      <trkpt lat="47.20258" lon="-1.55988">
        <ele>54</ele>
        <time>2021-05-29T14:01:35.000Z</time>
      </trkpt>
      <trkpt lat="47.20256" lon="-1.56011">
        <ele>52</ele>
        <time>2021-05-29T14:01:38.000Z</time>
      </trkpt>
      <trkpt lat="47.20253" lon="-1.56031">
        <ele>52</ele>
        <time>2021-05-29T14:01:41.000Z</time>
      </trkpt>
      <trkpt lat="47.20252" lon="-1.56044">
        <ele>53</ele>
        <time>2021-05-29T14:01:43.000Z</time>
      </trkpt>
      <trkpt lat="47.2025" lon="-1.56071">
        <ele>50</ele>
        <time>2021-05-29T14:01:46.000Z</time>
      </trkpt>
      <trkpt lat="47.20247" lon="-1.56094">
        <ele>50</ele>
        <time>2021-05-29T14:01:49.000Z</time>
      </trkpt>
      <trkpt lat="47.20244" lon="-1.5611">
        <ele>53</ele>
        <time>2021-05-29T14:01:52.000Z</time>
      </trkpt>
      <trkpt lat="47.20242" lon="-1.56128">
        <ele>54</ele>
        <time>2021-05-29T14:01:55.000Z</time>
      </trkpt>
      <trkpt lat="47.20234" lon="-1.56146">
        <ele>54</ele>
        <time>2021-05-29T14:01:58.000Z</time>
      </trkpt>
      <trkpt lat="47.20226" lon="-1.56156">
        <ele>53</ele>
        <time>2021-05-29T14:02:00.000Z</time>
      </trkpt>
      <trkpt lat="47.20219" lon="-1.56163">
        <ele>53</ele>
        <time>2021-05-29T14:02:02.000Z</time>
      </trkpt>
      <trkpt lat="47.20211" lon="-1.5617">
        <ele>54</ele>
        <time>2021-05-29T14:02:04.000Z</time>
      </trkpt>
      <trkpt lat="47.20201" lon="-1.56174">
        <ele>54</ele>
        <time>2021-05-29T14:02:06.000Z</time>
      </trkpt>
      <trkpt lat="47.20189" lon="-1.56181">
        <ele>54</ele>
        <time>2021-05-29T14:02:09.000Z</time>
      </trkpt>
      <trkpt lat="47.20174" lon="-1.56195">
        <ele>54</ele>
        <time>2021-05-29T14:02:13.000Z</time>
      </trkpt>
      <trkpt lat="47.20164" lon="-1.56192">
        <ele>54</ele>
        <time>2021-05-29T14:02:15.000Z</time>
      </trkpt>
      <trkpt lat="47.20151" lon="-1.56183">
        <ele>54</ele>
        <time>2021-05-29T14:02:18.000Z</time>
      </trkpt>
      <trkpt lat="47.20142" lon="-1.56181">
        <ele>55</ele>
        <time>2021-05-29T14:02:20.000Z</time>
      </trkpt>
      <trkpt lat="47.20124" lon="-1.5618">
        <ele>54</ele>
        <time>2021-05-29T14:02:24.000Z</time>
      </trkpt>
      <trkpt lat="47.20108" lon="-1.56176">
        <ele>54</ele>
        <time>2021-05-29T14:02:28.000Z</time>
      </trkpt>
      <trkpt lat="47.20098" lon="-1.56178">
        <ele>55</ele>
        <time>2021-05-29T14:02:30.000Z</time>
      </trkpt>
      <trkpt lat="47.20089" lon="-1.56179">
        <ele>55</ele>
        <time>2021-05-29T14:02:32.000Z</time>
      </trkpt>
      <trkpt lat="47.20079" lon="-1.5618">
        <ele>56</ele>
        <time>2021-05-29T14:02:34.000Z</time>
      </trkpt>
      <trkpt lat="47.20064" lon="-1.56181">
        <ele>55</ele>
        <time>2021-05-29T14:02:37.000Z</time>
      </trkpt>
      <trkpt lat="47.20054" lon="-1.56181">
        <ele>55</ele>
        <time>2021-05-29T14:02:39.000Z</time>
      </trkpt>
      <trkpt lat="47.20045" lon="-1.56181">
        <ele>55</ele>
        <time>2021-05-29T14:02:41.000Z</time>
      </trkpt>
      <trkpt lat="47.20032" lon="-1.56181">
        <ele>54</ele>
        <time>2021-05-29T14:02:44.000Z</time>
      </trkpt>
      <trkpt lat="47.2002" lon="-1.56181">
        <ele>55</ele>
        <time>2021-05-29T14:02:47.000Z</time>
      </trkpt>
      <trkpt lat="47.20011" lon="-1.56184">
        <ele>56</ele>
        <time>2021-05-29T14:02:49.000Z</time>
      </trkpt>
      <trkpt lat="47.2" lon="-1.56191">
        <ele>55</ele>
        <time>2021-05-29T14:02:52.000Z</time>
      </trkpt>
      <trkpt lat="47.19985" lon="-1.56192">
        <ele>56</ele>
        <time>2021-05-29T14:02:56.000Z</time>
      </trkpt>
      <trkpt lat="47.19974" lon="-1.56175">
        <ele>55</ele>
        <time>2021-05-29T14:03:00.000Z</time>
      </trkpt>
      <trkpt lat="47.19965" lon="-1.56166">
        <ele>55</ele>
        <time>2021-05-29T14:03:03.000Z</time>
      </trkpt>
      <trkpt lat="47.19955" lon="-1.56168">
        <ele>55</ele>
        <time>2021-05-29T14:03:06.000Z</time>
      </trkpt>
      <trkpt lat="47.19943" lon="-1.5617">
        <ele>56</ele>
        <time>2021-05-29T14:03:10.000Z</time>
      </trkpt>
      <trkpt lat="47.19933" lon="-1.56171">
        <ele>56</ele>
        <time>2021-05-29T14:03:12.000Z</time>
      </trkpt>
      <trkpt lat="47.19924" lon="-1.56173">
        <ele>57</ele>
        <time>2021-05-29T14:03:14.000Z</time>
      </trkpt>
      <trkpt lat="47.19911" lon="-1.56175">
        <ele>58</ele>
        <time>2021-05-29T14:03:17.000Z</time>
      </trkpt>
      <trkpt lat="47.19898" lon="-1.56178">
        <ele>58</ele>
        <time>2021-05-29T14:03:20.000Z</time>
      </trkpt>
      <trkpt lat="47.19885" lon="-1.5618">
        <ele>59</ele>
        <time>2021-05-29T14:03:23.000Z</time>
      </trkpt>
      <trkpt lat="47.19872" lon="-1.56183">
        <ele>60</ele>
        <time>2021-05-29T14:03:26.000Z</time>
      </trkpt>
      <trkpt lat="47.1986" lon="-1.56185">
        <ele>60</ele>
        <time>2021-05-29T14:03:29.000Z</time>
      </trkpt>
      <trkpt lat="47.19846" lon="-1.56187">
        <ele>61</ele>
        <time>2021-05-29T14:03:32.000Z</time>
      </trkpt>
      <trkpt lat="47.19833" lon="-1.56189">
        <ele>61</ele>
        <time>2021-05-29T14:03:35.000Z</time>
      </trkpt>
      <trkpt lat="47.19813" lon="-1.56193">
        <ele>59</ele>
        <time>2021-05-29T14:03:39.000Z</time>
      </trkpt>
      <trkpt lat="47.19798" lon="-1.56195">
        <ele>61</ele>
        <time>2021-05-29T14:03:43.000Z</time>
      </trkpt>
      <trkpt lat="47.19785" lon="-1.56198">
        <ele>60</ele>
        <time>2021-05-29T14:03:46.000Z</time>
      </trkpt>
      <trkpt lat="47.19773" lon="-1.56201">
        <ele>60</ele>
        <time>2021-05-29T14:03:49.000Z</time>
      </trkpt>
      <trkpt lat="47.1976" lon="-1.56204">
        <ele>59</ele>
        <time>2021-05-29T14:03:52.000Z</time>
      </trkpt>
      <trkpt lat="47.19744" lon="-1.56207">
        <ele>59</ele>
        <time>2021-05-29T14:03:55.000Z</time>
      </trkpt>
      <trkpt lat="47.19725" lon="-1.56208">
        <ele>58</ele>
        <time>2021-05-29T14:03:58.000Z</time>
      </trkpt>
      <trkpt lat="47.19713" lon="-1.56211">
        <ele>59</ele>
        <time>2021-05-29T14:04:00.000Z</time>
      </trkpt>
      <trkpt lat="47.19699" lon="-1.56214">
        <ele>58</ele>
        <time>2021-05-29T14:04:02.000Z</time>
      </trkpt>
      <trkpt lat="47.19678" lon="-1.5622">
        <ele>56</ele>
        <time>2021-05-29T14:04:05.000Z</time>
      </trkpt>
      <trkpt lat="47.19663" lon="-1.56225">
        <ele>56</ele>
        <time>2021-05-29T14:04:07.000Z</time>
      </trkpt>
      <trkpt lat="47.19647" lon="-1.5623">
        <ele>55</ele>
        <time>2021-05-29T14:04:09.000Z</time>
      </trkpt>
      <trkpt lat="47.19636" lon="-1.56259">
        <ele>54</ele>
        <time>2021-05-29T14:04:12.000Z</time>
      </trkpt>
      <trkpt lat="47.19635" lon="-1.56288">
        <ele>56</ele>
        <time>2021-05-29T14:04:15.000Z</time>
      </trkpt>
      <trkpt lat="47.19633" lon="-1.56316">
        <ele>53</ele>
        <time>2021-05-29T14:04:18.000Z</time>
      </trkpt>
      <trkpt lat="47.19632" lon="-1.56333">
        <ele>54</ele>
        <time>2021-05-29T14:04:20.000Z</time>
      </trkpt>
      <trkpt lat="47.19632" lon="-1.56358">
        <ele>54</ele>
        <time>2021-05-29T14:04:23.000Z</time>
      </trkpt>
      <trkpt lat="47.19631" lon="-1.56376">
        <ele>52</ele>
        <time>2021-05-29T14:04:25.000Z</time>
      </trkpt>
      <trkpt lat="47.1963" lon="-1.56391">
        <ele>52</ele>
        <time>2021-05-29T14:04:27.000Z</time>
      </trkpt>
      <trkpt lat="47.19629" lon="-1.56405">
        <ele>52</ele>
        <time>2021-05-29T14:04:29.000Z</time>
      </trkpt>
      <trkpt lat="47.19631" lon="-1.56422">
        <ele>53</ele>
        <time>2021-05-29T14:04:31.000Z</time>
      </trkpt>
      <trkpt lat="47.19632" lon="-1.5644">
        <ele>53</ele>
        <time>2021-05-29T14:04:33.000Z</time>
      </trkpt>
      <trkpt lat="47.19633" lon="-1.56464">
        <ele>53</ele>
        <time>2021-05-29T14:04:36.000Z</time>
      </trkpt>
      <trkpt lat="47.19633" lon="-1.5648">
        <ele>53</ele>
        <time>2021-05-29T14:04:38.000Z</time>
      </trkpt>
      <trkpt lat="47.19634" lon="-1.56505">
        <ele>51</ele>
        <time>2021-05-29T14:04:41.000Z</time>
      </trkpt>
      <trkpt lat="47.19634" lon="-1.56518">
        <ele>50</ele>
        <time>2021-05-29T14:04:43.000Z</time>
      </trkpt>
      <trkpt lat="47.19634" lon="-1.56536">
        <ele>51</ele>
        <time>2021-05-29T14:04:45.000Z</time>
      </trkpt>
      <trkpt lat="47.19635" lon="-1.56552">
        <ele>53</ele>
        <time>2021-05-29T14:04:47.000Z</time>
      </trkpt>
      <trkpt lat="47.19635" lon="-1.56569">
        <ele>55</ele>
        <time>2021-05-29T14:04:49.000Z</time>
      </trkpt>
      <trkpt lat="47.19633" lon="-1.56586">
        <ele>55</ele>
        <time>2021-05-29T14:04:51.000Z</time>
      </trkpt>
      <trkpt lat="47.19632" lon="-1.56601">
        <ele>56</ele>
        <time>2021-05-29T14:04:53.000Z</time>
      </trkpt>
      <trkpt lat="47.19632" lon="-1.56618">
        <ele>56</ele>
        <time>2021-05-29T14:04:55.000Z</time>
      </trkpt>
      <trkpt lat="47.19629" lon="-1.56635">
        <ele>59</ele>
        <time>2021-05-29T14:04:57.000Z</time>
      </trkpt>
      <trkpt lat="47.19629" lon="-1.56653">
        <ele>58</ele>
        <time>2021-05-29T14:04:59.000Z</time>
      </trkpt>
      <trkpt lat="47.19628" lon="-1.5667">
        <ele>58</ele>
        <time>2021-05-29T14:05:01.000Z</time>
      </trkpt>
      <trkpt lat="47.19627" lon="-1.56686">
        <ele>57</ele>
        <time>2021-05-29T14:05:03.000Z</time>
      </trkpt>
      <trkpt lat="47.19625" lon="-1.56711">
        <ele>54</ele>
        <time>2021-05-29T14:05:06.000Z</time>
      </trkpt>
      <trkpt lat="47.19622" lon="-1.56725">
        <ele>52</ele>
        <time>2021-05-29T14:05:08.000Z</time>
      </trkpt>
      <trkpt lat="47.19622" lon="-1.56743">
        <ele>52</ele>
        <time>2021-05-29T14:05:10.000Z</time>
      </trkpt>
      <trkpt lat="47.1962" lon="-1.56761">
        <ele>52</ele>
        <time>2021-05-29T14:05:12.000Z</time>
      </trkpt>
      <trkpt lat="47.1962" lon="-1.56778">
        <ele>52</ele>
        <time>2021-05-29T14:05:14.000Z</time>
      </trkpt>
      <trkpt lat="47.19621" lon="-1.56802">
        <ele>53</ele>
        <time>2021-05-29T14:05:17.000Z</time>
      </trkpt>
      <trkpt lat="47.19619" lon="-1.5682">
        <ele>53</ele>
        <time>2021-05-29T14:05:19.000Z</time>
      </trkpt>
      <trkpt lat="47.1962" lon="-1.56844">
        <ele>52</ele>
        <time>2021-05-29T14:05:22.000Z</time>
      </trkpt>
      <trkpt lat="47.19617" lon="-1.56859">
        <ele>54</ele>
        <time>2021-05-29T14:05:24.000Z</time>
      </trkpt>
      <trkpt lat="47.19616" lon="-1.56875">
        <ele>55</ele>
        <time>2021-05-29T14:05:26.000Z</time>
      </trkpt>
      <trkpt lat="47.19614" lon="-1.56892">
        <ele>55</ele>
        <time>2021-05-29T14:05:28.000Z</time>
      </trkpt>
      <trkpt lat="47.19614" lon="-1.56909">
        <ele>55</ele>
        <time>2021-05-29T14:05:30.000Z</time>
      </trkpt>
      <trkpt lat="47.19613" lon="-1.56925">
        <ele>54</ele>
        <time>2021-05-29T14:05:32.000Z</time>
      </trkpt>
      <trkpt lat="47.19612" lon="-1.56942">
        <ele>54</ele>
        <time>2021-05-29T14:05:34.000Z</time>
      </trkpt>
      <trkpt lat="47.19611" lon="-1.56957">
        <ele>54</ele>
        <time>2021-05-29T14:05:36.000Z</time>
      </trkpt>
      <trkpt lat="47.19608" lon="-1.56981">
        <ele>53</ele>
        <time>2021-05-29T14:05:39.000Z</time>
      </trkpt>
      <trkpt lat="47.19607" lon="-1.56996">
        <ele>53</ele>
        <time>2021-05-29T14:05:41.000Z</time>
      </trkpt>
      <trkpt lat="47.19606" lon="-1.57012">
        <ele>53</ele>
        <time>2021-05-29T14:05:43.000Z</time>
      </trkpt>
      <trkpt lat="47.19605" lon="-1.57027">
        <ele>54</ele>
        <time>2021-05-29T14:05:45.000Z</time>
      </trkpt>
      <trkpt lat="47.19604" lon="-1.57045">
        <ele>52</ele>
        <time>2021-05-29T14:05:47.000Z</time>
      </trkpt>
      <trkpt lat="47.19603" lon="-1.5706">
        <ele>54</ele>
        <time>2021-05-29T14:05:49.000Z</time>
      </trkpt>
      <trkpt lat="47.19602" lon="-1.57074">
        <ele>55</ele>
        <time>2021-05-29T14:05:51.000Z</time>
      </trkpt>
      <trkpt lat="47.19601" lon="-1.57089">
        <ele>55</ele>
        <time>2021-05-29T14:05:53.000Z</time>
      </trkpt>
      <trkpt lat="47.19597" lon="-1.57107">
        <ele>56</ele>
        <time>2021-05-29T14:05:56.000Z</time>
      </trkpt>
      <trkpt lat="47.19594" lon="-1.57124">
        <ele>56</ele>
        <time>2021-05-29T14:05:59.000Z</time>
      </trkpt>
      <trkpt lat="47.19579" lon="-1.57128">
        <ele>54</ele>
        <time>2021-05-29T14:06:02.000Z</time>
      </trkpt>
      <trkpt lat="47.19569" lon="-1.57122">
        <ele>55</ele>
        <time>2021-05-29T14:06:04.000Z</time>
      </trkpt>
      <trkpt lat="47.19559" lon="-1.5712">
        <ele>55</ele>
        <time>2021-05-29T14:06:06.000Z</time>
      </trkpt>
      <trkpt lat="47.19549" lon="-1.5712">
        <ele>54</ele>
        <time>2021-05-29T14:06:08.000Z</time>
      </trkpt>
      <trkpt lat="47.19537" lon="-1.57117">
        <ele>55</ele>
        <time>2021-05-29T14:06:11.000Z</time>
      </trkpt>
      <trkpt lat="47.19524" lon="-1.57114">
        <ele>55</ele>
        <time>2021-05-29T14:06:14.000Z</time>
      </trkpt>
      <trkpt lat="47.19514" lon="-1.57111">
        <ele>55</ele>
        <time>2021-05-29T14:06:16.000Z</time>
      </trkpt>
      <trkpt lat="47.19505" lon="-1.57108">
        <ele>55</ele>
        <time>2021-05-29T14:06:18.000Z</time>
      </trkpt>
      <trkpt lat="47.19493" lon="-1.57105">
        <ele>55</ele>
        <time>2021-05-29T14:06:21.000Z</time>
      </trkpt>
      <trkpt lat="47.19478" lon="-1.57103">
        <ele>53</ele>
        <time>2021-05-29T14:06:25.000Z</time>
      </trkpt>
      <trkpt lat="47.19467" lon="-1.57107">
        <ele>56</ele>
        <time>2021-05-29T14:06:29.000Z</time>
      </trkpt>
      <trkpt lat="47.1945" lon="-1.57102">
        <ele>56</ele>
        <time>2021-05-29T14:06:33.000Z</time>
      </trkpt>
      <trkpt lat="47.19442" lon="-1.57096">
        <ele>56</ele>
        <time>2021-05-29T14:06:35.000Z</time>
      </trkpt>
      <trkpt lat="47.19433" lon="-1.57094">
        <ele>56</ele>
        <time>2021-05-29T14:06:37.000Z</time>
      </trkpt>
      <trkpt lat="47.19423" lon="-1.57091">
        <ele>56</ele>
        <time>2021-05-29T14:06:40.000Z</time>
      </trkpt>
      <trkpt lat="47.19403" lon="-1.57086">
        <ele>55</ele>
        <time>2021-05-29T14:06:45.000Z</time>
      </trkpt>
      <trkpt lat="47.19393" lon="-1.57083">
        <ele>55</ele>
        <time>2021-05-29T14:06:48.000Z</time>
      </trkpt>
      <trkpt lat="47.19382" lon="-1.57079">
        <ele>56</ele>
        <time>2021-05-29T14:06:50.000Z</time>
      </trkpt>
      <trkpt lat="47.19372" lon="-1.57076">
        <ele>56</ele>
        <time>2021-05-29T14:06:52.000Z</time>
      </trkpt>
      <trkpt lat="47.19359" lon="-1.57075">
        <ele>57</ele>
        <time>2021-05-29T14:06:55.000Z</time>
      </trkpt>
      <trkpt lat="47.1935" lon="-1.57077">
        <ele>59</ele>
        <time>2021-05-29T14:06:58.000Z</time>
      </trkpt>
      <trkpt lat="47.19339" lon="-1.57082">
        <ele>60</ele>
        <time>2021-05-29T14:07:00.000Z</time>
      </trkpt>
      <trkpt lat="47.19326" lon="-1.5708">
        <ele>59</ele>
        <time>2021-05-29T14:07:02.000Z</time>
      </trkpt>
      <trkpt lat="47.19309" lon="-1.57071">
        <ele>58</ele>
        <time>2021-05-29T14:07:05.000Z</time>
      </trkpt>
      <trkpt lat="47.193" lon="-1.57065">
        <ele>58</ele>
        <time>2021-05-29T14:07:08.000Z</time>
      </trkpt>
      <trkpt lat="47.19291" lon="-1.5706">
        <ele>59</ele>
        <time>2021-05-29T14:07:11.000Z</time>
      </trkpt>
      <trkpt lat="47.1928" lon="-1.5706">
        <ele>59</ele>
        <time>2021-05-29T14:07:15.000Z</time>
      </trkpt>
      <trkpt lat="47.19258" lon="-1.5705">
        <ele>57</ele>
        <time>2021-05-29T14:07:18.000Z</time>
      </trkpt>
      <trkpt lat="47.19242" lon="-1.57047">
        <ele>55</ele>
        <time>2021-05-29T14:07:20.000Z</time>
      </trkpt>
      <trkpt lat="47.19229" lon="-1.57044">
        <ele>54</ele>
        <time>2021-05-29T14:07:22.000Z</time>
      </trkpt>
      <trkpt lat="47.19213" lon="-1.5704">
        <ele>54</ele>
        <time>2021-05-29T14:07:25.000Z</time>
      </trkpt>
      <trkpt lat="47.19199" lon="-1.57035">
        <ele>55</ele>
        <time>2021-05-29T14:07:27.000Z</time>
      </trkpt>
      <trkpt lat="47.1919" lon="-1.57031">
        <ele>57</ele>
        <time>2021-05-29T14:07:29.000Z</time>
      </trkpt>
      <trkpt lat="47.19179" lon="-1.57027">
        <ele>59</ele>
        <time>2021-05-29T14:07:31.000Z</time>
      </trkpt>
      <trkpt lat="47.1917" lon="-1.57024">
        <ele>59</ele>
        <time>2021-05-29T14:07:33.000Z</time>
      </trkpt>
      <trkpt lat="47.19161" lon="-1.57021">
        <ele>60</ele>
        <time>2021-05-29T14:07:35.000Z</time>
      </trkpt>
      <trkpt lat="47.19151" lon="-1.57019">
        <ele>61</ele>
        <time>2021-05-29T14:07:37.000Z</time>
      </trkpt>
      <trkpt lat="47.19142" lon="-1.57019">
        <ele>61</ele>
        <time>2021-05-29T14:07:39.000Z</time>
      </trkpt>
      <trkpt lat="47.19129" lon="-1.57028">
        <ele>63</ele>
        <time>2021-05-29T14:07:42.000Z</time>
      </trkpt>
      <trkpt lat="47.19124" lon="-1.5704">
        <ele>62</ele>
        <time>2021-05-29T14:07:44.000Z</time>
      </trkpt>
      <trkpt lat="47.19119" lon="-1.57053">
        <ele>61</ele>
        <time>2021-05-29T14:07:46.000Z</time>
      </trkpt>
      <trkpt lat="47.19115" lon="-1.57067">
        <ele>61</ele>
        <time>2021-05-29T14:07:48.000Z</time>
      </trkpt>
      <trkpt lat="47.19112" lon="-1.5708">
        <ele>62</ele>
        <time>2021-05-29T14:07:50.000Z</time>
      </trkpt>
      <trkpt lat="47.19108" lon="-1.57095">
        <ele>61</ele>
        <time>2021-05-29T14:07:52.000Z</time>
      </trkpt>
      <trkpt lat="47.19104" lon="-1.5711">
        <ele>61</ele>
        <time>2021-05-29T14:07:54.000Z</time>
      </trkpt>
      <trkpt lat="47.19098" lon="-1.57124">
        <ele>60</ele>
        <time>2021-05-29T14:07:56.000Z</time>
      </trkpt>
      <trkpt lat="47.19092" lon="-1.57136">
        <ele>60</ele>
        <time>2021-05-29T14:07:58.000Z</time>
      </trkpt>
      <trkpt lat="47.19087" lon="-1.5715">
        <ele>60</ele>
        <time>2021-05-29T14:08:00.000Z</time>
      </trkpt>
      <trkpt lat="47.19079" lon="-1.57171">
        <ele>58</ele>
        <time>2021-05-29T14:08:03.000Z</time>
      </trkpt>
      <trkpt lat="47.19073" lon="-1.57185">
        <ele>58</ele>
        <time>2021-05-29T14:08:05.000Z</time>
      </trkpt>
      <trkpt lat="47.19067" lon="-1.57197">
        <ele>58</ele>
        <time>2021-05-29T14:08:07.000Z</time>
      </trkpt>
      <trkpt lat="47.1906" lon="-1.57207">
        <ele>58</ele>
        <time>2021-05-29T14:08:09.000Z</time>
      </trkpt>
      <trkpt lat="47.19052" lon="-1.5722">
        <ele>59</ele>
        <time>2021-05-29T14:08:12.000Z</time>
      </trkpt>
      <trkpt lat="47.19043" lon="-1.57227">
        <ele>59</ele>
        <time>2021-05-29T14:08:14.000Z</time>
      </trkpt>
      <trkpt lat="47.19034" lon="-1.57232">
        <ele>59</ele>
        <time>2021-05-29T14:08:16.000Z</time>
      </trkpt>
      <trkpt lat="47.19023" lon="-1.57238">
        <ele>59</ele>
        <time>2021-05-29T14:08:18.000Z</time>
      </trkpt>
      <trkpt lat="47.19012" lon="-1.57246">
        <ele>60</ele>
        <time>2021-05-29T14:08:20.000Z</time>
      </trkpt>
      <trkpt lat="47.19001" lon="-1.57253">
        <ele>61</ele>
        <time>2021-05-29T14:08:22.000Z</time>
      </trkpt>
      <trkpt lat="47.18992" lon="-1.57257">
        <ele>60</ele>
        <time>2021-05-29T14:08:24.000Z</time>
      </trkpt>
      <trkpt lat="47.18976" lon="-1.5726">
        <ele>61</ele>
        <time>2021-05-29T14:08:27.000Z</time>
      </trkpt>
      <trkpt lat="47.18963" lon="-1.57261">
        <ele>61</ele>
        <time>2021-05-29T14:08:29.000Z</time>
      </trkpt>
      <trkpt lat="47.18953" lon="-1.57261">
        <ele>62</ele>
        <time>2021-05-29T14:08:31.000Z</time>
      </trkpt>
      <trkpt lat="47.18935" lon="-1.57263">
        <ele>63</ele>
        <time>2021-05-29T14:08:35.000Z</time>
      </trkpt>
      <trkpt lat="47.18924" lon="-1.57267">
        <ele>58</ele>
        <time>2021-05-29T14:08:38.000Z</time>
      </trkpt>
      <trkpt lat="47.18913" lon="-1.5727">
        <ele>60</ele>
        <time>2021-05-29T14:08:41.000Z</time>
      </trkpt>
      <trkpt lat="47.189" lon="-1.57264">
        <ele>65</ele>
        <time>2021-05-29T14:08:45.000Z</time>
      </trkpt>
      <trkpt lat="47.18886" lon="-1.57267">
        <ele>67</ele>
        <time>2021-05-29T14:08:47.000Z</time>
      </trkpt>
      <trkpt lat="47.18875" lon="-1.57271">
        <ele>68</ele>
        <time>2021-05-29T14:08:49.000Z</time>
      </trkpt>
      <trkpt lat="47.18865" lon="-1.57275">
        <ele>69</ele>
        <time>2021-05-29T14:08:51.000Z</time>
      </trkpt>
      <trkpt lat="47.18852" lon="-1.57288">
        <ele>68</ele>
        <time>2021-05-29T14:08:54.000Z</time>
      </trkpt>
      <trkpt lat="47.18844" lon="-1.57299">
        <ele>66</ele>
        <time>2021-05-29T14:08:56.000Z</time>
      </trkpt>
      <trkpt lat="47.18838" lon="-1.57314">
        <ele>64</ele>
        <time>2021-05-29T14:08:58.000Z</time>
      </trkpt>
      <trkpt lat="47.18833" lon="-1.57329">
        <ele>63</ele>
        <time>2021-05-29T14:09:00.000Z</time>
      </trkpt>
      <trkpt lat="47.18828" lon="-1.57345">
        <ele>62</ele>
        <time>2021-05-29T14:09:02.000Z</time>
      </trkpt>
      <trkpt lat="47.18823" lon="-1.57361">
        <ele>61</ele>
        <time>2021-05-29T14:09:04.000Z</time>
      </trkpt>
      <trkpt lat="47.18818" lon="-1.57377">
        <ele>61</ele>
        <time>2021-05-29T14:09:06.000Z</time>
      </trkpt>
      <trkpt lat="47.1881" lon="-1.57392">
        <ele>60</ele>
        <time>2021-05-29T14:09:08.000Z</time>
      </trkpt>
      <trkpt lat="47.18799" lon="-1.57404">
        <ele>59</ele>
        <time>2021-05-29T14:09:10.000Z</time>
      </trkpt>
      <trkpt lat="47.18779" lon="-1.57416">
        <ele>57</ele>
        <time>2021-05-29T14:09:13.000Z</time>
      </trkpt>
      <trkpt lat="47.18762" lon="-1.57426">
        <ele>55</ele>
        <time>2021-05-29T14:09:16.000Z</time>
      </trkpt>
      <trkpt lat="47.18749" lon="-1.57433">
        <ele>56</ele>
        <time>2021-05-29T14:09:18.000Z</time>
      </trkpt>
      <trkpt lat="47.18737" lon="-1.5744">
        <ele>57</ele>
        <time>2021-05-29T14:09:20.000Z</time>
      </trkpt>
      <trkpt lat="47.18718" lon="-1.57447">
        <ele>56</ele>
        <time>2021-05-29T14:09:23.000Z</time>
      </trkpt>
      <trkpt lat="47.18702" lon="-1.57457">
        <ele>57</ele>
        <time>2021-05-29T14:09:26.000Z</time>
      </trkpt>
      <trkpt lat="47.18686" lon="-1.57466">
        <ele>56</ele>
        <time>2021-05-29T14:09:29.000Z</time>
      </trkpt>
      <trkpt lat="47.18677" lon="-1.57472">
        <ele>55</ele>
        <time>2021-05-29T14:09:31.000Z</time>
      </trkpt>
      <trkpt lat="47.18664" lon="-1.57485">
        <ele>55</ele>
        <time>2021-05-29T14:09:34.000Z</time>
      </trkpt>
      <trkpt lat="47.18657" lon="-1.57495">
        <ele>56</ele>
        <time>2021-05-29T14:09:36.000Z</time>
      </trkpt>
      <trkpt lat="47.18651" lon="-1.57506">
        <ele>57</ele>
        <time>2021-05-29T14:09:38.000Z</time>
      </trkpt>
      <trkpt lat="47.18645" lon="-1.57518">
        <ele>58</ele>
        <time>2021-05-29T14:09:40.000Z</time>
      </trkpt>
      <trkpt lat="47.18638" lon="-1.57537">
        <ele>58</ele>
        <time>2021-05-29T14:09:43.000Z</time>
      </trkpt>
      <trkpt lat="47.18634" lon="-1.57551">
        <ele>59</ele>
        <time>2021-05-29T14:09:45.000Z</time>
      </trkpt>
      <trkpt lat="47.1863" lon="-1.57564">
        <ele>60</ele>
        <time>2021-05-29T14:09:47.000Z</time>
      </trkpt>
      <trkpt lat="47.18628" lon="-1.57578">
        <ele>60</ele>
        <time>2021-05-29T14:09:49.000Z</time>
      </trkpt>
      <trkpt lat="47.18625" lon="-1.57595">
        <ele>60</ele>
        <time>2021-05-29T14:09:51.000Z</time>
      </trkpt>
      <trkpt lat="47.18626" lon="-1.57614">
        <ele>61</ele>
        <time>2021-05-29T14:09:54.000Z</time>
      </trkpt>
      <trkpt lat="47.18627" lon="-1.5763">
        <ele>63</ele>
        <time>2021-05-29T14:09:56.000Z</time>
      </trkpt>
      <trkpt lat="47.18627" lon="-1.57643">
        <ele>64</ele>
        <time>2021-05-29T14:09:58.000Z</time>
      </trkpt>
      <trkpt lat="47.18628" lon="-1.57656">
        <ele>64</ele>
        <time>2021-05-29T14:10:00.000Z</time>
      </trkpt>
      <trkpt lat="47.18629" lon="-1.5767">
        <ele>65</ele>
        <time>2021-05-29T14:10:02.000Z</time>
      </trkpt>
      <trkpt lat="47.1863" lon="-1.57685">
        <ele>65</ele>
        <time>2021-05-29T14:10:04.000Z</time>
      </trkpt>
      <trkpt lat="47.18631" lon="-1.57699">
        <ele>65</ele>
        <time>2021-05-29T14:10:06.000Z</time>
      </trkpt>
      <trkpt lat="47.18632" lon="-1.57713">
        <ele>66</ele>
        <time>2021-05-29T14:10:08.000Z</time>
      </trkpt>
      <trkpt lat="47.18634" lon="-1.57733">
        <ele>64</ele>
        <time>2021-05-29T14:10:11.000Z</time>
      </trkpt>
      <trkpt lat="47.18634" lon="-1.57753">
        <ele>66</ele>
        <time>2021-05-29T14:10:14.000Z</time>
      </trkpt>
      <trkpt lat="47.18635" lon="-1.57767">
        <ele>67</ele>
        <time>2021-05-29T14:10:16.000Z</time>
      </trkpt>
      <trkpt lat="47.18637" lon="-1.57781">
        <ele>67</ele>
        <time>2021-05-29T14:10:18.000Z</time>
      </trkpt>
      <trkpt lat="47.18638" lon="-1.57795">
        <ele>68</ele>
        <time>2021-05-29T14:10:20.000Z</time>
      </trkpt>
      <trkpt lat="47.18639" lon="-1.5781">
        <ele>68</ele>
        <time>2021-05-29T14:10:22.000Z</time>
      </trkpt>
      <trkpt lat="47.18641" lon="-1.57833">
        <ele>68</ele>
        <time>2021-05-29T14:10:25.000Z</time>
      </trkpt>
      <trkpt lat="47.1864" lon="-1.57849">
        <ele>68</ele>
        <time>2021-05-29T14:10:27.000Z</time>
      </trkpt>
      <trkpt lat="47.18639" lon="-1.57864">
        <ele>68</ele>
        <time>2021-05-29T14:10:29.000Z</time>
      </trkpt>
      <trkpt lat="47.18638" lon="-1.57879">
        <ele>68</ele>
        <time>2021-05-29T14:10:31.000Z</time>
      </trkpt>
      <trkpt lat="47.18636" lon="-1.57893">
        <ele>67</ele>
        <time>2021-05-29T14:10:33.000Z</time>
      </trkpt>
      <trkpt lat="47.18634" lon="-1.57907">
        <ele>67</ele>
        <time>2021-05-29T14:10:35.000Z</time>
      </trkpt>
      <trkpt lat="47.18632" lon="-1.57923">
        <ele>65</ele>
        <time>2021-05-29T14:10:37.000Z</time>
      </trkpt>
      <trkpt lat="47.1863" lon="-1.57936">
        <ele>65</ele>
        <time>2021-05-29T14:10:39.000Z</time>
      </trkpt>
      <trkpt lat="47.18628" lon="-1.5795">
        <ele>63</ele>
        <time>2021-05-29T14:10:41.000Z</time>
      </trkpt>
      <trkpt lat="47.18627" lon="-1.57964">
        <ele>60</ele>
        <time>2021-05-29T14:10:43.000Z</time>
      </trkpt>
      <trkpt lat="47.18625" lon="-1.57986">
        <ele>60</ele>
        <time>2021-05-29T14:10:46.000Z</time>
      </trkpt>
      <trkpt lat="47.18621" lon="-1.58001">
        <ele>61</ele>
        <time>2021-05-29T14:10:48.000Z</time>
      </trkpt>
      <trkpt lat="47.18618" lon="-1.58016">
        <ele>62</ele>
        <time>2021-05-29T14:10:50.000Z</time>
      </trkpt>
      <trkpt lat="47.18616" lon="-1.58029">
        <ele>62</ele>
        <time>2021-05-29T14:10:52.000Z</time>
      </trkpt>
      <trkpt lat="47.18614" lon="-1.58044">
        <ele>62</ele>
        <time>2021-05-29T14:10:54.000Z</time>
      </trkpt>
      <trkpt lat="47.18609" lon="-1.58061">
        <ele>63</ele>
        <time>2021-05-29T14:10:57.000Z</time>
      </trkpt>
      <trkpt lat="47.18607" lon="-1.58075">
        <ele>62</ele>
        <time>2021-05-29T14:10:59.000Z</time>
      </trkpt>
      <trkpt lat="47.18603" lon="-1.58087">
        <ele>62</ele>
        <time>2021-05-29T14:11:02.000Z</time>
      </trkpt>
      <trkpt lat="47.18594" lon="-1.58079">
        <ele>63</ele>
        <time>2021-05-29T14:11:04.000Z</time>
      </trkpt>
      <trkpt lat="47.18583" lon="-1.58073">
        <ele>64</ele>
        <time>2021-05-29T14:11:06.000Z</time>
      </trkpt>
      <trkpt lat="47.18573" lon="-1.58067">
        <ele>64</ele>
        <time>2021-05-29T14:11:08.000Z</time>
      </trkpt>
      <trkpt lat="47.18563" lon="-1.58065">
        <ele>66</ele>
        <time>2021-05-29T14:11:10.000Z</time>
      </trkpt>
      <trkpt lat="47.18554" lon="-1.58063">
        <ele>66</ele>
        <time>2021-05-29T14:11:12.000Z</time>
      </trkpt>
      <trkpt lat="47.18544" lon="-1.5806">
        <ele>65</ele>
        <time>2021-05-29T14:11:14.000Z</time>
      </trkpt>
      <trkpt lat="47.18535" lon="-1.58058">
        <ele>66</ele>
        <time>2021-05-29T14:11:16.000Z</time>
      </trkpt>
      <trkpt lat="47.18524" lon="-1.58054">
        <ele>66</ele>
        <time>2021-05-29T14:11:18.000Z</time>
      </trkpt>
      <trkpt lat="47.18515" lon="-1.58052">
        <ele>66</ele>
        <time>2021-05-29T14:11:20.000Z</time>
      </trkpt>
      <trkpt lat="47.185" lon="-1.58046">
        <ele>67</ele>
        <time>2021-05-29T14:11:23.000Z</time>
      </trkpt>
      <trkpt lat="47.18491" lon="-1.58042">
        <ele>67</ele>
        <time>2021-05-29T14:11:25.000Z</time>
      </trkpt>
      <trkpt lat="47.18477" lon="-1.5804">
        <ele>67</ele>
        <time>2021-05-29T14:11:28.000Z</time>
      </trkpt>
      <trkpt lat="47.18467" lon="-1.58036">
        <ele>68</ele>
        <time>2021-05-29T14:11:30.000Z</time>
      </trkpt>
      <trkpt lat="47.18451" lon="-1.58033">
        <ele>68</ele>
        <time>2021-05-29T14:11:33.000Z</time>
      </trkpt>
      <trkpt lat="47.18436" lon="-1.58026">
        <ele>67</ele>
        <time>2021-05-29T14:11:36.000Z</time>
      </trkpt>
      <trkpt lat="47.18421" lon="-1.5802">
        <ele>67</ele>
        <time>2021-05-29T14:11:39.000Z</time>
      </trkpt>
      <trkpt lat="47.18406" lon="-1.58013">
        <ele>67</ele>
        <time>2021-05-29T14:11:42.000Z</time>
      </trkpt>
      <trkpt lat="47.18396" lon="-1.5801">
        <ele>66</ele>
        <time>2021-05-29T14:11:44.000Z</time>
      </trkpt>
      <trkpt lat="47.18386" lon="-1.58007">
        <ele>67</ele>
        <time>2021-05-29T14:11:46.000Z</time>
      </trkpt>
      <trkpt lat="47.18377" lon="-1.58004">
        <ele>67</ele>
        <time>2021-05-29T14:11:48.000Z</time>
      </trkpt>
      <trkpt lat="47.18367" lon="-1.58002">
        <ele>68</ele>
        <time>2021-05-29T14:11:50.000Z</time>
      </trkpt>
      <trkpt lat="47.18357" lon="-1.58001">
        <ele>69</ele>
        <time>2021-05-29T14:11:52.000Z</time>
      </trkpt>
      <trkpt lat="47.18347" lon="-1.57999">
        <ele>67</ele>
        <time>2021-05-29T14:11:54.000Z</time>
      </trkpt>
      <trkpt lat="47.18334" lon="-1.57998">
        <ele>67</ele>
        <time>2021-05-29T14:11:57.000Z</time>
      </trkpt>
      <trkpt lat="47.18323" lon="-1.57997">
        <ele>68</ele>
        <time>2021-05-29T14:11:59.000Z</time>
      </trkpt>
      <trkpt lat="47.18313" lon="-1.57995">
        <ele>69</ele>
        <time>2021-05-29T14:12:01.000Z</time>
      </trkpt>
      <trkpt lat="47.18303" lon="-1.57994">
        <ele>69</ele>
        <time>2021-05-29T14:12:03.000Z</time>
      </trkpt>
      <trkpt lat="47.18293" lon="-1.57994">
        <ele>70</ele>
        <time>2021-05-29T14:12:05.000Z</time>
      </trkpt>
      <trkpt lat="47.18283" lon="-1.57993">
        <ele>70</ele>
        <time>2021-05-29T14:12:07.000Z</time>
      </trkpt>
      <trkpt lat="47.18274" lon="-1.57992">
        <ele>70</ele>
        <time>2021-05-29T14:12:09.000Z</time>
      </trkpt>
      <trkpt lat="47.18264" lon="-1.5799">
        <ele>68</ele>
        <time>2021-05-29T14:12:11.000Z</time>
      </trkpt>
      <trkpt lat="47.18251" lon="-1.57988">
        <ele>68</ele>
        <time>2021-05-29T14:12:14.000Z</time>
      </trkpt>
      <trkpt lat="47.18241" lon="-1.57986">
        <ele>69</ele>
        <time>2021-05-29T14:12:16.000Z</time>
      </trkpt>
      <trkpt lat="47.18228" lon="-1.57988">
        <ele>70</ele>
        <time>2021-05-29T14:12:19.000Z</time>
      </trkpt>
      <trkpt lat="47.18218" lon="-1.57997">
        <ele>70</ele>
        <time>2021-05-29T14:12:22.000Z</time>
      </trkpt>
      <trkpt lat="47.18219" lon="-1.58011">
        <ele>71</ele>
        <time>2021-05-29T14:12:24.000Z</time>
      </trkpt>
      <trkpt lat="47.1822" lon="-1.58029">
        <ele>71</ele>
        <time>2021-05-29T14:12:26.000Z</time>
      </trkpt>
      <trkpt lat="47.18221" lon="-1.58044">
        <ele>71</ele>
        <time>2021-05-29T14:12:28.000Z</time>
      </trkpt>
      <trkpt lat="47.18222" lon="-1.58059">
        <ele>71</ele>
        <time>2021-05-29T14:12:30.000Z</time>
      </trkpt>
      <trkpt lat="47.18223" lon="-1.58075">
        <ele>72</ele>
        <time>2021-05-29T14:12:32.000Z</time>
      </trkpt>
      <trkpt lat="47.18224" lon="-1.58091">
        <ele>72</ele>
        <time>2021-05-29T14:12:34.000Z</time>
      </trkpt>
      <trkpt lat="47.18225" lon="-1.58108">
        <ele>72</ele>
        <time>2021-05-29T14:12:36.000Z</time>
      </trkpt>
      <trkpt lat="47.18226" lon="-1.58126">
        <ele>71</ele>
        <time>2021-05-29T14:12:38.000Z</time>
      </trkpt>
      <trkpt lat="47.18227" lon="-1.58143">
        <ele>70</ele>
        <time>2021-05-29T14:12:40.000Z</time>
      </trkpt>
      <trkpt lat="47.18229" lon="-1.58162">
        <ele>69</ele>
        <time>2021-05-29T14:12:42.000Z</time>
      </trkpt>
      <trkpt lat="47.18228" lon="-1.58187">
        <ele>69</ele>
        <time>2021-05-29T14:12:45.000Z</time>
      </trkpt>
      <trkpt lat="47.18224" lon="-1.58206">
        <ele>69</ele>
        <time>2021-05-29T14:12:47.000Z</time>
      </trkpt>
      <trkpt lat="47.18218" lon="-1.58223">
        <ele>69</ele>
        <time>2021-05-29T14:12:49.000Z</time>
      </trkpt>
      <trkpt lat="47.18209" lon="-1.58247">
        <ele>69</ele>
        <time>2021-05-29T14:12:52.000Z</time>
      </trkpt>
      <trkpt lat="47.18202" lon="-1.58259">
        <ele>69</ele>
        <time>2021-05-29T14:12:54.000Z</time>
      </trkpt>
      <trkpt lat="47.18196" lon="-1.58273">
        <ele>68</ele>
        <time>2021-05-29T14:12:56.000Z</time>
      </trkpt>
      <trkpt lat="47.18185" lon="-1.58294">
        <ele>68</ele>
        <time>2021-05-29T14:12:59.000Z</time>
      </trkpt>
      <trkpt lat="47.1818" lon="-1.58306">
        <ele>69</ele>
        <time>2021-05-29T14:13:01.000Z</time>
      </trkpt>
      <trkpt lat="47.18173" lon="-1.5832">
        <ele>68</ele>
        <time>2021-05-29T14:13:03.000Z</time>
      </trkpt>
      <trkpt lat="47.18167" lon="-1.58334">
        <ele>68</ele>
        <time>2021-05-29T14:13:05.000Z</time>
      </trkpt>
      <trkpt lat="47.18161" lon="-1.58349">
        <ele>68</ele>
        <time>2021-05-29T14:13:07.000Z</time>
      </trkpt>
      <trkpt lat="47.18155" lon="-1.58363">
        <ele>69</ele>
        <time>2021-05-29T14:13:09.000Z</time>
      </trkpt>
      <trkpt lat="47.18151" lon="-1.58377">
        <ele>70</ele>
        <time>2021-05-29T14:13:11.000Z</time>
      </trkpt>
      <trkpt lat="47.18145" lon="-1.58391">
        <ele>70</ele>
        <time>2021-05-29T14:13:13.000Z</time>
      </trkpt>
      <trkpt lat="47.1814" lon="-1.58405">
        <ele>71</ele>
        <time>2021-05-29T14:13:15.000Z</time>
      </trkpt>
      <trkpt lat="47.18135" lon="-1.58419">
        <ele>71</ele>
        <time>2021-05-29T14:13:17.000Z</time>
      </trkpt>
      <trkpt lat="47.1813" lon="-1.58432">
        <ele>70</ele>
        <time>2021-05-29T14:13:19.000Z</time>
      </trkpt>
      <trkpt lat="47.18124" lon="-1.58444">
        <ele>70</ele>
        <time>2021-05-29T14:13:21.000Z</time>
      </trkpt>
      <trkpt lat="47.18115" lon="-1.58458">
        <ele>64</ele>
        <time>2021-05-29T14:13:23.000Z</time>
      </trkpt>
      <trkpt lat="47.18112" lon="-1.58471">
        <ele>63</ele>
        <time>2021-05-29T14:13:25.000Z</time>
      </trkpt>
      <trkpt lat="47.18113" lon="-1.58505">
        <ele>66</ele>
        <time>2021-05-29T14:13:29.000Z</time>
      </trkpt>
      <trkpt lat="47.18112" lon="-1.58522">
        <ele>67</ele>
        <time>2021-05-29T14:13:31.000Z</time>
      </trkpt>
      <trkpt lat="47.18118" lon="-1.58544">
        <ele>74</ele>
        <time>2021-05-29T14:13:35.000Z</time>
      </trkpt>
      <trkpt lat="47.18127" lon="-1.58555">
        <ele>74</ele>
        <time>2021-05-29T14:13:37.000Z</time>
      </trkpt>
      <trkpt lat="47.18136" lon="-1.58562">
        <ele>74</ele>
        <time>2021-05-29T14:13:39.000Z</time>
      </trkpt>
      <trkpt lat="47.18148" lon="-1.58568">
        <ele>73</ele>
        <time>2021-05-29T14:13:41.000Z</time>
      </trkpt>
      <trkpt lat="47.18158" lon="-1.58573">
        <ele>73</ele>
        <time>2021-05-29T14:13:43.000Z</time>
      </trkpt>
      <trkpt lat="47.18169" lon="-1.58578">
        <ele>72</ele>
        <time>2021-05-29T14:13:45.000Z</time>
      </trkpt>
      <trkpt lat="47.1818" lon="-1.58584">
        <ele>71</ele>
        <time>2021-05-29T14:13:47.000Z</time>
      </trkpt>
      <trkpt lat="47.18191" lon="-1.58589">
        <ele>71</ele>
        <time>2021-05-29T14:13:49.000Z</time>
      </trkpt>
      <trkpt lat="47.18201" lon="-1.58594">
        <ele>72</ele>
        <time>2021-05-29T14:13:51.000Z</time>
      </trkpt>
      <trkpt lat="47.18215" lon="-1.586">
        <ele>72</ele>
        <time>2021-05-29T14:13:54.000Z</time>
      </trkpt>
      <trkpt lat="47.18225" lon="-1.58606">
        <ele>71</ele>
        <time>2021-05-29T14:13:56.000Z</time>
      </trkpt>
      <trkpt lat="47.18236" lon="-1.58611">
        <ele>71</ele>
        <time>2021-05-29T14:13:58.000Z</time>
      </trkpt>
      <trkpt lat="47.18245" lon="-1.58618">
        <ele>71</ele>
        <time>2021-05-29T14:14:00.000Z</time>
      </trkpt>
      <trkpt lat="47.18256" lon="-1.58634">
        <ele>72</ele>
        <time>2021-05-29T14:14:03.000Z</time>
      </trkpt>
      <trkpt lat="47.18252" lon="-1.58656">
        <ele>74</ele>
        <time>2021-05-29T14:14:06.000Z</time>
      </trkpt>
      <trkpt lat="47.18249" lon="-1.58675">
        <ele>74</ele>
        <time>2021-05-29T14:14:08.000Z</time>
      </trkpt>
      <trkpt lat="47.18248" lon="-1.58701">
        <ele>71</ele>
        <time>2021-05-29T14:14:11.000Z</time>
      </trkpt>
      <trkpt lat="47.1825" lon="-1.58719">
        <ele>71</ele>
        <time>2021-05-29T14:14:13.000Z</time>
      </trkpt>
      <trkpt lat="47.18248" lon="-1.58736">
        <ele>71</ele>
        <time>2021-05-29T14:14:15.000Z</time>
      </trkpt>
      <trkpt lat="47.18248" lon="-1.58753">
        <ele>70</ele>
        <time>2021-05-29T14:14:17.000Z</time>
      </trkpt>
      <trkpt lat="47.18248" lon="-1.5877">
        <ele>70</ele>
        <time>2021-05-29T14:14:19.000Z</time>
      </trkpt>
      <trkpt lat="47.18252" lon="-1.58794">
        <ele>70</ele>
        <time>2021-05-29T14:14:22.000Z</time>
      </trkpt>
      <trkpt lat="47.18257" lon="-1.58809">
        <ele>71</ele>
        <time>2021-05-29T14:14:24.000Z</time>
      </trkpt>
      <trkpt lat="47.18264" lon="-1.58822">
        <ele>72</ele>
        <time>2021-05-29T14:14:26.000Z</time>
      </trkpt>
      <trkpt lat="47.18269" lon="-1.58836">
        <ele>72</ele>
        <time>2021-05-29T14:14:28.000Z</time>
      </trkpt>
      <trkpt lat="47.18273" lon="-1.58849">
        <ele>72</ele>
        <time>2021-05-29T14:14:30.000Z</time>
      </trkpt>
      <trkpt lat="47.18277" lon="-1.58865">
        <ele>70</ele>
        <time>2021-05-29T14:14:32.000Z</time>
      </trkpt>
      <trkpt lat="47.18281" lon="-1.58879">
        <ele>70</ele>
        <time>2021-05-29T14:14:34.000Z</time>
      </trkpt>
      <trkpt lat="47.18287" lon="-1.58891">
        <ele>72</ele>
        <time>2021-05-29T14:14:38.000Z</time>
      </trkpt>
      <trkpt lat="47.18298" lon="-1.58889">
        <ele>72</ele>
        <time>2021-05-29T14:14:40.000Z</time>
      </trkpt>
      <trkpt lat="47.18308" lon="-1.58885">
        <ele>69</ele>
        <time>2021-05-29T14:14:43.000Z</time>
      </trkpt>
      <trkpt lat="47.18315" lon="-1.58894">
        <ele>70</ele>
        <time>2021-05-29T14:14:56.000Z</time>
      </trkpt>
      <trkpt lat="47.18308" lon="-1.58904">
        <ele>64</ele>
        <time>2021-05-29T14:15:57.000Z</time>
      </trkpt>
      <trkpt lat="47.18317" lon="-1.58898">
        <ele>68</ele>
        <time>2021-05-29T14:17:31.000Z</time>
      </trkpt>
      <trkpt lat="47.18307" lon="-1.58897">
        <ele>66</ele>
        <time>2021-05-29T14:19:38.000Z</time>
      </trkpt>
      <trkpt lat="47.18315" lon="-1.58904">
        <ele>59</ele>
        <time>2021-05-29T14:22:51.000Z</time>
      </trkpt>
      <trkpt lat="47.18311" lon="-1.58892">
        <ele>60</ele>
        <time>2021-05-29T14:43:51.000Z</time>
      </trkpt>
      <trkpt lat="47.18318" lon="-1.589">
        <ele>63</ele>
        <time>2021-05-29T14:46:05.000Z</time>
      </trkpt>
      <trkpt lat="47.1831" lon="-1.58906">
        <ele>59</ele>
        <time>2021-05-29T14:49:23.000Z</time>
      </trkpt>
      <trkpt lat="47.18319" lon="-1.58905">
        <ele>56</ele>
        <time>2021-05-29T14:50:52.000Z</time>
      </trkpt>
      <trkpt lat="47.1831" lon="-1.58906">
        <ele>67</ele>
        <time>2021-05-29T15:03:43.000Z</time>
      </trkpt>
      <trkpt lat="47.18318" lon="-1.589">
        <ele>61</ele>
        <time>2021-05-29T15:04:02.000Z</time>
      </trkpt>
      <trkpt lat="47.18322" lon="-1.58916">
        <ele>69</ele>
        <time>2021-05-29T15:19:43.000Z</time>
      </trkpt>
      <trkpt lat="47.18324" lon="-1.58933">
        <ele>69</ele>
        <time>2021-05-29T15:19:46.000Z</time>
      </trkpt>
      <trkpt lat="47.18329" lon="-1.58945">
        <ele>70</ele>
        <time>2021-05-29T15:19:49.000Z</time>
      </trkpt>
      <trkpt lat="47.18339" lon="-1.58957">
        <ele>70</ele>
        <time>2021-05-29T15:19:52.000Z</time>
      </trkpt>
      <trkpt lat="47.18348" lon="-1.5897">
        <ele>70</ele>
        <time>2021-05-29T15:19:55.000Z</time>
      </trkpt>
      <trkpt lat="47.18357" lon="-1.58983">
        <ele>69</ele>
        <time>2021-05-29T15:19:58.000Z</time>
      </trkpt>
      <trkpt lat="47.18355" lon="-1.58998">
        <ele>69</ele>
        <time>2021-05-29T15:20:00.000Z</time>
      </trkpt>
      <trkpt lat="47.18348" lon="-1.59012">
        <ele>68</ele>
        <time>2021-05-29T15:20:02.000Z</time>
      </trkpt>
      <trkpt lat="47.1834" lon="-1.59025">
        <ele>68</ele>
        <time>2021-05-29T15:20:04.000Z</time>
      </trkpt>
      <trkpt lat="47.18333" lon="-1.5904">
        <ele>67</ele>
        <time>2021-05-29T15:20:06.000Z</time>
      </trkpt>
      <trkpt lat="47.18326" lon="-1.59057">
        <ele>66</ele>
        <time>2021-05-29T15:20:08.000Z</time>
      </trkpt>
      <trkpt lat="47.1832" lon="-1.59073">
        <ele>66</ele>
        <time>2021-05-29T15:20:10.000Z</time>
      </trkpt>
      <trkpt lat="47.18314" lon="-1.5909">
        <ele>65</ele>
        <time>2021-05-29T15:20:12.000Z</time>
      </trkpt>
      <trkpt lat="47.18309" lon="-1.59107">
        <ele>64</ele>
        <time>2021-05-29T15:20:14.000Z</time>
      </trkpt>
      <trkpt lat="47.18299" lon="-1.59131">
        <ele>65</ele>
        <time>2021-05-29T15:20:17.000Z</time>
      </trkpt>
      <trkpt lat="47.18294" lon="-1.59147">
        <ele>65</ele>
        <time>2021-05-29T15:20:19.000Z</time>
      </trkpt>
      <trkpt lat="47.18288" lon="-1.59164">
        <ele>65</ele>
        <time>2021-05-29T15:20:21.000Z</time>
      </trkpt>
      <trkpt lat="47.18283" lon="-1.59178">
        <ele>66</ele>
        <time>2021-05-29T15:20:23.000Z</time>
      </trkpt>
      <trkpt lat="47.18279" lon="-1.59192">
        <ele>66</ele>
        <time>2021-05-29T15:20:25.000Z</time>
      </trkpt>
      <trkpt lat="47.18278" lon="-1.59209">
        <ele>66</ele>
        <time>2021-05-29T15:20:30.000Z</time>
      </trkpt>
      <trkpt lat="47.18268" lon="-1.59223">
        <ele>68</ele>
        <time>2021-05-29T15:20:33.000Z</time>
      </trkpt>
      <trkpt lat="47.18256" lon="-1.59232">
        <ele>68</ele>
        <time>2021-05-29T15:20:35.000Z</time>
      </trkpt>
      <trkpt lat="47.18246" lon="-1.59243">
        <ele>69</ele>
        <time>2021-05-29T15:20:37.000Z</time>
      </trkpt>
      <trkpt lat="47.18236" lon="-1.59254">
        <ele>69</ele>
        <time>2021-05-29T15:20:39.000Z</time>
      </trkpt>
      <trkpt lat="47.1822" lon="-1.59269">
        <ele>71</ele>
        <time>2021-05-29T15:20:42.000Z</time>
      </trkpt>
      <trkpt lat="47.1821" lon="-1.5928">
        <ele>71</ele>
        <time>2021-05-29T15:20:44.000Z</time>
      </trkpt>
      <trkpt lat="47.18199" lon="-1.5929">
        <ele>71</ele>
        <time>2021-05-29T15:20:46.000Z</time>
      </trkpt>
      <trkpt lat="47.18182" lon="-1.59306">
        <ele>70</ele>
        <time>2021-05-29T15:20:49.000Z</time>
      </trkpt>
      <trkpt lat="47.18166" lon="-1.59323">
        <ele>70</ele>
        <time>2021-05-29T15:20:52.000Z</time>
      </trkpt>
      <trkpt lat="47.18154" lon="-1.59333">
        <ele>70</ele>
        <time>2021-05-29T15:20:54.000Z</time>
      </trkpt>
      <trkpt lat="47.18143" lon="-1.59344">
        <ele>70</ele>
        <time>2021-05-29T15:20:56.000Z</time>
      </trkpt>
      <trkpt lat="47.18132" lon="-1.59355">
        <ele>70</ele>
        <time>2021-05-29T15:20:58.000Z</time>
      </trkpt>
      <trkpt lat="47.18122" lon="-1.59366">
        <ele>70</ele>
        <time>2021-05-29T15:21:00.000Z</time>
      </trkpt>
      <trkpt lat="47.18112" lon="-1.59376">
        <ele>70</ele>
        <time>2021-05-29T15:21:02.000Z</time>
      </trkpt>
      <trkpt lat="47.18101" lon="-1.59386">
        <ele>70</ele>
        <time>2021-05-29T15:21:04.000Z</time>
      </trkpt>
      <trkpt lat="47.18091" lon="-1.59396">
        <ele>70</ele>
        <time>2021-05-29T15:21:06.000Z</time>
      </trkpt>
      <trkpt lat="47.18081" lon="-1.59406">
        <ele>70</ele>
        <time>2021-05-29T15:21:08.000Z</time>
      </trkpt>
      <trkpt lat="47.18071" lon="-1.59418">
        <ele>70</ele>
        <time>2021-05-29T15:21:10.000Z</time>
      </trkpt>
      <trkpt lat="47.18063" lon="-1.5943">
        <ele>70</ele>
        <time>2021-05-29T15:21:12.000Z</time>
      </trkpt>
      <trkpt lat="47.18053" lon="-1.59441">
        <ele>70</ele>
        <time>2021-05-29T15:21:14.000Z</time>
      </trkpt>
      <trkpt lat="47.18044" lon="-1.59456">
        <ele>69</ele>
        <time>2021-05-29T15:21:16.000Z</time>
      </trkpt>
      <trkpt lat="47.18035" lon="-1.5948">
        <ele>68</ele>
        <time>2021-05-29T15:21:19.000Z</time>
      </trkpt>
      <trkpt lat="47.18031" lon="-1.59498">
        <ele>68</ele>
        <time>2021-05-29T15:21:21.000Z</time>
      </trkpt>
      <trkpt lat="47.18027" lon="-1.59515">
        <ele>68</ele>
        <time>2021-05-29T15:21:23.000Z</time>
      </trkpt>
      <trkpt lat="47.18023" lon="-1.59532">
        <ele>67</ele>
        <time>2021-05-29T15:21:25.000Z</time>
      </trkpt>
      <trkpt lat="47.18016" lon="-1.59559">
        <ele>67</ele>
        <time>2021-05-29T15:21:28.000Z</time>
      </trkpt>
      <trkpt lat="47.18012" lon="-1.59575">
        <ele>67</ele>
        <time>2021-05-29T15:21:30.000Z</time>
      </trkpt>
      <trkpt lat="47.18007" lon="-1.59594">
        <ele>67</ele>
        <time>2021-05-29T15:21:32.000Z</time>
      </trkpt>
      <trkpt lat="47.18002" lon="-1.59611">
        <ele>67</ele>
        <time>2021-05-29T15:21:34.000Z</time>
      </trkpt>
      <trkpt lat="47.17997" lon="-1.5963">
        <ele>67</ele>
        <time>2021-05-29T15:21:36.000Z</time>
      </trkpt>
      <trkpt lat="47.17992" lon="-1.59648">
        <ele>67</ele>
        <time>2021-05-29T15:21:38.000Z</time>
      </trkpt>
      <trkpt lat="47.17987" lon="-1.59666">
        <ele>67</ele>
        <time>2021-05-29T15:21:40.000Z</time>
      </trkpt>
      <trkpt lat="47.17983" lon="-1.59685">
        <ele>67</ele>
        <time>2021-05-29T15:21:42.000Z</time>
      </trkpt>
      <trkpt lat="47.17978" lon="-1.59705">
        <ele>66</ele>
        <time>2021-05-29T15:21:44.000Z</time>
      </trkpt>
      <trkpt lat="47.17972" lon="-1.59724">
        <ele>66</ele>
        <time>2021-05-29T15:21:46.000Z</time>
      </trkpt>
      <trkpt lat="47.17967" lon="-1.59743">
        <ele>65</ele>
        <time>2021-05-29T15:21:48.000Z</time>
      </trkpt>
      <trkpt lat="47.17961" lon="-1.59763">
        <ele>65</ele>
        <time>2021-05-29T15:21:50.000Z</time>
      </trkpt>
      <trkpt lat="47.17955" lon="-1.59784">
        <ele>64</ele>
        <time>2021-05-29T15:21:52.000Z</time>
      </trkpt>
      <trkpt lat="47.1795" lon="-1.59807">
        <ele>63</ele>
        <time>2021-05-29T15:21:54.000Z</time>
      </trkpt>
      <trkpt lat="47.17947" lon="-1.59832">
        <ele>62</ele>
        <time>2021-05-29T15:21:56.000Z</time>
      </trkpt>
      <trkpt lat="47.17945" lon="-1.59845">
        <ele>61</ele>
        <time>2021-05-29T15:21:57.000Z</time>
      </trkpt>
      <trkpt lat="47.17943" lon="-1.59858">
        <ele>61</ele>
        <time>2021-05-29T15:21:58.000Z</time>
      </trkpt>
      <trkpt lat="47.1794" lon="-1.59871">
        <ele>61</ele>
        <time>2021-05-29T15:21:59.000Z</time>
      </trkpt>
      <trkpt lat="47.17937" lon="-1.59884">
        <ele>60</ele>
        <time>2021-05-29T15:22:00.000Z</time>
      </trkpt>
      <trkpt lat="47.17934" lon="-1.59897">
        <ele>60</ele>
        <time>2021-05-29T15:22:01.000Z</time>
      </trkpt>
      <trkpt lat="47.17929" lon="-1.59924">
        <ele>58</ele>
        <time>2021-05-29T15:22:03.000Z</time>
      </trkpt>
      <trkpt lat="47.17925" lon="-1.59936">
        <ele>58</ele>
        <time>2021-05-29T15:22:04.000Z</time>
      </trkpt>
      <trkpt lat="47.17908" lon="-1.59946">
        <ele>58</ele>
        <time>2021-05-29T15:22:06.000Z</time>
      </trkpt>
      <trkpt lat="47.17898" lon="-1.59946">
        <ele>57</ele>
        <time>2021-05-29T15:22:07.000Z</time>
      </trkpt>
      <trkpt lat="47.17885" lon="-1.59954">
        <ele>57</ele>
        <time>2021-05-29T15:22:09.000Z</time>
      </trkpt>
      <trkpt lat="47.17875" lon="-1.59969">
        <ele>58</ele>
        <time>2021-05-29T15:22:11.000Z</time>
      </trkpt>
      <trkpt lat="47.17867" lon="-1.59984">
        <ele>58</ele>
        <time>2021-05-29T15:22:13.000Z</time>
      </trkpt>
      <trkpt lat="47.17859" lon="-1.59999">
        <ele>58</ele>
        <time>2021-05-29T15:22:15.000Z</time>
      </trkpt>
      <trkpt lat="47.17851" lon="-1.60013">
        <ele>59</ele>
        <time>2021-05-29T15:22:17.000Z</time>
      </trkpt>
      <trkpt lat="47.17843" lon="-1.60027">
        <ele>59</ele>
        <time>2021-05-29T15:22:19.000Z</time>
      </trkpt>
      <trkpt lat="47.17836" lon="-1.60041">
        <ele>60</ele>
        <time>2021-05-29T15:22:21.000Z</time>
      </trkpt>
      <trkpt lat="47.17828" lon="-1.60054">
        <ele>61</ele>
        <time>2021-05-29T15:22:23.000Z</time>
      </trkpt>
      <trkpt lat="47.17816" lon="-1.60074">
        <ele>61</ele>
        <time>2021-05-29T15:22:26.000Z</time>
      </trkpt>
      <trkpt lat="47.17809" lon="-1.60087">
        <ele>62</ele>
        <time>2021-05-29T15:22:28.000Z</time>
      </trkpt>
      <trkpt lat="47.17802" lon="-1.601">
        <ele>62</ele>
        <time>2021-05-29T15:22:30.000Z</time>
      </trkpt>
      <trkpt lat="47.17795" lon="-1.60113">
        <ele>63</ele>
        <time>2021-05-29T15:22:32.000Z</time>
      </trkpt>
      <trkpt lat="47.17787" lon="-1.60126">
        <ele>63</ele>
        <time>2021-05-29T15:22:34.000Z</time>
      </trkpt>
      <trkpt lat="47.17779" lon="-1.6014">
        <ele>64</ele>
        <time>2021-05-29T15:22:36.000Z</time>
      </trkpt>
      <trkpt lat="47.17771" lon="-1.60153">
        <ele>64</ele>
        <time>2021-05-29T15:22:38.000Z</time>
      </trkpt>
      <trkpt lat="47.17764" lon="-1.60167">
        <ele>65</ele>
        <time>2021-05-29T15:22:40.000Z</time>
      </trkpt>
      <trkpt lat="47.17757" lon="-1.60183">
        <ele>65</ele>
        <time>2021-05-29T15:22:42.000Z</time>
      </trkpt>
      <trkpt lat="47.17752" lon="-1.60199">
        <ele>66</ele>
        <time>2021-05-29T15:22:44.000Z</time>
      </trkpt>
      <trkpt lat="47.17748" lon="-1.60216">
        <ele>66</ele>
        <time>2021-05-29T15:22:46.000Z</time>
      </trkpt>
      <trkpt lat="47.17744" lon="-1.60233">
        <ele>66</ele>
        <time>2021-05-29T15:22:48.000Z</time>
      </trkpt>
      <trkpt lat="47.1774" lon="-1.6025">
        <ele>66</ele>
        <time>2021-05-29T15:22:50.000Z</time>
      </trkpt>
      <trkpt lat="47.17736" lon="-1.60266">
        <ele>67</ele>
        <time>2021-05-29T15:22:52.000Z</time>
      </trkpt>
      <trkpt lat="47.17728" lon="-1.60279">
        <ele>67</ele>
        <time>2021-05-29T15:22:54.000Z</time>
      </trkpt>
      <trkpt lat="47.1772" lon="-1.6029">
        <ele>68</ele>
        <time>2021-05-29T15:22:56.000Z</time>
      </trkpt>
      <trkpt lat="47.17711" lon="-1.60302">
        <ele>68</ele>
        <time>2021-05-29T15:22:58.000Z</time>
      </trkpt>
      <trkpt lat="47.17699" lon="-1.6032">
        <ele>68</ele>
        <time>2021-05-29T15:23:01.000Z</time>
      </trkpt>
      <trkpt lat="47.17691" lon="-1.60331">
        <ele>68</ele>
        <time>2021-05-29T15:23:03.000Z</time>
      </trkpt>
      <trkpt lat="47.17683" lon="-1.60343">
        <ele>68</ele>
        <time>2021-05-29T15:23:05.000Z</time>
      </trkpt>
      <trkpt lat="47.17675" lon="-1.60354">
        <ele>68</ele>
        <time>2021-05-29T15:23:07.000Z</time>
      </trkpt>
      <trkpt lat="47.17666" lon="-1.60366">
        <ele>68</ele>
        <time>2021-05-29T15:23:09.000Z</time>
      </trkpt>
      <trkpt lat="47.17658" lon="-1.60378">
        <ele>68</ele>
        <time>2021-05-29T15:23:11.000Z</time>
      </trkpt>
      <trkpt lat="47.1765" lon="-1.60391">
        <ele>67</ele>
        <time>2021-05-29T15:23:13.000Z</time>
      </trkpt>
      <trkpt lat="47.17641" lon="-1.60405">
        <ele>66</ele>
        <time>2021-05-29T15:23:15.000Z</time>
      </trkpt>
      <trkpt lat="47.17632" lon="-1.6042">
        <ele>65</ele>
        <time>2021-05-29T15:23:17.000Z</time>
      </trkpt>
      <trkpt lat="47.17623" lon="-1.60435">
        <ele>65</ele>
        <time>2021-05-29T15:23:19.000Z</time>
      </trkpt>
      <trkpt lat="47.17613" lon="-1.60449">
        <ele>64</ele>
        <time>2021-05-29T15:23:21.000Z</time>
      </trkpt>
      <trkpt lat="47.17604" lon="-1.60464">
        <ele>65</ele>
        <time>2021-05-29T15:23:23.000Z</time>
      </trkpt>
      <trkpt lat="47.17595" lon="-1.60479">
        <ele>65</ele>
        <time>2021-05-29T15:23:25.000Z</time>
      </trkpt>
      <trkpt lat="47.17587" lon="-1.60493">
        <ele>65</ele>
        <time>2021-05-29T15:23:27.000Z</time>
      </trkpt>
      <trkpt lat="47.17578" lon="-1.60507">
        <ele>65</ele>
        <time>2021-05-29T15:23:29.000Z</time>
      </trkpt>
      <trkpt lat="47.17569" lon="-1.60522">
        <ele>64</ele>
        <time>2021-05-29T15:23:31.000Z</time>
      </trkpt>
      <trkpt lat="47.17561" lon="-1.60536">
        <ele>64</ele>
        <time>2021-05-29T15:23:33.000Z</time>
      </trkpt>
      <trkpt lat="47.17552" lon="-1.6055">
        <ele>64</ele>
        <time>2021-05-29T15:23:35.000Z</time>
      </trkpt>
      <trkpt lat="47.17544" lon="-1.60564">
        <ele>65</ele>
        <time>2021-05-29T15:23:37.000Z</time>
      </trkpt>
      <trkpt lat="47.17535" lon="-1.60577">
        <ele>65</ele>
        <time>2021-05-29T15:23:39.000Z</time>
      </trkpt>
      <trkpt lat="47.17526" lon="-1.60591">
        <ele>65</ele>
        <time>2021-05-29T15:23:41.000Z</time>
      </trkpt>
      <trkpt lat="47.17518" lon="-1.60604">
        <ele>65</ele>
        <time>2021-05-29T15:23:43.000Z</time>
      </trkpt>
      <trkpt lat="47.17509" lon="-1.60618">
        <ele>65</ele>
        <time>2021-05-29T15:23:45.000Z</time>
      </trkpt>
      <trkpt lat="47.175" lon="-1.60632">
        <ele>64</ele>
        <time>2021-05-29T15:23:47.000Z</time>
      </trkpt>
      <trkpt lat="47.17492" lon="-1.60646">
        <ele>64</ele>
        <time>2021-05-29T15:23:49.000Z</time>
      </trkpt>
      <trkpt lat="47.17483" lon="-1.60661">
        <ele>63</ele>
        <time>2021-05-29T15:23:51.000Z</time>
      </trkpt>
      <trkpt lat="47.17474" lon="-1.60675">
        <ele>63</ele>
        <time>2021-05-29T15:23:53.000Z</time>
      </trkpt>
      <trkpt lat="47.17465" lon="-1.6069">
        <ele>62</ele>
        <time>2021-05-29T15:23:55.000Z</time>
      </trkpt>
      <trkpt lat="47.17456" lon="-1.60705">
        <ele>62</ele>
        <time>2021-05-29T15:23:57.000Z</time>
      </trkpt>
      <trkpt lat="47.17447" lon="-1.60721">
        <ele>61</ele>
        <time>2021-05-29T15:23:59.000Z</time>
      </trkpt>
      <trkpt lat="47.17438" lon="-1.60737">
        <ele>61</ele>
        <time>2021-05-29T15:24:01.000Z</time>
      </trkpt>
      <trkpt lat="47.17429" lon="-1.60753">
        <ele>61</ele>
        <time>2021-05-29T15:24:03.000Z</time>
      </trkpt>
      <trkpt lat="47.17421" lon="-1.60771">
        <ele>60</ele>
        <time>2021-05-29T15:24:05.000Z</time>
      </trkpt>
      <trkpt lat="47.17414" lon="-1.60792">
        <ele>59</ele>
        <time>2021-05-29T15:24:07.000Z</time>
      </trkpt>
      <trkpt lat="47.17407" lon="-1.60813">
        <ele>58</ele>
        <time>2021-05-29T15:24:09.000Z</time>
      </trkpt>
      <trkpt lat="47.17401" lon="-1.60834">
        <ele>58</ele>
        <time>2021-05-29T15:24:11.000Z</time>
      </trkpt>
      <trkpt lat="47.17398" lon="-1.60857">
        <ele>57</ele>
        <time>2021-05-29T15:24:13.000Z</time>
      </trkpt>
      <trkpt lat="47.17397" lon="-1.6088">
        <ele>57</ele>
        <time>2021-05-29T15:24:15.000Z</time>
      </trkpt>
      <trkpt lat="47.17396" lon="-1.60903">
        <ele>56</ele>
        <time>2021-05-29T15:24:17.000Z</time>
      </trkpt>
      <trkpt lat="47.17397" lon="-1.60926">
        <ele>55</ele>
        <time>2021-05-29T15:24:19.000Z</time>
      </trkpt>
      <trkpt lat="47.17399" lon="-1.60949">
        <ele>55</ele>
        <time>2021-05-29T15:24:21.000Z</time>
      </trkpt>
      <trkpt lat="47.17404" lon="-1.60965">
        <ele>55</ele>
        <time>2021-05-29T15:24:23.000Z</time>
      </trkpt>
      <trkpt lat="47.1741" lon="-1.60976">
        <ele>55</ele>
        <time>2021-05-29T15:24:26.000Z</time>
      </trkpt>
      <trkpt lat="47.17418" lon="-1.60989">
        <ele>56</ele>
        <time>2021-05-29T15:24:29.000Z</time>
      </trkpt>
      <trkpt lat="47.17423" lon="-1.61004">
        <ele>56</ele>
        <time>2021-05-29T15:24:31.000Z</time>
      </trkpt>
      <trkpt lat="47.17423" lon="-1.61022">
        <ele>55</ele>
        <time>2021-05-29T15:24:33.000Z</time>
      </trkpt>
      <trkpt lat="47.17423" lon="-1.61038">
        <ele>55</ele>
        <time>2021-05-29T15:24:35.000Z</time>
      </trkpt>
      <trkpt lat="47.17427" lon="-1.61054">
        <ele>56</ele>
        <time>2021-05-29T15:24:37.000Z</time>
      </trkpt>
      <trkpt lat="47.17433" lon="-1.6107">
        <ele>56</ele>
        <time>2021-05-29T15:24:39.000Z</time>
      </trkpt>
      <trkpt lat="47.17439" lon="-1.61086">
        <ele>57</ele>
        <time>2021-05-29T15:24:41.000Z</time>
      </trkpt>
      <trkpt lat="47.17446" lon="-1.61102">
        <ele>58</ele>
        <time>2021-05-29T15:24:43.000Z</time>
      </trkpt>
      <trkpt lat="47.17452" lon="-1.61118">
        <ele>59</ele>
        <time>2021-05-29T15:24:45.000Z</time>
      </trkpt>
      <trkpt lat="47.17459" lon="-1.61133">
        <ele>59</ele>
        <time>2021-05-29T15:24:47.000Z</time>
      </trkpt>
      <trkpt lat="47.17465" lon="-1.61149">
        <ele>59</ele>
        <time>2021-05-29T15:24:49.000Z</time>
      </trkpt>
      <trkpt lat="47.17471" lon="-1.61164">
        <ele>60</ele>
        <time>2021-05-29T15:24:51.000Z</time>
      </trkpt>
      <trkpt lat="47.17477" lon="-1.61178">
        <ele>60</ele>
        <time>2021-05-29T15:24:53.000Z</time>
      </trkpt>
      <trkpt lat="47.17483" lon="-1.61193">
        <ele>59</ele>
        <time>2021-05-29T15:24:55.000Z</time>
      </trkpt>
      <trkpt lat="47.17489" lon="-1.61208">
        <ele>59</ele>
        <time>2021-05-29T15:24:57.000Z</time>
      </trkpt>
      <trkpt lat="47.17495" lon="-1.61222">
        <ele>59</ele>
        <time>2021-05-29T15:24:59.000Z</time>
      </trkpt>
      <trkpt lat="47.17501" lon="-1.61236">
        <ele>59</ele>
        <time>2021-05-29T15:25:01.000Z</time>
      </trkpt>
      <trkpt lat="47.17508" lon="-1.6125">
        <ele>59</ele>
        <time>2021-05-29T15:25:03.000Z</time>
      </trkpt>
      <trkpt lat="47.17515" lon="-1.61263">
        <ele>59</ele>
        <time>2021-05-29T15:25:05.000Z</time>
      </trkpt>
      <trkpt lat="47.17524" lon="-1.61275">
        <ele>59</ele>
        <time>2021-05-29T15:25:07.000Z</time>
      </trkpt>
      <trkpt lat="47.17533" lon="-1.61284">
        <ele>59</ele>
        <time>2021-05-29T15:25:09.000Z</time>
      </trkpt>
      <trkpt lat="47.17543" lon="-1.6129">
        <ele>60</ele>
        <time>2021-05-29T15:25:11.000Z</time>
      </trkpt>
      <trkpt lat="47.17553" lon="-1.61297">
        <ele>60</ele>
        <time>2021-05-29T15:25:13.000Z</time>
      </trkpt>
      <trkpt lat="47.1756" lon="-1.61309">
        <ele>60</ele>
        <time>2021-05-29T15:25:15.000Z</time>
      </trkpt>
      <trkpt lat="47.17562" lon="-1.61327">
        <ele>60</ele>
        <time>2021-05-29T15:25:17.000Z</time>
      </trkpt>
      <trkpt lat="47.17559" lon="-1.61345">
        <ele>60</ele>
        <time>2021-05-29T15:25:19.000Z</time>
      </trkpt>
      <trkpt lat="47.1755" lon="-1.61357">
        <ele>60</ele>
        <time>2021-05-29T15:25:21.000Z</time>
      </trkpt>
      <trkpt lat="47.17538" lon="-1.61365">
        <ele>60</ele>
        <time>2021-05-29T15:25:23.000Z</time>
      </trkpt>
      <trkpt lat="47.17531" lon="-1.6138">
        <ele>60</ele>
        <time>2021-05-29T15:25:25.000Z</time>
      </trkpt>
      <trkpt lat="47.17526" lon="-1.61397">
        <ele>60</ele>
        <time>2021-05-29T15:25:27.000Z</time>
      </trkpt>
      <trkpt lat="47.17521" lon="-1.61413">
        <ele>60</ele>
        <time>2021-05-29T15:25:29.000Z</time>
      </trkpt>
      <trkpt lat="47.17518" lon="-1.61429">
        <ele>61</ele>
        <time>2021-05-29T15:25:31.000Z</time>
      </trkpt>
      <trkpt lat="47.17515" lon="-1.61445">
        <ele>61</ele>
        <time>2021-05-29T15:25:33.000Z</time>
      </trkpt>
      <trkpt lat="47.17509" lon="-1.61459">
        <ele>63</ele>
        <time>2021-05-29T15:25:35.000Z</time>
      </trkpt>
      <trkpt lat="47.17498" lon="-1.61467">
        <ele>63</ele>
        <time>2021-05-29T15:25:37.000Z</time>
      </trkpt>
      <trkpt lat="47.17486" lon="-1.61471">
        <ele>63</ele>
        <time>2021-05-29T15:25:39.000Z</time>
      </trkpt>
      <trkpt lat="47.17475" lon="-1.61476">
        <ele>64</ele>
        <time>2021-05-29T15:25:41.000Z</time>
      </trkpt>
      <trkpt lat="47.17463" lon="-1.61481">
        <ele>65</ele>
        <time>2021-05-29T15:25:43.000Z</time>
      </trkpt>
      <trkpt lat="47.17452" lon="-1.61487">
        <ele>65</ele>
        <time>2021-05-29T15:25:45.000Z</time>
      </trkpt>
      <trkpt lat="47.1744" lon="-1.61493">
        <ele>66</ele>
        <time>2021-05-29T15:25:47.000Z</time>
      </trkpt>
      <trkpt lat="47.17428" lon="-1.61499">
        <ele>66</ele>
        <time>2021-05-29T15:25:49.000Z</time>
      </trkpt>
      <trkpt lat="47.17417" lon="-1.61506">
        <ele>66</ele>
        <time>2021-05-29T15:25:51.000Z</time>
      </trkpt>
      <trkpt lat="47.17406" lon="-1.61513">
        <ele>66</ele>
        <time>2021-05-29T15:25:53.000Z</time>
      </trkpt>
      <trkpt lat="47.17396" lon="-1.61521">
        <ele>66</ele>
        <time>2021-05-29T15:25:55.000Z</time>
      </trkpt>
      <trkpt lat="47.17387" lon="-1.61529">
        <ele>67</ele>
        <time>2021-05-29T15:25:57.000Z</time>
      </trkpt>
      <trkpt lat="47.17378" lon="-1.61538">
        <ele>68</ele>
        <time>2021-05-29T15:25:59.000Z</time>
      </trkpt>
      <trkpt lat="47.1737" lon="-1.61547">
        <ele>69</ele>
        <time>2021-05-29T15:26:01.000Z</time>
      </trkpt>
      <trkpt lat="47.17361" lon="-1.61557">
        <ele>70</ele>
        <time>2021-05-29T15:26:03.000Z</time>
      </trkpt>
      <trkpt lat="47.17353" lon="-1.61567">
        <ele>70</ele>
        <time>2021-05-29T15:26:05.000Z</time>
      </trkpt>
      <trkpt lat="47.17346" lon="-1.61579">
        <ele>72</ele>
        <time>2021-05-29T15:26:07.000Z</time>
      </trkpt>
      <trkpt lat="47.17338" lon="-1.61589">
        <ele>73</ele>
        <time>2021-05-29T15:26:09.000Z</time>
      </trkpt>
      <trkpt lat="47.17329" lon="-1.61599">
        <ele>73</ele>
        <time>2021-05-29T15:26:11.000Z</time>
      </trkpt>
      <trkpt lat="47.1732" lon="-1.6161">
        <ele>74</ele>
        <time>2021-05-29T15:26:13.000Z</time>
      </trkpt>
      <trkpt lat="47.17312" lon="-1.61621">
        <ele>73</ele>
        <time>2021-05-29T15:26:15.000Z</time>
      </trkpt>
      <trkpt lat="47.17304" lon="-1.61634">
        <ele>73</ele>
        <time>2021-05-29T15:26:17.000Z</time>
      </trkpt>
      <trkpt lat="47.17298" lon="-1.61646">
        <ele>73</ele>
        <time>2021-05-29T15:26:19.000Z</time>
      </trkpt>
      <trkpt lat="47.17292" lon="-1.61659">
        <ele>73</ele>
        <time>2021-05-29T15:26:21.000Z</time>
      </trkpt>
      <trkpt lat="47.17284" lon="-1.61672">
        <ele>74</ele>
        <time>2021-05-29T15:26:23.000Z</time>
      </trkpt>
      <trkpt lat="47.17277" lon="-1.61685">
        <ele>74</ele>
        <time>2021-05-29T15:26:25.000Z</time>
      </trkpt>
      <trkpt lat="47.1727" lon="-1.61699">
        <ele>72</ele>
        <time>2021-05-29T15:26:27.000Z</time>
      </trkpt>
      <trkpt lat="47.17263" lon="-1.61713">
        <ele>72</ele>
        <time>2021-05-29T15:26:29.000Z</time>
      </trkpt>
      <trkpt lat="47.17255" lon="-1.61727">
        <ele>72</ele>
        <time>2021-05-29T15:26:31.000Z</time>
      </trkpt>
      <trkpt lat="47.1725" lon="-1.61742">
        <ele>72</ele>
        <time>2021-05-29T15:26:33.000Z</time>
      </trkpt>
      <trkpt lat="47.17247" lon="-1.61761">
        <ele>71</ele>
        <time>2021-05-29T15:26:35.000Z</time>
      </trkpt>
      <trkpt lat="47.17243" lon="-1.61777">
        <ele>71</ele>
        <time>2021-05-29T15:26:37.000Z</time>
      </trkpt>
      <trkpt lat="47.17233" lon="-1.61789">
        <ele>70</ele>
        <time>2021-05-29T15:26:39.000Z</time>
      </trkpt>
      <trkpt lat="47.17222" lon="-1.61799">
        <ele>70</ele>
        <time>2021-05-29T15:26:41.000Z</time>
      </trkpt>
      <trkpt lat="47.17211" lon="-1.61808">
        <ele>70</ele>
        <time>2021-05-29T15:26:43.000Z</time>
      </trkpt>
      <trkpt lat="47.172" lon="-1.61817">
        <ele>70</ele>
        <time>2021-05-29T15:26:45.000Z</time>
      </trkpt>
      <trkpt lat="47.1719" lon="-1.61827">
        <ele>70</ele>
        <time>2021-05-29T15:26:47.000Z</time>
      </trkpt>
      <trkpt lat="47.1718" lon="-1.61835">
        <ele>70</ele>
        <time>2021-05-29T15:26:49.000Z</time>
      </trkpt>
      <trkpt lat="47.1717" lon="-1.61845">
        <ele>70</ele>
        <time>2021-05-29T15:26:51.000Z</time>
      </trkpt>
      <trkpt lat="47.17159" lon="-1.61855">
        <ele>70</ele>
        <time>2021-05-29T15:26:53.000Z</time>
      </trkpt>
      <trkpt lat="47.17149" lon="-1.61864">
        <ele>70</ele>
        <time>2021-05-29T15:26:55.000Z</time>
      </trkpt>
      <trkpt lat="47.17138" lon="-1.61874">
        <ele>70</ele>
        <time>2021-05-29T15:26:57.000Z</time>
      </trkpt>
      <trkpt lat="47.17128" lon="-1.61884">
        <ele>70</ele>
        <time>2021-05-29T15:26:59.000Z</time>
      </trkpt>
      <trkpt lat="47.17117" lon="-1.61895">
        <ele>69</ele>
        <time>2021-05-29T15:27:01.000Z</time>
      </trkpt>
      <trkpt lat="47.17106" lon="-1.61906">
        <ele>69</ele>
        <time>2021-05-29T15:27:03.000Z</time>
      </trkpt>
      <trkpt lat="47.17096" lon="-1.61916">
        <ele>69</ele>
        <time>2021-05-29T15:27:05.000Z</time>
      </trkpt>
      <trkpt lat="47.17085" lon="-1.61926">
        <ele>69</ele>
        <time>2021-05-29T15:27:07.000Z</time>
      </trkpt>
      <trkpt lat="47.17076" lon="-1.61936">
        <ele>69</ele>
        <time>2021-05-29T15:27:09.000Z</time>
      </trkpt>
      <trkpt lat="47.17066" lon="-1.61947">
        <ele>69</ele>
        <time>2021-05-29T15:27:11.000Z</time>
      </trkpt>
      <trkpt lat="47.17056" lon="-1.61959">
        <ele>69</ele>
        <time>2021-05-29T15:27:13.000Z</time>
      </trkpt>
      <trkpt lat="47.17046" lon="-1.61972">
        <ele>70</ele>
        <time>2021-05-29T15:27:15.000Z</time>
      </trkpt>
      <trkpt lat="47.17037" lon="-1.61985">
        <ele>70</ele>
        <time>2021-05-29T15:27:17.000Z</time>
      </trkpt>
      <trkpt lat="47.17028" lon="-1.61999">
        <ele>69</ele>
        <time>2021-05-29T15:27:19.000Z</time>
      </trkpt>
      <trkpt lat="47.17019" lon="-1.62013">
        <ele>69</ele>
        <time>2021-05-29T15:27:21.000Z</time>
      </trkpt>
      <trkpt lat="47.1701" lon="-1.62026">
        <ele>69</ele>
        <time>2021-05-29T15:27:23.000Z</time>
      </trkpt>
      <trkpt lat="47.17001" lon="-1.6204">
        <ele>69</ele>
        <time>2021-05-29T15:27:25.000Z</time>
      </trkpt>
      <trkpt lat="47.16993" lon="-1.62055">
        <ele>68</ele>
        <time>2021-05-29T15:27:27.000Z</time>
      </trkpt>
      <trkpt lat="47.16986" lon="-1.6207">
        <ele>68</ele>
        <time>2021-05-29T15:27:29.000Z</time>
      </trkpt>
      <trkpt lat="47.16978" lon="-1.62084">
        <ele>69</ele>
        <time>2021-05-29T15:27:31.000Z</time>
      </trkpt>
      <trkpt lat="47.16969" lon="-1.62098">
        <ele>69</ele>
        <time>2021-05-29T15:27:33.000Z</time>
      </trkpt>
      <trkpt lat="47.16962" lon="-1.62112">
        <ele>69</ele>
        <time>2021-05-29T15:27:35.000Z</time>
      </trkpt>
      <trkpt lat="47.16954" lon="-1.62127">
        <ele>69</ele>
        <time>2021-05-29T15:27:37.000Z</time>
      </trkpt>
      <trkpt lat="47.16947" lon="-1.62141">
        <ele>69</ele>
        <time>2021-05-29T15:27:39.000Z</time>
      </trkpt>
      <trkpt lat="47.16939" lon="-1.62155">
        <ele>69</ele>
        <time>2021-05-29T15:27:41.000Z</time>
      </trkpt>
      <trkpt lat="47.16933" lon="-1.62171">
        <ele>69</ele>
        <time>2021-05-29T15:27:43.000Z</time>
      </trkpt>
      <trkpt lat="47.16925" lon="-1.62185">
        <ele>70</ele>
        <time>2021-05-29T15:27:45.000Z</time>
      </trkpt>
      <trkpt lat="47.16918" lon="-1.62199">
        <ele>70</ele>
        <time>2021-05-29T15:27:47.000Z</time>
      </trkpt>
      <trkpt lat="47.1691" lon="-1.62212">
        <ele>70</ele>
        <time>2021-05-29T15:27:49.000Z</time>
      </trkpt>
      <trkpt lat="47.169" lon="-1.62225">
        <ele>70</ele>
        <time>2021-05-29T15:27:51.000Z</time>
      </trkpt>
      <trkpt lat="47.16891" lon="-1.62236">
        <ele>71</ele>
        <time>2021-05-29T15:27:53.000Z</time>
      </trkpt>
      <trkpt lat="47.16882" lon="-1.62249">
        <ele>71</ele>
        <time>2021-05-29T15:27:55.000Z</time>
      </trkpt>
      <trkpt lat="47.16873" lon="-1.6226">
        <ele>71</ele>
        <time>2021-05-29T15:27:57.000Z</time>
      </trkpt>
      <trkpt lat="47.16863" lon="-1.62273">
        <ele>71</ele>
        <time>2021-05-29T15:27:59.000Z</time>
      </trkpt>
      <trkpt lat="47.16853" lon="-1.62285">
        <ele>71</ele>
        <time>2021-05-29T15:28:01.000Z</time>
      </trkpt>
      <trkpt lat="47.16844" lon="-1.62296">
        <ele>71</ele>
        <time>2021-05-29T15:28:03.000Z</time>
      </trkpt>
      <trkpt lat="47.16834" lon="-1.62306">
        <ele>71</ele>
        <time>2021-05-29T15:28:05.000Z</time>
      </trkpt>
      <trkpt lat="47.16825" lon="-1.62316">
        <ele>71</ele>
        <time>2021-05-29T15:28:07.000Z</time>
      </trkpt>
      <trkpt lat="47.16814" lon="-1.62324">
        <ele>72</ele>
        <time>2021-05-29T15:28:09.000Z</time>
      </trkpt>
      <trkpt lat="47.16803" lon="-1.62331">
        <ele>72</ele>
        <time>2021-05-29T15:28:11.000Z</time>
      </trkpt>
      <trkpt lat="47.16792" lon="-1.62337">
        <ele>72</ele>
        <time>2021-05-29T15:28:13.000Z</time>
      </trkpt>
      <trkpt lat="47.1678" lon="-1.62342">
        <ele>71</ele>
        <time>2021-05-29T15:28:15.000Z</time>
      </trkpt>
      <trkpt lat="47.16768" lon="-1.62349">
        <ele>71</ele>
        <time>2021-05-29T15:28:17.000Z</time>
      </trkpt>
      <trkpt lat="47.16756" lon="-1.62358">
        <ele>70</ele>
        <time>2021-05-29T15:28:19.000Z</time>
      </trkpt>
      <trkpt lat="47.16746" lon="-1.62368">
        <ele>69</ele>
        <time>2021-05-29T15:28:21.000Z</time>
      </trkpt>
      <trkpt lat="47.16738" lon="-1.62381">
        <ele>70</ele>
        <time>2021-05-29T15:28:23.000Z</time>
      </trkpt>
      <trkpt lat="47.16733" lon="-1.62397">
        <ele>70</ele>
        <time>2021-05-29T15:28:25.000Z</time>
      </trkpt>
      <trkpt lat="47.1673" lon="-1.62414">
        <ele>69</ele>
        <time>2021-05-29T15:28:27.000Z</time>
      </trkpt>
      <trkpt lat="47.16728" lon="-1.62429">
        <ele>68</ele>
        <time>2021-05-29T15:28:29.000Z</time>
      </trkpt>
      <trkpt lat="47.16724" lon="-1.62445">
        <ele>68</ele>
        <time>2021-05-29T15:28:31.000Z</time>
      </trkpt>
      <trkpt lat="47.1672" lon="-1.62463">
        <ele>68</ele>
        <time>2021-05-29T15:28:33.000Z</time>
      </trkpt>
      <trkpt lat="47.16716" lon="-1.62479">
        <ele>67</ele>
        <time>2021-05-29T15:28:35.000Z</time>
      </trkpt>
      <trkpt lat="47.16718" lon="-1.62494">
        <ele>67</ele>
        <time>2021-05-29T15:28:37.000Z</time>
      </trkpt>
      <trkpt lat="47.16729" lon="-1.625">
        <ele>67</ele>
        <time>2021-05-29T15:28:39.000Z</time>
      </trkpt>
      <trkpt lat="47.1674" lon="-1.62503">
        <ele>67</ele>
        <time>2021-05-29T15:28:41.000Z</time>
      </trkpt>
      <trkpt lat="47.16751" lon="-1.62509">
        <ele>67</ele>
        <time>2021-05-29T15:28:43.000Z</time>
      </trkpt>
      <trkpt lat="47.16762" lon="-1.62515">
        <ele>67</ele>
        <time>2021-05-29T15:28:45.000Z</time>
      </trkpt>
      <trkpt lat="47.16772" lon="-1.62521">
        <ele>68</ele>
        <time>2021-05-29T15:28:47.000Z</time>
      </trkpt>
      <trkpt lat="47.16783" lon="-1.62528">
        <ele>68</ele>
        <time>2021-05-29T15:28:49.000Z</time>
      </trkpt>
      <trkpt lat="47.16793" lon="-1.62535">
        <ele>69</ele>
        <time>2021-05-29T15:28:51.000Z</time>
      </trkpt>
      <trkpt lat="47.16803" lon="-1.62542">
        <ele>69</ele>
        <time>2021-05-29T15:28:53.000Z</time>
      </trkpt>
      <trkpt lat="47.16813" lon="-1.62548">
        <ele>69</ele>
        <time>2021-05-29T15:28:55.000Z</time>
      </trkpt>
      <trkpt lat="47.16821" lon="-1.62557">
        <ele>69</ele>
        <time>2021-05-29T15:28:57.000Z</time>
      </trkpt>
      <trkpt lat="47.1683" lon="-1.62567">
        <ele>70</ele>
        <time>2021-05-29T15:28:59.000Z</time>
      </trkpt>
      <trkpt lat="47.16835" lon="-1.62582">
        <ele>71</ele>
        <time>2021-05-29T15:29:01.000Z</time>
      </trkpt>
      <trkpt lat="47.16832" lon="-1.62598">
        <ele>71</ele>
        <time>2021-05-29T15:29:03.000Z</time>
      </trkpt>
      <trkpt lat="47.16822" lon="-1.62612">
        <ele>72</ele>
        <time>2021-05-29T15:29:05.000Z</time>
      </trkpt>
      <trkpt lat="47.16814" lon="-1.62624">
        <ele>72</ele>
        <time>2021-05-29T15:29:07.000Z</time>
      </trkpt>
      <trkpt lat="47.16805" lon="-1.62635">
        <ele>72</ele>
        <time>2021-05-29T15:29:09.000Z</time>
      </trkpt>
      <trkpt lat="47.16799" lon="-1.62646">
        <ele>72</ele>
        <time>2021-05-29T15:29:11.000Z</time>
      </trkpt>
      <trkpt lat="47.16791" lon="-1.62659">
        <ele>72</ele>
        <time>2021-05-29T15:29:14.000Z</time>
      </trkpt>
      <trkpt lat="47.16781" lon="-1.62657">
        <ele>73</ele>
        <time>2021-05-29T15:29:18.000Z</time>
      </trkpt>
    </trkseg>
  </trk>
</gpx>